<?xml version="1.0" encoding="UTF-8" standalone="no" ?>
<gpx xmlns="http://www.topografix.com/GPX/1/1" xmlns:xsi="http://www.w3.org/2001/XMLSchema-instance" xsi:schemaLocation="http://www.topografix.com/GPX/1/1 http://www.topografix.com/GPX/1/1/gpx.xsd" version="1.1" creator="VisuGPX - https://www.visugpx.com">
  <metadata>
    <name>GTJ Vtt - Etape 4</name>
    <desc><![CDATA[Avec près de 70 km et pas loin de 1500 m de dénivelé la quatrième étape de notre traversée du Jura comptera sûrement parmi les plus exigeantes. Départ de la ferme du Theverot et une navigation dans les champs et les forêts et bois pour arriver à proximité de Pontarlier. Après un passage ardu au fort Mahler qui défendait le château de Joux construit au 11 ème siècle mais remanié à plusieurs reprises pas les Bourguignons, Vauban et le Maréchal Joffre, nous remontons vers les Fourgs où nous arrivons sous une belle pluie bien persistante et froide. Après un picnic vite expédié, nous repartons vers les Hôpitaux Neufs puis Metabief …nous poursuivons sous une pluie persistante et agrémentée d’averses de grêle vers Mouthe où notre hébergement du soir à proximité de la source du Doubs nous permet de procéder au nettoyage des vélos …]]></desc>
  </metadata>
  <trk>
    <name><![CDATA[GTJ Vtt - Etape 4]]></name>
    <trkseg>
      <trkpt lat="46.97987" lon="6.51514">
        <ele>937.79998779297</ele>
        <time>2023-05-15T07:07:02.000Z</time>
      </trkpt>
      <trkpt lat="46.97991" lon="6.51516">
        <ele>941.40002441406</ele>
        <time>2023-05-15T07:07:03.000Z</time>
      </trkpt>
      <trkpt lat="46.97998" lon="6.51525">
        <ele>940.79998779297</ele>
        <time>2023-05-15T07:07:05.000Z</time>
      </trkpt>
      <trkpt lat="46.98001" lon="6.5153">
        <ele>941</ele>
        <time>2023-05-15T07:07:06.000Z</time>
      </trkpt>
      <trkpt lat="46.98004" lon="6.51536">
        <ele>940.40002441406</ele>
        <time>2023-05-15T07:07:07.000Z</time>
      </trkpt>
      <trkpt lat="46.98011" lon="6.51545">
        <ele>940.20001220703</ele>
        <time>2023-05-15T07:07:09.000Z</time>
      </trkpt>
      <trkpt lat="46.98015" lon="6.51549">
        <ele>940.40002441406</ele>
        <time>2023-05-15T07:07:10.000Z</time>
      </trkpt>
      <trkpt lat="46.98041" lon="6.51568">
        <ele>940</ele>
        <time>2023-05-15T07:07:15.000Z</time>
      </trkpt>
      <trkpt lat="46.98072" lon="6.51588">
        <ele>939.40002441406</ele>
        <time>2023-05-15T07:07:20.000Z</time>
      </trkpt>
      <trkpt lat="46.98078" lon="6.51594">
        <ele>938.79998779297</ele>
        <time>2023-05-15T07:07:21.000Z</time>
      </trkpt>
      <trkpt lat="46.98091" lon="6.51606">
        <ele>938</ele>
        <time>2023-05-15T07:07:23.000Z</time>
      </trkpt>
      <trkpt lat="46.98118" lon="6.51636">
        <ele>937.20001220703</ele>
        <time>2023-05-15T07:07:27.000Z</time>
      </trkpt>
      <trkpt lat="46.98125" lon="6.51646">
        <ele>937</ele>
        <time>2023-05-15T07:07:28.000Z</time>
      </trkpt>
      <trkpt lat="46.98153" lon="6.51684">
        <ele>935.79998779297</ele>
        <time>2023-05-15T07:07:32.000Z</time>
      </trkpt>
      <trkpt lat="46.98167" lon="6.51703">
        <ele>934.40002441406</ele>
        <time>2023-05-15T07:07:34.000Z</time>
      </trkpt>
      <trkpt lat="46.98187" lon="6.51732">
        <ele>933.40002441406</ele>
        <time>2023-05-15T07:07:37.000Z</time>
      </trkpt>
      <trkpt lat="46.982" lon="6.5175">
        <ele>932.40002441406</ele>
        <time>2023-05-15T07:07:39.000Z</time>
      </trkpt>
      <trkpt lat="46.98211" lon="6.51766">
        <ele>931.79998779297</ele>
        <time>2023-05-15T07:07:41.000Z</time>
      </trkpt>
      <trkpt lat="46.98223" lon="6.51783">
        <ele>931.20001220703</ele>
        <time>2023-05-15T07:07:43.000Z</time>
      </trkpt>
      <trkpt lat="46.98245" lon="6.51823">
        <ele>929.79998779297</ele>
        <time>2023-05-15T07:07:47.000Z</time>
      </trkpt>
      <trkpt lat="46.9826" lon="6.51855">
        <ele>928.20001220703</ele>
        <time>2023-05-15T07:07:50.000Z</time>
      </trkpt>
      <trkpt lat="46.98273" lon="6.51888">
        <ele>927</ele>
        <time>2023-05-15T07:07:53.000Z</time>
      </trkpt>
      <trkpt lat="46.98277" lon="6.51899">
        <ele>926.40002441406</ele>
        <time>2023-05-15T07:07:54.000Z</time>
      </trkpt>
      <trkpt lat="46.98279" lon="6.5191">
        <ele>926</ele>
        <time>2023-05-15T07:07:55.000Z</time>
      </trkpt>
      <trkpt lat="46.98289" lon="6.51945">
        <ele>924.79998779297</ele>
        <time>2023-05-15T07:07:58.000Z</time>
      </trkpt>
      <trkpt lat="46.98298" lon="6.5198">
        <ele>923.40002441406</ele>
        <time>2023-05-15T07:08:01.000Z</time>
      </trkpt>
      <trkpt lat="46.98302" lon="6.5199">
        <ele>923</ele>
        <time>2023-05-15T07:08:02.000Z</time>
      </trkpt>
      <trkpt lat="46.98313" lon="6.5201">
        <ele>921.79998779297</ele>
        <time>2023-05-15T07:08:04.000Z</time>
      </trkpt>
      <trkpt lat="46.98336" lon="6.5203">
        <ele>920.79998779297</ele>
        <time>2023-05-15T07:08:07.000Z</time>
      </trkpt>
      <trkpt lat="46.98344" lon="6.52036">
        <ele>920.20001220703</ele>
        <time>2023-05-15T07:08:08.000Z</time>
      </trkpt>
      <trkpt lat="46.98358" lon="6.52048">
        <ele>919.40002441406</ele>
        <time>2023-05-15T07:08:10.000Z</time>
      </trkpt>
      <trkpt lat="46.98372" lon="6.52061">
        <ele>918</ele>
        <time>2023-05-15T07:08:12.000Z</time>
      </trkpt>
      <trkpt lat="46.98391" lon="6.52079">
        <ele>916.59997558594</ele>
        <time>2023-05-15T07:08:15.000Z</time>
      </trkpt>
      <trkpt lat="46.98403" lon="6.5209">
        <ele>916.20001220703</ele>
        <time>2023-05-15T07:08:17.000Z</time>
      </trkpt>
      <trkpt lat="46.98422" lon="6.52102">
        <ele>915.79998779297</ele>
        <time>2023-05-15T07:08:20.000Z</time>
      </trkpt>
      <trkpt lat="46.98448" lon="6.52123">
        <ele>915</ele>
        <time>2023-05-15T07:08:24.000Z</time>
      </trkpt>
      <trkpt lat="46.98454" lon="6.5213">
        <ele>914.79998779297</ele>
        <time>2023-05-15T07:08:25.000Z</time>
      </trkpt>
      <trkpt lat="46.9846" lon="6.52138">
        <ele>914.59997558594</ele>
        <time>2023-05-15T07:08:26.000Z</time>
      </trkpt>
      <trkpt lat="46.98485" lon="6.52167">
        <ele>913.40002441406</ele>
        <time>2023-05-15T07:08:30.000Z</time>
      </trkpt>
      <trkpt lat="46.98499" lon="6.52178">
        <ele>912.20001220703</ele>
        <time>2023-05-15T07:08:32.000Z</time>
      </trkpt>
      <trkpt lat="46.98519" lon="6.52194">
        <ele>911.59997558594</ele>
        <time>2023-05-15T07:08:35.000Z</time>
      </trkpt>
      <trkpt lat="46.98536" lon="6.52215">
        <ele>911.20001220703</ele>
        <time>2023-05-15T07:08:38.000Z</time>
      </trkpt>
      <trkpt lat="46.9854" lon="6.52224">
        <ele>911</ele>
        <time>2023-05-15T07:08:39.000Z</time>
      </trkpt>
      <trkpt lat="46.98551" lon="6.52263">
        <ele>910.20001220703</ele>
        <time>2023-05-15T07:08:43.000Z</time>
      </trkpt>
      <trkpt lat="46.98553" lon="6.52273">
        <ele>909.79998779297</ele>
        <time>2023-05-15T07:08:44.000Z</time>
      </trkpt>
      <trkpt lat="46.98559" lon="6.52292">
        <ele>909.59997558594</ele>
        <time>2023-05-15T07:08:46.000Z</time>
      </trkpt>
      <trkpt lat="46.98562" lon="6.523">
        <ele>909.40002441406</ele>
        <time>2023-05-15T07:08:47.000Z</time>
      </trkpt>
      <trkpt lat="46.98571" lon="6.52317">
        <ele>909</ele>
        <time>2023-05-15T07:08:49.000Z</time>
      </trkpt>
      <trkpt lat="46.98581" lon="6.52335">
        <ele>907.79998779297</ele>
        <time>2023-05-15T07:08:51.000Z</time>
      </trkpt>
      <trkpt lat="46.98594" lon="6.52363">
        <ele>906.59997558594</ele>
        <time>2023-05-15T07:08:54.000Z</time>
      </trkpt>
      <trkpt lat="46.98598" lon="6.52373">
        <ele>906.40002441406</ele>
        <time>2023-05-15T07:08:55.000Z</time>
      </trkpt>
      <trkpt lat="46.98609" lon="6.52399">
        <ele>906</ele>
        <time>2023-05-15T07:08:58.000Z</time>
      </trkpt>
      <trkpt lat="46.98619" lon="6.52414">
        <ele>905.59997558594</ele>
        <time>2023-05-15T07:09:00.000Z</time>
      </trkpt>
      <trkpt lat="46.98645" lon="6.52435">
        <ele>904.40002441406</ele>
        <time>2023-05-15T07:09:04.000Z</time>
      </trkpt>
      <trkpt lat="46.98658" lon="6.52445">
        <ele>903.79998779297</ele>
        <time>2023-05-15T07:09:06.000Z</time>
      </trkpt>
      <trkpt lat="46.98669" lon="6.52457">
        <ele>903.40002441406</ele>
        <time>2023-05-15T07:09:08.000Z</time>
      </trkpt>
      <trkpt lat="46.98674" lon="6.52464">
        <ele>903.20001220703</ele>
        <time>2023-05-15T07:09:09.000Z</time>
      </trkpt>
      <trkpt lat="46.9869" lon="6.52493">
        <ele>902.20001220703</ele>
        <time>2023-05-15T07:09:13.000Z</time>
      </trkpt>
      <trkpt lat="46.98695" lon="6.52499">
        <ele>902</ele>
        <time>2023-05-15T07:09:14.000Z</time>
      </trkpt>
      <trkpt lat="46.98724" lon="6.52527">
        <ele>901.40002441406</ele>
        <time>2023-05-15T07:09:19.000Z</time>
      </trkpt>
      <trkpt lat="46.9873" lon="6.52534">
        <ele>901.20001220703</ele>
        <time>2023-05-15T07:09:20.000Z</time>
      </trkpt>
      <trkpt lat="46.98739" lon="6.52551">
        <ele>900.59997558594</ele>
        <time>2023-05-15T07:09:22.000Z</time>
      </trkpt>
      <trkpt lat="46.98742" lon="6.52559">
        <ele>900.40002441406</ele>
        <time>2023-05-15T07:09:23.000Z</time>
      </trkpt>
      <trkpt lat="46.98749" lon="6.52577">
        <ele>900</ele>
        <time>2023-05-15T07:09:25.000Z</time>
      </trkpt>
      <trkpt lat="46.9876" lon="6.52611">
        <ele>899.40002441406</ele>
        <time>2023-05-15T07:09:29.000Z</time>
      </trkpt>
      <trkpt lat="46.98767" lon="6.52627">
        <ele>898.79998779297</ele>
        <time>2023-05-15T07:09:31.000Z</time>
      </trkpt>
      <trkpt lat="46.98783" lon="6.52656">
        <ele>897.79998779297</ele>
        <time>2023-05-15T07:09:35.000Z</time>
      </trkpt>
      <trkpt lat="46.98786" lon="6.52664">
        <ele>897.59997558594</ele>
        <time>2023-05-15T07:09:36.000Z</time>
      </trkpt>
      <trkpt lat="46.98792" lon="6.52692">
        <ele>897</ele>
        <time>2023-05-15T07:09:39.000Z</time>
      </trkpt>
      <trkpt lat="46.98792" lon="6.52711">
        <ele>896.59997558594</ele>
        <time>2023-05-15T07:09:41.000Z</time>
      </trkpt>
      <trkpt lat="46.98794" lon="6.52739">
        <ele>895.79998779297</ele>
        <time>2023-05-15T07:09:44.000Z</time>
      </trkpt>
      <trkpt lat="46.98796" lon="6.52748">
        <ele>895.59997558594</ele>
        <time>2023-05-15T07:09:45.000Z</time>
      </trkpt>
      <trkpt lat="46.98797" lon="6.52757">
        <ele>895.40002441406</ele>
        <time>2023-05-15T07:09:46.000Z</time>
      </trkpt>
      <trkpt lat="46.98805" lon="6.52782">
        <ele>894.79998779297</ele>
        <time>2023-05-15T07:09:49.000Z</time>
      </trkpt>
      <trkpt lat="46.98809" lon="6.52789">
        <ele>894.40002441406</ele>
        <time>2023-05-15T07:09:50.000Z</time>
      </trkpt>
      <trkpt lat="46.98813" lon="6.52796">
        <ele>894.20001220703</ele>
        <time>2023-05-15T07:09:51.000Z</time>
      </trkpt>
      <trkpt lat="46.98835" lon="6.52829">
        <ele>893.40002441406</ele>
        <time>2023-05-15T07:09:56.000Z</time>
      </trkpt>
      <trkpt lat="46.98838" lon="6.52836">
        <ele>893.20001220703</ele>
        <time>2023-05-15T07:09:57.000Z</time>
      </trkpt>
      <trkpt lat="46.98861" lon="6.52884">
        <ele>892</ele>
        <time>2023-05-15T07:10:04.000Z</time>
      </trkpt>
      <trkpt lat="46.98889" lon="6.52922">
        <ele>891.20001220703</ele>
        <time>2023-05-15T07:10:10.000Z</time>
      </trkpt>
      <trkpt lat="46.98894" lon="6.52927">
        <ele>890.79998779297</ele>
        <time>2023-05-15T07:10:11.000Z</time>
      </trkpt>
      <trkpt lat="46.98919" lon="6.5295">
        <ele>889.59997558594</ele>
        <time>2023-05-15T07:10:16.000Z</time>
      </trkpt>
      <trkpt lat="46.98927" lon="6.52961">
        <ele>889.40002441406</ele>
        <time>2023-05-15T07:10:18.000Z</time>
      </trkpt>
      <trkpt lat="46.98934" lon="6.52974">
        <ele>889.20001220703</ele>
        <time>2023-05-15T07:10:20.000Z</time>
      </trkpt>
      <trkpt lat="46.98936" lon="6.5298">
        <ele>889.20001220703</ele>
        <time>2023-05-15T07:10:21.000Z</time>
      </trkpt>
      <trkpt lat="46.98943" lon="6.53">
        <ele>889</ele>
        <time>2023-05-15T07:10:24.000Z</time>
      </trkpt>
      <trkpt lat="46.98946" lon="6.53012">
        <ele>889</ele>
        <time>2023-05-15T07:10:26.000Z</time>
      </trkpt>
      <trkpt lat="46.9895" lon="6.53024">
        <ele>889</ele>
        <time>2023-05-15T07:10:28.000Z</time>
      </trkpt>
      <trkpt lat="46.98959" lon="6.53051">
        <ele>889.20001220703</ele>
        <time>2023-05-15T07:10:33.000Z</time>
      </trkpt>
      <trkpt lat="46.9896" lon="6.53057">
        <ele>889.20001220703</ele>
        <time>2023-05-15T07:10:34.000Z</time>
      </trkpt>
      <trkpt lat="46.98974" lon="6.53085">
        <ele>889.40002441406</ele>
        <time>2023-05-15T07:10:39.000Z</time>
      </trkpt>
      <trkpt lat="46.98983" lon="6.53102">
        <ele>889.40002441406</ele>
        <time>2023-05-15T07:10:42.000Z</time>
      </trkpt>
      <trkpt lat="46.99001" lon="6.53133">
        <ele>889.40002441406</ele>
        <time>2023-05-15T07:10:49.000Z</time>
      </trkpt>
      <trkpt lat="46.99022" lon="6.53166">
        <ele>889.59997558594</ele>
        <time>2023-05-15T07:10:57.000Z</time>
      </trkpt>
      <trkpt lat="46.99045" lon="6.5321">
        <ele>890</ele>
        <time>2023-05-15T07:11:07.000Z</time>
      </trkpt>
      <trkpt lat="46.99054" lon="6.53231">
        <ele>890.79998779297</ele>
        <time>2023-05-15T07:11:12.000Z</time>
      </trkpt>
      <trkpt lat="46.99055" lon="6.53235">
        <ele>890.79998779297</ele>
        <time>2023-05-15T07:11:13.000Z</time>
      </trkpt>
      <trkpt lat="46.9907" lon="6.53266">
        <ele>891.79998779297</ele>
        <time>2023-05-15T07:11:21.000Z</time>
      </trkpt>
      <trkpt lat="46.99074" lon="6.53273">
        <ele>892</ele>
        <time>2023-05-15T07:11:23.000Z</time>
      </trkpt>
      <trkpt lat="46.99087" lon="6.53295">
        <ele>892.79998779297</ele>
        <time>2023-05-15T07:11:30.000Z</time>
      </trkpt>
      <trkpt lat="46.99093" lon="6.53305">
        <ele>893</ele>
        <time>2023-05-15T07:11:33.000Z</time>
      </trkpt>
      <trkpt lat="46.99115" lon="6.53337">
        <ele>893.79998779297</ele>
        <time>2023-05-15T07:11:44.000Z</time>
      </trkpt>
      <trkpt lat="46.99122" lon="6.53347">
        <ele>894</ele>
        <time>2023-05-15T07:11:47.000Z</time>
      </trkpt>
      <trkpt lat="46.99137" lon="6.53368">
        <ele>894.40002441406</ele>
        <time>2023-05-15T07:11:54.000Z</time>
      </trkpt>
      <trkpt lat="46.99157" lon="6.53399">
        <ele>894.79998779297</ele>
        <time>2023-05-15T07:12:03.000Z</time>
      </trkpt>
      <trkpt lat="46.99175" lon="6.53425">
        <ele>895</ele>
        <time>2023-05-15T07:12:10.000Z</time>
      </trkpt>
      <trkpt lat="46.99182" lon="6.53435">
        <ele>895</ele>
        <time>2023-05-15T07:12:13.000Z</time>
      </trkpt>
      <trkpt lat="46.99201" lon="6.53463">
        <ele>895</ele>
        <time>2023-05-15T07:12:21.000Z</time>
      </trkpt>
      <trkpt lat="46.99213" lon="6.53492">
        <ele>895.40002441406</ele>
        <time>2023-05-15T07:12:28.000Z</time>
      </trkpt>
      <trkpt lat="46.99224" lon="6.53515">
        <ele>896.20001220703</ele>
        <time>2023-05-15T07:12:34.000Z</time>
      </trkpt>
      <trkpt lat="46.99227" lon="6.53521">
        <ele>896.59997558594</ele>
        <time>2023-05-15T07:12:36.000Z</time>
      </trkpt>
      <trkpt lat="46.99233" lon="6.53536">
        <ele>897.59997558594</ele>
        <time>2023-05-15T07:12:40.000Z</time>
      </trkpt>
      <trkpt lat="46.99239" lon="6.53546">
        <ele>898</ele>
        <time>2023-05-15T07:12:43.000Z</time>
      </trkpt>
      <trkpt lat="46.99247" lon="6.53558">
        <ele>898.59997558594</ele>
        <time>2023-05-15T07:12:47.000Z</time>
      </trkpt>
      <trkpt lat="46.99259" lon="6.53573">
        <ele>899.40002441406</ele>
        <time>2023-05-15T07:12:53.000Z</time>
      </trkpt>
      <trkpt lat="46.99261" lon="6.53576">
        <ele>899.59997558594</ele>
        <time>2023-05-15T07:12:54.000Z</time>
      </trkpt>
      <trkpt lat="46.99276" lon="6.53598">
        <ele>900.20001220703</ele>
        <time>2023-05-15T07:13:03.000Z</time>
      </trkpt>
      <trkpt lat="46.99291" lon="6.53626">
        <ele>900</ele>
        <time>2023-05-15T07:13:12.000Z</time>
      </trkpt>
      <trkpt lat="46.99305" lon="6.53652">
        <ele>900</ele>
        <time>2023-05-15T07:13:19.000Z</time>
      </trkpt>
      <trkpt lat="46.99307" lon="6.53656">
        <ele>900</ele>
        <time>2023-05-15T07:13:20.000Z</time>
      </trkpt>
      <trkpt lat="46.99324" lon="6.53686">
        <ele>899.40002441406</ele>
        <time>2023-05-15T07:13:26.000Z</time>
      </trkpt>
      <trkpt lat="46.99327" lon="6.53691">
        <ele>899.20001220703</ele>
        <time>2023-05-15T07:13:27.000Z</time>
      </trkpt>
      <trkpt lat="46.99333" lon="6.53706">
        <ele>899</ele>
        <time>2023-05-15T07:13:30.000Z</time>
      </trkpt>
      <trkpt lat="46.99337" lon="6.53725">
        <ele>898.79998779297</ele>
        <time>2023-05-15T07:13:34.000Z</time>
      </trkpt>
      <trkpt lat="46.99343" lon="6.53755">
        <ele>899</ele>
        <time>2023-05-15T07:13:40.000Z</time>
      </trkpt>
      <trkpt lat="46.99345" lon="6.53758">
        <ele>899</ele>
        <time>2023-05-15T07:13:41.000Z</time>
      </trkpt>
      <trkpt lat="46.99349" lon="6.53759">
        <ele>899.20001220703</ele>
        <time>2023-05-15T07:13:43.000Z</time>
      </trkpt>
      <trkpt lat="46.99353" lon="6.53755">
        <ele>899.20001220703</ele>
        <time>2023-05-15T07:13:45.000Z</time>
      </trkpt>
      <trkpt lat="46.99354" lon="6.53751">
        <ele>899.40002441406</ele>
        <time>2023-05-15T07:13:46.000Z</time>
      </trkpt>
      <trkpt lat="46.99359" lon="6.5372">
        <ele>901</ele>
        <time>2023-05-15T07:13:53.000Z</time>
      </trkpt>
      <trkpt lat="46.99359" lon="6.53715">
        <ele>901.20001220703</ele>
        <time>2023-05-15T07:13:54.000Z</time>
      </trkpt>
      <trkpt lat="46.9936" lon="6.53698">
        <ele>902.20001220703</ele>
        <time>2023-05-15T07:13:58.000Z</time>
      </trkpt>
      <trkpt lat="46.99357" lon="6.53681">
        <ele>903.20001220703</ele>
        <time>2023-05-15T07:14:02.000Z</time>
      </trkpt>
      <trkpt lat="46.99352" lon="6.53664">
        <ele>904.40002441406</ele>
        <time>2023-05-15T07:14:07.000Z</time>
      </trkpt>
      <trkpt lat="46.99348" lon="6.53654">
        <ele>904.59997558594</ele>
        <time>2023-05-15T07:14:10.000Z</time>
      </trkpt>
      <trkpt lat="46.99344" lon="6.53645">
        <ele>905.40002441406</ele>
        <time>2023-05-15T07:14:13.000Z</time>
      </trkpt>
      <trkpt lat="46.99338" lon="6.53633">
        <ele>906.40002441406</ele>
        <time>2023-05-15T07:14:18.000Z</time>
      </trkpt>
      <trkpt lat="46.99337" lon="6.5363">
        <ele>906.40002441406</ele>
        <time>2023-05-15T07:14:19.000Z</time>
      </trkpt>
      <trkpt lat="46.99331" lon="6.53617">
        <ele>907.59997558594</ele>
        <time>2023-05-15T07:14:24.000Z</time>
      </trkpt>
      <trkpt lat="46.99329" lon="6.53612">
        <ele>907.79998779297</ele>
        <time>2023-05-15T07:14:26.000Z</time>
      </trkpt>
      <trkpt lat="46.99325" lon="6.53601">
        <ele>908.59997558594</ele>
        <time>2023-05-15T07:14:31.000Z</time>
      </trkpt>
      <trkpt lat="46.99321" lon="6.5359">
        <ele>909.40002441406</ele>
        <time>2023-05-15T07:14:35.000Z</time>
      </trkpt>
      <trkpt lat="46.9932" lon="6.53588">
        <ele>909.59997558594</ele>
        <time>2023-05-15T07:14:36.000Z</time>
      </trkpt>
      <trkpt lat="46.99313" lon="6.53568">
        <ele>910.40002441406</ele>
        <time>2023-05-15T07:14:44.000Z</time>
      </trkpt>
      <trkpt lat="46.99312" lon="6.53566">
        <ele>910.79998779297</ele>
        <time>2023-05-15T07:14:45.000Z</time>
      </trkpt>
      <trkpt lat="46.99307" lon="6.5355">
        <ele>911.79998779297</ele>
        <time>2023-05-15T07:14:51.000Z</time>
      </trkpt>
      <trkpt lat="46.99306" lon="6.53544">
        <ele>912</ele>
        <time>2023-05-15T07:14:53.000Z</time>
      </trkpt>
      <trkpt lat="46.99301" lon="6.53529">
        <ele>912.79998779297</ele>
        <time>2023-05-15T07:14:59.000Z</time>
      </trkpt>
      <trkpt lat="46.99299" lon="6.53522">
        <ele>913.20001220703</ele>
        <time>2023-05-15T07:15:02.000Z</time>
      </trkpt>
      <trkpt lat="46.99296" lon="6.53512">
        <ele>914</ele>
        <time>2023-05-15T07:15:06.000Z</time>
      </trkpt>
      <trkpt lat="46.99294" lon="6.53508">
        <ele>914.20001220703</ele>
        <time>2023-05-15T07:15:08.000Z</time>
      </trkpt>
      <trkpt lat="46.99289" lon="6.53494">
        <ele>915</ele>
        <time>2023-05-15T07:15:14.000Z</time>
      </trkpt>
      <trkpt lat="46.99284" lon="6.53483">
        <ele>915.79998779297</ele>
        <time>2023-05-15T07:15:19.000Z</time>
      </trkpt>
      <trkpt lat="46.99284" lon="6.53477">
        <ele>916.20001220703</ele>
        <time>2023-05-15T07:15:21.000Z</time>
      </trkpt>
      <trkpt lat="46.99283" lon="6.53465">
        <ele>917</ele>
        <time>2023-05-15T07:15:26.000Z</time>
      </trkpt>
      <trkpt lat="46.99281" lon="6.53458">
        <ele>917.20001220703</ele>
        <time>2023-05-15T07:15:29.000Z</time>
      </trkpt>
      <trkpt lat="46.99279" lon="6.53446">
        <ele>917.79998779297</ele>
        <time>2023-05-15T07:15:34.000Z</time>
      </trkpt>
      <trkpt lat="46.99277" lon="6.53442">
        <ele>918.20001220703</ele>
        <time>2023-05-15T07:15:36.000Z</time>
      </trkpt>
      <trkpt lat="46.99272" lon="6.53428">
        <ele>919.20001220703</ele>
        <time>2023-05-15T07:15:42.000Z</time>
      </trkpt>
      <trkpt lat="46.99271" lon="6.53423">
        <ele>919.40002441406</ele>
        <time>2023-05-15T07:15:44.000Z</time>
      </trkpt>
      <trkpt lat="46.99267" lon="6.53406">
        <ele>920.20001220703</ele>
        <time>2023-05-15T07:15:51.000Z</time>
      </trkpt>
      <trkpt lat="46.99265" lon="6.53401">
        <ele>920.40002441406</ele>
        <time>2023-05-15T07:15:53.000Z</time>
      </trkpt>
      <trkpt lat="46.99261" lon="6.53385">
        <ele>921.40002441406</ele>
        <time>2023-05-15T07:16:00.000Z</time>
      </trkpt>
      <trkpt lat="46.9926" lon="6.53383">
        <ele>921.40002441406</ele>
        <time>2023-05-15T07:16:01.000Z</time>
      </trkpt>
      <trkpt lat="46.99254" lon="6.53367">
        <ele>922.20001220703</ele>
        <time>2023-05-15T07:16:08.000Z</time>
      </trkpt>
      <trkpt lat="46.99253" lon="6.53365">
        <ele>922.40002441406</ele>
        <time>2023-05-15T07:16:09.000Z</time>
      </trkpt>
      <trkpt lat="46.99249" lon="6.53352">
        <ele>923.40002441406</ele>
        <time>2023-05-15T07:16:15.000Z</time>
      </trkpt>
      <trkpt lat="46.99247" lon="6.53345">
        <ele>923.79998779297</ele>
        <time>2023-05-15T07:16:18.000Z</time>
      </trkpt>
      <trkpt lat="46.99242" lon="6.53334">
        <ele>924.59997558594</ele>
        <time>2023-05-15T07:16:23.000Z</time>
      </trkpt>
      <trkpt lat="46.9924" lon="6.53327">
        <ele>924.59997558594</ele>
        <time>2023-05-15T07:16:26.000Z</time>
      </trkpt>
      <trkpt lat="46.99236" lon="6.53313">
        <ele>925.40002441406</ele>
        <time>2023-05-15T07:16:32.000Z</time>
      </trkpt>
      <trkpt lat="46.99235" lon="6.53311">
        <ele>925.59997558594</ele>
        <time>2023-05-15T07:16:33.000Z</time>
      </trkpt>
      <trkpt lat="46.99231" lon="6.53297">
        <ele>926.59997558594</ele>
        <time>2023-05-15T07:16:39.000Z</time>
      </trkpt>
      <trkpt lat="46.99228" lon="6.5329">
        <ele>927</ele>
        <time>2023-05-15T07:16:42.000Z</time>
      </trkpt>
      <trkpt lat="46.99225" lon="6.53278">
        <ele>927.59997558594</ele>
        <time>2023-05-15T07:16:47.000Z</time>
      </trkpt>
      <trkpt lat="46.99223" lon="6.53269">
        <ele>928.20001220703</ele>
        <time>2023-05-15T07:16:51.000Z</time>
      </trkpt>
      <trkpt lat="46.99223" lon="6.53264">
        <ele>928.40002441406</ele>
        <time>2023-05-15T07:16:53.000Z</time>
      </trkpt>
      <trkpt lat="46.99223" lon="6.53261">
        <ele>928.59997558594</ele>
        <time>2023-05-15T07:16:54.000Z</time>
      </trkpt>
      <trkpt lat="46.99222" lon="6.53257">
        <ele>928.79998779297</ele>
        <time>2023-05-15T07:16:56.000Z</time>
      </trkpt>
      <trkpt lat="46.99216" lon="6.53241">
        <ele>929.79998779297</ele>
        <time>2023-05-15T07:17:03.000Z</time>
      </trkpt>
      <trkpt lat="46.99214" lon="6.53238">
        <ele>929.79998779297</ele>
        <time>2023-05-15T07:17:04.000Z</time>
      </trkpt>
      <trkpt lat="46.99209" lon="6.53227">
        <ele>930.20001220703</ele>
        <time>2023-05-15T07:17:09.000Z</time>
      </trkpt>
      <trkpt lat="46.99207" lon="6.5322">
        <ele>930.59997558594</ele>
        <time>2023-05-15T07:17:12.000Z</time>
      </trkpt>
      <trkpt lat="46.99201" lon="6.53209">
        <ele>931.59997558594</ele>
        <time>2023-05-15T07:17:17.000Z</time>
      </trkpt>
      <trkpt lat="46.99195" lon="6.53188">
        <ele>932.79998779297</ele>
        <time>2023-05-15T07:17:26.000Z</time>
      </trkpt>
      <trkpt lat="46.99187" lon="6.53172">
        <ele>933.79998779297</ele>
        <time>2023-05-15T07:17:33.000Z</time>
      </trkpt>
      <trkpt lat="46.99179" lon="6.53157">
        <ele>934.79998779297</ele>
        <time>2023-05-15T07:17:40.000Z</time>
      </trkpt>
      <trkpt lat="46.99176" lon="6.53147">
        <ele>935.40002441406</ele>
        <time>2023-05-15T07:17:44.000Z</time>
      </trkpt>
      <trkpt lat="46.99177" lon="6.53144">
        <ele>935.40002441406</ele>
        <time>2023-05-15T07:17:45.000Z</time>
      </trkpt>
      <trkpt lat="46.99177" lon="6.53141">
        <ele>935.40002441406</ele>
        <time>2023-05-15T07:17:46.000Z</time>
      </trkpt>
      <trkpt lat="46.9918" lon="6.53138">
        <ele>936.20001220703</ele>
        <time>2023-05-15T07:17:49.000Z</time>
      </trkpt>
      <trkpt lat="46.99185" lon="6.53145">
        <ele>937.40002441406</ele>
        <time>2023-05-15T07:17:53.000Z</time>
      </trkpt>
      <trkpt lat="46.99189" lon="6.53155">
        <ele>938.59997558594</ele>
        <time>2023-05-15T07:17:57.000Z</time>
      </trkpt>
      <trkpt lat="46.99191" lon="6.53162">
        <ele>939</ele>
        <time>2023-05-15T07:18:00.000Z</time>
      </trkpt>
      <trkpt lat="46.99195" lon="6.53171">
        <ele>939.59997558594</ele>
        <time>2023-05-15T07:18:04.000Z</time>
      </trkpt>
      <trkpt lat="46.99198" lon="6.53177">
        <ele>940</ele>
        <time>2023-05-15T07:18:07.000Z</time>
      </trkpt>
      <trkpt lat="46.99198" lon="6.53179">
        <ele>940</ele>
        <time>2023-05-15T07:18:08.000Z</time>
      </trkpt>
      <trkpt lat="46.99204" lon="6.53188">
        <ele>940.59997558594</ele>
        <time>2023-05-15T07:18:14.000Z</time>
      </trkpt>
      <trkpt lat="46.99213" lon="6.53203">
        <ele>941.59997558594</ele>
        <time>2023-05-15T07:18:22.000Z</time>
      </trkpt>
      <trkpt lat="46.99215" lon="6.53205">
        <ele>941.79998779297</ele>
        <time>2023-05-15T07:18:23.000Z</time>
      </trkpt>
      <trkpt lat="46.99221" lon="6.53215">
        <ele>942.40002441406</ele>
        <time>2023-05-15T07:18:29.000Z</time>
      </trkpt>
      <trkpt lat="46.99225" lon="6.53222">
        <ele>942.79998779297</ele>
        <time>2023-05-15T07:18:33.000Z</time>
      </trkpt>
      <trkpt lat="46.99228" lon="6.53227">
        <ele>943.20001220703</ele>
        <time>2023-05-15T07:18:36.000Z</time>
      </trkpt>
      <trkpt lat="46.99233" lon="6.53236">
        <ele>944</ele>
        <time>2023-05-15T07:18:40.000Z</time>
      </trkpt>
      <trkpt lat="46.99235" lon="6.53241">
        <ele>944</ele>
        <time>2023-05-15T07:18:42.000Z</time>
      </trkpt>
      <trkpt lat="46.99237" lon="6.53245">
        <ele>944.40002441406</ele>
        <time>2023-05-15T07:18:44.000Z</time>
      </trkpt>
      <trkpt lat="46.99238" lon="6.53247">
        <ele>944.59997558594</ele>
        <time>2023-05-15T07:18:46.000Z</time>
      </trkpt>
      <trkpt lat="46.9924" lon="6.53249">
        <ele>944.79998779297</ele>
        <time>2023-05-15T07:18:47.000Z</time>
      </trkpt>
      <trkpt lat="46.99241" lon="6.5325">
        <ele>945</ele>
        <time>2023-05-15T07:18:48.000Z</time>
      </trkpt>
      <trkpt lat="46.99252" lon="6.53267">
        <ele>945.59997558594</ele>
        <time>2023-05-15T07:18:55.000Z</time>
      </trkpt>
      <trkpt lat="46.99255" lon="6.53269">
        <ele>946</ele>
        <time>2023-05-15T07:18:57.000Z</time>
      </trkpt>
      <trkpt lat="46.99258" lon="6.53275">
        <ele>946.59997558594</ele>
        <time>2023-05-15T07:19:01.000Z</time>
      </trkpt>
      <trkpt lat="46.9926" lon="6.53276">
        <ele>946.59997558594</ele>
        <time>2023-05-15T07:19:02.000Z</time>
      </trkpt>
      <trkpt lat="46.99264" lon="6.53283">
        <ele>947</ele>
        <time>2023-05-15T07:19:05.000Z</time>
      </trkpt>
      <trkpt lat="46.99265" lon="6.53284">
        <ele>947</ele>
        <time>2023-05-15T07:19:06.000Z</time>
      </trkpt>
      <trkpt lat="46.99275" lon="6.53298">
        <ele>948</ele>
        <time>2023-05-15T07:19:14.000Z</time>
      </trkpt>
      <trkpt lat="46.99275" lon="6.533">
        <ele>948.20001220703</ele>
        <time>2023-05-15T07:19:15.000Z</time>
      </trkpt>
      <trkpt lat="46.9928" lon="6.53308">
        <ele>948.59997558594</ele>
        <time>2023-05-15T07:19:19.000Z</time>
      </trkpt>
      <trkpt lat="46.99284" lon="6.53316">
        <ele>949</ele>
        <time>2023-05-15T07:19:23.000Z</time>
      </trkpt>
      <trkpt lat="46.99289" lon="6.53328">
        <ele>949.59997558594</ele>
        <time>2023-05-15T07:19:28.000Z</time>
      </trkpt>
      <trkpt lat="46.99293" lon="6.5334">
        <ele>950.20001220703</ele>
        <time>2023-05-15T07:19:33.000Z</time>
      </trkpt>
      <trkpt lat="46.99297" lon="6.53346">
        <ele>950.40002441406</ele>
        <time>2023-05-15T07:19:36.000Z</time>
      </trkpt>
      <trkpt lat="46.99302" lon="6.53356">
        <ele>951.40002441406</ele>
        <time>2023-05-15T07:19:42.000Z</time>
      </trkpt>
      <trkpt lat="46.99304" lon="6.5336">
        <ele>951.59997558594</ele>
        <time>2023-05-15T07:19:44.000Z</time>
      </trkpt>
      <trkpt lat="46.99309" lon="6.53369">
        <ele>952.40002441406</ele>
        <time>2023-05-15T07:19:50.000Z</time>
      </trkpt>
      <trkpt lat="46.9931" lon="6.53372">
        <ele>952.59997558594</ele>
        <time>2023-05-15T07:19:52.000Z</time>
      </trkpt>
      <trkpt lat="46.99315" lon="6.53383">
        <ele>953.59997558594</ele>
        <time>2023-05-15T07:19:58.000Z</time>
      </trkpt>
      <trkpt lat="46.99316" lon="6.53385">
        <ele>953.59997558594</ele>
        <time>2023-05-15T07:19:59.000Z</time>
      </trkpt>
      <trkpt lat="46.99319" lon="6.53388">
        <ele>953.79998779297</ele>
        <time>2023-05-15T07:20:01.000Z</time>
      </trkpt>
      <trkpt lat="46.99324" lon="6.53396">
        <ele>954.20001220703</ele>
        <time>2023-05-15T07:20:05.000Z</time>
      </trkpt>
      <trkpt lat="46.99327" lon="6.53402">
        <ele>954.59997558594</ele>
        <time>2023-05-15T07:20:08.000Z</time>
      </trkpt>
      <trkpt lat="46.99331" lon="6.53408">
        <ele>954.79998779297</ele>
        <time>2023-05-15T07:20:11.000Z</time>
      </trkpt>
      <trkpt lat="46.99333" lon="6.53412">
        <ele>955</ele>
        <time>2023-05-15T07:20:13.000Z</time>
      </trkpt>
      <trkpt lat="46.99337" lon="6.53418">
        <ele>955.79998779297</ele>
        <time>2023-05-15T07:20:17.000Z</time>
      </trkpt>
      <trkpt lat="46.99339" lon="6.5342">
        <ele>955.79998779297</ele>
        <time>2023-05-15T07:20:18.000Z</time>
      </trkpt>
      <trkpt lat="46.99345" lon="6.5343">
        <ele>956.59997558594</ele>
        <time>2023-05-15T07:20:23.000Z</time>
      </trkpt>
      <trkpt lat="46.99347" lon="6.53431">
        <ele>956.59997558594</ele>
        <time>2023-05-15T07:20:24.000Z</time>
      </trkpt>
      <trkpt lat="46.99348" lon="6.53433">
        <ele>956.79998779297</ele>
        <time>2023-05-15T07:20:25.000Z</time>
      </trkpt>
      <trkpt lat="46.99355" lon="6.53447">
        <ele>957.79998779297</ele>
        <time>2023-05-15T07:20:32.000Z</time>
      </trkpt>
      <trkpt lat="46.99356" lon="6.53451">
        <ele>958</ele>
        <time>2023-05-15T07:20:34.000Z</time>
      </trkpt>
      <trkpt lat="46.99361" lon="6.53461">
        <ele>958.59997558594</ele>
        <time>2023-05-15T07:20:40.000Z</time>
      </trkpt>
      <trkpt lat="46.99361" lon="6.53463">
        <ele>958.59997558594</ele>
        <time>2023-05-15T07:20:41.000Z</time>
      </trkpt>
      <trkpt lat="46.99364" lon="6.53466">
        <ele>958.79998779297</ele>
        <time>2023-05-15T07:20:44.000Z</time>
      </trkpt>
      <trkpt lat="46.99365" lon="6.53468">
        <ele>959</ele>
        <time>2023-05-15T07:20:45.000Z</time>
      </trkpt>
      <trkpt lat="46.99366" lon="6.5347">
        <ele>959.20001220703</ele>
        <time>2023-05-15T07:20:46.000Z</time>
      </trkpt>
      <trkpt lat="46.99373" lon="6.5348">
        <ele>960</ele>
        <time>2023-05-15T07:20:53.000Z</time>
      </trkpt>
      <trkpt lat="46.99376" lon="6.53484">
        <ele>960.20001220703</ele>
        <time>2023-05-15T07:20:56.000Z</time>
      </trkpt>
      <trkpt lat="46.99378" lon="6.53487">
        <ele>960.40002441406</ele>
        <time>2023-05-15T07:20:58.000Z</time>
      </trkpt>
      <trkpt lat="46.99379" lon="6.53489">
        <ele>960.40002441406</ele>
        <time>2023-05-15T07:20:59.000Z</time>
      </trkpt>
      <trkpt lat="46.9938" lon="6.53493">
        <ele>960.79998779297</ele>
        <time>2023-05-15T07:21:01.000Z</time>
      </trkpt>
      <trkpt lat="46.99382" lon="6.53499">
        <ele>961.20001220703</ele>
        <time>2023-05-15T07:21:04.000Z</time>
      </trkpt>
      <trkpt lat="46.99393" lon="6.53521">
        <ele>962.20001220703</ele>
        <time>2023-05-15T07:21:13.000Z</time>
      </trkpt>
      <trkpt lat="46.99395" lon="6.53524">
        <ele>962.40002441406</ele>
        <time>2023-05-15T07:21:14.000Z</time>
      </trkpt>
      <trkpt lat="46.99401" lon="6.53535">
        <ele>963</ele>
        <time>2023-05-15T07:21:19.000Z</time>
      </trkpt>
      <trkpt lat="46.99404" lon="6.53545">
        <ele>963.40002441406</ele>
        <time>2023-05-15T07:21:23.000Z</time>
      </trkpt>
      <trkpt lat="46.99405" lon="6.53547">
        <ele>963.59997558594</ele>
        <time>2023-05-15T07:21:24.000Z</time>
      </trkpt>
      <trkpt lat="46.99409" lon="6.5355">
        <ele>964</ele>
        <time>2023-05-15T07:21:26.000Z</time>
      </trkpt>
      <trkpt lat="46.99415" lon="6.53556">
        <ele>964.40002441406</ele>
        <time>2023-05-15T07:21:30.000Z</time>
      </trkpt>
      <trkpt lat="46.99416" lon="6.53556">
        <ele>964.40002441406</ele>
        <time>2023-05-15T07:21:31.000Z</time>
      </trkpt>
      <trkpt lat="46.99426" lon="6.53565">
        <ele>965</ele>
        <time>2023-05-15T07:21:37.000Z</time>
      </trkpt>
      <trkpt lat="46.99427" lon="6.53572">
        <ele>965.40002441406</ele>
        <time>2023-05-15T07:21:40.000Z</time>
      </trkpt>
      <trkpt lat="46.99433" lon="6.53577">
        <ele>965.79998779297</ele>
        <time>2023-05-15T07:21:43.000Z</time>
      </trkpt>
      <trkpt lat="46.99439" lon="6.53591">
        <ele>966.59997558594</ele>
        <time>2023-05-15T07:21:50.000Z</time>
      </trkpt>
      <trkpt lat="46.9944" lon="6.53593">
        <ele>966.79998779297</ele>
        <time>2023-05-15T07:21:51.000Z</time>
      </trkpt>
      <trkpt lat="46.99446" lon="6.53602">
        <ele>967.40002441406</ele>
        <time>2023-05-15T07:21:56.000Z</time>
      </trkpt>
      <trkpt lat="46.99447" lon="6.53606">
        <ele>967.79998779297</ele>
        <time>2023-05-15T07:21:58.000Z</time>
      </trkpt>
      <trkpt lat="46.99448" lon="6.53608">
        <ele>967.59997558594</ele>
        <time>2023-05-15T07:21:59.000Z</time>
      </trkpt>
      <trkpt lat="46.99455" lon="6.53621">
        <ele>968.59997558594</ele>
        <time>2023-05-15T07:22:06.000Z</time>
      </trkpt>
      <trkpt lat="46.99456" lon="6.53622">
        <ele>968.79998779297</ele>
        <time>2023-05-15T07:22:07.000Z</time>
      </trkpt>
      <trkpt lat="46.99465" lon="6.53636">
        <ele>969.79998779297</ele>
        <time>2023-05-15T07:22:15.000Z</time>
      </trkpt>
      <trkpt lat="46.99467" lon="6.53637">
        <ele>970</ele>
        <time>2023-05-15T07:22:16.000Z</time>
      </trkpt>
      <trkpt lat="46.99475" lon="6.53645">
        <ele>970.59997558594</ele>
        <time>2023-05-15T07:22:22.000Z</time>
      </trkpt>
      <trkpt lat="46.9948" lon="6.53649">
        <ele>971</ele>
        <time>2023-05-15T07:22:25.000Z</time>
      </trkpt>
      <trkpt lat="46.9949" lon="6.53655">
        <ele>971.79998779297</ele>
        <time>2023-05-15T07:22:31.000Z</time>
      </trkpt>
      <trkpt lat="46.99491" lon="6.53655">
        <ele>972</ele>
        <time>2023-05-15T07:22:32.000Z</time>
      </trkpt>
      <trkpt lat="46.99505" lon="6.53659">
        <ele>973</ele>
        <time>2023-05-15T07:22:40.000Z</time>
      </trkpt>
      <trkpt lat="46.99507" lon="6.53659">
        <ele>973</ele>
        <time>2023-05-15T07:22:41.000Z</time>
      </trkpt>
      <trkpt lat="46.99519" lon="6.53657">
        <ele>973.59997558594</ele>
        <time>2023-05-15T07:22:48.000Z</time>
      </trkpt>
      <trkpt lat="46.99524" lon="6.53653">
        <ele>974</ele>
        <time>2023-05-15T07:22:51.000Z</time>
      </trkpt>
      <trkpt lat="46.99531" lon="6.53641">
        <ele>975</ele>
        <time>2023-05-15T07:22:58.000Z</time>
      </trkpt>
      <trkpt lat="46.99533" lon="6.53636">
        <ele>975.20001220703</ele>
        <time>2023-05-15T07:23:00.000Z</time>
      </trkpt>
      <trkpt lat="46.99534" lon="6.53628">
        <ele>975.79998779297</ele>
        <time>2023-05-15T07:23:04.000Z</time>
      </trkpt>
      <trkpt lat="46.99534" lon="6.53624">
        <ele>975.79998779297</ele>
        <time>2023-05-15T07:23:06.000Z</time>
      </trkpt>
      <trkpt lat="46.99534" lon="6.53618">
        <ele>976.20001220703</ele>
        <time>2023-05-15T07:23:08.000Z</time>
      </trkpt>
      <trkpt lat="46.99536" lon="6.53609">
        <ele>976.59997558594</ele>
        <time>2023-05-15T07:23:11.000Z</time>
      </trkpt>
      <trkpt lat="46.99535" lon="6.53595">
        <ele>977.40002441406</ele>
        <time>2023-05-15T07:23:16.000Z</time>
      </trkpt>
      <trkpt lat="46.99535" lon="6.53592">
        <ele>977.59997558594</ele>
        <time>2023-05-15T07:23:17.000Z</time>
      </trkpt>
      <trkpt lat="46.9953" lon="6.5358">
        <ele>978.40002441406</ele>
        <time>2023-05-15T07:23:23.000Z</time>
      </trkpt>
      <trkpt lat="46.99528" lon="6.5357">
        <ele>978.79998779297</ele>
        <time>2023-05-15T07:23:27.000Z</time>
      </trkpt>
      <trkpt lat="46.99526" lon="6.53567">
        <ele>979</ele>
        <time>2023-05-15T07:23:29.000Z</time>
      </trkpt>
      <trkpt lat="46.99525" lon="6.53561">
        <ele>979.59997558594</ele>
        <time>2023-05-15T07:23:32.000Z</time>
      </trkpt>
      <trkpt lat="46.9952" lon="6.53545">
        <ele>980.59997558594</ele>
        <time>2023-05-15T07:23:39.000Z</time>
      </trkpt>
      <trkpt lat="46.9952" lon="6.53543">
        <ele>980.59997558594</ele>
        <time>2023-05-15T07:23:40.000Z</time>
      </trkpt>
      <trkpt lat="46.99518" lon="6.53539">
        <ele>980.79998779297</ele>
        <time>2023-05-15T07:23:42.000Z</time>
      </trkpt>
      <trkpt lat="46.99514" lon="6.53529">
        <ele>981.59997558594</ele>
        <time>2023-05-15T07:23:46.000Z</time>
      </trkpt>
      <trkpt lat="46.99513" lon="6.53527">
        <ele>981.59997558594</ele>
        <time>2023-05-15T07:23:47.000Z</time>
      </trkpt>
      <trkpt lat="46.9951" lon="6.5352">
        <ele>982.59997558594</ele>
        <time>2023-05-15T07:23:50.000Z</time>
      </trkpt>
      <trkpt lat="46.9951" lon="6.53518">
        <ele>982.59997558594</ele>
        <time>2023-05-15T07:23:51.000Z</time>
      </trkpt>
      <trkpt lat="46.99506" lon="6.53506">
        <ele>983.79998779297</ele>
        <time>2023-05-15T07:23:56.000Z</time>
      </trkpt>
      <trkpt lat="46.99504" lon="6.53499">
        <ele>984.40002441406</ele>
        <time>2023-05-15T07:23:59.000Z</time>
      </trkpt>
      <trkpt lat="46.99501" lon="6.53492">
        <ele>984.79998779297</ele>
        <time>2023-05-15T07:24:02.000Z</time>
      </trkpt>
      <trkpt lat="46.99497" lon="6.53482">
        <ele>985.40002441406</ele>
        <time>2023-05-15T07:24:07.000Z</time>
      </trkpt>
      <trkpt lat="46.99495" lon="6.5348">
        <ele>985.79998779297</ele>
        <time>2023-05-15T07:24:08.000Z</time>
      </trkpt>
      <trkpt lat="46.9949" lon="6.53463">
        <ele>986.79998779297</ele>
        <time>2023-05-15T07:24:15.000Z</time>
      </trkpt>
      <trkpt lat="46.99482" lon="6.53446">
        <ele>987.79998779297</ele>
        <time>2023-05-15T07:24:23.000Z</time>
      </trkpt>
      <trkpt lat="46.99477" lon="6.53431">
        <ele>988.40002441406</ele>
        <time>2023-05-15T07:24:29.000Z</time>
      </trkpt>
      <trkpt lat="46.99476" lon="6.53429">
        <ele>988.40002441406</ele>
        <time>2023-05-15T07:24:30.000Z</time>
      </trkpt>
      <trkpt lat="46.99471" lon="6.53421">
        <ele>989</ele>
        <time>2023-05-15T07:24:34.000Z</time>
      </trkpt>
      <trkpt lat="46.99464" lon="6.53408">
        <ele>989.40002441406</ele>
        <time>2023-05-15T07:24:41.000Z</time>
      </trkpt>
      <trkpt lat="46.9946" lon="6.53401">
        <ele>990</ele>
        <time>2023-05-15T07:24:46.000Z</time>
      </trkpt>
      <trkpt lat="46.99455" lon="6.53392">
        <ele>990.40002441406</ele>
        <time>2023-05-15T07:24:49.000Z</time>
      </trkpt>
      <trkpt lat="46.99448" lon="6.53379">
        <ele>990.79998779297</ele>
        <time>2023-05-15T07:24:56.000Z</time>
      </trkpt>
      <trkpt lat="46.99444" lon="6.53373">
        <ele>991.20001220703</ele>
        <time>2023-05-15T07:24:59.000Z</time>
      </trkpt>
      <trkpt lat="46.99435" lon="6.5336">
        <ele>992</ele>
        <time>2023-05-15T07:25:07.000Z</time>
      </trkpt>
      <trkpt lat="46.99433" lon="6.53357">
        <ele>992.20001220703</ele>
        <time>2023-05-15T07:25:09.000Z</time>
      </trkpt>
      <trkpt lat="46.9942" lon="6.53343">
        <ele>993.20001220703</ele>
        <time>2023-05-15T07:25:18.000Z</time>
      </trkpt>
      <trkpt lat="46.99419" lon="6.53341">
        <ele>993.40002441406</ele>
        <time>2023-05-15T07:25:20.000Z</time>
      </trkpt>
      <trkpt lat="46.99408" lon="6.53332">
        <ele>994.40002441406</ele>
        <time>2023-05-15T07:25:27.000Z</time>
      </trkpt>
      <trkpt lat="46.99404" lon="6.53327">
        <ele>994.79998779297</ele>
        <time>2023-05-15T07:25:30.000Z</time>
      </trkpt>
      <trkpt lat="46.99398" lon="6.53323">
        <ele>995.40002441406</ele>
        <time>2023-05-15T07:25:34.000Z</time>
      </trkpt>
      <trkpt lat="46.99393" lon="6.5332">
        <ele>995.79998779297</ele>
        <time>2023-05-15T07:25:37.000Z</time>
      </trkpt>
      <trkpt lat="46.99389" lon="6.53317">
        <ele>996.40002441406</ele>
        <time>2023-05-15T07:25:41.000Z</time>
      </trkpt>
      <trkpt lat="46.99379" lon="6.53309">
        <ele>997.20001220703</ele>
        <time>2023-05-15T07:25:47.000Z</time>
      </trkpt>
      <trkpt lat="46.99375" lon="6.53303">
        <ele>997.40002441406</ele>
        <time>2023-05-15T07:25:50.000Z</time>
      </trkpt>
      <trkpt lat="46.9937" lon="6.53295">
        <ele>998</ele>
        <time>2023-05-15T07:25:54.000Z</time>
      </trkpt>
      <trkpt lat="46.99366" lon="6.53291">
        <ele>998.59997558594</ele>
        <time>2023-05-15T07:25:57.000Z</time>
      </trkpt>
      <trkpt lat="46.9936" lon="6.53283">
        <ele>999.40002441406</ele>
        <time>2023-05-15T07:26:01.000Z</time>
      </trkpt>
      <trkpt lat="46.99358" lon="6.53278">
        <ele>999.79998779297</ele>
        <time>2023-05-15T07:26:03.000Z</time>
      </trkpt>
      <trkpt lat="46.99351" lon="6.53261">
        <ele>1000.799987793</ele>
        <time>2023-05-15T07:26:11.000Z</time>
      </trkpt>
      <trkpt lat="46.99352" lon="6.53259">
        <ele>1000.799987793</ele>
        <time>2023-05-15T07:26:12.000Z</time>
      </trkpt>
      <trkpt lat="46.9935" lon="6.53242">
        <ele>1002.200012207</ele>
        <time>2023-05-15T07:26:18.000Z</time>
      </trkpt>
      <trkpt lat="46.9935" lon="6.53239">
        <ele>1002.200012207</ele>
        <time>2023-05-15T07:26:19.000Z</time>
      </trkpt>
      <trkpt lat="46.9935" lon="6.53228">
        <ele>1003.200012207</ele>
        <time>2023-05-15T07:26:23.000Z</time>
      </trkpt>
      <trkpt lat="46.9935" lon="6.53224">
        <ele>1003.5999755859</ele>
        <time>2023-05-15T07:26:25.000Z</time>
      </trkpt>
      <trkpt lat="46.99349" lon="6.53212">
        <ele>1004.4000244141</ele>
        <time>2023-05-15T07:26:29.000Z</time>
      </trkpt>
      <trkpt lat="46.99346" lon="6.532">
        <ele>1005</ele>
        <time>2023-05-15T07:26:34.000Z</time>
      </trkpt>
      <trkpt lat="46.99345" lon="6.53196">
        <ele>1005.4000244141</ele>
        <time>2023-05-15T07:26:36.000Z</time>
      </trkpt>
      <trkpt lat="46.9934" lon="6.53187">
        <ele>1006.200012207</ele>
        <time>2023-05-15T07:26:41.000Z</time>
      </trkpt>
      <trkpt lat="46.99339" lon="6.53182">
        <ele>1006.4000244141</ele>
        <time>2023-05-15T07:26:43.000Z</time>
      </trkpt>
      <trkpt lat="46.99338" lon="6.53166">
        <ele>1007.5999755859</ele>
        <time>2023-05-15T07:26:50.000Z</time>
      </trkpt>
      <trkpt lat="46.99337" lon="6.53164">
        <ele>1007.799987793</ele>
        <time>2023-05-15T07:26:51.000Z</time>
      </trkpt>
      <trkpt lat="46.99333" lon="6.53147">
        <ele>1008.4000244141</ele>
        <time>2023-05-15T07:26:59.000Z</time>
      </trkpt>
      <trkpt lat="46.99331" lon="6.53137">
        <ele>1009</ele>
        <time>2023-05-15T07:27:03.000Z</time>
      </trkpt>
      <trkpt lat="46.99329" lon="6.53133">
        <ele>1009.200012207</ele>
        <time>2023-05-15T07:27:05.000Z</time>
      </trkpt>
      <trkpt lat="46.99324" lon="6.53121">
        <ele>1010</ele>
        <time>2023-05-15T07:27:11.000Z</time>
      </trkpt>
      <trkpt lat="46.99321" lon="6.53115">
        <ele>1010.5999755859</ele>
        <time>2023-05-15T07:27:14.000Z</time>
      </trkpt>
      <trkpt lat="46.99316" lon="6.53105">
        <ele>1011.200012207</ele>
        <time>2023-05-15T07:27:19.000Z</time>
      </trkpt>
      <trkpt lat="46.9931" lon="6.53093">
        <ele>1012</ele>
        <time>2023-05-15T07:27:25.000Z</time>
      </trkpt>
      <trkpt lat="46.99309" lon="6.53089">
        <ele>1012.200012207</ele>
        <time>2023-05-15T07:27:27.000Z</time>
      </trkpt>
      <trkpt lat="46.99306" lon="6.53081">
        <ele>1012.799987793</ele>
        <time>2023-05-15T07:27:31.000Z</time>
      </trkpt>
      <trkpt lat="46.99303" lon="6.53073">
        <ele>1013.200012207</ele>
        <time>2023-05-15T07:27:35.000Z</time>
      </trkpt>
      <trkpt lat="46.99302" lon="6.53068">
        <ele>1013.4000244141</ele>
        <time>2023-05-15T07:27:37.000Z</time>
      </trkpt>
      <trkpt lat="46.99301" lon="6.53064">
        <ele>1013.5999755859</ele>
        <time>2023-05-15T07:27:39.000Z</time>
      </trkpt>
      <trkpt lat="46.993" lon="6.5306">
        <ele>1014</ele>
        <time>2023-05-15T07:27:41.000Z</time>
      </trkpt>
      <trkpt lat="46.99298" lon="6.53057">
        <ele>1014.4000244141</ele>
        <time>2023-05-15T07:27:43.000Z</time>
      </trkpt>
      <trkpt lat="46.99297" lon="6.53055">
        <ele>1014.799987793</ele>
        <time>2023-05-15T07:27:44.000Z</time>
      </trkpt>
      <trkpt lat="46.99297" lon="6.53053">
        <ele>1014.799987793</ele>
        <time>2023-05-15T07:27:45.000Z</time>
      </trkpt>
      <trkpt lat="46.99295" lon="6.5304">
        <ele>1015.5999755859</ele>
        <time>2023-05-15T07:27:50.000Z</time>
      </trkpt>
      <trkpt lat="46.99295" lon="6.53038">
        <ele>1015.5999755859</ele>
        <time>2023-05-15T07:27:51.000Z</time>
      </trkpt>
      <trkpt lat="46.99295" lon="6.53035">
        <ele>1015.799987793</ele>
        <time>2023-05-15T07:27:52.000Z</time>
      </trkpt>
      <trkpt lat="46.99292" lon="6.53022">
        <ele>1016.5999755859</ele>
        <time>2023-05-15T07:27:57.000Z</time>
      </trkpt>
      <trkpt lat="46.99291" lon="6.53019">
        <ele>1016.799987793</ele>
        <time>2023-05-15T07:27:58.000Z</time>
      </trkpt>
      <trkpt lat="46.99289" lon="6.53014">
        <ele>1017</ele>
        <time>2023-05-15T07:28:00.000Z</time>
      </trkpt>
      <trkpt lat="46.99286" lon="6.53004">
        <ele>1017.4000244141</ele>
        <time>2023-05-15T07:28:04.000Z</time>
      </trkpt>
      <trkpt lat="46.99286" lon="6.52998">
        <ele>1017.799987793</ele>
        <time>2023-05-15T07:28:06.000Z</time>
      </trkpt>
      <trkpt lat="46.99286" lon="6.52996">
        <ele>1018</ele>
        <time>2023-05-15T07:28:07.000Z</time>
      </trkpt>
      <trkpt lat="46.9928" lon="6.52982">
        <ele>1018.799987793</ele>
        <time>2023-05-15T07:28:14.000Z</time>
      </trkpt>
      <trkpt lat="46.9928" lon="6.52978">
        <ele>1019.4000244141</ele>
        <time>2023-05-15T07:28:17.000Z</time>
      </trkpt>
      <trkpt lat="46.99278" lon="6.52972">
        <ele>1019.799987793</ele>
        <time>2023-05-15T07:28:20.000Z</time>
      </trkpt>
      <trkpt lat="46.99277" lon="6.5297">
        <ele>1019.799987793</ele>
        <time>2023-05-15T07:28:21.000Z</time>
      </trkpt>
      <trkpt lat="46.99271" lon="6.52958">
        <ele>1020.799987793</ele>
        <time>2023-05-15T07:28:27.000Z</time>
      </trkpt>
      <trkpt lat="46.9927" lon="6.52956">
        <ele>1021</ele>
        <time>2023-05-15T07:28:28.000Z</time>
      </trkpt>
      <trkpt lat="46.99269" lon="6.52954">
        <ele>1021.200012207</ele>
        <time>2023-05-15T07:28:29.000Z</time>
      </trkpt>
      <trkpt lat="46.99268" lon="6.52952">
        <ele>1021.200012207</ele>
        <time>2023-05-15T07:28:30.000Z</time>
      </trkpt>
      <trkpt lat="46.99266" lon="6.52944">
        <ele>1021.5999755859</ele>
        <time>2023-05-15T07:28:33.000Z</time>
      </trkpt>
      <trkpt lat="46.99262" lon="6.52939">
        <ele>1022.200012207</ele>
        <time>2023-05-15T07:28:36.000Z</time>
      </trkpt>
      <trkpt lat="46.9926" lon="6.52935">
        <ele>1022.4000244141</ele>
        <time>2023-05-15T07:28:38.000Z</time>
      </trkpt>
      <trkpt lat="46.99259" lon="6.52929">
        <ele>1022.5999755859</ele>
        <time>2023-05-15T07:28:40.000Z</time>
      </trkpt>
      <trkpt lat="46.99254" lon="6.52919">
        <ele>1023.200012207</ele>
        <time>2023-05-15T07:28:45.000Z</time>
      </trkpt>
      <trkpt lat="46.99252" lon="6.52917">
        <ele>1023.4000244141</ele>
        <time>2023-05-15T07:28:47.000Z</time>
      </trkpt>
      <trkpt lat="46.99249" lon="6.52905">
        <ele>1023.799987793</ele>
        <time>2023-05-15T07:28:52.000Z</time>
      </trkpt>
      <trkpt lat="46.99248" lon="6.52903">
        <ele>1024</ele>
        <time>2023-05-15T07:28:53.000Z</time>
      </trkpt>
      <trkpt lat="46.99245" lon="6.529">
        <ele>1024.1999511719</ele>
        <time>2023-05-15T07:28:55.000Z</time>
      </trkpt>
      <trkpt lat="46.9924" lon="6.52895">
        <ele>1024.5999755859</ele>
        <time>2023-05-15T07:28:59.000Z</time>
      </trkpt>
      <trkpt lat="46.99233" lon="6.52889">
        <ele>1025</ele>
        <time>2023-05-15T07:29:04.000Z</time>
      </trkpt>
      <trkpt lat="46.99232" lon="6.52888">
        <ele>1025.4000244141</ele>
        <time>2023-05-15T07:29:05.000Z</time>
      </trkpt>
      <trkpt lat="46.99228" lon="6.52882">
        <ele>1026</ele>
        <time>2023-05-15T07:29:09.000Z</time>
      </trkpt>
      <trkpt lat="46.99222" lon="6.52875">
        <ele>1026.4000244141</ele>
        <time>2023-05-15T07:29:14.000Z</time>
      </trkpt>
      <trkpt lat="46.9922" lon="6.52872">
        <ele>1026.8000488281</ele>
        <time>2023-05-15T07:29:16.000Z</time>
      </trkpt>
      <trkpt lat="46.99213" lon="6.52865">
        <ele>1027.5999755859</ele>
        <time>2023-05-15T07:29:21.000Z</time>
      </trkpt>
      <trkpt lat="46.99212" lon="6.52864">
        <ele>1027.5999755859</ele>
        <time>2023-05-15T07:29:22.000Z</time>
      </trkpt>
      <trkpt lat="46.9921" lon="6.52857">
        <ele>1028</ele>
        <time>2023-05-15T07:29:25.000Z</time>
      </trkpt>
      <trkpt lat="46.99207" lon="6.52851">
        <ele>1028.4000244141</ele>
        <time>2023-05-15T07:29:28.000Z</time>
      </trkpt>
      <trkpt lat="46.99206" lon="6.5285">
        <ele>1028.5999755859</ele>
        <time>2023-05-15T07:29:29.000Z</time>
      </trkpt>
      <trkpt lat="46.99204" lon="6.52844">
        <ele>1029</ele>
        <time>2023-05-15T07:29:32.000Z</time>
      </trkpt>
      <trkpt lat="46.99203" lon="6.5284">
        <ele>1029.1999511719</ele>
        <time>2023-05-15T07:29:34.000Z</time>
      </trkpt>
      <trkpt lat="46.99201" lon="6.52837">
        <ele>1029.5999755859</ele>
        <time>2023-05-15T07:29:36.000Z</time>
      </trkpt>
      <trkpt lat="46.99197" lon="6.5283">
        <ele>1030.1999511719</ele>
        <time>2023-05-15T07:29:40.000Z</time>
      </trkpt>
      <trkpt lat="46.99193" lon="6.52819">
        <ele>1030.5999755859</ele>
        <time>2023-05-15T07:29:44.000Z</time>
      </trkpt>
      <trkpt lat="46.99192" lon="6.52816">
        <ele>1031</ele>
        <time>2023-05-15T07:29:46.000Z</time>
      </trkpt>
      <trkpt lat="46.99191" lon="6.52813">
        <ele>1031</ele>
        <time>2023-05-15T07:29:47.000Z</time>
      </trkpt>
      <trkpt lat="46.99187" lon="6.52805">
        <ele>1031.5999755859</ele>
        <time>2023-05-15T07:29:52.000Z</time>
      </trkpt>
      <trkpt lat="46.99186" lon="6.52801">
        <ele>1032</ele>
        <time>2023-05-15T07:29:54.000Z</time>
      </trkpt>
      <trkpt lat="46.99185" lon="6.52799">
        <ele>1032.1999511719</ele>
        <time>2023-05-15T07:29:55.000Z</time>
      </trkpt>
      <trkpt lat="46.99182" lon="6.52794">
        <ele>1032.4000244141</ele>
        <time>2023-05-15T07:29:58.000Z</time>
      </trkpt>
      <trkpt lat="46.99181" lon="6.52793">
        <ele>1032.5999755859</ele>
        <time>2023-05-15T07:29:59.000Z</time>
      </trkpt>
      <trkpt lat="46.99179" lon="6.5279">
        <ele>1032.8000488281</ele>
        <time>2023-05-15T07:30:01.000Z</time>
      </trkpt>
      <trkpt lat="46.99177" lon="6.52781">
        <ele>1033.1999511719</ele>
        <time>2023-05-15T07:30:05.000Z</time>
      </trkpt>
      <trkpt lat="46.99172" lon="6.52772">
        <ele>1033.8000488281</ele>
        <time>2023-05-15T07:30:10.000Z</time>
      </trkpt>
      <trkpt lat="46.99171" lon="6.52769">
        <ele>1034</ele>
        <time>2023-05-15T07:30:12.000Z</time>
      </trkpt>
      <trkpt lat="46.99168" lon="6.52758">
        <ele>1034.5999755859</ele>
        <time>2023-05-15T07:30:17.000Z</time>
      </trkpt>
      <trkpt lat="46.99168" lon="6.52755">
        <ele>1034.8000488281</ele>
        <time>2023-05-15T07:30:18.000Z</time>
      </trkpt>
      <trkpt lat="46.99168" lon="6.52753">
        <ele>1035</ele>
        <time>2023-05-15T07:30:19.000Z</time>
      </trkpt>
      <trkpt lat="46.99167" lon="6.52745">
        <ele>1035.5999755859</ele>
        <time>2023-05-15T07:30:23.000Z</time>
      </trkpt>
      <trkpt lat="46.99167" lon="6.52741">
        <ele>1035.8000488281</ele>
        <time>2023-05-15T07:30:25.000Z</time>
      </trkpt>
      <trkpt lat="46.99166" lon="6.52738">
        <ele>1035.8000488281</ele>
        <time>2023-05-15T07:30:26.000Z</time>
      </trkpt>
      <trkpt lat="46.99165" lon="6.52734">
        <ele>1036.1999511719</ele>
        <time>2023-05-15T07:30:28.000Z</time>
      </trkpt>
      <trkpt lat="46.99165" lon="6.52732">
        <ele>1036.4000244141</ele>
        <time>2023-05-15T07:30:29.000Z</time>
      </trkpt>
      <trkpt lat="46.99163" lon="6.52717">
        <ele>1037.1999511719</ele>
        <time>2023-05-15T07:30:34.000Z</time>
      </trkpt>
      <trkpt lat="46.99163" lon="6.52712">
        <ele>1037.5999755859</ele>
        <time>2023-05-15T07:30:37.000Z</time>
      </trkpt>
      <trkpt lat="46.99164" lon="6.52701">
        <ele>1038.4000244141</ele>
        <time>2023-05-15T07:30:42.000Z</time>
      </trkpt>
      <trkpt lat="46.99164" lon="6.52699">
        <ele>1038.4000244141</ele>
        <time>2023-05-15T07:30:43.000Z</time>
      </trkpt>
      <trkpt lat="46.99165" lon="6.52693">
        <ele>1039</ele>
        <time>2023-05-15T07:30:46.000Z</time>
      </trkpt>
      <trkpt lat="46.99166" lon="6.52689">
        <ele>1039.1999511719</ele>
        <time>2023-05-15T07:30:48.000Z</time>
      </trkpt>
      <trkpt lat="46.99166" lon="6.52687">
        <ele>1039.4000244141</ele>
        <time>2023-05-15T07:30:49.000Z</time>
      </trkpt>
      <trkpt lat="46.99166" lon="6.52686">
        <ele>1039.5999755859</ele>
        <time>2023-05-15T07:30:50.000Z</time>
      </trkpt>
      <trkpt lat="46.99167" lon="6.52683">
        <ele>1040</ele>
        <time>2023-05-15T07:30:52.000Z</time>
      </trkpt>
      <trkpt lat="46.99166" lon="6.5268">
        <ele>1040.1999511719</ele>
        <time>2023-05-15T07:30:53.000Z</time>
      </trkpt>
      <trkpt lat="46.99166" lon="6.52678">
        <ele>1040.4000244141</ele>
        <time>2023-05-15T07:30:54.000Z</time>
      </trkpt>
      <trkpt lat="46.99167" lon="6.52675">
        <ele>1040.5999755859</ele>
        <time>2023-05-15T07:30:55.000Z</time>
      </trkpt>
      <trkpt lat="46.99168" lon="6.52672">
        <ele>1040.8000488281</ele>
        <time>2023-05-15T07:30:56.000Z</time>
      </trkpt>
      <trkpt lat="46.99168" lon="6.52665">
        <ele>1040.8000488281</ele>
        <time>2023-05-15T07:30:58.000Z</time>
      </trkpt>
      <trkpt lat="46.99172" lon="6.52645">
        <ele>1041.5999755859</ele>
        <time>2023-05-15T07:31:05.000Z</time>
      </trkpt>
      <trkpt lat="46.99171" lon="6.5264">
        <ele>1041.8000488281</ele>
        <time>2023-05-15T07:31:07.000Z</time>
      </trkpt>
      <trkpt lat="46.9917" lon="6.52636">
        <ele>1042</ele>
        <time>2023-05-15T07:31:08.000Z</time>
      </trkpt>
      <trkpt lat="46.99167" lon="6.52629">
        <ele>1042.4000244141</ele>
        <time>2023-05-15T07:31:11.000Z</time>
      </trkpt>
      <trkpt lat="46.99165" lon="6.52619">
        <ele>1042.5999755859</ele>
        <time>2023-05-15T07:31:14.000Z</time>
      </trkpt>
      <trkpt lat="46.99167" lon="6.52608">
        <ele>1043.1999511719</ele>
        <time>2023-05-15T07:31:19.000Z</time>
      </trkpt>
      <trkpt lat="46.99166" lon="6.52601">
        <ele>1043.8000488281</ele>
        <time>2023-05-15T07:31:22.000Z</time>
      </trkpt>
      <trkpt lat="46.99165" lon="6.52587">
        <ele>1044</ele>
        <time>2023-05-15T07:31:27.000Z</time>
      </trkpt>
      <trkpt lat="46.99163" lon="6.52567">
        <ele>1044.8000488281</ele>
        <time>2023-05-15T07:31:34.000Z</time>
      </trkpt>
      <trkpt lat="46.99162" lon="6.52561">
        <ele>1045</ele>
        <time>2023-05-15T07:31:36.000Z</time>
      </trkpt>
      <trkpt lat="46.99158" lon="6.52536">
        <ele>1045.5999755859</ele>
        <time>2023-05-15T07:31:44.000Z</time>
      </trkpt>
      <trkpt lat="46.99157" lon="6.5253">
        <ele>1045.8000488281</ele>
        <time>2023-05-15T07:31:46.000Z</time>
      </trkpt>
      <trkpt lat="46.9915" lon="6.5251">
        <ele>1046</ele>
        <time>2023-05-15T07:31:53.000Z</time>
      </trkpt>
      <trkpt lat="46.9914" lon="6.52477">
        <ele>1046</ele>
        <time>2023-05-15T07:32:01.000Z</time>
      </trkpt>
      <trkpt lat="46.99133" lon="6.52453">
        <ele>1046</ele>
        <time>2023-05-15T07:32:06.000Z</time>
      </trkpt>
      <trkpt lat="46.99131" lon="6.5244">
        <ele>1045.8000488281</ele>
        <time>2023-05-15T07:32:09.000Z</time>
      </trkpt>
      <trkpt lat="46.99125" lon="6.52412">
        <ele>1045.5999755859</ele>
        <time>2023-05-15T07:32:16.000Z</time>
      </trkpt>
      <trkpt lat="46.9912" lon="6.52366">
        <ele>1046</ele>
        <time>2023-05-15T07:32:28.000Z</time>
      </trkpt>
      <trkpt lat="46.99112" lon="6.52328">
        <ele>1046</ele>
        <time>2023-05-15T07:32:36.000Z</time>
      </trkpt>
      <trkpt lat="46.99108" lon="6.5229">
        <ele>1046.1999511719</ele>
        <time>2023-05-15T07:32:44.000Z</time>
      </trkpt>
      <trkpt lat="46.99102" lon="6.52247">
        <ele>1046.8000488281</ele>
        <time>2023-05-15T07:32:53.000Z</time>
      </trkpt>
      <trkpt lat="46.99101" lon="6.52241">
        <ele>1046.8000488281</ele>
        <time>2023-05-15T07:32:54.000Z</time>
      </trkpt>
      <trkpt lat="46.99097" lon="6.52214">
        <ele>1047.4000244141</ele>
        <time>2023-05-15T07:33:00.000Z</time>
      </trkpt>
      <trkpt lat="46.99095" lon="6.522">
        <ele>1048</ele>
        <time>2023-05-15T07:33:03.000Z</time>
      </trkpt>
      <trkpt lat="46.9909" lon="6.52163">
        <ele>1049.1999511719</ele>
        <time>2023-05-15T07:33:11.000Z</time>
      </trkpt>
      <trkpt lat="46.99088" lon="6.52141">
        <ele>1050.5999755859</ele>
        <time>2023-05-15T07:33:16.000Z</time>
      </trkpt>
      <trkpt lat="46.99087" lon="6.52131">
        <ele>1051</ele>
        <time>2023-05-15T07:33:19.000Z</time>
      </trkpt>
      <trkpt lat="46.99085" lon="6.52124">
        <ele>1051.8000488281</ele>
        <time>2023-05-15T07:33:21.000Z</time>
      </trkpt>
      <trkpt lat="46.99083" lon="6.52107">
        <ele>1052.4000244141</ele>
        <time>2023-05-15T07:33:26.000Z</time>
      </trkpt>
      <trkpt lat="46.99082" lon="6.521">
        <ele>1052.8000488281</ele>
        <time>2023-05-15T07:33:28.000Z</time>
      </trkpt>
      <trkpt lat="46.99079" lon="6.52081">
        <ele>1053.8000488281</ele>
        <time>2023-05-15T07:33:34.000Z</time>
      </trkpt>
      <trkpt lat="46.99079" lon="6.52077">
        <ele>1054</ele>
        <time>2023-05-15T07:33:35.000Z</time>
      </trkpt>
      <trkpt lat="46.99076" lon="6.52061">
        <ele>1055.1999511719</ele>
        <time>2023-05-15T07:33:41.000Z</time>
      </trkpt>
      <trkpt lat="46.99074" lon="6.52048">
        <ele>1056</ele>
        <time>2023-05-15T07:33:46.000Z</time>
      </trkpt>
      <trkpt lat="46.99073" lon="6.52037">
        <ele>1056.4000244141</ele>
        <time>2023-05-15T07:33:50.000Z</time>
      </trkpt>
      <trkpt lat="46.99071" lon="6.52022">
        <ele>1057</ele>
        <time>2023-05-15T07:33:56.000Z</time>
      </trkpt>
      <trkpt lat="46.9907" lon="6.52014">
        <ele>1057.4000244141</ele>
        <time>2023-05-15T07:33:59.000Z</time>
      </trkpt>
      <trkpt lat="46.9907" lon="6.52006">
        <ele>1057.4000244141</ele>
        <time>2023-05-15T07:34:02.000Z</time>
      </trkpt>
      <trkpt lat="46.99069" lon="6.51991">
        <ele>1058.4000244141</ele>
        <time>2023-05-15T07:34:09.000Z</time>
      </trkpt>
      <trkpt lat="46.99067" lon="6.51976">
        <ele>1058.8000488281</ele>
        <time>2023-05-15T07:34:14.000Z</time>
      </trkpt>
      <trkpt lat="46.99064" lon="6.51958">
        <ele>1059.4000244141</ele>
        <time>2023-05-15T07:34:21.000Z</time>
      </trkpt>
      <trkpt lat="46.99064" lon="6.51956">
        <ele>1059.4000244141</ele>
        <time>2023-05-15T07:34:22.000Z</time>
      </trkpt>
      <trkpt lat="46.99061" lon="6.51926">
        <ele>1060.4000244141</ele>
        <time>2023-05-15T07:34:33.000Z</time>
      </trkpt>
      <trkpt lat="46.9906" lon="6.5192">
        <ele>1060.5999755859</ele>
        <time>2023-05-15T07:34:35.000Z</time>
      </trkpt>
      <trkpt lat="46.99058" lon="6.51897">
        <ele>1061.5999755859</ele>
        <time>2023-05-15T07:34:44.000Z</time>
      </trkpt>
      <trkpt lat="46.99057" lon="6.51891">
        <ele>1061.5999755859</ele>
        <time>2023-05-15T07:34:46.000Z</time>
      </trkpt>
      <trkpt lat="46.99055" lon="6.51873">
        <ele>1062.1999511719</ele>
        <time>2023-05-15T07:34:53.000Z</time>
      </trkpt>
      <trkpt lat="46.99053" lon="6.5186">
        <ele>1062.8000488281</ele>
        <time>2023-05-15T07:34:58.000Z</time>
      </trkpt>
      <trkpt lat="46.99051" lon="6.51846">
        <ele>1063.1999511719</ele>
        <time>2023-05-15T07:35:03.000Z</time>
      </trkpt>
      <trkpt lat="46.99049" lon="6.51832">
        <ele>1063.8000488281</ele>
        <time>2023-05-15T07:35:08.000Z</time>
      </trkpt>
      <trkpt lat="46.99049" lon="6.5183">
        <ele>1063.8000488281</ele>
        <time>2023-05-15T07:35:09.000Z</time>
      </trkpt>
      <trkpt lat="46.99045" lon="6.51812">
        <ele>1065.1999511719</ele>
        <time>2023-05-15T07:35:16.000Z</time>
      </trkpt>
      <trkpt lat="46.99043" lon="6.51806">
        <ele>1065.4000244141</ele>
        <time>2023-05-15T07:35:18.000Z</time>
      </trkpt>
      <trkpt lat="46.99038" lon="6.51783">
        <ele>1066</ele>
        <time>2023-05-15T07:35:27.000Z</time>
      </trkpt>
      <trkpt lat="46.99038" lon="6.5178">
        <ele>1066.1999511719</ele>
        <time>2023-05-15T07:35:28.000Z</time>
      </trkpt>
      <trkpt lat="46.99032" lon="6.51761">
        <ele>1066.8000488281</ele>
        <time>2023-05-15T07:35:36.000Z</time>
      </trkpt>
      <trkpt lat="46.99026" lon="6.51744">
        <ele>1067.4000244141</ele>
        <time>2023-05-15T07:35:43.000Z</time>
      </trkpt>
      <trkpt lat="46.99025" lon="6.51741">
        <ele>1067.4000244141</ele>
        <time>2023-05-15T07:35:44.000Z</time>
      </trkpt>
      <trkpt lat="46.99014" lon="6.51718">
        <ele>1068.4000244141</ele>
        <time>2023-05-15T07:35:54.000Z</time>
      </trkpt>
      <trkpt lat="46.9901" lon="6.51709">
        <ele>1068.8000488281</ele>
        <time>2023-05-15T07:35:58.000Z</time>
      </trkpt>
      <trkpt lat="46.98999" lon="6.51688">
        <ele>1069.5999755859</ele>
        <time>2023-05-15T07:36:07.000Z</time>
      </trkpt>
      <trkpt lat="46.98996" lon="6.51682">
        <ele>1070</ele>
        <time>2023-05-15T07:36:10.000Z</time>
      </trkpt>
      <trkpt lat="46.98987" lon="6.51665">
        <ele>1070.8000488281</ele>
        <time>2023-05-15T07:36:17.000Z</time>
      </trkpt>
      <trkpt lat="46.98984" lon="6.51658">
        <ele>1071.1999511719</ele>
        <time>2023-05-15T07:36:20.000Z</time>
      </trkpt>
      <trkpt lat="46.98977" lon="6.51646">
        <ele>1071.8000488281</ele>
        <time>2023-05-15T07:36:25.000Z</time>
      </trkpt>
      <trkpt lat="46.98969" lon="6.51627">
        <ele>1072.1999511719</ele>
        <time>2023-05-15T07:36:32.000Z</time>
      </trkpt>
      <trkpt lat="46.98955" lon="6.51599">
        <ele>1072.8000488281</ele>
        <time>2023-05-15T07:36:42.000Z</time>
      </trkpt>
      <trkpt lat="46.98955" lon="6.51599">
        <ele>1073</ele>
        <time>2023-05-15T07:36:43.000Z</time>
      </trkpt>
      <trkpt lat="46.98939" lon="6.51569">
        <ele>1073.5999755859</ele>
        <time>2023-05-15T07:36:52.000Z</time>
      </trkpt>
      <trkpt lat="46.98919" lon="6.51527">
        <ele>1071.8000488281</ele>
        <time>2023-05-15T07:37:06.000Z</time>
      </trkpt>
      <trkpt lat="46.98907" lon="6.51506">
        <ele>1073.4000244141</ele>
        <time>2023-05-15T07:37:13.000Z</time>
      </trkpt>
      <trkpt lat="46.98905" lon="6.51501">
        <ele>1073.4000244141</ele>
        <time>2023-05-15T07:37:14.000Z</time>
      </trkpt>
      <trkpt lat="46.98887" lon="6.51467">
        <ele>1073.1999511719</ele>
        <time>2023-05-15T07:37:24.000Z</time>
      </trkpt>
      <trkpt lat="46.98883" lon="6.5145">
        <ele>1073.1999511719</ele>
        <time>2023-05-15T07:37:28.000Z</time>
      </trkpt>
      <trkpt lat="46.98882" lon="6.51444">
        <ele>1073</ele>
        <time>2023-05-15T07:37:29.000Z</time>
      </trkpt>
      <trkpt lat="46.98875" lon="6.51414">
        <ele>1072.5999755859</ele>
        <time>2023-05-15T07:37:35.000Z</time>
      </trkpt>
      <trkpt lat="46.98871" lon="6.51397">
        <ele>1072.4000244141</ele>
        <time>2023-05-15T07:37:38.000Z</time>
      </trkpt>
      <trkpt lat="46.98867" lon="6.51369">
        <ele>1072</ele>
        <time>2023-05-15T07:37:43.000Z</time>
      </trkpt>
      <trkpt lat="46.98866" lon="6.51362">
        <ele>1071.8000488281</ele>
        <time>2023-05-15T07:37:44.000Z</time>
      </trkpt>
      <trkpt lat="46.98865" lon="6.51349">
        <ele>1071.8000488281</ele>
        <time>2023-05-15T07:37:46.000Z</time>
      </trkpt>
      <trkpt lat="46.98865" lon="6.51345">
        <ele>1071.5999755859</ele>
        <time>2023-05-15T07:37:47.000Z</time>
      </trkpt>
      <trkpt lat="46.98858" lon="6.51292">
        <ele>1071.4000244141</ele>
        <time>2023-05-15T07:37:55.000Z</time>
      </trkpt>
      <trkpt lat="46.98857" lon="6.51285">
        <ele>1071.4000244141</ele>
        <time>2023-05-15T07:37:56.000Z</time>
      </trkpt>
      <trkpt lat="46.98844" lon="6.51244">
        <ele>1071.1999511719</ele>
        <time>2023-05-15T07:38:03.000Z</time>
      </trkpt>
      <trkpt lat="46.98834" lon="6.51221">
        <ele>1071.1999511719</ele>
        <time>2023-05-15T07:38:08.000Z</time>
      </trkpt>
      <trkpt lat="46.98831" lon="6.51211">
        <ele>1071</ele>
        <time>2023-05-15T07:38:10.000Z</time>
      </trkpt>
      <trkpt lat="46.98822" lon="6.51182">
        <ele>1070.8000488281</ele>
        <time>2023-05-15T07:38:15.000Z</time>
      </trkpt>
      <trkpt lat="46.98812" lon="6.51144">
        <ele>1070.4000244141</ele>
        <time>2023-05-15T07:38:20.000Z</time>
      </trkpt>
      <trkpt lat="46.98808" lon="6.51133">
        <ele>1070.1999511719</ele>
        <time>2023-05-15T07:38:21.000Z</time>
      </trkpt>
      <trkpt lat="46.98805" lon="6.51126">
        <ele>1070</ele>
        <time>2023-05-15T07:38:22.000Z</time>
      </trkpt>
      <trkpt lat="46.98795" lon="6.51103">
        <ele>1069</ele>
        <time>2023-05-15T07:38:25.000Z</time>
      </trkpt>
      <trkpt lat="46.98791" lon="6.51094">
        <ele>1068.8000488281</ele>
        <time>2023-05-15T07:38:26.000Z</time>
      </trkpt>
      <trkpt lat="46.9877" lon="6.51043">
        <ele>1067.5999755859</ele>
        <time>2023-05-15T07:38:33.000Z</time>
      </trkpt>
      <trkpt lat="46.98755" lon="6.51003">
        <ele>1066.5999755859</ele>
        <time>2023-05-15T07:38:39.000Z</time>
      </trkpt>
      <trkpt lat="46.98753" lon="6.50999">
        <ele>1066.4000244141</ele>
        <time>2023-05-15T07:38:40.000Z</time>
      </trkpt>
      <trkpt lat="46.98743" lon="6.50975">
        <ele>1066.1999511719</ele>
        <time>2023-05-15T07:38:45.000Z</time>
      </trkpt>
      <trkpt lat="46.98731" lon="6.50953">
        <ele>1065.5999755859</ele>
        <time>2023-05-15T07:38:51.000Z</time>
      </trkpt>
      <trkpt lat="46.98728" lon="6.50947">
        <ele>1065.4000244141</ele>
        <time>2023-05-15T07:38:53.000Z</time>
      </trkpt>
      <trkpt lat="46.98723" lon="6.50936">
        <ele>1064.4000244141</ele>
        <time>2023-05-15T07:38:58.000Z</time>
      </trkpt>
      <trkpt lat="46.98721" lon="6.50932">
        <ele>1064</ele>
        <time>2023-05-15T07:39:03.000Z</time>
      </trkpt>
      <trkpt lat="46.98717" lon="6.50927">
        <ele>1063.4000244141</ele>
        <time>2023-05-15T07:39:53.000Z</time>
      </trkpt>
      <trkpt lat="46.98714" lon="6.50922">
        <ele>1063.1999511719</ele>
        <time>2023-05-15T07:39:55.000Z</time>
      </trkpt>
      <trkpt lat="46.98696" lon="6.509">
        <ele>1063</ele>
        <time>2023-05-15T07:40:03.000Z</time>
      </trkpt>
      <trkpt lat="46.98676" lon="6.50872">
        <ele>1063</ele>
        <time>2023-05-15T07:40:12.000Z</time>
      </trkpt>
      <trkpt lat="46.98649" lon="6.50826">
        <ele>1062.5999755859</ele>
        <time>2023-05-15T07:40:24.000Z</time>
      </trkpt>
      <trkpt lat="46.98646" lon="6.50822">
        <ele>1062.4000244141</ele>
        <time>2023-05-15T07:40:25.000Z</time>
      </trkpt>
      <trkpt lat="46.98629" lon="6.50799">
        <ele>1061.5999755859</ele>
        <time>2023-05-15T07:40:30.000Z</time>
      </trkpt>
      <trkpt lat="46.98623" lon="6.5079">
        <ele>1061.4000244141</ele>
        <time>2023-05-15T07:40:32.000Z</time>
      </trkpt>
      <trkpt lat="46.98606" lon="6.50765">
        <ele>1061.1999511719</ele>
        <time>2023-05-15T07:40:38.000Z</time>
      </trkpt>
      <trkpt lat="46.98586" lon="6.50744">
        <ele>1061.5999755859</ele>
        <time>2023-05-15T07:40:44.000Z</time>
      </trkpt>
      <trkpt lat="46.98578" lon="6.50737">
        <ele>1061.8000488281</ele>
        <time>2023-05-15T07:40:47.000Z</time>
      </trkpt>
      <trkpt lat="46.98566" lon="6.50727">
        <ele>1062.5999755859</ele>
        <time>2023-05-15T07:40:51.000Z</time>
      </trkpt>
      <trkpt lat="46.98559" lon="6.50719">
        <ele>1063</ele>
        <time>2023-05-15T07:40:54.000Z</time>
      </trkpt>
      <trkpt lat="46.98549" lon="6.50708">
        <ele>1063.5999755859</ele>
        <time>2023-05-15T07:40:58.000Z</time>
      </trkpt>
      <trkpt lat="46.98537" lon="6.50687">
        <ele>1064.1999511719</ele>
        <time>2023-05-15T07:41:04.000Z</time>
      </trkpt>
      <trkpt lat="46.98528" lon="6.50672">
        <ele>1064.8000488281</ele>
        <time>2023-05-15T07:41:09.000Z</time>
      </trkpt>
      <trkpt lat="46.98524" lon="6.50664">
        <ele>1065.4000244141</ele>
        <time>2023-05-15T07:41:12.000Z</time>
      </trkpt>
      <trkpt lat="46.98515" lon="6.50647">
        <ele>1065.8000488281</ele>
        <time>2023-05-15T07:41:18.000Z</time>
      </trkpt>
      <trkpt lat="46.9851" lon="6.50639">
        <ele>1066.5999755859</ele>
        <time>2023-05-15T07:41:21.000Z</time>
      </trkpt>
      <trkpt lat="46.98504" lon="6.50625">
        <ele>1067.1999511719</ele>
        <time>2023-05-15T07:41:26.000Z</time>
      </trkpt>
      <trkpt lat="46.98502" lon="6.50619">
        <ele>1067.4000244141</ele>
        <time>2023-05-15T07:41:28.000Z</time>
      </trkpt>
      <trkpt lat="46.98492" lon="6.506">
        <ele>1068.1999511719</ele>
        <time>2023-05-15T07:41:36.000Z</time>
      </trkpt>
      <trkpt lat="46.9848" lon="6.50574">
        <ele>1069</ele>
        <time>2023-05-15T07:41:46.000Z</time>
      </trkpt>
      <trkpt lat="46.98476" lon="6.50566">
        <ele>1069.4000244141</ele>
        <time>2023-05-15T07:41:49.000Z</time>
      </trkpt>
      <trkpt lat="46.98465" lon="6.50544">
        <ele>1070</ele>
        <time>2023-05-15T07:41:57.000Z</time>
      </trkpt>
      <trkpt lat="46.9846" lon="6.50537">
        <ele>1070.4000244141</ele>
        <time>2023-05-15T07:42:00.000Z</time>
      </trkpt>
      <trkpt lat="46.98452" lon="6.50525">
        <ele>1070.5999755859</ele>
        <time>2023-05-15T07:42:05.000Z</time>
      </trkpt>
      <trkpt lat="46.9844" lon="6.5051">
        <ele>1071.4000244141</ele>
        <time>2023-05-15T07:42:12.000Z</time>
      </trkpt>
      <trkpt lat="46.98438" lon="6.50508">
        <ele>1071.4000244141</ele>
        <time>2023-05-15T07:42:13.000Z</time>
      </trkpt>
      <trkpt lat="46.98426" lon="6.50488">
        <ele>1072.1999511719</ele>
        <time>2023-05-15T07:42:21.000Z</time>
      </trkpt>
      <trkpt lat="46.98423" lon="6.50483">
        <ele>1072.4000244141</ele>
        <time>2023-05-15T07:42:23.000Z</time>
      </trkpt>
      <trkpt lat="46.98408" lon="6.50454">
        <ele>1073</ele>
        <time>2023-05-15T07:42:33.000Z</time>
      </trkpt>
      <trkpt lat="46.98388" lon="6.50416">
        <ele>1073.4000244141</ele>
        <time>2023-05-15T07:42:45.000Z</time>
      </trkpt>
      <trkpt lat="46.98385" lon="6.50409">
        <ele>1073.4000244141</ele>
        <time>2023-05-15T07:42:47.000Z</time>
      </trkpt>
      <trkpt lat="46.98371" lon="6.50382">
        <ele>1073.8000488281</ele>
        <time>2023-05-15T07:42:55.000Z</time>
      </trkpt>
      <trkpt lat="46.98353" lon="6.50345">
        <ele>1074.1999511719</ele>
        <time>2023-05-15T07:43:06.000Z</time>
      </trkpt>
      <trkpt lat="46.98346" lon="6.50331">
        <ele>1074.4000244141</ele>
        <time>2023-05-15T07:43:10.000Z</time>
      </trkpt>
      <trkpt lat="46.98333" lon="6.50305">
        <ele>1075</ele>
        <time>2023-05-15T07:43:18.000Z</time>
      </trkpt>
      <trkpt lat="46.98316" lon="6.50271">
        <ele>1075.4000244141</ele>
        <time>2023-05-15T07:43:28.000Z</time>
      </trkpt>
      <trkpt lat="46.98292" lon="6.50221">
        <ele>1076.4000244141</ele>
        <time>2023-05-15T07:43:42.000Z</time>
      </trkpt>
      <trkpt lat="46.98272" lon="6.50184">
        <ele>1076.4000244141</ele>
        <time>2023-05-15T07:43:50.000Z</time>
      </trkpt>
      <trkpt lat="46.98252" lon="6.50153">
        <ele>1075.5999755859</ele>
        <time>2023-05-15T07:43:55.000Z</time>
      </trkpt>
      <trkpt lat="46.98226" lon="6.50112">
        <ele>1074.4000244141</ele>
        <time>2023-05-15T07:44:00.000Z</time>
      </trkpt>
      <trkpt lat="46.98221" lon="6.50103">
        <ele>1074</ele>
        <time>2023-05-15T07:44:01.000Z</time>
      </trkpt>
      <trkpt lat="46.9821" lon="6.50085">
        <ele>1073.4000244141</ele>
        <time>2023-05-15T07:44:03.000Z</time>
      </trkpt>
      <trkpt lat="46.98195" lon="6.50057">
        <ele>1072.1999511719</ele>
        <time>2023-05-15T07:44:06.000Z</time>
      </trkpt>
      <trkpt lat="46.98181" lon="6.50029">
        <ele>1071.1999511719</ele>
        <time>2023-05-15T07:44:09.000Z</time>
      </trkpt>
      <trkpt lat="46.98168" lon="6.50002">
        <ele>1070.4000244141</ele>
        <time>2023-05-15T07:44:12.000Z</time>
      </trkpt>
      <trkpt lat="46.98165" lon="6.49993">
        <ele>1070</ele>
        <time>2023-05-15T07:44:13.000Z</time>
      </trkpt>
      <trkpt lat="46.98161" lon="6.49985">
        <ele>1069.5999755859</ele>
        <time>2023-05-15T07:44:14.000Z</time>
      </trkpt>
      <trkpt lat="46.98153" lon="6.49972">
        <ele>1069</ele>
        <time>2023-05-15T07:44:16.000Z</time>
      </trkpt>
      <trkpt lat="46.98144" lon="6.49956">
        <ele>1067.8000488281</ele>
        <time>2023-05-15T07:44:19.000Z</time>
      </trkpt>
      <trkpt lat="46.98136" lon="6.49941">
        <ele>1066.4000244141</ele>
        <time>2023-05-15T07:44:23.000Z</time>
      </trkpt>
      <trkpt lat="46.98134" lon="6.49938">
        <ele>1066.1999511719</ele>
        <time>2023-05-15T07:44:24.000Z</time>
      </trkpt>
      <trkpt lat="46.98132" lon="6.49928">
        <ele>1065.5999755859</ele>
        <time>2023-05-15T07:44:27.000Z</time>
      </trkpt>
      <trkpt lat="46.98131" lon="6.49924">
        <ele>1065.1999511719</ele>
        <time>2023-05-15T07:44:29.000Z</time>
      </trkpt>
      <trkpt lat="46.98128" lon="6.49918">
        <ele>1064.5999755859</ele>
        <time>2023-05-15T07:44:33.000Z</time>
      </trkpt>
      <trkpt lat="46.98126" lon="6.49915">
        <ele>1064</ele>
        <time>2023-05-15T07:44:36.000Z</time>
      </trkpt>
      <trkpt lat="46.98125" lon="6.49914">
        <ele>1063.8000488281</ele>
        <time>2023-05-15T07:44:38.000Z</time>
      </trkpt>
      <trkpt lat="46.98125" lon="6.49914">
        <ele>1063.8000488281</ele>
        <time>2023-05-15T07:44:40.000Z</time>
      </trkpt>
      <trkpt lat="46.98122" lon="6.49917">
        <ele>1063.5999755859</ele>
        <time>2023-05-15T07:46:57.000Z</time>
      </trkpt>
      <trkpt lat="46.98117" lon="6.49908">
        <ele>1063.4000244141</ele>
        <time>2023-05-15T07:47:00.000Z</time>
      </trkpt>
      <trkpt lat="46.98104" lon="6.49888">
        <ele>1063.1999511719</ele>
        <time>2023-05-15T07:47:06.000Z</time>
      </trkpt>
      <trkpt lat="46.98087" lon="6.49865">
        <ele>1063.4000244141</ele>
        <time>2023-05-15T07:47:14.000Z</time>
      </trkpt>
      <trkpt lat="46.98076" lon="6.49848">
        <ele>1063.5999755859</ele>
        <time>2023-05-15T07:47:20.000Z</time>
      </trkpt>
      <trkpt lat="46.98062" lon="6.49832">
        <ele>1064.5999755859</ele>
        <time>2023-05-15T07:47:27.000Z</time>
      </trkpt>
      <trkpt lat="46.98054" lon="6.4982">
        <ele>1065.4000244141</ele>
        <time>2023-05-15T07:47:31.000Z</time>
      </trkpt>
      <trkpt lat="46.9805" lon="6.49815">
        <ele>1065.5999755859</ele>
        <time>2023-05-15T07:47:33.000Z</time>
      </trkpt>
      <trkpt lat="46.98037" lon="6.49799">
        <ele>1066.4000244141</ele>
        <time>2023-05-15T07:47:39.000Z</time>
      </trkpt>
      <trkpt lat="46.98024" lon="6.49782">
        <ele>1066.5999755859</ele>
        <time>2023-05-15T07:47:45.000Z</time>
      </trkpt>
      <trkpt lat="46.98007" lon="6.49761">
        <ele>1067.4000244141</ele>
        <time>2023-05-15T07:47:53.000Z</time>
      </trkpt>
      <trkpt lat="46.97999" lon="6.49754">
        <ele>1067.8000488281</ele>
        <time>2023-05-15T07:47:56.000Z</time>
      </trkpt>
      <trkpt lat="46.97996" lon="6.4975">
        <ele>1068</ele>
        <time>2023-05-15T07:47:58.000Z</time>
      </trkpt>
      <trkpt lat="46.97985" lon="6.49737">
        <ele>1068.8000488281</ele>
        <time>2023-05-15T07:48:04.000Z</time>
      </trkpt>
      <trkpt lat="46.97983" lon="6.49734">
        <ele>1069</ele>
        <time>2023-05-15T07:48:05.000Z</time>
      </trkpt>
      <trkpt lat="46.97975" lon="6.49723">
        <ele>1069.5999755859</ele>
        <time>2023-05-15T07:48:10.000Z</time>
      </trkpt>
      <trkpt lat="46.9797" lon="6.49715">
        <ele>1070</ele>
        <time>2023-05-15T07:48:13.000Z</time>
      </trkpt>
      <trkpt lat="46.97968" lon="6.4971">
        <ele>1070.4000244141</ele>
        <time>2023-05-15T07:48:15.000Z</time>
      </trkpt>
      <trkpt lat="46.97967" lon="6.49709">
        <ele>1070.5999755859</ele>
        <time>2023-05-15T07:48:16.000Z</time>
      </trkpt>
      <trkpt lat="46.97959" lon="6.49698">
        <ele>1071.1999511719</ele>
        <time>2023-05-15T07:48:21.000Z</time>
      </trkpt>
      <trkpt lat="46.97954" lon="6.49692">
        <ele>1071.4000244141</ele>
        <time>2023-05-15T07:48:24.000Z</time>
      </trkpt>
      <trkpt lat="46.97943" lon="6.49676">
        <ele>1071.8000488281</ele>
        <time>2023-05-15T07:48:31.000Z</time>
      </trkpt>
      <trkpt lat="46.97941" lon="6.49674">
        <ele>1072</ele>
        <time>2023-05-15T07:48:32.000Z</time>
      </trkpt>
      <trkpt lat="46.97938" lon="6.4967">
        <ele>1072.1999511719</ele>
        <time>2023-05-15T07:48:34.000Z</time>
      </trkpt>
      <trkpt lat="46.97926" lon="6.49652">
        <ele>1072.8000488281</ele>
        <time>2023-05-15T07:48:41.000Z</time>
      </trkpt>
      <trkpt lat="46.97921" lon="6.49639">
        <ele>1073.1999511719</ele>
        <time>2023-05-15T07:48:46.000Z</time>
      </trkpt>
      <trkpt lat="46.97917" lon="6.4963">
        <ele>1073.4000244141</ele>
        <time>2023-05-15T07:48:49.000Z</time>
      </trkpt>
      <trkpt lat="46.97912" lon="6.49616">
        <ele>1074</ele>
        <time>2023-05-15T07:48:54.000Z</time>
      </trkpt>
      <trkpt lat="46.97909" lon="6.49606">
        <ele>1074.4000244141</ele>
        <time>2023-05-15T07:48:57.000Z</time>
      </trkpt>
      <trkpt lat="46.97901" lon="6.49587">
        <ele>1075.1999511719</ele>
        <time>2023-05-15T07:49:04.000Z</time>
      </trkpt>
      <trkpt lat="46.97894" lon="6.49571">
        <ele>1075.8000488281</ele>
        <time>2023-05-15T07:49:10.000Z</time>
      </trkpt>
      <trkpt lat="46.97889" lon="6.49559">
        <ele>1076.1999511719</ele>
        <time>2023-05-15T07:49:14.000Z</time>
      </trkpt>
      <trkpt lat="46.9788" lon="6.49545">
        <ele>1077</ele>
        <time>2023-05-15T07:49:20.000Z</time>
      </trkpt>
      <trkpt lat="46.97877" lon="6.4954">
        <ele>1077.1999511719</ele>
        <time>2023-05-15T07:49:22.000Z</time>
      </trkpt>
      <trkpt lat="46.97862" lon="6.49514">
        <ele>1078</ele>
        <time>2023-05-15T07:49:30.000Z</time>
      </trkpt>
      <trkpt lat="46.97844" lon="6.49486">
        <ele>1078.1999511719</ele>
        <time>2023-05-15T07:49:38.000Z</time>
      </trkpt>
      <trkpt lat="46.9784" lon="6.4948">
        <ele>1078.1999511719</ele>
        <time>2023-05-15T07:49:40.000Z</time>
      </trkpt>
      <trkpt lat="46.97828" lon="6.49464">
        <ele>1078.4000244141</ele>
        <time>2023-05-15T07:49:45.000Z</time>
      </trkpt>
      <trkpt lat="46.97811" lon="6.49439">
        <ele>1079</ele>
        <time>2023-05-15T07:49:52.000Z</time>
      </trkpt>
      <trkpt lat="46.97801" lon="6.49428">
        <ele>1079.1999511719</ele>
        <time>2023-05-15T07:49:56.000Z</time>
      </trkpt>
      <trkpt lat="46.97796" lon="6.49422">
        <ele>1079.4000244141</ele>
        <time>2023-05-15T07:49:58.000Z</time>
      </trkpt>
      <trkpt lat="46.97783" lon="6.49408">
        <ele>1079.8000488281</ele>
        <time>2023-05-15T07:50:03.000Z</time>
      </trkpt>
      <trkpt lat="46.97769" lon="6.49396">
        <ele>1080.1999511719</ele>
        <time>2023-05-15T07:50:08.000Z</time>
      </trkpt>
      <trkpt lat="46.97766" lon="6.49394">
        <ele>1080.4000244141</ele>
        <time>2023-05-15T07:50:09.000Z</time>
      </trkpt>
      <trkpt lat="46.97756" lon="6.49386">
        <ele>1080.5999755859</ele>
        <time>2023-05-15T07:50:13.000Z</time>
      </trkpt>
      <trkpt lat="46.97741" lon="6.49374">
        <ele>1080.8000488281</ele>
        <time>2023-05-15T07:50:18.000Z</time>
      </trkpt>
      <trkpt lat="46.9773" lon="6.49364">
        <ele>1081.1999511719</ele>
        <time>2023-05-15T07:50:23.000Z</time>
      </trkpt>
      <trkpt lat="46.97723" lon="6.49359">
        <ele>1081.4000244141</ele>
        <time>2023-05-15T07:50:25.000Z</time>
      </trkpt>
      <trkpt lat="46.97709" lon="6.49342">
        <ele>1082.1999511719</ele>
        <time>2023-05-15T07:50:31.000Z</time>
      </trkpt>
      <trkpt lat="46.97706" lon="6.49339">
        <ele>1082.4000244141</ele>
        <time>2023-05-15T07:50:32.000Z</time>
      </trkpt>
      <trkpt lat="46.97699" lon="6.49333">
        <ele>1083.4000244141</ele>
        <time>2023-05-15T07:50:35.000Z</time>
      </trkpt>
      <trkpt lat="46.97689" lon="6.4932">
        <ele>1084.4000244141</ele>
        <time>2023-05-15T07:50:39.000Z</time>
      </trkpt>
      <trkpt lat="46.97688" lon="6.49317">
        <ele>1084.4000244141</ele>
        <time>2023-05-15T07:50:40.000Z</time>
      </trkpt>
      <trkpt lat="46.97681" lon="6.493">
        <ele>1085.5999755859</ele>
        <time>2023-05-15T07:50:45.000Z</time>
      </trkpt>
      <trkpt lat="46.97668" lon="6.49282">
        <ele>1086.1999511719</ele>
        <time>2023-05-15T07:50:51.000Z</time>
      </trkpt>
      <trkpt lat="46.97662" lon="6.49268">
        <ele>1086.8000488281</ele>
        <time>2023-05-15T07:50:55.000Z</time>
      </trkpt>
      <trkpt lat="46.97655" lon="6.49248">
        <ele>1087.1999511719</ele>
        <time>2023-05-15T07:51:00.000Z</time>
      </trkpt>
      <trkpt lat="46.97645" lon="6.49226">
        <ele>1087.5999755859</ele>
        <time>2023-05-15T07:51:06.000Z</time>
      </trkpt>
      <trkpt lat="46.9764" lon="6.49218">
        <ele>1087.8000488281</ele>
        <time>2023-05-15T07:51:09.000Z</time>
      </trkpt>
      <trkpt lat="46.97633" lon="6.49204">
        <ele>1088</ele>
        <time>2023-05-15T07:51:13.000Z</time>
      </trkpt>
      <trkpt lat="46.97621" lon="6.49181">
        <ele>1088.8000488281</ele>
        <time>2023-05-15T07:51:20.000Z</time>
      </trkpt>
      <trkpt lat="46.97619" lon="6.49178">
        <ele>1089</ele>
        <time>2023-05-15T07:51:21.000Z</time>
      </trkpt>
      <trkpt lat="46.97609" lon="6.49154">
        <ele>1089.4000244141</ele>
        <time>2023-05-15T07:51:27.000Z</time>
      </trkpt>
      <trkpt lat="46.97592" lon="6.49118">
        <ele>1089.8000488281</ele>
        <time>2023-05-15T07:51:37.000Z</time>
      </trkpt>
      <trkpt lat="46.97577" lon="6.49085">
        <ele>1089.8000488281</ele>
        <time>2023-05-15T07:51:46.000Z</time>
      </trkpt>
      <trkpt lat="46.97566" lon="6.49062">
        <ele>1089.8000488281</ele>
        <time>2023-05-15T07:51:52.000Z</time>
      </trkpt>
      <trkpt lat="46.97551" lon="6.49029">
        <ele>1090.1999511719</ele>
        <time>2023-05-15T07:52:00.000Z</time>
      </trkpt>
      <trkpt lat="46.97539" lon="6.49003">
        <ele>1090.4000244141</ele>
        <time>2023-05-15T07:52:07.000Z</time>
      </trkpt>
      <trkpt lat="46.97525" lon="6.4897">
        <ele>1090.8000488281</ele>
        <time>2023-05-15T07:52:16.000Z</time>
      </trkpt>
      <trkpt lat="46.97523" lon="6.48967">
        <ele>1090.8000488281</ele>
        <time>2023-05-15T07:52:17.000Z</time>
      </trkpt>
      <trkpt lat="46.97517" lon="6.48951">
        <ele>1091.1999511719</ele>
        <time>2023-05-15T07:52:21.000Z</time>
      </trkpt>
      <trkpt lat="46.97517" lon="6.48946">
        <ele>1091.1999511719</ele>
        <time>2023-05-15T07:52:22.000Z</time>
      </trkpt>
      <trkpt lat="46.97519" lon="6.48942">
        <ele>1091.1999511719</ele>
        <time>2023-05-15T07:52:23.000Z</time>
      </trkpt>
      <trkpt lat="46.97524" lon="6.48939">
        <ele>1091.4000244141</ele>
        <time>2023-05-15T07:52:25.000Z</time>
      </trkpt>
      <trkpt lat="46.97532" lon="6.48937">
        <ele>1092</ele>
        <time>2023-05-15T07:52:29.000Z</time>
      </trkpt>
      <trkpt lat="46.97534" lon="6.48938">
        <ele>1092.1999511719</ele>
        <time>2023-05-15T07:52:30.000Z</time>
      </trkpt>
      <trkpt lat="46.97538" lon="6.48938">
        <ele>1092.8000488281</ele>
        <time>2023-05-15T07:52:33.000Z</time>
      </trkpt>
      <trkpt lat="46.9754" lon="6.48938">
        <ele>1093</ele>
        <time>2023-05-15T07:52:35.000Z</time>
      </trkpt>
      <trkpt lat="46.97541" lon="6.48938">
        <ele>1093</ele>
        <time>2023-05-15T07:52:36.000Z</time>
      </trkpt>
      <trkpt lat="46.97544" lon="6.48939">
        <ele>1093</ele>
        <time>2023-05-15T07:52:39.000Z</time>
      </trkpt>
      <trkpt lat="46.97545" lon="6.4894">
        <ele>1093.1999511719</ele>
        <time>2023-05-15T07:52:42.000Z</time>
      </trkpt>
      <trkpt lat="46.97552" lon="6.48935">
        <ele>1093</ele>
        <time>2023-05-15T07:53:19.000Z</time>
      </trkpt>
      <trkpt lat="46.97553" lon="6.48934">
        <ele>1093</ele>
        <time>2023-05-15T07:53:20.000Z</time>
      </trkpt>
      <trkpt lat="46.97555" lon="6.48932">
        <ele>1093</ele>
        <time>2023-05-15T07:53:21.000Z</time>
      </trkpt>
      <trkpt lat="46.97556" lon="6.4893">
        <ele>1093</ele>
        <time>2023-05-15T07:53:22.000Z</time>
      </trkpt>
      <trkpt lat="46.97557" lon="6.48929">
        <ele>1093</ele>
        <time>2023-05-15T07:53:25.000Z</time>
      </trkpt>
      <trkpt lat="46.97558" lon="6.48928">
        <ele>1093</ele>
        <time>2023-05-15T07:53:26.000Z</time>
      </trkpt>
      <trkpt lat="46.97561" lon="6.48925">
        <ele>1092</ele>
        <time>2023-05-15T07:53:30.000Z</time>
      </trkpt>
      <trkpt lat="46.97562" lon="6.48923">
        <ele>1091.5999755859</ele>
        <time>2023-05-15T07:53:33.000Z</time>
      </trkpt>
      <trkpt lat="46.97563" lon="6.48921">
        <ele>1091</ele>
        <time>2023-05-15T07:53:38.000Z</time>
      </trkpt>
      <trkpt lat="46.97566" lon="6.48917">
        <ele>1090.1999511719</ele>
        <time>2023-05-15T07:53:42.000Z</time>
      </trkpt>
      <trkpt lat="46.97571" lon="6.48914">
        <ele>1089.8000488281</ele>
        <time>2023-05-15T07:53:44.000Z</time>
      </trkpt>
      <trkpt lat="46.97575" lon="6.48907">
        <ele>1088.8000488281</ele>
        <time>2023-05-15T07:53:48.000Z</time>
      </trkpt>
      <trkpt lat="46.97577" lon="6.48901">
        <ele>1087.5999755859</ele>
        <time>2023-05-15T07:53:53.000Z</time>
      </trkpt>
      <trkpt lat="46.97576" lon="6.489">
        <ele>1087</ele>
        <time>2023-05-15T07:53:55.000Z</time>
      </trkpt>
      <trkpt lat="46.97575" lon="6.48891">
        <ele>1086</ele>
        <time>2023-05-15T07:53:59.000Z</time>
      </trkpt>
      <trkpt lat="46.97577" lon="6.48882">
        <ele>1085.8000488281</ele>
        <time>2023-05-15T07:54:01.000Z</time>
      </trkpt>
      <trkpt lat="46.97579" lon="6.48862">
        <ele>1085</ele>
        <time>2023-05-15T07:54:06.000Z</time>
      </trkpt>
      <trkpt lat="46.9758" lon="6.48846">
        <ele>1084</ele>
        <time>2023-05-15T07:54:09.000Z</time>
      </trkpt>
      <trkpt lat="46.9758" lon="6.48839">
        <ele>1083.8000488281</ele>
        <time>2023-05-15T07:54:10.000Z</time>
      </trkpt>
      <trkpt lat="46.97579" lon="6.48826">
        <ele>1083.1999511719</ele>
        <time>2023-05-15T07:54:12.000Z</time>
      </trkpt>
      <trkpt lat="46.97578" lon="6.4882">
        <ele>1082.8000488281</ele>
        <time>2023-05-15T07:54:13.000Z</time>
      </trkpt>
      <trkpt lat="46.97577" lon="6.48814">
        <ele>1082.1999511719</ele>
        <time>2023-05-15T07:54:14.000Z</time>
      </trkpt>
      <trkpt lat="46.97577" lon="6.48807">
        <ele>1081.8000488281</ele>
        <time>2023-05-15T07:54:15.000Z</time>
      </trkpt>
      <trkpt lat="46.97574" lon="6.48794">
        <ele>1080.5999755859</ele>
        <time>2023-05-15T07:54:17.000Z</time>
      </trkpt>
      <trkpt lat="46.97569" lon="6.48778">
        <ele>1079.4000244141</ele>
        <time>2023-05-15T07:54:19.000Z</time>
      </trkpt>
      <trkpt lat="46.97567" lon="6.48769">
        <ele>1079.1999511719</ele>
        <time>2023-05-15T07:54:20.000Z</time>
      </trkpt>
      <trkpt lat="46.97562" lon="6.48746">
        <ele>1078.4000244141</ele>
        <time>2023-05-15T07:54:23.000Z</time>
      </trkpt>
      <trkpt lat="46.9756" lon="6.48738">
        <ele>1078.1999511719</ele>
        <time>2023-05-15T07:54:24.000Z</time>
      </trkpt>
      <trkpt lat="46.97557" lon="6.48725">
        <ele>1077.1999511719</ele>
        <time>2023-05-15T07:54:26.000Z</time>
      </trkpt>
      <trkpt lat="46.97554" lon="6.48716">
        <ele>1075.1999511719</ele>
        <time>2023-05-15T07:54:28.000Z</time>
      </trkpt>
      <trkpt lat="46.9755" lon="6.48704">
        <ele>1074.1999511719</ele>
        <time>2023-05-15T07:54:30.000Z</time>
      </trkpt>
      <trkpt lat="46.9755" lon="6.48698">
        <ele>1073.8000488281</ele>
        <time>2023-05-15T07:54:31.000Z</time>
      </trkpt>
      <trkpt lat="46.97552" lon="6.48685">
        <ele>1072.8000488281</ele>
        <time>2023-05-15T07:54:33.000Z</time>
      </trkpt>
      <trkpt lat="46.97549" lon="6.4867">
        <ele>1072.1999511719</ele>
        <time>2023-05-15T07:54:35.000Z</time>
      </trkpt>
      <trkpt lat="46.97547" lon="6.48663">
        <ele>1071.8000488281</ele>
        <time>2023-05-15T07:54:36.000Z</time>
      </trkpt>
      <trkpt lat="46.97546" lon="6.48639">
        <ele>1070.5999755859</ele>
        <time>2023-05-15T07:54:40.000Z</time>
      </trkpt>
      <trkpt lat="46.97549" lon="6.4863">
        <ele>1069.8000488281</ele>
        <time>2023-05-15T07:54:42.000Z</time>
      </trkpt>
      <trkpt lat="46.97549" lon="6.48625">
        <ele>1068.8000488281</ele>
        <time>2023-05-15T07:54:43.000Z</time>
      </trkpt>
      <trkpt lat="46.97551" lon="6.48619">
        <ele>1068.5999755859</ele>
        <time>2023-05-15T07:54:44.000Z</time>
      </trkpt>
      <trkpt lat="46.97552" lon="6.48614">
        <ele>1067.8000488281</ele>
        <time>2023-05-15T07:54:45.000Z</time>
      </trkpt>
      <trkpt lat="46.97554" lon="6.48606">
        <ele>1067</ele>
        <time>2023-05-15T07:54:47.000Z</time>
      </trkpt>
      <trkpt lat="46.97555" lon="6.48601">
        <ele>1066.1999511719</ele>
        <time>2023-05-15T07:54:48.000Z</time>
      </trkpt>
      <trkpt lat="46.9756" lon="6.48587">
        <ele>1065</ele>
        <time>2023-05-15T07:54:51.000Z</time>
      </trkpt>
      <trkpt lat="46.9756" lon="6.48582">
        <ele>1064.4000244141</ele>
        <time>2023-05-15T07:54:52.000Z</time>
      </trkpt>
      <trkpt lat="46.97566" lon="6.48575">
        <ele>1063.1999511719</ele>
        <time>2023-05-15T07:54:54.000Z</time>
      </trkpt>
      <trkpt lat="46.97571" lon="6.48568">
        <ele>1062</ele>
        <time>2023-05-15T07:54:57.000Z</time>
      </trkpt>
      <trkpt lat="46.9758" lon="6.48566">
        <ele>1060.8000488281</ele>
        <time>2023-05-15T07:55:00.000Z</time>
      </trkpt>
      <trkpt lat="46.97584" lon="6.48562">
        <ele>1059.4000244141</ele>
        <time>2023-05-15T07:55:02.000Z</time>
      </trkpt>
      <trkpt lat="46.97591" lon="6.48558">
        <ele>1057.8000488281</ele>
        <time>2023-05-15T07:55:04.000Z</time>
      </trkpt>
      <trkpt lat="46.976" lon="6.48553">
        <ele>1056.4000244141</ele>
        <time>2023-05-15T07:55:07.000Z</time>
      </trkpt>
      <trkpt lat="46.97602" lon="6.48551">
        <ele>1055.8000488281</ele>
        <time>2023-05-15T07:55:08.000Z</time>
      </trkpt>
      <trkpt lat="46.97606" lon="6.48545">
        <ele>1054.5999755859</ele>
        <time>2023-05-15T07:55:10.000Z</time>
      </trkpt>
      <trkpt lat="46.97611" lon="6.4853">
        <ele>1052.8000488281</ele>
        <time>2023-05-15T07:55:13.000Z</time>
      </trkpt>
      <trkpt lat="46.97617" lon="6.48518">
        <ele>1051.5999755859</ele>
        <time>2023-05-15T07:55:15.000Z</time>
      </trkpt>
      <trkpt lat="46.9762" lon="6.48512">
        <ele>1050.4000244141</ele>
        <time>2023-05-15T07:55:17.000Z</time>
      </trkpt>
      <trkpt lat="46.97622" lon="6.48507">
        <ele>1049.8000488281</ele>
        <time>2023-05-15T07:55:19.000Z</time>
      </trkpt>
      <trkpt lat="46.97623" lon="6.48506">
        <ele>1049</ele>
        <time>2023-05-15T07:55:20.000Z</time>
      </trkpt>
      <trkpt lat="46.97625" lon="6.48504">
        <ele>1048.1999511719</ele>
        <time>2023-05-15T07:55:21.000Z</time>
      </trkpt>
      <trkpt lat="46.97627" lon="6.48502">
        <ele>1047.5999755859</ele>
        <time>2023-05-15T07:55:22.000Z</time>
      </trkpt>
      <trkpt lat="46.97634" lon="6.485">
        <ele>1046.1999511719</ele>
        <time>2023-05-15T07:55:25.000Z</time>
      </trkpt>
      <trkpt lat="46.97638" lon="6.485">
        <ele>1045</ele>
        <time>2023-05-15T07:55:27.000Z</time>
      </trkpt>
      <trkpt lat="46.97639" lon="6.485">
        <ele>1043.5999755859</ele>
        <time>2023-05-15T07:55:29.000Z</time>
      </trkpt>
      <trkpt lat="46.97639" lon="6.48499">
        <ele>1043.1999511719</ele>
        <time>2023-05-15T07:55:30.000Z</time>
      </trkpt>
      <trkpt lat="46.97646" lon="6.48497">
        <ele>1041.4000244141</ele>
        <time>2023-05-15T07:55:37.000Z</time>
      </trkpt>
      <trkpt lat="46.97655" lon="6.48494">
        <ele>1040.4000244141</ele>
        <time>2023-05-15T07:55:41.000Z</time>
      </trkpt>
      <trkpt lat="46.9766" lon="6.48493">
        <ele>1039.5999755859</ele>
        <time>2023-05-15T07:55:43.000Z</time>
      </trkpt>
      <trkpt lat="46.97661" lon="6.48493">
        <ele>1039.1999511719</ele>
        <time>2023-05-15T07:55:44.000Z</time>
      </trkpt>
      <trkpt lat="46.97664" lon="6.48493">
        <ele>1037.8000488281</ele>
        <time>2023-05-15T07:55:47.000Z</time>
      </trkpt>
      <trkpt lat="46.97666" lon="6.48493">
        <ele>1036.8000488281</ele>
        <time>2023-05-15T07:55:49.000Z</time>
      </trkpt>
      <trkpt lat="46.97667" lon="6.48492">
        <ele>1035.5999755859</ele>
        <time>2023-05-15T07:55:53.000Z</time>
      </trkpt>
      <trkpt lat="46.97668" lon="6.48491">
        <ele>1035.1999511719</ele>
        <time>2023-05-15T07:55:55.000Z</time>
      </trkpt>
      <trkpt lat="46.9767" lon="6.48489">
        <ele>1034.8000488281</ele>
        <time>2023-05-15T07:56:00.000Z</time>
      </trkpt>
      <trkpt lat="46.97671" lon="6.48486">
        <ele>1033.8000488281</ele>
        <time>2023-05-15T07:56:04.000Z</time>
      </trkpt>
      <trkpt lat="46.97672" lon="6.48484">
        <ele>1033.5999755859</ele>
        <time>2023-05-15T07:56:05.000Z</time>
      </trkpt>
      <trkpt lat="46.97672" lon="6.48482">
        <ele>1033.4000244141</ele>
        <time>2023-05-15T07:56:06.000Z</time>
      </trkpt>
      <trkpt lat="46.97674" lon="6.48477">
        <ele>1032.4000244141</ele>
        <time>2023-05-15T07:56:09.000Z</time>
      </trkpt>
      <trkpt lat="46.97674" lon="6.48475">
        <ele>1032.1999511719</ele>
        <time>2023-05-15T07:56:10.000Z</time>
      </trkpt>
      <trkpt lat="46.97677" lon="6.48468">
        <ele>1031.4000244141</ele>
        <time>2023-05-15T07:56:13.000Z</time>
      </trkpt>
      <trkpt lat="46.97677" lon="6.48463">
        <ele>1030.5999755859</ele>
        <time>2023-05-15T07:56:17.000Z</time>
      </trkpt>
      <trkpt lat="46.97678" lon="6.4846">
        <ele>1030.4000244141</ele>
        <time>2023-05-15T07:56:18.000Z</time>
      </trkpt>
      <trkpt lat="46.97679" lon="6.48458">
        <ele>1030</ele>
        <time>2023-05-15T07:56:19.000Z</time>
      </trkpt>
      <trkpt lat="46.97681" lon="6.48454">
        <ele>1029.4000244141</ele>
        <time>2023-05-15T07:56:21.000Z</time>
      </trkpt>
      <trkpt lat="46.97681" lon="6.48452">
        <ele>1029.1999511719</ele>
        <time>2023-05-15T07:56:22.000Z</time>
      </trkpt>
      <trkpt lat="46.97681" lon="6.48449">
        <ele>1029</ele>
        <time>2023-05-15T07:56:23.000Z</time>
      </trkpt>
      <trkpt lat="46.97682" lon="6.48445">
        <ele>1028.4000244141</ele>
        <time>2023-05-15T07:56:26.000Z</time>
      </trkpt>
      <trkpt lat="46.9768" lon="6.48438">
        <ele>1027.5999755859</ele>
        <time>2023-05-15T07:56:29.000Z</time>
      </trkpt>
      <trkpt lat="46.97682" lon="6.48433">
        <ele>1026.4000244141</ele>
        <time>2023-05-15T07:56:33.000Z</time>
      </trkpt>
      <trkpt lat="46.97685" lon="6.48427">
        <ele>1025.5999755859</ele>
        <time>2023-05-15T07:56:36.000Z</time>
      </trkpt>
      <trkpt lat="46.97685" lon="6.48425">
        <ele>1025.1999511719</ele>
        <time>2023-05-15T07:56:37.000Z</time>
      </trkpt>
      <trkpt lat="46.97684" lon="6.48422">
        <ele>1024.1999511719</ele>
        <time>2023-05-15T07:56:41.000Z</time>
      </trkpt>
      <trkpt lat="46.97684" lon="6.48421">
        <ele>1023.5999755859</ele>
        <time>2023-05-15T07:56:43.000Z</time>
      </trkpt>
      <trkpt lat="46.97684" lon="6.48421">
        <ele>1023.200012207</ele>
        <time>2023-05-15T07:56:46.000Z</time>
      </trkpt>
      <trkpt lat="46.97687" lon="6.48398">
        <ele>1020</ele>
        <time>2023-05-15T07:57:12.000Z</time>
      </trkpt>
      <trkpt lat="46.97687" lon="6.48394">
        <ele>1020</ele>
        <time>2023-05-15T07:57:13.000Z</time>
      </trkpt>
      <trkpt lat="46.97688" lon="6.48386">
        <ele>1019.5999755859</ele>
        <time>2023-05-15T07:57:15.000Z</time>
      </trkpt>
      <trkpt lat="46.97687" lon="6.48375">
        <ele>1019</ele>
        <time>2023-05-15T07:57:18.000Z</time>
      </trkpt>
      <trkpt lat="46.97689" lon="6.48371">
        <ele>1018.5999755859</ele>
        <time>2023-05-15T07:57:20.000Z</time>
      </trkpt>
      <trkpt lat="46.97688" lon="6.48369">
        <ele>1017.5999755859</ele>
        <time>2023-05-15T07:57:22.000Z</time>
      </trkpt>
      <trkpt lat="46.97688" lon="6.48366">
        <ele>1016.799987793</ele>
        <time>2023-05-15T07:57:25.000Z</time>
      </trkpt>
      <trkpt lat="46.97689" lon="6.48361">
        <ele>1016.5999755859</ele>
        <time>2023-05-15T07:57:27.000Z</time>
      </trkpt>
      <trkpt lat="46.97688" lon="6.48358">
        <ele>1016.5999755859</ele>
        <time>2023-05-15T07:57:28.000Z</time>
      </trkpt>
      <trkpt lat="46.97688" lon="6.4835">
        <ele>1016.200012207</ele>
        <time>2023-05-15T07:57:31.000Z</time>
      </trkpt>
      <trkpt lat="46.97687" lon="6.48347">
        <ele>1016</ele>
        <time>2023-05-15T07:57:32.000Z</time>
      </trkpt>
      <trkpt lat="46.97688" lon="6.48342">
        <ele>1015.5999755859</ele>
        <time>2023-05-15T07:57:35.000Z</time>
      </trkpt>
      <trkpt lat="46.97691" lon="6.48333">
        <ele>1015.4000244141</ele>
        <time>2023-05-15T07:57:38.000Z</time>
      </trkpt>
      <trkpt lat="46.97695" lon="6.48327">
        <ele>1015</ele>
        <time>2023-05-15T07:57:40.000Z</time>
      </trkpt>
      <trkpt lat="46.97695" lon="6.48321">
        <ele>1015</ele>
        <time>2023-05-15T07:57:42.000Z</time>
      </trkpt>
      <trkpt lat="46.97695" lon="6.48313">
        <ele>1014.5999755859</ele>
        <time>2023-05-15T07:57:44.000Z</time>
      </trkpt>
      <trkpt lat="46.97696" lon="6.48309">
        <ele>1014.5999755859</ele>
        <time>2023-05-15T07:57:45.000Z</time>
      </trkpt>
      <trkpt lat="46.97697" lon="6.48306">
        <ele>1014.200012207</ele>
        <time>2023-05-15T07:57:46.000Z</time>
      </trkpt>
      <trkpt lat="46.97699" lon="6.48302">
        <ele>1013.200012207</ele>
        <time>2023-05-15T07:57:48.000Z</time>
      </trkpt>
      <trkpt lat="46.977" lon="6.483">
        <ele>1013</ele>
        <time>2023-05-15T07:57:49.000Z</time>
      </trkpt>
      <trkpt lat="46.977" lon="6.48297">
        <ele>1012.799987793</ele>
        <time>2023-05-15T07:57:50.000Z</time>
      </trkpt>
      <trkpt lat="46.977" lon="6.48285">
        <ele>1012.200012207</ele>
        <time>2023-05-15T07:57:53.000Z</time>
      </trkpt>
      <trkpt lat="46.97701" lon="6.48282">
        <ele>1011.799987793</ele>
        <time>2023-05-15T07:57:55.000Z</time>
      </trkpt>
      <trkpt lat="46.97699" lon="6.48278">
        <ele>1011.5999755859</ele>
        <time>2023-05-15T07:57:57.000Z</time>
      </trkpt>
      <trkpt lat="46.97695" lon="6.48275">
        <ele>1011.200012207</ele>
        <time>2023-05-15T07:58:00.000Z</time>
      </trkpt>
      <trkpt lat="46.97695" lon="6.48274">
        <ele>1011</ele>
        <time>2023-05-15T07:58:02.000Z</time>
      </trkpt>
      <trkpt lat="46.97695" lon="6.48274">
        <ele>1011</ele>
        <time>2023-05-15T07:58:03.000Z</time>
      </trkpt>
      <trkpt lat="46.97689" lon="6.4827">
        <ele>1012.200012207</ele>
        <time>2023-05-15T08:02:15.000Z</time>
      </trkpt>
      <trkpt lat="46.97687" lon="6.48268">
        <ele>1012.200012207</ele>
        <time>2023-05-15T08:02:16.000Z</time>
      </trkpt>
      <trkpt lat="46.97685" lon="6.48265">
        <ele>1012.200012207</ele>
        <time>2023-05-15T08:02:17.000Z</time>
      </trkpt>
      <trkpt lat="46.97669" lon="6.48247">
        <ele>1013.200012207</ele>
        <time>2023-05-15T08:02:25.000Z</time>
      </trkpt>
      <trkpt lat="46.97657" lon="6.48231">
        <ele>1014</ele>
        <time>2023-05-15T08:02:32.000Z</time>
      </trkpt>
      <trkpt lat="46.97655" lon="6.48226">
        <ele>1014.200012207</ele>
        <time>2023-05-15T08:02:34.000Z</time>
      </trkpt>
      <trkpt lat="46.97648" lon="6.4821">
        <ele>1015.200012207</ele>
        <time>2023-05-15T08:02:41.000Z</time>
      </trkpt>
      <trkpt lat="46.97647" lon="6.48208">
        <ele>1015.4000244141</ele>
        <time>2023-05-15T08:02:42.000Z</time>
      </trkpt>
      <trkpt lat="46.97642" lon="6.48198">
        <ele>1015.5999755859</ele>
        <time>2023-05-15T08:02:46.000Z</time>
      </trkpt>
      <trkpt lat="46.97637" lon="6.48188">
        <ele>1015.799987793</ele>
        <time>2023-05-15T08:02:51.000Z</time>
      </trkpt>
      <trkpt lat="46.97632" lon="6.48178">
        <ele>1016.4000244141</ele>
        <time>2023-05-15T08:02:56.000Z</time>
      </trkpt>
      <trkpt lat="46.97631" lon="6.48175">
        <ele>1016.4000244141</ele>
        <time>2023-05-15T08:02:57.000Z</time>
      </trkpt>
      <trkpt lat="46.9763" lon="6.48173">
        <ele>1016.5999755859</ele>
        <time>2023-05-15T08:02:58.000Z</time>
      </trkpt>
      <trkpt lat="46.97627" lon="6.48166">
        <ele>1016.799987793</ele>
        <time>2023-05-15T08:03:01.000Z</time>
      </trkpt>
      <trkpt lat="46.97621" lon="6.48154">
        <ele>1017.5999755859</ele>
        <time>2023-05-15T08:03:07.000Z</time>
      </trkpt>
      <trkpt lat="46.97606" lon="6.4813">
        <ele>1018.5999755859</ele>
        <time>2023-05-15T08:03:16.000Z</time>
      </trkpt>
      <trkpt lat="46.97604" lon="6.48127">
        <ele>1018.5999755859</ele>
        <time>2023-05-15T08:03:17.000Z</time>
      </trkpt>
      <trkpt lat="46.97596" lon="6.48112">
        <ele>1019.4000244141</ele>
        <time>2023-05-15T08:03:23.000Z</time>
      </trkpt>
      <trkpt lat="46.97593" lon="6.48108">
        <ele>1019.5999755859</ele>
        <time>2023-05-15T08:03:25.000Z</time>
      </trkpt>
      <trkpt lat="46.97585" lon="6.48097">
        <ele>1020.200012207</ele>
        <time>2023-05-15T08:03:30.000Z</time>
      </trkpt>
      <trkpt lat="46.97583" lon="6.48094">
        <ele>1020.799987793</ele>
        <time>2023-05-15T08:03:32.000Z</time>
      </trkpt>
      <trkpt lat="46.97575" lon="6.48083">
        <ele>1021.4000244141</ele>
        <time>2023-05-15T08:03:39.000Z</time>
      </trkpt>
      <trkpt lat="46.97569" lon="6.48073">
        <ele>1021.799987793</ele>
        <time>2023-05-15T08:03:44.000Z</time>
      </trkpt>
      <trkpt lat="46.97568" lon="6.48072">
        <ele>1021.799987793</ele>
        <time>2023-05-15T08:03:45.000Z</time>
      </trkpt>
      <trkpt lat="46.97557" lon="6.48058">
        <ele>1022.5999755859</ele>
        <time>2023-05-15T08:03:52.000Z</time>
      </trkpt>
      <trkpt lat="46.97556" lon="6.48056">
        <ele>1022.799987793</ele>
        <time>2023-05-15T08:03:53.000Z</time>
      </trkpt>
      <trkpt lat="46.97555" lon="6.48053">
        <ele>1023</ele>
        <time>2023-05-15T08:03:54.000Z</time>
      </trkpt>
      <trkpt lat="46.97542" lon="6.48032">
        <ele>1024</ele>
        <time>2023-05-15T08:04:03.000Z</time>
      </trkpt>
      <trkpt lat="46.9754" lon="6.48029">
        <ele>1024</ele>
        <time>2023-05-15T08:04:04.000Z</time>
      </trkpt>
      <trkpt lat="46.97528" lon="6.48008">
        <ele>1024.5999755859</ele>
        <time>2023-05-15T08:04:13.000Z</time>
      </trkpt>
      <trkpt lat="46.97517" lon="6.4798">
        <ele>1024.8000488281</ele>
        <time>2023-05-15T08:04:22.000Z</time>
      </trkpt>
      <trkpt lat="46.97511" lon="6.47964">
        <ele>1025</ele>
        <time>2023-05-15T08:04:27.000Z</time>
      </trkpt>
      <trkpt lat="46.9751" lon="6.47959">
        <ele>1025</ele>
        <time>2023-05-15T08:04:29.000Z</time>
      </trkpt>
      <trkpt lat="46.97503" lon="6.47939">
        <ele>1025.8000488281</ele>
        <time>2023-05-15T08:04:36.000Z</time>
      </trkpt>
      <trkpt lat="46.97501" lon="6.47933">
        <ele>1026</ele>
        <time>2023-05-15T08:04:38.000Z</time>
      </trkpt>
      <trkpt lat="46.97498" lon="6.47926">
        <ele>1026.4000244141</ele>
        <time>2023-05-15T08:04:41.000Z</time>
      </trkpt>
      <trkpt lat="46.97494" lon="6.47917">
        <ele>1027.1999511719</ele>
        <time>2023-05-15T08:04:45.000Z</time>
      </trkpt>
      <trkpt lat="46.9749" lon="6.4791">
        <ele>1027.5999755859</ele>
        <time>2023-05-15T08:04:48.000Z</time>
      </trkpt>
      <trkpt lat="46.97487" lon="6.479">
        <ele>1028.1999511719</ele>
        <time>2023-05-15T08:04:51.000Z</time>
      </trkpt>
      <trkpt lat="46.97484" lon="6.47894">
        <ele>1028.4000244141</ele>
        <time>2023-05-15T08:04:53.000Z</time>
      </trkpt>
      <trkpt lat="46.97483" lon="6.47892">
        <ele>1028.5999755859</ele>
        <time>2023-05-15T08:04:54.000Z</time>
      </trkpt>
      <trkpt lat="46.97477" lon="6.47883">
        <ele>1029.1999511719</ele>
        <time>2023-05-15T08:04:58.000Z</time>
      </trkpt>
      <trkpt lat="46.97474" lon="6.47874">
        <ele>1029.8000488281</ele>
        <time>2023-05-15T08:05:01.000Z</time>
      </trkpt>
      <trkpt lat="46.9747" lon="6.47868">
        <ele>1030.1999511719</ele>
        <time>2023-05-15T08:05:03.000Z</time>
      </trkpt>
      <trkpt lat="46.97463" lon="6.47856">
        <ele>1031</ele>
        <time>2023-05-15T08:05:08.000Z</time>
      </trkpt>
      <trkpt lat="46.97461" lon="6.47853">
        <ele>1031.1999511719</ele>
        <time>2023-05-15T08:05:09.000Z</time>
      </trkpt>
      <trkpt lat="46.97456" lon="6.4784">
        <ele>1032.1999511719</ele>
        <time>2023-05-15T08:05:14.000Z</time>
      </trkpt>
      <trkpt lat="46.97454" lon="6.47836">
        <ele>1032.4000244141</ele>
        <time>2023-05-15T08:05:16.000Z</time>
      </trkpt>
      <trkpt lat="46.97447" lon="6.4782">
        <ele>1033.1999511719</ele>
        <time>2023-05-15T08:05:23.000Z</time>
      </trkpt>
      <trkpt lat="46.97445" lon="6.47818">
        <ele>1033.4000244141</ele>
        <time>2023-05-15T08:05:24.000Z</time>
      </trkpt>
      <trkpt lat="46.97442" lon="6.47812">
        <ele>1033.5999755859</ele>
        <time>2023-05-15T08:05:27.000Z</time>
      </trkpt>
      <trkpt lat="46.97437" lon="6.47803">
        <ele>1034.4000244141</ele>
        <time>2023-05-15T08:05:32.000Z</time>
      </trkpt>
      <trkpt lat="46.97427" lon="6.47792">
        <ele>1035.4000244141</ele>
        <time>2023-05-15T08:05:40.000Z</time>
      </trkpt>
      <trkpt lat="46.97418" lon="6.47782">
        <ele>1036.4000244141</ele>
        <time>2023-05-15T08:05:46.000Z</time>
      </trkpt>
      <trkpt lat="46.97416" lon="6.4778">
        <ele>1036.5999755859</ele>
        <time>2023-05-15T08:05:47.000Z</time>
      </trkpt>
      <trkpt lat="46.97408" lon="6.47772">
        <ele>1037.4000244141</ele>
        <time>2023-05-15T08:05:54.000Z</time>
      </trkpt>
      <trkpt lat="46.97407" lon="6.4777">
        <ele>1037.5999755859</ele>
        <time>2023-05-15T08:05:55.000Z</time>
      </trkpt>
      <trkpt lat="46.97398" lon="6.4776">
        <ele>1038.5999755859</ele>
        <time>2023-05-15T08:06:01.000Z</time>
      </trkpt>
      <trkpt lat="46.97395" lon="6.47759">
        <ele>1038.8000488281</ele>
        <time>2023-05-15T08:06:03.000Z</time>
      </trkpt>
      <trkpt lat="46.97385" lon="6.47756">
        <ele>1039.4000244141</ele>
        <time>2023-05-15T08:06:09.000Z</time>
      </trkpt>
      <trkpt lat="46.97383" lon="6.47756">
        <ele>1039.5999755859</ele>
        <time>2023-05-15T08:06:10.000Z</time>
      </trkpt>
      <trkpt lat="46.97374" lon="6.47753">
        <ele>1040.4000244141</ele>
        <time>2023-05-15T08:06:15.000Z</time>
      </trkpt>
      <trkpt lat="46.97367" lon="6.47751">
        <ele>1041.1999511719</ele>
        <time>2023-05-15T08:06:20.000Z</time>
      </trkpt>
      <trkpt lat="46.97365" lon="6.4775">
        <ele>1041.5999755859</ele>
        <time>2023-05-15T08:06:22.000Z</time>
      </trkpt>
      <trkpt lat="46.97354" lon="6.47747">
        <ele>1042.5999755859</ele>
        <time>2023-05-15T08:06:29.000Z</time>
      </trkpt>
      <trkpt lat="46.97352" lon="6.47746">
        <ele>1042.8000488281</ele>
        <time>2023-05-15T08:06:30.000Z</time>
      </trkpt>
      <trkpt lat="46.97347" lon="6.47744">
        <ele>1043.1999511719</ele>
        <time>2023-05-15T08:06:34.000Z</time>
      </trkpt>
      <trkpt lat="46.97341" lon="6.47743">
        <ele>1043.5999755859</ele>
        <time>2023-05-15T08:06:38.000Z</time>
      </trkpt>
      <trkpt lat="46.97335" lon="6.47739">
        <ele>1044.1999511719</ele>
        <time>2023-05-15T08:06:42.000Z</time>
      </trkpt>
      <trkpt lat="46.97334" lon="6.47738">
        <ele>1044.4000244141</ele>
        <time>2023-05-15T08:06:43.000Z</time>
      </trkpt>
      <trkpt lat="46.97332" lon="6.47735">
        <ele>1044.8000488281</ele>
        <time>2023-05-15T08:06:47.000Z</time>
      </trkpt>
      <trkpt lat="46.97328" lon="6.4773">
        <ele>1045.4000244141</ele>
        <time>2023-05-15T08:06:51.000Z</time>
      </trkpt>
      <trkpt lat="46.97325" lon="6.47725">
        <ele>1045.5999755859</ele>
        <time>2023-05-15T08:06:54.000Z</time>
      </trkpt>
      <trkpt lat="46.97321" lon="6.47721">
        <ele>1046</ele>
        <time>2023-05-15T08:06:57.000Z</time>
      </trkpt>
      <trkpt lat="46.97318" lon="6.47717">
        <ele>1046.4000244141</ele>
        <time>2023-05-15T08:07:00.000Z</time>
      </trkpt>
      <trkpt lat="46.97317" lon="6.47716">
        <ele>1046.5999755859</ele>
        <time>2023-05-15T08:07:01.000Z</time>
      </trkpt>
      <trkpt lat="46.97312" lon="6.47708">
        <ele>1046.8000488281</ele>
        <time>2023-05-15T08:07:05.000Z</time>
      </trkpt>
      <trkpt lat="46.97312" lon="6.47706">
        <ele>1047</ele>
        <time>2023-05-15T08:07:06.000Z</time>
      </trkpt>
      <trkpt lat="46.97309" lon="6.47702">
        <ele>1047.1999511719</ele>
        <time>2023-05-15T08:07:08.000Z</time>
      </trkpt>
      <trkpt lat="46.97303" lon="6.47691">
        <ele>1048</ele>
        <time>2023-05-15T08:07:14.000Z</time>
      </trkpt>
      <trkpt lat="46.97302" lon="6.4769">
        <ele>1048.1999511719</ele>
        <time>2023-05-15T08:07:15.000Z</time>
      </trkpt>
      <trkpt lat="46.97294" lon="6.4768">
        <ele>1048.8000488281</ele>
        <time>2023-05-15T08:07:22.000Z</time>
      </trkpt>
      <trkpt lat="46.9729" lon="6.47677">
        <ele>1049.1999511719</ele>
        <time>2023-05-15T08:07:25.000Z</time>
      </trkpt>
      <trkpt lat="46.97281" lon="6.47667">
        <ele>1050</ele>
        <time>2023-05-15T08:07:32.000Z</time>
      </trkpt>
      <trkpt lat="46.9728" lon="6.47666">
        <ele>1050.1999511719</ele>
        <time>2023-05-15T08:07:33.000Z</time>
      </trkpt>
      <trkpt lat="46.97272" lon="6.47651">
        <ele>1051</ele>
        <time>2023-05-15T08:07:42.000Z</time>
      </trkpt>
      <trkpt lat="46.97271" lon="6.47649">
        <ele>1051.1999511719</ele>
        <time>2023-05-15T08:07:43.000Z</time>
      </trkpt>
      <trkpt lat="46.97267" lon="6.47639">
        <ele>1051.5999755859</ele>
        <time>2023-05-15T08:07:49.000Z</time>
      </trkpt>
      <trkpt lat="46.97266" lon="6.47638">
        <ele>1051.8000488281</ele>
        <time>2023-05-15T08:07:50.000Z</time>
      </trkpt>
      <trkpt lat="46.97263" lon="6.47635">
        <ele>1052</ele>
        <time>2023-05-15T08:07:52.000Z</time>
      </trkpt>
      <trkpt lat="46.97253" lon="6.47629">
        <ele>1052.5999755859</ele>
        <time>2023-05-15T08:07:58.000Z</time>
      </trkpt>
      <trkpt lat="46.9725" lon="6.47626">
        <ele>1053.1999511719</ele>
        <time>2023-05-15T08:08:02.000Z</time>
      </trkpt>
      <trkpt lat="46.97247" lon="6.47621">
        <ele>1053.5999755859</ele>
        <time>2023-05-15T08:08:04.000Z</time>
      </trkpt>
      <trkpt lat="46.97239" lon="6.47612">
        <ele>1054.4000244141</ele>
        <time>2023-05-15T08:08:09.000Z</time>
      </trkpt>
      <trkpt lat="46.97233" lon="6.47608">
        <ele>1054.8000488281</ele>
        <time>2023-05-15T08:08:12.000Z</time>
      </trkpt>
      <trkpt lat="46.97223" lon="6.47598">
        <ele>1055.4000244141</ele>
        <time>2023-05-15T08:08:17.000Z</time>
      </trkpt>
      <trkpt lat="46.9722" lon="6.47594">
        <ele>1055.5999755859</ele>
        <time>2023-05-15T08:08:19.000Z</time>
      </trkpt>
      <trkpt lat="46.9721" lon="6.47583">
        <ele>1056.4000244141</ele>
        <time>2023-05-15T08:08:26.000Z</time>
      </trkpt>
      <trkpt lat="46.97205" lon="6.47584">
        <ele>1056.5999755859</ele>
        <time>2023-05-15T08:08:28.000Z</time>
      </trkpt>
      <trkpt lat="46.97188" lon="6.4758">
        <ele>1057.4000244141</ele>
        <time>2023-05-15T08:08:35.000Z</time>
      </trkpt>
      <trkpt lat="46.97186" lon="6.4758">
        <ele>1057.5999755859</ele>
        <time>2023-05-15T08:08:36.000Z</time>
      </trkpt>
      <trkpt lat="46.9717" lon="6.47574">
        <ele>1058.5999755859</ele>
        <time>2023-05-15T08:08:45.000Z</time>
      </trkpt>
      <trkpt lat="46.97168" lon="6.47573">
        <ele>1058.5999755859</ele>
        <time>2023-05-15T08:08:46.000Z</time>
      </trkpt>
      <trkpt lat="46.97156" lon="6.4757">
        <ele>1059</ele>
        <time>2023-05-15T08:08:53.000Z</time>
      </trkpt>
      <trkpt lat="46.97138" lon="6.47566">
        <ele>1059.4000244141</ele>
        <time>2023-05-15T08:09:03.000Z</time>
      </trkpt>
      <trkpt lat="46.97137" lon="6.47565">
        <ele>1059.4000244141</ele>
        <time>2023-05-15T08:09:04.000Z</time>
      </trkpt>
      <trkpt lat="46.97121" lon="6.47559">
        <ele>1060.4000244141</ele>
        <time>2023-05-15T08:09:14.000Z</time>
      </trkpt>
      <trkpt lat="46.97118" lon="6.47558">
        <ele>1060.4000244141</ele>
        <time>2023-05-15T08:09:16.000Z</time>
      </trkpt>
      <trkpt lat="46.97113" lon="6.47556">
        <ele>1060.8000488281</ele>
        <time>2023-05-15T08:09:20.000Z</time>
      </trkpt>
      <trkpt lat="46.9711" lon="6.47554">
        <ele>1061.1999511719</ele>
        <time>2023-05-15T08:09:22.000Z</time>
      </trkpt>
      <trkpt lat="46.97105" lon="6.47551">
        <ele>1061.5999755859</ele>
        <time>2023-05-15T08:09:25.000Z</time>
      </trkpt>
      <trkpt lat="46.97098" lon="6.47547">
        <ele>1062</ele>
        <time>2023-05-15T08:09:30.000Z</time>
      </trkpt>
      <trkpt lat="46.97087" lon="6.47538">
        <ele>1062.8000488281</ele>
        <time>2023-05-15T08:09:37.000Z</time>
      </trkpt>
      <trkpt lat="46.97081" lon="6.47533">
        <ele>1063.1999511719</ele>
        <time>2023-05-15T08:09:40.000Z</time>
      </trkpt>
      <trkpt lat="46.97074" lon="6.47524">
        <ele>1063.8000488281</ele>
        <time>2023-05-15T08:09:46.000Z</time>
      </trkpt>
      <trkpt lat="46.97062" lon="6.47509">
        <ele>1064</ele>
        <time>2023-05-15T08:09:53.000Z</time>
      </trkpt>
      <trkpt lat="46.9705" lon="6.47491">
        <ele>1064</ele>
        <time>2023-05-15T08:10:00.000Z</time>
      </trkpt>
      <trkpt lat="46.97043" lon="6.47479">
        <ele>1064.4000244141</ele>
        <time>2023-05-15T08:10:06.000Z</time>
      </trkpt>
      <trkpt lat="46.97042" lon="6.47477">
        <ele>1064.5999755859</ele>
        <time>2023-05-15T08:10:07.000Z</time>
      </trkpt>
      <trkpt lat="46.97033" lon="6.47461">
        <ele>1065</ele>
        <time>2023-05-15T08:10:15.000Z</time>
      </trkpt>
      <trkpt lat="46.97027" lon="6.47451">
        <ele>1065.5999755859</ele>
        <time>2023-05-15T08:10:19.000Z</time>
      </trkpt>
      <trkpt lat="46.97021" lon="6.47441">
        <ele>1065.8000488281</ele>
        <time>2023-05-15T08:10:23.000Z</time>
      </trkpt>
      <trkpt lat="46.97014" lon="6.47425">
        <ele>1066.5999755859</ele>
        <time>2023-05-15T08:10:29.000Z</time>
      </trkpt>
      <trkpt lat="46.97012" lon="6.47423">
        <ele>1066.5999755859</ele>
        <time>2023-05-15T08:10:30.000Z</time>
      </trkpt>
      <trkpt lat="46.97" lon="6.47405">
        <ele>1067.4000244141</ele>
        <time>2023-05-15T08:10:37.000Z</time>
      </trkpt>
      <trkpt lat="46.96996" lon="6.47402">
        <ele>1067.5999755859</ele>
        <time>2023-05-15T08:10:39.000Z</time>
      </trkpt>
      <trkpt lat="46.96984" lon="6.47389">
        <ele>1068.8000488281</ele>
        <time>2023-05-15T08:10:46.000Z</time>
      </trkpt>
      <trkpt lat="46.96973" lon="6.47371">
        <ele>1069.5999755859</ele>
        <time>2023-05-15T08:10:54.000Z</time>
      </trkpt>
      <trkpt lat="46.96972" lon="6.47368">
        <ele>1069.8000488281</ele>
        <time>2023-05-15T08:10:55.000Z</time>
      </trkpt>
      <trkpt lat="46.9696" lon="6.4735">
        <ele>1070.5999755859</ele>
        <time>2023-05-15T08:11:03.000Z</time>
      </trkpt>
      <trkpt lat="46.96959" lon="6.47348">
        <ele>1070.8000488281</ele>
        <time>2023-05-15T08:11:04.000Z</time>
      </trkpt>
      <trkpt lat="46.96953" lon="6.47331">
        <ele>1071.1999511719</ele>
        <time>2023-05-15T08:11:10.000Z</time>
      </trkpt>
      <trkpt lat="46.9695" lon="6.47325">
        <ele>1071.5999755859</ele>
        <time>2023-05-15T08:11:13.000Z</time>
      </trkpt>
      <trkpt lat="46.96947" lon="6.4732">
        <ele>1071.8000488281</ele>
        <time>2023-05-15T08:11:15.000Z</time>
      </trkpt>
      <trkpt lat="46.96942" lon="6.47305">
        <ele>1072.8000488281</ele>
        <time>2023-05-15T08:11:22.000Z</time>
      </trkpt>
      <trkpt lat="46.9694" lon="6.47301">
        <ele>1073</ele>
        <time>2023-05-15T08:11:24.000Z</time>
      </trkpt>
      <trkpt lat="46.96937" lon="6.47292">
        <ele>1074</ele>
        <time>2023-05-15T08:11:28.000Z</time>
      </trkpt>
      <trkpt lat="46.96931" lon="6.47281">
        <ele>1074.5999755859</ele>
        <time>2023-05-15T08:11:32.000Z</time>
      </trkpt>
      <trkpt lat="46.96928" lon="6.47276">
        <ele>1075.1999511719</ele>
        <time>2023-05-15T08:11:34.000Z</time>
      </trkpt>
      <trkpt lat="46.96923" lon="6.47266">
        <ele>1076.1999511719</ele>
        <time>2023-05-15T08:11:39.000Z</time>
      </trkpt>
      <trkpt lat="46.96922" lon="6.47262">
        <ele>1076.4000244141</ele>
        <time>2023-05-15T08:11:40.000Z</time>
      </trkpt>
      <trkpt lat="46.96917" lon="6.4725">
        <ele>1077</ele>
        <time>2023-05-15T08:11:45.000Z</time>
      </trkpt>
      <trkpt lat="46.96914" lon="6.47243">
        <ele>1077.4000244141</ele>
        <time>2023-05-15T08:11:48.000Z</time>
      </trkpt>
      <trkpt lat="46.9691" lon="6.47237">
        <ele>1077.8000488281</ele>
        <time>2023-05-15T08:11:51.000Z</time>
      </trkpt>
      <trkpt lat="46.96906" lon="6.47225">
        <ele>1078.4000244141</ele>
        <time>2023-05-15T08:11:55.000Z</time>
      </trkpt>
      <trkpt lat="46.969" lon="6.47217">
        <ele>1079</ele>
        <time>2023-05-15T08:11:59.000Z</time>
      </trkpt>
      <trkpt lat="46.96899" lon="6.47212">
        <ele>1079.4000244141</ele>
        <time>2023-05-15T08:12:01.000Z</time>
      </trkpt>
      <trkpt lat="46.96894" lon="6.47201">
        <ele>1080.4000244141</ele>
        <time>2023-05-15T08:12:06.000Z</time>
      </trkpt>
      <trkpt lat="46.96893" lon="6.47197">
        <ele>1080.8000488281</ele>
        <time>2023-05-15T08:12:08.000Z</time>
      </trkpt>
      <trkpt lat="46.96885" lon="6.47185">
        <ele>1081.4000244141</ele>
        <time>2023-05-15T08:12:13.000Z</time>
      </trkpt>
      <trkpt lat="46.9688" lon="6.47177">
        <ele>1081.8000488281</ele>
        <time>2023-05-15T08:12:16.000Z</time>
      </trkpt>
      <trkpt lat="46.96869" lon="6.4716">
        <ele>1082.1999511719</ele>
        <time>2023-05-15T08:12:22.000Z</time>
      </trkpt>
      <trkpt lat="46.96852" lon="6.4714">
        <ele>1082.1999511719</ele>
        <time>2023-05-15T08:12:30.000Z</time>
      </trkpt>
      <trkpt lat="46.96839" lon="6.47122">
        <ele>1082.1999511719</ele>
        <time>2023-05-15T08:12:37.000Z</time>
      </trkpt>
      <trkpt lat="46.96822" lon="6.47094">
        <ele>1082.1999511719</ele>
        <time>2023-05-15T08:12:44.000Z</time>
      </trkpt>
      <trkpt lat="46.96801" lon="6.47062">
        <ele>1081.5999755859</ele>
        <time>2023-05-15T08:12:51.000Z</time>
      </trkpt>
      <trkpt lat="46.96773" lon="6.47018">
        <ele>1081.1999511719</ele>
        <time>2023-05-15T08:13:00.000Z</time>
      </trkpt>
      <trkpt lat="46.96769" lon="6.47012">
        <ele>1081</ele>
        <time>2023-05-15T08:13:01.000Z</time>
      </trkpt>
      <trkpt lat="46.96766" lon="6.47007">
        <ele>1080.8000488281</ele>
        <time>2023-05-15T08:13:02.000Z</time>
      </trkpt>
      <trkpt lat="46.96751" lon="6.46982">
        <ele>1080</ele>
        <time>2023-05-15T08:13:06.000Z</time>
      </trkpt>
      <trkpt lat="46.96748" lon="6.46975">
        <ele>1080</ele>
        <time>2023-05-15T08:13:07.000Z</time>
      </trkpt>
      <trkpt lat="46.96743" lon="6.46967">
        <ele>1080</ele>
        <time>2023-05-15T08:13:08.000Z</time>
      </trkpt>
      <trkpt lat="46.9673" lon="6.4694">
        <ele>1079.4000244141</ele>
        <time>2023-05-15T08:13:12.000Z</time>
      </trkpt>
      <trkpt lat="46.96723" lon="6.46926">
        <ele>1079</ele>
        <time>2023-05-15T08:13:14.000Z</time>
      </trkpt>
      <trkpt lat="46.96719" lon="6.4692">
        <ele>1078.8000488281</ele>
        <time>2023-05-15T08:13:15.000Z</time>
      </trkpt>
      <trkpt lat="46.96699" lon="6.46885">
        <ele>1078.1999511719</ele>
        <time>2023-05-15T08:13:21.000Z</time>
      </trkpt>
      <trkpt lat="46.96694" lon="6.46875">
        <ele>1078</ele>
        <time>2023-05-15T08:13:23.000Z</time>
      </trkpt>
      <trkpt lat="46.96691" lon="6.46869">
        <ele>1078</ele>
        <time>2023-05-15T08:13:24.000Z</time>
      </trkpt>
      <trkpt lat="46.96688" lon="6.46863">
        <ele>1078</ele>
        <time>2023-05-15T08:13:25.000Z</time>
      </trkpt>
      <trkpt lat="46.96678" lon="6.46843">
        <ele>1077.5999755859</ele>
        <time>2023-05-15T08:13:29.000Z</time>
      </trkpt>
      <trkpt lat="46.9667" lon="6.46825">
        <ele>1077.1999511719</ele>
        <time>2023-05-15T08:13:33.000Z</time>
      </trkpt>
      <trkpt lat="46.96669" lon="6.46823">
        <ele>1077.1999511719</ele>
        <time>2023-05-15T08:13:34.000Z</time>
      </trkpt>
      <trkpt lat="46.96667" lon="6.46815">
        <ele>1076.8000488281</ele>
        <time>2023-05-15T08:13:39.000Z</time>
      </trkpt>
      <trkpt lat="46.96667" lon="6.46813">
        <ele>1077</ele>
        <time>2023-05-15T08:13:40.000Z</time>
      </trkpt>
      <trkpt lat="46.96667" lon="6.46812">
        <ele>1077</ele>
        <time>2023-05-15T08:13:41.000Z</time>
      </trkpt>
      <trkpt lat="46.9667" lon="6.4681">
        <ele>1076.8000488281</ele>
        <time>2023-05-15T08:13:44.000Z</time>
      </trkpt>
      <trkpt lat="46.96671" lon="6.46811">
        <ele>1076.8000488281</ele>
        <time>2023-05-15T08:13:45.000Z</time>
      </trkpt>
      <trkpt lat="46.96668" lon="6.46819">
        <ele>1076.8000488281</ele>
        <time>2023-05-15T08:13:49.000Z</time>
      </trkpt>
      <trkpt lat="46.96667" lon="6.4682">
        <ele>1076.8000488281</ele>
        <time>2023-05-15T08:13:50.000Z</time>
      </trkpt>
      <trkpt lat="46.96657" lon="6.46814">
        <ele>1076.5999755859</ele>
        <time>2023-05-15T08:13:56.000Z</time>
      </trkpt>
      <trkpt lat="46.96653" lon="6.46811">
        <ele>1076.5999755859</ele>
        <time>2023-05-15T08:13:58.000Z</time>
      </trkpt>
      <trkpt lat="46.96644" lon="6.46798">
        <ele>1076.5999755859</ele>
        <time>2023-05-15T08:14:03.000Z</time>
      </trkpt>
      <trkpt lat="46.96636" lon="6.46784">
        <ele>1076.4000244141</ele>
        <time>2023-05-15T08:14:07.000Z</time>
      </trkpt>
      <trkpt lat="46.96633" lon="6.46776">
        <ele>1076.1999511719</ele>
        <time>2023-05-15T08:14:09.000Z</time>
      </trkpt>
      <trkpt lat="46.96629" lon="6.4677">
        <ele>1076</ele>
        <time>2023-05-15T08:14:11.000Z</time>
      </trkpt>
      <trkpt lat="46.9662" lon="6.46757">
        <ele>1075.8000488281</ele>
        <time>2023-05-15T08:14:15.000Z</time>
      </trkpt>
      <trkpt lat="46.96613" lon="6.46744">
        <ele>1076</ele>
        <time>2023-05-15T08:14:19.000Z</time>
      </trkpt>
      <trkpt lat="46.96604" lon="6.46734">
        <ele>1075.8000488281</ele>
        <time>2023-05-15T08:14:23.000Z</time>
      </trkpt>
      <trkpt lat="46.96602" lon="6.46727">
        <ele>1075.8000488281</ele>
        <time>2023-05-15T08:14:25.000Z</time>
      </trkpt>
      <trkpt lat="46.96593" lon="6.46706">
        <ele>1075.4000244141</ele>
        <time>2023-05-15T08:14:31.000Z</time>
      </trkpt>
      <trkpt lat="46.96589" lon="6.46699">
        <ele>1075.1999511719</ele>
        <time>2023-05-15T08:14:33.000Z</time>
      </trkpt>
      <trkpt lat="46.96582" lon="6.46684">
        <ele>1074.8000488281</ele>
        <time>2023-05-15T08:14:37.000Z</time>
      </trkpt>
      <trkpt lat="46.96581" lon="6.46679">
        <ele>1074.8000488281</ele>
        <time>2023-05-15T08:14:38.000Z</time>
      </trkpt>
      <trkpt lat="46.96581" lon="6.46674">
        <ele>1074.5999755859</ele>
        <time>2023-05-15T08:14:40.000Z</time>
      </trkpt>
      <trkpt lat="46.96577" lon="6.46668">
        <ele>1074.5999755859</ele>
        <time>2023-05-15T08:14:42.000Z</time>
      </trkpt>
      <trkpt lat="46.96575" lon="6.46667">
        <ele>1074.5999755859</ele>
        <time>2023-05-15T08:14:43.000Z</time>
      </trkpt>
      <trkpt lat="46.96567" lon="6.46664">
        <ele>1074.4000244141</ele>
        <time>2023-05-15T08:14:47.000Z</time>
      </trkpt>
      <trkpt lat="46.96561" lon="6.4666">
        <ele>1074.4000244141</ele>
        <time>2023-05-15T08:14:51.000Z</time>
      </trkpt>
      <trkpt lat="46.9656" lon="6.46659">
        <ele>1074.5999755859</ele>
        <time>2023-05-15T08:14:53.000Z</time>
      </trkpt>
      <trkpt lat="46.9656" lon="6.46659">
        <ele>1074.5999755859</ele>
        <time>2023-05-15T08:14:54.000Z</time>
      </trkpt>
      <trkpt lat="46.96543" lon="6.46606">
        <ele>1074.5999755859</ele>
        <time>2023-05-15T08:16:23.000Z</time>
      </trkpt>
      <trkpt lat="46.9654" lon="6.46604">
        <ele>1074.5999755859</ele>
        <time>2023-05-15T08:16:26.000Z</time>
      </trkpt>
      <trkpt lat="46.96533" lon="6.46597">
        <ele>1074.4000244141</ele>
        <time>2023-05-15T08:16:32.000Z</time>
      </trkpt>
      <trkpt lat="46.96525" lon="6.46585">
        <ele>1074.4000244141</ele>
        <time>2023-05-15T08:16:39.000Z</time>
      </trkpt>
      <trkpt lat="46.96517" lon="6.4657">
        <ele>1074.1999511719</ele>
        <time>2023-05-15T08:16:48.000Z</time>
      </trkpt>
      <trkpt lat="46.96513" lon="6.46557">
        <ele>1074.1999511719</ele>
        <time>2023-05-15T08:16:55.000Z</time>
      </trkpt>
      <trkpt lat="46.96511" lon="6.46553">
        <ele>1074.1999511719</ele>
        <time>2023-05-15T08:16:59.000Z</time>
      </trkpt>
      <trkpt lat="46.96502" lon="6.46529">
        <ele>1074.4000244141</ele>
        <time>2023-05-15T08:19:39.000Z</time>
      </trkpt>
      <trkpt lat="46.96501" lon="6.46525">
        <ele>1074.5999755859</ele>
        <time>2023-05-15T08:19:40.000Z</time>
      </trkpt>
      <trkpt lat="46.96496" lon="6.46508">
        <ele>1074.8000488281</ele>
        <time>2023-05-15T08:19:46.000Z</time>
      </trkpt>
      <trkpt lat="46.96485" lon="6.46484">
        <ele>1075.5999755859</ele>
        <time>2023-05-15T08:19:54.000Z</time>
      </trkpt>
      <trkpt lat="46.96465" lon="6.46461">
        <ele>1076.1999511719</ele>
        <time>2023-05-15T08:20:04.000Z</time>
      </trkpt>
      <trkpt lat="46.96463" lon="6.46459">
        <ele>1076.1999511719</ele>
        <time>2023-05-15T08:20:05.000Z</time>
      </trkpt>
      <trkpt lat="46.96461" lon="6.46457">
        <ele>1076.1999511719</ele>
        <time>2023-05-15T08:20:06.000Z</time>
      </trkpt>
      <trkpt lat="46.96443" lon="6.46439">
        <ele>1077</ele>
        <time>2023-05-15T08:20:15.000Z</time>
      </trkpt>
      <trkpt lat="46.96437" lon="6.4643">
        <ele>1077.4000244141</ele>
        <time>2023-05-15T08:20:19.000Z</time>
      </trkpt>
      <trkpt lat="46.9643" lon="6.4642">
        <ele>1078.5999755859</ele>
        <time>2023-05-15T08:20:23.000Z</time>
      </trkpt>
      <trkpt lat="46.9642" lon="6.46404">
        <ele>1079.5999755859</ele>
        <time>2023-05-15T08:20:30.000Z</time>
      </trkpt>
      <trkpt lat="46.96412" lon="6.46389">
        <ele>1080.5999755859</ele>
        <time>2023-05-15T08:20:37.000Z</time>
      </trkpt>
      <trkpt lat="46.96409" lon="6.46385">
        <ele>1080.8000488281</ele>
        <time>2023-05-15T08:20:39.000Z</time>
      </trkpt>
      <trkpt lat="46.96405" lon="6.46375">
        <ele>1081.4000244141</ele>
        <time>2023-05-15T08:20:44.000Z</time>
      </trkpt>
      <trkpt lat="46.96403" lon="6.46373">
        <ele>1081.4000244141</ele>
        <time>2023-05-15T08:20:45.000Z</time>
      </trkpt>
      <trkpt lat="46.96401" lon="6.4637">
        <ele>1081.5999755859</ele>
        <time>2023-05-15T08:20:47.000Z</time>
      </trkpt>
      <trkpt lat="46.96399" lon="6.46366">
        <ele>1081.5999755859</ele>
        <time>2023-05-15T08:20:48.000Z</time>
      </trkpt>
      <trkpt lat="46.96397" lon="6.46363">
        <ele>1081.8000488281</ele>
        <time>2023-05-15T08:20:49.000Z</time>
      </trkpt>
      <trkpt lat="46.96381" lon="6.46342">
        <ele>1082</ele>
        <time>2023-05-15T08:20:57.000Z</time>
      </trkpt>
      <trkpt lat="46.96366" lon="6.46318">
        <ele>1082.1999511719</ele>
        <time>2023-05-15T08:21:05.000Z</time>
      </trkpt>
      <trkpt lat="46.96362" lon="6.46307">
        <ele>1083</ele>
        <time>2023-05-15T08:21:09.000Z</time>
      </trkpt>
      <trkpt lat="46.96358" lon="6.46296">
        <ele>1083.8000488281</ele>
        <time>2023-05-15T08:21:13.000Z</time>
      </trkpt>
      <trkpt lat="46.96354" lon="6.46289">
        <ele>1084.1999511719</ele>
        <time>2023-05-15T08:21:16.000Z</time>
      </trkpt>
      <trkpt lat="46.9635" lon="6.4628">
        <ele>1084.8000488281</ele>
        <time>2023-05-15T08:21:20.000Z</time>
      </trkpt>
      <trkpt lat="46.96342" lon="6.46268">
        <ele>1085.1999511719</ele>
        <time>2023-05-15T08:21:25.000Z</time>
      </trkpt>
      <trkpt lat="46.96334" lon="6.46257">
        <ele>1085.8000488281</ele>
        <time>2023-05-15T08:21:30.000Z</time>
      </trkpt>
      <trkpt lat="46.96327" lon="6.46248">
        <ele>1086.4000244141</ele>
        <time>2023-05-15T08:21:34.000Z</time>
      </trkpt>
      <trkpt lat="46.96321" lon="6.4624">
        <ele>1086.4000244141</ele>
        <time>2023-05-15T08:21:38.000Z</time>
      </trkpt>
      <trkpt lat="46.96309" lon="6.46226">
        <ele>1087.4000244141</ele>
        <time>2023-05-15T08:21:45.000Z</time>
      </trkpt>
      <trkpt lat="46.96308" lon="6.46221">
        <ele>1087.8000488281</ele>
        <time>2023-05-15T08:21:47.000Z</time>
      </trkpt>
      <trkpt lat="46.96303" lon="6.46214">
        <ele>1088.4000244141</ele>
        <time>2023-05-15T08:21:51.000Z</time>
      </trkpt>
      <trkpt lat="46.963" lon="6.46207">
        <ele>1089.1999511719</ele>
        <time>2023-05-15T08:21:54.000Z</time>
      </trkpt>
      <trkpt lat="46.96299" lon="6.46199">
        <ele>1089.5999755859</ele>
        <time>2023-05-15T08:21:59.000Z</time>
      </trkpt>
      <trkpt lat="46.96299" lon="6.46199">
        <ele>1089.8000488281</ele>
        <time>2023-05-15T08:22:00.000Z</time>
      </trkpt>
      <trkpt lat="46.96293" lon="6.46189">
        <ele>1090.4000244141</ele>
        <time>2023-05-15T08:22:43.000Z</time>
      </trkpt>
      <trkpt lat="46.96291" lon="6.46186">
        <ele>1090.4000244141</ele>
        <time>2023-05-15T08:22:44.000Z</time>
      </trkpt>
      <trkpt lat="46.9629" lon="6.46183">
        <ele>1090.4000244141</ele>
        <time>2023-05-15T08:22:45.000Z</time>
      </trkpt>
      <trkpt lat="46.96287" lon="6.46177">
        <ele>1090</ele>
        <time>2023-05-15T08:22:50.000Z</time>
      </trkpt>
      <trkpt lat="46.96283" lon="6.46172">
        <ele>1090.4000244141</ele>
        <time>2023-05-15T08:23:21.000Z</time>
      </trkpt>
      <trkpt lat="46.96281" lon="6.46169">
        <ele>1090.4000244141</ele>
        <time>2023-05-15T08:23:22.000Z</time>
      </trkpt>
      <trkpt lat="46.9628" lon="6.46166">
        <ele>1090.4000244141</ele>
        <time>2023-05-15T08:23:23.000Z</time>
      </trkpt>
      <trkpt lat="46.96266" lon="6.46149">
        <ele>1090.5999755859</ele>
        <time>2023-05-15T08:23:30.000Z</time>
      </trkpt>
      <trkpt lat="46.96249" lon="6.46124">
        <ele>1091</ele>
        <time>2023-05-15T08:23:41.000Z</time>
      </trkpt>
      <trkpt lat="46.96247" lon="6.46122">
        <ele>1091.1999511719</ele>
        <time>2023-05-15T08:23:42.000Z</time>
      </trkpt>
      <trkpt lat="46.9624" lon="6.46115">
        <ele>1091.4000244141</ele>
        <time>2023-05-15T08:23:48.000Z</time>
      </trkpt>
      <trkpt lat="46.9624" lon="6.46115">
        <ele>1091.4000244141</ele>
        <time>2023-05-15T08:23:50.000Z</time>
      </trkpt>
      <trkpt lat="46.96236" lon="6.46097">
        <ele>1092</ele>
        <time>2023-05-15T08:24:29.000Z</time>
      </trkpt>
      <trkpt lat="46.96234" lon="6.46094">
        <ele>1092</ele>
        <time>2023-05-15T08:24:30.000Z</time>
      </trkpt>
      <trkpt lat="46.96227" lon="6.46076">
        <ele>1092.1999511719</ele>
        <time>2023-05-15T08:24:36.000Z</time>
      </trkpt>
      <trkpt lat="46.96227" lon="6.46075">
        <ele>1092.1999511719</ele>
        <time>2023-05-15T08:24:39.000Z</time>
      </trkpt>
      <trkpt lat="46.96222" lon="6.46052">
        <ele>1092.5999755859</ele>
        <time>2023-05-15T08:25:13.000Z</time>
      </trkpt>
      <trkpt lat="46.96221" lon="6.46049">
        <ele>1092.5999755859</ele>
        <time>2023-05-15T08:25:14.000Z</time>
      </trkpt>
      <trkpt lat="46.96212" lon="6.46032">
        <ele>1092.4000244141</ele>
        <time>2023-05-15T08:25:20.000Z</time>
      </trkpt>
      <trkpt lat="46.9621" lon="6.46028">
        <ele>1092.5999755859</ele>
        <time>2023-05-15T08:25:21.000Z</time>
      </trkpt>
      <trkpt lat="46.96195" lon="6.46003">
        <ele>1092</ele>
        <time>2023-05-15T08:25:29.000Z</time>
      </trkpt>
      <trkpt lat="46.96175" lon="6.45974">
        <ele>1093</ele>
        <time>2023-05-15T08:25:41.000Z</time>
      </trkpt>
      <trkpt lat="46.96167" lon="6.45967">
        <ele>1094</ele>
        <time>2023-05-15T08:25:46.000Z</time>
      </trkpt>
      <trkpt lat="46.9616" lon="6.45963">
        <ele>1094.8000488281</ele>
        <time>2023-05-15T08:25:50.000Z</time>
      </trkpt>
      <trkpt lat="46.96157" lon="6.45961">
        <ele>1095.1999511719</ele>
        <time>2023-05-15T08:25:52.000Z</time>
      </trkpt>
      <trkpt lat="46.96146" lon="6.45955">
        <ele>1095.8000488281</ele>
        <time>2023-05-15T08:25:59.000Z</time>
      </trkpt>
      <trkpt lat="46.96141" lon="6.45952">
        <ele>1096.1999511719</ele>
        <time>2023-05-15T08:26:02.000Z</time>
      </trkpt>
      <trkpt lat="46.96128" lon="6.45944">
        <ele>1097</ele>
        <time>2023-05-15T08:26:10.000Z</time>
      </trkpt>
      <trkpt lat="46.96115" lon="6.45936">
        <ele>1097.4000244141</ele>
        <time>2023-05-15T08:26:18.000Z</time>
      </trkpt>
      <trkpt lat="46.96102" lon="6.45921">
        <ele>1097</ele>
        <time>2023-05-15T08:26:27.000Z</time>
      </trkpt>
      <trkpt lat="46.96098" lon="6.45915">
        <ele>1096.4000244141</ele>
        <time>2023-05-15T08:26:33.000Z</time>
      </trkpt>
      <trkpt lat="46.96093" lon="6.4589">
        <ele>1094.4000244141</ele>
        <time>2023-05-15T08:27:00.000Z</time>
      </trkpt>
      <trkpt lat="46.96092" lon="6.45888">
        <ele>1094.1999511719</ele>
        <time>2023-05-15T08:27:01.000Z</time>
      </trkpt>
      <trkpt lat="46.9609" lon="6.45882">
        <ele>1094.1999511719</ele>
        <time>2023-05-15T08:27:03.000Z</time>
      </trkpt>
      <trkpt lat="46.96081" lon="6.45856">
        <ele>1094</ele>
        <time>2023-05-15T08:27:11.000Z</time>
      </trkpt>
      <trkpt lat="46.96074" lon="6.45834">
        <ele>1093.1999511719</ele>
        <time>2023-05-15T08:27:17.000Z</time>
      </trkpt>
      <trkpt lat="46.96068" lon="6.45819">
        <ele>1092.5999755859</ele>
        <time>2023-05-15T08:27:21.000Z</time>
      </trkpt>
      <trkpt lat="46.96062" lon="6.45804">
        <ele>1092.1999511719</ele>
        <time>2023-05-15T08:27:26.000Z</time>
      </trkpt>
      <trkpt lat="46.9606" lon="6.45798">
        <ele>1091.8000488281</ele>
        <time>2023-05-15T08:27:28.000Z</time>
      </trkpt>
      <trkpt lat="46.96053" lon="6.45773">
        <ele>1091.1999511719</ele>
        <time>2023-05-15T08:27:33.000Z</time>
      </trkpt>
      <trkpt lat="46.96045" lon="6.45755">
        <ele>1090.1999511719</ele>
        <time>2023-05-15T08:27:37.000Z</time>
      </trkpt>
      <trkpt lat="46.96041" lon="6.45753">
        <ele>1090</ele>
        <time>2023-05-15T08:27:38.000Z</time>
      </trkpt>
      <trkpt lat="46.96032" lon="6.45747">
        <ele>1089</ele>
        <time>2023-05-15T08:27:41.000Z</time>
      </trkpt>
      <trkpt lat="46.96017" lon="6.45741">
        <ele>1088.4000244141</ele>
        <time>2023-05-15T08:27:46.000Z</time>
      </trkpt>
      <trkpt lat="46.95992" lon="6.45728">
        <ele>1088.1999511719</ele>
        <time>2023-05-15T08:27:55.000Z</time>
      </trkpt>
      <trkpt lat="46.95987" lon="6.45726">
        <ele>1088</ele>
        <time>2023-05-15T08:27:57.000Z</time>
      </trkpt>
      <trkpt lat="46.9597" lon="6.45724">
        <ele>1087.8000488281</ele>
        <time>2023-05-15T08:28:02.000Z</time>
      </trkpt>
      <trkpt lat="46.95962" lon="6.45727">
        <ele>1087.5999755859</ele>
        <time>2023-05-15T08:28:04.000Z</time>
      </trkpt>
      <trkpt lat="46.95952" lon="6.45727">
        <ele>1087.1999511719</ele>
        <time>2023-05-15T08:28:06.000Z</time>
      </trkpt>
      <trkpt lat="46.95941" lon="6.4572">
        <ele>1086.5999755859</ele>
        <time>2023-05-15T08:28:08.000Z</time>
      </trkpt>
      <trkpt lat="46.95936" lon="6.45713">
        <ele>1086.4000244141</ele>
        <time>2023-05-15T08:28:09.000Z</time>
      </trkpt>
      <trkpt lat="46.95912" lon="6.4568">
        <ele>1085.4000244141</ele>
        <time>2023-05-15T08:28:13.000Z</time>
      </trkpt>
      <trkpt lat="46.95906" lon="6.4567">
        <ele>1085</ele>
        <time>2023-05-15T08:28:14.000Z</time>
      </trkpt>
      <trkpt lat="46.95899" lon="6.45659">
        <ele>1084.1999511719</ele>
        <time>2023-05-15T08:28:15.000Z</time>
      </trkpt>
      <trkpt lat="46.95885" lon="6.45637">
        <ele>1083</ele>
        <time>2023-05-15T08:28:17.000Z</time>
      </trkpt>
      <trkpt lat="46.95871" lon="6.45613">
        <ele>1081.8000488281</ele>
        <time>2023-05-15T08:28:19.000Z</time>
      </trkpt>
      <trkpt lat="46.95858" lon="6.45585">
        <ele>1080.5999755859</ele>
        <time>2023-05-15T08:28:21.000Z</time>
      </trkpt>
      <trkpt lat="46.95851" lon="6.45571">
        <ele>1079.5999755859</ele>
        <time>2023-05-15T08:28:22.000Z</time>
      </trkpt>
      <trkpt lat="46.95839" lon="6.45541">
        <ele>1078.4000244141</ele>
        <time>2023-05-15T08:28:24.000Z</time>
      </trkpt>
      <trkpt lat="46.95829" lon="6.45515">
        <ele>1076.8000488281</ele>
        <time>2023-05-15T08:28:26.000Z</time>
      </trkpt>
      <trkpt lat="46.9582" lon="6.45485">
        <ele>1075</ele>
        <time>2023-05-15T08:28:28.000Z</time>
      </trkpt>
      <trkpt lat="46.95816" lon="6.45469">
        <ele>1074.1999511719</ele>
        <time>2023-05-15T08:28:29.000Z</time>
      </trkpt>
      <trkpt lat="46.95812" lon="6.45453">
        <ele>1072.8000488281</ele>
        <time>2023-05-15T08:28:30.000Z</time>
      </trkpt>
      <trkpt lat="46.9581" lon="6.45435">
        <ele>1071.4000244141</ele>
        <time>2023-05-15T08:28:31.000Z</time>
      </trkpt>
      <trkpt lat="46.95808" lon="6.45397">
        <ele>1069.4000244141</ele>
        <time>2023-05-15T08:28:33.000Z</time>
      </trkpt>
      <trkpt lat="46.95808" lon="6.4538">
        <ele>1068.5999755859</ele>
        <time>2023-05-15T08:28:34.000Z</time>
      </trkpt>
      <trkpt lat="46.95809" lon="6.45364">
        <ele>1067.1999511719</ele>
        <time>2023-05-15T08:28:35.000Z</time>
      </trkpt>
      <trkpt lat="46.95811" lon="6.45349">
        <ele>1066.8000488281</ele>
        <time>2023-05-15T08:28:36.000Z</time>
      </trkpt>
      <trkpt lat="46.95813" lon="6.45335">
        <ele>1065.4000244141</ele>
        <time>2023-05-15T08:28:37.000Z</time>
      </trkpt>
      <trkpt lat="46.95819" lon="6.45309">
        <ele>1064.4000244141</ele>
        <time>2023-05-15T08:28:39.000Z</time>
      </trkpt>
      <trkpt lat="46.95825" lon="6.45286">
        <ele>1063.8000488281</ele>
        <time>2023-05-15T08:28:41.000Z</time>
      </trkpt>
      <trkpt lat="46.95838" lon="6.45245">
        <ele>1063.4000244141</ele>
        <time>2023-05-15T08:28:46.000Z</time>
      </trkpt>
      <trkpt lat="46.95846" lon="6.4522">
        <ele>1063.4000244141</ele>
        <time>2023-05-15T08:28:51.000Z</time>
      </trkpt>
      <trkpt lat="46.95853" lon="6.45201">
        <ele>1063.5999755859</ele>
        <time>2023-05-15T08:28:55.000Z</time>
      </trkpt>
      <trkpt lat="46.95856" lon="6.45189">
        <ele>1064</ele>
        <time>2023-05-15T08:28:58.000Z</time>
      </trkpt>
      <trkpt lat="46.95862" lon="6.45171">
        <ele>1065</ele>
        <time>2023-05-15T08:29:02.000Z</time>
      </trkpt>
      <trkpt lat="46.95864" lon="6.45162">
        <ele>1065.4000244141</ele>
        <time>2023-05-15T08:29:04.000Z</time>
      </trkpt>
      <trkpt lat="46.95866" lon="6.45155">
        <ele>1066</ele>
        <time>2023-05-15T08:29:06.000Z</time>
      </trkpt>
      <trkpt lat="46.95877" lon="6.45102">
        <ele>1066</ele>
        <time>2023-05-15T08:29:16.000Z</time>
      </trkpt>
      <trkpt lat="46.95884" lon="6.45064">
        <ele>1065.1999511719</ele>
        <time>2023-05-15T08:29:21.000Z</time>
      </trkpt>
      <trkpt lat="46.95885" lon="6.45055">
        <ele>1065</ele>
        <time>2023-05-15T08:29:22.000Z</time>
      </trkpt>
      <trkpt lat="46.95885" lon="6.4505">
        <ele>1064.1999511719</ele>
        <time>2023-05-15T08:29:23.000Z</time>
      </trkpt>
      <trkpt lat="46.95883" lon="6.45043">
        <ele>1064</ele>
        <time>2023-05-15T08:29:24.000Z</time>
      </trkpt>
      <trkpt lat="46.95875" lon="6.45035">
        <ele>1063</ele>
        <time>2023-05-15T08:29:26.000Z</time>
      </trkpt>
      <trkpt lat="46.95869" lon="6.45034">
        <ele>1062.4000244141</ele>
        <time>2023-05-15T08:29:27.000Z</time>
      </trkpt>
      <trkpt lat="46.95862" lon="6.45035">
        <ele>1061.5999755859</ele>
        <time>2023-05-15T08:29:28.000Z</time>
      </trkpt>
      <trkpt lat="46.95853" lon="6.45034">
        <ele>1061.1999511719</ele>
        <time>2023-05-15T08:29:29.000Z</time>
      </trkpt>
      <trkpt lat="46.95845" lon="6.45031">
        <ele>1060.4000244141</ele>
        <time>2023-05-15T08:29:30.000Z</time>
      </trkpt>
      <trkpt lat="46.95839" lon="6.45029">
        <ele>1060</ele>
        <time>2023-05-15T08:29:31.000Z</time>
      </trkpt>
      <trkpt lat="46.95831" lon="6.45025">
        <ele>1059.4000244141</ele>
        <time>2023-05-15T08:29:32.000Z</time>
      </trkpt>
      <trkpt lat="46.95817" lon="6.45016">
        <ele>1058.4000244141</ele>
        <time>2023-05-15T08:29:34.000Z</time>
      </trkpt>
      <trkpt lat="46.95798" lon="6.45003">
        <ele>1057</ele>
        <time>2023-05-15T08:29:37.000Z</time>
      </trkpt>
      <trkpt lat="46.95777" lon="6.44987">
        <ele>1056.5999755859</ele>
        <time>2023-05-15T08:29:41.000Z</time>
      </trkpt>
      <trkpt lat="46.95768" lon="6.4498">
        <ele>1056.4000244141</ele>
        <time>2023-05-15T08:29:43.000Z</time>
      </trkpt>
      <trkpt lat="46.9575" lon="6.44964">
        <ele>1056.5999755859</ele>
        <time>2023-05-15T08:29:47.000Z</time>
      </trkpt>
      <trkpt lat="46.95737" lon="6.44951">
        <ele>1056.4000244141</ele>
        <time>2023-05-15T08:29:50.000Z</time>
      </trkpt>
      <trkpt lat="46.95728" lon="6.44943">
        <ele>1056.1999511719</ele>
        <time>2023-05-15T08:29:52.000Z</time>
      </trkpt>
      <trkpt lat="46.95706" lon="6.44924">
        <ele>1055.1999511719</ele>
        <time>2023-05-15T08:29:56.000Z</time>
      </trkpt>
      <trkpt lat="46.95696" lon="6.44917">
        <ele>1054.5999755859</ele>
        <time>2023-05-15T08:29:58.000Z</time>
      </trkpt>
      <trkpt lat="46.95682" lon="6.4491">
        <ele>1053.5999755859</ele>
        <time>2023-05-15T08:30:00.000Z</time>
      </trkpt>
      <trkpt lat="46.95651" lon="6.44897">
        <ele>1052.5999755859</ele>
        <time>2023-05-15T08:30:04.000Z</time>
      </trkpt>
      <trkpt lat="46.95618" lon="6.44883">
        <ele>1051.1999511719</ele>
        <time>2023-05-15T08:30:08.000Z</time>
      </trkpt>
      <trkpt lat="46.95601" lon="6.44878">
        <ele>1050</ele>
        <time>2023-05-15T08:30:10.000Z</time>
      </trkpt>
      <trkpt lat="46.95578" lon="6.44872">
        <ele>1048.5999755859</ele>
        <time>2023-05-15T08:30:13.000Z</time>
      </trkpt>
      <trkpt lat="46.95571" lon="6.44871">
        <ele>1048.4000244141</ele>
        <time>2023-05-15T08:30:14.000Z</time>
      </trkpt>
      <trkpt lat="46.95564" lon="6.44872">
        <ele>1048.1999511719</ele>
        <time>2023-05-15T08:30:15.000Z</time>
      </trkpt>
      <trkpt lat="46.95557" lon="6.44873">
        <ele>1048.1999511719</ele>
        <time>2023-05-15T08:30:16.000Z</time>
      </trkpt>
      <trkpt lat="46.95543" lon="6.4488">
        <ele>1048</ele>
        <time>2023-05-15T08:30:19.000Z</time>
      </trkpt>
      <trkpt lat="46.95534" lon="6.44888">
        <ele>1048</ele>
        <time>2023-05-15T08:30:21.000Z</time>
      </trkpt>
      <trkpt lat="46.9553" lon="6.44895">
        <ele>1047.8000488281</ele>
        <time>2023-05-15T08:30:23.000Z</time>
      </trkpt>
      <trkpt lat="46.95519" lon="6.4492">
        <ele>1048.5999755859</ele>
        <time>2023-05-15T08:30:30.000Z</time>
      </trkpt>
      <trkpt lat="46.95512" lon="6.44931">
        <ele>1049</ele>
        <time>2023-05-15T08:30:33.000Z</time>
      </trkpt>
      <trkpt lat="46.95499" lon="6.44946">
        <ele>1049.5999755859</ele>
        <time>2023-05-15T08:30:38.000Z</time>
      </trkpt>
      <trkpt lat="46.95493" lon="6.44949">
        <ele>1049.8000488281</ele>
        <time>2023-05-15T08:30:40.000Z</time>
      </trkpt>
      <trkpt lat="46.95479" lon="6.44957">
        <ele>1050.8000488281</ele>
        <time>2023-05-15T08:30:45.000Z</time>
      </trkpt>
      <trkpt lat="46.95476" lon="6.44957">
        <ele>1051</ele>
        <time>2023-05-15T08:30:46.000Z</time>
      </trkpt>
      <trkpt lat="46.95458" lon="6.44959">
        <ele>1051.8000488281</ele>
        <time>2023-05-15T08:30:52.000Z</time>
      </trkpt>
      <trkpt lat="46.95454" lon="6.44958">
        <ele>1052</ele>
        <time>2023-05-15T08:30:53.000Z</time>
      </trkpt>
      <trkpt lat="46.95451" lon="6.44957">
        <ele>1052</ele>
        <time>2023-05-15T08:30:54.000Z</time>
      </trkpt>
      <trkpt lat="46.95434" lon="6.44951">
        <ele>1053</ele>
        <time>2023-05-15T08:31:00.000Z</time>
      </trkpt>
      <trkpt lat="46.95423" lon="6.44947">
        <ele>1053.4000244141</ele>
        <time>2023-05-15T08:31:04.000Z</time>
      </trkpt>
      <trkpt lat="46.95417" lon="6.44945">
        <ele>1054</ele>
        <time>2023-05-15T08:31:06.000Z</time>
      </trkpt>
      <trkpt lat="46.95398" lon="6.44942">
        <ele>1054.8000488281</ele>
        <time>2023-05-15T08:31:13.000Z</time>
      </trkpt>
      <trkpt lat="46.95392" lon="6.44942">
        <ele>1055.1999511719</ele>
        <time>2023-05-15T08:31:15.000Z</time>
      </trkpt>
      <trkpt lat="46.9538" lon="6.44942">
        <ele>1056</ele>
        <time>2023-05-15T08:31:21.000Z</time>
      </trkpt>
      <trkpt lat="46.95376" lon="6.44942">
        <ele>1056.1999511719</ele>
        <time>2023-05-15T08:31:23.000Z</time>
      </trkpt>
      <trkpt lat="46.95358" lon="6.44945">
        <ele>1057.4000244141</ele>
        <time>2023-05-15T08:31:31.000Z</time>
      </trkpt>
      <trkpt lat="46.95347" lon="6.44946">
        <ele>1057.8000488281</ele>
        <time>2023-05-15T08:31:36.000Z</time>
      </trkpt>
      <trkpt lat="46.95337" lon="6.44947">
        <ele>1058.5999755859</ele>
        <time>2023-05-15T08:31:40.000Z</time>
      </trkpt>
      <trkpt lat="46.95324" lon="6.44948">
        <ele>1059.5999755859</ele>
        <time>2023-05-15T08:31:46.000Z</time>
      </trkpt>
      <trkpt lat="46.95319" lon="6.44949">
        <ele>1060</ele>
        <time>2023-05-15T08:31:48.000Z</time>
      </trkpt>
      <trkpt lat="46.9531" lon="6.4495">
        <ele>1060.5999755859</ele>
        <time>2023-05-15T08:31:52.000Z</time>
      </trkpt>
      <trkpt lat="46.95299" lon="6.44955">
        <ele>1061.4000244141</ele>
        <time>2023-05-15T08:31:57.000Z</time>
      </trkpt>
      <trkpt lat="46.95288" lon="6.4496">
        <ele>1061.8000488281</ele>
        <time>2023-05-15T08:32:02.000Z</time>
      </trkpt>
      <trkpt lat="46.9528" lon="6.44962">
        <ele>1062.1999511719</ele>
        <time>2023-05-15T08:32:06.000Z</time>
      </trkpt>
      <trkpt lat="46.95261" lon="6.44966">
        <ele>1062.4000244141</ele>
        <time>2023-05-15T08:32:15.000Z</time>
      </trkpt>
      <trkpt lat="46.95247" lon="6.44959">
        <ele>1062</ele>
        <time>2023-05-15T08:32:21.000Z</time>
      </trkpt>
      <trkpt lat="46.95241" lon="6.4495">
        <ele>1061.4000244141</ele>
        <time>2023-05-15T08:32:27.000Z</time>
      </trkpt>
      <trkpt lat="46.95241" lon="6.4495">
        <ele>1061</ele>
        <time>2023-05-15T08:32:29.000Z</time>
      </trkpt>
      <trkpt lat="46.95231" lon="6.44927">
        <ele>1059.4000244141</ele>
        <time>2023-05-15T08:33:52.000Z</time>
      </trkpt>
      <trkpt lat="46.95229" lon="6.44924">
        <ele>1059.1999511719</ele>
        <time>2023-05-15T08:33:53.000Z</time>
      </trkpt>
      <trkpt lat="46.95212" lon="6.44902">
        <ele>1058.8000488281</ele>
        <time>2023-05-15T08:33:59.000Z</time>
      </trkpt>
      <trkpt lat="46.95205" lon="6.44887">
        <ele>1058.1999511719</ele>
        <time>2023-05-15T08:34:03.000Z</time>
      </trkpt>
      <trkpt lat="46.95204" lon="6.44884">
        <ele>1058.1999511719</ele>
        <time>2023-05-15T08:34:04.000Z</time>
      </trkpt>
      <trkpt lat="46.952" lon="6.44873">
        <ele>1057.8000488281</ele>
        <time>2023-05-15T08:34:09.000Z</time>
      </trkpt>
      <trkpt lat="46.95191" lon="6.44853">
        <ele>1057.4000244141</ele>
        <time>2023-05-15T08:34:15.000Z</time>
      </trkpt>
      <trkpt lat="46.95189" lon="6.4485">
        <ele>1057.1999511719</ele>
        <time>2023-05-15T08:34:16.000Z</time>
      </trkpt>
      <trkpt lat="46.95175" lon="6.44832">
        <ele>1056.4000244141</ele>
        <time>2023-05-15T08:34:22.000Z</time>
      </trkpt>
      <trkpt lat="46.95171" lon="6.44826">
        <ele>1056.1999511719</ele>
        <time>2023-05-15T08:34:24.000Z</time>
      </trkpt>
      <trkpt lat="46.95158" lon="6.44801">
        <ele>1055.8000488281</ele>
        <time>2023-05-15T08:34:31.000Z</time>
      </trkpt>
      <trkpt lat="46.95143" lon="6.44773">
        <ele>1055.8000488281</ele>
        <time>2023-05-15T08:34:39.000Z</time>
      </trkpt>
      <trkpt lat="46.95133" lon="6.44751">
        <ele>1055.4000244141</ele>
        <time>2023-05-15T08:34:44.000Z</time>
      </trkpt>
      <trkpt lat="46.95123" lon="6.44727">
        <ele>1054.8000488281</ele>
        <time>2023-05-15T08:34:51.000Z</time>
      </trkpt>
      <trkpt lat="46.95122" lon="6.44721">
        <ele>1054.8000488281</ele>
        <time>2023-05-15T08:34:55.000Z</time>
      </trkpt>
      <trkpt lat="46.95121" lon="6.44721">
        <ele>1054.5999755859</ele>
        <time>2023-05-15T08:34:58.000Z</time>
      </trkpt>
      <trkpt lat="46.95119" lon="6.44716">
        <ele>1054.5999755859</ele>
        <time>2023-05-15T08:35:12.000Z</time>
      </trkpt>
      <trkpt lat="46.95117" lon="6.44713">
        <ele>1054.5999755859</ele>
        <time>2023-05-15T08:35:13.000Z</time>
      </trkpt>
      <trkpt lat="46.95108" lon="6.44694">
        <ele>1054.1999511719</ele>
        <time>2023-05-15T08:35:18.000Z</time>
      </trkpt>
      <trkpt lat="46.95097" lon="6.4466">
        <ele>1054.1999511719</ele>
        <time>2023-05-15T08:35:27.000Z</time>
      </trkpt>
      <trkpt lat="46.95095" lon="6.44658">
        <ele>1054.1999511719</ele>
        <time>2023-05-15T08:35:28.000Z</time>
      </trkpt>
      <trkpt lat="46.95095" lon="6.44656">
        <ele>1054.4000244141</ele>
        <time>2023-05-15T08:35:29.000Z</time>
      </trkpt>
      <trkpt lat="46.95094" lon="6.44652">
        <ele>1054.1999511719</ele>
        <time>2023-05-15T08:35:31.000Z</time>
      </trkpt>
      <trkpt lat="46.95092" lon="6.44651">
        <ele>1054.1999511719</ele>
        <time>2023-05-15T08:35:32.000Z</time>
      </trkpt>
      <trkpt lat="46.95089" lon="6.4465">
        <ele>1054.1999511719</ele>
        <time>2023-05-15T08:35:35.000Z</time>
      </trkpt>
      <trkpt lat="46.95088" lon="6.44648">
        <ele>1054.1999511719</ele>
        <time>2023-05-15T08:35:37.000Z</time>
      </trkpt>
      <trkpt lat="46.95088" lon="6.44648">
        <ele>1054</ele>
        <time>2023-05-15T08:35:39.000Z</time>
      </trkpt>
      <trkpt lat="46.95099" lon="6.44647">
        <ele>1054</ele>
        <time>2023-05-15T08:36:14.000Z</time>
      </trkpt>
      <trkpt lat="46.95101" lon="6.44645">
        <ele>1054</ele>
        <time>2023-05-15T08:36:15.000Z</time>
      </trkpt>
      <trkpt lat="46.95112" lon="6.44631">
        <ele>1054.1999511719</ele>
        <time>2023-05-15T08:36:21.000Z</time>
      </trkpt>
      <trkpt lat="46.95113" lon="6.44627">
        <ele>1054.1999511719</ele>
        <time>2023-05-15T08:36:22.000Z</time>
      </trkpt>
      <trkpt lat="46.95114" lon="6.44613">
        <ele>1054</ele>
        <time>2023-05-15T08:36:25.000Z</time>
      </trkpt>
      <trkpt lat="46.95109" lon="6.44588">
        <ele>1053.8000488281</ele>
        <time>2023-05-15T08:36:30.000Z</time>
      </trkpt>
      <trkpt lat="46.95097" lon="6.44565">
        <ele>1054</ele>
        <time>2023-05-15T08:36:36.000Z</time>
      </trkpt>
      <trkpt lat="46.95088" lon="6.44545">
        <ele>1055</ele>
        <time>2023-05-15T08:36:42.000Z</time>
      </trkpt>
      <trkpt lat="46.95084" lon="6.44535">
        <ele>1055.8000488281</ele>
        <time>2023-05-15T08:36:45.000Z</time>
      </trkpt>
      <trkpt lat="46.95082" lon="6.44531">
        <ele>1055.8000488281</ele>
        <time>2023-05-15T08:36:46.000Z</time>
      </trkpt>
      <trkpt lat="46.95068" lon="6.445">
        <ele>1056.4000244141</ele>
        <time>2023-05-15T08:36:53.000Z</time>
      </trkpt>
      <trkpt lat="46.95051" lon="6.44458">
        <ele>1054.8000488281</ele>
        <time>2023-05-15T08:37:00.000Z</time>
      </trkpt>
      <trkpt lat="46.95048" lon="6.44452">
        <ele>1054.5999755859</ele>
        <time>2023-05-15T08:37:01.000Z</time>
      </trkpt>
      <trkpt lat="46.95031" lon="6.44417">
        <ele>1053.8000488281</ele>
        <time>2023-05-15T08:37:06.000Z</time>
      </trkpt>
      <trkpt lat="46.95027" lon="6.4441">
        <ele>1053.4000244141</ele>
        <time>2023-05-15T08:37:07.000Z</time>
      </trkpt>
      <trkpt lat="46.95017" lon="6.44389">
        <ele>1052.4000244141</ele>
        <time>2023-05-15T08:37:10.000Z</time>
      </trkpt>
      <trkpt lat="46.95011" lon="6.4438">
        <ele>1051.5999755859</ele>
        <time>2023-05-15T08:37:12.000Z</time>
      </trkpt>
      <trkpt lat="46.95009" lon="6.44375">
        <ele>1051.4000244141</ele>
        <time>2023-05-15T08:37:13.000Z</time>
      </trkpt>
      <trkpt lat="46.95" lon="6.44354">
        <ele>1050.5999755859</ele>
        <time>2023-05-15T08:37:18.000Z</time>
      </trkpt>
      <trkpt lat="46.94995" lon="6.44343">
        <ele>1050.1999511719</ele>
        <time>2023-05-15T08:37:21.000Z</time>
      </trkpt>
      <trkpt lat="46.94992" lon="6.44325">
        <ele>1050.1999511719</ele>
        <time>2023-05-15T08:37:25.000Z</time>
      </trkpt>
      <trkpt lat="46.94998" lon="6.4431">
        <ele>1050.4000244141</ele>
        <time>2023-05-15T08:37:29.000Z</time>
      </trkpt>
      <trkpt lat="46.95005" lon="6.44289">
        <ele>1050.4000244141</ele>
        <time>2023-05-15T08:37:35.000Z</time>
      </trkpt>
      <trkpt lat="46.95011" lon="6.4427">
        <ele>1050.4000244141</ele>
        <time>2023-05-15T08:37:39.000Z</time>
      </trkpt>
      <trkpt lat="46.95033" lon="6.44227">
        <ele>1049.8000488281</ele>
        <time>2023-05-15T08:37:48.000Z</time>
      </trkpt>
      <trkpt lat="46.95039" lon="6.44214">
        <ele>1049.4000244141</ele>
        <time>2023-05-15T08:37:51.000Z</time>
      </trkpt>
      <trkpt lat="46.95053" lon="6.44186">
        <ele>1048.8000488281</ele>
        <time>2023-05-15T08:37:56.000Z</time>
      </trkpt>
      <trkpt lat="46.9506" lon="6.44178">
        <ele>1048.5999755859</ele>
        <time>2023-05-15T08:37:58.000Z</time>
      </trkpt>
      <trkpt lat="46.95067" lon="6.44174">
        <ele>1048.4000244141</ele>
        <time>2023-05-15T08:38:00.000Z</time>
      </trkpt>
      <trkpt lat="46.95071" lon="6.44172">
        <ele>1048.1999511719</ele>
        <time>2023-05-15T08:38:01.000Z</time>
      </trkpt>
      <trkpt lat="46.95089" lon="6.44163">
        <ele>1047.8000488281</ele>
        <time>2023-05-15T08:38:06.000Z</time>
      </trkpt>
      <trkpt lat="46.95099" lon="6.44149">
        <ele>1047.5999755859</ele>
        <time>2023-05-15T08:38:10.000Z</time>
      </trkpt>
      <trkpt lat="46.951" lon="6.44143">
        <ele>1047.1999511719</ele>
        <time>2023-05-15T08:38:11.000Z</time>
      </trkpt>
      <trkpt lat="46.951" lon="6.4413">
        <ele>1047</ele>
        <time>2023-05-15T08:38:13.000Z</time>
      </trkpt>
      <trkpt lat="46.95099" lon="6.44108">
        <ele>1046.5999755859</ele>
        <time>2023-05-15T08:38:16.000Z</time>
      </trkpt>
      <trkpt lat="46.95099" lon="6.44099">
        <ele>1046.5999755859</ele>
        <time>2023-05-15T08:38:17.000Z</time>
      </trkpt>
      <trkpt lat="46.951" lon="6.44091">
        <ele>1046.4000244141</ele>
        <time>2023-05-15T08:38:18.000Z</time>
      </trkpt>
      <trkpt lat="46.95103" lon="6.44083">
        <ele>1046.1999511719</ele>
        <time>2023-05-15T08:38:19.000Z</time>
      </trkpt>
      <trkpt lat="46.95109" lon="6.44062">
        <ele>1045.5999755859</ele>
        <time>2023-05-15T08:38:22.000Z</time>
      </trkpt>
      <trkpt lat="46.95114" lon="6.44045">
        <ele>1045</ele>
        <time>2023-05-15T08:38:25.000Z</time>
      </trkpt>
      <trkpt lat="46.9512" lon="6.44026">
        <ele>1044.4000244141</ele>
        <time>2023-05-15T08:38:28.000Z</time>
      </trkpt>
      <trkpt lat="46.95121" lon="6.44019">
        <ele>1044.4000244141</ele>
        <time>2023-05-15T08:38:29.000Z</time>
      </trkpt>
      <trkpt lat="46.95122" lon="6.44003">
        <ele>1044.4000244141</ele>
        <time>2023-05-15T08:38:32.000Z</time>
      </trkpt>
      <trkpt lat="46.95121" lon="6.43997">
        <ele>1044.5999755859</ele>
        <time>2023-05-15T08:38:33.000Z</time>
      </trkpt>
      <trkpt lat="46.95116" lon="6.4398">
        <ele>1045</ele>
        <time>2023-05-15T08:38:36.000Z</time>
      </trkpt>
      <trkpt lat="46.95108" lon="6.43954">
        <ele>1046.1999511719</ele>
        <time>2023-05-15T08:38:41.000Z</time>
      </trkpt>
      <trkpt lat="46.951" lon="6.4393">
        <ele>1046.8000488281</ele>
        <time>2023-05-15T08:38:46.000Z</time>
      </trkpt>
      <trkpt lat="46.95093" lon="6.43911">
        <ele>1046.1999511719</ele>
        <time>2023-05-15T08:38:51.000Z</time>
      </trkpt>
      <trkpt lat="46.95093" lon="6.43911">
        <ele>1046</ele>
        <time>2023-05-15T08:38:54.000Z</time>
      </trkpt>
      <trkpt lat="46.95086" lon="6.43888">
        <ele>1044.5999755859</ele>
        <time>2023-05-15T08:39:30.000Z</time>
      </trkpt>
      <trkpt lat="46.95084" lon="6.43879">
        <ele>1044.4000244141</ele>
        <time>2023-05-15T08:39:32.000Z</time>
      </trkpt>
      <trkpt lat="46.95075" lon="6.43842">
        <ele>1044.5999755859</ele>
        <time>2023-05-15T08:39:39.000Z</time>
      </trkpt>
      <trkpt lat="46.95065" lon="6.43802">
        <ele>1044</ele>
        <time>2023-05-15T08:39:47.000Z</time>
      </trkpt>
      <trkpt lat="46.95064" lon="6.43762">
        <ele>1043.8000488281</ele>
        <time>2023-05-15T08:39:55.000Z</time>
      </trkpt>
      <trkpt lat="46.95062" lon="6.43743">
        <ele>1044</ele>
        <time>2023-05-15T08:40:00.000Z</time>
      </trkpt>
      <trkpt lat="46.95062" lon="6.43742">
        <ele>1044</ele>
        <time>2023-05-15T08:40:01.000Z</time>
      </trkpt>
      <trkpt lat="46.95063" lon="6.43741">
        <ele>1044.4000244141</ele>
        <time>2023-05-15T08:40:03.000Z</time>
      </trkpt>
      <trkpt lat="46.95062" lon="6.43738">
        <ele>1045</ele>
        <time>2023-05-15T08:40:09.000Z</time>
      </trkpt>
      <trkpt lat="46.9506" lon="6.43707">
        <ele>1046.8000488281</ele>
        <time>2023-05-15T08:41:03.000Z</time>
      </trkpt>
      <trkpt lat="46.9506" lon="6.43704">
        <ele>1046.8000488281</ele>
        <time>2023-05-15T08:41:04.000Z</time>
      </trkpt>
      <trkpt lat="46.95064" lon="6.43684">
        <ele>1048</ele>
        <time>2023-05-15T08:41:09.000Z</time>
      </trkpt>
      <trkpt lat="46.95064" lon="6.4368">
        <ele>1048.4000244141</ele>
        <time>2023-05-15T08:41:10.000Z</time>
      </trkpt>
      <trkpt lat="46.95066" lon="6.43665">
        <ele>1049.1999511719</ele>
        <time>2023-05-15T08:41:14.000Z</time>
      </trkpt>
      <trkpt lat="46.95067" lon="6.43655">
        <ele>1050.5999755859</ele>
        <time>2023-05-15T08:41:17.000Z</time>
      </trkpt>
      <trkpt lat="46.95068" lon="6.43652">
        <ele>1050.5999755859</ele>
        <time>2023-05-15T08:41:18.000Z</time>
      </trkpt>
      <trkpt lat="46.9507" lon="6.43633">
        <ele>1051.5999755859</ele>
        <time>2023-05-15T08:41:24.000Z</time>
      </trkpt>
      <trkpt lat="46.95071" lon="6.4363">
        <ele>1051.8000488281</ele>
        <time>2023-05-15T08:41:25.000Z</time>
      </trkpt>
      <trkpt lat="46.95072" lon="6.43619">
        <ele>1052.8000488281</ele>
        <time>2023-05-15T08:41:29.000Z</time>
      </trkpt>
      <trkpt lat="46.95074" lon="6.43602">
        <ele>1054.1999511719</ele>
        <time>2023-05-15T08:41:35.000Z</time>
      </trkpt>
      <trkpt lat="46.95075" lon="6.43586">
        <ele>1055.4000244141</ele>
        <time>2023-05-15T08:41:41.000Z</time>
      </trkpt>
      <trkpt lat="46.95075" lon="6.43583">
        <ele>1055.5999755859</ele>
        <time>2023-05-15T08:41:42.000Z</time>
      </trkpt>
      <trkpt lat="46.95076" lon="6.43573">
        <ele>1056.5999755859</ele>
        <time>2023-05-15T08:41:46.000Z</time>
      </trkpt>
      <trkpt lat="46.95076" lon="6.43571">
        <ele>1056.5999755859</ele>
        <time>2023-05-15T08:41:47.000Z</time>
      </trkpt>
      <trkpt lat="46.95076" lon="6.43559">
        <ele>1057.4000244141</ele>
        <time>2023-05-15T08:41:51.000Z</time>
      </trkpt>
      <trkpt lat="46.95077" lon="6.43551">
        <ele>1057.5999755859</ele>
        <time>2023-05-15T08:41:54.000Z</time>
      </trkpt>
      <trkpt lat="46.95079" lon="6.43532">
        <ele>1058.1999511719</ele>
        <time>2023-05-15T08:42:00.000Z</time>
      </trkpt>
      <trkpt lat="46.9508" lon="6.43516">
        <ele>1058.5999755859</ele>
        <time>2023-05-15T08:42:05.000Z</time>
      </trkpt>
      <trkpt lat="46.9508" lon="6.43513">
        <ele>1058.8000488281</ele>
        <time>2023-05-15T08:42:08.000Z</time>
      </trkpt>
      <trkpt lat="46.9508" lon="6.43513">
        <ele>1058.8000488281</ele>
        <time>2023-05-15T08:42:09.000Z</time>
      </trkpt>
      <trkpt lat="46.95083" lon="6.43489">
        <ele>1060.1999511719</ele>
        <time>2023-05-15T08:42:36.000Z</time>
      </trkpt>
      <trkpt lat="46.95083" lon="6.43483">
        <ele>1060.4000244141</ele>
        <time>2023-05-15T08:42:38.000Z</time>
      </trkpt>
      <trkpt lat="46.95082" lon="6.4346">
        <ele>1061.4000244141</ele>
        <time>2023-05-15T08:42:45.000Z</time>
      </trkpt>
      <trkpt lat="46.95082" lon="6.43456">
        <ele>1061.8000488281</ele>
        <time>2023-05-15T08:42:46.000Z</time>
      </trkpt>
      <trkpt lat="46.95081" lon="6.43447">
        <ele>1062.4000244141</ele>
        <time>2023-05-15T08:42:49.000Z</time>
      </trkpt>
      <trkpt lat="46.9508" lon="6.43432">
        <ele>1063.5999755859</ele>
        <time>2023-05-15T08:42:53.000Z</time>
      </trkpt>
      <trkpt lat="46.9508" lon="6.43419">
        <ele>1064.1999511719</ele>
        <time>2023-05-15T08:42:56.000Z</time>
      </trkpt>
      <trkpt lat="46.95085" lon="6.43395">
        <ele>1064.1999511719</ele>
        <time>2023-05-15T08:43:03.000Z</time>
      </trkpt>
      <trkpt lat="46.95085" lon="6.43375">
        <ele>1064.1999511719</ele>
        <time>2023-05-15T08:43:09.000Z</time>
      </trkpt>
      <trkpt lat="46.95074" lon="6.43359">
        <ele>1064.1999511719</ele>
        <time>2023-05-15T08:43:15.000Z</time>
      </trkpt>
      <trkpt lat="46.95069" lon="6.43341">
        <ele>1064.5999755859</ele>
        <time>2023-05-15T08:43:20.000Z</time>
      </trkpt>
      <trkpt lat="46.95066" lon="6.43332">
        <ele>1064.8000488281</ele>
        <time>2023-05-15T08:43:23.000Z</time>
      </trkpt>
      <trkpt lat="46.9506" lon="6.43321">
        <ele>1065.8000488281</ele>
        <time>2023-05-15T08:43:27.000Z</time>
      </trkpt>
      <trkpt lat="46.95054" lon="6.4331">
        <ele>1066.8000488281</ele>
        <time>2023-05-15T08:43:31.000Z</time>
      </trkpt>
      <trkpt lat="46.95053" lon="6.43307">
        <ele>1067</ele>
        <time>2023-05-15T08:43:32.000Z</time>
      </trkpt>
      <trkpt lat="46.95049" lon="6.433">
        <ele>1067.8000488281</ele>
        <time>2023-05-15T08:43:35.000Z</time>
      </trkpt>
      <trkpt lat="46.9504" lon="6.43285">
        <ele>1068.5999755859</ele>
        <time>2023-05-15T08:43:41.000Z</time>
      </trkpt>
      <trkpt lat="46.95037" lon="6.43281">
        <ele>1069</ele>
        <time>2023-05-15T08:43:43.000Z</time>
      </trkpt>
      <trkpt lat="46.95025" lon="6.43261">
        <ele>1069.5999755859</ele>
        <time>2023-05-15T08:43:51.000Z</time>
      </trkpt>
      <trkpt lat="46.95019" lon="6.43251">
        <ele>1070</ele>
        <time>2023-05-15T08:43:55.000Z</time>
      </trkpt>
      <trkpt lat="46.95006" lon="6.43231">
        <ele>1071.4000244141</ele>
        <time>2023-05-15T08:44:03.000Z</time>
      </trkpt>
      <trkpt lat="46.95004" lon="6.43228">
        <ele>1071.8000488281</ele>
        <time>2023-05-15T08:44:04.000Z</time>
      </trkpt>
      <trkpt lat="46.95002" lon="6.43216">
        <ele>1072.5999755859</ele>
        <time>2023-05-15T08:44:08.000Z</time>
      </trkpt>
      <trkpt lat="46.95001" lon="6.4321">
        <ele>1073.1999511719</ele>
        <time>2023-05-15T08:44:10.000Z</time>
      </trkpt>
      <trkpt lat="46.95001" lon="6.43202">
        <ele>1073.8000488281</ele>
        <time>2023-05-15T08:44:13.000Z</time>
      </trkpt>
      <trkpt lat="46.95004" lon="6.4318">
        <ele>1075</ele>
        <time>2023-05-15T08:44:21.000Z</time>
      </trkpt>
      <trkpt lat="46.95006" lon="6.43169">
        <ele>1076</ele>
        <time>2023-05-15T08:44:25.000Z</time>
      </trkpt>
      <trkpt lat="46.95007" lon="6.43156">
        <ele>1077.1999511719</ele>
        <time>2023-05-15T08:44:30.000Z</time>
      </trkpt>
      <trkpt lat="46.95007" lon="6.43136">
        <ele>1078.8000488281</ele>
        <time>2023-05-15T08:44:37.000Z</time>
      </trkpt>
      <trkpt lat="46.95008" lon="6.43131">
        <ele>1079.1999511719</ele>
        <time>2023-05-15T08:44:39.000Z</time>
      </trkpt>
      <trkpt lat="46.95008" lon="6.43117">
        <ele>1080</ele>
        <time>2023-05-15T08:44:44.000Z</time>
      </trkpt>
      <trkpt lat="46.95009" lon="6.43101">
        <ele>1080.8000488281</ele>
        <time>2023-05-15T08:44:50.000Z</time>
      </trkpt>
      <trkpt lat="46.95008" lon="6.43098">
        <ele>1081</ele>
        <time>2023-05-15T08:44:51.000Z</time>
      </trkpt>
      <trkpt lat="46.95009" lon="6.43086">
        <ele>1082</ele>
        <time>2023-05-15T08:44:56.000Z</time>
      </trkpt>
      <trkpt lat="46.95009" lon="6.43071">
        <ele>1082.5999755859</ele>
        <time>2023-05-15T08:45:01.000Z</time>
      </trkpt>
      <trkpt lat="46.9501" lon="6.43052">
        <ele>1083</ele>
        <time>2023-05-15T08:45:07.000Z</time>
      </trkpt>
      <trkpt lat="46.95009" lon="6.43047">
        <ele>1083.1999511719</ele>
        <time>2023-05-15T08:45:09.000Z</time>
      </trkpt>
      <trkpt lat="46.9501" lon="6.43026">
        <ele>1083.5999755859</ele>
        <time>2023-05-15T08:45:16.000Z</time>
      </trkpt>
      <trkpt lat="46.9501" lon="6.42999">
        <ele>1083.8000488281</ele>
        <time>2023-05-15T08:45:25.000Z</time>
      </trkpt>
      <trkpt lat="46.9501" lon="6.42982">
        <ele>1084.4000244141</ele>
        <time>2023-05-15T08:45:30.000Z</time>
      </trkpt>
      <trkpt lat="46.95011" lon="6.42969">
        <ele>1084.8000488281</ele>
        <time>2023-05-15T08:45:34.000Z</time>
      </trkpt>
      <trkpt lat="46.95013" lon="6.42954">
        <ele>1085.4000244141</ele>
        <time>2023-05-15T08:45:39.000Z</time>
      </trkpt>
      <trkpt lat="46.95015" lon="6.42939">
        <ele>1086.1999511719</ele>
        <time>2023-05-15T08:45:43.000Z</time>
      </trkpt>
      <trkpt lat="46.95016" lon="6.42933">
        <ele>1086.4000244141</ele>
        <time>2023-05-15T08:45:45.000Z</time>
      </trkpt>
      <trkpt lat="46.95017" lon="6.42921">
        <ele>1087.5999755859</ele>
        <time>2023-05-15T08:45:49.000Z</time>
      </trkpt>
      <trkpt lat="46.95017" lon="6.42919">
        <ele>1087.5999755859</ele>
        <time>2023-05-15T08:45:50.000Z</time>
      </trkpt>
      <trkpt lat="46.95015" lon="6.42909">
        <ele>1088.1999511719</ele>
        <time>2023-05-15T08:45:55.000Z</time>
      </trkpt>
      <trkpt lat="46.95002" lon="6.42893">
        <ele>1088.5999755859</ele>
        <time>2023-05-15T08:46:02.000Z</time>
      </trkpt>
      <trkpt lat="46.94991" lon="6.42879">
        <ele>1089</ele>
        <time>2023-05-15T08:46:08.000Z</time>
      </trkpt>
      <trkpt lat="46.94983" lon="6.42871">
        <ele>1089</ele>
        <time>2023-05-15T08:46:13.000Z</time>
      </trkpt>
      <trkpt lat="46.94966" lon="6.42862">
        <ele>1089</ele>
        <time>2023-05-15T08:46:21.000Z</time>
      </trkpt>
      <trkpt lat="46.9495" lon="6.42857">
        <ele>1089</ele>
        <time>2023-05-15T08:46:26.000Z</time>
      </trkpt>
      <trkpt lat="46.94946" lon="6.42855">
        <ele>1088.8000488281</ele>
        <time>2023-05-15T08:46:27.000Z</time>
      </trkpt>
      <trkpt lat="46.94933" lon="6.42844">
        <ele>1088.1999511719</ele>
        <time>2023-05-15T08:46:30.000Z</time>
      </trkpt>
      <trkpt lat="46.94929" lon="6.42839">
        <ele>1088</ele>
        <time>2023-05-15T08:46:31.000Z</time>
      </trkpt>
      <trkpt lat="46.9492" lon="6.42824">
        <ele>1087.5999755859</ele>
        <time>2023-05-15T08:46:34.000Z</time>
      </trkpt>
      <trkpt lat="46.94913" lon="6.4281">
        <ele>1087.4000244141</ele>
        <time>2023-05-15T08:46:37.000Z</time>
      </trkpt>
      <trkpt lat="46.94899" lon="6.42783">
        <ele>1087</ele>
        <time>2023-05-15T08:46:43.000Z</time>
      </trkpt>
      <trkpt lat="46.9489" lon="6.42767">
        <ele>1086.8000488281</ele>
        <time>2023-05-15T08:46:46.000Z</time>
      </trkpt>
      <trkpt lat="46.94876" lon="6.42748">
        <ele>1086.5999755859</ele>
        <time>2023-05-15T08:46:50.000Z</time>
      </trkpt>
      <trkpt lat="46.94869" lon="6.42739">
        <ele>1086.5999755859</ele>
        <time>2023-05-15T08:46:52.000Z</time>
      </trkpt>
      <trkpt lat="46.94866" lon="6.42735">
        <ele>1086.5999755859</ele>
        <time>2023-05-15T08:46:53.000Z</time>
      </trkpt>
      <trkpt lat="46.9484" lon="6.42709">
        <ele>1085.5999755859</ele>
        <time>2023-05-15T08:46:59.000Z</time>
      </trkpt>
      <trkpt lat="46.94824" lon="6.42694">
        <ele>1084.5999755859</ele>
        <time>2023-05-15T08:47:02.000Z</time>
      </trkpt>
      <trkpt lat="46.94817" lon="6.42689">
        <ele>1084.4000244141</ele>
        <time>2023-05-15T08:47:03.000Z</time>
      </trkpt>
      <trkpt lat="46.94786" lon="6.42666">
        <ele>1083.8000488281</ele>
        <time>2023-05-15T08:47:07.000Z</time>
      </trkpt>
      <trkpt lat="46.94778" lon="6.42662">
        <ele>1083.4000244141</ele>
        <time>2023-05-15T08:47:08.000Z</time>
      </trkpt>
      <trkpt lat="46.94761" lon="6.42653">
        <ele>1081.8000488281</ele>
        <time>2023-05-15T08:47:10.000Z</time>
      </trkpt>
      <trkpt lat="46.94753" lon="6.42647">
        <ele>1080.5999755859</ele>
        <time>2023-05-15T08:47:11.000Z</time>
      </trkpt>
      <trkpt lat="46.94745" lon="6.4264">
        <ele>1080.1999511719</ele>
        <time>2023-05-15T08:47:12.000Z</time>
      </trkpt>
      <trkpt lat="46.94737" lon="6.42632">
        <ele>1078.8000488281</ele>
        <time>2023-05-15T08:47:13.000Z</time>
      </trkpt>
      <trkpt lat="46.94724" lon="6.42612">
        <ele>1077</ele>
        <time>2023-05-15T08:47:15.000Z</time>
      </trkpt>
      <trkpt lat="46.94717" lon="6.42599">
        <ele>1076</ele>
        <time>2023-05-15T08:47:16.000Z</time>
      </trkpt>
      <trkpt lat="46.94706" lon="6.42571">
        <ele>1073.8000488281</ele>
        <time>2023-05-15T08:47:18.000Z</time>
      </trkpt>
      <trkpt lat="46.947" lon="6.42556">
        <ele>1072.5999755859</ele>
        <time>2023-05-15T08:47:19.000Z</time>
      </trkpt>
      <trkpt lat="46.94694" lon="6.42541">
        <ele>1071</ele>
        <time>2023-05-15T08:47:20.000Z</time>
      </trkpt>
      <trkpt lat="46.94679" lon="6.42513">
        <ele>1068.5999755859</ele>
        <time>2023-05-15T08:47:22.000Z</time>
      </trkpt>
      <trkpt lat="46.94671" lon="6.425">
        <ele>1067.5999755859</ele>
        <time>2023-05-15T08:47:23.000Z</time>
      </trkpt>
      <trkpt lat="46.94663" lon="6.42486">
        <ele>1065.8000488281</ele>
        <time>2023-05-15T08:47:24.000Z</time>
      </trkpt>
      <trkpt lat="46.94654" lon="6.42473">
        <ele>1064.1999511719</ele>
        <time>2023-05-15T08:47:25.000Z</time>
      </trkpt>
      <trkpt lat="46.94638" lon="6.42446">
        <ele>1061.8000488281</ele>
        <time>2023-05-15T08:47:27.000Z</time>
      </trkpt>
      <trkpt lat="46.94621" lon="6.42416">
        <ele>1060.1999511719</ele>
        <time>2023-05-15T08:47:29.000Z</time>
      </trkpt>
      <trkpt lat="46.94615" lon="6.42404">
        <ele>1059.8000488281</ele>
        <time>2023-05-15T08:47:30.000Z</time>
      </trkpt>
      <trkpt lat="46.94608" lon="6.4239">
        <ele>1058.8000488281</ele>
        <time>2023-05-15T08:47:31.000Z</time>
      </trkpt>
      <trkpt lat="46.94595" lon="6.42364">
        <ele>1057.4000244141</ele>
        <time>2023-05-15T08:47:33.000Z</time>
      </trkpt>
      <trkpt lat="46.94582" lon="6.4234">
        <ele>1056.5999755859</ele>
        <time>2023-05-15T08:47:35.000Z</time>
      </trkpt>
      <trkpt lat="46.94576" lon="6.42329">
        <ele>1055.8000488281</ele>
        <time>2023-05-15T08:47:36.000Z</time>
      </trkpt>
      <trkpt lat="46.94557" lon="6.42303">
        <ele>1054.5999755859</ele>
        <time>2023-05-15T08:47:39.000Z</time>
      </trkpt>
      <trkpt lat="46.94535" lon="6.42273">
        <ele>1053.8000488281</ele>
        <time>2023-05-15T08:47:43.000Z</time>
      </trkpt>
      <trkpt lat="46.94524" lon="6.42258">
        <ele>1053.5999755859</ele>
        <time>2023-05-15T08:47:45.000Z</time>
      </trkpt>
      <trkpt lat="46.94519" lon="6.42251">
        <ele>1053.5999755859</ele>
        <time>2023-05-15T08:47:46.000Z</time>
      </trkpt>
      <trkpt lat="46.94486" lon="6.42209">
        <ele>1052.8000488281</ele>
        <time>2023-05-15T08:47:52.000Z</time>
      </trkpt>
      <trkpt lat="46.94472" lon="6.42202">
        <ele>1052.1999511719</ele>
        <time>2023-05-15T08:47:54.000Z</time>
      </trkpt>
      <trkpt lat="46.94465" lon="6.42201">
        <ele>1052</ele>
        <time>2023-05-15T08:47:55.000Z</time>
      </trkpt>
      <trkpt lat="46.94458" lon="6.42201">
        <ele>1051.4000244141</ele>
        <time>2023-05-15T08:47:56.000Z</time>
      </trkpt>
      <trkpt lat="46.94452" lon="6.42202">
        <ele>1051</ele>
        <time>2023-05-15T08:47:57.000Z</time>
      </trkpt>
      <trkpt lat="46.9444" lon="6.42206">
        <ele>1050.5999755859</ele>
        <time>2023-05-15T08:47:59.000Z</time>
      </trkpt>
      <trkpt lat="46.94417" lon="6.42215">
        <ele>1050.4000244141</ele>
        <time>2023-05-15T08:48:04.000Z</time>
      </trkpt>
      <trkpt lat="46.94402" lon="6.42222">
        <ele>1050.4000244141</ele>
        <time>2023-05-15T08:48:09.000Z</time>
      </trkpt>
      <trkpt lat="46.94388" lon="6.42231">
        <ele>1050.4000244141</ele>
        <time>2023-05-15T08:48:16.000Z</time>
      </trkpt>
      <trkpt lat="46.94371" lon="6.42242">
        <ele>1050.1999511719</ele>
        <time>2023-05-15T08:48:21.000Z</time>
      </trkpt>
      <trkpt lat="46.94366" lon="6.42244">
        <ele>1050</ele>
        <time>2023-05-15T08:48:22.000Z</time>
      </trkpt>
      <trkpt lat="46.94339" lon="6.4226">
        <ele>1049.1999511719</ele>
        <time>2023-05-15T08:48:27.000Z</time>
      </trkpt>
      <trkpt lat="46.94332" lon="6.42263">
        <ele>1049</ele>
        <time>2023-05-15T08:48:28.000Z</time>
      </trkpt>
      <trkpt lat="46.94311" lon="6.42277">
        <ele>1047.8000488281</ele>
        <time>2023-05-15T08:48:31.000Z</time>
      </trkpt>
      <trkpt lat="46.94304" lon="6.42281">
        <ele>1047.8000488281</ele>
        <time>2023-05-15T08:48:32.000Z</time>
      </trkpt>
      <trkpt lat="46.94278" lon="6.42291">
        <ele>1046.5999755859</ele>
        <time>2023-05-15T08:48:35.000Z</time>
      </trkpt>
      <trkpt lat="46.94259" lon="6.42295">
        <ele>1045.5999755859</ele>
        <time>2023-05-15T08:48:37.000Z</time>
      </trkpt>
      <trkpt lat="46.94249" lon="6.42298">
        <ele>1044.8000488281</ele>
        <time>2023-05-15T08:48:38.000Z</time>
      </trkpt>
      <trkpt lat="46.94228" lon="6.42302">
        <ele>1043.8000488281</ele>
        <time>2023-05-15T08:48:40.000Z</time>
      </trkpt>
      <trkpt lat="46.94206" lon="6.42307">
        <ele>1042.1999511719</ele>
        <time>2023-05-15T08:48:42.000Z</time>
      </trkpt>
      <trkpt lat="46.94195" lon="6.42309">
        <ele>1041.5999755859</ele>
        <time>2023-05-15T08:48:43.000Z</time>
      </trkpt>
      <trkpt lat="46.94184" lon="6.42312">
        <ele>1040.4000244141</ele>
        <time>2023-05-15T08:48:44.000Z</time>
      </trkpt>
      <trkpt lat="46.94161" lon="6.42316">
        <ele>1039</ele>
        <time>2023-05-15T08:48:46.000Z</time>
      </trkpt>
      <trkpt lat="46.94139" lon="6.42322">
        <ele>1037.8000488281</ele>
        <time>2023-05-15T08:48:48.000Z</time>
      </trkpt>
      <trkpt lat="46.94117" lon="6.42326">
        <ele>1036.8000488281</ele>
        <time>2023-05-15T08:48:50.000Z</time>
      </trkpt>
      <trkpt lat="46.94095" lon="6.42329">
        <ele>1035.4000244141</ele>
        <time>2023-05-15T08:48:52.000Z</time>
      </trkpt>
      <trkpt lat="46.94084" lon="6.42329">
        <ele>1034.8000488281</ele>
        <time>2023-05-15T08:48:53.000Z</time>
      </trkpt>
      <trkpt lat="46.94074" lon="6.42329">
        <ele>1034.1999511719</ele>
        <time>2023-05-15T08:48:54.000Z</time>
      </trkpt>
      <trkpt lat="46.94054" lon="6.42324">
        <ele>1033.5999755859</ele>
        <time>2023-05-15T08:48:56.000Z</time>
      </trkpt>
      <trkpt lat="46.94036" lon="6.42316">
        <ele>1033</ele>
        <time>2023-05-15T08:48:58.000Z</time>
      </trkpt>
      <trkpt lat="46.94001" lon="6.42295">
        <ele>1032</ele>
        <time>2023-05-15T08:49:02.000Z</time>
      </trkpt>
      <trkpt lat="46.93983" lon="6.42284">
        <ele>1031.4000244141</ele>
        <time>2023-05-15T08:49:04.000Z</time>
      </trkpt>
      <trkpt lat="46.93975" lon="6.42275">
        <ele>1031.1999511719</ele>
        <time>2023-05-15T08:49:05.000Z</time>
      </trkpt>
      <trkpt lat="46.93968" lon="6.42264">
        <ele>1030.8000488281</ele>
        <time>2023-05-15T08:49:06.000Z</time>
      </trkpt>
      <trkpt lat="46.9395" lon="6.42229">
        <ele>1029.4000244141</ele>
        <time>2023-05-15T08:49:09.000Z</time>
      </trkpt>
      <trkpt lat="46.93931" lon="6.42195">
        <ele>1027.8000488281</ele>
        <time>2023-05-15T08:49:12.000Z</time>
      </trkpt>
      <trkpt lat="46.93919" lon="6.42174">
        <ele>1026.8000488281</ele>
        <time>2023-05-15T08:49:14.000Z</time>
      </trkpt>
      <trkpt lat="46.93904" lon="6.42146">
        <ele>1025</ele>
        <time>2023-05-15T08:49:17.000Z</time>
      </trkpt>
      <trkpt lat="46.93894" lon="6.42131">
        <ele>1023.799987793</ele>
        <time>2023-05-15T08:49:19.000Z</time>
      </trkpt>
      <trkpt lat="46.93889" lon="6.42124">
        <ele>1023.200012207</ele>
        <time>2023-05-15T08:49:20.000Z</time>
      </trkpt>
      <trkpt lat="46.93883" lon="6.42118">
        <ele>1022.5999755859</ele>
        <time>2023-05-15T08:49:21.000Z</time>
      </trkpt>
      <trkpt lat="46.93877" lon="6.42114">
        <ele>1022.200012207</ele>
        <time>2023-05-15T08:49:22.000Z</time>
      </trkpt>
      <trkpt lat="46.93871" lon="6.42111">
        <ele>1021.200012207</ele>
        <time>2023-05-15T08:49:23.000Z</time>
      </trkpt>
      <trkpt lat="46.93865" lon="6.42109">
        <ele>1020.799987793</ele>
        <time>2023-05-15T08:49:24.000Z</time>
      </trkpt>
      <trkpt lat="46.93859" lon="6.42108">
        <ele>1020.200012207</ele>
        <time>2023-05-15T08:49:25.000Z</time>
      </trkpt>
      <trkpt lat="46.93852" lon="6.42109">
        <ele>1019.5999755859</ele>
        <time>2023-05-15T08:49:26.000Z</time>
      </trkpt>
      <trkpt lat="46.93839" lon="6.42115">
        <ele>1019.200012207</ele>
        <time>2023-05-15T08:49:28.000Z</time>
      </trkpt>
      <trkpt lat="46.93833" lon="6.4212">
        <ele>1019</ele>
        <time>2023-05-15T08:49:29.000Z</time>
      </trkpt>
      <trkpt lat="46.93814" lon="6.42135">
        <ele>1017.799987793</ele>
        <time>2023-05-15T08:49:32.000Z</time>
      </trkpt>
      <trkpt lat="46.938" lon="6.42144">
        <ele>1017.4000244141</ele>
        <time>2023-05-15T08:49:34.000Z</time>
      </trkpt>
      <trkpt lat="46.93792" lon="6.42149">
        <ele>1016.5999755859</ele>
        <time>2023-05-15T08:49:35.000Z</time>
      </trkpt>
      <trkpt lat="46.93778" lon="6.4216">
        <ele>1015.5999755859</ele>
        <time>2023-05-15T08:49:37.000Z</time>
      </trkpt>
      <trkpt lat="46.93765" lon="6.42173">
        <ele>1014</ele>
        <time>2023-05-15T08:49:39.000Z</time>
      </trkpt>
      <trkpt lat="46.93758" lon="6.42181">
        <ele>1013.5999755859</ele>
        <time>2023-05-15T08:49:40.000Z</time>
      </trkpt>
      <trkpt lat="46.93752" lon="6.4219">
        <ele>1012.5999755859</ele>
        <time>2023-05-15T08:49:41.000Z</time>
      </trkpt>
      <trkpt lat="46.93746" lon="6.42198">
        <ele>1011.200012207</ele>
        <time>2023-05-15T08:49:42.000Z</time>
      </trkpt>
      <trkpt lat="46.93735" lon="6.42215">
        <ele>1009.4000244141</ele>
        <time>2023-05-15T08:49:44.000Z</time>
      </trkpt>
      <trkpt lat="46.9373" lon="6.42223">
        <ele>1008.799987793</ele>
        <time>2023-05-15T08:49:45.000Z</time>
      </trkpt>
      <trkpt lat="46.93725" lon="6.42231">
        <ele>1007.4000244141</ele>
        <time>2023-05-15T08:49:46.000Z</time>
      </trkpt>
      <trkpt lat="46.93714" lon="6.42245">
        <ele>1005.4000244141</ele>
        <time>2023-05-15T08:49:48.000Z</time>
      </trkpt>
      <trkpt lat="46.9371" lon="6.42251">
        <ele>1003.5999755859</ele>
        <time>2023-05-15T08:49:49.000Z</time>
      </trkpt>
      <trkpt lat="46.93703" lon="6.42262">
        <ele>1001.5999755859</ele>
        <time>2023-05-15T08:49:51.000Z</time>
      </trkpt>
      <trkpt lat="46.93697" lon="6.42269">
        <ele>999.59997558594</ele>
        <time>2023-05-15T08:49:53.000Z</time>
      </trkpt>
      <trkpt lat="46.93692" lon="6.42273">
        <ele>998</ele>
        <time>2023-05-15T08:49:55.000Z</time>
      </trkpt>
      <trkpt lat="46.93689" lon="6.42273">
        <ele>997.40002441406</ele>
        <time>2023-05-15T08:49:56.000Z</time>
      </trkpt>
      <trkpt lat="46.93686" lon="6.42271">
        <ele>996.40002441406</ele>
        <time>2023-05-15T08:49:57.000Z</time>
      </trkpt>
      <trkpt lat="46.93679" lon="6.42264">
        <ele>995.20001220703</ele>
        <time>2023-05-15T08:50:00.000Z</time>
      </trkpt>
      <trkpt lat="46.93677" lon="6.42261">
        <ele>995</ele>
        <time>2023-05-15T08:50:01.000Z</time>
      </trkpt>
      <trkpt lat="46.93664" lon="6.42244">
        <ele>994.20001220703</ele>
        <time>2023-05-15T08:50:08.000Z</time>
      </trkpt>
      <trkpt lat="46.93661" lon="6.42241">
        <ele>994.20001220703</ele>
        <time>2023-05-15T08:50:09.000Z</time>
      </trkpt>
      <trkpt lat="46.93642" lon="6.42222">
        <ele>994</ele>
        <time>2023-05-15T08:50:15.000Z</time>
      </trkpt>
      <trkpt lat="46.93624" lon="6.42198">
        <ele>993.20001220703</ele>
        <time>2023-05-15T08:50:20.000Z</time>
      </trkpt>
      <trkpt lat="46.9362" lon="6.42193">
        <ele>993</ele>
        <time>2023-05-15T08:50:21.000Z</time>
      </trkpt>
      <trkpt lat="46.936" lon="6.42161">
        <ele>992.20001220703</ele>
        <time>2023-05-15T08:50:26.000Z</time>
      </trkpt>
      <trkpt lat="46.93596" lon="6.42154">
        <ele>991.59997558594</ele>
        <time>2023-05-15T08:50:27.000Z</time>
      </trkpt>
      <trkpt lat="46.93581" lon="6.42126">
        <ele>991</ele>
        <time>2023-05-15T08:50:31.000Z</time>
      </trkpt>
      <trkpt lat="46.93572" lon="6.42107">
        <ele>990.20001220703</ele>
        <time>2023-05-15T08:50:34.000Z</time>
      </trkpt>
      <trkpt lat="46.93559" lon="6.42084">
        <ele>989.79998779297</ele>
        <time>2023-05-15T08:50:39.000Z</time>
      </trkpt>
      <trkpt lat="46.93557" lon="6.42081">
        <ele>989.79998779297</ele>
        <time>2023-05-15T08:50:40.000Z</time>
      </trkpt>
      <trkpt lat="46.93537" lon="6.4205">
        <ele>989.40002441406</ele>
        <time>2023-05-15T08:50:48.000Z</time>
      </trkpt>
      <trkpt lat="46.93528" lon="6.42035">
        <ele>989.79998779297</ele>
        <time>2023-05-15T08:50:52.000Z</time>
      </trkpt>
      <trkpt lat="46.93521" lon="6.42025">
        <ele>990.59997558594</ele>
        <time>2023-05-15T08:50:55.000Z</time>
      </trkpt>
      <trkpt lat="46.93517" lon="6.42018">
        <ele>991</ele>
        <time>2023-05-15T08:50:57.000Z</time>
      </trkpt>
      <trkpt lat="46.93515" lon="6.42015">
        <ele>991.20001220703</ele>
        <time>2023-05-15T08:50:58.000Z</time>
      </trkpt>
      <trkpt lat="46.93509" lon="6.42005">
        <ele>991.79998779297</ele>
        <time>2023-05-15T08:51:01.000Z</time>
      </trkpt>
      <trkpt lat="46.93503" lon="6.41995">
        <ele>992.20001220703</ele>
        <time>2023-05-15T08:51:04.000Z</time>
      </trkpt>
      <trkpt lat="46.93501" lon="6.41992">
        <ele>992.40002441406</ele>
        <time>2023-05-15T08:51:05.000Z</time>
      </trkpt>
      <trkpt lat="46.93494" lon="6.41979">
        <ele>993.20001220703</ele>
        <time>2023-05-15T08:51:09.000Z</time>
      </trkpt>
      <trkpt lat="46.93489" lon="6.4197">
        <ele>993.59997558594</ele>
        <time>2023-05-15T08:51:12.000Z</time>
      </trkpt>
      <trkpt lat="46.93471" lon="6.41939">
        <ele>994.40002441406</ele>
        <time>2023-05-15T08:51:22.000Z</time>
      </trkpt>
      <trkpt lat="46.93469" lon="6.41936">
        <ele>994.40002441406</ele>
        <time>2023-05-15T08:51:23.000Z</time>
      </trkpt>
      <trkpt lat="46.93452" lon="6.41903">
        <ele>995</ele>
        <time>2023-05-15T08:51:33.000Z</time>
      </trkpt>
      <trkpt lat="46.9343" lon="6.41866">
        <ele>995.20001220703</ele>
        <time>2023-05-15T08:51:45.000Z</time>
      </trkpt>
      <trkpt lat="46.93422" lon="6.41853">
        <ele>995.40002441406</ele>
        <time>2023-05-15T08:51:49.000Z</time>
      </trkpt>
      <trkpt lat="46.93412" lon="6.41836">
        <ele>995.79998779297</ele>
        <time>2023-05-15T08:51:54.000Z</time>
      </trkpt>
      <trkpt lat="46.93394" lon="6.41805">
        <ele>995.59997558594</ele>
        <time>2023-05-15T08:52:03.000Z</time>
      </trkpt>
      <trkpt lat="46.93377" lon="6.41774">
        <ele>995</ele>
        <time>2023-05-15T08:52:10.000Z</time>
      </trkpt>
      <trkpt lat="46.93359" lon="6.41733">
        <ele>994.40002441406</ele>
        <time>2023-05-15T08:52:16.000Z</time>
      </trkpt>
      <trkpt lat="46.93355" lon="6.41725">
        <ele>994.20001220703</ele>
        <time>2023-05-15T08:52:17.000Z</time>
      </trkpt>
      <trkpt lat="46.93342" lon="6.417">
        <ele>993.20001220703</ele>
        <time>2023-05-15T08:52:20.000Z</time>
      </trkpt>
      <trkpt lat="46.93338" lon="6.41691">
        <ele>992.79998779297</ele>
        <time>2023-05-15T08:52:21.000Z</time>
      </trkpt>
      <trkpt lat="46.93329" lon="6.41672">
        <ele>992</ele>
        <time>2023-05-15T08:52:23.000Z</time>
      </trkpt>
      <trkpt lat="46.93318" lon="6.41647">
        <ele>990.40002441406</ele>
        <time>2023-05-15T08:52:26.000Z</time>
      </trkpt>
      <trkpt lat="46.93315" lon="6.4164">
        <ele>990</ele>
        <time>2023-05-15T08:52:27.000Z</time>
      </trkpt>
      <trkpt lat="46.9331" lon="6.41624">
        <ele>989</ele>
        <time>2023-05-15T08:52:30.000Z</time>
      </trkpt>
      <trkpt lat="46.93309" lon="6.4162">
        <ele>988.79998779297</ele>
        <time>2023-05-15T08:52:31.000Z</time>
      </trkpt>
      <trkpt lat="46.93298" lon="6.41591">
        <ele>988</ele>
        <time>2023-05-15T08:52:38.000Z</time>
      </trkpt>
      <trkpt lat="46.93289" lon="6.41557">
        <ele>988.20001220703</ele>
        <time>2023-05-15T08:52:45.000Z</time>
      </trkpt>
      <trkpt lat="46.93276" lon="6.41514">
        <ele>989.20001220703</ele>
        <time>2023-05-15T08:52:54.000Z</time>
      </trkpt>
      <trkpt lat="46.93264" lon="6.41488">
        <ele>989.59997558594</ele>
        <time>2023-05-15T08:53:00.000Z</time>
      </trkpt>
      <trkpt lat="46.93253" lon="6.41468">
        <ele>989.59997558594</ele>
        <time>2023-05-15T08:53:05.000Z</time>
      </trkpt>
      <trkpt lat="46.93239" lon="6.4144">
        <ele>989.40002441406</ele>
        <time>2023-05-15T08:53:12.000Z</time>
      </trkpt>
      <trkpt lat="46.93225" lon="6.41413">
        <ele>989.79998779297</ele>
        <time>2023-05-15T08:53:19.000Z</time>
      </trkpt>
      <trkpt lat="46.93221" lon="6.41405">
        <ele>989.79998779297</ele>
        <time>2023-05-15T08:53:21.000Z</time>
      </trkpt>
      <trkpt lat="46.93208" lon="6.41375">
        <ele>990.79998779297</ele>
        <time>2023-05-15T08:53:29.000Z</time>
      </trkpt>
      <trkpt lat="46.932" lon="6.41352">
        <ele>992</ele>
        <time>2023-05-15T08:53:35.000Z</time>
      </trkpt>
      <trkpt lat="46.93195" lon="6.41339">
        <ele>992.59997558594</ele>
        <time>2023-05-15T08:53:39.000Z</time>
      </trkpt>
      <trkpt lat="46.93192" lon="6.41332">
        <ele>993</ele>
        <time>2023-05-15T08:53:41.000Z</time>
      </trkpt>
      <trkpt lat="46.93186" lon="6.41317">
        <ele>993.59997558594</ele>
        <time>2023-05-15T08:53:45.000Z</time>
      </trkpt>
      <trkpt lat="46.93178" lon="6.41302">
        <ele>994</ele>
        <time>2023-05-15T08:53:49.000Z</time>
      </trkpt>
      <trkpt lat="46.93167" lon="6.4128">
        <ele>994.79998779297</ele>
        <time>2023-05-15T08:53:55.000Z</time>
      </trkpt>
      <trkpt lat="46.93153" lon="6.41254">
        <ele>995</ele>
        <time>2023-05-15T08:54:03.000Z</time>
      </trkpt>
      <trkpt lat="46.93139" lon="6.4123">
        <ele>994.59997558594</ele>
        <time>2023-05-15T08:54:10.000Z</time>
      </trkpt>
      <trkpt lat="46.93137" lon="6.41226">
        <ele>994.59997558594</ele>
        <time>2023-05-15T08:54:11.000Z</time>
      </trkpt>
      <trkpt lat="46.93121" lon="6.41201">
        <ele>994.20001220703</ele>
        <time>2023-05-15T08:54:17.000Z</time>
      </trkpt>
      <trkpt lat="46.93104" lon="6.41167">
        <ele>993.20001220703</ele>
        <time>2023-05-15T08:54:25.000Z</time>
      </trkpt>
      <trkpt lat="46.93098" lon="6.41156">
        <ele>992.79998779297</ele>
        <time>2023-05-15T08:54:28.000Z</time>
      </trkpt>
      <trkpt lat="46.93092" lon="6.41146">
        <ele>992.59997558594</ele>
        <time>2023-05-15T08:54:31.000Z</time>
      </trkpt>
      <trkpt lat="46.9308" lon="6.41121">
        <ele>992</ele>
        <time>2023-05-15T08:54:38.000Z</time>
      </trkpt>
      <trkpt lat="46.93077" lon="6.41115">
        <ele>991.79998779297</ele>
        <time>2023-05-15T08:54:40.000Z</time>
      </trkpt>
      <trkpt lat="46.93063" lon="6.41091">
        <ele>991</ele>
        <time>2023-05-15T08:54:48.000Z</time>
      </trkpt>
      <trkpt lat="46.93055" lon="6.41073">
        <ele>990.79998779297</ele>
        <time>2023-05-15T08:54:53.000Z</time>
      </trkpt>
      <trkpt lat="46.93052" lon="6.41066">
        <ele>990.59997558594</ele>
        <time>2023-05-15T08:54:55.000Z</time>
      </trkpt>
      <trkpt lat="46.93041" lon="6.41038">
        <ele>990.20001220703</ele>
        <time>2023-05-15T08:55:02.000Z</time>
      </trkpt>
      <trkpt lat="46.9303" lon="6.41014">
        <ele>990</ele>
        <time>2023-05-15T08:55:09.000Z</time>
      </trkpt>
      <trkpt lat="46.9302" lon="6.40991">
        <ele>989.79998779297</ele>
        <time>2023-05-15T08:55:16.000Z</time>
      </trkpt>
      <trkpt lat="46.93005" lon="6.40954">
        <ele>990</ele>
        <time>2023-05-15T08:55:25.000Z</time>
      </trkpt>
      <trkpt lat="46.92994" lon="6.40926">
        <ele>990</ele>
        <time>2023-05-15T08:55:32.000Z</time>
      </trkpt>
      <trkpt lat="46.92982" lon="6.40897">
        <ele>989.40002441406</ele>
        <time>2023-05-15T08:55:39.000Z</time>
      </trkpt>
      <trkpt lat="46.9298" lon="6.40894">
        <ele>989.40002441406</ele>
        <time>2023-05-15T08:55:40.000Z</time>
      </trkpt>
      <trkpt lat="46.92967" lon="6.40861">
        <ele>988.20001220703</ele>
        <time>2023-05-15T08:55:48.000Z</time>
      </trkpt>
      <trkpt lat="46.92965" lon="6.40856">
        <ele>988.20001220703</ele>
        <time>2023-05-15T08:55:49.000Z</time>
      </trkpt>
      <trkpt lat="46.92954" lon="6.40831">
        <ele>987.59997558594</ele>
        <time>2023-05-15T08:55:55.000Z</time>
      </trkpt>
      <trkpt lat="46.92949" lon="6.40819">
        <ele>987</ele>
        <time>2023-05-15T08:55:58.000Z</time>
      </trkpt>
      <trkpt lat="46.92947" lon="6.40815">
        <ele>987</ele>
        <time>2023-05-15T08:55:59.000Z</time>
      </trkpt>
      <trkpt lat="46.92929" lon="6.40782">
        <ele>986.40002441406</ele>
        <time>2023-05-15T08:56:06.000Z</time>
      </trkpt>
      <trkpt lat="46.92922" lon="6.40768">
        <ele>986</ele>
        <time>2023-05-15T08:56:08.000Z</time>
      </trkpt>
      <trkpt lat="46.92914" lon="6.40754">
        <ele>985.40002441406</ele>
        <time>2023-05-15T08:56:10.000Z</time>
      </trkpt>
      <trkpt lat="46.92911" lon="6.40747">
        <ele>985.20001220703</ele>
        <time>2023-05-15T08:56:11.000Z</time>
      </trkpt>
      <trkpt lat="46.92907" lon="6.4074">
        <ele>985</ele>
        <time>2023-05-15T08:56:12.000Z</time>
      </trkpt>
      <trkpt lat="46.92904" lon="6.40732">
        <ele>985</ele>
        <time>2023-05-15T08:56:13.000Z</time>
      </trkpt>
      <trkpt lat="46.92896" lon="6.40717">
        <ele>984.40002441406</ele>
        <time>2023-05-15T08:56:15.000Z</time>
      </trkpt>
      <trkpt lat="46.92889" lon="6.40702">
        <ele>983</ele>
        <time>2023-05-15T08:56:17.000Z</time>
      </trkpt>
      <trkpt lat="46.92883" lon="6.40686">
        <ele>982</ele>
        <time>2023-05-15T08:56:19.000Z</time>
      </trkpt>
      <trkpt lat="46.9287" lon="6.40662">
        <ele>981.20001220703</ele>
        <time>2023-05-15T08:56:22.000Z</time>
      </trkpt>
      <trkpt lat="46.92866" lon="6.40654">
        <ele>981</ele>
        <time>2023-05-15T08:56:23.000Z</time>
      </trkpt>
      <trkpt lat="46.92852" lon="6.40626">
        <ele>980</ele>
        <time>2023-05-15T08:56:26.000Z</time>
      </trkpt>
      <trkpt lat="46.92848" lon="6.40617">
        <ele>979.59997558594</ele>
        <time>2023-05-15T08:56:27.000Z</time>
      </trkpt>
      <trkpt lat="46.9284" lon="6.40599">
        <ele>978.79998779297</ele>
        <time>2023-05-15T08:56:29.000Z</time>
      </trkpt>
      <trkpt lat="46.92835" lon="6.40591">
        <ele>978.59997558594</ele>
        <time>2023-05-15T08:56:30.000Z</time>
      </trkpt>
      <trkpt lat="46.92831" lon="6.40582">
        <ele>978</ele>
        <time>2023-05-15T08:56:31.000Z</time>
      </trkpt>
      <trkpt lat="46.92821" lon="6.40564">
        <ele>977.40002441406</ele>
        <time>2023-05-15T08:56:33.000Z</time>
      </trkpt>
      <trkpt lat="46.92812" lon="6.40546">
        <ele>976.59997558594</ele>
        <time>2023-05-15T08:56:35.000Z</time>
      </trkpt>
      <trkpt lat="46.92807" lon="6.40536">
        <ele>975.79998779297</ele>
        <time>2023-05-15T08:56:36.000Z</time>
      </trkpt>
      <trkpt lat="46.92793" lon="6.40508">
        <ele>974.79998779297</ele>
        <time>2023-05-15T08:56:39.000Z</time>
      </trkpt>
      <trkpt lat="46.92789" lon="6.405">
        <ele>974.20001220703</ele>
        <time>2023-05-15T08:56:40.000Z</time>
      </trkpt>
      <trkpt lat="46.92781" lon="6.40482">
        <ele>973.40002441406</ele>
        <time>2023-05-15T08:56:42.000Z</time>
      </trkpt>
      <trkpt lat="46.92773" lon="6.40465">
        <ele>972.20001220703</ele>
        <time>2023-05-15T08:56:44.000Z</time>
      </trkpt>
      <trkpt lat="46.9277" lon="6.40457">
        <ele>971.59997558594</ele>
        <time>2023-05-15T08:56:45.000Z</time>
      </trkpt>
      <trkpt lat="46.92762" lon="6.40443">
        <ele>970.59997558594</ele>
        <time>2023-05-15T08:56:47.000Z</time>
      </trkpt>
      <trkpt lat="46.92755" lon="6.40427">
        <ele>969.59997558594</ele>
        <time>2023-05-15T08:56:49.000Z</time>
      </trkpt>
      <trkpt lat="46.92749" lon="6.4041">
        <ele>968.59997558594</ele>
        <time>2023-05-15T08:56:51.000Z</time>
      </trkpt>
      <trkpt lat="46.92745" lon="6.40402">
        <ele>968.20001220703</ele>
        <time>2023-05-15T08:56:52.000Z</time>
      </trkpt>
      <trkpt lat="46.9273" lon="6.4037">
        <ele>967</ele>
        <time>2023-05-15T08:56:56.000Z</time>
      </trkpt>
      <trkpt lat="46.92717" lon="6.40344">
        <ele>965.40002441406</ele>
        <time>2023-05-15T08:56:59.000Z</time>
      </trkpt>
      <trkpt lat="46.92713" lon="6.40336">
        <ele>965</ele>
        <time>2023-05-15T08:57:00.000Z</time>
      </trkpt>
      <trkpt lat="46.92709" lon="6.40328">
        <ele>964.20001220703</ele>
        <time>2023-05-15T08:57:01.000Z</time>
      </trkpt>
      <trkpt lat="46.92701" lon="6.40314">
        <ele>963.59997558594</ele>
        <time>2023-05-15T08:57:03.000Z</time>
      </trkpt>
      <trkpt lat="46.92695" lon="6.40302">
        <ele>963.40002441406</ele>
        <time>2023-05-15T08:57:05.000Z</time>
      </trkpt>
      <trkpt lat="46.92681" lon="6.40275">
        <ele>963.20001220703</ele>
        <time>2023-05-15T08:57:10.000Z</time>
      </trkpt>
      <trkpt lat="46.92679" lon="6.40269">
        <ele>963</ele>
        <time>2023-05-15T08:57:11.000Z</time>
      </trkpt>
      <trkpt lat="46.9267" lon="6.40253">
        <ele>962.59997558594</ele>
        <time>2023-05-15T08:57:14.000Z</time>
      </trkpt>
      <trkpt lat="46.92659" lon="6.40233">
        <ele>962</ele>
        <time>2023-05-15T08:57:17.000Z</time>
      </trkpt>
      <trkpt lat="46.92656" lon="6.40226">
        <ele>961.79998779297</ele>
        <time>2023-05-15T08:57:18.000Z</time>
      </trkpt>
      <trkpt lat="46.92637" lon="6.40186">
        <ele>960.59997558594</ele>
        <time>2023-05-15T08:57:23.000Z</time>
      </trkpt>
      <trkpt lat="46.92625" lon="6.40163">
        <ele>959.40002441406</ele>
        <time>2023-05-15T08:57:26.000Z</time>
      </trkpt>
      <trkpt lat="46.92615" lon="6.40139">
        <ele>959</ele>
        <time>2023-05-15T08:57:29.000Z</time>
      </trkpt>
      <trkpt lat="46.92608" lon="6.40126">
        <ele>958.40002441406</ele>
        <time>2023-05-15T08:57:31.000Z</time>
      </trkpt>
      <trkpt lat="46.92596" lon="6.40103">
        <ele>957.40002441406</ele>
        <time>2023-05-15T08:57:35.000Z</time>
      </trkpt>
      <trkpt lat="46.92587" lon="6.40088">
        <ele>957.20001220703</ele>
        <time>2023-05-15T08:57:38.000Z</time>
      </trkpt>
      <trkpt lat="46.9258" lon="6.4007">
        <ele>957.20001220703</ele>
        <time>2023-05-15T08:57:41.000Z</time>
      </trkpt>
      <trkpt lat="46.92572" lon="6.40053">
        <ele>957</ele>
        <time>2023-05-15T08:57:44.000Z</time>
      </trkpt>
      <trkpt lat="46.92566" lon="6.40041">
        <ele>957</ele>
        <time>2023-05-15T08:57:46.000Z</time>
      </trkpt>
      <trkpt lat="46.92558" lon="6.40031">
        <ele>957</ele>
        <time>2023-05-15T08:57:48.000Z</time>
      </trkpt>
      <trkpt lat="46.92553" lon="6.40025">
        <ele>956.79998779297</ele>
        <time>2023-05-15T08:57:49.000Z</time>
      </trkpt>
      <trkpt lat="46.92545" lon="6.40011">
        <ele>956.79998779297</ele>
        <time>2023-05-15T08:57:51.000Z</time>
      </trkpt>
      <trkpt lat="46.92543" lon="6.40003">
        <ele>956.59997558594</ele>
        <time>2023-05-15T08:57:52.000Z</time>
      </trkpt>
      <trkpt lat="46.92541" lon="6.3999">
        <ele>956.20001220703</ele>
        <time>2023-05-15T08:57:54.000Z</time>
      </trkpt>
      <trkpt lat="46.92541" lon="6.39985">
        <ele>956</ele>
        <time>2023-05-15T08:57:55.000Z</time>
      </trkpt>
      <trkpt lat="46.9254" lon="6.39979">
        <ele>956</ele>
        <time>2023-05-15T08:57:56.000Z</time>
      </trkpt>
      <trkpt lat="46.92536" lon="6.39968">
        <ele>955.79998779297</ele>
        <time>2023-05-15T08:57:58.000Z</time>
      </trkpt>
      <trkpt lat="46.92528" lon="6.39952">
        <ele>956</ele>
        <time>2023-05-15T08:58:01.000Z</time>
      </trkpt>
      <trkpt lat="46.92504" lon="6.399">
        <ele>956.79998779297</ele>
        <time>2023-05-15T08:58:10.000Z</time>
      </trkpt>
      <trkpt lat="46.92493" lon="6.39878">
        <ele>956.79998779297</ele>
        <time>2023-05-15T08:58:14.000Z</time>
      </trkpt>
      <trkpt lat="46.92486" lon="6.39861">
        <ele>956.20001220703</ele>
        <time>2023-05-15T08:58:17.000Z</time>
      </trkpt>
      <trkpt lat="46.92471" lon="6.39825">
        <ele>955.59997558594</ele>
        <time>2023-05-15T08:58:24.000Z</time>
      </trkpt>
      <trkpt lat="46.92456" lon="6.39794">
        <ele>955.59997558594</ele>
        <time>2023-05-15T08:58:29.000Z</time>
      </trkpt>
      <trkpt lat="46.92451" lon="6.39783">
        <ele>955.59997558594</ele>
        <time>2023-05-15T08:58:31.000Z</time>
      </trkpt>
      <trkpt lat="46.92444" lon="6.39766">
        <ele>955.79998779297</ele>
        <time>2023-05-15T08:58:34.000Z</time>
      </trkpt>
      <trkpt lat="46.92438" lon="6.39755">
        <ele>955.79998779297</ele>
        <time>2023-05-15T08:58:36.000Z</time>
      </trkpt>
      <trkpt lat="46.92435" lon="6.39749">
        <ele>955.79998779297</ele>
        <time>2023-05-15T08:58:37.000Z</time>
      </trkpt>
      <trkpt lat="46.92419" lon="6.39718">
        <ele>956</ele>
        <time>2023-05-15T08:58:43.000Z</time>
      </trkpt>
      <trkpt lat="46.92403" lon="6.39692">
        <ele>956.40002441406</ele>
        <time>2023-05-15T08:58:49.000Z</time>
      </trkpt>
      <trkpt lat="46.92401" lon="6.39686">
        <ele>956.40002441406</ele>
        <time>2023-05-15T08:58:50.000Z</time>
      </trkpt>
      <trkpt lat="46.92397" lon="6.39675">
        <ele>956.40002441406</ele>
        <time>2023-05-15T08:58:52.000Z</time>
      </trkpt>
      <trkpt lat="46.92386" lon="6.39655">
        <ele>956.20001220703</ele>
        <time>2023-05-15T08:58:56.000Z</time>
      </trkpt>
      <trkpt lat="46.92375" lon="6.39638">
        <ele>955.40002441406</ele>
        <time>2023-05-15T08:59:01.000Z</time>
      </trkpt>
      <trkpt lat="46.92373" lon="6.39635">
        <ele>955.40002441406</ele>
        <time>2023-05-15T08:59:02.000Z</time>
      </trkpt>
      <trkpt lat="46.92371" lon="6.39631">
        <ele>955.20001220703</ele>
        <time>2023-05-15T08:59:03.000Z</time>
      </trkpt>
      <trkpt lat="46.92369" lon="6.39628">
        <ele>955</ele>
        <time>2023-05-15T08:59:04.000Z</time>
      </trkpt>
      <trkpt lat="46.92365" lon="6.39618">
        <ele>954.79998779297</ele>
        <time>2023-05-15T08:59:07.000Z</time>
      </trkpt>
      <trkpt lat="46.92359" lon="6.39604">
        <ele>954.59997558594</ele>
        <time>2023-05-15T08:59:11.000Z</time>
      </trkpt>
      <trkpt lat="46.92355" lon="6.39596">
        <ele>954.20001220703</ele>
        <time>2023-05-15T08:59:13.000Z</time>
      </trkpt>
      <trkpt lat="46.92344" lon="6.39572">
        <ele>953.79998779297</ele>
        <time>2023-05-15T08:59:18.000Z</time>
      </trkpt>
      <trkpt lat="46.92328" lon="6.39542">
        <ele>953.40002441406</ele>
        <time>2023-05-15T08:59:23.000Z</time>
      </trkpt>
      <trkpt lat="46.92321" lon="6.3952">
        <ele>952.40002441406</ele>
        <time>2023-05-15T08:59:26.000Z</time>
      </trkpt>
      <trkpt lat="46.92313" lon="6.39503">
        <ele>951.59997558594</ele>
        <time>2023-05-15T08:59:28.000Z</time>
      </trkpt>
      <trkpt lat="46.92304" lon="6.39488">
        <ele>951.40002441406</ele>
        <time>2023-05-15T08:59:30.000Z</time>
      </trkpt>
      <trkpt lat="46.92296" lon="6.39472">
        <ele>950.79998779297</ele>
        <time>2023-05-15T08:59:32.000Z</time>
      </trkpt>
      <trkpt lat="46.92287" lon="6.39457">
        <ele>950.40002441406</ele>
        <time>2023-05-15T08:59:34.000Z</time>
      </trkpt>
      <trkpt lat="46.92277" lon="6.39433">
        <ele>949.20001220703</ele>
        <time>2023-05-15T08:59:37.000Z</time>
      </trkpt>
      <trkpt lat="46.92273" lon="6.39425">
        <ele>949</ele>
        <time>2023-05-15T08:59:38.000Z</time>
      </trkpt>
      <trkpt lat="46.92266" lon="6.39408">
        <ele>948.59997558594</ele>
        <time>2023-05-15T08:59:40.000Z</time>
      </trkpt>
      <trkpt lat="46.92259" lon="6.39391">
        <ele>948.40002441406</ele>
        <time>2023-05-15T08:59:42.000Z</time>
      </trkpt>
      <trkpt lat="46.92251" lon="6.39375">
        <ele>948</ele>
        <time>2023-05-15T08:59:44.000Z</time>
      </trkpt>
      <trkpt lat="46.92248" lon="6.39367">
        <ele>947.20001220703</ele>
        <time>2023-05-15T08:59:45.000Z</time>
      </trkpt>
      <trkpt lat="46.92244" lon="6.39359">
        <ele>946.79998779297</ele>
        <time>2023-05-15T08:59:46.000Z</time>
      </trkpt>
      <trkpt lat="46.92241" lon="6.39352">
        <ele>946.40002441406</ele>
        <time>2023-05-15T08:59:47.000Z</time>
      </trkpt>
      <trkpt lat="46.92234" lon="6.39335">
        <ele>946</ele>
        <time>2023-05-15T08:59:49.000Z</time>
      </trkpt>
      <trkpt lat="46.92232" lon="6.39326">
        <ele>945.79998779297</ele>
        <time>2023-05-15T08:59:50.000Z</time>
      </trkpt>
      <trkpt lat="46.92217" lon="6.39294">
        <ele>945</ele>
        <time>2023-05-15T08:59:54.000Z</time>
      </trkpt>
      <trkpt lat="46.92214" lon="6.39286">
        <ele>944.59997558594</ele>
        <time>2023-05-15T08:59:55.000Z</time>
      </trkpt>
      <trkpt lat="46.9221" lon="6.39279">
        <ele>944.20001220703</ele>
        <time>2023-05-15T08:59:56.000Z</time>
      </trkpt>
      <trkpt lat="46.92207" lon="6.39271">
        <ele>943.59997558594</ele>
        <time>2023-05-15T08:59:57.000Z</time>
      </trkpt>
      <trkpt lat="46.92192" lon="6.39241">
        <ele>942.79998779297</ele>
        <time>2023-05-15T09:00:01.000Z</time>
      </trkpt>
      <trkpt lat="46.92188" lon="6.39235">
        <ele>942.79998779297</ele>
        <time>2023-05-15T09:00:02.000Z</time>
      </trkpt>
      <trkpt lat="46.92185" lon="6.39228">
        <ele>942.59997558594</ele>
        <time>2023-05-15T09:00:03.000Z</time>
      </trkpt>
      <trkpt lat="46.92182" lon="6.39222">
        <ele>942.40002441406</ele>
        <time>2023-05-15T09:00:04.000Z</time>
      </trkpt>
      <trkpt lat="46.92179" lon="6.39216">
        <ele>942.20001220703</ele>
        <time>2023-05-15T09:00:05.000Z</time>
      </trkpt>
      <trkpt lat="46.92173" lon="6.39197">
        <ele>941.59997558594</ele>
        <time>2023-05-15T09:00:08.000Z</time>
      </trkpt>
      <trkpt lat="46.92166" lon="6.39176">
        <ele>941.40002441406</ele>
        <time>2023-05-15T09:00:11.000Z</time>
      </trkpt>
      <trkpt lat="46.92162" lon="6.39171">
        <ele>941.40002441406</ele>
        <time>2023-05-15T09:00:12.000Z</time>
      </trkpt>
      <trkpt lat="46.92156" lon="6.39161">
        <ele>941.20001220703</ele>
        <time>2023-05-15T09:00:14.000Z</time>
      </trkpt>
      <trkpt lat="46.92154" lon="6.39154">
        <ele>941.20001220703</ele>
        <time>2023-05-15T09:00:15.000Z</time>
      </trkpt>
      <trkpt lat="46.92152" lon="6.39146">
        <ele>941.20001220703</ele>
        <time>2023-05-15T09:00:16.000Z</time>
      </trkpt>
      <trkpt lat="46.92145" lon="6.39135">
        <ele>941</ele>
        <time>2023-05-15T09:00:18.000Z</time>
      </trkpt>
      <trkpt lat="46.92142" lon="6.39131">
        <ele>941</ele>
        <time>2023-05-15T09:00:19.000Z</time>
      </trkpt>
      <trkpt lat="46.92128" lon="6.39111">
        <ele>940.40002441406</ele>
        <time>2023-05-15T09:00:22.000Z</time>
      </trkpt>
      <trkpt lat="46.92123" lon="6.39105">
        <ele>940.20001220703</ele>
        <time>2023-05-15T09:00:23.000Z</time>
      </trkpt>
      <trkpt lat="46.92115" lon="6.39091">
        <ele>939.79998779297</ele>
        <time>2023-05-15T09:00:25.000Z</time>
      </trkpt>
      <trkpt lat="46.92099" lon="6.39068">
        <ele>939</ele>
        <time>2023-05-15T09:00:28.000Z</time>
      </trkpt>
      <trkpt lat="46.92085" lon="6.39046">
        <ele>937.59997558594</ele>
        <time>2023-05-15T09:00:31.000Z</time>
      </trkpt>
      <trkpt lat="46.92066" lon="6.39019">
        <ele>936.59997558594</ele>
        <time>2023-05-15T09:00:35.000Z</time>
      </trkpt>
      <trkpt lat="46.92048" lon="6.38989">
        <ele>935.79998779297</ele>
        <time>2023-05-15T09:00:39.000Z</time>
      </trkpt>
      <trkpt lat="46.9204" lon="6.38971">
        <ele>935.40002441406</ele>
        <time>2023-05-15T09:00:41.000Z</time>
      </trkpt>
      <trkpt lat="46.92032" lon="6.38953">
        <ele>934.20001220703</ele>
        <time>2023-05-15T09:00:43.000Z</time>
      </trkpt>
      <trkpt lat="46.92028" lon="6.38934">
        <ele>933.40002441406</ele>
        <time>2023-05-15T09:00:45.000Z</time>
      </trkpt>
      <trkpt lat="46.92026" lon="6.38925">
        <ele>933</ele>
        <time>2023-05-15T09:00:46.000Z</time>
      </trkpt>
      <trkpt lat="46.92017" lon="6.38891">
        <ele>932</ele>
        <time>2023-05-15T09:00:50.000Z</time>
      </trkpt>
      <trkpt lat="46.92012" lon="6.38875">
        <ele>930.59997558594</ele>
        <time>2023-05-15T09:00:52.000Z</time>
      </trkpt>
      <trkpt lat="46.9201" lon="6.38861">
        <ele>930</ele>
        <time>2023-05-15T09:00:54.000Z</time>
      </trkpt>
      <trkpt lat="46.9201" lon="6.38853">
        <ele>929.40002441406</ele>
        <time>2023-05-15T09:00:55.000Z</time>
      </trkpt>
      <trkpt lat="46.9201" lon="6.38838">
        <ele>928.20001220703</ele>
        <time>2023-05-15T09:00:57.000Z</time>
      </trkpt>
      <trkpt lat="46.92008" lon="6.3883">
        <ele>927.59997558594</ele>
        <time>2023-05-15T09:00:58.000Z</time>
      </trkpt>
      <trkpt lat="46.92005" lon="6.38823">
        <ele>927</ele>
        <time>2023-05-15T09:00:59.000Z</time>
      </trkpt>
      <trkpt lat="46.92" lon="6.38816">
        <ele>926.59997558594</ele>
        <time>2023-05-15T09:01:00.000Z</time>
      </trkpt>
      <trkpt lat="46.91989" lon="6.38804">
        <ele>925.79998779297</ele>
        <time>2023-05-15T09:01:02.000Z</time>
      </trkpt>
      <trkpt lat="46.91984" lon="6.38798">
        <ele>925.20001220703</ele>
        <time>2023-05-15T09:01:03.000Z</time>
      </trkpt>
      <trkpt lat="46.91971" lon="6.3879">
        <ele>924.20001220703</ele>
        <time>2023-05-15T09:01:05.000Z</time>
      </trkpt>
      <trkpt lat="46.91959" lon="6.38782">
        <ele>923.59997558594</ele>
        <time>2023-05-15T09:01:07.000Z</time>
      </trkpt>
      <trkpt lat="46.91952" lon="6.38779">
        <ele>923.20001220703</ele>
        <time>2023-05-15T09:01:08.000Z</time>
      </trkpt>
      <trkpt lat="46.91936" lon="6.38774">
        <ele>922</ele>
        <time>2023-05-15T09:01:10.000Z</time>
      </trkpt>
      <trkpt lat="46.91928" lon="6.38772">
        <ele>922</ele>
        <time>2023-05-15T09:01:11.000Z</time>
      </trkpt>
      <trkpt lat="46.91908" lon="6.38768">
        <ele>920.79998779297</ele>
        <time>2023-05-15T09:01:14.000Z</time>
      </trkpt>
      <trkpt lat="46.91893" lon="6.38759">
        <ele>919.79998779297</ele>
        <time>2023-05-15T09:01:17.000Z</time>
      </trkpt>
      <trkpt lat="46.91885" lon="6.38754">
        <ele>918.40002441406</ele>
        <time>2023-05-15T09:01:19.000Z</time>
      </trkpt>
      <trkpt lat="46.91872" lon="6.38746">
        <ele>917.40002441406</ele>
        <time>2023-05-15T09:01:21.000Z</time>
      </trkpt>
      <trkpt lat="46.91867" lon="6.38742">
        <ele>917</ele>
        <time>2023-05-15T09:01:22.000Z</time>
      </trkpt>
      <trkpt lat="46.91861" lon="6.38737">
        <ele>916.40002441406</ele>
        <time>2023-05-15T09:01:23.000Z</time>
      </trkpt>
      <trkpt lat="46.91855" lon="6.38731">
        <ele>916.20001220703</ele>
        <time>2023-05-15T09:01:24.000Z</time>
      </trkpt>
      <trkpt lat="46.91838" lon="6.38714">
        <ele>915</ele>
        <time>2023-05-15T09:01:27.000Z</time>
      </trkpt>
      <trkpt lat="46.91819" lon="6.38698">
        <ele>913.20001220703</ele>
        <time>2023-05-15T09:01:30.000Z</time>
      </trkpt>
      <trkpt lat="46.91807" lon="6.38686">
        <ele>912</ele>
        <time>2023-05-15T09:01:32.000Z</time>
      </trkpt>
      <trkpt lat="46.91793" lon="6.38676">
        <ele>911</ele>
        <time>2023-05-15T09:01:34.000Z</time>
      </trkpt>
      <trkpt lat="46.91782" lon="6.38664">
        <ele>909.79998779297</ele>
        <time>2023-05-15T09:01:36.000Z</time>
      </trkpt>
      <trkpt lat="46.91769" lon="6.38646">
        <ele>908.79998779297</ele>
        <time>2023-05-15T09:01:38.000Z</time>
      </trkpt>
      <trkpt lat="46.91762" lon="6.38639">
        <ele>908.20001220703</ele>
        <time>2023-05-15T09:01:39.000Z</time>
      </trkpt>
      <trkpt lat="46.91745" lon="6.38626">
        <ele>907</ele>
        <time>2023-05-15T09:01:41.000Z</time>
      </trkpt>
      <trkpt lat="46.91729" lon="6.38612">
        <ele>906.59997558594</ele>
        <time>2023-05-15T09:01:43.000Z</time>
      </trkpt>
      <trkpt lat="46.9172" lon="6.38603">
        <ele>905.79998779297</ele>
        <time>2023-05-15T09:01:44.000Z</time>
      </trkpt>
      <trkpt lat="46.91702" lon="6.38586">
        <ele>904.79998779297</ele>
        <time>2023-05-15T09:01:46.000Z</time>
      </trkpt>
      <trkpt lat="46.91692" lon="6.38578">
        <ele>903.79998779297</ele>
        <time>2023-05-15T09:01:47.000Z</time>
      </trkpt>
      <trkpt lat="46.91682" lon="6.3857">
        <ele>903.40002441406</ele>
        <time>2023-05-15T09:01:48.000Z</time>
      </trkpt>
      <trkpt lat="46.91664" lon="6.38551">
        <ele>902.20001220703</ele>
        <time>2023-05-15T09:01:50.000Z</time>
      </trkpt>
      <trkpt lat="46.91655" lon="6.38541">
        <ele>901</ele>
        <time>2023-05-15T09:01:51.000Z</time>
      </trkpt>
      <trkpt lat="46.91646" lon="6.38531">
        <ele>900.59997558594</ele>
        <time>2023-05-15T09:01:52.000Z</time>
      </trkpt>
      <trkpt lat="46.91638" lon="6.3852">
        <ele>899.59997558594</ele>
        <time>2023-05-15T09:01:53.000Z</time>
      </trkpt>
      <trkpt lat="46.91631" lon="6.38509">
        <ele>898.79998779297</ele>
        <time>2023-05-15T09:01:54.000Z</time>
      </trkpt>
      <trkpt lat="46.91624" lon="6.38496">
        <ele>897.79998779297</ele>
        <time>2023-05-15T09:01:55.000Z</time>
      </trkpt>
      <trkpt lat="46.91618" lon="6.38484">
        <ele>896.79998779297</ele>
        <time>2023-05-15T09:01:56.000Z</time>
      </trkpt>
      <trkpt lat="46.91613" lon="6.38472">
        <ele>896.40002441406</ele>
        <time>2023-05-15T09:01:57.000Z</time>
      </trkpt>
      <trkpt lat="46.91602" lon="6.38447">
        <ele>895.40002441406</ele>
        <time>2023-05-15T09:01:59.000Z</time>
      </trkpt>
      <trkpt lat="46.91591" lon="6.38424">
        <ele>894.40002441406</ele>
        <time>2023-05-15T09:02:01.000Z</time>
      </trkpt>
      <trkpt lat="46.91586" lon="6.38413">
        <ele>893.79998779297</ele>
        <time>2023-05-15T09:02:02.000Z</time>
      </trkpt>
      <trkpt lat="46.91575" lon="6.38392">
        <ele>893.20001220703</ele>
        <time>2023-05-15T09:02:04.000Z</time>
      </trkpt>
      <trkpt lat="46.91569" lon="6.38382">
        <ele>892.59997558594</ele>
        <time>2023-05-15T09:02:05.000Z</time>
      </trkpt>
      <trkpt lat="46.91556" lon="6.38365">
        <ele>892.20001220703</ele>
        <time>2023-05-15T09:02:07.000Z</time>
      </trkpt>
      <trkpt lat="46.91548" lon="6.38359">
        <ele>892</ele>
        <time>2023-05-15T09:02:08.000Z</time>
      </trkpt>
      <trkpt lat="46.91523" lon="6.38345">
        <ele>891.20001220703</ele>
        <time>2023-05-15T09:02:11.000Z</time>
      </trkpt>
      <trkpt lat="46.91515" lon="6.38341">
        <ele>890.59997558594</ele>
        <time>2023-05-15T09:02:12.000Z</time>
      </trkpt>
      <trkpt lat="46.91482" lon="6.38328">
        <ele>889.40002441406</ele>
        <time>2023-05-15T09:02:16.000Z</time>
      </trkpt>
      <trkpt lat="46.91467" lon="6.38322">
        <ele>889</ele>
        <time>2023-05-15T09:02:18.000Z</time>
      </trkpt>
      <trkpt lat="46.91452" lon="6.38316">
        <ele>888.40002441406</ele>
        <time>2023-05-15T09:02:20.000Z</time>
      </trkpt>
      <trkpt lat="46.91439" lon="6.3831">
        <ele>888</ele>
        <time>2023-05-15T09:02:22.000Z</time>
      </trkpt>
      <trkpt lat="46.91418" lon="6.383">
        <ele>887.79998779297</ele>
        <time>2023-05-15T09:02:25.000Z</time>
      </trkpt>
      <trkpt lat="46.91397" lon="6.3829">
        <ele>887.20001220703</ele>
        <time>2023-05-15T09:02:28.000Z</time>
      </trkpt>
      <trkpt lat="46.91371" lon="6.38274">
        <ele>886.20001220703</ele>
        <time>2023-05-15T09:02:32.000Z</time>
      </trkpt>
      <trkpt lat="46.91359" lon="6.38264">
        <ele>885.79998779297</ele>
        <time>2023-05-15T09:02:34.000Z</time>
      </trkpt>
      <trkpt lat="46.91342" lon="6.38247">
        <ele>884.79998779297</ele>
        <time>2023-05-15T09:02:37.000Z</time>
      </trkpt>
      <trkpt lat="46.91326" lon="6.38226">
        <ele>884.59997558594</ele>
        <time>2023-05-15T09:02:40.000Z</time>
      </trkpt>
      <trkpt lat="46.91311" lon="6.38201">
        <ele>883.59997558594</ele>
        <time>2023-05-15T09:02:43.000Z</time>
      </trkpt>
      <trkpt lat="46.91296" lon="6.38173">
        <ele>882.40002441406</ele>
        <time>2023-05-15T09:02:46.000Z</time>
      </trkpt>
      <trkpt lat="46.91277" lon="6.38133">
        <ele>881</ele>
        <time>2023-05-15T09:02:50.000Z</time>
      </trkpt>
      <trkpt lat="46.91261" lon="6.38103">
        <ele>879.40002441406</ele>
        <time>2023-05-15T09:02:53.000Z</time>
      </trkpt>
      <trkpt lat="46.91237" lon="6.3806">
        <ele>877.79998779297</ele>
        <time>2023-05-15T09:02:57.000Z</time>
      </trkpt>
      <trkpt lat="46.91232" lon="6.38049">
        <ele>877.40002441406</ele>
        <time>2023-05-15T09:02:58.000Z</time>
      </trkpt>
      <trkpt lat="46.91219" lon="6.38028">
        <ele>876.59997558594</ele>
        <time>2023-05-15T09:03:00.000Z</time>
      </trkpt>
      <trkpt lat="46.91199" lon="6.37998">
        <ele>875.20001220703</ele>
        <time>2023-05-15T09:03:03.000Z</time>
      </trkpt>
      <trkpt lat="46.91178" lon="6.37967">
        <ele>873.79998779297</ele>
        <time>2023-05-15T09:03:06.000Z</time>
      </trkpt>
      <trkpt lat="46.91157" lon="6.37937">
        <ele>872</ele>
        <time>2023-05-15T09:03:09.000Z</time>
      </trkpt>
      <trkpt lat="46.91135" lon="6.37906">
        <ele>870.79998779297</ele>
        <time>2023-05-15T09:03:12.000Z</time>
      </trkpt>
      <trkpt lat="46.91128" lon="6.37896">
        <ele>870.20001220703</ele>
        <time>2023-05-15T09:03:13.000Z</time>
      </trkpt>
      <trkpt lat="46.91121" lon="6.37885">
        <ele>870</ele>
        <time>2023-05-15T09:03:14.000Z</time>
      </trkpt>
      <trkpt lat="46.91108" lon="6.37862">
        <ele>868.40002441406</ele>
        <time>2023-05-15T09:03:16.000Z</time>
      </trkpt>
      <trkpt lat="46.91091" lon="6.37831">
        <ele>867.20001220703</ele>
        <time>2023-05-15T09:03:19.000Z</time>
      </trkpt>
      <trkpt lat="46.91084" lon="6.37821">
        <ele>866.20001220703</ele>
        <time>2023-05-15T09:03:20.000Z</time>
      </trkpt>
      <trkpt lat="46.91071" lon="6.37804">
        <ele>865</ele>
        <time>2023-05-15T09:03:22.000Z</time>
      </trkpt>
      <trkpt lat="46.91058" lon="6.37786">
        <ele>864</ele>
        <time>2023-05-15T09:03:24.000Z</time>
      </trkpt>
      <trkpt lat="46.91045" lon="6.37769">
        <ele>862.59997558594</ele>
        <time>2023-05-15T09:03:26.000Z</time>
      </trkpt>
      <trkpt lat="46.91032" lon="6.37752">
        <ele>861.59997558594</ele>
        <time>2023-05-15T09:03:28.000Z</time>
      </trkpt>
      <trkpt lat="46.91006" lon="6.37719">
        <ele>860.40002441406</ele>
        <time>2023-05-15T09:03:32.000Z</time>
      </trkpt>
      <trkpt lat="46.90999" lon="6.37712">
        <ele>860</ele>
        <time>2023-05-15T09:03:33.000Z</time>
      </trkpt>
      <trkpt lat="46.90979" lon="6.37694">
        <ele>859.40002441406</ele>
        <time>2023-05-15T09:03:36.000Z</time>
      </trkpt>
      <trkpt lat="46.90967" lon="6.37683">
        <ele>858.79998779297</ele>
        <time>2023-05-15T09:03:38.000Z</time>
      </trkpt>
      <trkpt lat="46.90948" lon="6.37668">
        <ele>858</ele>
        <time>2023-05-15T09:03:41.000Z</time>
      </trkpt>
      <trkpt lat="46.90917" lon="6.37645">
        <ele>857.20001220703</ele>
        <time>2023-05-15T09:03:46.000Z</time>
      </trkpt>
      <trkpt lat="46.90911" lon="6.37641">
        <ele>856.79998779297</ele>
        <time>2023-05-15T09:03:47.000Z</time>
      </trkpt>
      <trkpt lat="46.90896" lon="6.37631">
        <ele>855.40002441406</ele>
        <time>2023-05-15T09:03:50.000Z</time>
      </trkpt>
      <trkpt lat="46.90891" lon="6.37629">
        <ele>855.20001220703</ele>
        <time>2023-05-15T09:03:51.000Z</time>
      </trkpt>
      <trkpt lat="46.90884" lon="6.37629">
        <ele>854.59997558594</ele>
        <time>2023-05-15T09:03:53.000Z</time>
      </trkpt>
      <trkpt lat="46.90882" lon="6.37633">
        <ele>854.20001220703</ele>
        <time>2023-05-15T09:03:54.000Z</time>
      </trkpt>
      <trkpt lat="46.90879" lon="6.37646">
        <ele>853.20001220703</ele>
        <time>2023-05-15T09:03:58.000Z</time>
      </trkpt>
      <trkpt lat="46.90879" lon="6.37647">
        <ele>852.59997558594</ele>
        <time>2023-05-15T09:04:02.000Z</time>
      </trkpt>
      <trkpt lat="46.90891" lon="6.37676">
        <ele>853.40002441406</ele>
        <time>2023-05-15T09:11:18.000Z</time>
      </trkpt>
      <trkpt lat="46.90892" lon="6.377">
        <ele>853.59997558594</ele>
        <time>2023-05-15T09:11:26.000Z</time>
      </trkpt>
      <trkpt lat="46.90886" lon="6.37723">
        <ele>853.79998779297</ele>
        <time>2023-05-15T09:11:33.000Z</time>
      </trkpt>
      <trkpt lat="46.90884" lon="6.37726">
        <ele>853.79998779297</ele>
        <time>2023-05-15T09:11:34.000Z</time>
      </trkpt>
      <trkpt lat="46.90877" lon="6.37745">
        <ele>854.59997558594</ele>
        <time>2023-05-15T09:11:41.000Z</time>
      </trkpt>
      <trkpt lat="46.90874" lon="6.3775">
        <ele>854.59997558594</ele>
        <time>2023-05-15T09:11:43.000Z</time>
      </trkpt>
      <trkpt lat="46.90873" lon="6.37753">
        <ele>854.79998779297</ele>
        <time>2023-05-15T09:11:44.000Z</time>
      </trkpt>
      <trkpt lat="46.90866" lon="6.37767">
        <ele>855.79998779297</ele>
        <time>2023-05-15T09:11:51.000Z</time>
      </trkpt>
      <trkpt lat="46.90863" lon="6.37776">
        <ele>856.40002441406</ele>
        <time>2023-05-15T09:11:56.000Z</time>
      </trkpt>
      <trkpt lat="46.90858" lon="6.37784">
        <ele>856.79998779297</ele>
        <time>2023-05-15T09:12:00.000Z</time>
      </trkpt>
      <trkpt lat="46.90854" lon="6.37794">
        <ele>858</ele>
        <time>2023-05-15T09:12:05.000Z</time>
      </trkpt>
      <trkpt lat="46.90852" lon="6.37799">
        <ele>858.59997558594</ele>
        <time>2023-05-15T09:12:08.000Z</time>
      </trkpt>
      <trkpt lat="46.90847" lon="6.37808">
        <ele>859.20001220703</ele>
        <time>2023-05-15T09:12:13.000Z</time>
      </trkpt>
      <trkpt lat="46.90845" lon="6.37814">
        <ele>859.59997558594</ele>
        <time>2023-05-15T09:12:16.000Z</time>
      </trkpt>
      <trkpt lat="46.90839" lon="6.37824">
        <ele>860.20001220703</ele>
        <time>2023-05-15T09:12:21.000Z</time>
      </trkpt>
      <trkpt lat="46.90837" lon="6.3783">
        <ele>860.79998779297</ele>
        <time>2023-05-15T09:12:24.000Z</time>
      </trkpt>
      <trkpt lat="46.90832" lon="6.3784">
        <ele>861.40002441406</ele>
        <time>2023-05-15T09:12:29.000Z</time>
      </trkpt>
      <trkpt lat="46.90825" lon="6.37851">
        <ele>862.40002441406</ele>
        <time>2023-05-15T09:12:35.000Z</time>
      </trkpt>
      <trkpt lat="46.90815" lon="6.37864">
        <ele>863.40002441406</ele>
        <time>2023-05-15T09:12:43.000Z</time>
      </trkpt>
      <trkpt lat="46.90799" lon="6.37872">
        <ele>864</ele>
        <time>2023-05-15T09:12:53.000Z</time>
      </trkpt>
      <trkpt lat="46.90785" lon="6.3787">
        <ele>864.40002441406</ele>
        <time>2023-05-15T09:13:00.000Z</time>
      </trkpt>
      <trkpt lat="46.90779" lon="6.37868">
        <ele>864.79998779297</ele>
        <time>2023-05-15T09:13:03.000Z</time>
      </trkpt>
      <trkpt lat="46.90756" lon="6.37863">
        <ele>865.59997558594</ele>
        <time>2023-05-15T09:13:14.000Z</time>
      </trkpt>
      <trkpt lat="46.90733" lon="6.37859">
        <ele>866.59997558594</ele>
        <time>2023-05-15T09:13:25.000Z</time>
      </trkpt>
      <trkpt lat="46.90732" lon="6.37859">
        <ele>866.79998779297</ele>
        <time>2023-05-15T09:13:26.000Z</time>
      </trkpt>
      <trkpt lat="46.90717" lon="6.37856">
        <ele>867.79998779297</ele>
        <time>2023-05-15T09:13:33.000Z</time>
      </trkpt>
      <trkpt lat="46.90711" lon="6.37854">
        <ele>867.79998779297</ele>
        <time>2023-05-15T09:13:36.000Z</time>
      </trkpt>
      <trkpt lat="46.90695" lon="6.37847">
        <ele>868.79998779297</ele>
        <time>2023-05-15T09:13:44.000Z</time>
      </trkpt>
      <trkpt lat="46.90692" lon="6.37845">
        <ele>869</ele>
        <time>2023-05-15T09:13:46.000Z</time>
      </trkpt>
      <trkpt lat="46.90675" lon="6.37837">
        <ele>870</ele>
        <time>2023-05-15T09:13:55.000Z</time>
      </trkpt>
      <trkpt lat="46.9066" lon="6.37825">
        <ele>870.79998779297</ele>
        <time>2023-05-15T09:14:03.000Z</time>
      </trkpt>
      <trkpt lat="46.90657" lon="6.37822">
        <ele>871</ele>
        <time>2023-05-15T09:14:05.000Z</time>
      </trkpt>
      <trkpt lat="46.90637" lon="6.37804">
        <ele>872.20001220703</ele>
        <time>2023-05-15T09:14:16.000Z</time>
      </trkpt>
      <trkpt lat="46.90625" lon="6.37791">
        <ele>873.20001220703</ele>
        <time>2023-05-15T09:14:23.000Z</time>
      </trkpt>
      <trkpt lat="46.90616" lon="6.37782">
        <ele>873.79998779297</ele>
        <time>2023-05-15T09:14:28.000Z</time>
      </trkpt>
      <trkpt lat="46.90605" lon="6.3777">
        <ele>874.40002441406</ele>
        <time>2023-05-15T09:14:34.000Z</time>
      </trkpt>
      <trkpt lat="46.90591" lon="6.37757">
        <ele>875.20001220703</ele>
        <time>2023-05-15T09:14:42.000Z</time>
      </trkpt>
      <trkpt lat="46.90587" lon="6.37753">
        <ele>875.59997558594</ele>
        <time>2023-05-15T09:14:44.000Z</time>
      </trkpt>
      <trkpt lat="46.90572" lon="6.37737">
        <ele>876.59997558594</ele>
        <time>2023-05-15T09:14:53.000Z</time>
      </trkpt>
      <trkpt lat="46.90571" lon="6.37735">
        <ele>876.79998779297</ele>
        <time>2023-05-15T09:14:54.000Z</time>
      </trkpt>
      <trkpt lat="46.90556" lon="6.37716">
        <ele>877.40002441406</ele>
        <time>2023-05-15T09:15:03.000Z</time>
      </trkpt>
      <trkpt lat="46.9055" lon="6.37709">
        <ele>877.79998779297</ele>
        <time>2023-05-15T09:15:06.000Z</time>
      </trkpt>
      <trkpt lat="46.90541" lon="6.37695">
        <ele>878.40002441406</ele>
        <time>2023-05-15T09:15:12.000Z</time>
      </trkpt>
      <trkpt lat="46.90535" lon="6.3769">
        <ele>878.79998779297</ele>
        <time>2023-05-15T09:15:15.000Z</time>
      </trkpt>
      <trkpt lat="46.90522" lon="6.37677">
        <ele>879.59997558594</ele>
        <time>2023-05-15T09:15:22.000Z</time>
      </trkpt>
      <trkpt lat="46.90518" lon="6.37673">
        <ele>879.79998779297</ele>
        <time>2023-05-15T09:15:25.000Z</time>
      </trkpt>
      <trkpt lat="46.90503" lon="6.3766">
        <ele>881</ele>
        <time>2023-05-15T09:15:32.000Z</time>
      </trkpt>
      <trkpt lat="46.90502" lon="6.37658">
        <ele>881</ele>
        <time>2023-05-15T09:15:33.000Z</time>
      </trkpt>
      <trkpt lat="46.90492" lon="6.37646">
        <ele>882</ele>
        <time>2023-05-15T09:15:39.000Z</time>
      </trkpt>
      <trkpt lat="46.90487" lon="6.37639">
        <ele>882.59997558594</ele>
        <time>2023-05-15T09:15:42.000Z</time>
      </trkpt>
      <trkpt lat="46.90484" lon="6.37628">
        <ele>883.40002441406</ele>
        <time>2023-05-15T09:15:47.000Z</time>
      </trkpt>
      <trkpt lat="46.90482" lon="6.37613">
        <ele>883.79998779297</ele>
        <time>2023-05-15T09:15:51.000Z</time>
      </trkpt>
      <trkpt lat="46.90481" lon="6.37602">
        <ele>884.40002441406</ele>
        <time>2023-05-15T09:15:55.000Z</time>
      </trkpt>
      <trkpt lat="46.9048" lon="6.37587">
        <ele>885.40002441406</ele>
        <time>2023-05-15T09:16:00.000Z</time>
      </trkpt>
      <trkpt lat="46.9048" lon="6.37587">
        <ele>885.59997558594</ele>
        <time>2023-05-15T09:16:01.000Z</time>
      </trkpt>
      <trkpt lat="46.90477" lon="6.37564">
        <ele>886.59997558594</ele>
        <time>2023-05-15T09:16:07.000Z</time>
      </trkpt>
      <trkpt lat="46.90475" lon="6.37548">
        <ele>887</ele>
        <time>2023-05-15T09:16:12.000Z</time>
      </trkpt>
      <trkpt lat="46.9047" lon="6.37505">
        <ele>887</ele>
        <time>2023-05-15T09:16:23.000Z</time>
      </trkpt>
      <trkpt lat="46.90466" lon="6.37472">
        <ele>886.79998779297</ele>
        <time>2023-05-15T09:16:30.000Z</time>
      </trkpt>
      <trkpt lat="46.90463" lon="6.37432">
        <ele>886.59997558594</ele>
        <time>2023-05-15T09:16:37.000Z</time>
      </trkpt>
      <trkpt lat="46.90462" lon="6.37426">
        <ele>886.59997558594</ele>
        <time>2023-05-15T09:16:38.000Z</time>
      </trkpt>
      <trkpt lat="46.90462" lon="6.37404">
        <ele>886.40002441406</ele>
        <time>2023-05-15T09:16:42.000Z</time>
      </trkpt>
      <trkpt lat="46.90464" lon="6.37389">
        <ele>886</ele>
        <time>2023-05-15T09:16:45.000Z</time>
      </trkpt>
      <trkpt lat="46.90472" lon="6.37347">
        <ele>885.59997558594</ele>
        <time>2023-05-15T09:16:53.000Z</time>
      </trkpt>
      <trkpt lat="46.90473" lon="6.37316">
        <ele>885.40002441406</ele>
        <time>2023-05-15T09:16:58.000Z</time>
      </trkpt>
      <trkpt lat="46.90475" lon="6.3727">
        <ele>884.59997558594</ele>
        <time>2023-05-15T09:17:01.000Z</time>
      </trkpt>
      <trkpt lat="46.90476" lon="6.37257">
        <ele>883.79998779297</ele>
        <time>2023-05-15T09:17:02.000Z</time>
      </trkpt>
      <trkpt lat="46.90482" lon="6.37217">
        <ele>882.40002441406</ele>
        <time>2023-05-15T09:17:05.000Z</time>
      </trkpt>
      <trkpt lat="46.90483" lon="6.37204">
        <ele>882</ele>
        <time>2023-05-15T09:17:06.000Z</time>
      </trkpt>
      <trkpt lat="46.90481" lon="6.3718">
        <ele>881</ele>
        <time>2023-05-15T09:17:08.000Z</time>
      </trkpt>
      <trkpt lat="46.90478" lon="6.37169">
        <ele>879.79998779297</ele>
        <time>2023-05-15T09:17:09.000Z</time>
      </trkpt>
      <trkpt lat="46.90473" lon="6.3715">
        <ele>878.79998779297</ele>
        <time>2023-05-15T09:17:12.000Z</time>
      </trkpt>
      <trkpt lat="46.90467" lon="6.37131">
        <ele>878.59997558594</ele>
        <time>2023-05-15T09:17:15.000Z</time>
      </trkpt>
      <trkpt lat="46.9046" lon="6.37108">
        <ele>879</ele>
        <time>2023-05-15T09:17:19.000Z</time>
      </trkpt>
      <trkpt lat="46.90456" lon="6.37102">
        <ele>879.40002441406</ele>
        <time>2023-05-15T09:17:21.000Z</time>
      </trkpt>
      <trkpt lat="46.90449" lon="6.37102">
        <ele>879.79998779297</ele>
        <time>2023-05-15T09:17:23.000Z</time>
      </trkpt>
      <trkpt lat="46.90438" lon="6.37119">
        <ele>879.79998779297</ele>
        <time>2023-05-15T09:17:27.000Z</time>
      </trkpt>
      <trkpt lat="46.90434" lon="6.37125">
        <ele>879.79998779297</ele>
        <time>2023-05-15T09:17:28.000Z</time>
      </trkpt>
      <trkpt lat="46.90425" lon="6.37136">
        <ele>879.40002441406</ele>
        <time>2023-05-15T09:17:30.000Z</time>
      </trkpt>
      <trkpt lat="46.90419" lon="6.3714">
        <ele>879.20001220703</ele>
        <time>2023-05-15T09:17:31.000Z</time>
      </trkpt>
      <trkpt lat="46.90413" lon="6.37142">
        <ele>879</ele>
        <time>2023-05-15T09:17:32.000Z</time>
      </trkpt>
      <trkpt lat="46.904" lon="6.37145">
        <ele>878.59997558594</ele>
        <time>2023-05-15T09:17:34.000Z</time>
      </trkpt>
      <trkpt lat="46.90387" lon="6.37147">
        <ele>878.20001220703</ele>
        <time>2023-05-15T09:17:36.000Z</time>
      </trkpt>
      <trkpt lat="46.9036" lon="6.37151">
        <ele>877.59997558594</ele>
        <time>2023-05-15T09:17:40.000Z</time>
      </trkpt>
      <trkpt lat="46.90353" lon="6.37153">
        <ele>877.20001220703</ele>
        <time>2023-05-15T09:17:41.000Z</time>
      </trkpt>
      <trkpt lat="46.9034" lon="6.37159">
        <ele>876.59997558594</ele>
        <time>2023-05-15T09:17:43.000Z</time>
      </trkpt>
      <trkpt lat="46.90334" lon="6.37164">
        <ele>876.59997558594</ele>
        <time>2023-05-15T09:17:44.000Z</time>
      </trkpt>
      <trkpt lat="46.90329" lon="6.37168">
        <ele>876.40002441406</ele>
        <time>2023-05-15T09:17:45.000Z</time>
      </trkpt>
      <trkpt lat="46.9032" lon="6.37181">
        <ele>876</ele>
        <time>2023-05-15T09:17:47.000Z</time>
      </trkpt>
      <trkpt lat="46.90304" lon="6.37222">
        <ele>875.59997558594</ele>
        <time>2023-05-15T09:17:53.000Z</time>
      </trkpt>
      <trkpt lat="46.90302" lon="6.37228">
        <ele>875.79998779297</ele>
        <time>2023-05-15T09:17:54.000Z</time>
      </trkpt>
      <trkpt lat="46.90289" lon="6.37257">
        <ele>875.59997558594</ele>
        <time>2023-05-15T09:17:59.000Z</time>
      </trkpt>
      <trkpt lat="46.90286" lon="6.37263">
        <ele>875.79998779297</ele>
        <time>2023-05-15T09:18:00.000Z</time>
      </trkpt>
      <trkpt lat="46.90275" lon="6.37286">
        <ele>875.79998779297</ele>
        <time>2023-05-15T09:18:04.000Z</time>
      </trkpt>
      <trkpt lat="46.90262" lon="6.37313">
        <ele>876</ele>
        <time>2023-05-15T09:18:09.000Z</time>
      </trkpt>
      <trkpt lat="46.90256" lon="6.37328">
        <ele>876.59997558594</ele>
        <time>2023-05-15T09:18:12.000Z</time>
      </trkpt>
      <trkpt lat="46.90255" lon="6.37332">
        <ele>876.79998779297</ele>
        <time>2023-05-15T09:18:13.000Z</time>
      </trkpt>
      <trkpt lat="46.90254" lon="6.37337">
        <ele>876.79998779297</ele>
        <time>2023-05-15T09:18:14.000Z</time>
      </trkpt>
      <trkpt lat="46.90251" lon="6.3736">
        <ele>877.59997558594</ele>
        <time>2023-05-15T09:18:20.000Z</time>
      </trkpt>
      <trkpt lat="46.9025" lon="6.37364">
        <ele>877.79998779297</ele>
        <time>2023-05-15T09:18:21.000Z</time>
      </trkpt>
      <trkpt lat="46.90248" lon="6.3739">
        <ele>879</ele>
        <time>2023-05-15T09:18:27.000Z</time>
      </trkpt>
      <trkpt lat="46.90247" lon="6.37402">
        <ele>879.59997558594</ele>
        <time>2023-05-15T09:18:30.000Z</time>
      </trkpt>
      <trkpt lat="46.90246" lon="6.37409">
        <ele>880.20001220703</ele>
        <time>2023-05-15T09:18:32.000Z</time>
      </trkpt>
      <trkpt lat="46.90243" lon="6.37421">
        <ele>881.40002441406</ele>
        <time>2023-05-15T09:18:36.000Z</time>
      </trkpt>
      <trkpt lat="46.90242" lon="6.37424">
        <ele>882</ele>
        <time>2023-05-15T09:18:38.000Z</time>
      </trkpt>
      <trkpt lat="46.90239" lon="6.37436">
        <ele>882.59997558594</ele>
        <time>2023-05-15T09:18:41.000Z</time>
      </trkpt>
      <trkpt lat="46.90234" lon="6.37451">
        <ele>883.79998779297</ele>
        <time>2023-05-15T09:18:47.000Z</time>
      </trkpt>
      <trkpt lat="46.90231" lon="6.37463">
        <ele>885</ele>
        <time>2023-05-15T09:18:52.000Z</time>
      </trkpt>
      <trkpt lat="46.90229" lon="6.3747">
        <ele>885.40002441406</ele>
        <time>2023-05-15T09:18:55.000Z</time>
      </trkpt>
      <trkpt lat="46.90227" lon="6.37479">
        <ele>886.20001220703</ele>
        <time>2023-05-15T09:18:59.000Z</time>
      </trkpt>
      <trkpt lat="46.90225" lon="6.3749">
        <ele>887.20001220703</ele>
        <time>2023-05-15T09:19:04.000Z</time>
      </trkpt>
      <trkpt lat="46.90223" lon="6.37497">
        <ele>887.59997558594</ele>
        <time>2023-05-15T09:19:07.000Z</time>
      </trkpt>
      <trkpt lat="46.90221" lon="6.37505">
        <ele>888.40002441406</ele>
        <time>2023-05-15T09:19:10.000Z</time>
      </trkpt>
      <trkpt lat="46.90216" lon="6.37521">
        <ele>889.40002441406</ele>
        <time>2023-05-15T09:19:17.000Z</time>
      </trkpt>
      <trkpt lat="46.90215" lon="6.37523">
        <ele>889.59997558594</ele>
        <time>2023-05-15T09:19:18.000Z</time>
      </trkpt>
      <trkpt lat="46.9021" lon="6.37545">
        <ele>890.40002441406</ele>
        <time>2023-05-15T09:19:27.000Z</time>
      </trkpt>
      <trkpt lat="46.90209" lon="6.37547">
        <ele>890.59997558594</ele>
        <time>2023-05-15T09:19:28.000Z</time>
      </trkpt>
      <trkpt lat="46.90205" lon="6.37562">
        <ele>891.79998779297</ele>
        <time>2023-05-15T09:19:34.000Z</time>
      </trkpt>
      <trkpt lat="46.90204" lon="6.3757">
        <ele>892.20001220703</ele>
        <time>2023-05-15T09:19:37.000Z</time>
      </trkpt>
      <trkpt lat="46.90202" lon="6.37581">
        <ele>893</ele>
        <time>2023-05-15T09:19:42.000Z</time>
      </trkpt>
      <trkpt lat="46.902" lon="6.37591">
        <ele>893.40002441406</ele>
        <time>2023-05-15T09:19:46.000Z</time>
      </trkpt>
      <trkpt lat="46.90198" lon="6.37603">
        <ele>894</ele>
        <time>2023-05-15T09:19:51.000Z</time>
      </trkpt>
      <trkpt lat="46.90195" lon="6.3762">
        <ele>894.79998779297</ele>
        <time>2023-05-15T09:19:58.000Z</time>
      </trkpt>
      <trkpt lat="46.90195" lon="6.37622">
        <ele>895.20001220703</ele>
        <time>2023-05-15T09:19:59.000Z</time>
      </trkpt>
      <trkpt lat="46.90193" lon="6.37637">
        <ele>896.20001220703</ele>
        <time>2023-05-15T09:20:06.000Z</time>
      </trkpt>
      <trkpt lat="46.90191" lon="6.37664">
        <ele>897.40002441406</ele>
        <time>2023-05-15T09:20:16.000Z</time>
      </trkpt>
      <trkpt lat="46.9019" lon="6.37674">
        <ele>898.20001220703</ele>
        <time>2023-05-15T09:20:20.000Z</time>
      </trkpt>
      <trkpt lat="46.90189" lon="6.37679">
        <ele>898.59997558594</ele>
        <time>2023-05-15T09:20:22.000Z</time>
      </trkpt>
      <trkpt lat="46.90186" lon="6.37687">
        <ele>899.20001220703</ele>
        <time>2023-05-15T09:20:26.000Z</time>
      </trkpt>
      <trkpt lat="46.90182" lon="6.37694">
        <ele>899.59997558594</ele>
        <time>2023-05-15T09:20:29.000Z</time>
      </trkpt>
      <trkpt lat="46.90174" lon="6.37708">
        <ele>900.79998779297</ele>
        <time>2023-05-15T09:20:36.000Z</time>
      </trkpt>
      <trkpt lat="46.90164" lon="6.37722">
        <ele>901.79998779297</ele>
        <time>2023-05-15T09:20:43.000Z</time>
      </trkpt>
      <trkpt lat="46.90161" lon="6.37727">
        <ele>902.40002441406</ele>
        <time>2023-05-15T09:20:46.000Z</time>
      </trkpt>
      <trkpt lat="46.90156" lon="6.37732">
        <ele>903</ele>
        <time>2023-05-15T09:20:49.000Z</time>
      </trkpt>
      <trkpt lat="46.9015" lon="6.37738">
        <ele>903.79998779297</ele>
        <time>2023-05-15T09:20:54.000Z</time>
      </trkpt>
      <trkpt lat="46.90147" lon="6.37741">
        <ele>904.40002441406</ele>
        <time>2023-05-15T09:20:56.000Z</time>
      </trkpt>
      <trkpt lat="46.90138" lon="6.37743">
        <ele>905.40002441406</ele>
        <time>2023-05-15T09:21:02.000Z</time>
      </trkpt>
      <trkpt lat="46.90136" lon="6.37741">
        <ele>905.59997558594</ele>
        <time>2023-05-15T09:21:03.000Z</time>
      </trkpt>
      <trkpt lat="46.90125" lon="6.37726">
        <ele>906.40002441406</ele>
        <time>2023-05-15T09:21:09.000Z</time>
      </trkpt>
      <trkpt lat="46.90107" lon="6.37701">
        <ele>906.20001220703</ele>
        <time>2023-05-15T09:21:14.000Z</time>
      </trkpt>
      <trkpt lat="46.9009" lon="6.37682">
        <ele>905</ele>
        <time>2023-05-15T09:21:18.000Z</time>
      </trkpt>
      <trkpt lat="46.90087" lon="6.37679">
        <ele>904.59997558594</ele>
        <time>2023-05-15T09:21:19.000Z</time>
      </trkpt>
      <trkpt lat="46.90084" lon="6.37676">
        <ele>904.40002441406</ele>
        <time>2023-05-15T09:21:20.000Z</time>
      </trkpt>
      <trkpt lat="46.90073" lon="6.37672">
        <ele>903.59997558594</ele>
        <time>2023-05-15T09:21:23.000Z</time>
      </trkpt>
      <trkpt lat="46.90069" lon="6.37671">
        <ele>903.20001220703</ele>
        <time>2023-05-15T09:21:25.000Z</time>
      </trkpt>
      <trkpt lat="46.90049" lon="6.37666">
        <ele>903.20001220703</ele>
        <time>2023-05-15T09:21:33.000Z</time>
      </trkpt>
      <trkpt lat="46.90034" lon="6.37659">
        <ele>903</ele>
        <time>2023-05-15T09:21:37.000Z</time>
      </trkpt>
      <trkpt lat="46.90029" lon="6.37657">
        <ele>902.79998779297</ele>
        <time>2023-05-15T09:21:38.000Z</time>
      </trkpt>
      <trkpt lat="46.90024" lon="6.37655">
        <ele>902.59997558594</ele>
        <time>2023-05-15T09:21:39.000Z</time>
      </trkpt>
      <trkpt lat="46.9002" lon="6.37652">
        <ele>902.40002441406</ele>
        <time>2023-05-15T09:21:40.000Z</time>
      </trkpt>
      <trkpt lat="46.90003" lon="6.37638">
        <ele>901.40002441406</ele>
        <time>2023-05-15T09:21:45.000Z</time>
      </trkpt>
      <trkpt lat="46.89993" lon="6.37629">
        <ele>901.20001220703</ele>
        <time>2023-05-15T09:21:47.000Z</time>
      </trkpt>
      <trkpt lat="46.89988" lon="6.37622">
        <ele>901</ele>
        <time>2023-05-15T09:21:49.000Z</time>
      </trkpt>
      <trkpt lat="46.89983" lon="6.376">
        <ele>900.79998779297</ele>
        <time>2023-05-15T09:21:54.000Z</time>
      </trkpt>
      <trkpt lat="46.89979" lon="6.37577">
        <ele>900.20001220703</ele>
        <time>2023-05-15T09:21:59.000Z</time>
      </trkpt>
      <trkpt lat="46.89977" lon="6.3757">
        <ele>899</ele>
        <time>2023-05-15T09:22:01.000Z</time>
      </trkpt>
      <trkpt lat="46.89969" lon="6.37559">
        <ele>897.59997558594</ele>
        <time>2023-05-15T09:22:05.000Z</time>
      </trkpt>
      <trkpt lat="46.89967" lon="6.37556">
        <ele>897.40002441406</ele>
        <time>2023-05-15T09:22:06.000Z</time>
      </trkpt>
      <trkpt lat="46.89961" lon="6.37549">
        <ele>896.59997558594</ele>
        <time>2023-05-15T09:22:09.000Z</time>
      </trkpt>
      <trkpt lat="46.89954" lon="6.37542">
        <ele>895.40002441406</ele>
        <time>2023-05-15T09:22:12.000Z</time>
      </trkpt>
      <trkpt lat="46.8995" lon="6.3754">
        <ele>895.20001220703</ele>
        <time>2023-05-15T09:22:13.000Z</time>
      </trkpt>
      <trkpt lat="46.89944" lon="6.3754">
        <ele>894.20001220703</ele>
        <time>2023-05-15T09:22:15.000Z</time>
      </trkpt>
      <trkpt lat="46.89938" lon="6.37542">
        <ele>893.20001220703</ele>
        <time>2023-05-15T09:22:18.000Z</time>
      </trkpt>
      <trkpt lat="46.89935" lon="6.37543">
        <ele>893</ele>
        <time>2023-05-15T09:22:19.000Z</time>
      </trkpt>
      <trkpt lat="46.8992" lon="6.37549">
        <ele>892.20001220703</ele>
        <time>2023-05-15T09:22:24.000Z</time>
      </trkpt>
      <trkpt lat="46.89903" lon="6.37552">
        <ele>892</ele>
        <time>2023-05-15T09:22:30.000Z</time>
      </trkpt>
      <trkpt lat="46.89895" lon="6.37546">
        <ele>891.59997558594</ele>
        <time>2023-05-15T09:22:34.000Z</time>
      </trkpt>
      <trkpt lat="46.89893" lon="6.37532">
        <ele>891.59997558594</ele>
        <time>2023-05-15T09:22:38.000Z</time>
      </trkpt>
      <trkpt lat="46.89894" lon="6.37528">
        <ele>891.59997558594</ele>
        <time>2023-05-15T09:22:39.000Z</time>
      </trkpt>
      <trkpt lat="46.89895" lon="6.37524">
        <ele>891.79998779297</ele>
        <time>2023-05-15T09:22:40.000Z</time>
      </trkpt>
      <trkpt lat="46.89896" lon="6.3751">
        <ele>892.40002441406</ele>
        <time>2023-05-15T09:22:43.000Z</time>
      </trkpt>
      <trkpt lat="46.89896" lon="6.37503">
        <ele>893.59997558594</ele>
        <time>2023-05-15T09:22:46.000Z</time>
      </trkpt>
      <trkpt lat="46.89894" lon="6.37501">
        <ele>894.20001220703</ele>
        <time>2023-05-15T09:22:47.000Z</time>
      </trkpt>
      <trkpt lat="46.89891" lon="6.37499">
        <ele>894.40002441406</ele>
        <time>2023-05-15T09:22:48.000Z</time>
      </trkpt>
      <trkpt lat="46.8989" lon="6.37497">
        <ele>895</ele>
        <time>2023-05-15T09:22:49.000Z</time>
      </trkpt>
      <trkpt lat="46.89886" lon="6.3749">
        <ele>895.79998779297</ele>
        <time>2023-05-15T09:22:52.000Z</time>
      </trkpt>
      <trkpt lat="46.89885" lon="6.37489">
        <ele>896.20001220703</ele>
        <time>2023-05-15T09:22:53.000Z</time>
      </trkpt>
      <trkpt lat="46.89882" lon="6.37488">
        <ele>896.59997558594</ele>
        <time>2023-05-15T09:22:55.000Z</time>
      </trkpt>
      <trkpt lat="46.89882" lon="6.37488">
        <ele>897.20001220703</ele>
        <time>2023-05-15T09:22:57.000Z</time>
      </trkpt>
      <trkpt lat="46.89866" lon="6.37485">
        <ele>900</ele>
        <time>2023-05-15T09:23:40.000Z</time>
      </trkpt>
      <trkpt lat="46.89865" lon="6.37485">
        <ele>900</ele>
        <time>2023-05-15T09:23:41.000Z</time>
      </trkpt>
      <trkpt lat="46.89848" lon="6.3748">
        <ele>900.40002441406</ele>
        <time>2023-05-15T09:23:48.000Z</time>
      </trkpt>
      <trkpt lat="46.89835" lon="6.37473">
        <ele>901.20001220703</ele>
        <time>2023-05-15T09:23:55.000Z</time>
      </trkpt>
      <trkpt lat="46.89833" lon="6.37472">
        <ele>901.40002441406</ele>
        <time>2023-05-15T09:23:56.000Z</time>
      </trkpt>
      <trkpt lat="46.89823" lon="6.37468">
        <ele>902</ele>
        <time>2023-05-15T09:24:02.000Z</time>
      </trkpt>
      <trkpt lat="46.89821" lon="6.37467">
        <ele>902.20001220703</ele>
        <time>2023-05-15T09:24:03.000Z</time>
      </trkpt>
      <trkpt lat="46.89811" lon="6.37461">
        <ele>903.40002441406</ele>
        <time>2023-05-15T09:24:09.000Z</time>
      </trkpt>
      <trkpt lat="46.89807" lon="6.37458">
        <ele>903.79998779297</ele>
        <time>2023-05-15T09:24:12.000Z</time>
      </trkpt>
      <trkpt lat="46.89801" lon="6.37454">
        <ele>904.40002441406</ele>
        <time>2023-05-15T09:24:17.000Z</time>
      </trkpt>
      <trkpt lat="46.89798" lon="6.37453">
        <ele>904.79998779297</ele>
        <time>2023-05-15T09:24:19.000Z</time>
      </trkpt>
      <trkpt lat="46.8979" lon="6.37451">
        <ele>905</ele>
        <time>2023-05-15T09:24:24.000Z</time>
      </trkpt>
      <trkpt lat="46.89782" lon="6.37448">
        <ele>905.59997558594</ele>
        <time>2023-05-15T09:24:28.000Z</time>
      </trkpt>
      <trkpt lat="46.89779" lon="6.37446">
        <ele>905.59997558594</ele>
        <time>2023-05-15T09:24:30.000Z</time>
      </trkpt>
      <trkpt lat="46.89779" lon="6.37445">
        <ele>905.79998779297</ele>
        <time>2023-05-15T09:24:31.000Z</time>
      </trkpt>
      <trkpt lat="46.89768" lon="6.37434">
        <ele>906.59997558594</ele>
        <time>2023-05-15T09:24:38.000Z</time>
      </trkpt>
      <trkpt lat="46.89767" lon="6.37432">
        <ele>907</ele>
        <time>2023-05-15T09:24:39.000Z</time>
      </trkpt>
      <trkpt lat="46.89763" lon="6.37428">
        <ele>907.59997558594</ele>
        <time>2023-05-15T09:24:42.000Z</time>
      </trkpt>
      <trkpt lat="46.89756" lon="6.37423">
        <ele>908.40002441406</ele>
        <time>2023-05-15T09:24:46.000Z</time>
      </trkpt>
      <trkpt lat="46.89754" lon="6.37422">
        <ele>908.59997558594</ele>
        <time>2023-05-15T09:24:47.000Z</time>
      </trkpt>
      <trkpt lat="46.89751" lon="6.37421">
        <ele>909.20001220703</ele>
        <time>2023-05-15T09:24:49.000Z</time>
      </trkpt>
      <trkpt lat="46.89751" lon="6.3742">
        <ele>909.79998779297</ele>
        <time>2023-05-15T09:24:51.000Z</time>
      </trkpt>
      <trkpt lat="46.89751" lon="6.3742">
        <ele>910</ele>
        <time>2023-05-15T09:24:52.000Z</time>
      </trkpt>
      <trkpt lat="46.89643" lon="6.3736">
        <ele>925.40002441406</ele>
        <time>2023-05-15T09:28:34.000Z</time>
      </trkpt>
      <trkpt lat="46.89641" lon="6.37361">
        <ele>925.40002441406</ele>
        <time>2023-05-15T09:28:35.000Z</time>
      </trkpt>
      <trkpt lat="46.89639" lon="6.37362">
        <ele>925.40002441406</ele>
        <time>2023-05-15T09:28:36.000Z</time>
      </trkpt>
      <trkpt lat="46.89626" lon="6.37361">
        <ele>925.79998779297</ele>
        <time>2023-05-15T09:28:42.000Z</time>
      </trkpt>
      <trkpt lat="46.89612" lon="6.37353">
        <ele>926.59997558594</ele>
        <time>2023-05-15T09:28:49.000Z</time>
      </trkpt>
      <trkpt lat="46.89604" lon="6.37349">
        <ele>927.20001220703</ele>
        <time>2023-05-15T09:28:53.000Z</time>
      </trkpt>
      <trkpt lat="46.89597" lon="6.37346">
        <ele>928</ele>
        <time>2023-05-15T09:28:57.000Z</time>
      </trkpt>
      <trkpt lat="46.89585" lon="6.37342">
        <ele>928.40002441406</ele>
        <time>2023-05-15T09:29:04.000Z</time>
      </trkpt>
      <trkpt lat="46.89581" lon="6.37343">
        <ele>928.59997558594</ele>
        <time>2023-05-15T09:29:07.000Z</time>
      </trkpt>
      <trkpt lat="46.8958" lon="6.37345">
        <ele>928.79998779297</ele>
        <time>2023-05-15T09:29:09.000Z</time>
      </trkpt>
      <trkpt lat="46.89581" lon="6.37346">
        <ele>928.79998779297</ele>
        <time>2023-05-15T09:29:10.000Z</time>
      </trkpt>
      <trkpt lat="46.89584" lon="6.37347">
        <ele>928.79998779297</ele>
        <time>2023-05-15T09:29:12.000Z</time>
      </trkpt>
      <trkpt lat="46.89591" lon="6.37345">
        <ele>928.79998779297</ele>
        <time>2023-05-15T09:29:15.000Z</time>
      </trkpt>
      <trkpt lat="46.89603" lon="6.37354">
        <ele>928.79998779297</ele>
        <time>2023-05-15T09:29:20.000Z</time>
      </trkpt>
      <trkpt lat="46.89625" lon="6.37366">
        <ele>928.20001220703</ele>
        <time>2023-05-15T09:29:27.000Z</time>
      </trkpt>
      <trkpt lat="46.89638" lon="6.37366">
        <ele>927.79998779297</ele>
        <time>2023-05-15T09:29:30.000Z</time>
      </trkpt>
      <trkpt lat="46.89642" lon="6.37362">
        <ele>927.59997558594</ele>
        <time>2023-05-15T09:29:31.000Z</time>
      </trkpt>
      <trkpt lat="46.89644" lon="6.37357">
        <ele>927.40002441406</ele>
        <time>2023-05-15T09:29:32.000Z</time>
      </trkpt>
      <trkpt lat="46.89647" lon="6.3735">
        <ele>927.40002441406</ele>
        <time>2023-05-15T09:29:34.000Z</time>
      </trkpt>
      <trkpt lat="46.89646" lon="6.37332">
        <ele>927.20001220703</ele>
        <time>2023-05-15T09:29:35.000Z</time>
      </trkpt>
      <trkpt lat="46.89643" lon="6.37324">
        <ele>927</ele>
        <time>2023-05-15T09:29:36.000Z</time>
      </trkpt>
      <trkpt lat="46.89639" lon="6.37318">
        <ele>926.79998779297</ele>
        <time>2023-05-15T09:29:37.000Z</time>
      </trkpt>
      <trkpt lat="46.89627" lon="6.37307">
        <ele>926.40002441406</ele>
        <time>2023-05-15T09:29:39.000Z</time>
      </trkpt>
      <trkpt lat="46.89619" lon="6.37301">
        <ele>925.79998779297</ele>
        <time>2023-05-15T09:29:40.000Z</time>
      </trkpt>
      <trkpt lat="46.89605" lon="6.37291">
        <ele>924.79998779297</ele>
        <time>2023-05-15T09:29:42.000Z</time>
      </trkpt>
      <trkpt lat="46.89586" lon="6.37272">
        <ele>923.79998779297</ele>
        <time>2023-05-15T09:29:45.000Z</time>
      </trkpt>
      <trkpt lat="46.89576" lon="6.37257">
        <ele>923.20001220703</ele>
        <time>2023-05-15T09:29:47.000Z</time>
      </trkpt>
      <trkpt lat="46.89571" lon="6.37248">
        <ele>922.59997558594</ele>
        <time>2023-05-15T09:29:48.000Z</time>
      </trkpt>
      <trkpt lat="46.89559" lon="6.37229">
        <ele>922</ele>
        <time>2023-05-15T09:29:50.000Z</time>
      </trkpt>
      <trkpt lat="46.89552" lon="6.37222">
        <ele>921.79998779297</ele>
        <time>2023-05-15T09:29:51.000Z</time>
      </trkpt>
      <trkpt lat="46.89547" lon="6.37216">
        <ele>921.20001220703</ele>
        <time>2023-05-15T09:29:52.000Z</time>
      </trkpt>
      <trkpt lat="46.89532" lon="6.37203">
        <ele>920.40002441406</ele>
        <time>2023-05-15T09:29:54.000Z</time>
      </trkpt>
      <trkpt lat="46.89523" lon="6.37197">
        <ele>919.79998779297</ele>
        <time>2023-05-15T09:29:55.000Z</time>
      </trkpt>
      <trkpt lat="46.895" lon="6.37186">
        <ele>918.59997558594</ele>
        <time>2023-05-15T09:29:58.000Z</time>
      </trkpt>
      <trkpt lat="46.89491" lon="6.37184">
        <ele>918</ele>
        <time>2023-05-15T09:29:59.000Z</time>
      </trkpt>
      <trkpt lat="46.8948" lon="6.37182">
        <ele>917.59997558594</ele>
        <time>2023-05-15T09:30:00.000Z</time>
      </trkpt>
      <trkpt lat="46.89471" lon="6.37182">
        <ele>917</ele>
        <time>2023-05-15T09:30:01.000Z</time>
      </trkpt>
      <trkpt lat="46.89457" lon="6.37182">
        <ele>916.20001220703</ele>
        <time>2023-05-15T09:30:03.000Z</time>
      </trkpt>
      <trkpt lat="46.89449" lon="6.37181">
        <ele>915.40002441406</ele>
        <time>2023-05-15T09:30:04.000Z</time>
      </trkpt>
      <trkpt lat="46.8943" lon="6.3718">
        <ele>914.20001220703</ele>
        <time>2023-05-15T09:30:06.000Z</time>
      </trkpt>
      <trkpt lat="46.89415" lon="6.37179">
        <ele>913</ele>
        <time>2023-05-15T09:30:08.000Z</time>
      </trkpt>
      <trkpt lat="46.89396" lon="6.37178">
        <ele>911.79998779297</ele>
        <time>2023-05-15T09:30:10.000Z</time>
      </trkpt>
      <trkpt lat="46.89371" lon="6.37172">
        <ele>910.20001220703</ele>
        <time>2023-05-15T09:30:13.000Z</time>
      </trkpt>
      <trkpt lat="46.89362" lon="6.37168">
        <ele>910</ele>
        <time>2023-05-15T09:30:14.000Z</time>
      </trkpt>
      <trkpt lat="46.89353" lon="6.37163">
        <ele>909.20001220703</ele>
        <time>2023-05-15T09:30:15.000Z</time>
      </trkpt>
      <trkpt lat="46.89343" lon="6.37155">
        <ele>909</ele>
        <time>2023-05-15T09:30:16.000Z</time>
      </trkpt>
      <trkpt lat="46.89329" lon="6.3714">
        <ele>907.79998779297</ele>
        <time>2023-05-15T09:30:18.000Z</time>
      </trkpt>
      <trkpt lat="46.89303" lon="6.37114">
        <ele>906.79998779297</ele>
        <time>2023-05-15T09:30:21.000Z</time>
      </trkpt>
      <trkpt lat="46.89294" lon="6.37106">
        <ele>906.40002441406</ele>
        <time>2023-05-15T09:30:22.000Z</time>
      </trkpt>
      <trkpt lat="46.89279" lon="6.37091">
        <ele>905</ele>
        <time>2023-05-15T09:30:24.000Z</time>
      </trkpt>
      <trkpt lat="46.89259" lon="6.37073">
        <ele>904</ele>
        <time>2023-05-15T09:30:26.000Z</time>
      </trkpt>
      <trkpt lat="46.89249" lon="6.37065">
        <ele>903.20001220703</ele>
        <time>2023-05-15T09:30:27.000Z</time>
      </trkpt>
      <trkpt lat="46.8924" lon="6.37057">
        <ele>902.59997558594</ele>
        <time>2023-05-15T09:30:28.000Z</time>
      </trkpt>
      <trkpt lat="46.89223" lon="6.37042">
        <ele>901.40002441406</ele>
        <time>2023-05-15T09:30:30.000Z</time>
      </trkpt>
      <trkpt lat="46.89192" lon="6.37015">
        <ele>899.79998779297</ele>
        <time>2023-05-15T09:30:33.000Z</time>
      </trkpt>
      <trkpt lat="46.89185" lon="6.37008">
        <ele>898.79998779297</ele>
        <time>2023-05-15T09:30:34.000Z</time>
      </trkpt>
      <trkpt lat="46.89176" lon="6.37">
        <ele>898.20001220703</ele>
        <time>2023-05-15T09:30:35.000Z</time>
      </trkpt>
      <trkpt lat="46.89159" lon="6.36984">
        <ele>896.79998779297</ele>
        <time>2023-05-15T09:30:37.000Z</time>
      </trkpt>
      <trkpt lat="46.89146" lon="6.36972">
        <ele>895.40002441406</ele>
        <time>2023-05-15T09:30:39.000Z</time>
      </trkpt>
      <trkpt lat="46.89141" lon="6.36967">
        <ele>894.20001220703</ele>
        <time>2023-05-15T09:30:40.000Z</time>
      </trkpt>
      <trkpt lat="46.89135" lon="6.3696">
        <ele>893.40002441406</ele>
        <time>2023-05-15T09:30:41.000Z</time>
      </trkpt>
      <trkpt lat="46.89131" lon="6.36955">
        <ele>893</ele>
        <time>2023-05-15T09:30:42.000Z</time>
      </trkpt>
      <trkpt lat="46.89129" lon="6.36952">
        <ele>892</ele>
        <time>2023-05-15T09:30:43.000Z</time>
      </trkpt>
      <trkpt lat="46.89127" lon="6.36948">
        <ele>891.59997558594</ele>
        <time>2023-05-15T09:30:44.000Z</time>
      </trkpt>
      <trkpt lat="46.89125" lon="6.36944">
        <ele>890.40002441406</ele>
        <time>2023-05-15T09:30:45.000Z</time>
      </trkpt>
      <trkpt lat="46.89122" lon="6.36938">
        <ele>888.79998779297</ele>
        <time>2023-05-15T09:30:47.000Z</time>
      </trkpt>
      <trkpt lat="46.89117" lon="6.36933">
        <ele>887.20001220703</ele>
        <time>2023-05-15T09:30:50.000Z</time>
      </trkpt>
      <trkpt lat="46.89112" lon="6.3693">
        <ele>886.79998779297</ele>
        <time>2023-05-15T09:30:52.000Z</time>
      </trkpt>
      <trkpt lat="46.89107" lon="6.36927">
        <ele>886.59997558594</ele>
        <time>2023-05-15T09:30:55.000Z</time>
      </trkpt>
      <trkpt lat="46.89101" lon="6.36923">
        <ele>886.59997558594</ele>
        <time>2023-05-15T09:30:58.000Z</time>
      </trkpt>
      <trkpt lat="46.89096" lon="6.36922">
        <ele>887.59997558594</ele>
        <time>2023-05-15T09:31:01.000Z</time>
      </trkpt>
      <trkpt lat="46.89088" lon="6.3692">
        <ele>888.20001220703</ele>
        <time>2023-05-15T09:31:05.000Z</time>
      </trkpt>
      <trkpt lat="46.89082" lon="6.36917">
        <ele>889.20001220703</ele>
        <time>2023-05-15T09:31:08.000Z</time>
      </trkpt>
      <trkpt lat="46.89081" lon="6.36917">
        <ele>889.40002441406</ele>
        <time>2023-05-15T09:31:09.000Z</time>
      </trkpt>
      <trkpt lat="46.89077" lon="6.36916">
        <ele>889.59997558594</ele>
        <time>2023-05-15T09:31:11.000Z</time>
      </trkpt>
      <trkpt lat="46.89071" lon="6.36913">
        <ele>890.20001220703</ele>
        <time>2023-05-15T09:31:14.000Z</time>
      </trkpt>
      <trkpt lat="46.89066" lon="6.36914">
        <ele>890.59997558594</ele>
        <time>2023-05-15T09:31:17.000Z</time>
      </trkpt>
      <trkpt lat="46.89062" lon="6.36922">
        <ele>891</ele>
        <time>2023-05-15T09:31:20.000Z</time>
      </trkpt>
      <trkpt lat="46.8906" lon="6.36926">
        <ele>891.40002441406</ele>
        <time>2023-05-15T09:31:22.000Z</time>
      </trkpt>
      <trkpt lat="46.89058" lon="6.3693">
        <ele>891.59997558594</ele>
        <time>2023-05-15T09:31:24.000Z</time>
      </trkpt>
      <trkpt lat="46.89053" lon="6.36939">
        <ele>892.79998779297</ele>
        <time>2023-05-15T09:31:29.000Z</time>
      </trkpt>
      <trkpt lat="46.8905" lon="6.36945">
        <ele>894</ele>
        <time>2023-05-15T09:31:33.000Z</time>
      </trkpt>
      <trkpt lat="46.89047" lon="6.36951">
        <ele>895</ele>
        <time>2023-05-15T09:31:36.000Z</time>
      </trkpt>
      <trkpt lat="46.89041" lon="6.3696">
        <ele>896</ele>
        <time>2023-05-15T09:31:41.000Z</time>
      </trkpt>
      <trkpt lat="46.89036" lon="6.36964">
        <ele>897.40002441406</ele>
        <time>2023-05-15T09:31:45.000Z</time>
      </trkpt>
      <trkpt lat="46.89035" lon="6.36965">
        <ele>897.59997558594</ele>
        <time>2023-05-15T09:31:46.000Z</time>
      </trkpt>
      <trkpt lat="46.89035" lon="6.36969">
        <ele>898.79998779297</ele>
        <time>2023-05-15T09:31:49.000Z</time>
      </trkpt>
      <trkpt lat="46.89035" lon="6.36971">
        <ele>899.40002441406</ele>
        <time>2023-05-15T09:31:50.000Z</time>
      </trkpt>
      <trkpt lat="46.89036" lon="6.36976">
        <ele>899.79998779297</ele>
        <time>2023-05-15T09:31:53.000Z</time>
      </trkpt>
      <trkpt lat="46.89037" lon="6.36978">
        <ele>900</ele>
        <time>2023-05-15T09:31:54.000Z</time>
      </trkpt>
      <trkpt lat="46.89039" lon="6.36982">
        <ele>900.20001220703</ele>
        <time>2023-05-15T09:31:56.000Z</time>
      </trkpt>
      <trkpt lat="46.89041" lon="6.36987">
        <ele>900.79998779297</ele>
        <time>2023-05-15T09:32:00.000Z</time>
      </trkpt>
      <trkpt lat="46.89042" lon="6.36989">
        <ele>901.20001220703</ele>
        <time>2023-05-15T09:32:02.000Z</time>
      </trkpt>
      <trkpt lat="46.89044" lon="6.36999">
        <ele>901.79998779297</ele>
        <time>2023-05-15T09:32:07.000Z</time>
      </trkpt>
      <trkpt lat="46.89046" lon="6.37003">
        <ele>902.40002441406</ele>
        <time>2023-05-15T09:32:10.000Z</time>
      </trkpt>
      <trkpt lat="46.89047" lon="6.37009">
        <ele>903</ele>
        <time>2023-05-15T09:32:15.000Z</time>
      </trkpt>
      <trkpt lat="46.89046" lon="6.37015">
        <ele>903.59997558594</ele>
        <time>2023-05-15T09:32:19.000Z</time>
      </trkpt>
      <trkpt lat="46.89046" lon="6.37024">
        <ele>904</ele>
        <time>2023-05-15T09:32:21.000Z</time>
      </trkpt>
      <trkpt lat="46.89045" lon="6.37026">
        <ele>904.20001220703</ele>
        <time>2023-05-15T09:32:22.000Z</time>
      </trkpt>
      <trkpt lat="46.8904" lon="6.37036">
        <ele>905</ele>
        <time>2023-05-15T09:32:26.000Z</time>
      </trkpt>
      <trkpt lat="46.89038" lon="6.37042">
        <ele>905.40002441406</ele>
        <time>2023-05-15T09:32:28.000Z</time>
      </trkpt>
      <trkpt lat="46.89032" lon="6.37045">
        <ele>906.59997558594</ele>
        <time>2023-05-15T09:32:31.000Z</time>
      </trkpt>
      <trkpt lat="46.8903" lon="6.37046">
        <ele>906.59997558594</ele>
        <time>2023-05-15T09:32:32.000Z</time>
      </trkpt>
      <trkpt lat="46.89028" lon="6.37042">
        <ele>907</ele>
        <time>2023-05-15T09:32:33.000Z</time>
      </trkpt>
      <trkpt lat="46.89025" lon="6.37043">
        <ele>907.79998779297</ele>
        <time>2023-05-15T09:32:35.000Z</time>
      </trkpt>
      <trkpt lat="46.89021" lon="6.37045">
        <ele>908.79998779297</ele>
        <time>2023-05-15T09:32:38.000Z</time>
      </trkpt>
      <trkpt lat="46.89021" lon="6.37046">
        <ele>909</ele>
        <time>2023-05-15T09:32:39.000Z</time>
      </trkpt>
      <trkpt lat="46.89018" lon="6.37048">
        <ele>909.40002441406</ele>
        <time>2023-05-15T09:32:41.000Z</time>
      </trkpt>
      <trkpt lat="46.89018" lon="6.37049">
        <ele>910.20001220703</ele>
        <time>2023-05-15T09:32:42.000Z</time>
      </trkpt>
      <trkpt lat="46.89016" lon="6.37049">
        <ele>910.59997558594</ele>
        <time>2023-05-15T09:32:43.000Z</time>
      </trkpt>
      <trkpt lat="46.89014" lon="6.37049">
        <ele>911.59997558594</ele>
        <time>2023-05-15T09:32:45.000Z</time>
      </trkpt>
      <trkpt lat="46.89013" lon="6.37048">
        <ele>912</ele>
        <time>2023-05-15T09:32:47.000Z</time>
      </trkpt>
      <trkpt lat="46.89009" lon="6.37048">
        <ele>912.79998779297</ele>
        <time>2023-05-15T09:32:49.000Z</time>
      </trkpt>
      <trkpt lat="46.89008" lon="6.37049">
        <ele>913</ele>
        <time>2023-05-15T09:32:50.000Z</time>
      </trkpt>
      <trkpt lat="46.89005" lon="6.3705">
        <ele>913.59997558594</ele>
        <time>2023-05-15T09:32:52.000Z</time>
      </trkpt>
      <trkpt lat="46.89002" lon="6.3705">
        <ele>914.79998779297</ele>
        <time>2023-05-15T09:32:56.000Z</time>
      </trkpt>
      <trkpt lat="46.88999" lon="6.37049">
        <ele>915.59997558594</ele>
        <time>2023-05-15T09:32:59.000Z</time>
      </trkpt>
      <trkpt lat="46.88997" lon="6.37049">
        <ele>916</ele>
        <time>2023-05-15T09:33:00.000Z</time>
      </trkpt>
      <trkpt lat="46.88992" lon="6.37048">
        <ele>917</ele>
        <time>2023-05-15T09:33:03.000Z</time>
      </trkpt>
      <trkpt lat="46.88989" lon="6.37047">
        <ele>918</ele>
        <time>2023-05-15T09:33:06.000Z</time>
      </trkpt>
      <trkpt lat="46.88988" lon="6.37046">
        <ele>918.20001220703</ele>
        <time>2023-05-15T09:33:07.000Z</time>
      </trkpt>
      <trkpt lat="46.88979" lon="6.37043">
        <ele>919</ele>
        <time>2023-05-15T09:33:13.000Z</time>
      </trkpt>
      <trkpt lat="46.88977" lon="6.37042">
        <ele>919.20001220703</ele>
        <time>2023-05-15T09:33:15.000Z</time>
      </trkpt>
      <trkpt lat="46.88971" lon="6.37041">
        <ele>920.20001220703</ele>
        <time>2023-05-15T09:33:20.000Z</time>
      </trkpt>
      <trkpt lat="46.8897" lon="6.37041">
        <ele>920.40002441406</ele>
        <time>2023-05-15T09:33:21.000Z</time>
      </trkpt>
      <trkpt lat="46.88957" lon="6.3704">
        <ele>921.59997558594</ele>
        <time>2023-05-15T09:33:28.000Z</time>
      </trkpt>
      <trkpt lat="46.88946" lon="6.37034">
        <ele>922.59997558594</ele>
        <time>2023-05-15T09:33:34.000Z</time>
      </trkpt>
      <trkpt lat="46.88941" lon="6.37033">
        <ele>923.20001220703</ele>
        <time>2023-05-15T09:33:37.000Z</time>
      </trkpt>
      <trkpt lat="46.88938" lon="6.37033">
        <ele>923.59997558594</ele>
        <time>2023-05-15T09:33:40.000Z</time>
      </trkpt>
      <trkpt lat="46.88933" lon="6.37032">
        <ele>924.20001220703</ele>
        <time>2023-05-15T09:33:43.000Z</time>
      </trkpt>
      <trkpt lat="46.88931" lon="6.37032">
        <ele>924.79998779297</ele>
        <time>2023-05-15T09:33:45.000Z</time>
      </trkpt>
      <trkpt lat="46.88927" lon="6.37032">
        <ele>925.59997558594</ele>
        <time>2023-05-15T09:33:48.000Z</time>
      </trkpt>
      <trkpt lat="46.88924" lon="6.37032">
        <ele>926</ele>
        <time>2023-05-15T09:33:51.000Z</time>
      </trkpt>
      <trkpt lat="46.88916" lon="6.37034">
        <ele>927.20001220703</ele>
        <time>2023-05-15T09:33:56.000Z</time>
      </trkpt>
      <trkpt lat="46.88911" lon="6.37033">
        <ele>927.79998779297</ele>
        <time>2023-05-15T09:33:59.000Z</time>
      </trkpt>
      <trkpt lat="46.88908" lon="6.37031">
        <ele>928</ele>
        <time>2023-05-15T09:34:02.000Z</time>
      </trkpt>
      <trkpt lat="46.88903" lon="6.37028">
        <ele>928.59997558594</ele>
        <time>2023-05-15T09:34:06.000Z</time>
      </trkpt>
      <trkpt lat="46.88899" lon="6.37026">
        <ele>929.20001220703</ele>
        <time>2023-05-15T09:34:09.000Z</time>
      </trkpt>
      <trkpt lat="46.88893" lon="6.37018">
        <ele>930</ele>
        <time>2023-05-15T09:34:13.000Z</time>
      </trkpt>
      <trkpt lat="46.88891" lon="6.37016">
        <ele>930.40002441406</ele>
        <time>2023-05-15T09:34:14.000Z</time>
      </trkpt>
      <trkpt lat="46.88883" lon="6.37005">
        <ele>931.79998779297</ele>
        <time>2023-05-15T09:34:18.000Z</time>
      </trkpt>
      <trkpt lat="46.88879" lon="6.37003">
        <ele>932.79998779297</ele>
        <time>2023-05-15T09:34:20.000Z</time>
      </trkpt>
      <trkpt lat="46.88877" lon="6.37002">
        <ele>932.79998779297</ele>
        <time>2023-05-15T09:34:21.000Z</time>
      </trkpt>
      <trkpt lat="46.88875" lon="6.36997">
        <ele>934</ele>
        <time>2023-05-15T09:34:25.000Z</time>
      </trkpt>
      <trkpt lat="46.88871" lon="6.36995">
        <ele>935.20001220703</ele>
        <time>2023-05-15T09:34:27.000Z</time>
      </trkpt>
      <trkpt lat="46.8887" lon="6.36993">
        <ele>935.59997558594</ele>
        <time>2023-05-15T09:34:28.000Z</time>
      </trkpt>
      <trkpt lat="46.88868" lon="6.36991">
        <ele>935.79998779297</ele>
        <time>2023-05-15T09:34:29.000Z</time>
      </trkpt>
      <trkpt lat="46.88867" lon="6.3699">
        <ele>936.20001220703</ele>
        <time>2023-05-15T09:34:30.000Z</time>
      </trkpt>
      <trkpt lat="46.88863" lon="6.36987">
        <ele>937.20001220703</ele>
        <time>2023-05-15T09:34:33.000Z</time>
      </trkpt>
      <trkpt lat="46.88861" lon="6.36984">
        <ele>938.79998779297</ele>
        <time>2023-05-15T09:34:37.000Z</time>
      </trkpt>
      <trkpt lat="46.88857" lon="6.36983">
        <ele>940</ele>
        <time>2023-05-15T09:34:40.000Z</time>
      </trkpt>
      <trkpt lat="46.88853" lon="6.36979">
        <ele>941.20001220703</ele>
        <time>2023-05-15T09:34:44.000Z</time>
      </trkpt>
      <trkpt lat="46.88851" lon="6.36978">
        <ele>941.59997558594</ele>
        <time>2023-05-15T09:34:46.000Z</time>
      </trkpt>
      <trkpt lat="46.88846" lon="6.3698">
        <ele>942</ele>
        <time>2023-05-15T09:34:49.000Z</time>
      </trkpt>
      <trkpt lat="46.88845" lon="6.36981">
        <ele>942.20001220703</ele>
        <time>2023-05-15T09:34:50.000Z</time>
      </trkpt>
      <trkpt lat="46.88836" lon="6.3698">
        <ele>943.20001220703</ele>
        <time>2023-05-15T09:34:56.000Z</time>
      </trkpt>
      <trkpt lat="46.88832" lon="6.36981">
        <ele>943.79998779297</ele>
        <time>2023-05-15T09:35:00.000Z</time>
      </trkpt>
      <trkpt lat="46.88826" lon="6.36981">
        <ele>944</ele>
        <time>2023-05-15T09:35:03.000Z</time>
      </trkpt>
      <trkpt lat="46.88825" lon="6.36981">
        <ele>944.40002441406</ele>
        <time>2023-05-15T09:35:04.000Z</time>
      </trkpt>
      <trkpt lat="46.88819" lon="6.36982">
        <ele>945.20001220703</ele>
        <time>2023-05-15T09:35:09.000Z</time>
      </trkpt>
      <trkpt lat="46.88818" lon="6.36982">
        <ele>945.79998779297</ele>
        <time>2023-05-15T09:35:12.000Z</time>
      </trkpt>
      <trkpt lat="46.88816" lon="6.36982">
        <ele>946.40002441406</ele>
        <time>2023-05-15T09:35:15.000Z</time>
      </trkpt>
      <trkpt lat="46.88813" lon="6.36982">
        <ele>946.79998779297</ele>
        <time>2023-05-15T09:35:17.000Z</time>
      </trkpt>
      <trkpt lat="46.88808" lon="6.36982">
        <ele>947.40002441406</ele>
        <time>2023-05-15T09:35:20.000Z</time>
      </trkpt>
      <trkpt lat="46.88804" lon="6.3698">
        <ele>947.79998779297</ele>
        <time>2023-05-15T09:35:22.000Z</time>
      </trkpt>
      <trkpt lat="46.88798" lon="6.36981">
        <ele>948.40002441406</ele>
        <time>2023-05-15T09:35:25.000Z</time>
      </trkpt>
      <trkpt lat="46.88788" lon="6.36982">
        <ele>949.59997558594</ele>
        <time>2023-05-15T09:35:29.000Z</time>
      </trkpt>
      <trkpt lat="46.88788" lon="6.36983">
        <ele>949.79998779297</ele>
        <time>2023-05-15T09:35:30.000Z</time>
      </trkpt>
      <trkpt lat="46.88787" lon="6.36983">
        <ele>950.40002441406</ele>
        <time>2023-05-15T09:35:31.000Z</time>
      </trkpt>
      <trkpt lat="46.88786" lon="6.36983">
        <ele>950.79998779297</ele>
        <time>2023-05-15T09:35:32.000Z</time>
      </trkpt>
      <trkpt lat="46.88775" lon="6.36985">
        <ele>952</ele>
        <time>2023-05-15T09:35:36.000Z</time>
      </trkpt>
      <trkpt lat="46.88771" lon="6.36988">
        <ele>952.59997558594</ele>
        <time>2023-05-15T09:35:38.000Z</time>
      </trkpt>
      <trkpt lat="46.8877" lon="6.36989">
        <ele>953.40002441406</ele>
        <time>2023-05-15T09:35:39.000Z</time>
      </trkpt>
      <trkpt lat="46.88765" lon="6.36992">
        <ele>954.40002441406</ele>
        <time>2023-05-15T09:35:41.000Z</time>
      </trkpt>
      <trkpt lat="46.88762" lon="6.36991">
        <ele>955.40002441406</ele>
        <time>2023-05-15T09:35:44.000Z</time>
      </trkpt>
      <trkpt lat="46.88759" lon="6.36992">
        <ele>956</ele>
        <time>2023-05-15T09:35:46.000Z</time>
      </trkpt>
      <trkpt lat="46.88756" lon="6.36991">
        <ele>956.79998779297</ele>
        <time>2023-05-15T09:35:48.000Z</time>
      </trkpt>
      <trkpt lat="46.88749" lon="6.36992">
        <ele>957.79998779297</ele>
        <time>2023-05-15T09:35:53.000Z</time>
      </trkpt>
      <trkpt lat="46.88743" lon="6.36995">
        <ele>958.79998779297</ele>
        <time>2023-05-15T09:35:58.000Z</time>
      </trkpt>
      <trkpt lat="46.8874" lon="6.36996">
        <ele>959.20001220703</ele>
        <time>2023-05-15T09:36:00.000Z</time>
      </trkpt>
      <trkpt lat="46.88735" lon="6.36996">
        <ele>960</ele>
        <time>2023-05-15T09:36:03.000Z</time>
      </trkpt>
      <trkpt lat="46.8873" lon="6.36998">
        <ele>961</ele>
        <time>2023-05-15T09:36:06.000Z</time>
      </trkpt>
      <trkpt lat="46.88727" lon="6.36999">
        <ele>961.40002441406</ele>
        <time>2023-05-15T09:36:08.000Z</time>
      </trkpt>
      <trkpt lat="46.88721" lon="6.37001">
        <ele>962.40002441406</ele>
        <time>2023-05-15T09:36:11.000Z</time>
      </trkpt>
      <trkpt lat="46.88713" lon="6.37005">
        <ele>963.40002441406</ele>
        <time>2023-05-15T09:36:15.000Z</time>
      </trkpt>
      <trkpt lat="46.88712" lon="6.37004">
        <ele>963.59997558594</ele>
        <time>2023-05-15T09:36:16.000Z</time>
      </trkpt>
      <trkpt lat="46.88706" lon="6.37007">
        <ele>964.59997558594</ele>
        <time>2023-05-15T09:36:19.000Z</time>
      </trkpt>
      <trkpt lat="46.88704" lon="6.3701">
        <ele>965.59997558594</ele>
        <time>2023-05-15T09:36:22.000Z</time>
      </trkpt>
      <trkpt lat="46.88703" lon="6.37013">
        <ele>966</ele>
        <time>2023-05-15T09:36:24.000Z</time>
      </trkpt>
      <trkpt lat="46.88701" lon="6.37017">
        <ele>967</ele>
        <time>2023-05-15T09:36:27.000Z</time>
      </trkpt>
      <trkpt lat="46.88701" lon="6.37018">
        <ele>967.20001220703</ele>
        <time>2023-05-15T09:36:28.000Z</time>
      </trkpt>
      <trkpt lat="46.887" lon="6.37022">
        <ele>967.59997558594</ele>
        <time>2023-05-15T09:36:30.000Z</time>
      </trkpt>
      <trkpt lat="46.887" lon="6.37023">
        <ele>968.20001220703</ele>
        <time>2023-05-15T09:36:31.000Z</time>
      </trkpt>
      <trkpt lat="46.887" lon="6.3703">
        <ele>969.40002441406</ele>
        <time>2023-05-15T09:36:35.000Z</time>
      </trkpt>
      <trkpt lat="46.88698" lon="6.37035">
        <ele>970.20001220703</ele>
        <time>2023-05-15T09:36:38.000Z</time>
      </trkpt>
      <trkpt lat="46.88697" lon="6.37038">
        <ele>970.40002441406</ele>
        <time>2023-05-15T09:36:40.000Z</time>
      </trkpt>
      <trkpt lat="46.88691" lon="6.37042">
        <ele>971.20001220703</ele>
        <time>2023-05-15T09:36:45.000Z</time>
      </trkpt>
      <trkpt lat="46.8869" lon="6.37043">
        <ele>971.59997558594</ele>
        <time>2023-05-15T09:36:47.000Z</time>
      </trkpt>
      <trkpt lat="46.88687" lon="6.37043">
        <ele>972.40002441406</ele>
        <time>2023-05-15T09:36:52.000Z</time>
      </trkpt>
      <trkpt lat="46.88686" lon="6.37041">
        <ele>972.40002441406</ele>
        <time>2023-05-15T09:36:53.000Z</time>
      </trkpt>
      <trkpt lat="46.88685" lon="6.3704">
        <ele>972.59997558594</ele>
        <time>2023-05-15T09:36:55.000Z</time>
      </trkpt>
      <trkpt lat="46.88681" lon="6.3704">
        <ele>973.40002441406</ele>
        <time>2023-05-15T09:36:58.000Z</time>
      </trkpt>
      <trkpt lat="46.88679" lon="6.3704">
        <ele>973.79998779297</ele>
        <time>2023-05-15T09:37:00.000Z</time>
      </trkpt>
      <trkpt lat="46.8867" lon="6.37039">
        <ele>974.79998779297</ele>
        <time>2023-05-15T09:37:06.000Z</time>
      </trkpt>
      <trkpt lat="46.88669" lon="6.37039">
        <ele>975.20001220703</ele>
        <time>2023-05-15T09:37:07.000Z</time>
      </trkpt>
      <trkpt lat="46.88664" lon="6.37037">
        <ele>975.59997558594</ele>
        <time>2023-05-15T09:37:11.000Z</time>
      </trkpt>
      <trkpt lat="46.88662" lon="6.37038">
        <ele>976</ele>
        <time>2023-05-15T09:37:13.000Z</time>
      </trkpt>
      <trkpt lat="46.88659" lon="6.37038">
        <ele>976.40002441406</ele>
        <time>2023-05-15T09:37:15.000Z</time>
      </trkpt>
      <trkpt lat="46.88653" lon="6.37038">
        <ele>976.79998779297</ele>
        <time>2023-05-15T09:37:19.000Z</time>
      </trkpt>
      <trkpt lat="46.88651" lon="6.37037">
        <ele>977</ele>
        <time>2023-05-15T09:37:20.000Z</time>
      </trkpt>
      <trkpt lat="46.88643" lon="6.37038">
        <ele>977.59997558594</ele>
        <time>2023-05-15T09:37:25.000Z</time>
      </trkpt>
      <trkpt lat="46.88638" lon="6.37036">
        <ele>978</ele>
        <time>2023-05-15T09:37:28.000Z</time>
      </trkpt>
      <trkpt lat="46.88631" lon="6.37033">
        <ele>978.59997558594</ele>
        <time>2023-05-15T09:37:32.000Z</time>
      </trkpt>
      <trkpt lat="46.88629" lon="6.37034">
        <ele>978.79998779297</ele>
        <time>2023-05-15T09:37:33.000Z</time>
      </trkpt>
      <trkpt lat="46.88627" lon="6.37033">
        <ele>978.79998779297</ele>
        <time>2023-05-15T09:37:35.000Z</time>
      </trkpt>
      <trkpt lat="46.88624" lon="6.3703">
        <ele>979.20001220703</ele>
        <time>2023-05-15T09:37:37.000Z</time>
      </trkpt>
      <trkpt lat="46.88621" lon="6.37031">
        <ele>980</ele>
        <time>2023-05-15T09:37:42.000Z</time>
      </trkpt>
      <trkpt lat="46.88615" lon="6.37032">
        <ele>981</ele>
        <time>2023-05-15T09:37:46.000Z</time>
      </trkpt>
      <trkpt lat="46.88609" lon="6.37035">
        <ele>981.79998779297</ele>
        <time>2023-05-15T09:37:51.000Z</time>
      </trkpt>
      <trkpt lat="46.88606" lon="6.37034">
        <ele>982</ele>
        <time>2023-05-15T09:37:53.000Z</time>
      </trkpt>
      <trkpt lat="46.88604" lon="6.37035">
        <ele>982</ele>
        <time>2023-05-15T09:37:54.000Z</time>
      </trkpt>
      <trkpt lat="46.88591" lon="6.37036">
        <ele>983</ele>
        <time>2023-05-15T09:38:02.000Z</time>
      </trkpt>
      <trkpt lat="46.8859" lon="6.37036">
        <ele>983</ele>
        <time>2023-05-15T09:38:03.000Z</time>
      </trkpt>
      <trkpt lat="46.88579" lon="6.37036">
        <ele>983.79998779297</ele>
        <time>2023-05-15T09:38:09.000Z</time>
      </trkpt>
      <trkpt lat="46.88578" lon="6.37036">
        <ele>984</ele>
        <time>2023-05-15T09:38:10.000Z</time>
      </trkpt>
      <trkpt lat="46.88563" lon="6.37037">
        <ele>985</ele>
        <time>2023-05-15T09:38:18.000Z</time>
      </trkpt>
      <trkpt lat="46.88562" lon="6.37037">
        <ele>985.20001220703</ele>
        <time>2023-05-15T09:38:19.000Z</time>
      </trkpt>
      <trkpt lat="46.88551" lon="6.3704">
        <ele>986.40002441406</ele>
        <time>2023-05-15T09:38:25.000Z</time>
      </trkpt>
      <trkpt lat="46.88549" lon="6.3704">
        <ele>986.40002441406</ele>
        <time>2023-05-15T09:38:26.000Z</time>
      </trkpt>
      <trkpt lat="46.88542" lon="6.37041">
        <ele>987.40002441406</ele>
        <time>2023-05-15T09:38:32.000Z</time>
      </trkpt>
      <trkpt lat="46.88536" lon="6.37042">
        <ele>988</ele>
        <time>2023-05-15T09:38:36.000Z</time>
      </trkpt>
      <trkpt lat="46.88535" lon="6.37042">
        <ele>987.79998779297</ele>
        <time>2023-05-15T09:38:37.000Z</time>
      </trkpt>
      <trkpt lat="46.88533" lon="6.3704">
        <ele>988</ele>
        <time>2023-05-15T09:38:39.000Z</time>
      </trkpt>
      <trkpt lat="46.88529" lon="6.37041">
        <ele>988.20001220703</ele>
        <time>2023-05-15T09:38:41.000Z</time>
      </trkpt>
      <trkpt lat="46.88528" lon="6.37042">
        <ele>988.20001220703</ele>
        <time>2023-05-15T09:38:42.000Z</time>
      </trkpt>
      <trkpt lat="46.88524" lon="6.37043">
        <ele>988.59997558594</ele>
        <time>2023-05-15T09:38:45.000Z</time>
      </trkpt>
      <trkpt lat="46.88521" lon="6.37043">
        <ele>988.79998779297</ele>
        <time>2023-05-15T09:38:47.000Z</time>
      </trkpt>
      <trkpt lat="46.88513" lon="6.37043">
        <ele>989.40002441406</ele>
        <time>2023-05-15T09:38:52.000Z</time>
      </trkpt>
      <trkpt lat="46.88511" lon="6.37043">
        <ele>989.79998779297</ele>
        <time>2023-05-15T09:38:53.000Z</time>
      </trkpt>
      <trkpt lat="46.8851" lon="6.37043">
        <ele>990</ele>
        <time>2023-05-15T09:38:54.000Z</time>
      </trkpt>
      <trkpt lat="46.88505" lon="6.37043">
        <ele>990.40002441406</ele>
        <time>2023-05-15T09:38:57.000Z</time>
      </trkpt>
      <trkpt lat="46.88498" lon="6.37041">
        <ele>990.79998779297</ele>
        <time>2023-05-15T09:39:01.000Z</time>
      </trkpt>
      <trkpt lat="46.88495" lon="6.3704">
        <ele>991.20001220703</ele>
        <time>2023-05-15T09:39:03.000Z</time>
      </trkpt>
      <trkpt lat="46.88493" lon="6.37039">
        <ele>991.59997558594</ele>
        <time>2023-05-15T09:39:04.000Z</time>
      </trkpt>
      <trkpt lat="46.8849" lon="6.37038">
        <ele>992.79998779297</ele>
        <time>2023-05-15T09:39:06.000Z</time>
      </trkpt>
      <trkpt lat="46.88488" lon="6.37037">
        <ele>993.59997558594</ele>
        <time>2023-05-15T09:39:08.000Z</time>
      </trkpt>
      <trkpt lat="46.88486" lon="6.37037">
        <ele>994.59997558594</ele>
        <time>2023-05-15T09:39:09.000Z</time>
      </trkpt>
      <trkpt lat="46.88481" lon="6.37035">
        <ele>995.59997558594</ele>
        <time>2023-05-15T09:39:12.000Z</time>
      </trkpt>
      <trkpt lat="46.88469" lon="6.37034">
        <ele>996.79998779297</ele>
        <time>2023-05-15T09:39:16.000Z</time>
      </trkpt>
      <trkpt lat="46.88462" lon="6.37033">
        <ele>997.20001220703</ele>
        <time>2023-05-15T09:39:20.000Z</time>
      </trkpt>
      <trkpt lat="46.88459" lon="6.3703">
        <ele>997.40002441406</ele>
        <time>2023-05-15T09:39:22.000Z</time>
      </trkpt>
      <trkpt lat="46.88454" lon="6.37029">
        <ele>997.40002441406</ele>
        <time>2023-05-15T09:39:25.000Z</time>
      </trkpt>
      <trkpt lat="46.88448" lon="6.37027">
        <ele>997.40002441406</ele>
        <time>2023-05-15T09:39:30.000Z</time>
      </trkpt>
      <trkpt lat="46.88449" lon="6.37025">
        <ele>997.40002441406</ele>
        <time>2023-05-15T09:39:31.000Z</time>
      </trkpt>
      <trkpt lat="46.88446" lon="6.37025">
        <ele>997.40002441406</ele>
        <time>2023-05-15T09:39:33.000Z</time>
      </trkpt>
      <trkpt lat="46.88442" lon="6.37026">
        <ele>997.40002441406</ele>
        <time>2023-05-15T09:39:36.000Z</time>
      </trkpt>
      <trkpt lat="46.88441" lon="6.37027">
        <ele>997.40002441406</ele>
        <time>2023-05-15T09:39:37.000Z</time>
      </trkpt>
      <trkpt lat="46.88438" lon="6.37028">
        <ele>997.59997558594</ele>
        <time>2023-05-15T09:39:39.000Z</time>
      </trkpt>
      <trkpt lat="46.88435" lon="6.37027">
        <ele>997.59997558594</ele>
        <time>2023-05-15T09:39:41.000Z</time>
      </trkpt>
      <trkpt lat="46.88433" lon="6.37028">
        <ele>997.79998779297</ele>
        <time>2023-05-15T09:39:43.000Z</time>
      </trkpt>
      <trkpt lat="46.88426" lon="6.3703">
        <ele>998</ele>
        <time>2023-05-15T09:39:48.000Z</time>
      </trkpt>
      <trkpt lat="46.88415" lon="6.37038">
        <ele>998.40002441406</ele>
        <time>2023-05-15T09:39:56.000Z</time>
      </trkpt>
      <trkpt lat="46.88413" lon="6.37038">
        <ele>998.59997558594</ele>
        <time>2023-05-15T09:39:57.000Z</time>
      </trkpt>
      <trkpt lat="46.88409" lon="6.3704">
        <ele>999</ele>
        <time>2023-05-15T09:40:03.000Z</time>
      </trkpt>
      <trkpt lat="46.88374" lon="6.37054">
        <ele>1000.5999755859</ele>
        <time>2023-05-15T09:42:01.000Z</time>
      </trkpt>
      <trkpt lat="46.88371" lon="6.37053">
        <ele>1000.5999755859</ele>
        <time>2023-05-15T09:42:02.000Z</time>
      </trkpt>
      <trkpt lat="46.88354" lon="6.37046">
        <ele>1000.4000244141</ele>
        <time>2023-05-15T09:42:08.000Z</time>
      </trkpt>
      <trkpt lat="46.88328" lon="6.3703">
        <ele>1000.4000244141</ele>
        <time>2023-05-15T09:42:16.000Z</time>
      </trkpt>
      <trkpt lat="46.88327" lon="6.3703">
        <ele>1000.4000244141</ele>
        <time>2023-05-15T09:42:17.000Z</time>
      </trkpt>
      <trkpt lat="46.88323" lon="6.37029">
        <ele>1000.4000244141</ele>
        <time>2023-05-15T09:42:19.000Z</time>
      </trkpt>
      <trkpt lat="46.88321" lon="6.37028">
        <ele>1000.5999755859</ele>
        <time>2023-05-15T09:42:20.000Z</time>
      </trkpt>
      <trkpt lat="46.88312" lon="6.37024">
        <ele>1001.4000244141</ele>
        <time>2023-05-15T09:42:24.000Z</time>
      </trkpt>
      <trkpt lat="46.88311" lon="6.37025">
        <ele>1001.5999755859</ele>
        <time>2023-05-15T09:42:26.000Z</time>
      </trkpt>
      <trkpt lat="46.88311" lon="6.37025">
        <ele>1001.5999755859</ele>
        <time>2023-05-15T09:42:27.000Z</time>
      </trkpt>
      <trkpt lat="46.88327" lon="6.3704">
        <ele>1001.4000244141</ele>
        <time>2023-05-15T09:44:00.000Z</time>
      </trkpt>
      <trkpt lat="46.8833" lon="6.37042">
        <ele>1001.4000244141</ele>
        <time>2023-05-15T09:44:01.000Z</time>
      </trkpt>
      <trkpt lat="46.88332" lon="6.37045">
        <ele>1001.200012207</ele>
        <time>2023-05-15T09:44:02.000Z</time>
      </trkpt>
      <trkpt lat="46.88344" lon="6.37056">
        <ele>1000.4000244141</ele>
        <time>2023-05-15T09:44:08.000Z</time>
      </trkpt>
      <trkpt lat="46.88345" lon="6.37058">
        <ele>1000.200012207</ele>
        <time>2023-05-15T09:44:09.000Z</time>
      </trkpt>
      <trkpt lat="46.88352" lon="6.37061">
        <ele>1000</ele>
        <time>2023-05-15T09:44:13.000Z</time>
      </trkpt>
      <trkpt lat="46.88356" lon="6.3706">
        <ele>1000</ele>
        <time>2023-05-15T09:44:15.000Z</time>
      </trkpt>
      <trkpt lat="46.88361" lon="6.37064">
        <ele>1000.4000244141</ele>
        <time>2023-05-15T09:44:19.000Z</time>
      </trkpt>
      <trkpt lat="46.88361" lon="6.37064">
        <ele>1000.5999755859</ele>
        <time>2023-05-15T09:44:21.000Z</time>
      </trkpt>
      <trkpt lat="46.88348" lon="6.37161">
        <ele>1018.5999755859</ele>
        <time>2023-05-15T09:51:58.000Z</time>
      </trkpt>
      <trkpt lat="46.8835" lon="6.37164">
        <ele>1018.5999755859</ele>
        <time>2023-05-15T09:51:59.000Z</time>
      </trkpt>
      <trkpt lat="46.88357" lon="6.37174">
        <ele>1019.5999755859</ele>
        <time>2023-05-15T09:52:03.000Z</time>
      </trkpt>
      <trkpt lat="46.88359" lon="6.37177">
        <ele>1019.799987793</ele>
        <time>2023-05-15T09:52:04.000Z</time>
      </trkpt>
      <trkpt lat="46.8836" lon="6.37179">
        <ele>1020</ele>
        <time>2023-05-15T09:52:05.000Z</time>
      </trkpt>
      <trkpt lat="46.88365" lon="6.37186">
        <ele>1020.799987793</ele>
        <time>2023-05-15T09:52:08.000Z</time>
      </trkpt>
      <trkpt lat="46.8837" lon="6.37193">
        <ele>1021.5999755859</ele>
        <time>2023-05-15T09:52:12.000Z</time>
      </trkpt>
      <trkpt lat="46.88371" lon="6.37195">
        <ele>1021.799987793</ele>
        <time>2023-05-15T09:52:13.000Z</time>
      </trkpt>
      <trkpt lat="46.88373" lon="6.37198">
        <ele>1022</ele>
        <time>2023-05-15T09:52:14.000Z</time>
      </trkpt>
      <trkpt lat="46.88376" lon="6.37208">
        <ele>1022.799987793</ele>
        <time>2023-05-15T09:52:18.000Z</time>
      </trkpt>
      <trkpt lat="46.88376" lon="6.37209">
        <ele>1023</ele>
        <time>2023-05-15T09:52:19.000Z</time>
      </trkpt>
      <trkpt lat="46.88376" lon="6.37212">
        <ele>1023.200012207</ele>
        <time>2023-05-15T09:52:20.000Z</time>
      </trkpt>
      <trkpt lat="46.88373" lon="6.37221">
        <ele>1024.4000244141</ele>
        <time>2023-05-15T09:52:23.000Z</time>
      </trkpt>
      <trkpt lat="46.88371" lon="6.37229">
        <ele>1025.4000244141</ele>
        <time>2023-05-15T09:52:27.000Z</time>
      </trkpt>
      <trkpt lat="46.8837" lon="6.37233">
        <ele>1025.4000244141</ele>
        <time>2023-05-15T09:52:28.000Z</time>
      </trkpt>
      <trkpt lat="46.88369" lon="6.37241">
        <ele>1026.5999755859</ele>
        <time>2023-05-15T09:52:33.000Z</time>
      </trkpt>
      <trkpt lat="46.88367" lon="6.37242">
        <ele>1026.8000488281</ele>
        <time>2023-05-15T09:52:34.000Z</time>
      </trkpt>
      <trkpt lat="46.88362" lon="6.3725">
        <ele>1027.8000488281</ele>
        <time>2023-05-15T09:52:40.000Z</time>
      </trkpt>
      <trkpt lat="46.8836" lon="6.37251">
        <ele>1028</ele>
        <time>2023-05-15T09:52:42.000Z</time>
      </trkpt>
      <trkpt lat="46.88355" lon="6.37251">
        <ele>1028.1999511719</ele>
        <time>2023-05-15T09:52:46.000Z</time>
      </trkpt>
      <trkpt lat="46.8835" lon="6.37254">
        <ele>1028.4000244141</ele>
        <time>2023-05-15T09:52:49.000Z</time>
      </trkpt>
      <trkpt lat="46.88348" lon="6.37257">
        <ele>1028.5999755859</ele>
        <time>2023-05-15T09:52:51.000Z</time>
      </trkpt>
      <trkpt lat="46.88344" lon="6.37263">
        <ele>1028.5999755859</ele>
        <time>2023-05-15T09:52:54.000Z</time>
      </trkpt>
      <trkpt lat="46.88344" lon="6.37266">
        <ele>1028.8000488281</ele>
        <time>2023-05-15T09:52:55.000Z</time>
      </trkpt>
      <trkpt lat="46.88337" lon="6.37277">
        <ele>1029.1999511719</ele>
        <time>2023-05-15T09:53:00.000Z</time>
      </trkpt>
      <trkpt lat="46.88334" lon="6.3728">
        <ele>1029.4000244141</ele>
        <time>2023-05-15T09:53:02.000Z</time>
      </trkpt>
      <trkpt lat="46.88331" lon="6.37292">
        <ele>1029.8000488281</ele>
        <time>2023-05-15T09:53:07.000Z</time>
      </trkpt>
      <trkpt lat="46.8833" lon="6.37295">
        <ele>1029.8000488281</ele>
        <time>2023-05-15T09:53:08.000Z</time>
      </trkpt>
      <trkpt lat="46.8833" lon="6.37304">
        <ele>1031</ele>
        <time>2023-05-15T09:53:12.000Z</time>
      </trkpt>
      <trkpt lat="46.8833" lon="6.37305">
        <ele>1031</ele>
        <time>2023-05-15T09:53:13.000Z</time>
      </trkpt>
      <trkpt lat="46.88327" lon="6.37316">
        <ele>1032</ele>
        <time>2023-05-15T09:53:18.000Z</time>
      </trkpt>
      <trkpt lat="46.88327" lon="6.37321">
        <ele>1032.5999755859</ele>
        <time>2023-05-15T09:53:21.000Z</time>
      </trkpt>
      <trkpt lat="46.88325" lon="6.37328">
        <ele>1033.4000244141</ele>
        <time>2023-05-15T09:53:25.000Z</time>
      </trkpt>
      <trkpt lat="46.88325" lon="6.37334">
        <ele>1033.8000488281</ele>
        <time>2023-05-15T09:53:28.000Z</time>
      </trkpt>
      <trkpt lat="46.88325" lon="6.37338">
        <ele>1034.4000244141</ele>
        <time>2023-05-15T09:53:30.000Z</time>
      </trkpt>
      <trkpt lat="46.88323" lon="6.37349">
        <ele>1035.5999755859</ele>
        <time>2023-05-15T09:53:36.000Z</time>
      </trkpt>
      <trkpt lat="46.88323" lon="6.37351">
        <ele>1035.5999755859</ele>
        <time>2023-05-15T09:53:37.000Z</time>
      </trkpt>
      <trkpt lat="46.88323" lon="6.37364">
        <ele>1036.8000488281</ele>
        <time>2023-05-15T09:53:43.000Z</time>
      </trkpt>
      <trkpt lat="46.88322" lon="6.37369">
        <ele>1037</ele>
        <time>2023-05-15T09:53:45.000Z</time>
      </trkpt>
      <trkpt lat="46.8832" lon="6.37381">
        <ele>1037.5999755859</ele>
        <time>2023-05-15T09:53:51.000Z</time>
      </trkpt>
      <trkpt lat="46.8832" lon="6.37392">
        <ele>1037.5999755859</ele>
        <time>2023-05-15T09:53:57.000Z</time>
      </trkpt>
      <trkpt lat="46.8832" lon="6.37395">
        <ele>1037.5999755859</ele>
        <time>2023-05-15T09:53:58.000Z</time>
      </trkpt>
      <trkpt lat="46.88316" lon="6.37409">
        <ele>1037.4000244141</ele>
        <time>2023-05-15T09:54:04.000Z</time>
      </trkpt>
      <trkpt lat="46.88316" lon="6.37413">
        <ele>1037.4000244141</ele>
        <time>2023-05-15T09:54:06.000Z</time>
      </trkpt>
      <trkpt lat="46.88315" lon="6.37419">
        <ele>1037.1999511719</ele>
        <time>2023-05-15T09:54:09.000Z</time>
      </trkpt>
      <trkpt lat="46.88313" lon="6.37426">
        <ele>1036.8000488281</ele>
        <time>2023-05-15T09:54:13.000Z</time>
      </trkpt>
      <trkpt lat="46.88309" lon="6.37435">
        <ele>1036.8000488281</ele>
        <time>2023-05-15T09:54:16.000Z</time>
      </trkpt>
      <trkpt lat="46.88309" lon="6.37435">
        <ele>1036.5999755859</ele>
        <time>2023-05-15T09:54:18.000Z</time>
      </trkpt>
      <trkpt lat="46.88306" lon="6.37449">
        <ele>1035.8000488281</ele>
        <time>2023-05-15T09:54:28.000Z</time>
      </trkpt>
      <trkpt lat="46.883" lon="6.37468">
        <ele>1034.8000488281</ele>
        <time>2023-05-15T09:54:34.000Z</time>
      </trkpt>
      <trkpt lat="46.88299" lon="6.3747">
        <ele>1034.4000244141</ele>
        <time>2023-05-15T09:54:35.000Z</time>
      </trkpt>
      <trkpt lat="46.88298" lon="6.37472">
        <ele>1034</ele>
        <time>2023-05-15T09:54:36.000Z</time>
      </trkpt>
      <trkpt lat="46.88296" lon="6.37476">
        <ele>1033.1999511719</ele>
        <time>2023-05-15T09:54:38.000Z</time>
      </trkpt>
      <trkpt lat="46.88295" lon="6.37478">
        <ele>1032.5999755859</ele>
        <time>2023-05-15T09:54:40.000Z</time>
      </trkpt>
      <trkpt lat="46.88295" lon="6.37481">
        <ele>1032.1999511719</ele>
        <time>2023-05-15T09:54:42.000Z</time>
      </trkpt>
      <trkpt lat="46.88294" lon="6.37482">
        <ele>1031.8000488281</ele>
        <time>2023-05-15T09:54:43.000Z</time>
      </trkpt>
      <trkpt lat="46.88292" lon="6.37489">
        <ele>1030.8000488281</ele>
        <time>2023-05-15T09:54:46.000Z</time>
      </trkpt>
      <trkpt lat="46.88289" lon="6.37492">
        <ele>1029.8000488281</ele>
        <time>2023-05-15T09:54:49.000Z</time>
      </trkpt>
      <trkpt lat="46.88289" lon="6.37492">
        <ele>1029.1999511719</ele>
        <time>2023-05-15T09:54:51.000Z</time>
      </trkpt>
      <trkpt lat="46.88269" lon="6.37574">
        <ele>1029.4000244141</ele>
        <time>2023-05-15T09:55:50.000Z</time>
      </trkpt>
      <trkpt lat="46.88269" lon="6.37575">
        <ele>1029.5999755859</ele>
        <time>2023-05-15T09:55:51.000Z</time>
      </trkpt>
      <trkpt lat="46.88268" lon="6.37579">
        <ele>1029.5999755859</ele>
        <time>2023-05-15T09:55:53.000Z</time>
      </trkpt>
      <trkpt lat="46.88266" lon="6.37587">
        <ele>1029.8000488281</ele>
        <time>2023-05-15T09:55:55.000Z</time>
      </trkpt>
      <trkpt lat="46.88267" lon="6.37591">
        <ele>1030.1999511719</ele>
        <time>2023-05-15T09:55:59.000Z</time>
      </trkpt>
      <trkpt lat="46.88259" lon="6.37614">
        <ele>1031.4000244141</ele>
        <time>2023-05-15T09:56:47.000Z</time>
      </trkpt>
      <trkpt lat="46.88253" lon="6.37626">
        <ele>1031.4000244141</ele>
        <time>2023-05-15T09:56:53.000Z</time>
      </trkpt>
      <trkpt lat="46.88248" lon="6.37633">
        <ele>1032.1999511719</ele>
        <time>2023-05-15T09:56:58.000Z</time>
      </trkpt>
      <trkpt lat="46.88246" lon="6.37637">
        <ele>1032.5999755859</ele>
        <time>2023-05-15T09:57:00.000Z</time>
      </trkpt>
      <trkpt lat="46.88245" lon="6.37639">
        <ele>1032.8000488281</ele>
        <time>2023-05-15T09:57:01.000Z</time>
      </trkpt>
      <trkpt lat="46.88241" lon="6.37648">
        <ele>1033.5999755859</ele>
        <time>2023-05-15T09:57:05.000Z</time>
      </trkpt>
      <trkpt lat="46.88239" lon="6.37658">
        <ele>1034.5999755859</ele>
        <time>2023-05-15T09:57:09.000Z</time>
      </trkpt>
      <trkpt lat="46.88238" lon="6.37661">
        <ele>1035</ele>
        <time>2023-05-15T09:57:10.000Z</time>
      </trkpt>
      <trkpt lat="46.88237" lon="6.37665">
        <ele>1036</ele>
        <time>2023-05-15T09:57:13.000Z</time>
      </trkpt>
      <trkpt lat="46.88237" lon="6.37665">
        <ele>1036.4000244141</ele>
        <time>2023-05-15T09:57:14.000Z</time>
      </trkpt>
      <trkpt lat="46.88208" lon="6.37767">
        <ele>1049.4000244141</ele>
        <time>2023-05-15T09:59:30.000Z</time>
      </trkpt>
      <trkpt lat="46.88206" lon="6.37772">
        <ele>1050.8000488281</ele>
        <time>2023-05-15T09:59:33.000Z</time>
      </trkpt>
      <trkpt lat="46.88204" lon="6.37774">
        <ele>1051.8000488281</ele>
        <time>2023-05-15T09:59:36.000Z</time>
      </trkpt>
      <trkpt lat="46.88201" lon="6.37781">
        <ele>1052.8000488281</ele>
        <time>2023-05-15T09:59:41.000Z</time>
      </trkpt>
      <trkpt lat="46.88201" lon="6.37782">
        <ele>1053</ele>
        <time>2023-05-15T09:59:42.000Z</time>
      </trkpt>
      <trkpt lat="46.88194" lon="6.37789">
        <ele>1054</ele>
        <time>2023-05-15T09:59:47.000Z</time>
      </trkpt>
      <trkpt lat="46.88193" lon="6.37793">
        <ele>1054.1999511719</ele>
        <time>2023-05-15T09:59:48.000Z</time>
      </trkpt>
      <trkpt lat="46.88189" lon="6.37802">
        <ele>1055.1999511719</ele>
        <time>2023-05-15T09:59:53.000Z</time>
      </trkpt>
      <trkpt lat="46.88186" lon="6.37807">
        <ele>1055.4000244141</ele>
        <time>2023-05-15T09:59:55.000Z</time>
      </trkpt>
      <trkpt lat="46.88182" lon="6.37815">
        <ele>1056.1999511719</ele>
        <time>2023-05-15T09:59:59.000Z</time>
      </trkpt>
      <trkpt lat="46.88181" lon="6.37817">
        <ele>1056.8000488281</ele>
        <time>2023-05-15T10:00:01.000Z</time>
      </trkpt>
      <trkpt lat="46.88181" lon="6.37817">
        <ele>1057</ele>
        <time>2023-05-15T10:00:03.000Z</time>
      </trkpt>
      <trkpt lat="46.88174" lon="6.37861">
        <ele>1062.4000244141</ele>
        <time>2023-05-15T10:01:36.000Z</time>
      </trkpt>
      <trkpt lat="46.88173" lon="6.37864">
        <ele>1062.4000244141</ele>
        <time>2023-05-15T10:01:37.000Z</time>
      </trkpt>
      <trkpt lat="46.88176" lon="6.37882">
        <ele>1063.1999511719</ele>
        <time>2023-05-15T10:01:42.000Z</time>
      </trkpt>
      <trkpt lat="46.88177" lon="6.37883">
        <ele>1063.4000244141</ele>
        <time>2023-05-15T10:01:43.000Z</time>
      </trkpt>
      <trkpt lat="46.88176" lon="6.37888">
        <ele>1064.1999511719</ele>
        <time>2023-05-15T10:01:46.000Z</time>
      </trkpt>
      <trkpt lat="46.88176" lon="6.37891">
        <ele>1064.5999755859</ele>
        <time>2023-05-15T10:01:47.000Z</time>
      </trkpt>
      <trkpt lat="46.88176" lon="6.37896">
        <ele>1064.8000488281</ele>
        <time>2023-05-15T10:01:49.000Z</time>
      </trkpt>
      <trkpt lat="46.88176" lon="6.37898">
        <ele>1065</ele>
        <time>2023-05-15T10:01:50.000Z</time>
      </trkpt>
      <trkpt lat="46.88173" lon="6.37907">
        <ele>1065.1999511719</ele>
        <time>2023-05-15T10:01:52.000Z</time>
      </trkpt>
      <trkpt lat="46.88173" lon="6.37909">
        <ele>1065.8000488281</ele>
        <time>2023-05-15T10:01:53.000Z</time>
      </trkpt>
      <trkpt lat="46.88174" lon="6.37912">
        <ele>1066.4000244141</ele>
        <time>2023-05-15T10:01:55.000Z</time>
      </trkpt>
      <trkpt lat="46.88175" lon="6.37915">
        <ele>1066.8000488281</ele>
        <time>2023-05-15T10:01:56.000Z</time>
      </trkpt>
      <trkpt lat="46.88173" lon="6.37928">
        <ele>1067.4000244141</ele>
        <time>2023-05-15T10:02:01.000Z</time>
      </trkpt>
      <trkpt lat="46.88173" lon="6.37932">
        <ele>1067.5999755859</ele>
        <time>2023-05-15T10:02:02.000Z</time>
      </trkpt>
      <trkpt lat="46.88173" lon="6.37961">
        <ele>1067.5999755859</ele>
        <time>2023-05-15T10:02:09.000Z</time>
      </trkpt>
      <trkpt lat="46.88172" lon="6.37986">
        <ele>1067.1999511719</ele>
        <time>2023-05-15T10:02:16.000Z</time>
      </trkpt>
      <trkpt lat="46.88162" lon="6.38005">
        <ele>1067</ele>
        <time>2023-05-15T10:02:22.000Z</time>
      </trkpt>
      <trkpt lat="46.88148" lon="6.38017">
        <ele>1066.4000244141</ele>
        <time>2023-05-15T10:02:28.000Z</time>
      </trkpt>
      <trkpt lat="46.88135" lon="6.38018">
        <ele>1066.1999511719</ele>
        <time>2023-05-15T10:02:33.000Z</time>
      </trkpt>
      <trkpt lat="46.8812" lon="6.38012">
        <ele>1066</ele>
        <time>2023-05-15T10:02:38.000Z</time>
      </trkpt>
      <trkpt lat="46.88117" lon="6.38001">
        <ele>1065.5999755859</ele>
        <time>2023-05-15T10:02:41.000Z</time>
      </trkpt>
      <trkpt lat="46.88116" lon="6.37995">
        <ele>1065.5999755859</ele>
        <time>2023-05-15T10:02:43.000Z</time>
      </trkpt>
      <trkpt lat="46.8811" lon="6.37986">
        <ele>1065.4000244141</ele>
        <time>2023-05-15T10:02:47.000Z</time>
      </trkpt>
      <trkpt lat="46.88108" lon="6.37982">
        <ele>1065.1999511719</ele>
        <time>2023-05-15T10:02:48.000Z</time>
      </trkpt>
      <trkpt lat="46.88105" lon="6.37977">
        <ele>1065.1999511719</ele>
        <time>2023-05-15T10:02:50.000Z</time>
      </trkpt>
      <trkpt lat="46.88103" lon="6.37973">
        <ele>1065</ele>
        <time>2023-05-15T10:02:52.000Z</time>
      </trkpt>
      <trkpt lat="46.88102" lon="6.37971">
        <ele>1064.8000488281</ele>
        <time>2023-05-15T10:02:53.000Z</time>
      </trkpt>
      <trkpt lat="46.88102" lon="6.37964">
        <ele>1064.5999755859</ele>
        <time>2023-05-15T10:02:55.000Z</time>
      </trkpt>
      <trkpt lat="46.88102" lon="6.37959">
        <ele>1064.5999755859</ele>
        <time>2023-05-15T10:02:57.000Z</time>
      </trkpt>
      <trkpt lat="46.88101" lon="6.37956">
        <ele>1064.4000244141</ele>
        <time>2023-05-15T10:02:58.000Z</time>
      </trkpt>
      <trkpt lat="46.88102" lon="6.37953">
        <ele>1064.4000244141</ele>
        <time>2023-05-15T10:02:59.000Z</time>
      </trkpt>
      <trkpt lat="46.88101" lon="6.37946">
        <ele>1064.4000244141</ele>
        <time>2023-05-15T10:03:01.000Z</time>
      </trkpt>
      <trkpt lat="46.88099" lon="6.37939">
        <ele>1064.4000244141</ele>
        <time>2023-05-15T10:03:02.000Z</time>
      </trkpt>
      <trkpt lat="46.88086" lon="6.37913">
        <ele>1064.1999511719</ele>
        <time>2023-05-15T10:03:06.000Z</time>
      </trkpt>
      <trkpt lat="46.88078" lon="6.37898">
        <ele>1064</ele>
        <time>2023-05-15T10:03:09.000Z</time>
      </trkpt>
      <trkpt lat="46.88076" lon="6.37894">
        <ele>1064</ele>
        <time>2023-05-15T10:03:10.000Z</time>
      </trkpt>
      <trkpt lat="46.8807" lon="6.37886">
        <ele>1063.5999755859</ele>
        <time>2023-05-15T10:03:13.000Z</time>
      </trkpt>
      <trkpt lat="46.88064" lon="6.37876">
        <ele>1063.4000244141</ele>
        <time>2023-05-15T10:03:15.000Z</time>
      </trkpt>
      <trkpt lat="46.88058" lon="6.37873">
        <ele>1063</ele>
        <time>2023-05-15T10:03:17.000Z</time>
      </trkpt>
      <trkpt lat="46.88042" lon="6.37865">
        <ele>1062.8000488281</ele>
        <time>2023-05-15T10:03:22.000Z</time>
      </trkpt>
      <trkpt lat="46.88032" lon="6.37868">
        <ele>1062.4000244141</ele>
        <time>2023-05-15T10:03:25.000Z</time>
      </trkpt>
      <trkpt lat="46.88023" lon="6.37869">
        <ele>1062</ele>
        <time>2023-05-15T10:03:27.000Z</time>
      </trkpt>
      <trkpt lat="46.88003" lon="6.37869">
        <ele>1061.4000244141</ele>
        <time>2023-05-15T10:03:31.000Z</time>
      </trkpt>
      <trkpt lat="46.87977" lon="6.37867">
        <ele>1060.1999511719</ele>
        <time>2023-05-15T10:03:36.000Z</time>
      </trkpt>
      <trkpt lat="46.87964" lon="6.37865">
        <ele>1059.1999511719</ele>
        <time>2023-05-15T10:03:39.000Z</time>
      </trkpt>
      <trkpt lat="46.87961" lon="6.37866">
        <ele>1059</ele>
        <time>2023-05-15T10:03:40.000Z</time>
      </trkpt>
      <trkpt lat="46.8795" lon="6.37869">
        <ele>1057.8000488281</ele>
        <time>2023-05-15T10:03:44.000Z</time>
      </trkpt>
      <trkpt lat="46.87936" lon="6.37867">
        <ele>1056.1999511719</ele>
        <time>2023-05-15T10:03:49.000Z</time>
      </trkpt>
      <trkpt lat="46.87934" lon="6.37867">
        <ele>1056</ele>
        <time>2023-05-15T10:03:50.000Z</time>
      </trkpt>
      <trkpt lat="46.87929" lon="6.3787">
        <ele>1055.5999755859</ele>
        <time>2023-05-15T10:03:52.000Z</time>
      </trkpt>
      <trkpt lat="46.87926" lon="6.37871">
        <ele>1055.5999755859</ele>
        <time>2023-05-15T10:03:53.000Z</time>
      </trkpt>
      <trkpt lat="46.87922" lon="6.3787">
        <ele>1055.5999755859</ele>
        <time>2023-05-15T10:03:54.000Z</time>
      </trkpt>
      <trkpt lat="46.87914" lon="6.3787">
        <ele>1055.4000244141</ele>
        <time>2023-05-15T10:03:56.000Z</time>
      </trkpt>
      <trkpt lat="46.87906" lon="6.37867">
        <ele>1055</ele>
        <time>2023-05-15T10:03:58.000Z</time>
      </trkpt>
      <trkpt lat="46.87897" lon="6.37868">
        <ele>1054.5999755859</ele>
        <time>2023-05-15T10:04:00.000Z</time>
      </trkpt>
      <trkpt lat="46.87884" lon="6.37869">
        <ele>1053.8000488281</ele>
        <time>2023-05-15T10:04:03.000Z</time>
      </trkpt>
      <trkpt lat="46.87871" lon="6.3786">
        <ele>1053.4000244141</ele>
        <time>2023-05-15T10:04:05.000Z</time>
      </trkpt>
      <trkpt lat="46.87857" lon="6.37846">
        <ele>1052.8000488281</ele>
        <time>2023-05-15T10:04:07.000Z</time>
      </trkpt>
      <trkpt lat="46.87845" lon="6.3784">
        <ele>1052.4000244141</ele>
        <time>2023-05-15T10:04:09.000Z</time>
      </trkpt>
      <trkpt lat="46.87825" lon="6.37841">
        <ele>1051.5999755859</ele>
        <time>2023-05-15T10:04:12.000Z</time>
      </trkpt>
      <trkpt lat="46.87819" lon="6.37839">
        <ele>1051.5999755859</ele>
        <time>2023-05-15T10:04:13.000Z</time>
      </trkpt>
      <trkpt lat="46.87809" lon="6.37844">
        <ele>1051.1999511719</ele>
        <time>2023-05-15T10:04:15.000Z</time>
      </trkpt>
      <trkpt lat="46.87803" lon="6.37847">
        <ele>1050.5999755859</ele>
        <time>2023-05-15T10:04:16.000Z</time>
      </trkpt>
      <trkpt lat="46.87789" lon="6.3784">
        <ele>1049.8000488281</ele>
        <time>2023-05-15T10:04:18.000Z</time>
      </trkpt>
      <trkpt lat="46.8778" lon="6.37836">
        <ele>1049.4000244141</ele>
        <time>2023-05-15T10:04:19.000Z</time>
      </trkpt>
      <trkpt lat="46.87771" lon="6.37832">
        <ele>1049.1999511719</ele>
        <time>2023-05-15T10:04:20.000Z</time>
      </trkpt>
      <trkpt lat="46.87754" lon="6.3782">
        <ele>1048.1999511719</ele>
        <time>2023-05-15T10:04:22.000Z</time>
      </trkpt>
      <trkpt lat="46.87734" lon="6.37816">
        <ele>1047</ele>
        <time>2023-05-15T10:04:25.000Z</time>
      </trkpt>
      <trkpt lat="46.87724" lon="6.37809">
        <ele>1046.4000244141</ele>
        <time>2023-05-15T10:04:27.000Z</time>
      </trkpt>
      <trkpt lat="46.87717" lon="6.37808">
        <ele>1046</ele>
        <time>2023-05-15T10:04:28.000Z</time>
      </trkpt>
      <trkpt lat="46.87711" lon="6.37808">
        <ele>1046</ele>
        <time>2023-05-15T10:04:29.000Z</time>
      </trkpt>
      <trkpt lat="46.87706" lon="6.37805">
        <ele>1045.8000488281</ele>
        <time>2023-05-15T10:04:30.000Z</time>
      </trkpt>
      <trkpt lat="46.87696" lon="6.37799">
        <ele>1044</ele>
        <time>2023-05-15T10:04:32.000Z</time>
      </trkpt>
      <trkpt lat="46.87688" lon="6.37794">
        <ele>1042.8000488281</ele>
        <time>2023-05-15T10:04:34.000Z</time>
      </trkpt>
      <trkpt lat="46.87688" lon="6.37794">
        <ele>1042.1999511719</ele>
        <time>2023-05-15T10:04:35.000Z</time>
      </trkpt>
      <trkpt lat="46.87681" lon="6.37792">
        <ele>1042.1999511719</ele>
        <time>2023-05-15T10:04:36.000Z</time>
      </trkpt>
      <trkpt lat="46.87672" lon="6.3779">
        <ele>1041.5999755859</ele>
        <time>2023-05-15T10:04:38.000Z</time>
      </trkpt>
      <trkpt lat="46.87665" lon="6.37789">
        <ele>1040.1999511719</ele>
        <time>2023-05-15T10:04:40.000Z</time>
      </trkpt>
      <trkpt lat="46.87659" lon="6.3779">
        <ele>1039.5999755859</ele>
        <time>2023-05-15T10:04:42.000Z</time>
      </trkpt>
      <trkpt lat="46.87654" lon="6.37792">
        <ele>1039.1999511719</ele>
        <time>2023-05-15T10:04:44.000Z</time>
      </trkpt>
      <trkpt lat="46.87652" lon="6.37794">
        <ele>1039</ele>
        <time>2023-05-15T10:04:45.000Z</time>
      </trkpt>
      <trkpt lat="46.8765" lon="6.37798">
        <ele>1038.5999755859</ele>
        <time>2023-05-15T10:04:47.000Z</time>
      </trkpt>
      <trkpt lat="46.87645" lon="6.37813">
        <ele>1038.1999511719</ele>
        <time>2023-05-15T10:04:53.000Z</time>
      </trkpt>
      <trkpt lat="46.87644" lon="6.37815">
        <ele>1038.1999511719</ele>
        <time>2023-05-15T10:04:56.000Z</time>
      </trkpt>
      <trkpt lat="46.87644" lon="6.37815">
        <ele>1038.1999511719</ele>
        <time>2023-05-15T10:04:57.000Z</time>
      </trkpt>
      <trkpt lat="46.87648" lon="6.37823">
        <ele>1038</ele>
        <time>2023-05-15T10:12:17.000Z</time>
      </trkpt>
      <trkpt lat="46.87649" lon="6.37825">
        <ele>1038</ele>
        <time>2023-05-15T10:12:18.000Z</time>
      </trkpt>
      <trkpt lat="46.87658" lon="6.37839">
        <ele>1037.5999755859</ele>
        <time>2023-05-15T10:12:24.000Z</time>
      </trkpt>
      <trkpt lat="46.87672" lon="6.37855">
        <ele>1037.1999511719</ele>
        <time>2023-05-15T10:12:30.000Z</time>
      </trkpt>
      <trkpt lat="46.87675" lon="6.3786">
        <ele>1036.8000488281</ele>
        <time>2023-05-15T10:12:31.000Z</time>
      </trkpt>
      <trkpt lat="46.87682" lon="6.37882">
        <ele>1036.1999511719</ele>
        <time>2023-05-15T10:12:35.000Z</time>
      </trkpt>
      <trkpt lat="46.87683" lon="6.37889">
        <ele>1035.5999755859</ele>
        <time>2023-05-15T10:12:36.000Z</time>
      </trkpt>
      <trkpt lat="46.87683" lon="6.37904">
        <ele>1035</ele>
        <time>2023-05-15T10:12:38.000Z</time>
      </trkpt>
      <trkpt lat="46.87683" lon="6.3791">
        <ele>1034.5999755859</ele>
        <time>2023-05-15T10:12:39.000Z</time>
      </trkpt>
      <trkpt lat="46.87684" lon="6.37917">
        <ele>1034</ele>
        <time>2023-05-15T10:12:40.000Z</time>
      </trkpt>
      <trkpt lat="46.87684" lon="6.37926">
        <ele>1033.1999511719</ele>
        <time>2023-05-15T10:12:41.000Z</time>
      </trkpt>
      <trkpt lat="46.87685" lon="6.3794">
        <ele>1031.5999755859</ele>
        <time>2023-05-15T10:12:43.000Z</time>
      </trkpt>
      <trkpt lat="46.87685" lon="6.37948">
        <ele>1030.5999755859</ele>
        <time>2023-05-15T10:12:45.000Z</time>
      </trkpt>
      <trkpt lat="46.87685" lon="6.37963">
        <ele>1029.1999511719</ele>
        <time>2023-05-15T10:12:48.000Z</time>
      </trkpt>
      <trkpt lat="46.87684" lon="6.3798">
        <ele>1028.1999511719</ele>
        <time>2023-05-15T10:12:51.000Z</time>
      </trkpt>
      <trkpt lat="46.87684" lon="6.37987">
        <ele>1027.5999755859</ele>
        <time>2023-05-15T10:12:52.000Z</time>
      </trkpt>
      <trkpt lat="46.87684" lon="6.38">
        <ele>1026.8000488281</ele>
        <time>2023-05-15T10:12:54.000Z</time>
      </trkpt>
      <trkpt lat="46.87683" lon="6.38011">
        <ele>1026.4000244141</ele>
        <time>2023-05-15T10:12:56.000Z</time>
      </trkpt>
      <trkpt lat="46.87683" lon="6.38017">
        <ele>1026</ele>
        <time>2023-05-15T10:12:57.000Z</time>
      </trkpt>
      <trkpt lat="46.87682" lon="6.38024">
        <ele>1025.8000488281</ele>
        <time>2023-05-15T10:12:58.000Z</time>
      </trkpt>
      <trkpt lat="46.8768" lon="6.38029">
        <ele>1025.4000244141</ele>
        <time>2023-05-15T10:12:59.000Z</time>
      </trkpt>
      <trkpt lat="46.87676" lon="6.38039">
        <ele>1024</ele>
        <time>2023-05-15T10:13:01.000Z</time>
      </trkpt>
      <trkpt lat="46.87673" lon="6.38044">
        <ele>1023.5999755859</ele>
        <time>2023-05-15T10:13:02.000Z</time>
      </trkpt>
      <trkpt lat="46.87669" lon="6.38049">
        <ele>1022.799987793</ele>
        <time>2023-05-15T10:13:03.000Z</time>
      </trkpt>
      <trkpt lat="46.87665" lon="6.38054">
        <ele>1022</ele>
        <time>2023-05-15T10:13:04.000Z</time>
      </trkpt>
      <trkpt lat="46.87656" lon="6.38061">
        <ele>1021</ele>
        <time>2023-05-15T10:13:06.000Z</time>
      </trkpt>
      <trkpt lat="46.8765" lon="6.38064">
        <ele>1020.5999755859</ele>
        <time>2023-05-15T10:13:07.000Z</time>
      </trkpt>
      <trkpt lat="46.87643" lon="6.38066">
        <ele>1019.799987793</ele>
        <time>2023-05-15T10:13:08.000Z</time>
      </trkpt>
      <trkpt lat="46.87627" lon="6.38065">
        <ele>1018.5999755859</ele>
        <time>2023-05-15T10:13:11.000Z</time>
      </trkpt>
      <trkpt lat="46.87619" lon="6.38062">
        <ele>1017.200012207</ele>
        <time>2023-05-15T10:13:13.000Z</time>
      </trkpt>
      <trkpt lat="46.8761" lon="6.38057">
        <ele>1015.5999755859</ele>
        <time>2023-05-15T10:13:15.000Z</time>
      </trkpt>
      <trkpt lat="46.87606" lon="6.38053">
        <ele>1015.200012207</ele>
        <time>2023-05-15T10:13:16.000Z</time>
      </trkpt>
      <trkpt lat="46.87599" lon="6.38045">
        <ele>1014.5999755859</ele>
        <time>2023-05-15T10:13:18.000Z</time>
      </trkpt>
      <trkpt lat="46.87596" lon="6.38038">
        <ele>1013.799987793</ele>
        <time>2023-05-15T10:13:19.000Z</time>
      </trkpt>
      <trkpt lat="46.87593" lon="6.38032">
        <ele>1013.200012207</ele>
        <time>2023-05-15T10:13:20.000Z</time>
      </trkpt>
      <trkpt lat="46.87591" lon="6.38027">
        <ele>1012</ele>
        <time>2023-05-15T10:13:21.000Z</time>
      </trkpt>
      <trkpt lat="46.87589" lon="6.38022">
        <ele>1011.4000244141</ele>
        <time>2023-05-15T10:13:22.000Z</time>
      </trkpt>
      <trkpt lat="46.87585" lon="6.38011">
        <ele>1010.4000244141</ele>
        <time>2023-05-15T10:13:24.000Z</time>
      </trkpt>
      <trkpt lat="46.87584" lon="6.37996">
        <ele>1009</ele>
        <time>2023-05-15T10:13:27.000Z</time>
      </trkpt>
      <trkpt lat="46.87584" lon="6.37985">
        <ele>1008</ele>
        <time>2023-05-15T10:13:29.000Z</time>
      </trkpt>
      <trkpt lat="46.87585" lon="6.37972">
        <ele>1007</ele>
        <time>2023-05-15T10:13:32.000Z</time>
      </trkpt>
      <trkpt lat="46.87587" lon="6.37964">
        <ele>1005.799987793</ele>
        <time>2023-05-15T10:13:36.000Z</time>
      </trkpt>
      <trkpt lat="46.87587" lon="6.37964">
        <ele>1005.5999755859</ele>
        <time>2023-05-15T10:13:37.000Z</time>
      </trkpt>
      <trkpt lat="46.87587" lon="6.37956">
        <ele>1005</ele>
        <time>2023-05-15T10:14:08.000Z</time>
      </trkpt>
      <trkpt lat="46.87588" lon="6.37948">
        <ele>1005</ele>
        <time>2023-05-15T10:14:10.000Z</time>
      </trkpt>
      <trkpt lat="46.87582" lon="6.37922">
        <ele>1004.799987793</ele>
        <time>2023-05-15T10:14:15.000Z</time>
      </trkpt>
      <trkpt lat="46.8758" lon="6.37918">
        <ele>1004.5999755859</ele>
        <time>2023-05-15T10:14:16.000Z</time>
      </trkpt>
      <trkpt lat="46.87565" lon="6.37903">
        <ele>1004</ele>
        <time>2023-05-15T10:14:20.000Z</time>
      </trkpt>
      <trkpt lat="46.87552" lon="6.37903">
        <ele>1003</ele>
        <time>2023-05-15T10:14:23.000Z</time>
      </trkpt>
      <trkpt lat="46.87548" lon="6.37903">
        <ele>1002.799987793</ele>
        <time>2023-05-15T10:14:24.000Z</time>
      </trkpt>
      <trkpt lat="46.87534" lon="6.37902">
        <ele>1001.799987793</ele>
        <time>2023-05-15T10:14:27.000Z</time>
      </trkpt>
      <trkpt lat="46.87524" lon="6.37901">
        <ele>1001.200012207</ele>
        <time>2023-05-15T10:14:29.000Z</time>
      </trkpt>
      <trkpt lat="46.87513" lon="6.37898">
        <ele>1001</ele>
        <time>2023-05-15T10:14:31.000Z</time>
      </trkpt>
      <trkpt lat="46.8751" lon="6.37897">
        <ele>1000.4000244141</ele>
        <time>2023-05-15T10:14:32.000Z</time>
      </trkpt>
      <trkpt lat="46.87501" lon="6.37893">
        <ele>999.40002441406</ele>
        <time>2023-05-15T10:14:34.000Z</time>
      </trkpt>
      <trkpt lat="46.87493" lon="6.37886">
        <ele>998</ele>
        <time>2023-05-15T10:14:37.000Z</time>
      </trkpt>
      <trkpt lat="46.8749" lon="6.37883">
        <ele>996.79998779297</ele>
        <time>2023-05-15T10:14:39.000Z</time>
      </trkpt>
      <trkpt lat="46.87489" lon="6.37882">
        <ele>995.59997558594</ele>
        <time>2023-05-15T10:14:41.000Z</time>
      </trkpt>
      <trkpt lat="46.87489" lon="6.37882">
        <ele>995.20001220703</ele>
        <time>2023-05-15T10:14:42.000Z</time>
      </trkpt>
      <trkpt lat="46.87487" lon="6.37882">
        <ele>993.79998779297</ele>
        <time>2023-05-15T10:15:18.000Z</time>
      </trkpt>
      <trkpt lat="46.87476" lon="6.37881">
        <ele>993.59997558594</ele>
        <time>2023-05-15T10:15:23.000Z</time>
      </trkpt>
      <trkpt lat="46.87473" lon="6.37881">
        <ele>993.40002441406</ele>
        <time>2023-05-15T10:15:24.000Z</time>
      </trkpt>
      <trkpt lat="46.87456" lon="6.37889">
        <ele>992.79998779297</ele>
        <time>2023-05-15T10:15:29.000Z</time>
      </trkpt>
      <trkpt lat="46.87452" lon="6.3789">
        <ele>992.20001220703</ele>
        <time>2023-05-15T10:15:30.000Z</time>
      </trkpt>
      <trkpt lat="46.8744" lon="6.37897">
        <ele>991</ele>
        <time>2023-05-15T10:15:34.000Z</time>
      </trkpt>
      <trkpt lat="46.87437" lon="6.37898">
        <ele>990.59997558594</ele>
        <time>2023-05-15T10:15:35.000Z</time>
      </trkpt>
      <trkpt lat="46.87433" lon="6.37903">
        <ele>989.79998779297</ele>
        <time>2023-05-15T10:15:37.000Z</time>
      </trkpt>
      <trkpt lat="46.87431" lon="6.3791">
        <ele>989</ele>
        <time>2023-05-15T10:15:39.000Z</time>
      </trkpt>
      <trkpt lat="46.8743" lon="6.3792">
        <ele>988.79998779297</ele>
        <time>2023-05-15T10:15:41.000Z</time>
      </trkpt>
      <trkpt lat="46.87428" lon="6.37941">
        <ele>987.79998779297</ele>
        <time>2023-05-15T10:15:45.000Z</time>
      </trkpt>
      <trkpt lat="46.87429" lon="6.37956">
        <ele>986</ele>
        <time>2023-05-15T10:15:48.000Z</time>
      </trkpt>
      <trkpt lat="46.87428" lon="6.37967">
        <ele>985</ele>
        <time>2023-05-15T10:15:50.000Z</time>
      </trkpt>
      <trkpt lat="46.87428" lon="6.37973">
        <ele>984.59997558594</ele>
        <time>2023-05-15T10:15:51.000Z</time>
      </trkpt>
      <trkpt lat="46.87427" lon="6.37984">
        <ele>984</ele>
        <time>2023-05-15T10:15:53.000Z</time>
      </trkpt>
      <trkpt lat="46.87427" lon="6.37995">
        <ele>982.79998779297</ele>
        <time>2023-05-15T10:15:55.000Z</time>
      </trkpt>
      <trkpt lat="46.87426" lon="6.38011">
        <ele>982</ele>
        <time>2023-05-15T10:15:58.000Z</time>
      </trkpt>
      <trkpt lat="46.87426" lon="6.38015">
        <ele>981.40002441406</ele>
        <time>2023-05-15T10:15:59.000Z</time>
      </trkpt>
      <trkpt lat="46.87425" lon="6.38032">
        <ele>980</ele>
        <time>2023-05-15T10:16:02.000Z</time>
      </trkpt>
      <trkpt lat="46.87426" lon="6.38052">
        <ele>979.40002441406</ele>
        <time>2023-05-15T10:16:05.000Z</time>
      </trkpt>
      <trkpt lat="46.87426" lon="6.38059">
        <ele>979</ele>
        <time>2023-05-15T10:16:06.000Z</time>
      </trkpt>
      <trkpt lat="46.87425" lon="6.38071">
        <ele>978</ele>
        <time>2023-05-15T10:16:08.000Z</time>
      </trkpt>
      <trkpt lat="46.87424" lon="6.3808">
        <ele>976.79998779297</ele>
        <time>2023-05-15T10:16:10.000Z</time>
      </trkpt>
      <trkpt lat="46.87424" lon="6.38097">
        <ele>975.20001220703</ele>
        <time>2023-05-15T10:16:13.000Z</time>
      </trkpt>
      <trkpt lat="46.87425" lon="6.3811">
        <ele>974.40002441406</ele>
        <time>2023-05-15T10:16:15.000Z</time>
      </trkpt>
      <trkpt lat="46.87425" lon="6.38116">
        <ele>974</ele>
        <time>2023-05-15T10:16:16.000Z</time>
      </trkpt>
      <trkpt lat="46.87425" lon="6.3814">
        <ele>973.20001220703</ele>
        <time>2023-05-15T10:16:19.000Z</time>
      </trkpt>
      <trkpt lat="46.87426" lon="6.38147">
        <ele>972.59997558594</ele>
        <time>2023-05-15T10:16:20.000Z</time>
      </trkpt>
      <trkpt lat="46.87426" lon="6.38161">
        <ele>971</ele>
        <time>2023-05-15T10:16:22.000Z</time>
      </trkpt>
      <trkpt lat="46.87427" lon="6.38168">
        <ele>970.40002441406</ele>
        <time>2023-05-15T10:16:23.000Z</time>
      </trkpt>
      <trkpt lat="46.87428" lon="6.38175">
        <ele>969.79998779297</ele>
        <time>2023-05-15T10:16:24.000Z</time>
      </trkpt>
      <trkpt lat="46.87428" lon="6.38183">
        <ele>969.59997558594</ele>
        <time>2023-05-15T10:16:25.000Z</time>
      </trkpt>
      <trkpt lat="46.87429" lon="6.3819">
        <ele>969.20001220703</ele>
        <time>2023-05-15T10:16:26.000Z</time>
      </trkpt>
      <trkpt lat="46.87429" lon="6.38198">
        <ele>968.40002441406</ele>
        <time>2023-05-15T10:16:27.000Z</time>
      </trkpt>
      <trkpt lat="46.8743" lon="6.3821">
        <ele>967.40002441406</ele>
        <time>2023-05-15T10:16:29.000Z</time>
      </trkpt>
      <trkpt lat="46.87431" lon="6.38215">
        <ele>966.79998779297</ele>
        <time>2023-05-15T10:16:30.000Z</time>
      </trkpt>
      <trkpt lat="46.87432" lon="6.3822">
        <ele>965.79998779297</ele>
        <time>2023-05-15T10:16:31.000Z</time>
      </trkpt>
      <trkpt lat="46.87434" lon="6.38232">
        <ele>964.79998779297</ele>
        <time>2023-05-15T10:16:34.000Z</time>
      </trkpt>
      <trkpt lat="46.87436" lon="6.38241">
        <ele>963.79998779297</ele>
        <time>2023-05-15T10:16:36.000Z</time>
      </trkpt>
      <trkpt lat="46.87437" lon="6.38245">
        <ele>963.59997558594</ele>
        <time>2023-05-15T10:16:37.000Z</time>
      </trkpt>
      <trkpt lat="46.87439" lon="6.38265">
        <ele>962.40002441406</ele>
        <time>2023-05-15T10:16:41.000Z</time>
      </trkpt>
      <trkpt lat="46.87442" lon="6.38274">
        <ele>961.20001220703</ele>
        <time>2023-05-15T10:16:44.000Z</time>
      </trkpt>
      <trkpt lat="46.87443" lon="6.38277">
        <ele>960.79998779297</ele>
        <time>2023-05-15T10:16:45.000Z</time>
      </trkpt>
      <trkpt lat="46.87444" lon="6.38283">
        <ele>959.79998779297</ele>
        <time>2023-05-15T10:16:47.000Z</time>
      </trkpt>
      <trkpt lat="46.87444" lon="6.38285">
        <ele>958.79998779297</ele>
        <time>2023-05-15T10:16:50.000Z</time>
      </trkpt>
      <trkpt lat="46.87444" lon="6.38285">
        <ele>958.40002441406</ele>
        <time>2023-05-15T10:16:52.000Z</time>
      </trkpt>
      <trkpt lat="46.8744" lon="6.38282">
        <ele>957.40002441406</ele>
        <time>2023-05-15T10:17:21.000Z</time>
      </trkpt>
      <trkpt lat="46.87437" lon="6.38278">
        <ele>957.20001220703</ele>
        <time>2023-05-15T10:17:23.000Z</time>
      </trkpt>
      <trkpt lat="46.87425" lon="6.38258">
        <ele>957</ele>
        <time>2023-05-15T10:17:28.000Z</time>
      </trkpt>
      <trkpt lat="46.87416" lon="6.38245">
        <ele>956</ele>
        <time>2023-05-15T10:17:32.000Z</time>
      </trkpt>
      <trkpt lat="46.87412" lon="6.38239">
        <ele>955</ele>
        <time>2023-05-15T10:17:34.000Z</time>
      </trkpt>
      <trkpt lat="46.87407" lon="6.38234">
        <ele>953.79998779297</ele>
        <time>2023-05-15T10:17:36.000Z</time>
      </trkpt>
      <trkpt lat="46.87398" lon="6.38227">
        <ele>952.40002441406</ele>
        <time>2023-05-15T10:17:39.000Z</time>
      </trkpt>
      <trkpt lat="46.87395" lon="6.38225">
        <ele>952.20001220703</ele>
        <time>2023-05-15T10:17:40.000Z</time>
      </trkpt>
      <trkpt lat="46.87391" lon="6.38219">
        <ele>951.40002441406</ele>
        <time>2023-05-15T10:17:42.000Z</time>
      </trkpt>
      <trkpt lat="46.87387" lon="6.38211">
        <ele>950.79998779297</ele>
        <time>2023-05-15T10:17:45.000Z</time>
      </trkpt>
      <trkpt lat="46.87385" lon="6.38209">
        <ele>950.40002441406</ele>
        <time>2023-05-15T10:17:46.000Z</time>
      </trkpt>
      <trkpt lat="46.87381" lon="6.38201">
        <ele>949.40002441406</ele>
        <time>2023-05-15T10:17:49.000Z</time>
      </trkpt>
      <trkpt lat="46.87379" lon="6.38193">
        <ele>948.59997558594</ele>
        <time>2023-05-15T10:17:51.000Z</time>
      </trkpt>
      <trkpt lat="46.87377" lon="6.38185">
        <ele>948.20001220703</ele>
        <time>2023-05-15T10:17:53.000Z</time>
      </trkpt>
      <trkpt lat="46.87372" lon="6.38173">
        <ele>947.40002441406</ele>
        <time>2023-05-15T10:17:57.000Z</time>
      </trkpt>
      <trkpt lat="46.87372" lon="6.38164">
        <ele>946.79998779297</ele>
        <time>2023-05-15T10:17:59.000Z</time>
      </trkpt>
      <trkpt lat="46.87369" lon="6.38151">
        <ele>946.20001220703</ele>
        <time>2023-05-15T10:18:02.000Z</time>
      </trkpt>
      <trkpt lat="46.87367" lon="6.38141">
        <ele>945.59997558594</ele>
        <time>2023-05-15T10:18:04.000Z</time>
      </trkpt>
      <trkpt lat="46.87367" lon="6.38132">
        <ele>945.20001220703</ele>
        <time>2023-05-15T10:18:06.000Z</time>
      </trkpt>
      <trkpt lat="46.87367" lon="6.38117">
        <ele>944.20001220703</ele>
        <time>2023-05-15T10:18:09.000Z</time>
      </trkpt>
      <trkpt lat="46.87366" lon="6.3811">
        <ele>944.20001220703</ele>
        <time>2023-05-15T10:18:10.000Z</time>
      </trkpt>
      <trkpt lat="46.87364" lon="6.38102">
        <ele>943.59997558594</ele>
        <time>2023-05-15T10:18:11.000Z</time>
      </trkpt>
      <trkpt lat="46.87361" lon="6.38095">
        <ele>943.40002441406</ele>
        <time>2023-05-15T10:18:12.000Z</time>
      </trkpt>
      <trkpt lat="46.87359" lon="6.38088">
        <ele>943</ele>
        <time>2023-05-15T10:18:13.000Z</time>
      </trkpt>
      <trkpt lat="46.87355" lon="6.38068">
        <ele>941.59997558594</ele>
        <time>2023-05-15T10:18:16.000Z</time>
      </trkpt>
      <trkpt lat="46.87353" lon="6.38059">
        <ele>941.40002441406</ele>
        <time>2023-05-15T10:18:17.000Z</time>
      </trkpt>
      <trkpt lat="46.87349" lon="6.3805">
        <ele>940.20001220703</ele>
        <time>2023-05-15T10:18:18.000Z</time>
      </trkpt>
      <trkpt lat="46.87343" lon="6.38035">
        <ele>939</ele>
        <time>2023-05-15T10:18:20.000Z</time>
      </trkpt>
      <trkpt lat="46.87339" lon="6.38023">
        <ele>938</ele>
        <time>2023-05-15T10:18:22.000Z</time>
      </trkpt>
      <trkpt lat="46.87335" lon="6.38011">
        <ele>937</ele>
        <time>2023-05-15T10:18:24.000Z</time>
      </trkpt>
      <trkpt lat="46.87334" lon="6.38005">
        <ele>936.40002441406</ele>
        <time>2023-05-15T10:18:25.000Z</time>
      </trkpt>
      <trkpt lat="46.87332" lon="6.38002">
        <ele>936.20001220703</ele>
        <time>2023-05-15T10:18:26.000Z</time>
      </trkpt>
      <trkpt lat="46.8733" lon="6.38">
        <ele>935.40002441406</ele>
        <time>2023-05-15T10:18:27.000Z</time>
      </trkpt>
      <trkpt lat="46.87328" lon="6.38">
        <ele>935</ele>
        <time>2023-05-15T10:18:28.000Z</time>
      </trkpt>
      <trkpt lat="46.87326" lon="6.38002">
        <ele>934.20001220703</ele>
        <time>2023-05-15T10:18:29.000Z</time>
      </trkpt>
      <trkpt lat="46.87325" lon="6.38004">
        <ele>933.79998779297</ele>
        <time>2023-05-15T10:18:30.000Z</time>
      </trkpt>
      <trkpt lat="46.87326" lon="6.38017">
        <ele>933</ele>
        <time>2023-05-15T10:18:33.000Z</time>
      </trkpt>
      <trkpt lat="46.87327" lon="6.38027">
        <ele>932</ele>
        <time>2023-05-15T10:18:35.000Z</time>
      </trkpt>
      <trkpt lat="46.87328" lon="6.38032">
        <ele>931.40002441406</ele>
        <time>2023-05-15T10:18:36.000Z</time>
      </trkpt>
      <trkpt lat="46.8733" lon="6.38054">
        <ele>930</ele>
        <time>2023-05-15T10:18:40.000Z</time>
      </trkpt>
      <trkpt lat="46.87331" lon="6.3806">
        <ele>929.40002441406</ele>
        <time>2023-05-15T10:18:41.000Z</time>
      </trkpt>
      <trkpt lat="46.87331" lon="6.38071">
        <ele>928.59997558594</ele>
        <time>2023-05-15T10:18:43.000Z</time>
      </trkpt>
      <trkpt lat="46.87331" lon="6.38082">
        <ele>927.40002441406</ele>
        <time>2023-05-15T10:18:45.000Z</time>
      </trkpt>
      <trkpt lat="46.87331" lon="6.38087">
        <ele>927</ele>
        <time>2023-05-15T10:18:46.000Z</time>
      </trkpt>
      <trkpt lat="46.87332" lon="6.38103">
        <ele>926.20001220703</ele>
        <time>2023-05-15T10:18:49.000Z</time>
      </trkpt>
      <trkpt lat="46.87332" lon="6.38115">
        <ele>925.59997558594</ele>
        <time>2023-05-15T10:18:51.000Z</time>
      </trkpt>
      <trkpt lat="46.87332" lon="6.38128">
        <ele>924.79998779297</ele>
        <time>2023-05-15T10:18:53.000Z</time>
      </trkpt>
      <trkpt lat="46.87331" lon="6.38143">
        <ele>924</ele>
        <time>2023-05-15T10:18:55.000Z</time>
      </trkpt>
      <trkpt lat="46.8733" lon="6.3815">
        <ele>923.40002441406</ele>
        <time>2023-05-15T10:18:56.000Z</time>
      </trkpt>
      <trkpt lat="46.87327" lon="6.38161">
        <ele>922.20001220703</ele>
        <time>2023-05-15T10:18:58.000Z</time>
      </trkpt>
      <trkpt lat="46.87325" lon="6.38174">
        <ele>921</ele>
        <time>2023-05-15T10:19:00.000Z</time>
      </trkpt>
      <trkpt lat="46.87325" lon="6.3818">
        <ele>920.40002441406</ele>
        <time>2023-05-15T10:19:01.000Z</time>
      </trkpt>
      <trkpt lat="46.87323" lon="6.38191">
        <ele>919.79998779297</ele>
        <time>2023-05-15T10:19:03.000Z</time>
      </trkpt>
      <trkpt lat="46.87322" lon="6.38203">
        <ele>918.79998779297</ele>
        <time>2023-05-15T10:19:05.000Z</time>
      </trkpt>
      <trkpt lat="46.87321" lon="6.38209">
        <ele>917.79998779297</ele>
        <time>2023-05-15T10:19:06.000Z</time>
      </trkpt>
      <trkpt lat="46.87321" lon="6.38215">
        <ele>917.59997558594</ele>
        <time>2023-05-15T10:19:07.000Z</time>
      </trkpt>
      <trkpt lat="46.87322" lon="6.38233">
        <ele>916.40002441406</ele>
        <time>2023-05-15T10:19:10.000Z</time>
      </trkpt>
      <trkpt lat="46.87325" lon="6.38245">
        <ele>915.59997558594</ele>
        <time>2023-05-15T10:19:12.000Z</time>
      </trkpt>
      <trkpt lat="46.87326" lon="6.38252">
        <ele>915.20001220703</ele>
        <time>2023-05-15T10:19:13.000Z</time>
      </trkpt>
      <trkpt lat="46.87327" lon="6.3826">
        <ele>914.59997558594</ele>
        <time>2023-05-15T10:19:14.000Z</time>
      </trkpt>
      <trkpt lat="46.87327" lon="6.38268">
        <ele>914</ele>
        <time>2023-05-15T10:19:15.000Z</time>
      </trkpt>
      <trkpt lat="46.87328" lon="6.38282">
        <ele>913</ele>
        <time>2023-05-15T10:19:17.000Z</time>
      </trkpt>
      <trkpt lat="46.87329" lon="6.38289">
        <ele>912.59997558594</ele>
        <time>2023-05-15T10:19:18.000Z</time>
      </trkpt>
      <trkpt lat="46.87329" lon="6.38296">
        <ele>911.79998779297</ele>
        <time>2023-05-15T10:19:19.000Z</time>
      </trkpt>
      <trkpt lat="46.87329" lon="6.38304">
        <ele>911.40002441406</ele>
        <time>2023-05-15T10:19:20.000Z</time>
      </trkpt>
      <trkpt lat="46.87328" lon="6.38311">
        <ele>910.79998779297</ele>
        <time>2023-05-15T10:19:21.000Z</time>
      </trkpt>
      <trkpt lat="46.87331" lon="6.38322">
        <ele>910</ele>
        <time>2023-05-15T10:19:23.000Z</time>
      </trkpt>
      <trkpt lat="46.8733" lon="6.38331">
        <ele>909.20001220703</ele>
        <time>2023-05-15T10:19:25.000Z</time>
      </trkpt>
      <trkpt lat="46.87328" lon="6.38333">
        <ele>908.79998779297</ele>
        <time>2023-05-15T10:19:26.000Z</time>
      </trkpt>
      <trkpt lat="46.87321" lon="6.38328">
        <ele>907.59997558594</ele>
        <time>2023-05-15T10:19:29.000Z</time>
      </trkpt>
      <trkpt lat="46.87317" lon="6.38314">
        <ele>906.40002441406</ele>
        <time>2023-05-15T10:19:32.000Z</time>
      </trkpt>
      <trkpt lat="46.87316" lon="6.38302">
        <ele>905.79998779297</ele>
        <time>2023-05-15T10:19:34.000Z</time>
      </trkpt>
      <trkpt lat="46.87315" lon="6.38296">
        <ele>905.40002441406</ele>
        <time>2023-05-15T10:19:35.000Z</time>
      </trkpt>
      <trkpt lat="46.87308" lon="6.38276">
        <ele>904.40002441406</ele>
        <time>2023-05-15T10:19:39.000Z</time>
      </trkpt>
      <trkpt lat="46.87305" lon="6.38271">
        <ele>903.40002441406</ele>
        <time>2023-05-15T10:19:40.000Z</time>
      </trkpt>
      <trkpt lat="46.87303" lon="6.38265">
        <ele>903</ele>
        <time>2023-05-15T10:19:41.000Z</time>
      </trkpt>
      <trkpt lat="46.87297" lon="6.38253">
        <ele>901.59997558594</ele>
        <time>2023-05-15T10:19:43.000Z</time>
      </trkpt>
      <trkpt lat="46.87293" lon="6.3824">
        <ele>900.79998779297</ele>
        <time>2023-05-15T10:19:45.000Z</time>
      </trkpt>
      <trkpt lat="46.87292" lon="6.38234">
        <ele>900.20001220703</ele>
        <time>2023-05-15T10:19:46.000Z</time>
      </trkpt>
      <trkpt lat="46.87289" lon="6.38218">
        <ele>898.79998779297</ele>
        <time>2023-05-15T10:19:49.000Z</time>
      </trkpt>
      <trkpt lat="46.87289" lon="6.38213">
        <ele>898.59997558594</ele>
        <time>2023-05-15T10:19:50.000Z</time>
      </trkpt>
      <trkpt lat="46.87288" lon="6.38197">
        <ele>897.40002441406</ele>
        <time>2023-05-15T10:19:53.000Z</time>
      </trkpt>
      <trkpt lat="46.87286" lon="6.3818">
        <ele>895.79998779297</ele>
        <time>2023-05-15T10:19:56.000Z</time>
      </trkpt>
      <trkpt lat="46.87286" lon="6.38174">
        <ele>895.59997558594</ele>
        <time>2023-05-15T10:19:57.000Z</time>
      </trkpt>
      <trkpt lat="46.87283" lon="6.38158">
        <ele>894.59997558594</ele>
        <time>2023-05-15T10:20:00.000Z</time>
      </trkpt>
      <trkpt lat="46.8728" lon="6.38149">
        <ele>893.59997558594</ele>
        <time>2023-05-15T10:20:02.000Z</time>
      </trkpt>
      <trkpt lat="46.87278" lon="6.38144">
        <ele>893.20001220703</ele>
        <time>2023-05-15T10:20:03.000Z</time>
      </trkpt>
      <trkpt lat="46.87277" lon="6.38139">
        <ele>892</ele>
        <time>2023-05-15T10:20:04.000Z</time>
      </trkpt>
      <trkpt lat="46.87275" lon="6.38129">
        <ele>891</ele>
        <time>2023-05-15T10:20:06.000Z</time>
      </trkpt>
      <trkpt lat="46.87271" lon="6.38115">
        <ele>890</ele>
        <time>2023-05-15T10:20:09.000Z</time>
      </trkpt>
      <trkpt lat="46.8727" lon="6.38111">
        <ele>889.79998779297</ele>
        <time>2023-05-15T10:20:10.000Z</time>
      </trkpt>
      <trkpt lat="46.87266" lon="6.38097">
        <ele>888.59997558594</ele>
        <time>2023-05-15T10:20:13.000Z</time>
      </trkpt>
      <trkpt lat="46.87261" lon="6.38082">
        <ele>887.59997558594</ele>
        <time>2023-05-15T10:20:16.000Z</time>
      </trkpt>
      <trkpt lat="46.87254" lon="6.3806">
        <ele>886.20001220703</ele>
        <time>2023-05-15T10:20:20.000Z</time>
      </trkpt>
      <trkpt lat="46.87251" lon="6.3805">
        <ele>885</ele>
        <time>2023-05-15T10:20:22.000Z</time>
      </trkpt>
      <trkpt lat="46.87248" lon="6.3804">
        <ele>883.79998779297</ele>
        <time>2023-05-15T10:20:25.000Z</time>
      </trkpt>
      <trkpt lat="46.87247" lon="6.38036">
        <ele>883.20001220703</ele>
        <time>2023-05-15T10:20:26.000Z</time>
      </trkpt>
      <trkpt lat="46.87245" lon="6.38031">
        <ele>882.40002441406</ele>
        <time>2023-05-15T10:20:28.000Z</time>
      </trkpt>
      <trkpt lat="46.87245" lon="6.3803">
        <ele>881.20001220703</ele>
        <time>2023-05-15T10:20:30.000Z</time>
      </trkpt>
      <trkpt lat="46.87245" lon="6.3803">
        <ele>881</ele>
        <time>2023-05-15T10:20:31.000Z</time>
      </trkpt>
      <trkpt lat="46.87241" lon="6.38019">
        <ele>878.40002441406</ele>
        <time>2023-05-15T10:21:14.000Z</time>
      </trkpt>
      <trkpt lat="46.87235" lon="6.38008">
        <ele>878.40002441406</ele>
        <time>2023-05-15T10:21:17.000Z</time>
      </trkpt>
      <trkpt lat="46.87222" lon="6.38001">
        <ele>878</ele>
        <time>2023-05-15T10:21:22.000Z</time>
      </trkpt>
      <trkpt lat="46.87215" lon="6.38011">
        <ele>877.79998779297</ele>
        <time>2023-05-15T10:21:26.000Z</time>
      </trkpt>
      <trkpt lat="46.87213" lon="6.38026">
        <ele>877.40002441406</ele>
        <time>2023-05-15T10:21:29.000Z</time>
      </trkpt>
      <trkpt lat="46.87213" lon="6.38037">
        <ele>877.20001220703</ele>
        <time>2023-05-15T10:21:31.000Z</time>
      </trkpt>
      <trkpt lat="46.87213" lon="6.38076">
        <ele>877.40002441406</ele>
        <time>2023-05-15T10:21:38.000Z</time>
      </trkpt>
      <trkpt lat="46.87212" lon="6.38128">
        <ele>877.79998779297</ele>
        <time>2023-05-15T10:21:47.000Z</time>
      </trkpt>
      <trkpt lat="46.87214" lon="6.38183">
        <ele>878</ele>
        <time>2023-05-15T10:21:56.000Z</time>
      </trkpt>
      <trkpt lat="46.87217" lon="6.38238">
        <ele>877</ele>
        <time>2023-05-15T10:22:05.000Z</time>
      </trkpt>
      <trkpt lat="46.8722" lon="6.38275">
        <ele>876.40002441406</ele>
        <time>2023-05-15T10:22:10.000Z</time>
      </trkpt>
      <trkpt lat="46.87221" lon="6.3829">
        <ele>876.20001220703</ele>
        <time>2023-05-15T10:22:12.000Z</time>
      </trkpt>
      <trkpt lat="46.87221" lon="6.38303">
        <ele>876</ele>
        <time>2023-05-15T10:22:14.000Z</time>
      </trkpt>
      <trkpt lat="46.87223" lon="6.38326">
        <ele>875.79998779297</ele>
        <time>2023-05-15T10:22:18.000Z</time>
      </trkpt>
      <trkpt lat="46.87226" lon="6.38379">
        <ele>875.79998779297</ele>
        <time>2023-05-15T10:22:26.000Z</time>
      </trkpt>
      <trkpt lat="46.87227" lon="6.38392">
        <ele>876</ele>
        <time>2023-05-15T10:22:28.000Z</time>
      </trkpt>
      <trkpt lat="46.87228" lon="6.38424">
        <ele>876</ele>
        <time>2023-05-15T10:22:33.000Z</time>
      </trkpt>
      <trkpt lat="46.87231" lon="6.38475">
        <ele>876.79998779297</ele>
        <time>2023-05-15T10:22:41.000Z</time>
      </trkpt>
      <trkpt lat="46.87234" lon="6.38532">
        <ele>877.40002441406</ele>
        <time>2023-05-15T10:22:50.000Z</time>
      </trkpt>
      <trkpt lat="46.87239" lon="6.38586">
        <ele>878.40002441406</ele>
        <time>2023-05-15T10:22:59.000Z</time>
      </trkpt>
      <trkpt lat="46.87239" lon="6.38592">
        <ele>878.59997558594</ele>
        <time>2023-05-15T10:23:00.000Z</time>
      </trkpt>
      <trkpt lat="46.87246" lon="6.38643">
        <ele>879.40002441406</ele>
        <time>2023-05-15T10:23:10.000Z</time>
      </trkpt>
      <trkpt lat="46.87253" lon="6.38681">
        <ele>880.59997558594</ele>
        <time>2023-05-15T10:23:18.000Z</time>
      </trkpt>
      <trkpt lat="46.87262" lon="6.38732">
        <ele>881.40002441406</ele>
        <time>2023-05-15T10:23:28.000Z</time>
      </trkpt>
      <trkpt lat="46.87265" lon="6.38754">
        <ele>881.59997558594</ele>
        <time>2023-05-15T10:23:32.000Z</time>
      </trkpt>
      <trkpt lat="46.87267" lon="6.38783">
        <ele>881.59997558594</ele>
        <time>2023-05-15T10:23:38.000Z</time>
      </trkpt>
      <trkpt lat="46.87265" lon="6.38823">
        <ele>881.79998779297</ele>
        <time>2023-05-15T10:23:46.000Z</time>
      </trkpt>
      <trkpt lat="46.8726" lon="6.38883">
        <ele>882</ele>
        <time>2023-05-15T10:23:57.000Z</time>
      </trkpt>
      <trkpt lat="46.87252" lon="6.38941">
        <ele>881.79998779297</ele>
        <time>2023-05-15T10:24:07.000Z</time>
      </trkpt>
      <trkpt lat="46.87247" lon="6.38977">
        <ele>881.79998779297</ele>
        <time>2023-05-15T10:24:14.000Z</time>
      </trkpt>
      <trkpt lat="46.87243" lon="6.39025">
        <ele>881.79998779297</ele>
        <time>2023-05-15T10:24:23.000Z</time>
      </trkpt>
      <trkpt lat="46.87242" lon="6.39067">
        <ele>882.40002441406</ele>
        <time>2023-05-15T10:24:31.000Z</time>
      </trkpt>
      <trkpt lat="46.87242" lon="6.39087">
        <ele>882.59997558594</ele>
        <time>2023-05-15T10:24:35.000Z</time>
      </trkpt>
      <trkpt lat="46.87243" lon="6.39101">
        <ele>882.79998779297</ele>
        <time>2023-05-15T10:24:38.000Z</time>
      </trkpt>
      <trkpt lat="46.87248" lon="6.39136">
        <ele>883.59997558594</ele>
        <time>2023-05-15T10:24:45.000Z</time>
      </trkpt>
      <trkpt lat="46.87249" lon="6.39141">
        <ele>883.79998779297</ele>
        <time>2023-05-15T10:24:46.000Z</time>
      </trkpt>
      <trkpt lat="46.87255" lon="6.3917">
        <ele>884.20001220703</ele>
        <time>2023-05-15T10:24:52.000Z</time>
      </trkpt>
      <trkpt lat="46.87264" lon="6.39201">
        <ele>884.79998779297</ele>
        <time>2023-05-15T10:24:58.000Z</time>
      </trkpt>
      <trkpt lat="46.87265" lon="6.39207">
        <ele>884.79998779297</ele>
        <time>2023-05-15T10:24:59.000Z</time>
      </trkpt>
      <trkpt lat="46.87272" lon="6.39228">
        <ele>884.79998779297</ele>
        <time>2023-05-15T10:25:03.000Z</time>
      </trkpt>
      <trkpt lat="46.87282" lon="6.39272">
        <ele>884.59997558594</ele>
        <time>2023-05-15T10:25:12.000Z</time>
      </trkpt>
      <trkpt lat="46.87283" lon="6.39291">
        <ele>884.59997558594</ele>
        <time>2023-05-15T10:25:15.000Z</time>
      </trkpt>
      <trkpt lat="46.87282" lon="6.39303">
        <ele>884.59997558594</ele>
        <time>2023-05-15T10:25:17.000Z</time>
      </trkpt>
      <trkpt lat="46.87278" lon="6.39331">
        <ele>884.59997558594</ele>
        <time>2023-05-15T10:25:22.000Z</time>
      </trkpt>
      <trkpt lat="46.87279" lon="6.39341">
        <ele>884.40002441406</ele>
        <time>2023-05-15T10:25:24.000Z</time>
      </trkpt>
      <trkpt lat="46.87285" lon="6.3938">
        <ele>884</ele>
        <time>2023-05-15T10:25:31.000Z</time>
      </trkpt>
      <trkpt lat="46.87291" lon="6.39416">
        <ele>883.59997558594</ele>
        <time>2023-05-15T10:25:36.000Z</time>
      </trkpt>
      <trkpt lat="46.87292" lon="6.39425">
        <ele>883.40002441406</ele>
        <time>2023-05-15T10:25:37.000Z</time>
      </trkpt>
      <trkpt lat="46.87292" lon="6.39434">
        <ele>883.40002441406</ele>
        <time>2023-05-15T10:25:38.000Z</time>
      </trkpt>
      <trkpt lat="46.8729" lon="6.39451">
        <ele>882.79998779297</ele>
        <time>2023-05-15T10:25:40.000Z</time>
      </trkpt>
      <trkpt lat="46.87287" lon="6.39459">
        <ele>882.40002441406</ele>
        <time>2023-05-15T10:25:41.000Z</time>
      </trkpt>
      <trkpt lat="46.87276" lon="6.39491">
        <ele>881.59997558594</ele>
        <time>2023-05-15T10:25:45.000Z</time>
      </trkpt>
      <trkpt lat="46.87274" lon="6.39499">
        <ele>881.59997558594</ele>
        <time>2023-05-15T10:25:46.000Z</time>
      </trkpt>
      <trkpt lat="46.87269" lon="6.39514">
        <ele>881.40002441406</ele>
        <time>2023-05-15T10:25:48.000Z</time>
      </trkpt>
      <trkpt lat="46.87263" lon="6.39534">
        <ele>881</ele>
        <time>2023-05-15T10:25:51.000Z</time>
      </trkpt>
      <trkpt lat="46.87261" lon="6.39541">
        <ele>880.79998779297</ele>
        <time>2023-05-15T10:25:52.000Z</time>
      </trkpt>
      <trkpt lat="46.87254" lon="6.39571">
        <ele>880.40002441406</ele>
        <time>2023-05-15T10:25:57.000Z</time>
      </trkpt>
      <trkpt lat="46.87253" lon="6.39576">
        <ele>880.40002441406</ele>
        <time>2023-05-15T10:25:58.000Z</time>
      </trkpt>
      <trkpt lat="46.8725" lon="6.39599">
        <ele>880.40002441406</ele>
        <time>2023-05-15T10:26:02.000Z</time>
      </trkpt>
      <trkpt lat="46.87247" lon="6.39622">
        <ele>880.59997558594</ele>
        <time>2023-05-15T10:26:06.000Z</time>
      </trkpt>
      <trkpt lat="46.8724" lon="6.39663">
        <ele>881.20001220703</ele>
        <time>2023-05-15T10:26:14.000Z</time>
      </trkpt>
      <trkpt lat="46.87236" lon="6.39678">
        <ele>881.40002441406</ele>
        <time>2023-05-15T10:26:17.000Z</time>
      </trkpt>
      <trkpt lat="46.87229" lon="6.39694">
        <ele>881.79998779297</ele>
        <time>2023-05-15T10:26:21.000Z</time>
      </trkpt>
      <trkpt lat="46.87218" lon="6.39709">
        <ele>882.59997558594</ele>
        <time>2023-05-15T10:26:26.000Z</time>
      </trkpt>
      <trkpt lat="46.87216" lon="6.39711">
        <ele>883</ele>
        <time>2023-05-15T10:26:27.000Z</time>
      </trkpt>
      <trkpt lat="46.87202" lon="6.39724">
        <ele>883.79998779297</ele>
        <time>2023-05-15T10:26:33.000Z</time>
      </trkpt>
      <trkpt lat="46.87198" lon="6.39729">
        <ele>884</ele>
        <time>2023-05-15T10:26:35.000Z</time>
      </trkpt>
      <trkpt lat="46.87189" lon="6.39739">
        <ele>884.79998779297</ele>
        <time>2023-05-15T10:26:40.000Z</time>
      </trkpt>
      <trkpt lat="46.87187" lon="6.39741">
        <ele>884.79998779297</ele>
        <time>2023-05-15T10:26:41.000Z</time>
      </trkpt>
      <trkpt lat="46.87178" lon="6.39757">
        <ele>886</ele>
        <time>2023-05-15T10:26:47.000Z</time>
      </trkpt>
      <trkpt lat="46.87173" lon="6.39766">
        <ele>886.79998779297</ele>
        <time>2023-05-15T10:26:51.000Z</time>
      </trkpt>
      <trkpt lat="46.87172" lon="6.39769">
        <ele>887.20001220703</ele>
        <time>2023-05-15T10:26:52.000Z</time>
      </trkpt>
      <trkpt lat="46.87164" lon="6.39791">
        <ele>888.20001220703</ele>
        <time>2023-05-15T10:27:00.000Z</time>
      </trkpt>
      <trkpt lat="46.87162" lon="6.39808">
        <ele>889.20001220703</ele>
        <time>2023-05-15T10:27:06.000Z</time>
      </trkpt>
      <trkpt lat="46.87162" lon="6.3981">
        <ele>889.40002441406</ele>
        <time>2023-05-15T10:27:07.000Z</time>
      </trkpt>
      <trkpt lat="46.87162" lon="6.39813">
        <ele>889.59997558594</ele>
        <time>2023-05-15T10:27:08.000Z</time>
      </trkpt>
      <trkpt lat="46.87164" lon="6.39823">
        <ele>890.40002441406</ele>
        <time>2023-05-15T10:27:12.000Z</time>
      </trkpt>
      <trkpt lat="46.87167" lon="6.39833">
        <ele>891</ele>
        <time>2023-05-15T10:27:16.000Z</time>
      </trkpt>
      <trkpt lat="46.87167" lon="6.39835">
        <ele>891.40002441406</ele>
        <time>2023-05-15T10:27:17.000Z</time>
      </trkpt>
      <trkpt lat="46.87171" lon="6.39843">
        <ele>892</ele>
        <time>2023-05-15T10:27:21.000Z</time>
      </trkpt>
      <trkpt lat="46.87174" lon="6.39847">
        <ele>892.20001220703</ele>
        <time>2023-05-15T10:27:23.000Z</time>
      </trkpt>
      <trkpt lat="46.87175" lon="6.39849">
        <ele>892.59997558594</ele>
        <time>2023-05-15T10:27:24.000Z</time>
      </trkpt>
      <trkpt lat="46.87183" lon="6.39862">
        <ele>893.59997558594</ele>
        <time>2023-05-15T10:27:31.000Z</time>
      </trkpt>
      <trkpt lat="46.87185" lon="6.39863">
        <ele>893.79998779297</ele>
        <time>2023-05-15T10:27:32.000Z</time>
      </trkpt>
      <trkpt lat="46.87195" lon="6.39874">
        <ele>894.79998779297</ele>
        <time>2023-05-15T10:27:40.000Z</time>
      </trkpt>
      <trkpt lat="46.87197" lon="6.39877">
        <ele>895.20001220703</ele>
        <time>2023-05-15T10:27:42.000Z</time>
      </trkpt>
      <trkpt lat="46.87204" lon="6.39884">
        <ele>895.79998779297</ele>
        <time>2023-05-15T10:27:48.000Z</time>
      </trkpt>
      <trkpt lat="46.87208" lon="6.39889">
        <ele>896.20001220703</ele>
        <time>2023-05-15T10:27:51.000Z</time>
      </trkpt>
      <trkpt lat="46.87213" lon="6.39895">
        <ele>896.59997558594</ele>
        <time>2023-05-15T10:27:55.000Z</time>
      </trkpt>
      <trkpt lat="46.87215" lon="6.39898">
        <ele>896.79998779297</ele>
        <time>2023-05-15T10:27:57.000Z</time>
      </trkpt>
      <trkpt lat="46.87218" lon="6.39903">
        <ele>897.40002441406</ele>
        <time>2023-05-15T10:28:00.000Z</time>
      </trkpt>
      <trkpt lat="46.87221" lon="6.39907">
        <ele>897.59997558594</ele>
        <time>2023-05-15T10:28:02.000Z</time>
      </trkpt>
      <trkpt lat="46.87227" lon="6.39918">
        <ele>898.20001220703</ele>
        <time>2023-05-15T10:28:08.000Z</time>
      </trkpt>
      <trkpt lat="46.8723" lon="6.39926">
        <ele>898.59997558594</ele>
        <time>2023-05-15T10:28:12.000Z</time>
      </trkpt>
      <trkpt lat="46.87231" lon="6.39932">
        <ele>899.20001220703</ele>
        <time>2023-05-15T10:28:15.000Z</time>
      </trkpt>
      <trkpt lat="46.87235" lon="6.39939">
        <ele>899.79998779297</ele>
        <time>2023-05-15T10:28:19.000Z</time>
      </trkpt>
      <trkpt lat="46.87236" lon="6.39947">
        <ele>900.40002441406</ele>
        <time>2023-05-15T10:28:23.000Z</time>
      </trkpt>
      <trkpt lat="46.87238" lon="6.39954">
        <ele>900.79998779297</ele>
        <time>2023-05-15T10:28:26.000Z</time>
      </trkpt>
      <trkpt lat="46.87241" lon="6.39963">
        <ele>901.40002441406</ele>
        <time>2023-05-15T10:28:30.000Z</time>
      </trkpt>
      <trkpt lat="46.87242" lon="6.39971">
        <ele>901.79998779297</ele>
        <time>2023-05-15T10:28:33.000Z</time>
      </trkpt>
      <trkpt lat="46.87244" lon="6.39976">
        <ele>902</ele>
        <time>2023-05-15T10:28:35.000Z</time>
      </trkpt>
      <trkpt lat="46.87247" lon="6.39989">
        <ele>902.79998779297</ele>
        <time>2023-05-15T10:28:41.000Z</time>
      </trkpt>
      <trkpt lat="46.87249" lon="6.39997">
        <ele>903.20001220703</ele>
        <time>2023-05-15T10:28:44.000Z</time>
      </trkpt>
      <trkpt lat="46.87252" lon="6.40007">
        <ele>904</ele>
        <time>2023-05-15T10:28:48.000Z</time>
      </trkpt>
      <trkpt lat="46.87257" lon="6.40017">
        <ele>904.59997558594</ele>
        <time>2023-05-15T10:28:52.000Z</time>
      </trkpt>
      <trkpt lat="46.87258" lon="6.40019">
        <ele>904.79998779297</ele>
        <time>2023-05-15T10:28:53.000Z</time>
      </trkpt>
      <trkpt lat="46.8726" lon="6.40022">
        <ele>905</ele>
        <time>2023-05-15T10:28:55.000Z</time>
      </trkpt>
      <trkpt lat="46.87262" lon="6.40029">
        <ele>905.40002441406</ele>
        <time>2023-05-15T10:28:58.000Z</time>
      </trkpt>
      <trkpt lat="46.87261" lon="6.40037">
        <ele>906.20001220703</ele>
        <time>2023-05-15T10:29:01.000Z</time>
      </trkpt>
      <trkpt lat="46.87263" lon="6.40047">
        <ele>907</ele>
        <time>2023-05-15T10:29:06.000Z</time>
      </trkpt>
      <trkpt lat="46.87265" lon="6.40052">
        <ele>907.40002441406</ele>
        <time>2023-05-15T10:29:08.000Z</time>
      </trkpt>
      <trkpt lat="46.87268" lon="6.40069">
        <ele>908.40002441406</ele>
        <time>2023-05-15T10:29:16.000Z</time>
      </trkpt>
      <trkpt lat="46.87269" lon="6.40071">
        <ele>908.59997558594</ele>
        <time>2023-05-15T10:29:17.000Z</time>
      </trkpt>
      <trkpt lat="46.87273" lon="6.40086">
        <ele>909.59997558594</ele>
        <time>2023-05-15T10:29:24.000Z</time>
      </trkpt>
      <trkpt lat="46.87274" lon="6.40093">
        <ele>910.20001220703</ele>
        <time>2023-05-15T10:29:27.000Z</time>
      </trkpt>
      <trkpt lat="46.87275" lon="6.40103">
        <ele>910.59997558594</ele>
        <time>2023-05-15T10:29:31.000Z</time>
      </trkpt>
      <trkpt lat="46.87275" lon="6.40108">
        <ele>911</ele>
        <time>2023-05-15T10:29:33.000Z</time>
      </trkpt>
      <trkpt lat="46.87276" lon="6.40121">
        <ele>911.79998779297</ele>
        <time>2023-05-15T10:29:38.000Z</time>
      </trkpt>
      <trkpt lat="46.87276" lon="6.40139">
        <ele>913.20001220703</ele>
        <time>2023-05-15T10:29:45.000Z</time>
      </trkpt>
      <trkpt lat="46.87276" lon="6.40141">
        <ele>913.20001220703</ele>
        <time>2023-05-15T10:29:46.000Z</time>
      </trkpt>
      <trkpt lat="46.87276" lon="6.40155">
        <ele>914.20001220703</ele>
        <time>2023-05-15T10:29:52.000Z</time>
      </trkpt>
      <trkpt lat="46.87276" lon="6.40161">
        <ele>914.40002441406</ele>
        <time>2023-05-15T10:29:54.000Z</time>
      </trkpt>
      <trkpt lat="46.87275" lon="6.40179">
        <ele>915.20001220703</ele>
        <time>2023-05-15T10:30:01.000Z</time>
      </trkpt>
      <trkpt lat="46.87275" lon="6.40186">
        <ele>915.59997558594</ele>
        <time>2023-05-15T10:30:04.000Z</time>
      </trkpt>
      <trkpt lat="46.87274" lon="6.402">
        <ele>916.59997558594</ele>
        <time>2023-05-15T10:30:10.000Z</time>
      </trkpt>
      <trkpt lat="46.87274" lon="6.40202">
        <ele>916.59997558594</ele>
        <time>2023-05-15T10:30:11.000Z</time>
      </trkpt>
      <trkpt lat="46.87274" lon="6.40216">
        <ele>917.59997558594</ele>
        <time>2023-05-15T10:30:17.000Z</time>
      </trkpt>
      <trkpt lat="46.87275" lon="6.40222">
        <ele>917.79998779297</ele>
        <time>2023-05-15T10:30:19.000Z</time>
      </trkpt>
      <trkpt lat="46.87275" lon="6.40224">
        <ele>917.79998779297</ele>
        <time>2023-05-15T10:30:20.000Z</time>
      </trkpt>
      <trkpt lat="46.87275" lon="6.4023">
        <ele>918.20001220703</ele>
        <time>2023-05-15T10:30:23.000Z</time>
      </trkpt>
      <trkpt lat="46.87275" lon="6.40239">
        <ele>918.40002441406</ele>
        <time>2023-05-15T10:30:26.000Z</time>
      </trkpt>
      <trkpt lat="46.87275" lon="6.40244">
        <ele>918.79998779297</ele>
        <time>2023-05-15T10:30:28.000Z</time>
      </trkpt>
      <trkpt lat="46.87272" lon="6.40259">
        <ele>919.59997558594</ele>
        <time>2023-05-15T10:30:35.000Z</time>
      </trkpt>
      <trkpt lat="46.87272" lon="6.40263">
        <ele>920</ele>
        <time>2023-05-15T10:30:37.000Z</time>
      </trkpt>
      <trkpt lat="46.8727" lon="6.40273">
        <ele>920.40002441406</ele>
        <time>2023-05-15T10:30:42.000Z</time>
      </trkpt>
      <trkpt lat="46.87266" lon="6.40283">
        <ele>921</ele>
        <time>2023-05-15T10:30:46.000Z</time>
      </trkpt>
      <trkpt lat="46.87264" lon="6.40295">
        <ele>921.59997558594</ele>
        <time>2023-05-15T10:30:51.000Z</time>
      </trkpt>
      <trkpt lat="46.87261" lon="6.40309">
        <ele>922.20001220703</ele>
        <time>2023-05-15T10:30:57.000Z</time>
      </trkpt>
      <trkpt lat="46.87259" lon="6.40316">
        <ele>923</ele>
        <time>2023-05-15T10:31:00.000Z</time>
      </trkpt>
      <trkpt lat="46.87259" lon="6.40318">
        <ele>923</ele>
        <time>2023-05-15T10:31:01.000Z</time>
      </trkpt>
      <trkpt lat="46.87256" lon="6.40326">
        <ele>923.59997558594</ele>
        <time>2023-05-15T10:31:05.000Z</time>
      </trkpt>
      <trkpt lat="46.87254" lon="6.40335">
        <ele>924</ele>
        <time>2023-05-15T10:31:09.000Z</time>
      </trkpt>
      <trkpt lat="46.87253" lon="6.40343">
        <ele>924.59997558594</ele>
        <time>2023-05-15T10:31:13.000Z</time>
      </trkpt>
      <trkpt lat="46.87253" lon="6.40347">
        <ele>925</ele>
        <time>2023-05-15T10:31:15.000Z</time>
      </trkpt>
      <trkpt lat="46.87247" lon="6.40367">
        <ele>926</ele>
        <time>2023-05-15T10:31:25.000Z</time>
      </trkpt>
      <trkpt lat="46.87244" lon="6.40383">
        <ele>927</ele>
        <time>2023-05-15T10:31:32.000Z</time>
      </trkpt>
      <trkpt lat="46.87243" lon="6.40385">
        <ele>927.20001220703</ele>
        <time>2023-05-15T10:31:33.000Z</time>
      </trkpt>
      <trkpt lat="46.87238" lon="6.404">
        <ele>928.20001220703</ele>
        <time>2023-05-15T10:31:40.000Z</time>
      </trkpt>
      <trkpt lat="46.87235" lon="6.40408">
        <ele>928.40002441406</ele>
        <time>2023-05-15T10:31:44.000Z</time>
      </trkpt>
      <trkpt lat="46.87228" lon="6.40423">
        <ele>929.40002441406</ele>
        <time>2023-05-15T10:31:51.000Z</time>
      </trkpt>
      <trkpt lat="46.87221" lon="6.40434">
        <ele>929.40002441406</ele>
        <time>2023-05-15T10:31:56.000Z</time>
      </trkpt>
      <trkpt lat="46.87212" lon="6.40454">
        <ele>930</ele>
        <time>2023-05-15T10:32:03.000Z</time>
      </trkpt>
      <trkpt lat="46.87197" lon="6.40477">
        <ele>930</ele>
        <time>2023-05-15T10:32:11.000Z</time>
      </trkpt>
      <trkpt lat="46.87186" lon="6.40489">
        <ele>929.79998779297</ele>
        <time>2023-05-15T10:32:18.000Z</time>
      </trkpt>
      <trkpt lat="46.87172" lon="6.40498">
        <ele>929.79998779297</ele>
        <time>2023-05-15T10:32:24.000Z</time>
      </trkpt>
      <trkpt lat="46.87147" lon="6.40513">
        <ele>930.20001220703</ele>
        <time>2023-05-15T10:32:36.000Z</time>
      </trkpt>
      <trkpt lat="46.87145" lon="6.40514">
        <ele>930.20001220703</ele>
        <time>2023-05-15T10:32:37.000Z</time>
      </trkpt>
      <trkpt lat="46.87125" lon="6.40531">
        <ele>931</ele>
        <time>2023-05-15T10:32:47.000Z</time>
      </trkpt>
      <trkpt lat="46.87121" lon="6.40544">
        <ele>931.40002441406</ele>
        <time>2023-05-15T10:32:52.000Z</time>
      </trkpt>
      <trkpt lat="46.8712" lon="6.40551">
        <ele>931.40002441406</ele>
        <time>2023-05-15T10:32:54.000Z</time>
      </trkpt>
      <trkpt lat="46.87123" lon="6.4057">
        <ele>931.79998779297</ele>
        <time>2023-05-15T10:33:00.000Z</time>
      </trkpt>
      <trkpt lat="46.87129" lon="6.40584">
        <ele>932.40002441406</ele>
        <time>2023-05-15T10:33:04.000Z</time>
      </trkpt>
      <trkpt lat="46.87131" lon="6.40588">
        <ele>932.59997558594</ele>
        <time>2023-05-15T10:33:05.000Z</time>
      </trkpt>
      <trkpt lat="46.87143" lon="6.4061">
        <ele>933.40002441406</ele>
        <time>2023-05-15T10:33:12.000Z</time>
      </trkpt>
      <trkpt lat="46.87146" lon="6.40616">
        <ele>933.59997558594</ele>
        <time>2023-05-15T10:33:14.000Z</time>
      </trkpt>
      <trkpt lat="46.87155" lon="6.40639">
        <ele>934.40002441406</ele>
        <time>2023-05-15T10:33:21.000Z</time>
      </trkpt>
      <trkpt lat="46.87158" lon="6.40645">
        <ele>934.59997558594</ele>
        <time>2023-05-15T10:33:23.000Z</time>
      </trkpt>
      <trkpt lat="46.87166" lon="6.40664">
        <ele>935.59997558594</ele>
        <time>2023-05-15T10:33:29.000Z</time>
      </trkpt>
      <trkpt lat="46.87167" lon="6.40667">
        <ele>935.59997558594</ele>
        <time>2023-05-15T10:33:30.000Z</time>
      </trkpt>
      <trkpt lat="46.87174" lon="6.40683">
        <ele>936.20001220703</ele>
        <time>2023-05-15T10:33:35.000Z</time>
      </trkpt>
      <trkpt lat="46.87178" lon="6.40691">
        <ele>936.59997558594</ele>
        <time>2023-05-15T10:33:38.000Z</time>
      </trkpt>
      <trkpt lat="46.87181" lon="6.40696">
        <ele>937</ele>
        <time>2023-05-15T10:33:40.000Z</time>
      </trkpt>
      <trkpt lat="46.87186" lon="6.40707">
        <ele>937.79998779297</ele>
        <time>2023-05-15T10:33:44.000Z</time>
      </trkpt>
      <trkpt lat="46.8719" lon="6.40719">
        <ele>938.20001220703</ele>
        <time>2023-05-15T10:33:48.000Z</time>
      </trkpt>
      <trkpt lat="46.87196" lon="6.40732">
        <ele>939</ele>
        <time>2023-05-15T10:33:53.000Z</time>
      </trkpt>
      <trkpt lat="46.87198" lon="6.40734">
        <ele>939.20001220703</ele>
        <time>2023-05-15T10:33:54.000Z</time>
      </trkpt>
      <trkpt lat="46.87203" lon="6.40745">
        <ele>939.59997558594</ele>
        <time>2023-05-15T10:33:59.000Z</time>
      </trkpt>
      <trkpt lat="46.87207" lon="6.4075">
        <ele>940</ele>
        <time>2023-05-15T10:34:02.000Z</time>
      </trkpt>
      <trkpt lat="46.87217" lon="6.40768">
        <ele>941</ele>
        <time>2023-05-15T10:34:10.000Z</time>
      </trkpt>
      <trkpt lat="46.87218" lon="6.4077">
        <ele>941.40002441406</ele>
        <time>2023-05-15T10:34:11.000Z</time>
      </trkpt>
      <trkpt lat="46.87226" lon="6.40785">
        <ele>942</ele>
        <time>2023-05-15T10:34:18.000Z</time>
      </trkpt>
      <trkpt lat="46.87228" lon="6.40787">
        <ele>942.20001220703</ele>
        <time>2023-05-15T10:34:19.000Z</time>
      </trkpt>
      <trkpt lat="46.8724" lon="6.40806">
        <ele>942.79998779297</ele>
        <time>2023-05-15T10:34:27.000Z</time>
      </trkpt>
      <trkpt lat="46.87243" lon="6.40811">
        <ele>943</ele>
        <time>2023-05-15T10:34:29.000Z</time>
      </trkpt>
      <trkpt lat="46.87245" lon="6.40816">
        <ele>943.20001220703</ele>
        <time>2023-05-15T10:34:31.000Z</time>
      </trkpt>
      <trkpt lat="46.87253" lon="6.40829">
        <ele>944.20001220703</ele>
        <time>2023-05-15T10:34:37.000Z</time>
      </trkpt>
      <trkpt lat="46.87256" lon="6.40835">
        <ele>944.40002441406</ele>
        <time>2023-05-15T10:34:40.000Z</time>
      </trkpt>
      <trkpt lat="46.87264" lon="6.40849">
        <ele>945.20001220703</ele>
        <time>2023-05-15T10:34:47.000Z</time>
      </trkpt>
      <trkpt lat="46.87267" lon="6.40854">
        <ele>945.20001220703</ele>
        <time>2023-05-15T10:34:49.000Z</time>
      </trkpt>
      <trkpt lat="46.87273" lon="6.40867">
        <ele>946.20001220703</ele>
        <time>2023-05-15T10:34:55.000Z</time>
      </trkpt>
      <trkpt lat="46.87275" lon="6.40871">
        <ele>946.40002441406</ele>
        <time>2023-05-15T10:34:57.000Z</time>
      </trkpt>
      <trkpt lat="46.87284" lon="6.40892">
        <ele>947</ele>
        <time>2023-05-15T10:35:05.000Z</time>
      </trkpt>
      <trkpt lat="46.87287" lon="6.40899">
        <ele>947.40002441406</ele>
        <time>2023-05-15T10:35:08.000Z</time>
      </trkpt>
      <trkpt lat="46.87293" lon="6.40915">
        <ele>948</ele>
        <time>2023-05-15T10:35:14.000Z</time>
      </trkpt>
      <trkpt lat="46.87298" lon="6.40927">
        <ele>948.59997558594</ele>
        <time>2023-05-15T10:35:18.000Z</time>
      </trkpt>
      <trkpt lat="46.87303" lon="6.4094">
        <ele>949.20001220703</ele>
        <time>2023-05-15T10:35:22.000Z</time>
      </trkpt>
      <trkpt lat="46.87311" lon="6.40964">
        <ele>949.59997558594</ele>
        <time>2023-05-15T10:35:30.000Z</time>
      </trkpt>
      <trkpt lat="46.87321" lon="6.4099">
        <ele>950.20001220703</ele>
        <time>2023-05-15T10:35:39.000Z</time>
      </trkpt>
      <trkpt lat="46.87328" lon="6.41006">
        <ele>950.59997558594</ele>
        <time>2023-05-15T10:35:44.000Z</time>
      </trkpt>
      <trkpt lat="46.87329" lon="6.41009">
        <ele>950.59997558594</ele>
        <time>2023-05-15T10:35:45.000Z</time>
      </trkpt>
      <trkpt lat="46.87341" lon="6.41035">
        <ele>951.20001220703</ele>
        <time>2023-05-15T10:35:54.000Z</time>
      </trkpt>
      <trkpt lat="46.8735" lon="6.41051">
        <ele>951.59997558594</ele>
        <time>2023-05-15T10:36:00.000Z</time>
      </trkpt>
      <trkpt lat="46.87362" lon="6.41078">
        <ele>952.59997558594</ele>
        <time>2023-05-15T10:36:09.000Z</time>
      </trkpt>
      <trkpt lat="46.87363" lon="6.41081">
        <ele>952.79998779297</ele>
        <time>2023-05-15T10:36:10.000Z</time>
      </trkpt>
      <trkpt lat="46.87372" lon="6.41103">
        <ele>953.59997558594</ele>
        <time>2023-05-15T10:36:18.000Z</time>
      </trkpt>
      <trkpt lat="46.87375" lon="6.41109">
        <ele>953.79998779297</ele>
        <time>2023-05-15T10:36:20.000Z</time>
      </trkpt>
      <trkpt lat="46.87382" lon="6.4113">
        <ele>954.59997558594</ele>
        <time>2023-05-15T10:36:27.000Z</time>
      </trkpt>
      <trkpt lat="46.87385" lon="6.41137">
        <ele>954.79998779297</ele>
        <time>2023-05-15T10:36:29.000Z</time>
      </trkpt>
      <trkpt lat="46.87392" lon="6.41158">
        <ele>955.20001220703</ele>
        <time>2023-05-15T10:36:36.000Z</time>
      </trkpt>
      <trkpt lat="46.87405" lon="6.41192">
        <ele>955.79998779297</ele>
        <time>2023-05-15T10:36:45.000Z</time>
      </trkpt>
      <trkpt lat="46.87406" lon="6.41196">
        <ele>955.79998779297</ele>
        <time>2023-05-15T10:36:46.000Z</time>
      </trkpt>
      <trkpt lat="46.87421" lon="6.41244">
        <ele>956.59997558594</ele>
        <time>2023-05-15T10:36:58.000Z</time>
      </trkpt>
      <trkpt lat="46.87425" lon="6.41256">
        <ele>956.79998779297</ele>
        <time>2023-05-15T10:37:01.000Z</time>
      </trkpt>
      <trkpt lat="46.87432" lon="6.41284">
        <ele>957.20001220703</ele>
        <time>2023-05-15T10:37:07.000Z</time>
      </trkpt>
      <trkpt lat="46.87443" lon="6.41327">
        <ele>957.40002441406</ele>
        <time>2023-05-15T10:37:16.000Z</time>
      </trkpt>
      <trkpt lat="46.87454" lon="6.41363">
        <ele>957.79998779297</ele>
        <time>2023-05-15T10:37:24.000Z</time>
      </trkpt>
      <trkpt lat="46.87471" lon="6.41412">
        <ele>957.79998779297</ele>
        <time>2023-05-15T10:37:33.000Z</time>
      </trkpt>
      <trkpt lat="46.87485" lon="6.41453">
        <ele>957.59997558594</ele>
        <time>2023-05-15T10:37:41.000Z</time>
      </trkpt>
      <trkpt lat="46.87504" lon="6.41505">
        <ele>957.79998779297</ele>
        <time>2023-05-15T10:37:50.000Z</time>
      </trkpt>
      <trkpt lat="46.87515" lon="6.41534">
        <ele>957.79998779297</ele>
        <time>2023-05-15T10:37:56.000Z</time>
      </trkpt>
      <trkpt lat="46.87522" lon="6.41559">
        <ele>957.79998779297</ele>
        <time>2023-05-15T10:38:02.000Z</time>
      </trkpt>
      <trkpt lat="46.87532" lon="6.41601">
        <ele>958</ele>
        <time>2023-05-15T10:38:10.000Z</time>
      </trkpt>
      <trkpt lat="46.87544" lon="6.41649">
        <ele>958</ele>
        <time>2023-05-15T10:38:20.000Z</time>
      </trkpt>
      <trkpt lat="46.8755" lon="6.41676">
        <ele>958.20001220703</ele>
        <time>2023-05-15T10:38:25.000Z</time>
      </trkpt>
      <trkpt lat="46.87556" lon="6.41703">
        <ele>958.59997558594</ele>
        <time>2023-05-15T10:38:30.000Z</time>
      </trkpt>
      <trkpt lat="46.87562" lon="6.41739">
        <ele>959.20001220703</ele>
        <time>2023-05-15T10:38:37.000Z</time>
      </trkpt>
      <trkpt lat="46.87562" lon="6.41745">
        <ele>959.40002441406</ele>
        <time>2023-05-15T10:38:38.000Z</time>
      </trkpt>
      <trkpt lat="46.87556" lon="6.41772">
        <ele>960.20001220703</ele>
        <time>2023-05-15T10:38:44.000Z</time>
      </trkpt>
      <trkpt lat="46.87542" lon="6.41787">
        <ele>961.40002441406</ele>
        <time>2023-05-15T10:38:50.000Z</time>
      </trkpt>
      <trkpt lat="46.87526" lon="6.41792">
        <ele>962.20001220703</ele>
        <time>2023-05-15T10:38:57.000Z</time>
      </trkpt>
      <trkpt lat="46.87523" lon="6.41792">
        <ele>962.40002441406</ele>
        <time>2023-05-15T10:38:58.000Z</time>
      </trkpt>
      <trkpt lat="46.87511" lon="6.41786">
        <ele>963.40002441406</ele>
        <time>2023-05-15T10:39:04.000Z</time>
      </trkpt>
      <trkpt lat="46.87502" lon="6.41775">
        <ele>964.20001220703</ele>
        <time>2023-05-15T10:39:10.000Z</time>
      </trkpt>
      <trkpt lat="46.87497" lon="6.41767">
        <ele>964.40002441406</ele>
        <time>2023-05-15T10:39:13.000Z</time>
      </trkpt>
      <trkpt lat="46.87492" lon="6.41757">
        <ele>965</ele>
        <time>2023-05-15T10:39:17.000Z</time>
      </trkpt>
      <trkpt lat="46.87489" lon="6.41747">
        <ele>965.59997558594</ele>
        <time>2023-05-15T10:39:21.000Z</time>
      </trkpt>
      <trkpt lat="46.87486" lon="6.4174">
        <ele>966</ele>
        <time>2023-05-15T10:39:24.000Z</time>
      </trkpt>
      <trkpt lat="46.87482" lon="6.41725">
        <ele>966.59997558594</ele>
        <time>2023-05-15T10:39:30.000Z</time>
      </trkpt>
      <trkpt lat="46.87482" lon="6.41723">
        <ele>966.59997558594</ele>
        <time>2023-05-15T10:39:31.000Z</time>
      </trkpt>
      <trkpt lat="46.87477" lon="6.41706">
        <ele>967.59997558594</ele>
        <time>2023-05-15T10:39:38.000Z</time>
      </trkpt>
      <trkpt lat="46.87475" lon="6.41699">
        <ele>968</ele>
        <time>2023-05-15T10:39:41.000Z</time>
      </trkpt>
      <trkpt lat="46.87469" lon="6.41684">
        <ele>968.59997558594</ele>
        <time>2023-05-15T10:39:47.000Z</time>
      </trkpt>
      <trkpt lat="46.87466" lon="6.41675">
        <ele>969.20001220703</ele>
        <time>2023-05-15T10:39:51.000Z</time>
      </trkpt>
      <trkpt lat="46.8746" lon="6.41666">
        <ele>969.79998779297</ele>
        <time>2023-05-15T10:39:56.000Z</time>
      </trkpt>
      <trkpt lat="46.87459" lon="6.41665">
        <ele>969.79998779297</ele>
        <time>2023-05-15T10:39:57.000Z</time>
      </trkpt>
      <trkpt lat="46.87453" lon="6.4165">
        <ele>970.79998779297</ele>
        <time>2023-05-15T10:40:05.000Z</time>
      </trkpt>
      <trkpt lat="46.8745" lon="6.41647">
        <ele>971.20001220703</ele>
        <time>2023-05-15T10:40:07.000Z</time>
      </trkpt>
      <trkpt lat="46.87446" lon="6.41637">
        <ele>972</ele>
        <time>2023-05-15T10:40:13.000Z</time>
      </trkpt>
      <trkpt lat="46.87442" lon="6.41632">
        <ele>972.20001220703</ele>
        <time>2023-05-15T10:40:16.000Z</time>
      </trkpt>
      <trkpt lat="46.87436" lon="6.41619">
        <ele>973</ele>
        <time>2023-05-15T10:40:23.000Z</time>
      </trkpt>
      <trkpt lat="46.87429" lon="6.41606">
        <ele>973.79998779297</ele>
        <time>2023-05-15T10:40:31.000Z</time>
      </trkpt>
      <trkpt lat="46.87427" lon="6.41602">
        <ele>974</ele>
        <time>2023-05-15T10:40:33.000Z</time>
      </trkpt>
      <trkpt lat="46.8742" lon="6.41589">
        <ele>975.20001220703</ele>
        <time>2023-05-15T10:40:40.000Z</time>
      </trkpt>
      <trkpt lat="46.87419" lon="6.41587">
        <ele>975.20001220703</ele>
        <time>2023-05-15T10:40:41.000Z</time>
      </trkpt>
      <trkpt lat="46.87412" lon="6.41575">
        <ele>976.59997558594</ele>
        <time>2023-05-15T10:40:48.000Z</time>
      </trkpt>
      <trkpt lat="46.87403" lon="6.41554">
        <ele>977.59997558594</ele>
        <time>2023-05-15T10:40:59.000Z</time>
      </trkpt>
      <trkpt lat="46.87397" lon="6.41544">
        <ele>978.20001220703</ele>
        <time>2023-05-15T10:41:05.000Z</time>
      </trkpt>
      <trkpt lat="46.87395" lon="6.41541">
        <ele>978.40002441406</ele>
        <time>2023-05-15T10:41:07.000Z</time>
      </trkpt>
      <trkpt lat="46.87393" lon="6.41535">
        <ele>978.59997558594</ele>
        <time>2023-05-15T10:41:10.000Z</time>
      </trkpt>
      <trkpt lat="46.87388" lon="6.41524">
        <ele>979.40002441406</ele>
        <time>2023-05-15T10:41:16.000Z</time>
      </trkpt>
      <trkpt lat="46.87385" lon="6.41519">
        <ele>979.59997558594</ele>
        <time>2023-05-15T10:41:19.000Z</time>
      </trkpt>
      <trkpt lat="46.87381" lon="6.41512">
        <ele>980.20001220703</ele>
        <time>2023-05-15T10:41:23.000Z</time>
      </trkpt>
      <trkpt lat="46.87377" lon="6.41503">
        <ele>980.79998779297</ele>
        <time>2023-05-15T10:41:28.000Z</time>
      </trkpt>
      <trkpt lat="46.87372" lon="6.41498">
        <ele>981.40002441406</ele>
        <time>2023-05-15T10:41:32.000Z</time>
      </trkpt>
      <trkpt lat="46.87369" lon="6.41491">
        <ele>982</ele>
        <time>2023-05-15T10:41:36.000Z</time>
      </trkpt>
      <trkpt lat="46.87366" lon="6.41486">
        <ele>982.20001220703</ele>
        <time>2023-05-15T10:41:39.000Z</time>
      </trkpt>
      <trkpt lat="46.87358" lon="6.41475">
        <ele>982.79998779297</ele>
        <time>2023-05-15T10:41:46.000Z</time>
      </trkpt>
      <trkpt lat="46.87356" lon="6.41473">
        <ele>983</ele>
        <time>2023-05-15T10:41:47.000Z</time>
      </trkpt>
      <trkpt lat="46.87346" lon="6.41461">
        <ele>984.20001220703</ele>
        <time>2023-05-15T10:41:55.000Z</time>
      </trkpt>
      <trkpt lat="46.87346" lon="6.41459">
        <ele>984.20001220703</ele>
        <time>2023-05-15T10:41:56.000Z</time>
      </trkpt>
      <trkpt lat="46.87334" lon="6.41444">
        <ele>985.20001220703</ele>
        <time>2023-05-15T10:42:06.000Z</time>
      </trkpt>
      <trkpt lat="46.87333" lon="6.41443">
        <ele>985.20001220703</ele>
        <time>2023-05-15T10:42:07.000Z</time>
      </trkpt>
      <trkpt lat="46.87326" lon="6.41434">
        <ele>986.20001220703</ele>
        <time>2023-05-15T10:42:14.000Z</time>
      </trkpt>
      <trkpt lat="46.87324" lon="6.41429">
        <ele>986.79998779297</ele>
        <time>2023-05-15T10:42:18.000Z</time>
      </trkpt>
      <trkpt lat="46.87318" lon="6.41422">
        <ele>987.40002441406</ele>
        <time>2023-05-15T10:42:23.000Z</time>
      </trkpt>
      <trkpt lat="46.87314" lon="6.41417">
        <ele>987.79998779297</ele>
        <time>2023-05-15T10:42:27.000Z</time>
      </trkpt>
      <trkpt lat="46.87308" lon="6.41408">
        <ele>988.59997558594</ele>
        <time>2023-05-15T10:42:33.000Z</time>
      </trkpt>
      <trkpt lat="46.87307" lon="6.41407">
        <ele>988.59997558594</ele>
        <time>2023-05-15T10:42:34.000Z</time>
      </trkpt>
      <trkpt lat="46.87306" lon="6.41405">
        <ele>988.59997558594</ele>
        <time>2023-05-15T10:42:35.000Z</time>
      </trkpt>
      <trkpt lat="46.87298" lon="6.41396">
        <ele>989.40002441406</ele>
        <time>2023-05-15T10:42:42.000Z</time>
      </trkpt>
      <trkpt lat="46.87298" lon="6.41395">
        <ele>989.59997558594</ele>
        <time>2023-05-15T10:42:43.000Z</time>
      </trkpt>
      <trkpt lat="46.8729" lon="6.41383">
        <ele>990.40002441406</ele>
        <time>2023-05-15T10:42:50.000Z</time>
      </trkpt>
      <trkpt lat="46.87286" lon="6.41378">
        <ele>990.79998779297</ele>
        <time>2023-05-15T10:42:54.000Z</time>
      </trkpt>
      <trkpt lat="46.87278" lon="6.41368">
        <ele>991.79998779297</ele>
        <time>2023-05-15T10:43:01.000Z</time>
      </trkpt>
      <trkpt lat="46.87276" lon="6.41366">
        <ele>992.20001220703</ele>
        <time>2023-05-15T10:43:03.000Z</time>
      </trkpt>
      <trkpt lat="46.87267" lon="6.41358">
        <ele>993</ele>
        <time>2023-05-15T10:43:10.000Z</time>
      </trkpt>
      <trkpt lat="46.87253" lon="6.41345">
        <ele>994.20001220703</ele>
        <time>2023-05-15T10:43:21.000Z</time>
      </trkpt>
      <trkpt lat="46.87252" lon="6.41344">
        <ele>994.20001220703</ele>
        <time>2023-05-15T10:43:22.000Z</time>
      </trkpt>
      <trkpt lat="46.87237" lon="6.41335">
        <ele>995.20001220703</ele>
        <time>2023-05-15T10:43:32.000Z</time>
      </trkpt>
      <trkpt lat="46.87236" lon="6.41334">
        <ele>995.20001220703</ele>
        <time>2023-05-15T10:43:33.000Z</time>
      </trkpt>
      <trkpt lat="46.87224" lon="6.41325">
        <ele>996</ele>
        <time>2023-05-15T10:43:41.000Z</time>
      </trkpt>
      <trkpt lat="46.87218" lon="6.41321">
        <ele>996.20001220703</ele>
        <time>2023-05-15T10:43:45.000Z</time>
      </trkpt>
      <trkpt lat="46.87213" lon="6.41317">
        <ele>996.59997558594</ele>
        <time>2023-05-15T10:43:49.000Z</time>
      </trkpt>
      <trkpt lat="46.87205" lon="6.41312">
        <ele>997.20001220703</ele>
        <time>2023-05-15T10:43:55.000Z</time>
      </trkpt>
      <trkpt lat="46.87199" lon="6.41309">
        <ele>997.59997558594</ele>
        <time>2023-05-15T10:43:59.000Z</time>
      </trkpt>
      <trkpt lat="46.87189" lon="6.41303">
        <ele>998.20001220703</ele>
        <time>2023-05-15T10:44:06.000Z</time>
      </trkpt>
      <trkpt lat="46.87186" lon="6.41301">
        <ele>998.40002441406</ele>
        <time>2023-05-15T10:44:08.000Z</time>
      </trkpt>
      <trkpt lat="46.87176" lon="6.41298">
        <ele>999.40002441406</ele>
        <time>2023-05-15T10:44:15.000Z</time>
      </trkpt>
      <trkpt lat="46.8717" lon="6.41299">
        <ele>999.79998779297</ele>
        <time>2023-05-15T10:44:19.000Z</time>
      </trkpt>
      <trkpt lat="46.87159" lon="6.41303">
        <ele>1000.5999755859</ele>
        <time>2023-05-15T10:44:26.000Z</time>
      </trkpt>
      <trkpt lat="46.87156" lon="6.41305">
        <ele>1000.799987793</ele>
        <time>2023-05-15T10:44:28.000Z</time>
      </trkpt>
      <trkpt lat="46.87153" lon="6.41308">
        <ele>1001.200012207</ele>
        <time>2023-05-15T10:44:30.000Z</time>
      </trkpt>
      <trkpt lat="46.87147" lon="6.41316">
        <ele>1001.5999755859</ele>
        <time>2023-05-15T10:44:35.000Z</time>
      </trkpt>
      <trkpt lat="46.87146" lon="6.41319">
        <ele>1001.5999755859</ele>
        <time>2023-05-15T10:44:36.000Z</time>
      </trkpt>
      <trkpt lat="46.87139" lon="6.41334">
        <ele>1002.5999755859</ele>
        <time>2023-05-15T10:44:43.000Z</time>
      </trkpt>
      <trkpt lat="46.87139" lon="6.41336">
        <ele>1002.5999755859</ele>
        <time>2023-05-15T10:44:44.000Z</time>
      </trkpt>
      <trkpt lat="46.87136" lon="6.41358">
        <ele>1003.799987793</ele>
        <time>2023-05-15T10:44:53.000Z</time>
      </trkpt>
      <trkpt lat="46.87138" lon="6.41374">
        <ele>1004.4000244141</ele>
        <time>2023-05-15T10:45:00.000Z</time>
      </trkpt>
      <trkpt lat="46.87144" lon="6.41385">
        <ele>1004.799987793</ele>
        <time>2023-05-15T10:45:06.000Z</time>
      </trkpt>
      <trkpt lat="46.87146" lon="6.41389">
        <ele>1005</ele>
        <time>2023-05-15T10:45:08.000Z</time>
      </trkpt>
      <trkpt lat="46.87154" lon="6.41404">
        <ele>1006</ele>
        <time>2023-05-15T10:45:16.000Z</time>
      </trkpt>
      <trkpt lat="46.87159" lon="6.41416">
        <ele>1006.799987793</ele>
        <time>2023-05-15T10:45:23.000Z</time>
      </trkpt>
      <trkpt lat="46.8716" lon="6.4142">
        <ele>1007</ele>
        <time>2023-05-15T10:45:25.000Z</time>
      </trkpt>
      <trkpt lat="46.87164" lon="6.41429">
        <ele>1007.5999755859</ele>
        <time>2023-05-15T10:45:30.000Z</time>
      </trkpt>
      <trkpt lat="46.87168" lon="6.41436">
        <ele>1008</ele>
        <time>2023-05-15T10:45:34.000Z</time>
      </trkpt>
      <trkpt lat="46.87174" lon="6.41449">
        <ele>1008.5999755859</ele>
        <time>2023-05-15T10:45:41.000Z</time>
      </trkpt>
      <trkpt lat="46.87176" lon="6.41453">
        <ele>1009</ele>
        <time>2023-05-15T10:45:43.000Z</time>
      </trkpt>
      <trkpt lat="46.8718" lon="6.41465">
        <ele>1009.799987793</ele>
        <time>2023-05-15T10:45:49.000Z</time>
      </trkpt>
      <trkpt lat="46.87181" lon="6.4147">
        <ele>1010.200012207</ele>
        <time>2023-05-15T10:45:52.000Z</time>
      </trkpt>
      <trkpt lat="46.87184" lon="6.41479">
        <ele>1010.799987793</ele>
        <time>2023-05-15T10:45:57.000Z</time>
      </trkpt>
      <trkpt lat="46.87185" lon="6.41488">
        <ele>1011.200012207</ele>
        <time>2023-05-15T10:46:01.000Z</time>
      </trkpt>
      <trkpt lat="46.87185" lon="6.4149">
        <ele>1011.200012207</ele>
        <time>2023-05-15T10:46:02.000Z</time>
      </trkpt>
      <trkpt lat="46.87187" lon="6.41494">
        <ele>1011.799987793</ele>
        <time>2023-05-15T10:46:04.000Z</time>
      </trkpt>
      <trkpt lat="46.87189" lon="6.415">
        <ele>1012.200012207</ele>
        <time>2023-05-15T10:46:07.000Z</time>
      </trkpt>
      <trkpt lat="46.87189" lon="6.41503">
        <ele>1012.4000244141</ele>
        <time>2023-05-15T10:46:08.000Z</time>
      </trkpt>
      <trkpt lat="46.87189" lon="6.41509">
        <ele>1012.799987793</ele>
        <time>2023-05-15T10:46:11.000Z</time>
      </trkpt>
      <trkpt lat="46.8719" lon="6.41511">
        <ele>1012.799987793</ele>
        <time>2023-05-15T10:46:12.000Z</time>
      </trkpt>
      <trkpt lat="46.87191" lon="6.4152">
        <ele>1013.4000244141</ele>
        <time>2023-05-15T10:46:16.000Z</time>
      </trkpt>
      <trkpt lat="46.87192" lon="6.41536">
        <ele>1014.4000244141</ele>
        <time>2023-05-15T10:46:24.000Z</time>
      </trkpt>
      <trkpt lat="46.87193" lon="6.41543">
        <ele>1015.4000244141</ele>
        <time>2023-05-15T10:46:27.000Z</time>
      </trkpt>
      <trkpt lat="46.87194" lon="6.41545">
        <ele>1015.5999755859</ele>
        <time>2023-05-15T10:46:28.000Z</time>
      </trkpt>
      <trkpt lat="46.87195" lon="6.4155">
        <ele>1015.799987793</ele>
        <time>2023-05-15T10:46:31.000Z</time>
      </trkpt>
      <trkpt lat="46.87196" lon="6.41552">
        <ele>1015.799987793</ele>
        <time>2023-05-15T10:46:32.000Z</time>
      </trkpt>
      <trkpt lat="46.87197" lon="6.41557">
        <ele>1015.799987793</ele>
        <time>2023-05-15T10:46:35.000Z</time>
      </trkpt>
      <trkpt lat="46.87198" lon="6.4156">
        <ele>1015.799987793</ele>
        <time>2023-05-15T10:46:36.000Z</time>
      </trkpt>
      <trkpt lat="46.872" lon="6.41566">
        <ele>1016.200012207</ele>
        <time>2023-05-15T10:46:39.000Z</time>
      </trkpt>
      <trkpt lat="46.87201" lon="6.41572">
        <ele>1016.4000244141</ele>
        <time>2023-05-15T10:46:42.000Z</time>
      </trkpt>
      <trkpt lat="46.87202" lon="6.41575">
        <ele>1016.5999755859</ele>
        <time>2023-05-15T10:46:43.000Z</time>
      </trkpt>
      <trkpt lat="46.87203" lon="6.41581">
        <ele>1017</ele>
        <time>2023-05-15T10:46:46.000Z</time>
      </trkpt>
      <trkpt lat="46.87204" lon="6.41585">
        <ele>1017.200012207</ele>
        <time>2023-05-15T10:46:48.000Z</time>
      </trkpt>
      <trkpt lat="46.87205" lon="6.41591">
        <ele>1017.5999755859</ele>
        <time>2023-05-15T10:46:51.000Z</time>
      </trkpt>
      <trkpt lat="46.87205" lon="6.41592">
        <ele>1017.799987793</ele>
        <time>2023-05-15T10:46:52.000Z</time>
      </trkpt>
      <trkpt lat="46.87206" lon="6.41597">
        <ele>1018</ele>
        <time>2023-05-15T10:46:55.000Z</time>
      </trkpt>
      <trkpt lat="46.87208" lon="6.4161">
        <ele>1018.799987793</ele>
        <time>2023-05-15T10:47:02.000Z</time>
      </trkpt>
      <trkpt lat="46.87209" lon="6.41614">
        <ele>1019.4000244141</ele>
        <time>2023-05-15T10:47:06.000Z</time>
      </trkpt>
      <trkpt lat="46.8721" lon="6.41614">
        <ele>1019.5999755859</ele>
        <time>2023-05-15T10:47:08.000Z</time>
      </trkpt>
      <trkpt lat="46.87211" lon="6.41616">
        <ele>1019.799987793</ele>
        <time>2023-05-15T10:47:09.000Z</time>
      </trkpt>
      <trkpt lat="46.87212" lon="6.41619">
        <ele>1019.799987793</ele>
        <time>2023-05-15T10:47:10.000Z</time>
      </trkpt>
      <trkpt lat="46.87217" lon="6.41632">
        <ele>1020.5999755859</ele>
        <time>2023-05-15T10:47:16.000Z</time>
      </trkpt>
      <trkpt lat="46.87218" lon="6.41636">
        <ele>1020.5999755859</ele>
        <time>2023-05-15T10:47:18.000Z</time>
      </trkpt>
      <trkpt lat="46.87222" lon="6.41651">
        <ele>1021.200012207</ele>
        <time>2023-05-15T10:47:23.000Z</time>
      </trkpt>
      <trkpt lat="46.87224" lon="6.41657">
        <ele>1021.799987793</ele>
        <time>2023-05-15T10:47:26.000Z</time>
      </trkpt>
      <trkpt lat="46.87222" lon="6.41661">
        <ele>1022</ele>
        <time>2023-05-15T10:47:28.000Z</time>
      </trkpt>
      <trkpt lat="46.87223" lon="6.41666">
        <ele>1022.4000244141</ele>
        <time>2023-05-15T10:47:30.000Z</time>
      </trkpt>
      <trkpt lat="46.87229" lon="6.41678">
        <ele>1022.799987793</ele>
        <time>2023-05-15T10:47:34.000Z</time>
      </trkpt>
      <trkpt lat="46.87229" lon="6.41682">
        <ele>1023.200012207</ele>
        <time>2023-05-15T10:47:37.000Z</time>
      </trkpt>
      <trkpt lat="46.8723" lon="6.41687">
        <ele>1023.4000244141</ele>
        <time>2023-05-15T10:47:40.000Z</time>
      </trkpt>
      <trkpt lat="46.87232" lon="6.41691">
        <ele>1023.799987793</ele>
        <time>2023-05-15T10:47:42.000Z</time>
      </trkpt>
      <trkpt lat="46.87233" lon="6.41694">
        <ele>1024</ele>
        <time>2023-05-15T10:47:44.000Z</time>
      </trkpt>
      <trkpt lat="46.87235" lon="6.41698">
        <ele>1024.1999511719</ele>
        <time>2023-05-15T10:47:46.000Z</time>
      </trkpt>
      <trkpt lat="46.87237" lon="6.41701">
        <ele>1024.4000244141</ele>
        <time>2023-05-15T10:47:48.000Z</time>
      </trkpt>
      <trkpt lat="46.87239" lon="6.41704">
        <ele>1024.8000488281</ele>
        <time>2023-05-15T10:47:50.000Z</time>
      </trkpt>
      <trkpt lat="46.87239" lon="6.41705">
        <ele>1024.8000488281</ele>
        <time>2023-05-15T10:47:51.000Z</time>
      </trkpt>
      <trkpt lat="46.8724" lon="6.41707">
        <ele>1025</ele>
        <time>2023-05-15T10:47:52.000Z</time>
      </trkpt>
      <trkpt lat="46.87244" lon="6.41714">
        <ele>1025.8000488281</ele>
        <time>2023-05-15T10:47:56.000Z</time>
      </trkpt>
      <trkpt lat="46.87247" lon="6.41725">
        <ele>1026</ele>
        <time>2023-05-15T10:48:00.000Z</time>
      </trkpt>
      <trkpt lat="46.87248" lon="6.41735">
        <ele>1026.5999755859</ele>
        <time>2023-05-15T10:48:04.000Z</time>
      </trkpt>
      <trkpt lat="46.87251" lon="6.41742">
        <ele>1027</ele>
        <time>2023-05-15T10:48:07.000Z</time>
      </trkpt>
      <trkpt lat="46.87253" lon="6.41747">
        <ele>1027.1999511719</ele>
        <time>2023-05-15T10:48:09.000Z</time>
      </trkpt>
      <trkpt lat="46.87254" lon="6.41749">
        <ele>1027.1999511719</ele>
        <time>2023-05-15T10:48:10.000Z</time>
      </trkpt>
      <trkpt lat="46.87261" lon="6.41765">
        <ele>1028</ele>
        <time>2023-05-15T10:48:17.000Z</time>
      </trkpt>
      <trkpt lat="46.87261" lon="6.41767">
        <ele>1028</ele>
        <time>2023-05-15T10:48:18.000Z</time>
      </trkpt>
      <trkpt lat="46.8726" lon="6.41771">
        <ele>1028.8000488281</ele>
        <time>2023-05-15T10:48:23.000Z</time>
      </trkpt>
      <trkpt lat="46.87261" lon="6.41774">
        <ele>1029</ele>
        <time>2023-05-15T10:48:25.000Z</time>
      </trkpt>
      <trkpt lat="46.87265" lon="6.41788">
        <ele>1029.1999511719</ele>
        <time>2023-05-15T10:48:32.000Z</time>
      </trkpt>
      <trkpt lat="46.8727" lon="6.41797">
        <ele>1030</ele>
        <time>2023-05-15T10:48:37.000Z</time>
      </trkpt>
      <trkpt lat="46.87272" lon="6.41801">
        <ele>1030.1999511719</ele>
        <time>2023-05-15T10:48:39.000Z</time>
      </trkpt>
      <trkpt lat="46.87279" lon="6.41818">
        <ele>1031.1999511719</ele>
        <time>2023-05-15T10:48:46.000Z</time>
      </trkpt>
      <trkpt lat="46.87278" lon="6.41821">
        <ele>1031.1999511719</ele>
        <time>2023-05-15T10:48:48.000Z</time>
      </trkpt>
      <trkpt lat="46.87281" lon="6.41831">
        <ele>1032</ele>
        <time>2023-05-15T10:48:53.000Z</time>
      </trkpt>
      <trkpt lat="46.87281" lon="6.41834">
        <ele>1032.1999511719</ele>
        <time>2023-05-15T10:48:55.000Z</time>
      </trkpt>
      <trkpt lat="46.87283" lon="6.41838">
        <ele>1032.4000244141</ele>
        <time>2023-05-15T10:48:57.000Z</time>
      </trkpt>
      <trkpt lat="46.87285" lon="6.41847">
        <ele>1032.8000488281</ele>
        <time>2023-05-15T10:49:01.000Z</time>
      </trkpt>
      <trkpt lat="46.87286" lon="6.41851">
        <ele>1033.1999511719</ele>
        <time>2023-05-15T10:49:03.000Z</time>
      </trkpt>
      <trkpt lat="46.87288" lon="6.41856">
        <ele>1033.4000244141</ele>
        <time>2023-05-15T10:49:06.000Z</time>
      </trkpt>
      <trkpt lat="46.87291" lon="6.41864">
        <ele>1033.8000488281</ele>
        <time>2023-05-15T10:49:10.000Z</time>
      </trkpt>
      <trkpt lat="46.87292" lon="6.41868">
        <ele>1034</ele>
        <time>2023-05-15T10:49:13.000Z</time>
      </trkpt>
      <trkpt lat="46.87292" lon="6.41871">
        <ele>1034.1999511719</ele>
        <time>2023-05-15T10:49:15.000Z</time>
      </trkpt>
      <trkpt lat="46.87298" lon="6.41884">
        <ele>1035</ele>
        <time>2023-05-15T10:49:23.000Z</time>
      </trkpt>
      <trkpt lat="46.873" lon="6.41888">
        <ele>1035.1999511719</ele>
        <time>2023-05-15T10:49:25.000Z</time>
      </trkpt>
      <trkpt lat="46.87301" lon="6.4189">
        <ele>1035.1999511719</ele>
        <time>2023-05-15T10:49:26.000Z</time>
      </trkpt>
      <trkpt lat="46.87301" lon="6.41893">
        <ele>1035.4000244141</ele>
        <time>2023-05-15T10:49:28.000Z</time>
      </trkpt>
      <trkpt lat="46.87301" lon="6.41895">
        <ele>1035.5999755859</ele>
        <time>2023-05-15T10:49:29.000Z</time>
      </trkpt>
      <trkpt lat="46.87307" lon="6.4191">
        <ele>1036.1999511719</ele>
        <time>2023-05-15T10:49:36.000Z</time>
      </trkpt>
      <trkpt lat="46.87308" lon="6.41913">
        <ele>1036.1999511719</ele>
        <time>2023-05-15T10:49:37.000Z</time>
      </trkpt>
      <trkpt lat="46.87309" lon="6.41917">
        <ele>1036.5999755859</ele>
        <time>2023-05-15T10:49:39.000Z</time>
      </trkpt>
      <trkpt lat="46.8731" lon="6.41925">
        <ele>1037</ele>
        <time>2023-05-15T10:49:42.000Z</time>
      </trkpt>
      <trkpt lat="46.87312" lon="6.41932">
        <ele>1037.4000244141</ele>
        <time>2023-05-15T10:49:45.000Z</time>
      </trkpt>
      <trkpt lat="46.87313" lon="6.41941">
        <ele>1037.5999755859</ele>
        <time>2023-05-15T10:49:49.000Z</time>
      </trkpt>
      <trkpt lat="46.87318" lon="6.41959">
        <ele>1038.4000244141</ele>
        <time>2023-05-15T10:49:56.000Z</time>
      </trkpt>
      <trkpt lat="46.87318" lon="6.4196">
        <ele>1038.5999755859</ele>
        <time>2023-05-15T10:49:57.000Z</time>
      </trkpt>
      <trkpt lat="46.87322" lon="6.41973">
        <ele>1039.4000244141</ele>
        <time>2023-05-15T10:50:03.000Z</time>
      </trkpt>
      <trkpt lat="46.87325" lon="6.41981">
        <ele>1039.8000488281</ele>
        <time>2023-05-15T10:50:07.000Z</time>
      </trkpt>
      <trkpt lat="46.87327" lon="6.41992">
        <ele>1040.1999511719</ele>
        <time>2023-05-15T10:50:12.000Z</time>
      </trkpt>
      <trkpt lat="46.87328" lon="6.42004">
        <ele>1040.8000488281</ele>
        <time>2023-05-15T10:50:17.000Z</time>
      </trkpt>
      <trkpt lat="46.87329" lon="6.42011">
        <ele>1041</ele>
        <time>2023-05-15T10:50:20.000Z</time>
      </trkpt>
      <trkpt lat="46.8733" lon="6.42026">
        <ele>1042</ele>
        <time>2023-05-15T10:50:27.000Z</time>
      </trkpt>
      <trkpt lat="46.87331" lon="6.42042">
        <ele>1042.5999755859</ele>
        <time>2023-05-15T10:50:34.000Z</time>
      </trkpt>
      <trkpt lat="46.87331" lon="6.42047">
        <ele>1042.5999755859</ele>
        <time>2023-05-15T10:50:36.000Z</time>
      </trkpt>
      <trkpt lat="46.87333" lon="6.42054">
        <ele>1043</ele>
        <time>2023-05-15T10:50:40.000Z</time>
      </trkpt>
      <trkpt lat="46.87333" lon="6.42059">
        <ele>1043.1999511719</ele>
        <time>2023-05-15T10:50:42.000Z</time>
      </trkpt>
      <trkpt lat="46.87335" lon="6.42074">
        <ele>1043.8000488281</ele>
        <time>2023-05-15T10:50:49.000Z</time>
      </trkpt>
      <trkpt lat="46.87337" lon="6.42081">
        <ele>1044.1999511719</ele>
        <time>2023-05-15T10:50:52.000Z</time>
      </trkpt>
      <trkpt lat="46.87341" lon="6.42093">
        <ele>1045</ele>
        <time>2023-05-15T10:50:58.000Z</time>
      </trkpt>
      <trkpt lat="46.87342" lon="6.42094">
        <ele>1045</ele>
        <time>2023-05-15T10:50:59.000Z</time>
      </trkpt>
      <trkpt lat="46.87343" lon="6.42096">
        <ele>1045.1999511719</ele>
        <time>2023-05-15T10:51:00.000Z</time>
      </trkpt>
      <trkpt lat="46.87346" lon="6.42101">
        <ele>1045.5999755859</ele>
        <time>2023-05-15T10:51:03.000Z</time>
      </trkpt>
      <trkpt lat="46.8735" lon="6.42108">
        <ele>1046.5999755859</ele>
        <time>2023-05-15T10:51:08.000Z</time>
      </trkpt>
      <trkpt lat="46.87352" lon="6.42113">
        <ele>1046.5999755859</ele>
        <time>2023-05-15T10:51:11.000Z</time>
      </trkpt>
      <trkpt lat="46.87354" lon="6.42117">
        <ele>1047.4000244141</ele>
        <time>2023-05-15T10:51:13.000Z</time>
      </trkpt>
      <trkpt lat="46.87355" lon="6.42121">
        <ele>1047.5999755859</ele>
        <time>2023-05-15T10:51:15.000Z</time>
      </trkpt>
      <trkpt lat="46.87357" lon="6.42126">
        <ele>1047.8000488281</ele>
        <time>2023-05-15T10:51:18.000Z</time>
      </trkpt>
      <trkpt lat="46.87361" lon="6.42135">
        <ele>1048.5999755859</ele>
        <time>2023-05-15T10:51:23.000Z</time>
      </trkpt>
      <trkpt lat="46.87362" lon="6.42139">
        <ele>1048.8000488281</ele>
        <time>2023-05-15T10:51:25.000Z</time>
      </trkpt>
      <trkpt lat="46.87366" lon="6.4215">
        <ele>1049.8000488281</ele>
        <time>2023-05-15T10:51:31.000Z</time>
      </trkpt>
      <trkpt lat="46.87367" lon="6.42153">
        <ele>1049.8000488281</ele>
        <time>2023-05-15T10:51:32.000Z</time>
      </trkpt>
      <trkpt lat="46.8737" lon="6.42164">
        <ele>1050.4000244141</ele>
        <time>2023-05-15T10:51:38.000Z</time>
      </trkpt>
      <trkpt lat="46.87373" lon="6.42169">
        <ele>1050.8000488281</ele>
        <time>2023-05-15T10:51:41.000Z</time>
      </trkpt>
      <trkpt lat="46.87373" lon="6.42171">
        <ele>1051</ele>
        <time>2023-05-15T10:51:42.000Z</time>
      </trkpt>
      <trkpt lat="46.87375" lon="6.42176">
        <ele>1051.5999755859</ele>
        <time>2023-05-15T10:51:45.000Z</time>
      </trkpt>
      <trkpt lat="46.87377" lon="6.4218">
        <ele>1051.8000488281</ele>
        <time>2023-05-15T10:51:47.000Z</time>
      </trkpt>
      <trkpt lat="46.8738" lon="6.42189">
        <ele>1052.4000244141</ele>
        <time>2023-05-15T10:51:53.000Z</time>
      </trkpt>
      <trkpt lat="46.87381" lon="6.42193">
        <ele>1052.8000488281</ele>
        <time>2023-05-15T10:51:55.000Z</time>
      </trkpt>
      <trkpt lat="46.87385" lon="6.42204">
        <ele>1053.5999755859</ele>
        <time>2023-05-15T10:52:00.000Z</time>
      </trkpt>
      <trkpt lat="46.87385" lon="6.42207">
        <ele>1053.8000488281</ele>
        <time>2023-05-15T10:52:02.000Z</time>
      </trkpt>
      <trkpt lat="46.8739" lon="6.42218">
        <ele>1055</ele>
        <time>2023-05-15T10:52:08.000Z</time>
      </trkpt>
      <trkpt lat="46.87392" lon="6.42225">
        <ele>1055.4000244141</ele>
        <time>2023-05-15T10:52:12.000Z</time>
      </trkpt>
      <trkpt lat="46.87394" lon="6.42231">
        <ele>1055.8000488281</ele>
        <time>2023-05-15T10:52:15.000Z</time>
      </trkpt>
      <trkpt lat="46.87395" lon="6.42232">
        <ele>1055.8000488281</ele>
        <time>2023-05-15T10:52:16.000Z</time>
      </trkpt>
      <trkpt lat="46.87396" lon="6.42233">
        <ele>1056</ele>
        <time>2023-05-15T10:52:17.000Z</time>
      </trkpt>
      <trkpt lat="46.87397" lon="6.42235">
        <ele>1056</ele>
        <time>2023-05-15T10:52:18.000Z</time>
      </trkpt>
      <trkpt lat="46.87397" lon="6.42237">
        <ele>1056</ele>
        <time>2023-05-15T10:52:19.000Z</time>
      </trkpt>
      <trkpt lat="46.87399" lon="6.42241">
        <ele>1056.1999511719</ele>
        <time>2023-05-15T10:52:21.000Z</time>
      </trkpt>
      <trkpt lat="46.874" lon="6.42249">
        <ele>1056.5999755859</ele>
        <time>2023-05-15T10:52:25.000Z</time>
      </trkpt>
      <trkpt lat="46.87403" lon="6.42254">
        <ele>1057</ele>
        <time>2023-05-15T10:52:28.000Z</time>
      </trkpt>
      <trkpt lat="46.87408" lon="6.42267">
        <ele>1058</ele>
        <time>2023-05-15T10:52:35.000Z</time>
      </trkpt>
      <trkpt lat="46.87408" lon="6.42269">
        <ele>1058.1999511719</ele>
        <time>2023-05-15T10:52:36.000Z</time>
      </trkpt>
      <trkpt lat="46.87412" lon="6.42279">
        <ele>1058.8000488281</ele>
        <time>2023-05-15T10:52:41.000Z</time>
      </trkpt>
      <trkpt lat="46.87415" lon="6.42285">
        <ele>1059.1999511719</ele>
        <time>2023-05-15T10:52:44.000Z</time>
      </trkpt>
      <trkpt lat="46.87418" lon="6.42293">
        <ele>1059.8000488281</ele>
        <time>2023-05-15T10:52:48.000Z</time>
      </trkpt>
      <trkpt lat="46.87419" lon="6.42295">
        <ele>1060</ele>
        <time>2023-05-15T10:52:49.000Z</time>
      </trkpt>
      <trkpt lat="46.87422" lon="6.42298">
        <ele>1060.4000244141</ele>
        <time>2023-05-15T10:52:51.000Z</time>
      </trkpt>
      <trkpt lat="46.87424" lon="6.42311">
        <ele>1061.1999511719</ele>
        <time>2023-05-15T10:52:57.000Z</time>
      </trkpt>
      <trkpt lat="46.87425" lon="6.42315">
        <ele>1061.5999755859</ele>
        <time>2023-05-15T10:53:00.000Z</time>
      </trkpt>
      <trkpt lat="46.87427" lon="6.42323">
        <ele>1061.8000488281</ele>
        <time>2023-05-15T10:53:03.000Z</time>
      </trkpt>
      <trkpt lat="46.87428" lon="6.42324">
        <ele>1061.8000488281</ele>
        <time>2023-05-15T10:53:04.000Z</time>
      </trkpt>
      <trkpt lat="46.87433" lon="6.42333">
        <ele>1062.5999755859</ele>
        <time>2023-05-15T10:53:09.000Z</time>
      </trkpt>
      <trkpt lat="46.87434" lon="6.42337">
        <ele>1063</ele>
        <time>2023-05-15T10:53:11.000Z</time>
      </trkpt>
      <trkpt lat="46.87437" lon="6.42341">
        <ele>1063.4000244141</ele>
        <time>2023-05-15T10:53:14.000Z</time>
      </trkpt>
      <trkpt lat="46.8744" lon="6.42347">
        <ele>1064</ele>
        <time>2023-05-15T10:53:17.000Z</time>
      </trkpt>
      <trkpt lat="46.87444" lon="6.42358">
        <ele>1065.1999511719</ele>
        <time>2023-05-15T10:53:23.000Z</time>
      </trkpt>
      <trkpt lat="46.87445" lon="6.42362">
        <ele>1065.4000244141</ele>
        <time>2023-05-15T10:53:25.000Z</time>
      </trkpt>
      <trkpt lat="46.87449" lon="6.42371">
        <ele>1066.1999511719</ele>
        <time>2023-05-15T10:53:30.000Z</time>
      </trkpt>
      <trkpt lat="46.87451" lon="6.42377">
        <ele>1066.4000244141</ele>
        <time>2023-05-15T10:53:33.000Z</time>
      </trkpt>
      <trkpt lat="46.87455" lon="6.42386">
        <ele>1067.1999511719</ele>
        <time>2023-05-15T10:53:38.000Z</time>
      </trkpt>
      <trkpt lat="46.87457" lon="6.42392">
        <ele>1067.8000488281</ele>
        <time>2023-05-15T10:53:41.000Z</time>
      </trkpt>
      <trkpt lat="46.87461" lon="6.42404">
        <ele>1068</ele>
        <time>2023-05-15T10:53:48.000Z</time>
      </trkpt>
      <trkpt lat="46.87464" lon="6.42409">
        <ele>1068.4000244141</ele>
        <time>2023-05-15T10:53:51.000Z</time>
      </trkpt>
      <trkpt lat="46.87469" lon="6.42418">
        <ele>1068.8000488281</ele>
        <time>2023-05-15T10:53:56.000Z</time>
      </trkpt>
      <trkpt lat="46.87475" lon="6.42435">
        <ele>1069.5999755859</ele>
        <time>2023-05-15T10:54:04.000Z</time>
      </trkpt>
      <trkpt lat="46.8748" lon="6.42453">
        <ele>1070.1999511719</ele>
        <time>2023-05-15T10:54:12.000Z</time>
      </trkpt>
      <trkpt lat="46.87482" lon="6.42459">
        <ele>1070.5999755859</ele>
        <time>2023-05-15T10:54:15.000Z</time>
      </trkpt>
      <trkpt lat="46.87487" lon="6.42469">
        <ele>1070.8000488281</ele>
        <time>2023-05-15T10:54:19.000Z</time>
      </trkpt>
      <trkpt lat="46.87494" lon="6.42493">
        <ele>1071.1999511719</ele>
        <time>2023-05-15T10:54:27.000Z</time>
      </trkpt>
      <trkpt lat="46.87502" lon="6.42512">
        <ele>1071</ele>
        <time>2023-05-15T10:54:33.000Z</time>
      </trkpt>
      <trkpt lat="46.87503" lon="6.42515">
        <ele>1071</ele>
        <time>2023-05-15T10:54:34.000Z</time>
      </trkpt>
      <trkpt lat="46.87509" lon="6.42534">
        <ele>1070.8000488281</ele>
        <time>2023-05-15T10:54:39.000Z</time>
      </trkpt>
      <trkpt lat="46.87513" lon="6.42541">
        <ele>1070.8000488281</ele>
        <time>2023-05-15T10:54:41.000Z</time>
      </trkpt>
      <trkpt lat="46.87519" lon="6.42559">
        <ele>1070.5999755859</ele>
        <time>2023-05-15T10:54:46.000Z</time>
      </trkpt>
      <trkpt lat="46.8752" lon="6.42562">
        <ele>1070.5999755859</ele>
        <time>2023-05-15T10:54:47.000Z</time>
      </trkpt>
      <trkpt lat="46.87521" lon="6.42574">
        <ele>1070.4000244141</ele>
        <time>2023-05-15T10:54:50.000Z</time>
      </trkpt>
      <trkpt lat="46.87519" lon="6.42606">
        <ele>1070.1999511719</ele>
        <time>2023-05-15T10:54:57.000Z</time>
      </trkpt>
      <trkpt lat="46.87523" lon="6.42633">
        <ele>1070</ele>
        <time>2023-05-15T10:55:03.000Z</time>
      </trkpt>
      <trkpt lat="46.87524" lon="6.42637">
        <ele>1070</ele>
        <time>2023-05-15T10:55:04.000Z</time>
      </trkpt>
      <trkpt lat="46.87531" lon="6.42667">
        <ele>1070</ele>
        <time>2023-05-15T10:55:10.000Z</time>
      </trkpt>
      <trkpt lat="46.87534" lon="6.42678">
        <ele>1069.8000488281</ele>
        <time>2023-05-15T10:55:12.000Z</time>
      </trkpt>
      <trkpt lat="46.87539" lon="6.4269">
        <ele>1069.8000488281</ele>
        <time>2023-05-15T10:55:14.000Z</time>
      </trkpt>
      <trkpt lat="46.87542" lon="6.42702">
        <ele>1069.5999755859</ele>
        <time>2023-05-15T10:55:16.000Z</time>
      </trkpt>
      <trkpt lat="46.87552" lon="6.42721">
        <ele>1068.8000488281</ele>
        <time>2023-05-15T10:55:20.000Z</time>
      </trkpt>
      <trkpt lat="46.87554" lon="6.42726">
        <ele>1068.8000488281</ele>
        <time>2023-05-15T10:55:21.000Z</time>
      </trkpt>
      <trkpt lat="46.87559" lon="6.42736">
        <ele>1068.5999755859</ele>
        <time>2023-05-15T10:55:23.000Z</time>
      </trkpt>
      <trkpt lat="46.87562" lon="6.42743">
        <ele>1068.5999755859</ele>
        <time>2023-05-15T10:55:25.000Z</time>
      </trkpt>
      <trkpt lat="46.87563" lon="6.42747">
        <ele>1068.5999755859</ele>
        <time>2023-05-15T10:55:26.000Z</time>
      </trkpt>
      <trkpt lat="46.8757" lon="6.42768">
        <ele>1068.5999755859</ele>
        <time>2023-05-15T10:55:31.000Z</time>
      </trkpt>
      <trkpt lat="46.87571" lon="6.42771">
        <ele>1068.5999755859</ele>
        <time>2023-05-15T10:55:32.000Z</time>
      </trkpt>
      <trkpt lat="46.87578" lon="6.42801">
        <ele>1069.1999511719</ele>
        <time>2023-05-15T10:55:39.000Z</time>
      </trkpt>
      <trkpt lat="46.8758" lon="6.42809">
        <ele>1069.5999755859</ele>
        <time>2023-05-15T10:55:41.000Z</time>
      </trkpt>
      <trkpt lat="46.87586" lon="6.42829">
        <ele>1070.1999511719</ele>
        <time>2023-05-15T10:55:46.000Z</time>
      </trkpt>
      <trkpt lat="46.87585" lon="6.42844">
        <ele>1070.5999755859</ele>
        <time>2023-05-15T10:55:49.000Z</time>
      </trkpt>
      <trkpt lat="46.87586" lon="6.42851">
        <ele>1070.8000488281</ele>
        <time>2023-05-15T10:55:51.000Z</time>
      </trkpt>
      <trkpt lat="46.87586" lon="6.42868">
        <ele>1071.4000244141</ele>
        <time>2023-05-15T10:55:56.000Z</time>
      </trkpt>
      <trkpt lat="46.8759" lon="6.42876">
        <ele>1071.8000488281</ele>
        <time>2023-05-15T10:55:58.000Z</time>
      </trkpt>
      <trkpt lat="46.87596" lon="6.42887">
        <ele>1072.1999511719</ele>
        <time>2023-05-15T10:56:02.000Z</time>
      </trkpt>
      <trkpt lat="46.876" lon="6.42905">
        <ele>1072.8000488281</ele>
        <time>2023-05-15T10:56:07.000Z</time>
      </trkpt>
      <trkpt lat="46.87602" lon="6.42911">
        <ele>1073</ele>
        <time>2023-05-15T10:56:09.000Z</time>
      </trkpt>
      <trkpt lat="46.8761" lon="6.42932">
        <ele>1073.5999755859</ele>
        <time>2023-05-15T10:56:16.000Z</time>
      </trkpt>
      <trkpt lat="46.87615" lon="6.42945">
        <ele>1073.5999755859</ele>
        <time>2023-05-15T10:56:20.000Z</time>
      </trkpt>
      <trkpt lat="46.8762" lon="6.4296">
        <ele>1074.1999511719</ele>
        <time>2023-05-15T10:56:24.000Z</time>
      </trkpt>
      <trkpt lat="46.87631" lon="6.42985">
        <ele>1074.5999755859</ele>
        <time>2023-05-15T10:56:31.000Z</time>
      </trkpt>
      <trkpt lat="46.87632" lon="6.42988">
        <ele>1074.8000488281</ele>
        <time>2023-05-15T10:56:32.000Z</time>
      </trkpt>
      <trkpt lat="46.87641" lon="6.43009">
        <ele>1075</ele>
        <time>2023-05-15T10:56:39.000Z</time>
      </trkpt>
      <trkpt lat="46.8765" lon="6.43032">
        <ele>1075.5999755859</ele>
        <time>2023-05-15T10:56:46.000Z</time>
      </trkpt>
      <trkpt lat="46.87652" lon="6.43036">
        <ele>1075.8000488281</ele>
        <time>2023-05-15T10:56:47.000Z</time>
      </trkpt>
      <trkpt lat="46.87662" lon="6.43064">
        <ele>1076.1999511719</ele>
        <time>2023-05-15T10:56:54.000Z</time>
      </trkpt>
      <trkpt lat="46.87667" lon="6.43077">
        <ele>1076.1999511719</ele>
        <time>2023-05-15T10:56:59.000Z</time>
      </trkpt>
      <trkpt lat="46.87676" lon="6.43101">
        <ele>1076.4000244141</ele>
        <time>2023-05-15T10:57:06.000Z</time>
      </trkpt>
      <trkpt lat="46.8769" lon="6.43137">
        <ele>1076.5999755859</ele>
        <time>2023-05-15T10:57:17.000Z</time>
      </trkpt>
      <trkpt lat="46.87695" lon="6.43149">
        <ele>1077</ele>
        <time>2023-05-15T10:57:21.000Z</time>
      </trkpt>
      <trkpt lat="46.87698" lon="6.43156">
        <ele>1077.1999511719</ele>
        <time>2023-05-15T10:57:23.000Z</time>
      </trkpt>
      <trkpt lat="46.87707" lon="6.43177">
        <ele>1077.5999755859</ele>
        <time>2023-05-15T10:57:29.000Z</time>
      </trkpt>
      <trkpt lat="46.87709" lon="6.43181">
        <ele>1077.8000488281</ele>
        <time>2023-05-15T10:57:30.000Z</time>
      </trkpt>
      <trkpt lat="46.87724" lon="6.43223">
        <ele>1078.4000244141</ele>
        <time>2023-05-15T10:57:40.000Z</time>
      </trkpt>
      <trkpt lat="46.87724" lon="6.43226">
        <ele>1078.5999755859</ele>
        <time>2023-05-15T10:57:41.000Z</time>
      </trkpt>
      <trkpt lat="46.87725" lon="6.43252">
        <ele>1079</ele>
        <time>2023-05-15T10:57:47.000Z</time>
      </trkpt>
      <trkpt lat="46.87721" lon="6.43276">
        <ele>1079.1999511719</ele>
        <time>2023-05-15T10:57:53.000Z</time>
      </trkpt>
      <trkpt lat="46.87708" lon="6.4331">
        <ele>1079.1999511719</ele>
        <time>2023-05-15T10:58:01.000Z</time>
      </trkpt>
      <trkpt lat="46.87696" lon="6.43335">
        <ele>1079.4000244141</ele>
        <time>2023-05-15T10:58:09.000Z</time>
      </trkpt>
      <trkpt lat="46.87687" lon="6.43362">
        <ele>1079.1999511719</ele>
        <time>2023-05-15T10:58:17.000Z</time>
      </trkpt>
      <trkpt lat="46.8768" lon="6.43385">
        <ele>1079</ele>
        <time>2023-05-15T10:58:24.000Z</time>
      </trkpt>
      <trkpt lat="46.87672" lon="6.43402">
        <ele>1079.5999755859</ele>
        <time>2023-05-15T10:58:30.000Z</time>
      </trkpt>
      <trkpt lat="46.8766" lon="6.43408">
        <ele>1080.1999511719</ele>
        <time>2023-05-15T10:58:36.000Z</time>
      </trkpt>
      <trkpt lat="46.87652" lon="6.43406">
        <ele>1080.8000488281</ele>
        <time>2023-05-15T10:58:39.000Z</time>
      </trkpt>
      <trkpt lat="46.87643" lon="6.43404">
        <ele>1081</ele>
        <time>2023-05-15T10:58:43.000Z</time>
      </trkpt>
      <trkpt lat="46.87641" lon="6.43402">
        <ele>1081.1999511719</ele>
        <time>2023-05-15T10:58:44.000Z</time>
      </trkpt>
      <trkpt lat="46.87637" lon="6.434">
        <ele>1081.8000488281</ele>
        <time>2023-05-15T10:58:46.000Z</time>
      </trkpt>
      <trkpt lat="46.87632" lon="6.43397">
        <ele>1082.4000244141</ele>
        <time>2023-05-15T10:58:49.000Z</time>
      </trkpt>
      <trkpt lat="46.87627" lon="6.43393">
        <ele>1083</ele>
        <time>2023-05-15T10:58:52.000Z</time>
      </trkpt>
      <trkpt lat="46.87623" lon="6.4339">
        <ele>1084</ele>
        <time>2023-05-15T10:58:55.000Z</time>
      </trkpt>
      <trkpt lat="46.87621" lon="6.43389">
        <ele>1084</ele>
        <time>2023-05-15T10:58:56.000Z</time>
      </trkpt>
      <trkpt lat="46.87618" lon="6.4338">
        <ele>1085.1999511719</ele>
        <time>2023-05-15T10:59:01.000Z</time>
      </trkpt>
      <trkpt lat="46.87617" lon="6.43377">
        <ele>1085.8000488281</ele>
        <time>2023-05-15T10:59:03.000Z</time>
      </trkpt>
      <trkpt lat="46.87615" lon="6.43373">
        <ele>1086.1999511719</ele>
        <time>2023-05-15T10:59:05.000Z</time>
      </trkpt>
      <trkpt lat="46.87614" lon="6.4337">
        <ele>1086.5999755859</ele>
        <time>2023-05-15T10:59:07.000Z</time>
      </trkpt>
      <trkpt lat="46.87608" lon="6.43363">
        <ele>1087.4000244141</ele>
        <time>2023-05-15T10:59:13.000Z</time>
      </trkpt>
      <trkpt lat="46.87608" lon="6.43361">
        <ele>1087.5999755859</ele>
        <time>2023-05-15T10:59:14.000Z</time>
      </trkpt>
      <trkpt lat="46.87603" lon="6.43354">
        <ele>1088.4000244141</ele>
        <time>2023-05-15T10:59:18.000Z</time>
      </trkpt>
      <trkpt lat="46.87601" lon="6.43351">
        <ele>1088.5999755859</ele>
        <time>2023-05-15T10:59:20.000Z</time>
      </trkpt>
      <trkpt lat="46.87599" lon="6.43349">
        <ele>1089</ele>
        <time>2023-05-15T10:59:21.000Z</time>
      </trkpt>
      <trkpt lat="46.87596" lon="6.43344">
        <ele>1089.5999755859</ele>
        <time>2023-05-15T10:59:24.000Z</time>
      </trkpt>
      <trkpt lat="46.87589" lon="6.43338">
        <ele>1090.5999755859</ele>
        <time>2023-05-15T10:59:29.000Z</time>
      </trkpt>
      <trkpt lat="46.87582" lon="6.43333">
        <ele>1091.5999755859</ele>
        <time>2023-05-15T10:59:34.000Z</time>
      </trkpt>
      <trkpt lat="46.87575" lon="6.43319">
        <ele>1092.8000488281</ele>
        <time>2023-05-15T10:59:41.000Z</time>
      </trkpt>
      <trkpt lat="46.87571" lon="6.43312">
        <ele>1093.8000488281</ele>
        <time>2023-05-15T10:59:46.000Z</time>
      </trkpt>
      <trkpt lat="46.87568" lon="6.43309">
        <ele>1094.1999511719</ele>
        <time>2023-05-15T10:59:48.000Z</time>
      </trkpt>
      <trkpt lat="46.87566" lon="6.43307">
        <ele>1094.8000488281</ele>
        <time>2023-05-15T10:59:50.000Z</time>
      </trkpt>
      <trkpt lat="46.87561" lon="6.43301">
        <ele>1095.5999755859</ele>
        <time>2023-05-15T10:59:55.000Z</time>
      </trkpt>
      <trkpt lat="46.87559" lon="6.43299">
        <ele>1096</ele>
        <time>2023-05-15T10:59:57.000Z</time>
      </trkpt>
      <trkpt lat="46.87553" lon="6.43292">
        <ele>1097.1999511719</ele>
        <time>2023-05-15T11:00:03.000Z</time>
      </trkpt>
      <trkpt lat="46.87546" lon="6.43283">
        <ele>1098.4000244141</ele>
        <time>2023-05-15T11:00:10.000Z</time>
      </trkpt>
      <trkpt lat="46.87545" lon="6.43281">
        <ele>1098.4000244141</ele>
        <time>2023-05-15T11:00:11.000Z</time>
      </trkpt>
      <trkpt lat="46.87544" lon="6.43279">
        <ele>1098.5999755859</ele>
        <time>2023-05-15T11:00:12.000Z</time>
      </trkpt>
      <trkpt lat="46.8754" lon="6.43272">
        <ele>1099.1999511719</ele>
        <time>2023-05-15T11:00:16.000Z</time>
      </trkpt>
      <trkpt lat="46.87535" lon="6.43268">
        <ele>1100</ele>
        <time>2023-05-15T11:00:20.000Z</time>
      </trkpt>
      <trkpt lat="46.87532" lon="6.43266">
        <ele>1100.4000244141</ele>
        <time>2023-05-15T11:00:22.000Z</time>
      </trkpt>
      <trkpt lat="46.87527" lon="6.43256">
        <ele>1101.5999755859</ele>
        <time>2023-05-15T11:00:28.000Z</time>
      </trkpt>
      <trkpt lat="46.87526" lon="6.43254">
        <ele>1101.8000488281</ele>
        <time>2023-05-15T11:00:29.000Z</time>
      </trkpt>
      <trkpt lat="46.87525" lon="6.43251">
        <ele>1102.1999511719</ele>
        <time>2023-05-15T11:00:31.000Z</time>
      </trkpt>
      <trkpt lat="46.87521" lon="6.43248">
        <ele>1102.8000488281</ele>
        <time>2023-05-15T11:00:34.000Z</time>
      </trkpt>
      <trkpt lat="46.87516" lon="6.43243">
        <ele>1103.8000488281</ele>
        <time>2023-05-15T11:00:38.000Z</time>
      </trkpt>
      <trkpt lat="46.87513" lon="6.4324">
        <ele>1104.4000244141</ele>
        <time>2023-05-15T11:00:40.000Z</time>
      </trkpt>
      <trkpt lat="46.87508" lon="6.43237">
        <ele>1104.8000488281</ele>
        <time>2023-05-15T11:00:43.000Z</time>
      </trkpt>
      <trkpt lat="46.87502" lon="6.43233">
        <ele>1105.8000488281</ele>
        <time>2023-05-15T11:00:47.000Z</time>
      </trkpt>
      <trkpt lat="46.87501" lon="6.43232">
        <ele>1106</ele>
        <time>2023-05-15T11:00:48.000Z</time>
      </trkpt>
      <trkpt lat="46.87494" lon="6.43226">
        <ele>1107.1999511719</ele>
        <time>2023-05-15T11:00:53.000Z</time>
      </trkpt>
      <trkpt lat="46.87493" lon="6.43226">
        <ele>1107.1999511719</ele>
        <time>2023-05-15T11:00:54.000Z</time>
      </trkpt>
      <trkpt lat="46.87489" lon="6.43224">
        <ele>1108</ele>
        <time>2023-05-15T11:00:57.000Z</time>
      </trkpt>
      <trkpt lat="46.87488" lon="6.43224">
        <ele>1108.1999511719</ele>
        <time>2023-05-15T11:00:58.000Z</time>
      </trkpt>
      <trkpt lat="46.87484" lon="6.43224">
        <ele>1108.5999755859</ele>
        <time>2023-05-15T11:01:01.000Z</time>
      </trkpt>
      <trkpt lat="46.87482" lon="6.43225">
        <ele>1109.1999511719</ele>
        <time>2023-05-15T11:01:03.000Z</time>
      </trkpt>
      <trkpt lat="46.8747" lon="6.43219">
        <ele>1110.4000244141</ele>
        <time>2023-05-15T11:01:11.000Z</time>
      </trkpt>
      <trkpt lat="46.87463" lon="6.43214">
        <ele>1111.1999511719</ele>
        <time>2023-05-15T11:01:15.000Z</time>
      </trkpt>
      <trkpt lat="46.87455" lon="6.43211">
        <ele>1112</ele>
        <time>2023-05-15T11:01:19.000Z</time>
      </trkpt>
      <trkpt lat="46.87449" lon="6.43209">
        <ele>1112.1999511719</ele>
        <time>2023-05-15T11:01:22.000Z</time>
      </trkpt>
      <trkpt lat="46.87446" lon="6.43206">
        <ele>1112.4000244141</ele>
        <time>2023-05-15T11:01:24.000Z</time>
      </trkpt>
      <trkpt lat="46.87442" lon="6.43204">
        <ele>1113.1999511719</ele>
        <time>2023-05-15T11:01:27.000Z</time>
      </trkpt>
      <trkpt lat="46.87441" lon="6.43203">
        <ele>1113.1999511719</ele>
        <time>2023-05-15T11:01:28.000Z</time>
      </trkpt>
      <trkpt lat="46.87434" lon="6.43197">
        <ele>1114.4000244141</ele>
        <time>2023-05-15T11:01:34.000Z</time>
      </trkpt>
      <trkpt lat="46.87433" lon="6.43197">
        <ele>1114.5999755859</ele>
        <time>2023-05-15T11:01:35.000Z</time>
      </trkpt>
      <trkpt lat="46.87431" lon="6.43196">
        <ele>1114.8000488281</ele>
        <time>2023-05-15T11:01:36.000Z</time>
      </trkpt>
      <trkpt lat="46.87425" lon="6.43193">
        <ele>1115.5999755859</ele>
        <time>2023-05-15T11:01:41.000Z</time>
      </trkpt>
      <trkpt lat="46.87419" lon="6.43192">
        <ele>1117</ele>
        <time>2023-05-15T11:01:46.000Z</time>
      </trkpt>
      <trkpt lat="46.87418" lon="6.43191">
        <ele>1117.1999511719</ele>
        <time>2023-05-15T11:01:47.000Z</time>
      </trkpt>
      <trkpt lat="46.87416" lon="6.43191">
        <ele>1117.4000244141</ele>
        <time>2023-05-15T11:01:48.000Z</time>
      </trkpt>
      <trkpt lat="46.87411" lon="6.43189">
        <ele>1118</ele>
        <time>2023-05-15T11:01:51.000Z</time>
      </trkpt>
      <trkpt lat="46.87409" lon="6.43188">
        <ele>1118.1999511719</ele>
        <time>2023-05-15T11:01:52.000Z</time>
      </trkpt>
      <trkpt lat="46.87407" lon="6.43186">
        <ele>1118.4000244141</ele>
        <time>2023-05-15T11:01:53.000Z</time>
      </trkpt>
      <trkpt lat="46.874" lon="6.43182">
        <ele>1119.4000244141</ele>
        <time>2023-05-15T11:01:57.000Z</time>
      </trkpt>
      <trkpt lat="46.87393" lon="6.4318">
        <ele>1120.4000244141</ele>
        <time>2023-05-15T11:02:01.000Z</time>
      </trkpt>
      <trkpt lat="46.87392" lon="6.43179">
        <ele>1120.5999755859</ele>
        <time>2023-05-15T11:02:02.000Z</time>
      </trkpt>
      <trkpt lat="46.87386" lon="6.43176">
        <ele>1121.5999755859</ele>
        <time>2023-05-15T11:02:06.000Z</time>
      </trkpt>
      <trkpt lat="46.87383" lon="6.43176">
        <ele>1122</ele>
        <time>2023-05-15T11:02:08.000Z</time>
      </trkpt>
      <trkpt lat="46.87379" lon="6.43176">
        <ele>1122.4000244141</ele>
        <time>2023-05-15T11:02:10.000Z</time>
      </trkpt>
      <trkpt lat="46.87377" lon="6.43175">
        <ele>1122.8000488281</ele>
        <time>2023-05-15T11:02:11.000Z</time>
      </trkpt>
      <trkpt lat="46.87368" lon="6.43172">
        <ele>1124</ele>
        <time>2023-05-15T11:02:16.000Z</time>
      </trkpt>
      <trkpt lat="46.87365" lon="6.43169">
        <ele>1124.4000244141</ele>
        <time>2023-05-15T11:02:19.000Z</time>
      </trkpt>
      <trkpt lat="46.8736" lon="6.43168">
        <ele>1125.1999511719</ele>
        <time>2023-05-15T11:02:22.000Z</time>
      </trkpt>
      <trkpt lat="46.87356" lon="6.43165">
        <ele>1126</ele>
        <time>2023-05-15T11:02:26.000Z</time>
      </trkpt>
      <trkpt lat="46.87354" lon="6.43163">
        <ele>1126.1999511719</ele>
        <time>2023-05-15T11:02:28.000Z</time>
      </trkpt>
      <trkpt lat="46.87349" lon="6.4316">
        <ele>1127.4000244141</ele>
        <time>2023-05-15T11:02:33.000Z</time>
      </trkpt>
      <trkpt lat="46.87343" lon="6.43157">
        <ele>1128</ele>
        <time>2023-05-15T11:02:37.000Z</time>
      </trkpt>
      <trkpt lat="46.87339" lon="6.43158">
        <ele>1128.5999755859</ele>
        <time>2023-05-15T11:02:39.000Z</time>
      </trkpt>
      <trkpt lat="46.87333" lon="6.43156">
        <ele>1129.4000244141</ele>
        <time>2023-05-15T11:02:44.000Z</time>
      </trkpt>
      <trkpt lat="46.87332" lon="6.43155">
        <ele>1129.8000488281</ele>
        <time>2023-05-15T11:02:45.000Z</time>
      </trkpt>
      <trkpt lat="46.87327" lon="6.43153">
        <ele>1130</ele>
        <time>2023-05-15T11:02:48.000Z</time>
      </trkpt>
      <trkpt lat="46.87325" lon="6.43154">
        <ele>1130.1999511719</ele>
        <time>2023-05-15T11:02:49.000Z</time>
      </trkpt>
      <trkpt lat="46.87323" lon="6.43154">
        <ele>1130.5999755859</ele>
        <time>2023-05-15T11:02:50.000Z</time>
      </trkpt>
      <trkpt lat="46.87321" lon="6.43154">
        <ele>1131</ele>
        <time>2023-05-15T11:02:52.000Z</time>
      </trkpt>
      <trkpt lat="46.87319" lon="6.43154">
        <ele>1131</ele>
        <time>2023-05-15T11:02:53.000Z</time>
      </trkpt>
      <trkpt lat="46.87313" lon="6.43154">
        <ele>1132</ele>
        <time>2023-05-15T11:02:58.000Z</time>
      </trkpt>
      <trkpt lat="46.87307" lon="6.43157">
        <ele>1132.4000244141</ele>
        <time>2023-05-15T11:03:01.000Z</time>
      </trkpt>
      <trkpt lat="46.87303" lon="6.43159">
        <ele>1133</ele>
        <time>2023-05-15T11:03:04.000Z</time>
      </trkpt>
      <trkpt lat="46.87301" lon="6.4316">
        <ele>1133.1999511719</ele>
        <time>2023-05-15T11:03:05.000Z</time>
      </trkpt>
      <trkpt lat="46.87299" lon="6.4316">
        <ele>1133.4000244141</ele>
        <time>2023-05-15T11:03:07.000Z</time>
      </trkpt>
      <trkpt lat="46.87287" lon="6.43163">
        <ele>1134.1999511719</ele>
        <time>2023-05-15T11:03:13.000Z</time>
      </trkpt>
      <trkpt lat="46.87284" lon="6.43165">
        <ele>1134.1999511719</ele>
        <time>2023-05-15T11:03:14.000Z</time>
      </trkpt>
      <trkpt lat="46.87279" lon="6.43169">
        <ele>1134.4000244141</ele>
        <time>2023-05-15T11:03:16.000Z</time>
      </trkpt>
      <trkpt lat="46.87272" lon="6.43169">
        <ele>1135.1999511719</ele>
        <time>2023-05-15T11:03:19.000Z</time>
      </trkpt>
      <trkpt lat="46.87259" lon="6.43163">
        <ele>1136</ele>
        <time>2023-05-15T11:03:25.000Z</time>
      </trkpt>
      <trkpt lat="46.87248" lon="6.43154">
        <ele>1136.1999511719</ele>
        <time>2023-05-15T11:03:32.000Z</time>
      </trkpt>
      <trkpt lat="46.87245" lon="6.43153">
        <ele>1136.1999511719</ele>
        <time>2023-05-15T11:03:34.000Z</time>
      </trkpt>
      <trkpt lat="46.87226" lon="6.43141">
        <ele>1137.1999511719</ele>
        <time>2023-05-15T11:03:43.000Z</time>
      </trkpt>
      <trkpt lat="46.87219" lon="6.43135">
        <ele>1137.1999511719</ele>
        <time>2023-05-15T11:03:46.000Z</time>
      </trkpt>
      <trkpt lat="46.87208" lon="6.43126">
        <ele>1137.4000244141</ele>
        <time>2023-05-15T11:03:51.000Z</time>
      </trkpt>
      <trkpt lat="46.87198" lon="6.43114">
        <ele>1137.4000244141</ele>
        <time>2023-05-15T11:03:57.000Z</time>
      </trkpt>
      <trkpt lat="46.87191" lon="6.43098">
        <ele>1137.5999755859</ele>
        <time>2023-05-15T11:04:04.000Z</time>
      </trkpt>
      <trkpt lat="46.87185" lon="6.43079">
        <ele>1137.4000244141</ele>
        <time>2023-05-15T11:04:09.000Z</time>
      </trkpt>
      <trkpt lat="46.87185" lon="6.43059">
        <ele>1137.1999511719</ele>
        <time>2023-05-15T11:04:15.000Z</time>
      </trkpt>
      <trkpt lat="46.87179" lon="6.43044">
        <ele>1137</ele>
        <time>2023-05-15T11:04:19.000Z</time>
      </trkpt>
      <trkpt lat="46.87178" lon="6.43041">
        <ele>1137</ele>
        <time>2023-05-15T11:04:20.000Z</time>
      </trkpt>
      <trkpt lat="46.87181" lon="6.43031">
        <ele>1137</ele>
        <time>2023-05-15T11:04:22.000Z</time>
      </trkpt>
      <trkpt lat="46.87183" lon="6.43014">
        <ele>1137.4000244141</ele>
        <time>2023-05-15T11:04:27.000Z</time>
      </trkpt>
      <trkpt lat="46.87186" lon="6.42996">
        <ele>1138</ele>
        <time>2023-05-15T11:04:32.000Z</time>
      </trkpt>
      <trkpt lat="46.87187" lon="6.42992">
        <ele>1138.1999511719</ele>
        <time>2023-05-15T11:04:33.000Z</time>
      </trkpt>
      <trkpt lat="46.87191" lon="6.42977">
        <ele>1138.4000244141</ele>
        <time>2023-05-15T11:04:37.000Z</time>
      </trkpt>
      <trkpt lat="46.87193" lon="6.42974">
        <ele>1138.5999755859</ele>
        <time>2023-05-15T11:04:38.000Z</time>
      </trkpt>
      <trkpt lat="46.87192" lon="6.42964">
        <ele>1139</ele>
        <time>2023-05-15T11:04:41.000Z</time>
      </trkpt>
      <trkpt lat="46.87189" lon="6.42961">
        <ele>1139.1999511719</ele>
        <time>2023-05-15T11:04:42.000Z</time>
      </trkpt>
      <trkpt lat="46.87187" lon="6.42959">
        <ele>1139.1999511719</ele>
        <time>2023-05-15T11:04:43.000Z</time>
      </trkpt>
      <trkpt lat="46.8717" lon="6.42941">
        <ele>1139.4000244141</ele>
        <time>2023-05-15T11:04:49.000Z</time>
      </trkpt>
      <trkpt lat="46.87164" lon="6.42925">
        <ele>1139.8000488281</ele>
        <time>2023-05-15T11:04:54.000Z</time>
      </trkpt>
      <trkpt lat="46.87156" lon="6.42904">
        <ele>1139.4000244141</ele>
        <time>2023-05-15T11:05:02.000Z</time>
      </trkpt>
      <trkpt lat="46.87142" lon="6.42877">
        <ele>1139.5999755859</ele>
        <time>2023-05-15T11:05:11.000Z</time>
      </trkpt>
      <trkpt lat="46.87134" lon="6.42847">
        <ele>1139.8000488281</ele>
        <time>2023-05-15T11:05:19.000Z</time>
      </trkpt>
      <trkpt lat="46.87126" lon="6.42822">
        <ele>1139.1999511719</ele>
        <time>2023-05-15T11:05:26.000Z</time>
      </trkpt>
      <trkpt lat="46.87116" lon="6.42796">
        <ele>1138.4000244141</ele>
        <time>2023-05-15T11:05:32.000Z</time>
      </trkpt>
      <trkpt lat="46.87101" lon="6.42759">
        <ele>1138</ele>
        <time>2023-05-15T11:05:41.000Z</time>
      </trkpt>
      <trkpt lat="46.87098" lon="6.42753">
        <ele>1137.8000488281</ele>
        <time>2023-05-15T11:05:42.000Z</time>
      </trkpt>
      <trkpt lat="46.87089" lon="6.42735">
        <ele>1137.4000244141</ele>
        <time>2023-05-15T11:05:45.000Z</time>
      </trkpt>
      <trkpt lat="46.87084" lon="6.42725">
        <ele>1137.1999511719</ele>
        <time>2023-05-15T11:05:47.000Z</time>
      </trkpt>
      <trkpt lat="46.87079" lon="6.42711">
        <ele>1137.1999511719</ele>
        <time>2023-05-15T11:05:50.000Z</time>
      </trkpt>
      <trkpt lat="46.87078" lon="6.42707">
        <ele>1136.8000488281</ele>
        <time>2023-05-15T11:05:51.000Z</time>
      </trkpt>
      <trkpt lat="46.87067" lon="6.42684">
        <ele>1136.1999511719</ele>
        <time>2023-05-15T11:05:57.000Z</time>
      </trkpt>
      <trkpt lat="46.87058" lon="6.42664">
        <ele>1135.5999755859</ele>
        <time>2023-05-15T11:06:02.000Z</time>
      </trkpt>
      <trkpt lat="46.87051" lon="6.42656">
        <ele>1135.5999755859</ele>
        <time>2023-05-15T11:06:04.000Z</time>
      </trkpt>
      <trkpt lat="46.87049" lon="6.42652">
        <ele>1135.4000244141</ele>
        <time>2023-05-15T11:06:05.000Z</time>
      </trkpt>
      <trkpt lat="46.87045" lon="6.42636">
        <ele>1135</ele>
        <time>2023-05-15T11:06:08.000Z</time>
      </trkpt>
      <trkpt lat="46.87042" lon="6.42618">
        <ele>1134.4000244141</ele>
        <time>2023-05-15T11:06:11.000Z</time>
      </trkpt>
      <trkpt lat="46.87041" lon="6.42613">
        <ele>1134.1999511719</ele>
        <time>2023-05-15T11:06:12.000Z</time>
      </trkpt>
      <trkpt lat="46.87038" lon="6.42608">
        <ele>1134.1999511719</ele>
        <time>2023-05-15T11:06:13.000Z</time>
      </trkpt>
      <trkpt lat="46.87035" lon="6.42604">
        <ele>1133.8000488281</ele>
        <time>2023-05-15T11:06:14.000Z</time>
      </trkpt>
      <trkpt lat="46.87022" lon="6.42588">
        <ele>1133.4000244141</ele>
        <time>2023-05-15T11:06:19.000Z</time>
      </trkpt>
      <trkpt lat="46.87012" lon="6.4258">
        <ele>1133.4000244141</ele>
        <time>2023-05-15T11:06:23.000Z</time>
      </trkpt>
      <trkpt lat="46.87" lon="6.42569">
        <ele>1133.5999755859</ele>
        <time>2023-05-15T11:06:27.000Z</time>
      </trkpt>
      <trkpt lat="46.86994" lon="6.42566">
        <ele>1133.8000488281</ele>
        <time>2023-05-15T11:06:29.000Z</time>
      </trkpt>
      <trkpt lat="46.86983" lon="6.42551">
        <ele>1135</ele>
        <time>2023-05-15T11:06:35.000Z</time>
      </trkpt>
      <trkpt lat="46.86981" lon="6.4255">
        <ele>1135.5999755859</ele>
        <time>2023-05-15T11:06:36.000Z</time>
      </trkpt>
      <trkpt lat="46.86974" lon="6.42545">
        <ele>1136</ele>
        <time>2023-05-15T11:06:39.000Z</time>
      </trkpt>
      <trkpt lat="46.86965" lon="6.42539">
        <ele>1136.5999755859</ele>
        <time>2023-05-15T11:06:43.000Z</time>
      </trkpt>
      <trkpt lat="46.86957" lon="6.42535">
        <ele>1137.4000244141</ele>
        <time>2023-05-15T11:06:46.000Z</time>
      </trkpt>
      <trkpt lat="46.86942" lon="6.42519">
        <ele>1137.5999755859</ele>
        <time>2023-05-15T11:06:51.000Z</time>
      </trkpt>
      <trkpt lat="46.86941" lon="6.42517">
        <ele>1137.8000488281</ele>
        <time>2023-05-15T11:06:52.000Z</time>
      </trkpt>
      <trkpt lat="46.8693" lon="6.42488">
        <ele>1137.5999755859</ele>
        <time>2023-05-15T11:07:00.000Z</time>
      </trkpt>
      <trkpt lat="46.86928" lon="6.42476">
        <ele>1137.1999511719</ele>
        <time>2023-05-15T11:07:03.000Z</time>
      </trkpt>
      <trkpt lat="46.86925" lon="6.42472">
        <ele>1137</ele>
        <time>2023-05-15T11:07:05.000Z</time>
      </trkpt>
      <trkpt lat="46.86916" lon="6.42463">
        <ele>1136.8000488281</ele>
        <time>2023-05-15T11:07:10.000Z</time>
      </trkpt>
      <trkpt lat="46.86916" lon="6.42441">
        <ele>1136.8000488281</ele>
        <time>2023-05-15T11:07:16.000Z</time>
      </trkpt>
      <trkpt lat="46.8691" lon="6.42425">
        <ele>1136.8000488281</ele>
        <time>2023-05-15T11:07:22.000Z</time>
      </trkpt>
      <trkpt lat="46.86901" lon="6.42407">
        <ele>1137</ele>
        <time>2023-05-15T11:07:28.000Z</time>
      </trkpt>
      <trkpt lat="46.86887" lon="6.42403">
        <ele>1137.1999511719</ele>
        <time>2023-05-15T11:07:34.000Z</time>
      </trkpt>
      <trkpt lat="46.86872" lon="6.42407">
        <ele>1138.1999511719</ele>
        <time>2023-05-15T11:07:41.000Z</time>
      </trkpt>
      <trkpt lat="46.86868" lon="6.42408">
        <ele>1139</ele>
        <time>2023-05-15T11:07:43.000Z</time>
      </trkpt>
      <trkpt lat="46.8686" lon="6.42408">
        <ele>1139.5999755859</ele>
        <time>2023-05-15T11:07:47.000Z</time>
      </trkpt>
      <trkpt lat="46.86854" lon="6.42411">
        <ele>1140.1999511719</ele>
        <time>2023-05-15T11:07:50.000Z</time>
      </trkpt>
      <trkpt lat="46.86848" lon="6.42412">
        <ele>1141.1999511719</ele>
        <time>2023-05-15T11:07:53.000Z</time>
      </trkpt>
      <trkpt lat="46.86846" lon="6.42413">
        <ele>1141.4000244141</ele>
        <time>2023-05-15T11:07:54.000Z</time>
      </trkpt>
      <trkpt lat="46.86839" lon="6.42414">
        <ele>1142.4000244141</ele>
        <time>2023-05-15T11:07:59.000Z</time>
      </trkpt>
      <trkpt lat="46.8683" lon="6.42417">
        <ele>1143.5999755859</ele>
        <time>2023-05-15T11:08:05.000Z</time>
      </trkpt>
      <trkpt lat="46.86827" lon="6.42418">
        <ele>1143.8000488281</ele>
        <time>2023-05-15T11:08:07.000Z</time>
      </trkpt>
      <trkpt lat="46.86818" lon="6.42429">
        <ele>1144.5999755859</ele>
        <time>2023-05-15T11:08:14.000Z</time>
      </trkpt>
      <trkpt lat="46.86817" lon="6.42431">
        <ele>1144.5999755859</ele>
        <time>2023-05-15T11:08:15.000Z</time>
      </trkpt>
      <trkpt lat="46.86806" lon="6.42446">
        <ele>1145.5999755859</ele>
        <time>2023-05-15T11:08:24.000Z</time>
      </trkpt>
      <trkpt lat="46.86803" lon="6.4245">
        <ele>1145.8000488281</ele>
        <time>2023-05-15T11:08:26.000Z</time>
      </trkpt>
      <trkpt lat="46.86797" lon="6.42462">
        <ele>1146.5999755859</ele>
        <time>2023-05-15T11:08:32.000Z</time>
      </trkpt>
      <trkpt lat="46.86795" lon="6.42466">
        <ele>1146.8000488281</ele>
        <time>2023-05-15T11:08:34.000Z</time>
      </trkpt>
      <trkpt lat="46.86791" lon="6.42472">
        <ele>1147.8000488281</ele>
        <time>2023-05-15T11:08:38.000Z</time>
      </trkpt>
      <trkpt lat="46.8679" lon="6.42473">
        <ele>1148</ele>
        <time>2023-05-15T11:08:39.000Z</time>
      </trkpt>
      <trkpt lat="46.86784" lon="6.42482">
        <ele>1149.1999511719</ele>
        <time>2023-05-15T11:08:44.000Z</time>
      </trkpt>
      <trkpt lat="46.86777" lon="6.42487">
        <ele>1150.4000244141</ele>
        <time>2023-05-15T11:08:49.000Z</time>
      </trkpt>
      <trkpt lat="46.86769" lon="6.42494">
        <ele>1151.4000244141</ele>
        <time>2023-05-15T11:08:54.000Z</time>
      </trkpt>
      <trkpt lat="46.86764" lon="6.42498">
        <ele>1152</ele>
        <time>2023-05-15T11:08:58.000Z</time>
      </trkpt>
      <trkpt lat="46.8676" lon="6.42504">
        <ele>1152.5999755859</ele>
        <time>2023-05-15T11:09:02.000Z</time>
      </trkpt>
      <trkpt lat="46.86757" lon="6.42508">
        <ele>1153.4000244141</ele>
        <time>2023-05-15T11:09:05.000Z</time>
      </trkpt>
      <trkpt lat="46.86755" lon="6.42512">
        <ele>1153.8000488281</ele>
        <time>2023-05-15T11:09:07.000Z</time>
      </trkpt>
      <trkpt lat="46.86748" lon="6.42517">
        <ele>1154.4000244141</ele>
        <time>2023-05-15T11:09:12.000Z</time>
      </trkpt>
      <trkpt lat="46.86745" lon="6.42517">
        <ele>1154.8000488281</ele>
        <time>2023-05-15T11:09:14.000Z</time>
      </trkpt>
      <trkpt lat="46.86736" lon="6.42518">
        <ele>1155.5999755859</ele>
        <time>2023-05-15T11:09:19.000Z</time>
      </trkpt>
      <trkpt lat="46.86729" lon="6.42521">
        <ele>1156.1999511719</ele>
        <time>2023-05-15T11:09:23.000Z</time>
      </trkpt>
      <trkpt lat="46.86728" lon="6.42521">
        <ele>1156.1999511719</ele>
        <time>2023-05-15T11:09:24.000Z</time>
      </trkpt>
      <trkpt lat="46.86716" lon="6.4253">
        <ele>1156.4000244141</ele>
        <time>2023-05-15T11:09:30.000Z</time>
      </trkpt>
      <trkpt lat="46.86711" lon="6.42543">
        <ele>1157.1999511719</ele>
        <time>2023-05-15T11:09:37.000Z</time>
      </trkpt>
      <trkpt lat="46.8671" lon="6.42545">
        <ele>1157.1999511719</ele>
        <time>2023-05-15T11:09:38.000Z</time>
      </trkpt>
      <trkpt lat="46.86707" lon="6.42555">
        <ele>1158.1999511719</ele>
        <time>2023-05-15T11:09:43.000Z</time>
      </trkpt>
      <trkpt lat="46.86706" lon="6.42561">
        <ele>1158.8000488281</ele>
        <time>2023-05-15T11:09:46.000Z</time>
      </trkpt>
      <trkpt lat="46.86704" lon="6.42564">
        <ele>1159</ele>
        <time>2023-05-15T11:09:48.000Z</time>
      </trkpt>
      <trkpt lat="46.86702" lon="6.42569">
        <ele>1159.4000244141</ele>
        <time>2023-05-15T11:09:50.000Z</time>
      </trkpt>
      <trkpt lat="46.86702" lon="6.42571">
        <ele>1159.5999755859</ele>
        <time>2023-05-15T11:09:51.000Z</time>
      </trkpt>
      <trkpt lat="46.86698" lon="6.42592">
        <ele>1160.4000244141</ele>
        <time>2023-05-15T11:09:59.000Z</time>
      </trkpt>
      <trkpt lat="46.86698" lon="6.42594">
        <ele>1160.5999755859</ele>
        <time>2023-05-15T11:10:00.000Z</time>
      </trkpt>
      <trkpt lat="46.86697" lon="6.42611">
        <ele>1161.5999755859</ele>
        <time>2023-05-15T11:10:07.000Z</time>
      </trkpt>
      <trkpt lat="46.86697" lon="6.42631">
        <ele>1162.4000244141</ele>
        <time>2023-05-15T11:10:14.000Z</time>
      </trkpt>
      <trkpt lat="46.86697" lon="6.42637">
        <ele>1162.8000488281</ele>
        <time>2023-05-15T11:10:16.000Z</time>
      </trkpt>
      <trkpt lat="46.86693" lon="6.42652">
        <ele>1163.8000488281</ele>
        <time>2023-05-15T11:10:22.000Z</time>
      </trkpt>
      <trkpt lat="46.86689" lon="6.42663">
        <ele>1164.8000488281</ele>
        <time>2023-05-15T11:10:26.000Z</time>
      </trkpt>
      <trkpt lat="46.86686" lon="6.42673">
        <ele>1165.5999755859</ele>
        <time>2023-05-15T11:10:30.000Z</time>
      </trkpt>
      <trkpt lat="46.86684" lon="6.42676">
        <ele>1165.8000488281</ele>
        <time>2023-05-15T11:10:32.000Z</time>
      </trkpt>
      <trkpt lat="46.86683" lon="6.42678">
        <ele>1166</ele>
        <time>2023-05-15T11:10:33.000Z</time>
      </trkpt>
      <trkpt lat="46.86681" lon="6.42686">
        <ele>1166.5999755859</ele>
        <time>2023-05-15T11:10:36.000Z</time>
      </trkpt>
      <trkpt lat="46.86679" lon="6.42693">
        <ele>1167</ele>
        <time>2023-05-15T11:10:39.000Z</time>
      </trkpt>
      <trkpt lat="46.86676" lon="6.42705">
        <ele>1167.5999755859</ele>
        <time>2023-05-15T11:10:44.000Z</time>
      </trkpt>
      <trkpt lat="46.86675" lon="6.4271">
        <ele>1168</ele>
        <time>2023-05-15T11:10:46.000Z</time>
      </trkpt>
      <trkpt lat="46.86669" lon="6.42725">
        <ele>1169.1999511719</ele>
        <time>2023-05-15T11:10:52.000Z</time>
      </trkpt>
      <trkpt lat="46.86661" lon="6.42739">
        <ele>1170.1999511719</ele>
        <time>2023-05-15T11:10:59.000Z</time>
      </trkpt>
      <trkpt lat="46.86658" lon="6.42746">
        <ele>1170.8000488281</ele>
        <time>2023-05-15T11:11:02.000Z</time>
      </trkpt>
      <trkpt lat="46.86656" lon="6.42751">
        <ele>1171.4000244141</ele>
        <time>2023-05-15T11:11:04.000Z</time>
      </trkpt>
      <trkpt lat="46.86654" lon="6.4276">
        <ele>1172.1999511719</ele>
        <time>2023-05-15T11:11:08.000Z</time>
      </trkpt>
      <trkpt lat="46.86653" lon="6.42765">
        <ele>1172.4000244141</ele>
        <time>2023-05-15T11:11:10.000Z</time>
      </trkpt>
      <trkpt lat="46.86652" lon="6.42776">
        <ele>1173.1999511719</ele>
        <time>2023-05-15T11:11:15.000Z</time>
      </trkpt>
      <trkpt lat="46.86651" lon="6.4278">
        <ele>1173.5999755859</ele>
        <time>2023-05-15T11:11:17.000Z</time>
      </trkpt>
      <trkpt lat="46.86648" lon="6.42793">
        <ele>1174</ele>
        <time>2023-05-15T11:11:23.000Z</time>
      </trkpt>
      <trkpt lat="46.86645" lon="6.428">
        <ele>1174.5999755859</ele>
        <time>2023-05-15T11:11:27.000Z</time>
      </trkpt>
      <trkpt lat="46.86641" lon="6.42808">
        <ele>1175</ele>
        <time>2023-05-15T11:11:32.000Z</time>
      </trkpt>
      <trkpt lat="46.86636" lon="6.42819">
        <ele>1175.5999755859</ele>
        <time>2023-05-15T11:11:38.000Z</time>
      </trkpt>
      <trkpt lat="46.86633" lon="6.4283">
        <ele>1176.1999511719</ele>
        <time>2023-05-15T11:11:43.000Z</time>
      </trkpt>
      <trkpt lat="46.86631" lon="6.42837">
        <ele>1176.8000488281</ele>
        <time>2023-05-15T11:11:46.000Z</time>
      </trkpt>
      <trkpt lat="46.86628" lon="6.42848">
        <ele>1177.5999755859</ele>
        <time>2023-05-15T11:11:51.000Z</time>
      </trkpt>
      <trkpt lat="46.86628" lon="6.4285">
        <ele>1177.8000488281</ele>
        <time>2023-05-15T11:11:52.000Z</time>
      </trkpt>
      <trkpt lat="46.86627" lon="6.42864">
        <ele>1179</ele>
        <time>2023-05-15T11:11:58.000Z</time>
      </trkpt>
      <trkpt lat="46.86626" lon="6.42869">
        <ele>1179.1999511719</ele>
        <time>2023-05-15T11:12:00.000Z</time>
      </trkpt>
      <trkpt lat="46.86624" lon="6.42875">
        <ele>1179.8000488281</ele>
        <time>2023-05-15T11:12:03.000Z</time>
      </trkpt>
      <trkpt lat="46.86623" lon="6.42877">
        <ele>1179.8000488281</ele>
        <time>2023-05-15T11:12:04.000Z</time>
      </trkpt>
      <trkpt lat="46.86622" lon="6.42884">
        <ele>1180.1999511719</ele>
        <time>2023-05-15T11:12:07.000Z</time>
      </trkpt>
      <trkpt lat="46.86618" lon="6.42894">
        <ele>1180.5999755859</ele>
        <time>2023-05-15T11:12:12.000Z</time>
      </trkpt>
      <trkpt lat="46.86615" lon="6.42904">
        <ele>1181.1999511719</ele>
        <time>2023-05-15T11:12:17.000Z</time>
      </trkpt>
      <trkpt lat="46.86611" lon="6.4291">
        <ele>1181.5999755859</ele>
        <time>2023-05-15T11:12:20.000Z</time>
      </trkpt>
      <trkpt lat="46.86605" lon="6.42918">
        <ele>1182.4000244141</ele>
        <time>2023-05-15T11:12:25.000Z</time>
      </trkpt>
      <trkpt lat="46.86603" lon="6.42919">
        <ele>1182.4000244141</ele>
        <time>2023-05-15T11:12:26.000Z</time>
      </trkpt>
      <trkpt lat="46.86593" lon="6.42929">
        <ele>1183.4000244141</ele>
        <time>2023-05-15T11:12:33.000Z</time>
      </trkpt>
      <trkpt lat="46.86592" lon="6.4293">
        <ele>1183.4000244141</ele>
        <time>2023-05-15T11:12:34.000Z</time>
      </trkpt>
      <trkpt lat="46.86583" lon="6.42935">
        <ele>1184</ele>
        <time>2023-05-15T11:12:40.000Z</time>
      </trkpt>
      <trkpt lat="46.86574" lon="6.42939">
        <ele>1184.4000244141</ele>
        <time>2023-05-15T11:12:45.000Z</time>
      </trkpt>
      <trkpt lat="46.86568" lon="6.42943">
        <ele>1185</ele>
        <time>2023-05-15T11:12:49.000Z</time>
      </trkpt>
      <trkpt lat="46.86559" lon="6.42945">
        <ele>1185.5999755859</ele>
        <time>2023-05-15T11:12:55.000Z</time>
      </trkpt>
      <trkpt lat="46.86558" lon="6.42945">
        <ele>1185.8000488281</ele>
        <time>2023-05-15T11:12:56.000Z</time>
      </trkpt>
      <trkpt lat="46.8655" lon="6.42944">
        <ele>1186.8000488281</ele>
        <time>2023-05-15T11:13:01.000Z</time>
      </trkpt>
      <trkpt lat="46.86545" lon="6.42944">
        <ele>1187.1999511719</ele>
        <time>2023-05-15T11:13:04.000Z</time>
      </trkpt>
      <trkpt lat="46.86539" lon="6.4295">
        <ele>1187.8000488281</ele>
        <time>2023-05-15T11:13:08.000Z</time>
      </trkpt>
      <trkpt lat="46.86538" lon="6.42952">
        <ele>1188</ele>
        <time>2023-05-15T11:13:10.000Z</time>
      </trkpt>
      <trkpt lat="46.86536" lon="6.42953">
        <ele>1188.1999511719</ele>
        <time>2023-05-15T11:13:11.000Z</time>
      </trkpt>
      <trkpt lat="46.86532" lon="6.42955">
        <ele>1189</ele>
        <time>2023-05-15T11:13:14.000Z</time>
      </trkpt>
      <trkpt lat="46.86527" lon="6.4296">
        <ele>1189.4000244141</ele>
        <time>2023-05-15T11:13:17.000Z</time>
      </trkpt>
      <trkpt lat="46.86523" lon="6.42965">
        <ele>1190</ele>
        <time>2023-05-15T11:13:20.000Z</time>
      </trkpt>
      <trkpt lat="46.8652" lon="6.42967">
        <ele>1190.5999755859</ele>
        <time>2023-05-15T11:13:22.000Z</time>
      </trkpt>
      <trkpt lat="46.86517" lon="6.42969">
        <ele>1191</ele>
        <time>2023-05-15T11:13:24.000Z</time>
      </trkpt>
      <trkpt lat="46.86515" lon="6.42969">
        <ele>1191.1999511719</ele>
        <time>2023-05-15T11:13:25.000Z</time>
      </trkpt>
      <trkpt lat="46.86505" lon="6.42974">
        <ele>1192.4000244141</ele>
        <time>2023-05-15T11:13:30.000Z</time>
      </trkpt>
      <trkpt lat="46.86503" lon="6.42976">
        <ele>1192.4000244141</ele>
        <time>2023-05-15T11:13:31.000Z</time>
      </trkpt>
      <trkpt lat="46.86492" lon="6.42983">
        <ele>1193.1999511719</ele>
        <time>2023-05-15T11:13:38.000Z</time>
      </trkpt>
      <trkpt lat="46.86488" lon="6.42985">
        <ele>1193.4000244141</ele>
        <time>2023-05-15T11:13:40.000Z</time>
      </trkpt>
      <trkpt lat="46.86474" lon="6.42983">
        <ele>1194</ele>
        <time>2023-05-15T11:13:47.000Z</time>
      </trkpt>
      <trkpt lat="46.8647" lon="6.42989">
        <ele>1194.1999511719</ele>
        <time>2023-05-15T11:13:50.000Z</time>
      </trkpt>
      <trkpt lat="46.86469" lon="6.42991">
        <ele>1194.4000244141</ele>
        <time>2023-05-15T11:13:51.000Z</time>
      </trkpt>
      <trkpt lat="46.86468" lon="6.42993">
        <ele>1194.5999755859</ele>
        <time>2023-05-15T11:13:52.000Z</time>
      </trkpt>
      <trkpt lat="46.86462" lon="6.42992">
        <ele>1195</ele>
        <time>2023-05-15T11:13:55.000Z</time>
      </trkpt>
      <trkpt lat="46.86457" lon="6.42991">
        <ele>1195.1999511719</ele>
        <time>2023-05-15T11:13:57.000Z</time>
      </trkpt>
      <trkpt lat="46.86447" lon="6.42991">
        <ele>1195.4000244141</ele>
        <time>2023-05-15T11:14:04.000Z</time>
      </trkpt>
      <trkpt lat="46.86433" lon="6.42986">
        <ele>1195.4000244141</ele>
        <time>2023-05-15T11:14:14.000Z</time>
      </trkpt>
      <trkpt lat="46.86422" lon="6.42977">
        <ele>1195.1999511719</ele>
        <time>2023-05-15T11:14:20.000Z</time>
      </trkpt>
      <trkpt lat="46.8641" lon="6.42971">
        <ele>1194.5999755859</ele>
        <time>2023-05-15T11:14:26.000Z</time>
      </trkpt>
      <trkpt lat="46.86408" lon="6.4297">
        <ele>1194.4000244141</ele>
        <time>2023-05-15T11:14:27.000Z</time>
      </trkpt>
      <trkpt lat="46.86405" lon="6.42969">
        <ele>1194.1999511719</ele>
        <time>2023-05-15T11:14:28.000Z</time>
      </trkpt>
      <trkpt lat="46.86389" lon="6.42966">
        <ele>1193.8000488281</ele>
        <time>2023-05-15T11:14:35.000Z</time>
      </trkpt>
      <trkpt lat="46.86372" lon="6.42961">
        <ele>1193.8000488281</ele>
        <time>2023-05-15T11:14:42.000Z</time>
      </trkpt>
      <trkpt lat="46.86358" lon="6.42958">
        <ele>1193.5999755859</ele>
        <time>2023-05-15T11:14:48.000Z</time>
      </trkpt>
      <trkpt lat="46.86343" lon="6.42943">
        <ele>1194.8000488281</ele>
        <time>2023-05-15T11:14:56.000Z</time>
      </trkpt>
      <trkpt lat="46.86336" lon="6.4293">
        <ele>1195.8000488281</ele>
        <time>2023-05-15T11:15:01.000Z</time>
      </trkpt>
      <trkpt lat="46.86334" lon="6.42924">
        <ele>1196</ele>
        <time>2023-05-15T11:15:03.000Z</time>
      </trkpt>
      <trkpt lat="46.86329" lon="6.42911">
        <ele>1196.8000488281</ele>
        <time>2023-05-15T11:15:07.000Z</time>
      </trkpt>
      <trkpt lat="46.86324" lon="6.42904">
        <ele>1197.1999511719</ele>
        <time>2023-05-15T11:15:11.000Z</time>
      </trkpt>
      <trkpt lat="46.86318" lon="6.429">
        <ele>1197.5999755859</ele>
        <time>2023-05-15T11:15:15.000Z</time>
      </trkpt>
      <trkpt lat="46.86309" lon="6.42896">
        <ele>1197.8000488281</ele>
        <time>2023-05-15T11:15:19.000Z</time>
      </trkpt>
      <trkpt lat="46.86291" lon="6.42885">
        <ele>1198.1999511719</ele>
        <time>2023-05-15T11:15:28.000Z</time>
      </trkpt>
      <trkpt lat="46.8627" lon="6.42874">
        <ele>1198.1999511719</ele>
        <time>2023-05-15T11:15:38.000Z</time>
      </trkpt>
      <trkpt lat="46.86253" lon="6.42865">
        <ele>1197.1999511719</ele>
        <time>2023-05-15T11:15:47.000Z</time>
      </trkpt>
      <trkpt lat="46.86245" lon="6.42864">
        <ele>1196.8000488281</ele>
        <time>2023-05-15T11:15:51.000Z</time>
      </trkpt>
      <trkpt lat="46.86237" lon="6.42862">
        <ele>1196.5999755859</ele>
        <time>2023-05-15T11:15:55.000Z</time>
      </trkpt>
      <trkpt lat="46.86224" lon="6.42871">
        <ele>1196.4000244141</ele>
        <time>2023-05-15T11:16:01.000Z</time>
      </trkpt>
      <trkpt lat="46.86216" lon="6.42878">
        <ele>1196.4000244141</ele>
        <time>2023-05-15T11:16:04.000Z</time>
      </trkpt>
      <trkpt lat="46.8621" lon="6.42879">
        <ele>1196.5999755859</ele>
        <time>2023-05-15T11:16:06.000Z</time>
      </trkpt>
      <trkpt lat="46.86192" lon="6.42881">
        <ele>1196.4000244141</ele>
        <time>2023-05-15T11:16:11.000Z</time>
      </trkpt>
      <trkpt lat="46.86179" lon="6.42883">
        <ele>1196.4000244141</ele>
        <time>2023-05-15T11:16:16.000Z</time>
      </trkpt>
      <trkpt lat="46.86161" lon="6.4289">
        <ele>1196.5999755859</ele>
        <time>2023-05-15T11:16:22.000Z</time>
      </trkpt>
      <trkpt lat="46.86142" lon="6.42902">
        <ele>1197.4000244141</ele>
        <time>2023-05-15T11:16:28.000Z</time>
      </trkpt>
      <trkpt lat="46.86136" lon="6.42906">
        <ele>1198</ele>
        <time>2023-05-15T11:16:30.000Z</time>
      </trkpt>
      <trkpt lat="46.86125" lon="6.42919">
        <ele>1198.8000488281</ele>
        <time>2023-05-15T11:16:35.000Z</time>
      </trkpt>
      <trkpt lat="46.86105" lon="6.42943">
        <ele>1198.8000488281</ele>
        <time>2023-05-15T11:16:42.000Z</time>
      </trkpt>
      <trkpt lat="46.86091" lon="6.42945">
        <ele>1198.4000244141</ele>
        <time>2023-05-15T11:16:46.000Z</time>
      </trkpt>
      <trkpt lat="46.86085" lon="6.42941">
        <ele>1198.1999511719</ele>
        <time>2023-05-15T11:16:48.000Z</time>
      </trkpt>
      <trkpt lat="46.86083" lon="6.42934">
        <ele>1198.1999511719</ele>
        <time>2023-05-15T11:16:50.000Z</time>
      </trkpt>
      <trkpt lat="46.86082" lon="6.42929">
        <ele>1198.1999511719</ele>
        <time>2023-05-15T11:16:51.000Z</time>
      </trkpt>
      <trkpt lat="46.86082" lon="6.42913">
        <ele>1198.4000244141</ele>
        <time>2023-05-15T11:16:54.000Z</time>
      </trkpt>
      <trkpt lat="46.86088" lon="6.42895">
        <ele>1199</ele>
        <time>2023-05-15T11:16:58.000Z</time>
      </trkpt>
      <trkpt lat="46.86091" lon="6.42887">
        <ele>1199.5999755859</ele>
        <time>2023-05-15T11:17:00.000Z</time>
      </trkpt>
      <trkpt lat="46.86094" lon="6.4288">
        <ele>1200.4000244141</ele>
        <time>2023-05-15T11:17:02.000Z</time>
      </trkpt>
      <trkpt lat="46.86096" lon="6.42871">
        <ele>1201.5999755859</ele>
        <time>2023-05-15T11:17:04.000Z</time>
      </trkpt>
      <trkpt lat="46.86097" lon="6.42869">
        <ele>1202</ele>
        <time>2023-05-15T11:17:05.000Z</time>
      </trkpt>
      <trkpt lat="46.86098" lon="6.42865">
        <ele>1202.5999755859</ele>
        <time>2023-05-15T11:17:06.000Z</time>
      </trkpt>
      <trkpt lat="46.86102" lon="6.42856">
        <ele>1203.8000488281</ele>
        <time>2023-05-15T11:17:09.000Z</time>
      </trkpt>
      <trkpt lat="46.86104" lon="6.4285">
        <ele>1204.8000488281</ele>
        <time>2023-05-15T11:17:11.000Z</time>
      </trkpt>
      <trkpt lat="46.86107" lon="6.42843">
        <ele>1205.4000244141</ele>
        <time>2023-05-15T11:17:13.000Z</time>
      </trkpt>
      <trkpt lat="46.86111" lon="6.42834">
        <ele>1206</ele>
        <time>2023-05-15T11:17:16.000Z</time>
      </trkpt>
      <trkpt lat="46.86112" lon="6.42818">
        <ele>1207</ele>
        <time>2023-05-15T11:17:21.000Z</time>
      </trkpt>
      <trkpt lat="46.86112" lon="6.42814">
        <ele>1207.1999511719</ele>
        <time>2023-05-15T11:17:22.000Z</time>
      </trkpt>
      <trkpt lat="46.86112" lon="6.42811">
        <ele>1207.4000244141</ele>
        <time>2023-05-15T11:17:23.000Z</time>
      </trkpt>
      <trkpt lat="46.86109" lon="6.42804">
        <ele>1207.8000488281</ele>
        <time>2023-05-15T11:17:26.000Z</time>
      </trkpt>
      <trkpt lat="46.86104" lon="6.42802">
        <ele>1208.1999511719</ele>
        <time>2023-05-15T11:17:29.000Z</time>
      </trkpt>
      <trkpt lat="46.861" lon="6.42803">
        <ele>1208.4000244141</ele>
        <time>2023-05-15T11:17:31.000Z</time>
      </trkpt>
      <trkpt lat="46.86088" lon="6.42808">
        <ele>1209.1999511719</ele>
        <time>2023-05-15T11:17:38.000Z</time>
      </trkpt>
      <trkpt lat="46.86086" lon="6.42811">
        <ele>1209.4000244141</ele>
        <time>2023-05-15T11:17:40.000Z</time>
      </trkpt>
      <trkpt lat="46.86077" lon="6.42818">
        <ele>1210.1999511719</ele>
        <time>2023-05-15T11:17:47.000Z</time>
      </trkpt>
      <trkpt lat="46.86075" lon="6.42821">
        <ele>1210.5999755859</ele>
        <time>2023-05-15T11:17:49.000Z</time>
      </trkpt>
      <trkpt lat="46.86068" lon="6.42829">
        <ele>1211.5999755859</ele>
        <time>2023-05-15T11:17:56.000Z</time>
      </trkpt>
      <trkpt lat="46.86066" lon="6.4283">
        <ele>1211.8000488281</ele>
        <time>2023-05-15T11:17:57.000Z</time>
      </trkpt>
      <trkpt lat="46.86063" lon="6.42834">
        <ele>1212.4000244141</ele>
        <time>2023-05-15T11:18:00.000Z</time>
      </trkpt>
      <trkpt lat="46.86058" lon="6.42841">
        <ele>1213</ele>
        <time>2023-05-15T11:18:04.000Z</time>
      </trkpt>
      <trkpt lat="46.86051" lon="6.42847">
        <ele>1213.8000488281</ele>
        <time>2023-05-15T11:18:10.000Z</time>
      </trkpt>
      <trkpt lat="46.8605" lon="6.42849">
        <ele>1214</ele>
        <time>2023-05-15T11:18:11.000Z</time>
      </trkpt>
      <trkpt lat="46.8604" lon="6.42852">
        <ele>1215.1999511719</ele>
        <time>2023-05-15T11:18:17.000Z</time>
      </trkpt>
      <trkpt lat="46.86039" lon="6.42852">
        <ele>1215.4000244141</ele>
        <time>2023-05-15T11:18:18.000Z</time>
      </trkpt>
      <trkpt lat="46.86027" lon="6.42847">
        <ele>1216.1999511719</ele>
        <time>2023-05-15T11:18:25.000Z</time>
      </trkpt>
      <trkpt lat="46.86017" lon="6.42832">
        <ele>1216.8000488281</ele>
        <time>2023-05-15T11:18:33.000Z</time>
      </trkpt>
      <trkpt lat="46.86009" lon="6.42817">
        <ele>1217.1999511719</ele>
        <time>2023-05-15T11:18:39.000Z</time>
      </trkpt>
      <trkpt lat="46.86003" lon="6.42805">
        <ele>1217.4000244141</ele>
        <time>2023-05-15T11:18:42.000Z</time>
      </trkpt>
      <trkpt lat="46.85988" lon="6.42788">
        <ele>1217</ele>
        <time>2023-05-15T11:18:47.000Z</time>
      </trkpt>
      <trkpt lat="46.85978" lon="6.42783">
        <ele>1216.5999755859</ele>
        <time>2023-05-15T11:18:52.000Z</time>
      </trkpt>
      <trkpt lat="46.85965" lon="6.42781">
        <ele>1216.4000244141</ele>
        <time>2023-05-15T11:18:58.000Z</time>
      </trkpt>
      <trkpt lat="46.85949" lon="6.42773">
        <ele>1216.4000244141</ele>
        <time>2023-05-15T11:19:03.000Z</time>
      </trkpt>
      <trkpt lat="46.85942" lon="6.4277">
        <ele>1216.1999511719</ele>
        <time>2023-05-15T11:19:05.000Z</time>
      </trkpt>
      <trkpt lat="46.85931" lon="6.42767">
        <ele>1216</ele>
        <time>2023-05-15T11:19:08.000Z</time>
      </trkpt>
      <trkpt lat="46.85921" lon="6.42763">
        <ele>1215.8000488281</ele>
        <time>2023-05-15T11:19:10.000Z</time>
      </trkpt>
      <trkpt lat="46.85911" lon="6.42761">
        <ele>1215.5999755859</ele>
        <time>2023-05-15T11:19:12.000Z</time>
      </trkpt>
      <trkpt lat="46.85899" lon="6.42762">
        <ele>1215.1999511719</ele>
        <time>2023-05-15T11:19:14.000Z</time>
      </trkpt>
      <trkpt lat="46.85893" lon="6.42763">
        <ele>1215</ele>
        <time>2023-05-15T11:19:15.000Z</time>
      </trkpt>
      <trkpt lat="46.85886" lon="6.42767">
        <ele>1214</ele>
        <time>2023-05-15T11:19:16.000Z</time>
      </trkpt>
      <trkpt lat="46.85866" lon="6.42777">
        <ele>1213.1999511719</ele>
        <time>2023-05-15T11:19:19.000Z</time>
      </trkpt>
      <trkpt lat="46.85859" lon="6.42778">
        <ele>1212.5999755859</ele>
        <time>2023-05-15T11:19:20.000Z</time>
      </trkpt>
      <trkpt lat="46.85849" lon="6.42784">
        <ele>1211.8000488281</ele>
        <time>2023-05-15T11:19:22.000Z</time>
      </trkpt>
      <trkpt lat="46.85846" lon="6.42786">
        <ele>1211.5999755859</ele>
        <time>2023-05-15T11:19:23.000Z</time>
      </trkpt>
      <trkpt lat="46.85842" lon="6.42789">
        <ele>1211</ele>
        <time>2023-05-15T11:19:24.000Z</time>
      </trkpt>
      <trkpt lat="46.85833" lon="6.42797">
        <ele>1210.4000244141</ele>
        <time>2023-05-15T11:19:27.000Z</time>
      </trkpt>
      <trkpt lat="46.85818" lon="6.42806">
        <ele>1209.8000488281</ele>
        <time>2023-05-15T11:19:31.000Z</time>
      </trkpt>
      <trkpt lat="46.8581" lon="6.42805">
        <ele>1209.8000488281</ele>
        <time>2023-05-15T11:19:32.000Z</time>
      </trkpt>
      <trkpt lat="46.85792" lon="6.42799">
        <ele>1209.5999755859</ele>
        <time>2023-05-15T11:19:37.000Z</time>
      </trkpt>
      <trkpt lat="46.85786" lon="6.42793">
        <ele>1209.4000244141</ele>
        <time>2023-05-15T11:19:38.000Z</time>
      </trkpt>
      <trkpt lat="46.85781" lon="6.42791">
        <ele>1209.1999511719</ele>
        <time>2023-05-15T11:19:39.000Z</time>
      </trkpt>
      <trkpt lat="46.8577" lon="6.42791">
        <ele>1208.4000244141</ele>
        <time>2023-05-15T11:19:41.000Z</time>
      </trkpt>
      <trkpt lat="46.85765" lon="6.42795">
        <ele>1208.1999511719</ele>
        <time>2023-05-15T11:19:42.000Z</time>
      </trkpt>
      <trkpt lat="46.8576" lon="6.428">
        <ele>1207.8000488281</ele>
        <time>2023-05-15T11:19:43.000Z</time>
      </trkpt>
      <trkpt lat="46.85751" lon="6.42812">
        <ele>1206.8000488281</ele>
        <time>2023-05-15T11:19:45.000Z</time>
      </trkpt>
      <trkpt lat="46.85742" lon="6.42822">
        <ele>1206.1999511719</ele>
        <time>2023-05-15T11:19:47.000Z</time>
      </trkpt>
      <trkpt lat="46.85734" lon="6.42829">
        <ele>1205.4000244141</ele>
        <time>2023-05-15T11:19:49.000Z</time>
      </trkpt>
      <trkpt lat="46.85731" lon="6.42831">
        <ele>1205.1999511719</ele>
        <time>2023-05-15T11:19:50.000Z</time>
      </trkpt>
      <trkpt lat="46.85724" lon="6.42834">
        <ele>1205.1999511719</ele>
        <time>2023-05-15T11:19:53.000Z</time>
      </trkpt>
      <trkpt lat="46.85722" lon="6.42835">
        <ele>1205.1999511719</ele>
        <time>2023-05-15T11:19:54.000Z</time>
      </trkpt>
      <trkpt lat="46.85707" lon="6.42851">
        <ele>1205.1999511719</ele>
        <time>2023-05-15T11:19:58.000Z</time>
      </trkpt>
      <trkpt lat="46.85688" lon="6.42875">
        <ele>1205</ele>
        <time>2023-05-15T11:20:03.000Z</time>
      </trkpt>
      <trkpt lat="46.85681" lon="6.42884">
        <ele>1204.8000488281</ele>
        <time>2023-05-15T11:20:05.000Z</time>
      </trkpt>
      <trkpt lat="46.8567" lon="6.42899">
        <ele>1204.4000244141</ele>
        <time>2023-05-15T11:20:08.000Z</time>
      </trkpt>
      <trkpt lat="46.85661" lon="6.4291">
        <ele>1204</ele>
        <time>2023-05-15T11:20:10.000Z</time>
      </trkpt>
      <trkpt lat="46.85655" lon="6.42917">
        <ele>1204</ele>
        <time>2023-05-15T11:20:11.000Z</time>
      </trkpt>
      <trkpt lat="46.85649" lon="6.4292">
        <ele>1203.4000244141</ele>
        <time>2023-05-15T11:20:12.000Z</time>
      </trkpt>
      <trkpt lat="46.8564" lon="6.42919">
        <ele>1202.4000244141</ele>
        <time>2023-05-15T11:20:14.000Z</time>
      </trkpt>
      <trkpt lat="46.85636" lon="6.42916">
        <ele>1202</ele>
        <time>2023-05-15T11:20:15.000Z</time>
      </trkpt>
      <trkpt lat="46.85629" lon="6.42906">
        <ele>1201.5999755859</ele>
        <time>2023-05-15T11:20:18.000Z</time>
      </trkpt>
      <trkpt lat="46.85606" lon="6.42883">
        <ele>1200.8000488281</ele>
        <time>2023-05-15T11:20:24.000Z</time>
      </trkpt>
      <trkpt lat="46.85582" lon="6.42863">
        <ele>1200</ele>
        <time>2023-05-15T11:20:31.000Z</time>
      </trkpt>
      <trkpt lat="46.85566" lon="6.42853">
        <ele>1199.8000488281</ele>
        <time>2023-05-15T11:20:35.000Z</time>
      </trkpt>
      <trkpt lat="46.8555" lon="6.42841">
        <ele>1199.8000488281</ele>
        <time>2023-05-15T11:20:39.000Z</time>
      </trkpt>
      <trkpt lat="46.8552" lon="6.42819">
        <ele>1199.5999755859</ele>
        <time>2023-05-15T11:20:46.000Z</time>
      </trkpt>
      <trkpt lat="46.85483" lon="6.42791">
        <ele>1198.8000488281</ele>
        <time>2023-05-15T11:20:53.000Z</time>
      </trkpt>
      <trkpt lat="46.85453" lon="6.42766">
        <ele>1197.5999755859</ele>
        <time>2023-05-15T11:20:59.000Z</time>
      </trkpt>
      <trkpt lat="46.85441" lon="6.42756">
        <ele>1197</ele>
        <time>2023-05-15T11:21:02.000Z</time>
      </trkpt>
      <trkpt lat="46.85436" lon="6.42753">
        <ele>1196.8000488281</ele>
        <time>2023-05-15T11:21:03.000Z</time>
      </trkpt>
      <trkpt lat="46.85428" lon="6.42747">
        <ele>1196.5999755859</ele>
        <time>2023-05-15T11:21:05.000Z</time>
      </trkpt>
      <trkpt lat="46.85403" lon="6.42728">
        <ele>1196.1999511719</ele>
        <time>2023-05-15T11:21:09.000Z</time>
      </trkpt>
      <trkpt lat="46.8539" lon="6.42719">
        <ele>1195.5999755859</ele>
        <time>2023-05-15T11:21:11.000Z</time>
      </trkpt>
      <trkpt lat="46.85382" lon="6.42716">
        <ele>1195.5999755859</ele>
        <time>2023-05-15T11:21:12.000Z</time>
      </trkpt>
      <trkpt lat="46.85372" lon="6.42713">
        <ele>1194.5999755859</ele>
        <time>2023-05-15T11:21:13.000Z</time>
      </trkpt>
      <trkpt lat="46.85364" lon="6.42712">
        <ele>1193.5999755859</ele>
        <time>2023-05-15T11:21:14.000Z</time>
      </trkpt>
      <trkpt lat="46.85348" lon="6.42711">
        <ele>1192.4000244141</ele>
        <time>2023-05-15T11:21:16.000Z</time>
      </trkpt>
      <trkpt lat="46.85328" lon="6.42711">
        <ele>1191.4000244141</ele>
        <time>2023-05-15T11:21:18.000Z</time>
      </trkpt>
      <trkpt lat="46.85302" lon="6.42709">
        <ele>1190.1999511719</ele>
        <time>2023-05-15T11:21:21.000Z</time>
      </trkpt>
      <trkpt lat="46.85284" lon="6.42706">
        <ele>1189</ele>
        <time>2023-05-15T11:21:23.000Z</time>
      </trkpt>
      <trkpt lat="46.8527" lon="6.42704">
        <ele>1188.4000244141</ele>
        <time>2023-05-15T11:21:25.000Z</time>
      </trkpt>
      <trkpt lat="46.85258" lon="6.42703">
        <ele>1187.5999755859</ele>
        <time>2023-05-15T11:21:27.000Z</time>
      </trkpt>
      <trkpt lat="46.85246" lon="6.42703">
        <ele>1186.8000488281</ele>
        <time>2023-05-15T11:21:29.000Z</time>
      </trkpt>
      <trkpt lat="46.85236" lon="6.42705">
        <ele>1186.5999755859</ele>
        <time>2023-05-15T11:21:31.000Z</time>
      </trkpt>
      <trkpt lat="46.85229" lon="6.42707">
        <ele>1186.1999511719</ele>
        <time>2023-05-15T11:21:32.000Z</time>
      </trkpt>
      <trkpt lat="46.85219" lon="6.42713">
        <ele>1185.4000244141</ele>
        <time>2023-05-15T11:21:34.000Z</time>
      </trkpt>
      <trkpt lat="46.85209" lon="6.42718">
        <ele>1184.8000488281</ele>
        <time>2023-05-15T11:21:36.000Z</time>
      </trkpt>
      <trkpt lat="46.85197" lon="6.42721">
        <ele>1184.4000244141</ele>
        <time>2023-05-15T11:21:38.000Z</time>
      </trkpt>
      <trkpt lat="46.85193" lon="6.42719">
        <ele>1184.4000244141</ele>
        <time>2023-05-15T11:21:39.000Z</time>
      </trkpt>
      <trkpt lat="46.8519" lon="6.42716">
        <ele>1184.4000244141</ele>
        <time>2023-05-15T11:21:40.000Z</time>
      </trkpt>
      <trkpt lat="46.85186" lon="6.42704">
        <ele>1184.1999511719</ele>
        <time>2023-05-15T11:21:42.000Z</time>
      </trkpt>
      <trkpt lat="46.85181" lon="6.42678">
        <ele>1184.4000244141</ele>
        <time>2023-05-15T11:21:46.000Z</time>
      </trkpt>
      <trkpt lat="46.85179" lon="6.42664">
        <ele>1184.8000488281</ele>
        <time>2023-05-15T11:21:48.000Z</time>
      </trkpt>
      <trkpt lat="46.85178" lon="6.42659">
        <ele>1185</ele>
        <time>2023-05-15T11:21:49.000Z</time>
      </trkpt>
      <trkpt lat="46.85176" lon="6.42654">
        <ele>1185.4000244141</ele>
        <time>2023-05-15T11:21:50.000Z</time>
      </trkpt>
      <trkpt lat="46.85172" lon="6.4264">
        <ele>1186.4000244141</ele>
        <time>2023-05-15T11:21:53.000Z</time>
      </trkpt>
      <trkpt lat="46.85172" lon="6.42636">
        <ele>1186.8000488281</ele>
        <time>2023-05-15T11:21:54.000Z</time>
      </trkpt>
      <trkpt lat="46.85167" lon="6.42621">
        <ele>1187.8000488281</ele>
        <time>2023-05-15T11:21:58.000Z</time>
      </trkpt>
      <trkpt lat="46.85163" lon="6.42611">
        <ele>1188.1999511719</ele>
        <time>2023-05-15T11:22:00.000Z</time>
      </trkpt>
      <trkpt lat="46.85156" lon="6.4259">
        <ele>1189</ele>
        <time>2023-05-15T11:22:05.000Z</time>
      </trkpt>
      <trkpt lat="46.85153" lon="6.42581">
        <ele>1189.1999511719</ele>
        <time>2023-05-15T11:22:07.000Z</time>
      </trkpt>
      <trkpt lat="46.85147" lon="6.42557">
        <ele>1190</ele>
        <time>2023-05-15T11:22:12.000Z</time>
      </trkpt>
      <trkpt lat="46.85143" lon="6.42541">
        <ele>1190.4000244141</ele>
        <time>2023-05-15T11:22:15.000Z</time>
      </trkpt>
      <trkpt lat="46.85141" lon="6.42528">
        <ele>1191</ele>
        <time>2023-05-15T11:22:18.000Z</time>
      </trkpt>
      <trkpt lat="46.85139" lon="6.42522">
        <ele>1191.1999511719</ele>
        <time>2023-05-15T11:22:20.000Z</time>
      </trkpt>
      <trkpt lat="46.85133" lon="6.42494">
        <ele>1191.5999755859</ele>
        <time>2023-05-15T11:22:28.000Z</time>
      </trkpt>
      <trkpt lat="46.85129" lon="6.42477">
        <ele>1191.4000244141</ele>
        <time>2023-05-15T11:22:35.000Z</time>
      </trkpt>
      <trkpt lat="46.85129" lon="6.42476">
        <ele>1191.1999511719</ele>
        <time>2023-05-15T11:22:37.000Z</time>
      </trkpt>
      <trkpt lat="46.85127" lon="6.4247">
        <ele>1190.5999755859</ele>
        <time>2023-05-15T11:25:23.000Z</time>
      </trkpt>
      <trkpt lat="46.85127" lon="6.42466">
        <ele>1190.8000488281</ele>
        <time>2023-05-15T11:25:24.000Z</time>
      </trkpt>
      <trkpt lat="46.85118" lon="6.4244">
        <ele>1190.8000488281</ele>
        <time>2023-05-15T11:25:30.000Z</time>
      </trkpt>
      <trkpt lat="46.85101" lon="6.42413">
        <ele>1190.4000244141</ele>
        <time>2023-05-15T11:25:36.000Z</time>
      </trkpt>
      <trkpt lat="46.8509" lon="6.42397">
        <ele>1190.1999511719</ele>
        <time>2023-05-15T11:25:39.000Z</time>
      </trkpt>
      <trkpt lat="46.85076" lon="6.42381">
        <ele>1189.5999755859</ele>
        <time>2023-05-15T11:25:42.000Z</time>
      </trkpt>
      <trkpt lat="46.85064" lon="6.42371">
        <ele>1188.8000488281</ele>
        <time>2023-05-15T11:25:44.000Z</time>
      </trkpt>
      <trkpt lat="46.85051" lon="6.42365">
        <ele>1188.1999511719</ele>
        <time>2023-05-15T11:25:46.000Z</time>
      </trkpt>
      <trkpt lat="46.85037" lon="6.4236">
        <ele>1187.8000488281</ele>
        <time>2023-05-15T11:25:48.000Z</time>
      </trkpt>
      <trkpt lat="46.85014" lon="6.42348">
        <ele>1186.8000488281</ele>
        <time>2023-05-15T11:25:51.000Z</time>
      </trkpt>
      <trkpt lat="46.85014" lon="6.42348">
        <ele>1186.1999511719</ele>
        <time>2023-05-15T11:25:52.000Z</time>
      </trkpt>
      <trkpt lat="46.84999" lon="6.42336">
        <ele>1185.5999755859</ele>
        <time>2023-05-15T11:25:53.000Z</time>
      </trkpt>
      <trkpt lat="46.84985" lon="6.42323">
        <ele>1184.1999511719</ele>
        <time>2023-05-15T11:25:55.000Z</time>
      </trkpt>
      <trkpt lat="46.84972" lon="6.42307">
        <ele>1183.1999511719</ele>
        <time>2023-05-15T11:25:57.000Z</time>
      </trkpt>
      <trkpt lat="46.84966" lon="6.42297">
        <ele>1183</ele>
        <time>2023-05-15T11:25:58.000Z</time>
      </trkpt>
      <trkpt lat="46.84952" lon="6.42265">
        <ele>1181.8000488281</ele>
        <time>2023-05-15T11:26:01.000Z</time>
      </trkpt>
      <trkpt lat="46.84947" lon="6.42254">
        <ele>1180.1999511719</ele>
        <time>2023-05-15T11:26:03.000Z</time>
      </trkpt>
      <trkpt lat="46.84938" lon="6.42231">
        <ele>1180</ele>
        <time>2023-05-15T11:26:04.000Z</time>
      </trkpt>
      <trkpt lat="46.84935" lon="6.4222">
        <ele>1179.1999511719</ele>
        <time>2023-05-15T11:26:05.000Z</time>
      </trkpt>
      <trkpt lat="46.84927" lon="6.42201">
        <ele>1178.1999511719</ele>
        <time>2023-05-15T11:26:07.000Z</time>
      </trkpt>
      <trkpt lat="46.84923" lon="6.42193">
        <ele>1177.4000244141</ele>
        <time>2023-05-15T11:26:08.000Z</time>
      </trkpt>
      <trkpt lat="46.84918" lon="6.42186">
        <ele>1177</ele>
        <time>2023-05-15T11:26:09.000Z</time>
      </trkpt>
      <trkpt lat="46.84912" lon="6.4218">
        <ele>1176.1999511719</ele>
        <time>2023-05-15T11:26:10.000Z</time>
      </trkpt>
      <trkpt lat="46.849" lon="6.42169">
        <ele>1175</ele>
        <time>2023-05-15T11:26:12.000Z</time>
      </trkpt>
      <trkpt lat="46.84886" lon="6.42158">
        <ele>1173.4000244141</ele>
        <time>2023-05-15T11:26:14.000Z</time>
      </trkpt>
      <trkpt lat="46.84878" lon="6.42152">
        <ele>1172.5999755859</ele>
        <time>2023-05-15T11:26:15.000Z</time>
      </trkpt>
      <trkpt lat="46.84871" lon="6.42145">
        <ele>1171.8000488281</ele>
        <time>2023-05-15T11:26:16.000Z</time>
      </trkpt>
      <trkpt lat="46.84856" lon="6.42131">
        <ele>1170.5999755859</ele>
        <time>2023-05-15T11:26:18.000Z</time>
      </trkpt>
      <trkpt lat="46.84856" lon="6.42131">
        <ele>1169.5999755859</ele>
        <time>2023-05-15T11:26:19.000Z</time>
      </trkpt>
      <trkpt lat="46.84833" lon="6.42107">
        <ele>1168.8000488281</ele>
        <time>2023-05-15T11:26:21.000Z</time>
      </trkpt>
      <trkpt lat="46.84826" lon="6.42099">
        <ele>1168.5999755859</ele>
        <time>2023-05-15T11:26:22.000Z</time>
      </trkpt>
      <trkpt lat="46.84818" lon="6.4209">
        <ele>1167.4000244141</ele>
        <time>2023-05-15T11:26:24.000Z</time>
      </trkpt>
      <trkpt lat="46.84803" lon="6.42069">
        <ele>1167.1999511719</ele>
        <time>2023-05-15T11:26:25.000Z</time>
      </trkpt>
      <trkpt lat="46.84796" lon="6.42058">
        <ele>1166.5999755859</ele>
        <time>2023-05-15T11:26:26.000Z</time>
      </trkpt>
      <trkpt lat="46.8479" lon="6.42047">
        <ele>1165.8000488281</ele>
        <time>2023-05-15T11:26:27.000Z</time>
      </trkpt>
      <trkpt lat="46.84777" lon="6.42025">
        <ele>1164.8000488281</ele>
        <time>2023-05-15T11:26:29.000Z</time>
      </trkpt>
      <trkpt lat="46.84764" lon="6.42004">
        <ele>1163.8000488281</ele>
        <time>2023-05-15T11:26:31.000Z</time>
      </trkpt>
      <trkpt lat="46.84758" lon="6.41994">
        <ele>1162.5999755859</ele>
        <time>2023-05-15T11:26:32.000Z</time>
      </trkpt>
      <trkpt lat="46.84752" lon="6.41984">
        <ele>1161.8000488281</ele>
        <time>2023-05-15T11:26:33.000Z</time>
      </trkpt>
      <trkpt lat="46.84746" lon="6.41974">
        <ele>1161.1999511719</ele>
        <time>2023-05-15T11:26:34.000Z</time>
      </trkpt>
      <trkpt lat="46.84733" lon="6.41954">
        <ele>1160</ele>
        <time>2023-05-15T11:26:36.000Z</time>
      </trkpt>
      <trkpt lat="46.84714" lon="6.41925">
        <ele>1158.5999755859</ele>
        <time>2023-05-15T11:26:39.000Z</time>
      </trkpt>
      <trkpt lat="46.847" lon="6.41905">
        <ele>1157.1999511719</ele>
        <time>2023-05-15T11:26:41.000Z</time>
      </trkpt>
      <trkpt lat="46.84686" lon="6.41885">
        <ele>1156.1999511719</ele>
        <time>2023-05-15T11:26:43.000Z</time>
      </trkpt>
      <trkpt lat="46.84668" lon="6.41859">
        <ele>1154.5999755859</ele>
        <time>2023-05-15T11:26:46.000Z</time>
      </trkpt>
      <trkpt lat="46.84661" lon="6.41852">
        <ele>1153.8000488281</ele>
        <time>2023-05-15T11:26:47.000Z</time>
      </trkpt>
      <trkpt lat="46.84655" lon="6.41846">
        <ele>1152.5999755859</ele>
        <time>2023-05-15T11:26:48.000Z</time>
      </trkpt>
      <trkpt lat="46.8464" lon="6.41836">
        <ele>1151</ele>
        <time>2023-05-15T11:26:51.000Z</time>
      </trkpt>
      <trkpt lat="46.84617" lon="6.41822">
        <ele>1149.8000488281</ele>
        <time>2023-05-15T11:26:53.000Z</time>
      </trkpt>
      <trkpt lat="46.84601" lon="6.41812">
        <ele>1148.1999511719</ele>
        <time>2023-05-15T11:26:55.000Z</time>
      </trkpt>
      <trkpt lat="46.84593" lon="6.41805">
        <ele>1147.8000488281</ele>
        <time>2023-05-15T11:26:56.000Z</time>
      </trkpt>
      <trkpt lat="46.84586" lon="6.41796">
        <ele>1147.1999511719</ele>
        <time>2023-05-15T11:26:57.000Z</time>
      </trkpt>
      <trkpt lat="46.84573" lon="6.41775">
        <ele>1146</ele>
        <time>2023-05-15T11:26:59.000Z</time>
      </trkpt>
      <trkpt lat="46.84564" lon="6.41751">
        <ele>1145</ele>
        <time>2023-05-15T11:27:01.000Z</time>
      </trkpt>
      <trkpt lat="46.84556" lon="6.41725">
        <ele>1144</ele>
        <time>2023-05-15T11:27:03.000Z</time>
      </trkpt>
      <trkpt lat="46.84551" lon="6.41713">
        <ele>1143.4000244141</ele>
        <time>2023-05-15T11:27:04.000Z</time>
      </trkpt>
      <trkpt lat="46.84543" lon="6.41688">
        <ele>1142.1999511719</ele>
        <time>2023-05-15T11:27:06.000Z</time>
      </trkpt>
      <trkpt lat="46.84534" lon="6.41665">
        <ele>1141.1999511719</ele>
        <time>2023-05-15T11:27:08.000Z</time>
      </trkpt>
      <trkpt lat="46.8452" lon="6.41632">
        <ele>1139.8000488281</ele>
        <time>2023-05-15T11:27:11.000Z</time>
      </trkpt>
      <trkpt lat="46.84509" lon="6.41612">
        <ele>1138.8000488281</ele>
        <time>2023-05-15T11:27:13.000Z</time>
      </trkpt>
      <trkpt lat="46.84493" lon="6.41585">
        <ele>1137.1999511719</ele>
        <time>2023-05-15T11:27:16.000Z</time>
      </trkpt>
      <trkpt lat="46.84484" lon="6.41566">
        <ele>1136.5999755859</ele>
        <time>2023-05-15T11:27:18.000Z</time>
      </trkpt>
      <trkpt lat="46.84476" lon="6.41544">
        <ele>1135.4000244141</ele>
        <time>2023-05-15T11:27:20.000Z</time>
      </trkpt>
      <trkpt lat="46.84472" lon="6.41509">
        <ele>1134.4000244141</ele>
        <time>2023-05-15T11:27:23.000Z</time>
      </trkpt>
      <trkpt lat="46.84472" lon="6.41497">
        <ele>1134</ele>
        <time>2023-05-15T11:27:24.000Z</time>
      </trkpt>
      <trkpt lat="46.84472" lon="6.41474">
        <ele>1133</ele>
        <time>2023-05-15T11:27:26.000Z</time>
      </trkpt>
      <trkpt lat="46.84473" lon="6.41441">
        <ele>1131.8000488281</ele>
        <time>2023-05-15T11:27:29.000Z</time>
      </trkpt>
      <trkpt lat="46.84472" lon="6.41431">
        <ele>1131.4000244141</ele>
        <time>2023-05-15T11:27:31.000Z</time>
      </trkpt>
      <trkpt lat="46.84469" lon="6.41411">
        <ele>1131.1999511719</ele>
        <time>2023-05-15T11:27:32.000Z</time>
      </trkpt>
      <trkpt lat="46.84463" lon="6.41392">
        <ele>1130.4000244141</ele>
        <time>2023-05-15T11:27:34.000Z</time>
      </trkpt>
      <trkpt lat="46.84441" lon="6.41356">
        <ele>1129.1999511719</ele>
        <time>2023-05-15T11:27:39.000Z</time>
      </trkpt>
      <trkpt lat="46.84418" lon="6.41328">
        <ele>1128</ele>
        <time>2023-05-15T11:27:43.000Z</time>
      </trkpt>
      <trkpt lat="46.84388" lon="6.41291">
        <ele>1127</ele>
        <time>2023-05-15T11:27:48.000Z</time>
      </trkpt>
      <trkpt lat="46.84371" lon="6.41268">
        <ele>1126</ele>
        <time>2023-05-15T11:27:51.000Z</time>
      </trkpt>
      <trkpt lat="46.84354" lon="6.41246">
        <ele>1124.8000488281</ele>
        <time>2023-05-15T11:27:54.000Z</time>
      </trkpt>
      <trkpt lat="46.84333" lon="6.41219">
        <ele>1123.4000244141</ele>
        <time>2023-05-15T11:27:58.000Z</time>
      </trkpt>
      <trkpt lat="46.84309" lon="6.41188">
        <ele>1122.1999511719</ele>
        <time>2023-05-15T11:28:03.000Z</time>
      </trkpt>
      <trkpt lat="46.84296" lon="6.41171">
        <ele>1121.8000488281</ele>
        <time>2023-05-15T11:28:06.000Z</time>
      </trkpt>
      <trkpt lat="46.84278" lon="6.41153">
        <ele>1121.4000244141</ele>
        <time>2023-05-15T11:28:10.000Z</time>
      </trkpt>
      <trkpt lat="46.84274" lon="6.41149">
        <ele>1121.1999511719</ele>
        <time>2023-05-15T11:28:11.000Z</time>
      </trkpt>
      <trkpt lat="46.84267" lon="6.41142">
        <ele>1121</ele>
        <time>2023-05-15T11:28:13.000Z</time>
      </trkpt>
      <trkpt lat="46.84243" lon="6.41121">
        <ele>1120.8000488281</ele>
        <time>2023-05-15T11:28:20.000Z</time>
      </trkpt>
      <trkpt lat="46.84239" lon="6.41118">
        <ele>1120.8000488281</ele>
        <time>2023-05-15T11:28:21.000Z</time>
      </trkpt>
      <trkpt lat="46.84217" lon="6.41096">
        <ele>1120.5999755859</ele>
        <time>2023-05-15T11:28:26.000Z</time>
      </trkpt>
      <trkpt lat="46.84198" lon="6.41075">
        <ele>1120.1999511719</ele>
        <time>2023-05-15T11:28:30.000Z</time>
      </trkpt>
      <trkpt lat="46.84182" lon="6.41057">
        <ele>1119.5999755859</ele>
        <time>2023-05-15T11:28:34.000Z</time>
      </trkpt>
      <trkpt lat="46.84168" lon="6.4104">
        <ele>1119.1999511719</ele>
        <time>2023-05-15T11:28:38.000Z</time>
      </trkpt>
      <trkpt lat="46.84165" lon="6.41037">
        <ele>1119</ele>
        <time>2023-05-15T11:28:39.000Z</time>
      </trkpt>
      <trkpt lat="46.84134" lon="6.41005">
        <ele>1118.5999755859</ele>
        <time>2023-05-15T11:28:48.000Z</time>
      </trkpt>
      <trkpt lat="46.84122" lon="6.40995">
        <ele>1118.1999511719</ele>
        <time>2023-05-15T11:28:51.000Z</time>
      </trkpt>
      <trkpt lat="46.84114" lon="6.40987">
        <ele>1118</ele>
        <time>2023-05-15T11:28:53.000Z</time>
      </trkpt>
      <trkpt lat="46.84098" lon="6.4097">
        <ele>1117.4000244141</ele>
        <time>2023-05-15T11:28:57.000Z</time>
      </trkpt>
      <trkpt lat="46.84076" lon="6.40949">
        <ele>1116.8000488281</ele>
        <time>2023-05-15T11:29:02.000Z</time>
      </trkpt>
      <trkpt lat="46.84062" lon="6.40937">
        <ele>1116.1999511719</ele>
        <time>2023-05-15T11:29:05.000Z</time>
      </trkpt>
      <trkpt lat="46.84049" lon="6.40924">
        <ele>1115.8000488281</ele>
        <time>2023-05-15T11:29:08.000Z</time>
      </trkpt>
      <trkpt lat="46.84021" lon="6.40898">
        <ele>1114.5999755859</ele>
        <time>2023-05-15T11:29:15.000Z</time>
      </trkpt>
      <trkpt lat="46.84001" lon="6.40877">
        <ele>1114.1999511719</ele>
        <time>2023-05-15T11:29:20.000Z</time>
      </trkpt>
      <trkpt lat="46.8398" lon="6.40855">
        <ele>1113.8000488281</ele>
        <time>2023-05-15T11:29:25.000Z</time>
      </trkpt>
      <trkpt lat="46.83947" lon="6.4082">
        <ele>1114</ele>
        <time>2023-05-15T11:29:34.000Z</time>
      </trkpt>
      <trkpt lat="46.83913" lon="6.40788">
        <ele>1113.8000488281</ele>
        <time>2023-05-15T11:29:42.000Z</time>
      </trkpt>
      <trkpt lat="46.83904" lon="6.40779">
        <ele>1113.8000488281</ele>
        <time>2023-05-15T11:29:44.000Z</time>
      </trkpt>
      <trkpt lat="46.83887" lon="6.40762">
        <ele>1113.5999755859</ele>
        <time>2023-05-15T11:29:48.000Z</time>
      </trkpt>
      <trkpt lat="46.83862" lon="6.40736">
        <ele>1112.8000488281</ele>
        <time>2023-05-15T11:29:54.000Z</time>
      </trkpt>
      <trkpt lat="46.83854" lon="6.40728">
        <ele>1112.5999755859</ele>
        <time>2023-05-15T11:29:56.000Z</time>
      </trkpt>
      <trkpt lat="46.83819" lon="6.40693">
        <ele>1111.8000488281</ele>
        <time>2023-05-15T11:30:05.000Z</time>
      </trkpt>
      <trkpt lat="46.83812" lon="6.40686">
        <ele>1111.5999755859</ele>
        <time>2023-05-15T11:30:07.000Z</time>
      </trkpt>
      <trkpt lat="46.83793" lon="6.40669">
        <ele>1110.5999755859</ele>
        <time>2023-05-15T11:30:12.000Z</time>
      </trkpt>
      <trkpt lat="46.83765" lon="6.40638">
        <ele>1110</ele>
        <time>2023-05-15T11:30:19.000Z</time>
      </trkpt>
      <trkpt lat="46.83748" lon="6.40617">
        <ele>1109.5999755859</ele>
        <time>2023-05-15T11:30:23.000Z</time>
      </trkpt>
      <trkpt lat="46.83727" lon="6.40588">
        <ele>1109</ele>
        <time>2023-05-15T11:30:28.000Z</time>
      </trkpt>
      <trkpt lat="46.83711" lon="6.40555">
        <ele>1108.5999755859</ele>
        <time>2023-05-15T11:30:32.000Z</time>
      </trkpt>
      <trkpt lat="46.83707" lon="6.40545">
        <ele>1108.4000244141</ele>
        <time>2023-05-15T11:30:33.000Z</time>
      </trkpt>
      <trkpt lat="46.83698" lon="6.40513">
        <ele>1107.1999511719</ele>
        <time>2023-05-15T11:30:36.000Z</time>
      </trkpt>
      <trkpt lat="46.8369" lon="6.40478">
        <ele>1106</ele>
        <time>2023-05-15T11:30:39.000Z</time>
      </trkpt>
      <trkpt lat="46.83681" lon="6.40438">
        <ele>1104.4000244141</ele>
        <time>2023-05-15T11:30:43.000Z</time>
      </trkpt>
      <trkpt lat="46.83677" lon="6.40426">
        <ele>1103.5999755859</ele>
        <time>2023-05-15T11:30:45.000Z</time>
      </trkpt>
      <trkpt lat="46.83676" lon="6.40421">
        <ele>1103</ele>
        <time>2023-05-15T11:30:46.000Z</time>
      </trkpt>
      <trkpt lat="46.83674" lon="6.40412">
        <ele>1102</ele>
        <time>2023-05-15T11:30:48.000Z</time>
      </trkpt>
      <trkpt lat="46.83671" lon="6.40395">
        <ele>1101</ele>
        <time>2023-05-15T11:30:51.000Z</time>
      </trkpt>
      <trkpt lat="46.83671" lon="6.40395">
        <ele>1100.8000488281</ele>
        <time>2023-05-15T11:30:52.000Z</time>
      </trkpt>
      <trkpt lat="46.83663" lon="6.40353">
        <ele>1100.4000244141</ele>
        <time>2023-05-15T11:30:57.000Z</time>
      </trkpt>
      <trkpt lat="46.83654" lon="6.40298">
        <ele>1100</ele>
        <time>2023-05-15T11:31:05.000Z</time>
      </trkpt>
      <trkpt lat="46.83653" lon="6.40291">
        <ele>1099.8000488281</ele>
        <time>2023-05-15T11:31:06.000Z</time>
      </trkpt>
      <trkpt lat="46.83648" lon="6.40253">
        <ele>1099.4000244141</ele>
        <time>2023-05-15T11:31:12.000Z</time>
      </trkpt>
      <trkpt lat="46.83643" lon="6.40212">
        <ele>1098.8000488281</ele>
        <time>2023-05-15T11:31:19.000Z</time>
      </trkpt>
      <trkpt lat="46.83642" lon="6.40206">
        <ele>1098.5999755859</ele>
        <time>2023-05-15T11:31:20.000Z</time>
      </trkpt>
      <trkpt lat="46.8364" lon="6.40159">
        <ele>1098</ele>
        <time>2023-05-15T11:31:28.000Z</time>
      </trkpt>
      <trkpt lat="46.83639" lon="6.4015">
        <ele>1097.8000488281</ele>
        <time>2023-05-15T11:31:30.000Z</time>
      </trkpt>
      <trkpt lat="46.83637" lon="6.40141">
        <ele>1097.4000244141</ele>
        <time>2023-05-15T11:31:33.000Z</time>
      </trkpt>
      <trkpt lat="46.83627" lon="6.40137">
        <ele>1097</ele>
        <time>2023-05-15T11:31:38.000Z</time>
      </trkpt>
      <trkpt lat="46.83603" lon="6.40138">
        <ele>1096.8000488281</ele>
        <time>2023-05-15T11:31:45.000Z</time>
      </trkpt>
      <trkpt lat="46.83574" lon="6.40144">
        <ele>1097.5999755859</ele>
        <time>2023-05-15T11:31:54.000Z</time>
      </trkpt>
      <trkpt lat="46.83562" lon="6.40147">
        <ele>1097.5999755859</ele>
        <time>2023-05-15T11:31:59.000Z</time>
      </trkpt>
      <trkpt lat="46.83556" lon="6.40149">
        <ele>1097.5999755859</ele>
        <time>2023-05-15T11:32:01.000Z</time>
      </trkpt>
      <trkpt lat="46.83552" lon="6.40155">
        <ele>1097.8000488281</ele>
        <time>2023-05-15T11:32:03.000Z</time>
      </trkpt>
      <trkpt lat="46.83541" lon="6.40168">
        <ele>1097.8000488281</ele>
        <time>2023-05-15T11:32:08.000Z</time>
      </trkpt>
      <trkpt lat="46.83524" lon="6.40166">
        <ele>1098</ele>
        <time>2023-05-15T11:32:14.000Z</time>
      </trkpt>
      <trkpt lat="46.83506" lon="6.40166">
        <ele>1098.1999511719</ele>
        <time>2023-05-15T11:32:21.000Z</time>
      </trkpt>
      <trkpt lat="46.83503" lon="6.40166">
        <ele>1098</ele>
        <time>2023-05-15T11:32:23.000Z</time>
      </trkpt>
      <trkpt lat="46.835" lon="6.40162">
        <ele>1098.1999511719</ele>
        <time>2023-05-15T11:32:26.000Z</time>
      </trkpt>
      <trkpt lat="46.835" lon="6.4016">
        <ele>1098.1999511719</ele>
        <time>2023-05-15T11:32:27.000Z</time>
      </trkpt>
      <trkpt lat="46.83501" lon="6.40152">
        <ele>1098.1999511719</ele>
        <time>2023-05-15T11:32:31.000Z</time>
      </trkpt>
      <trkpt lat="46.83502" lon="6.40147">
        <ele>1098.1999511719</ele>
        <time>2023-05-15T11:32:33.000Z</time>
      </trkpt>
      <trkpt lat="46.83505" lon="6.40147">
        <ele>1098.4000244141</ele>
        <time>2023-05-15T11:32:35.000Z</time>
      </trkpt>
      <trkpt lat="46.83507" lon="6.40144">
        <ele>1098</ele>
        <time>2023-05-15T11:32:38.000Z</time>
      </trkpt>
      <trkpt lat="46.83507" lon="6.40142">
        <ele>1098</ele>
        <time>2023-05-15T11:32:39.000Z</time>
      </trkpt>
      <trkpt lat="46.83507" lon="6.40141">
        <ele>1097.8000488281</ele>
        <time>2023-05-15T11:32:43.000Z</time>
      </trkpt>
      <trkpt lat="46.83505" lon="6.40131">
        <ele>1098.1999511719</ele>
        <time>2023-05-15T11:33:16.000Z</time>
      </trkpt>
      <trkpt lat="46.83491" lon="6.40116">
        <ele>1097.5999755859</ele>
        <time>2023-05-15T11:33:23.000Z</time>
      </trkpt>
      <trkpt lat="46.83482" lon="6.40108">
        <ele>1097.4000244141</ele>
        <time>2023-05-15T11:33:29.000Z</time>
      </trkpt>
      <trkpt lat="46.83481" lon="6.40107">
        <ele>1097.5999755859</ele>
        <time>2023-05-15T11:33:30.000Z</time>
      </trkpt>
      <trkpt lat="46.83479" lon="6.40106">
        <ele>1097.4000244141</ele>
        <time>2023-05-15T11:33:33.000Z</time>
      </trkpt>
      <trkpt lat="46.83479" lon="6.40106">
        <ele>1097.5999755859</ele>
        <time>2023-05-15T11:33:37.000Z</time>
      </trkpt>
      <trkpt lat="46.83482" lon="6.40108">
        <ele>1097.5999755859</ele>
        <time>2023-05-15T11:35:47.000Z</time>
      </trkpt>
      <trkpt lat="46.83484" lon="6.40109">
        <ele>1097.5999755859</ele>
        <time>2023-05-15T11:35:48.000Z</time>
      </trkpt>
      <trkpt lat="46.83495" lon="6.40122">
        <ele>1097.4000244141</ele>
        <time>2023-05-15T11:35:55.000Z</time>
      </trkpt>
      <trkpt lat="46.83498" lon="6.40124">
        <ele>1097.1999511719</ele>
        <time>2023-05-15T11:35:57.000Z</time>
      </trkpt>
      <trkpt lat="46.83498" lon="6.40125">
        <ele>1097</ele>
        <time>2023-05-15T11:36:00.000Z</time>
      </trkpt>
      <trkpt lat="46.83497" lon="6.40129">
        <ele>1097.4000244141</ele>
        <time>2023-05-15T11:36:25.000Z</time>
      </trkpt>
      <trkpt lat="46.83495" lon="6.40137">
        <ele>1097.5999755859</ele>
        <time>2023-05-15T11:36:27.000Z</time>
      </trkpt>
      <trkpt lat="46.83489" lon="6.40161">
        <ele>1098</ele>
        <time>2023-05-15T11:36:32.000Z</time>
      </trkpt>
      <trkpt lat="46.83485" lon="6.40181">
        <ele>1098.1999511719</ele>
        <time>2023-05-15T11:36:36.000Z</time>
      </trkpt>
      <trkpt lat="46.83475" lon="6.40221">
        <ele>1098.8000488281</ele>
        <time>2023-05-15T11:36:44.000Z</time>
      </trkpt>
      <trkpt lat="46.83473" lon="6.40226">
        <ele>1098.8000488281</ele>
        <time>2023-05-15T11:36:45.000Z</time>
      </trkpt>
      <trkpt lat="46.83468" lon="6.40243">
        <ele>1099.1999511719</ele>
        <time>2023-05-15T11:36:49.000Z</time>
      </trkpt>
      <trkpt lat="46.8346" lon="6.40264">
        <ele>1099.8000488281</ele>
        <time>2023-05-15T11:36:55.000Z</time>
      </trkpt>
      <trkpt lat="46.83457" lon="6.40274">
        <ele>1099.8000488281</ele>
        <time>2023-05-15T11:36:58.000Z</time>
      </trkpt>
      <trkpt lat="46.83456" lon="6.40277">
        <ele>1100</ele>
        <time>2023-05-15T11:36:59.000Z</time>
      </trkpt>
      <trkpt lat="46.83449" lon="6.40292">
        <ele>1100.4000244141</ele>
        <time>2023-05-15T11:37:05.000Z</time>
      </trkpt>
      <trkpt lat="46.83443" lon="6.40305">
        <ele>1100.8000488281</ele>
        <time>2023-05-15T11:37:10.000Z</time>
      </trkpt>
      <trkpt lat="46.83434" lon="6.40303">
        <ele>1101.4000244141</ele>
        <time>2023-05-15T11:37:15.000Z</time>
      </trkpt>
      <trkpt lat="46.83433" lon="6.40302">
        <ele>1102</ele>
        <time>2023-05-15T11:37:18.000Z</time>
      </trkpt>
      <trkpt lat="46.83433" lon="6.40302">
        <ele>1102.4000244141</ele>
        <time>2023-05-15T11:37:19.000Z</time>
      </trkpt>
      <trkpt lat="46.83438" lon="6.40306">
        <ele>1212.1999511719</ele>
        <time>2023-05-15T12:23:19.000Z</time>
      </trkpt>
      <trkpt lat="46.83447" lon="6.40303">
        <ele>1212.1999511719</ele>
        <time>2023-05-15T12:23:22.000Z</time>
      </trkpt>
      <trkpt lat="46.83449" lon="6.40299">
        <ele>1212.1999511719</ele>
        <time>2023-05-15T12:23:23.000Z</time>
      </trkpt>
      <trkpt lat="46.83453" lon="6.40287">
        <ele>1212.4000244141</ele>
        <time>2023-05-15T12:23:26.000Z</time>
      </trkpt>
      <trkpt lat="46.83454" lon="6.40277">
        <ele>1212.4000244141</ele>
        <time>2023-05-15T12:23:29.000Z</time>
      </trkpt>
      <trkpt lat="46.83455" lon="6.40273">
        <ele>1212.4000244141</ele>
        <time>2023-05-15T12:23:30.000Z</time>
      </trkpt>
      <trkpt lat="46.83458" lon="6.40266">
        <ele>1212.5999755859</ele>
        <time>2023-05-15T12:23:36.000Z</time>
      </trkpt>
      <trkpt lat="46.8346" lon="6.40261">
        <ele>1212.5999755859</ele>
        <time>2023-05-15T12:23:37.000Z</time>
      </trkpt>
      <trkpt lat="46.83467" lon="6.40239">
        <ele>1212.8000488281</ele>
        <time>2023-05-15T12:23:44.000Z</time>
      </trkpt>
      <trkpt lat="46.83474" lon="6.40211">
        <ele>1212.5999755859</ele>
        <time>2023-05-15T12:23:50.000Z</time>
      </trkpt>
      <trkpt lat="46.83476" lon="6.40207">
        <ele>1212.5999755859</ele>
        <time>2023-05-15T12:23:51.000Z</time>
      </trkpt>
      <trkpt lat="46.83485" lon="6.40174">
        <ele>1212</ele>
        <time>2023-05-15T12:23:57.000Z</time>
      </trkpt>
      <trkpt lat="46.83485" lon="6.40169">
        <ele>1212.1999511719</ele>
        <time>2023-05-15T12:23:58.000Z</time>
      </trkpt>
      <trkpt lat="46.83483" lon="6.40141">
        <ele>1212</ele>
        <time>2023-05-15T12:24:05.000Z</time>
      </trkpt>
      <trkpt lat="46.83486" lon="6.40121">
        <ele>1211.5999755859</ele>
        <time>2023-05-15T12:24:10.000Z</time>
      </trkpt>
      <trkpt lat="46.83486" lon="6.40118">
        <ele>1211.4000244141</ele>
        <time>2023-05-15T12:24:11.000Z</time>
      </trkpt>
      <trkpt lat="46.83483" lon="6.40111">
        <ele>1211.4000244141</ele>
        <time>2023-05-15T12:24:13.000Z</time>
      </trkpt>
      <trkpt lat="46.83472" lon="6.40105">
        <ele>1211.5999755859</ele>
        <time>2023-05-15T12:24:20.000Z</time>
      </trkpt>
      <trkpt lat="46.83457" lon="6.40096">
        <ele>1211.8000488281</ele>
        <time>2023-05-15T12:24:26.000Z</time>
      </trkpt>
      <trkpt lat="46.83446" lon="6.4008">
        <ele>1211.8000488281</ele>
        <time>2023-05-15T12:24:32.000Z</time>
      </trkpt>
      <trkpt lat="46.83442" lon="6.40054">
        <ele>1212</ele>
        <time>2023-05-15T12:24:38.000Z</time>
      </trkpt>
      <trkpt lat="46.83445" lon="6.4002">
        <ele>1212.5999755859</ele>
        <time>2023-05-15T12:24:46.000Z</time>
      </trkpt>
      <trkpt lat="46.83444" lon="6.39999">
        <ele>1212.8000488281</ele>
        <time>2023-05-15T12:24:53.000Z</time>
      </trkpt>
      <trkpt lat="46.83444" lon="6.39996">
        <ele>1213</ele>
        <time>2023-05-15T12:24:54.000Z</time>
      </trkpt>
      <trkpt lat="46.83444" lon="6.39973">
        <ele>1213.1999511719</ele>
        <time>2023-05-15T12:25:00.000Z</time>
      </trkpt>
      <trkpt lat="46.83443" lon="6.39966">
        <ele>1213.4000244141</ele>
        <time>2023-05-15T12:25:02.000Z</time>
      </trkpt>
      <trkpt lat="46.83436" lon="6.39936">
        <ele>1214</ele>
        <time>2023-05-15T12:25:12.000Z</time>
      </trkpt>
      <trkpt lat="46.83428" lon="6.39907">
        <ele>1214.1999511719</ele>
        <time>2023-05-15T12:25:21.000Z</time>
      </trkpt>
      <trkpt lat="46.83422" lon="6.39882">
        <ele>1214.1999511719</ele>
        <time>2023-05-15T12:25:30.000Z</time>
      </trkpt>
      <trkpt lat="46.83422" lon="6.3988">
        <ele>1214.1999511719</ele>
        <time>2023-05-15T12:25:31.000Z</time>
      </trkpt>
      <trkpt lat="46.83413" lon="6.39852">
        <ele>1214</ele>
        <time>2023-05-15T12:25:41.000Z</time>
      </trkpt>
      <trkpt lat="46.834" lon="6.39834">
        <ele>1214.1999511719</ele>
        <time>2023-05-15T12:25:49.000Z</time>
      </trkpt>
      <trkpt lat="46.83396" lon="6.3983">
        <ele>1214.1999511719</ele>
        <time>2023-05-15T12:25:51.000Z</time>
      </trkpt>
      <trkpt lat="46.83381" lon="6.3982">
        <ele>1214.1999511719</ele>
        <time>2023-05-15T12:25:58.000Z</time>
      </trkpt>
      <trkpt lat="46.83359" lon="6.39803">
        <ele>1214.5999755859</ele>
        <time>2023-05-15T12:26:07.000Z</time>
      </trkpt>
      <trkpt lat="46.83352" lon="6.39799">
        <ele>1214.5999755859</ele>
        <time>2023-05-15T12:26:09.000Z</time>
      </trkpt>
      <trkpt lat="46.83328" lon="6.39781">
        <ele>1214.5999755859</ele>
        <time>2023-05-15T12:26:15.000Z</time>
      </trkpt>
      <trkpt lat="46.83323" lon="6.39779">
        <ele>1214.8000488281</ele>
        <time>2023-05-15T12:26:16.000Z</time>
      </trkpt>
      <trkpt lat="46.83304" lon="6.39763">
        <ele>1215</ele>
        <time>2023-05-15T12:26:20.000Z</time>
      </trkpt>
      <trkpt lat="46.83294" lon="6.39752">
        <ele>1215</ele>
        <time>2023-05-15T12:26:22.000Z</time>
      </trkpt>
      <trkpt lat="46.83277" lon="6.39727">
        <ele>1215.1999511719</ele>
        <time>2023-05-15T12:26:26.000Z</time>
      </trkpt>
      <trkpt lat="46.83265" lon="6.39707">
        <ele>1215.1999511719</ele>
        <time>2023-05-15T12:26:30.000Z</time>
      </trkpt>
      <trkpt lat="46.83244" lon="6.39669">
        <ele>1215.4000244141</ele>
        <time>2023-05-15T12:26:35.000Z</time>
      </trkpt>
      <trkpt lat="46.83235" lon="6.39652">
        <ele>1215.5999755859</ele>
        <time>2023-05-15T12:26:38.000Z</time>
      </trkpt>
      <trkpt lat="46.83227" lon="6.39634">
        <ele>1215.5999755859</ele>
        <time>2023-05-15T12:26:43.000Z</time>
      </trkpt>
      <trkpt lat="46.83223" lon="6.39626">
        <ele>1215.8000488281</ele>
        <time>2023-05-15T12:26:46.000Z</time>
      </trkpt>
      <trkpt lat="46.83216" lon="6.39613">
        <ele>1216</ele>
        <time>2023-05-15T12:26:50.000Z</time>
      </trkpt>
      <trkpt lat="46.83198" lon="6.39579">
        <ele>1216.8000488281</ele>
        <time>2023-05-15T12:27:00.000Z</time>
      </trkpt>
      <trkpt lat="46.8318" lon="6.39546">
        <ele>1217.1999511719</ele>
        <time>2023-05-15T12:27:10.000Z</time>
      </trkpt>
      <trkpt lat="46.83159" lon="6.39509">
        <ele>1217.5999755859</ele>
        <time>2023-05-15T12:27:21.000Z</time>
      </trkpt>
      <trkpt lat="46.83142" lon="6.39477">
        <ele>1217.4000244141</ele>
        <time>2023-05-15T12:27:31.000Z</time>
      </trkpt>
      <trkpt lat="46.8312" lon="6.39437">
        <ele>1217.1999511719</ele>
        <time>2023-05-15T12:27:41.000Z</time>
      </trkpt>
      <trkpt lat="46.83117" lon="6.39432">
        <ele>1217.1999511719</ele>
        <time>2023-05-15T12:27:42.000Z</time>
      </trkpt>
      <trkpt lat="46.83094" lon="6.39386">
        <ele>1217</ele>
        <time>2023-05-15T12:27:53.000Z</time>
      </trkpt>
      <trkpt lat="46.8309" lon="6.39379">
        <ele>1217</ele>
        <time>2023-05-15T12:27:55.000Z</time>
      </trkpt>
      <trkpt lat="46.83071" lon="6.39346">
        <ele>1217</ele>
        <time>2023-05-15T12:28:03.000Z</time>
      </trkpt>
      <trkpt lat="46.83043" lon="6.3932">
        <ele>1217</ele>
        <time>2023-05-15T12:28:12.000Z</time>
      </trkpt>
      <trkpt lat="46.83026" lon="6.39306">
        <ele>1217</ele>
        <time>2023-05-15T12:28:18.000Z</time>
      </trkpt>
      <trkpt lat="46.8302" lon="6.39301">
        <ele>1216.8000488281</ele>
        <time>2023-05-15T12:28:20.000Z</time>
      </trkpt>
      <trkpt lat="46.82992" lon="6.39278">
        <ele>1216.5999755859</ele>
        <time>2023-05-15T12:28:28.000Z</time>
      </trkpt>
      <trkpt lat="46.82978" lon="6.39263">
        <ele>1216.8000488281</ele>
        <time>2023-05-15T12:28:33.000Z</time>
      </trkpt>
      <trkpt lat="46.82976" lon="6.39258">
        <ele>1216.5999755859</ele>
        <time>2023-05-15T12:28:34.000Z</time>
      </trkpt>
      <trkpt lat="46.82969" lon="6.39221">
        <ele>1216.5999755859</ele>
        <time>2023-05-15T12:28:41.000Z</time>
      </trkpt>
      <trkpt lat="46.82964" lon="6.39173">
        <ele>1217</ele>
        <time>2023-05-15T12:28:50.000Z</time>
      </trkpt>
      <trkpt lat="46.82967" lon="6.39131">
        <ele>1217.1999511719</ele>
        <time>2023-05-15T12:28:59.000Z</time>
      </trkpt>
      <trkpt lat="46.82978" lon="6.39085">
        <ele>1217.1999511719</ele>
        <time>2023-05-15T12:29:09.000Z</time>
      </trkpt>
      <trkpt lat="46.82979" lon="6.3908">
        <ele>1217.1999511719</ele>
        <time>2023-05-15T12:29:10.000Z</time>
      </trkpt>
      <trkpt lat="46.82993" lon="6.39037">
        <ele>1217.8000488281</ele>
        <time>2023-05-15T12:29:20.000Z</time>
      </trkpt>
      <trkpt lat="46.83004" lon="6.38986">
        <ele>1218.4000244141</ele>
        <time>2023-05-15T12:29:30.000Z</time>
      </trkpt>
      <trkpt lat="46.83011" lon="6.38955">
        <ele>1218.4000244141</ele>
        <time>2023-05-15T12:29:37.000Z</time>
      </trkpt>
      <trkpt lat="46.83017" lon="6.38927">
        <ele>1218.5999755859</ele>
        <time>2023-05-15T12:29:43.000Z</time>
      </trkpt>
      <trkpt lat="46.8302" lon="6.38918">
        <ele>1218.8000488281</ele>
        <time>2023-05-15T12:29:45.000Z</time>
      </trkpt>
      <trkpt lat="46.83023" lon="6.38901">
        <ele>1218.8000488281</ele>
        <time>2023-05-15T12:29:48.000Z</time>
      </trkpt>
      <trkpt lat="46.83028" lon="6.38885">
        <ele>1218.8000488281</ele>
        <time>2023-05-15T12:29:50.000Z</time>
      </trkpt>
      <trkpt lat="46.83035" lon="6.38862">
        <ele>1218.8000488281</ele>
        <time>2023-05-15T12:29:53.000Z</time>
      </trkpt>
      <trkpt lat="46.83046" lon="6.38829">
        <ele>1219.4000244141</ele>
        <time>2023-05-15T12:29:58.000Z</time>
      </trkpt>
      <trkpt lat="46.83055" lon="6.38799">
        <ele>1219.8000488281</ele>
        <time>2023-05-15T12:30:04.000Z</time>
      </trkpt>
      <trkpt lat="46.83073" lon="6.38757">
        <ele>1220.4000244141</ele>
        <time>2023-05-15T12:30:12.000Z</time>
      </trkpt>
      <trkpt lat="46.83089" lon="6.38719">
        <ele>1220.5999755859</ele>
        <time>2023-05-15T12:30:17.000Z</time>
      </trkpt>
      <trkpt lat="46.83105" lon="6.38663">
        <ele>1220.5999755859</ele>
        <time>2023-05-15T12:30:24.000Z</time>
      </trkpt>
      <trkpt lat="46.83105" lon="6.38655">
        <ele>1220.8000488281</ele>
        <time>2023-05-15T12:30:25.000Z</time>
      </trkpt>
      <trkpt lat="46.83104" lon="6.38632">
        <ele>1220.8000488281</ele>
        <time>2023-05-15T12:30:28.000Z</time>
      </trkpt>
      <trkpt lat="46.83101" lon="6.38604">
        <ele>1221</ele>
        <time>2023-05-15T12:30:33.000Z</time>
      </trkpt>
      <trkpt lat="46.831" lon="6.386">
        <ele>1221</ele>
        <time>2023-05-15T12:30:34.000Z</time>
      </trkpt>
      <trkpt lat="46.83093" lon="6.3857">
        <ele>1221.4000244141</ele>
        <time>2023-05-15T12:30:40.000Z</time>
      </trkpt>
      <trkpt lat="46.83085" lon="6.38555">
        <ele>1221.4000244141</ele>
        <time>2023-05-15T12:30:45.000Z</time>
      </trkpt>
      <trkpt lat="46.83076" lon="6.38553">
        <ele>1221.4000244141</ele>
        <time>2023-05-15T12:30:49.000Z</time>
      </trkpt>
      <trkpt lat="46.8306" lon="6.38548">
        <ele>1222.4000244141</ele>
        <time>2023-05-15T12:30:55.000Z</time>
      </trkpt>
      <trkpt lat="46.83047" lon="6.38537">
        <ele>1222.8000488281</ele>
        <time>2023-05-15T12:31:01.000Z</time>
      </trkpt>
      <trkpt lat="46.83044" lon="6.38533">
        <ele>1222.8000488281</ele>
        <time>2023-05-15T12:31:03.000Z</time>
      </trkpt>
      <trkpt lat="46.8303" lon="6.38518">
        <ele>1223.5999755859</ele>
        <time>2023-05-15T12:31:08.000Z</time>
      </trkpt>
      <trkpt lat="46.83012" lon="6.38497">
        <ele>1224.4000244141</ele>
        <time>2023-05-15T12:31:12.000Z</time>
      </trkpt>
      <trkpt lat="46.83009" lon="6.38491">
        <ele>1224.4000244141</ele>
        <time>2023-05-15T12:31:13.000Z</time>
      </trkpt>
      <trkpt lat="46.82996" lon="6.38471">
        <ele>1225</ele>
        <time>2023-05-15T12:31:18.000Z</time>
      </trkpt>
      <trkpt lat="46.82985" lon="6.38452">
        <ele>1225.8000488281</ele>
        <time>2023-05-15T12:31:23.000Z</time>
      </trkpt>
      <trkpt lat="46.82984" lon="6.38449">
        <ele>1225.8000488281</ele>
        <time>2023-05-15T12:31:24.000Z</time>
      </trkpt>
      <trkpt lat="46.82975" lon="6.38435">
        <ele>1226.5999755859</ele>
        <time>2023-05-15T12:31:29.000Z</time>
      </trkpt>
      <trkpt lat="46.82965" lon="6.38422">
        <ele>1227.1999511719</ele>
        <time>2023-05-15T12:31:35.000Z</time>
      </trkpt>
      <trkpt lat="46.82962" lon="6.38418">
        <ele>1227.4000244141</ele>
        <time>2023-05-15T12:31:37.000Z</time>
      </trkpt>
      <trkpt lat="46.82962" lon="6.38417">
        <ele>1227.5999755859</ele>
        <time>2023-05-15T12:31:38.000Z</time>
      </trkpt>
      <trkpt lat="46.82961" lon="6.38415">
        <ele>1227.8000488281</ele>
        <time>2023-05-15T12:31:40.000Z</time>
      </trkpt>
      <trkpt lat="46.82959" lon="6.38411">
        <ele>1228</ele>
        <time>2023-05-15T12:31:43.000Z</time>
      </trkpt>
      <trkpt lat="46.82952" lon="6.38405">
        <ele>1228.4000244141</ele>
        <time>2023-05-15T12:31:46.000Z</time>
      </trkpt>
      <trkpt lat="46.82938" lon="6.38394">
        <ele>1229</ele>
        <time>2023-05-15T12:31:53.000Z</time>
      </trkpt>
      <trkpt lat="46.82929" lon="6.38384">
        <ele>1229.5999755859</ele>
        <time>2023-05-15T12:31:58.000Z</time>
      </trkpt>
      <trkpt lat="46.82914" lon="6.38369">
        <ele>1230.1999511719</ele>
        <time>2023-05-15T12:32:06.000Z</time>
      </trkpt>
      <trkpt lat="46.82907" lon="6.38361">
        <ele>1230.5999755859</ele>
        <time>2023-05-15T12:32:10.000Z</time>
      </trkpt>
      <trkpt lat="46.82904" lon="6.38358">
        <ele>1230.5999755859</ele>
        <time>2023-05-15T12:32:12.000Z</time>
      </trkpt>
      <trkpt lat="46.82903" lon="6.38356">
        <ele>1231.1999511719</ele>
        <time>2023-05-15T12:32:13.000Z</time>
      </trkpt>
      <trkpt lat="46.8289" lon="6.38341">
        <ele>1231.5999755859</ele>
        <time>2023-05-15T12:32:19.000Z</time>
      </trkpt>
      <trkpt lat="46.82876" lon="6.38326">
        <ele>1232</ele>
        <time>2023-05-15T12:32:27.000Z</time>
      </trkpt>
      <trkpt lat="46.82871" lon="6.3832">
        <ele>1232.1999511719</ele>
        <time>2023-05-15T12:32:29.000Z</time>
      </trkpt>
      <trkpt lat="46.82869" lon="6.38316">
        <ele>1232.1999511719</ele>
        <time>2023-05-15T12:32:30.000Z</time>
      </trkpt>
      <trkpt lat="46.82862" lon="6.38309">
        <ele>1232.4000244141</ele>
        <time>2023-05-15T12:32:32.000Z</time>
      </trkpt>
      <trkpt lat="46.82852" lon="6.38305">
        <ele>1233</ele>
        <time>2023-05-15T12:32:38.000Z</time>
      </trkpt>
      <trkpt lat="46.82849" lon="6.38303">
        <ele>1233</ele>
        <time>2023-05-15T12:32:39.000Z</time>
      </trkpt>
      <trkpt lat="46.82839" lon="6.38297">
        <ele>1233.5999755859</ele>
        <time>2023-05-15T12:32:45.000Z</time>
      </trkpt>
      <trkpt lat="46.82832" lon="6.38292">
        <ele>1233.8000488281</ele>
        <time>2023-05-15T12:32:50.000Z</time>
      </trkpt>
      <trkpt lat="46.8283" lon="6.38291">
        <ele>1233.8000488281</ele>
        <time>2023-05-15T12:32:51.000Z</time>
      </trkpt>
      <trkpt lat="46.82818" lon="6.38284">
        <ele>1234.4000244141</ele>
        <time>2023-05-15T12:32:58.000Z</time>
      </trkpt>
      <trkpt lat="46.82812" lon="6.3828">
        <ele>1234.4000244141</ele>
        <time>2023-05-15T12:33:00.000Z</time>
      </trkpt>
      <trkpt lat="46.82786" lon="6.38261">
        <ele>1234.5999755859</ele>
        <time>2023-05-15T12:33:07.000Z</time>
      </trkpt>
      <trkpt lat="46.82764" lon="6.38239">
        <ele>1235</ele>
        <time>2023-05-15T12:33:12.000Z</time>
      </trkpt>
      <trkpt lat="46.82749" lon="6.38224">
        <ele>1235.5999755859</ele>
        <time>2023-05-15T12:33:20.000Z</time>
      </trkpt>
      <trkpt lat="46.82744" lon="6.38217">
        <ele>1235.5999755859</ele>
        <time>2023-05-15T12:33:23.000Z</time>
      </trkpt>
      <trkpt lat="46.82744" lon="6.38212">
        <ele>1235.5999755859</ele>
        <time>2023-05-15T12:33:25.000Z</time>
      </trkpt>
      <trkpt lat="46.82744" lon="6.38208">
        <ele>1235.8000488281</ele>
        <time>2023-05-15T12:33:27.000Z</time>
      </trkpt>
      <trkpt lat="46.82745" lon="6.38202">
        <ele>1235.8000488281</ele>
        <time>2023-05-15T12:33:29.000Z</time>
      </trkpt>
      <trkpt lat="46.82747" lon="6.38198">
        <ele>1235.8000488281</ele>
        <time>2023-05-15T12:33:31.000Z</time>
      </trkpt>
      <trkpt lat="46.82749" lon="6.38191">
        <ele>1236</ele>
        <time>2023-05-15T12:33:34.000Z</time>
      </trkpt>
      <trkpt lat="46.8275" lon="6.38188">
        <ele>1236</ele>
        <time>2023-05-15T12:33:35.000Z</time>
      </trkpt>
      <trkpt lat="46.8275" lon="6.38183">
        <ele>1235.8000488281</ele>
        <time>2023-05-15T12:33:37.000Z</time>
      </trkpt>
      <trkpt lat="46.8275" lon="6.38179">
        <ele>1236</ele>
        <time>2023-05-15T12:33:38.000Z</time>
      </trkpt>
      <trkpt lat="46.82751" lon="6.38175">
        <ele>1236</ele>
        <time>2023-05-15T12:33:40.000Z</time>
      </trkpt>
      <trkpt lat="46.82752" lon="6.38171">
        <ele>1236.1999511719</ele>
        <time>2023-05-15T12:33:43.000Z</time>
      </trkpt>
      <trkpt lat="46.82753" lon="6.38159">
        <ele>1236.1999511719</ele>
        <time>2023-05-15T12:33:45.000Z</time>
      </trkpt>
      <trkpt lat="46.82752" lon="6.38147">
        <ele>1236</ele>
        <time>2023-05-15T12:33:47.000Z</time>
      </trkpt>
      <trkpt lat="46.82752" lon="6.38143">
        <ele>1236.1999511719</ele>
        <time>2023-05-15T12:33:48.000Z</time>
      </trkpt>
      <trkpt lat="46.82752" lon="6.38132">
        <ele>1236</ele>
        <time>2023-05-15T12:33:50.000Z</time>
      </trkpt>
      <trkpt lat="46.82755" lon="6.38117">
        <ele>1236</ele>
        <time>2023-05-15T12:33:53.000Z</time>
      </trkpt>
      <trkpt lat="46.82757" lon="6.38103">
        <ele>1236.1999511719</ele>
        <time>2023-05-15T12:33:56.000Z</time>
      </trkpt>
      <trkpt lat="46.82758" lon="6.38095">
        <ele>1236.1999511719</ele>
        <time>2023-05-15T12:33:58.000Z</time>
      </trkpt>
      <trkpt lat="46.82759" lon="6.38091">
        <ele>1236</ele>
        <time>2023-05-15T12:33:59.000Z</time>
      </trkpt>
      <trkpt lat="46.82762" lon="6.3807">
        <ele>1235.8000488281</ele>
        <time>2023-05-15T12:34:03.000Z</time>
      </trkpt>
      <trkpt lat="46.82763" lon="6.38063">
        <ele>1235.8000488281</ele>
        <time>2023-05-15T12:34:04.000Z</time>
      </trkpt>
      <trkpt lat="46.82765" lon="6.38042">
        <ele>1235.4000244141</ele>
        <time>2023-05-15T12:34:09.000Z</time>
      </trkpt>
      <trkpt lat="46.82765" lon="6.3803">
        <ele>1235.5999755859</ele>
        <time>2023-05-15T12:34:11.000Z</time>
      </trkpt>
      <trkpt lat="46.82767" lon="6.38027">
        <ele>1235.5999755859</ele>
        <time>2023-05-15T12:34:12.000Z</time>
      </trkpt>
      <trkpt lat="46.8277" lon="6.38021">
        <ele>1235.5999755859</ele>
        <time>2023-05-15T12:34:15.000Z</time>
      </trkpt>
      <trkpt lat="46.82772" lon="6.38006">
        <ele>1235.8000488281</ele>
        <time>2023-05-15T12:34:20.000Z</time>
      </trkpt>
      <trkpt lat="46.82772" lon="6.38006">
        <ele>1236</ele>
        <time>2023-05-15T12:34:21.000Z</time>
      </trkpt>
      <trkpt lat="46.82772" lon="6.38001">
        <ele>1236</ele>
        <time>2023-05-15T12:34:22.000Z</time>
      </trkpt>
      <trkpt lat="46.82775" lon="6.37989">
        <ele>1236</ele>
        <time>2023-05-15T12:34:25.000Z</time>
      </trkpt>
      <trkpt lat="46.82778" lon="6.37988">
        <ele>1236.1999511719</ele>
        <time>2023-05-15T12:34:26.000Z</time>
      </trkpt>
      <trkpt lat="46.82778" lon="6.37975">
        <ele>1236.1999511719</ele>
        <time>2023-05-15T12:34:29.000Z</time>
      </trkpt>
      <trkpt lat="46.82781" lon="6.37957">
        <ele>1236.4000244141</ele>
        <time>2023-05-15T12:34:33.000Z</time>
      </trkpt>
      <trkpt lat="46.82783" lon="6.37956">
        <ele>1236.1999511719</ele>
        <time>2023-05-15T12:34:35.000Z</time>
      </trkpt>
      <trkpt lat="46.82784" lon="6.37955">
        <ele>1236.1999511719</ele>
        <time>2023-05-15T12:34:36.000Z</time>
      </trkpt>
      <trkpt lat="46.82784" lon="6.37953">
        <ele>1236.4000244141</ele>
        <time>2023-05-15T12:34:41.000Z</time>
      </trkpt>
      <trkpt lat="46.82784" lon="6.37953">
        <ele>1237</ele>
        <time>2023-05-15T12:34:44.000Z</time>
      </trkpt>
      <trkpt lat="46.82786" lon="6.37943">
        <ele>1236.8000488281</ele>
        <time>2023-05-15T12:34:53.000Z</time>
      </trkpt>
      <trkpt lat="46.82785" lon="6.3794">
        <ele>1237</ele>
        <time>2023-05-15T12:34:54.000Z</time>
      </trkpt>
      <trkpt lat="46.82786" lon="6.37936">
        <ele>1236.8000488281</ele>
        <time>2023-05-15T12:34:56.000Z</time>
      </trkpt>
      <trkpt lat="46.82786" lon="6.37932">
        <ele>1236.1999511719</ele>
        <time>2023-05-15T12:34:58.000Z</time>
      </trkpt>
      <trkpt lat="46.82789" lon="6.37926">
        <ele>1236.1999511719</ele>
        <time>2023-05-15T12:35:00.000Z</time>
      </trkpt>
      <trkpt lat="46.82791" lon="6.37921">
        <ele>1236</ele>
        <time>2023-05-15T12:35:02.000Z</time>
      </trkpt>
      <trkpt lat="46.82793" lon="6.37916">
        <ele>1235.8000488281</ele>
        <time>2023-05-15T12:35:04.000Z</time>
      </trkpt>
      <trkpt lat="46.82796" lon="6.37913">
        <ele>1235.8000488281</ele>
        <time>2023-05-15T12:35:06.000Z</time>
      </trkpt>
      <trkpt lat="46.82797" lon="6.3791">
        <ele>1235.8000488281</ele>
        <time>2023-05-15T12:35:07.000Z</time>
      </trkpt>
      <trkpt lat="46.828" lon="6.37906">
        <ele>1235.5999755859</ele>
        <time>2023-05-15T12:35:09.000Z</time>
      </trkpt>
      <trkpt lat="46.828" lon="6.37902">
        <ele>1235.4000244141</ele>
        <time>2023-05-15T12:35:10.000Z</time>
      </trkpt>
      <trkpt lat="46.828" lon="6.37898">
        <ele>1235.1999511719</ele>
        <time>2023-05-15T12:35:12.000Z</time>
      </trkpt>
      <trkpt lat="46.82798" lon="6.37888">
        <ele>1235.1999511719</ele>
        <time>2023-05-15T12:35:15.000Z</time>
      </trkpt>
      <trkpt lat="46.82797" lon="6.37886">
        <ele>1235.1999511719</ele>
        <time>2023-05-15T12:35:16.000Z</time>
      </trkpt>
      <trkpt lat="46.82789" lon="6.3788">
        <ele>1235.4000244141</ele>
        <time>2023-05-15T12:35:22.000Z</time>
      </trkpt>
      <trkpt lat="46.82785" lon="6.37876">
        <ele>1235.5999755859</ele>
        <time>2023-05-15T12:35:24.000Z</time>
      </trkpt>
      <trkpt lat="46.82783" lon="6.37872">
        <ele>1236</ele>
        <time>2023-05-15T12:35:28.000Z</time>
      </trkpt>
      <trkpt lat="46.82781" lon="6.37863">
        <ele>1236.4000244141</ele>
        <time>2023-05-15T12:35:32.000Z</time>
      </trkpt>
      <trkpt lat="46.82777" lon="6.37856">
        <ele>1236.8000488281</ele>
        <time>2023-05-15T12:35:35.000Z</time>
      </trkpt>
      <trkpt lat="46.82775" lon="6.37853">
        <ele>1236.8000488281</ele>
        <time>2023-05-15T12:35:36.000Z</time>
      </trkpt>
      <trkpt lat="46.82774" lon="6.37849">
        <ele>1237</ele>
        <time>2023-05-15T12:35:37.000Z</time>
      </trkpt>
      <trkpt lat="46.82773" lon="6.37841">
        <ele>1237.1999511719</ele>
        <time>2023-05-15T12:35:40.000Z</time>
      </trkpt>
      <trkpt lat="46.8277" lon="6.37832">
        <ele>1237.4000244141</ele>
        <time>2023-05-15T12:35:42.000Z</time>
      </trkpt>
      <trkpt lat="46.8277" lon="6.37824">
        <ele>1237.5999755859</ele>
        <time>2023-05-15T12:35:44.000Z</time>
      </trkpt>
      <trkpt lat="46.82771" lon="6.37819">
        <ele>1237.4000244141</ele>
        <time>2023-05-15T12:35:46.000Z</time>
      </trkpt>
      <trkpt lat="46.82769" lon="6.37816">
        <ele>1237.5999755859</ele>
        <time>2023-05-15T12:35:48.000Z</time>
      </trkpt>
      <trkpt lat="46.82765" lon="6.37813">
        <ele>1237.5999755859</ele>
        <time>2023-05-15T12:35:50.000Z</time>
      </trkpt>
      <trkpt lat="46.82756" lon="6.37792">
        <ele>1237.8000488281</ele>
        <time>2023-05-15T12:35:55.000Z</time>
      </trkpt>
      <trkpt lat="46.82755" lon="6.37791">
        <ele>1237.8000488281</ele>
        <time>2023-05-15T12:35:56.000Z</time>
      </trkpt>
      <trkpt lat="46.8275" lon="6.37789">
        <ele>1238</ele>
        <time>2023-05-15T12:35:58.000Z</time>
      </trkpt>
      <trkpt lat="46.82742" lon="6.37785">
        <ele>1238.4000244141</ele>
        <time>2023-05-15T12:36:03.000Z</time>
      </trkpt>
      <trkpt lat="46.82736" lon="6.37774">
        <ele>1238.8000488281</ele>
        <time>2023-05-15T12:36:10.000Z</time>
      </trkpt>
      <trkpt lat="46.82736" lon="6.37774">
        <ele>1239</ele>
        <time>2023-05-15T12:36:12.000Z</time>
      </trkpt>
      <trkpt lat="46.82722" lon="6.37758">
        <ele>1239.4000244141</ele>
        <time>2023-05-15T12:36:17.000Z</time>
      </trkpt>
      <trkpt lat="46.82701" lon="6.37736">
        <ele>1240.5999755859</ele>
        <time>2023-05-15T12:36:26.000Z</time>
      </trkpt>
      <trkpt lat="46.82684" lon="6.37722">
        <ele>1240.8000488281</ele>
        <time>2023-05-15T12:36:31.000Z</time>
      </trkpt>
      <trkpt lat="46.82672" lon="6.37698">
        <ele>1241</ele>
        <time>2023-05-15T12:36:37.000Z</time>
      </trkpt>
      <trkpt lat="46.82665" lon="6.37674">
        <ele>1241.1999511719</ele>
        <time>2023-05-15T12:36:44.000Z</time>
      </trkpt>
      <trkpt lat="46.82664" lon="6.3766">
        <ele>1241.1999511719</ele>
        <time>2023-05-15T12:36:48.000Z</time>
      </trkpt>
      <trkpt lat="46.82664" lon="6.37656">
        <ele>1241.4000244141</ele>
        <time>2023-05-15T12:36:49.000Z</time>
      </trkpt>
      <trkpt lat="46.82664" lon="6.37656">
        <ele>1241.4000244141</ele>
        <time>2023-05-15T12:36:51.000Z</time>
      </trkpt>
      <trkpt lat="46.82661" lon="6.37672">
        <ele>1239.1999511719</ele>
        <time>2023-05-15T12:37:29.000Z</time>
      </trkpt>
      <trkpt lat="46.82659" lon="6.37674">
        <ele>1239.1999511719</ele>
        <time>2023-05-15T12:37:30.000Z</time>
      </trkpt>
      <trkpt lat="46.82647" lon="6.37675">
        <ele>1239</ele>
        <time>2023-05-15T12:37:36.000Z</time>
      </trkpt>
      <trkpt lat="46.82634" lon="6.37667">
        <ele>1238.5999755859</ele>
        <time>2023-05-15T12:37:42.000Z</time>
      </trkpt>
      <trkpt lat="46.82621" lon="6.37659">
        <ele>1237.4000244141</ele>
        <time>2023-05-15T12:37:48.000Z</time>
      </trkpt>
      <trkpt lat="46.82619" lon="6.37657">
        <ele>1237.4000244141</ele>
        <time>2023-05-15T12:37:49.000Z</time>
      </trkpt>
      <trkpt lat="46.82611" lon="6.37654">
        <ele>1237</ele>
        <time>2023-05-15T12:37:52.000Z</time>
      </trkpt>
      <trkpt lat="46.82598" lon="6.37648">
        <ele>1237</ele>
        <time>2023-05-15T12:37:57.000Z</time>
      </trkpt>
      <trkpt lat="46.82583" lon="6.3764">
        <ele>1237.1999511719</ele>
        <time>2023-05-15T12:38:02.000Z</time>
      </trkpt>
      <trkpt lat="46.82574" lon="6.37634">
        <ele>1237.1999511719</ele>
        <time>2023-05-15T12:38:05.000Z</time>
      </trkpt>
      <trkpt lat="46.82571" lon="6.37632">
        <ele>1237.4000244141</ele>
        <time>2023-05-15T12:38:07.000Z</time>
      </trkpt>
      <trkpt lat="46.8257" lon="6.3763">
        <ele>1237.1999511719</ele>
        <time>2023-05-15T12:38:09.000Z</time>
      </trkpt>
      <trkpt lat="46.82561" lon="6.37624">
        <ele>1237</ele>
        <time>2023-05-15T12:38:13.000Z</time>
      </trkpt>
      <trkpt lat="46.82547" lon="6.37608">
        <ele>1237.1999511719</ele>
        <time>2023-05-15T12:38:19.000Z</time>
      </trkpt>
      <trkpt lat="46.82544" lon="6.37604">
        <ele>1237.1999511719</ele>
        <time>2023-05-15T12:38:21.000Z</time>
      </trkpt>
      <trkpt lat="46.82541" lon="6.37595">
        <ele>1236.8000488281</ele>
        <time>2023-05-15T12:38:25.000Z</time>
      </trkpt>
      <trkpt lat="46.82541" lon="6.37595">
        <ele>1237</ele>
        <time>2023-05-15T12:38:27.000Z</time>
      </trkpt>
      <trkpt lat="46.8254" lon="6.37593">
        <ele>1237</ele>
        <time>2023-05-15T12:38:28.000Z</time>
      </trkpt>
      <trkpt lat="46.82534" lon="6.37586">
        <ele>1236.8000488281</ele>
        <time>2023-05-15T12:38:29.000Z</time>
      </trkpt>
      <trkpt lat="46.8253" lon="6.37579">
        <ele>1236.8000488281</ele>
        <time>2023-05-15T12:38:31.000Z</time>
      </trkpt>
      <trkpt lat="46.82518" lon="6.37552">
        <ele>1236.5999755859</ele>
        <time>2023-05-15T12:38:36.000Z</time>
      </trkpt>
      <trkpt lat="46.82518" lon="6.3755">
        <ele>1236.5999755859</ele>
        <time>2023-05-15T12:38:37.000Z</time>
      </trkpt>
      <trkpt lat="46.82517" lon="6.37542">
        <ele>1236.4000244141</ele>
        <time>2023-05-15T12:38:40.000Z</time>
      </trkpt>
      <trkpt lat="46.82513" lon="6.37523">
        <ele>1236.5999755859</ele>
        <time>2023-05-15T12:38:45.000Z</time>
      </trkpt>
      <trkpt lat="46.82512" lon="6.3752">
        <ele>1236.5999755859</ele>
        <time>2023-05-15T12:38:46.000Z</time>
      </trkpt>
      <trkpt lat="46.82504" lon="6.37495">
        <ele>1236.1999511719</ele>
        <time>2023-05-15T12:38:52.000Z</time>
      </trkpt>
      <trkpt lat="46.82502" lon="6.37489">
        <ele>1236.1999511719</ele>
        <time>2023-05-15T12:38:54.000Z</time>
      </trkpt>
      <trkpt lat="46.82501" lon="6.37485">
        <ele>1236</ele>
        <time>2023-05-15T12:38:56.000Z</time>
      </trkpt>
      <trkpt lat="46.82493" lon="6.37452">
        <ele>1236</ele>
        <time>2023-05-15T12:39:03.000Z</time>
      </trkpt>
      <trkpt lat="46.82492" lon="6.37441">
        <ele>1236</ele>
        <time>2023-05-15T12:39:07.000Z</time>
      </trkpt>
      <trkpt lat="46.8249" lon="6.37438">
        <ele>1236</ele>
        <time>2023-05-15T12:39:09.000Z</time>
      </trkpt>
      <trkpt lat="46.82484" lon="6.37429">
        <ele>1236</ele>
        <time>2023-05-15T12:39:12.000Z</time>
      </trkpt>
      <trkpt lat="46.82479" lon="6.37423">
        <ele>1236</ele>
        <time>2023-05-15T12:39:15.000Z</time>
      </trkpt>
      <trkpt lat="46.82472" lon="6.37416">
        <ele>1236</ele>
        <time>2023-05-15T12:39:19.000Z</time>
      </trkpt>
      <trkpt lat="46.82467" lon="6.37413">
        <ele>1236.1999511719</ele>
        <time>2023-05-15T12:39:21.000Z</time>
      </trkpt>
      <trkpt lat="46.82455" lon="6.37392">
        <ele>1236</ele>
        <time>2023-05-15T12:39:28.000Z</time>
      </trkpt>
      <trkpt lat="46.82448" lon="6.37371">
        <ele>1235.8000488281</ele>
        <time>2023-05-15T12:39:35.000Z</time>
      </trkpt>
      <trkpt lat="46.82442" lon="6.37356">
        <ele>1236</ele>
        <time>2023-05-15T12:39:40.000Z</time>
      </trkpt>
      <trkpt lat="46.82442" lon="6.37356">
        <ele>1235.8000488281</ele>
        <time>2023-05-15T12:39:41.000Z</time>
      </trkpt>
      <trkpt lat="46.82438" lon="6.37358">
        <ele>1235.8000488281</ele>
        <time>2023-05-15T12:39:42.000Z</time>
      </trkpt>
      <trkpt lat="46.82434" lon="6.37361">
        <ele>1236</ele>
        <time>2023-05-15T12:39:44.000Z</time>
      </trkpt>
      <trkpt lat="46.82429" lon="6.37366">
        <ele>1235.8000488281</ele>
        <time>2023-05-15T12:39:46.000Z</time>
      </trkpt>
      <trkpt lat="46.8242" lon="6.37371">
        <ele>1235.5999755859</ele>
        <time>2023-05-15T12:39:50.000Z</time>
      </trkpt>
      <trkpt lat="46.82418" lon="6.37373">
        <ele>1235.8000488281</ele>
        <time>2023-05-15T12:39:51.000Z</time>
      </trkpt>
      <trkpt lat="46.82409" lon="6.37382">
        <ele>1235.8000488281</ele>
        <time>2023-05-15T12:39:56.000Z</time>
      </trkpt>
      <trkpt lat="46.82395" lon="6.37389">
        <ele>1235.5999755859</ele>
        <time>2023-05-15T12:40:02.000Z</time>
      </trkpt>
      <trkpt lat="46.82393" lon="6.3739">
        <ele>1235.8000488281</ele>
        <time>2023-05-15T12:40:03.000Z</time>
      </trkpt>
      <trkpt lat="46.8239" lon="6.37393">
        <ele>1235.8000488281</ele>
        <time>2023-05-15T12:40:06.000Z</time>
      </trkpt>
      <trkpt lat="46.82388" lon="6.37394">
        <ele>1235.5999755859</ele>
        <time>2023-05-15T12:40:07.000Z</time>
      </trkpt>
      <trkpt lat="46.82384" lon="6.37395">
        <ele>1235.1999511719</ele>
        <time>2023-05-15T12:40:10.000Z</time>
      </trkpt>
      <trkpt lat="46.82383" lon="6.37396">
        <ele>1234.8000488281</ele>
        <time>2023-05-15T12:40:11.000Z</time>
      </trkpt>
      <trkpt lat="46.82378" lon="6.37399">
        <ele>1234.5999755859</ele>
        <time>2023-05-15T12:40:14.000Z</time>
      </trkpt>
      <trkpt lat="46.82359" lon="6.37404">
        <ele>1234</ele>
        <time>2023-05-15T12:40:21.000Z</time>
      </trkpt>
      <trkpt lat="46.82357" lon="6.37405">
        <ele>1234</ele>
        <time>2023-05-15T12:40:22.000Z</time>
      </trkpt>
      <trkpt lat="46.82337" lon="6.37415">
        <ele>1233.5999755859</ele>
        <time>2023-05-15T12:40:30.000Z</time>
      </trkpt>
      <trkpt lat="46.82335" lon="6.37415">
        <ele>1233.5999755859</ele>
        <time>2023-05-15T12:40:31.000Z</time>
      </trkpt>
      <trkpt lat="46.82329" lon="6.37414">
        <ele>1233.4000244141</ele>
        <time>2023-05-15T12:40:34.000Z</time>
      </trkpt>
      <trkpt lat="46.82326" lon="6.37415">
        <ele>1233.4000244141</ele>
        <time>2023-05-15T12:40:36.000Z</time>
      </trkpt>
      <trkpt lat="46.82323" lon="6.37415">
        <ele>1233.1999511719</ele>
        <time>2023-05-15T12:40:38.000Z</time>
      </trkpt>
      <trkpt lat="46.82313" lon="6.37412">
        <ele>1233</ele>
        <time>2023-05-15T12:40:43.000Z</time>
      </trkpt>
      <trkpt lat="46.8231" lon="6.37411">
        <ele>1233</ele>
        <time>2023-05-15T12:40:44.000Z</time>
      </trkpt>
      <trkpt lat="46.82307" lon="6.3741">
        <ele>1233</ele>
        <time>2023-05-15T12:40:45.000Z</time>
      </trkpt>
      <trkpt lat="46.82298" lon="6.37407">
        <ele>1232.1999511719</ele>
        <time>2023-05-15T12:40:49.000Z</time>
      </trkpt>
      <trkpt lat="46.82291" lon="6.37411">
        <ele>1231.5999755859</ele>
        <time>2023-05-15T12:40:53.000Z</time>
      </trkpt>
      <trkpt lat="46.82287" lon="6.37413">
        <ele>1231.4000244141</ele>
        <time>2023-05-15T12:40:55.000Z</time>
      </trkpt>
      <trkpt lat="46.82278" lon="6.37418">
        <ele>1231.1999511719</ele>
        <time>2023-05-15T12:40:59.000Z</time>
      </trkpt>
      <trkpt lat="46.82275" lon="6.37417">
        <ele>1231</ele>
        <time>2023-05-15T12:41:00.000Z</time>
      </trkpt>
      <trkpt lat="46.82263" lon="6.37423">
        <ele>1231</ele>
        <time>2023-05-15T12:41:05.000Z</time>
      </trkpt>
      <trkpt lat="46.8226" lon="6.37423">
        <ele>1230.8000488281</ele>
        <time>2023-05-15T12:41:06.000Z</time>
      </trkpt>
      <trkpt lat="46.82256" lon="6.37422">
        <ele>1231</ele>
        <time>2023-05-15T12:41:08.000Z</time>
      </trkpt>
      <trkpt lat="46.82244" lon="6.37422">
        <ele>1231</ele>
        <time>2023-05-15T12:41:12.000Z</time>
      </trkpt>
      <trkpt lat="46.82242" lon="6.37423">
        <ele>1230.8000488281</ele>
        <time>2023-05-15T12:41:14.000Z</time>
      </trkpt>
      <trkpt lat="46.82238" lon="6.37426">
        <ele>1230.8000488281</ele>
        <time>2023-05-15T12:41:16.000Z</time>
      </trkpt>
      <trkpt lat="46.82236" lon="6.3743">
        <ele>1230.5999755859</ele>
        <time>2023-05-15T12:41:18.000Z</time>
      </trkpt>
      <trkpt lat="46.82227" lon="6.3743">
        <ele>1230.4000244141</ele>
        <time>2023-05-15T12:41:21.000Z</time>
      </trkpt>
      <trkpt lat="46.82225" lon="6.37431">
        <ele>1230.1999511719</ele>
        <time>2023-05-15T12:41:22.000Z</time>
      </trkpt>
      <trkpt lat="46.82208" lon="6.37432">
        <ele>1230</ele>
        <time>2023-05-15T12:41:29.000Z</time>
      </trkpt>
      <trkpt lat="46.82191" lon="6.37426">
        <ele>1230.1999511719</ele>
        <time>2023-05-15T12:41:34.000Z</time>
      </trkpt>
      <trkpt lat="46.82187" lon="6.37426">
        <ele>1230.1999511719</ele>
        <time>2023-05-15T12:41:36.000Z</time>
      </trkpt>
      <trkpt lat="46.82179" lon="6.37424">
        <ele>1230.1999511719</ele>
        <time>2023-05-15T12:41:40.000Z</time>
      </trkpt>
      <trkpt lat="46.82175" lon="6.37428">
        <ele>1230</ele>
        <time>2023-05-15T12:41:42.000Z</time>
      </trkpt>
      <trkpt lat="46.82162" lon="6.37438">
        <ele>1230</ele>
        <time>2023-05-15T12:41:49.000Z</time>
      </trkpt>
      <trkpt lat="46.8216" lon="6.37441">
        <ele>1230</ele>
        <time>2023-05-15T12:41:50.000Z</time>
      </trkpt>
      <trkpt lat="46.82149" lon="6.37446">
        <ele>1230</ele>
        <time>2023-05-15T12:41:54.000Z</time>
      </trkpt>
      <trkpt lat="46.82138" lon="6.37449">
        <ele>1230.1999511719</ele>
        <time>2023-05-15T12:42:00.000Z</time>
      </trkpt>
      <trkpt lat="46.82136" lon="6.37448">
        <ele>1230.1999511719</ele>
        <time>2023-05-15T12:42:01.000Z</time>
      </trkpt>
      <trkpt lat="46.82123" lon="6.3746">
        <ele>1230.1999511719</ele>
        <time>2023-05-15T12:42:07.000Z</time>
      </trkpt>
      <trkpt lat="46.82117" lon="6.37466">
        <ele>1230.1999511719</ele>
        <time>2023-05-15T12:42:09.000Z</time>
      </trkpt>
      <trkpt lat="46.8211" lon="6.37472">
        <ele>1230.1999511719</ele>
        <time>2023-05-15T12:42:12.000Z</time>
      </trkpt>
      <trkpt lat="46.82099" lon="6.37483">
        <ele>1230.1999511719</ele>
        <time>2023-05-15T12:42:18.000Z</time>
      </trkpt>
      <trkpt lat="46.82096" lon="6.37485">
        <ele>1230.4000244141</ele>
        <time>2023-05-15T12:42:22.000Z</time>
      </trkpt>
      <trkpt lat="46.82097" lon="6.37486">
        <ele>1230.1999511719</ele>
        <time>2023-05-15T12:42:23.000Z</time>
      </trkpt>
      <trkpt lat="46.8209" lon="6.375">
        <ele>1230.1999511719</ele>
        <time>2023-05-15T12:42:29.000Z</time>
      </trkpt>
      <trkpt lat="46.82089" lon="6.37502">
        <ele>1230</ele>
        <time>2023-05-15T12:42:30.000Z</time>
      </trkpt>
      <trkpt lat="46.82087" lon="6.37505">
        <ele>1229.8000488281</ele>
        <time>2023-05-15T12:42:31.000Z</time>
      </trkpt>
      <trkpt lat="46.82083" lon="6.37514">
        <ele>1229.1999511719</ele>
        <time>2023-05-15T12:42:35.000Z</time>
      </trkpt>
      <trkpt lat="46.82081" lon="6.3752">
        <ele>1229</ele>
        <time>2023-05-15T12:42:37.000Z</time>
      </trkpt>
      <trkpt lat="46.82074" lon="6.3753">
        <ele>1228.8000488281</ele>
        <time>2023-05-15T12:42:41.000Z</time>
      </trkpt>
      <trkpt lat="46.82071" lon="6.37536">
        <ele>1228.5999755859</ele>
        <time>2023-05-15T12:42:43.000Z</time>
      </trkpt>
      <trkpt lat="46.82067" lon="6.37543">
        <ele>1228.4000244141</ele>
        <time>2023-05-15T12:42:46.000Z</time>
      </trkpt>
      <trkpt lat="46.82066" lon="6.37546">
        <ele>1228.1999511719</ele>
        <time>2023-05-15T12:42:47.000Z</time>
      </trkpt>
      <trkpt lat="46.8206" lon="6.37561">
        <ele>1228</ele>
        <time>2023-05-15T12:42:53.000Z</time>
      </trkpt>
      <trkpt lat="46.82053" lon="6.37577">
        <ele>1227.5999755859</ele>
        <time>2023-05-15T12:43:00.000Z</time>
      </trkpt>
      <trkpt lat="46.82051" lon="6.37579">
        <ele>1227.5999755859</ele>
        <time>2023-05-15T12:43:01.000Z</time>
      </trkpt>
      <trkpt lat="46.82042" lon="6.37592">
        <ele>1227.5999755859</ele>
        <time>2023-05-15T12:43:07.000Z</time>
      </trkpt>
      <trkpt lat="46.82036" lon="6.37603">
        <ele>1227</ele>
        <time>2023-05-15T12:43:13.000Z</time>
      </trkpt>
      <trkpt lat="46.82034" lon="6.37605">
        <ele>1227</ele>
        <time>2023-05-15T12:43:14.000Z</time>
      </trkpt>
      <trkpt lat="46.82031" lon="6.37608">
        <ele>1226.4000244141</ele>
        <time>2023-05-15T12:43:16.000Z</time>
      </trkpt>
      <trkpt lat="46.82027" lon="6.37613">
        <ele>1226.1999511719</ele>
        <time>2023-05-15T12:43:19.000Z</time>
      </trkpt>
      <trkpt lat="46.82025" lon="6.37614">
        <ele>1226</ele>
        <time>2023-05-15T12:43:20.000Z</time>
      </trkpt>
      <trkpt lat="46.82023" lon="6.37615">
        <ele>1226</ele>
        <time>2023-05-15T12:43:21.000Z</time>
      </trkpt>
      <trkpt lat="46.82021" lon="6.37619">
        <ele>1225.5999755859</ele>
        <time>2023-05-15T12:43:23.000Z</time>
      </trkpt>
      <trkpt lat="46.8202" lon="6.37621">
        <ele>1225.4000244141</ele>
        <time>2023-05-15T12:43:24.000Z</time>
      </trkpt>
      <trkpt lat="46.8202" lon="6.37621">
        <ele>1225</ele>
        <time>2023-05-15T12:43:27.000Z</time>
      </trkpt>
      <trkpt lat="46.8202" lon="6.37621">
        <ele>1225</ele>
        <time>2023-05-15T12:43:28.000Z</time>
      </trkpt>
      <trkpt lat="46.81988" lon="6.37653">
        <ele>1221.1999511719</ele>
        <time>2023-05-15T12:44:55.000Z</time>
      </trkpt>
      <trkpt lat="46.81984" lon="6.3765">
        <ele>1221</ele>
        <time>2023-05-15T12:44:56.000Z</time>
      </trkpt>
      <trkpt lat="46.8198" lon="6.37639">
        <ele>1220.4000244141</ele>
        <time>2023-05-15T12:45:00.000Z</time>
      </trkpt>
      <trkpt lat="46.8198" lon="6.37633">
        <ele>1220.1999511719</ele>
        <time>2023-05-15T12:45:02.000Z</time>
      </trkpt>
      <trkpt lat="46.8198" lon="6.37616">
        <ele>1219.1999511719</ele>
        <time>2023-05-15T12:45:08.000Z</time>
      </trkpt>
      <trkpt lat="46.8198" lon="6.37613">
        <ele>1219</ele>
        <time>2023-05-15T12:45:09.000Z</time>
      </trkpt>
      <trkpt lat="46.8198" lon="6.37605">
        <ele>1218.1999511719</ele>
        <time>2023-05-15T12:45:12.000Z</time>
      </trkpt>
      <trkpt lat="46.81979" lon="6.37594">
        <ele>1217.1999511719</ele>
        <time>2023-05-15T12:45:16.000Z</time>
      </trkpt>
      <trkpt lat="46.8198" lon="6.3759">
        <ele>1217</ele>
        <time>2023-05-15T12:45:17.000Z</time>
      </trkpt>
      <trkpt lat="46.8198" lon="6.37585">
        <ele>1216.5999755859</ele>
        <time>2023-05-15T12:45:19.000Z</time>
      </trkpt>
      <trkpt lat="46.8198" lon="6.37576">
        <ele>1216.4000244141</ele>
        <time>2023-05-15T12:45:22.000Z</time>
      </trkpt>
      <trkpt lat="46.81979" lon="6.37567">
        <ele>1215.8000488281</ele>
        <time>2023-05-15T12:45:26.000Z</time>
      </trkpt>
      <trkpt lat="46.81978" lon="6.37564">
        <ele>1215.8000488281</ele>
        <time>2023-05-15T12:45:27.000Z</time>
      </trkpt>
      <trkpt lat="46.81976" lon="6.37558">
        <ele>1215.5999755859</ele>
        <time>2023-05-15T12:45:29.000Z</time>
      </trkpt>
      <trkpt lat="46.81973" lon="6.3754">
        <ele>1215</ele>
        <time>2023-05-15T12:45:35.000Z</time>
      </trkpt>
      <trkpt lat="46.81972" lon="6.37534">
        <ele>1215</ele>
        <time>2023-05-15T12:45:37.000Z</time>
      </trkpt>
      <trkpt lat="46.81971" lon="6.37528">
        <ele>1215</ele>
        <time>2023-05-15T12:45:39.000Z</time>
      </trkpt>
      <trkpt lat="46.81971" lon="6.37525">
        <ele>1215</ele>
        <time>2023-05-15T12:45:40.000Z</time>
      </trkpt>
      <trkpt lat="46.81971" lon="6.37517">
        <ele>1215</ele>
        <time>2023-05-15T12:45:42.000Z</time>
      </trkpt>
      <trkpt lat="46.81969" lon="6.37502">
        <ele>1215</ele>
        <time>2023-05-15T12:45:46.000Z</time>
      </trkpt>
      <trkpt lat="46.81969" lon="6.37499">
        <ele>1215</ele>
        <time>2023-05-15T12:45:47.000Z</time>
      </trkpt>
      <trkpt lat="46.81963" lon="6.37465">
        <ele>1215</ele>
        <time>2023-05-15T12:45:55.000Z</time>
      </trkpt>
      <trkpt lat="46.81954" lon="6.37433">
        <ele>1215.1999511719</ele>
        <time>2023-05-15T12:46:01.000Z</time>
      </trkpt>
      <trkpt lat="46.8194" lon="6.37399">
        <ele>1215</ele>
        <time>2023-05-15T12:46:07.000Z</time>
      </trkpt>
      <trkpt lat="46.81924" lon="6.37377">
        <ele>1215</ele>
        <time>2023-05-15T12:46:13.000Z</time>
      </trkpt>
      <trkpt lat="46.81916" lon="6.37371">
        <ele>1215.1999511719</ele>
        <time>2023-05-15T12:46:15.000Z</time>
      </trkpt>
      <trkpt lat="46.81894" lon="6.37354">
        <ele>1215.4000244141</ele>
        <time>2023-05-15T12:46:21.000Z</time>
      </trkpt>
      <trkpt lat="46.8187" lon="6.37338">
        <ele>1215.4000244141</ele>
        <time>2023-05-15T12:46:28.000Z</time>
      </trkpt>
      <trkpt lat="46.81848" lon="6.37326">
        <ele>1216</ele>
        <time>2023-05-15T12:46:34.000Z</time>
      </trkpt>
      <trkpt lat="46.81827" lon="6.37319">
        <ele>1216.5999755859</ele>
        <time>2023-05-15T12:46:40.000Z</time>
      </trkpt>
      <trkpt lat="46.81811" lon="6.37319">
        <ele>1216.4000244141</ele>
        <time>2023-05-15T12:46:46.000Z</time>
      </trkpt>
      <trkpt lat="46.81794" lon="6.37313">
        <ele>1216.5999755859</ele>
        <time>2023-05-15T12:46:52.000Z</time>
      </trkpt>
      <trkpt lat="46.81781" lon="6.3731">
        <ele>1217</ele>
        <time>2023-05-15T12:46:56.000Z</time>
      </trkpt>
      <trkpt lat="46.81776" lon="6.37308">
        <ele>1217.1999511719</ele>
        <time>2023-05-15T12:46:58.000Z</time>
      </trkpt>
      <trkpt lat="46.81759" lon="6.37304">
        <ele>1217.5999755859</ele>
        <time>2023-05-15T12:47:04.000Z</time>
      </trkpt>
      <trkpt lat="46.81741" lon="6.37304">
        <ele>1218</ele>
        <time>2023-05-15T12:47:11.000Z</time>
      </trkpt>
      <trkpt lat="46.8174" lon="6.37305">
        <ele>1218</ele>
        <time>2023-05-15T12:47:12.000Z</time>
      </trkpt>
      <trkpt lat="46.81719" lon="6.37305">
        <ele>1217.8000488281</ele>
        <time>2023-05-15T12:47:18.000Z</time>
      </trkpt>
      <trkpt lat="46.81697" lon="6.37302">
        <ele>1218.4000244141</ele>
        <time>2023-05-15T12:47:26.000Z</time>
      </trkpt>
      <trkpt lat="46.81686" lon="6.37302">
        <ele>1218.4000244141</ele>
        <time>2023-05-15T12:47:30.000Z</time>
      </trkpt>
      <trkpt lat="46.81681" lon="6.37299">
        <ele>1218.4000244141</ele>
        <time>2023-05-15T12:47:32.000Z</time>
      </trkpt>
      <trkpt lat="46.81664" lon="6.37298">
        <ele>1218.5999755859</ele>
        <time>2023-05-15T12:47:36.000Z</time>
      </trkpt>
      <trkpt lat="46.81659" lon="6.37298">
        <ele>1218.5999755859</ele>
        <time>2023-05-15T12:47:37.000Z</time>
      </trkpt>
      <trkpt lat="46.81647" lon="6.37301">
        <ele>1219</ele>
        <time>2023-05-15T12:47:40.000Z</time>
      </trkpt>
      <trkpt lat="46.81623" lon="6.37308">
        <ele>1219</ele>
        <time>2023-05-15T12:47:46.000Z</time>
      </trkpt>
      <trkpt lat="46.81603" lon="6.37315">
        <ele>1219.1999511719</ele>
        <time>2023-05-15T12:47:51.000Z</time>
      </trkpt>
      <trkpt lat="46.81593" lon="6.37319">
        <ele>1219.1999511719</ele>
        <time>2023-05-15T12:47:54.000Z</time>
      </trkpt>
      <trkpt lat="46.81574" lon="6.37326">
        <ele>1219.4000244141</ele>
        <time>2023-05-15T12:48:01.000Z</time>
      </trkpt>
      <trkpt lat="46.81552" lon="6.37329">
        <ele>1219.8000488281</ele>
        <time>2023-05-15T12:48:06.000Z</time>
      </trkpt>
      <trkpt lat="46.81534" lon="6.37334">
        <ele>1219.8000488281</ele>
        <time>2023-05-15T12:48:12.000Z</time>
      </trkpt>
      <trkpt lat="46.81518" lon="6.37336">
        <ele>1219.8000488281</ele>
        <time>2023-05-15T12:48:17.000Z</time>
      </trkpt>
      <trkpt lat="46.81495" lon="6.37339">
        <ele>1219.8000488281</ele>
        <time>2023-05-15T12:48:23.000Z</time>
      </trkpt>
      <trkpt lat="46.81464" lon="6.3734">
        <ele>1219.5999755859</ele>
        <time>2023-05-15T12:48:30.000Z</time>
      </trkpt>
      <trkpt lat="46.81433" lon="6.37339">
        <ele>1219.4000244141</ele>
        <time>2023-05-15T12:48:37.000Z</time>
      </trkpt>
      <trkpt lat="46.81424" lon="6.37339">
        <ele>1219.1999511719</ele>
        <time>2023-05-15T12:48:39.000Z</time>
      </trkpt>
      <trkpt lat="46.81406" lon="6.37335">
        <ele>1218.5999755859</ele>
        <time>2023-05-15T12:48:43.000Z</time>
      </trkpt>
      <trkpt lat="46.81383" lon="6.37329">
        <ele>1217.8000488281</ele>
        <time>2023-05-15T12:48:48.000Z</time>
      </trkpt>
      <trkpt lat="46.81374" lon="6.37325">
        <ele>1217.8000488281</ele>
        <time>2023-05-15T12:48:50.000Z</time>
      </trkpt>
      <trkpt lat="46.81369" lon="6.37322">
        <ele>1217.8000488281</ele>
        <time>2023-05-15T12:48:51.000Z</time>
      </trkpt>
      <trkpt lat="46.81352" lon="6.37307">
        <ele>1217.5999755859</ele>
        <time>2023-05-15T12:48:55.000Z</time>
      </trkpt>
      <trkpt lat="46.81323" lon="6.37276">
        <ele>1216.8000488281</ele>
        <time>2023-05-15T12:49:02.000Z</time>
      </trkpt>
      <trkpt lat="46.81319" lon="6.37272">
        <ele>1216.8000488281</ele>
        <time>2023-05-15T12:49:03.000Z</time>
      </trkpt>
      <trkpt lat="46.81311" lon="6.37264">
        <ele>1216.5999755859</ele>
        <time>2023-05-15T12:49:05.000Z</time>
      </trkpt>
      <trkpt lat="46.81295" lon="6.37248">
        <ele>1216.1999511719</ele>
        <time>2023-05-15T12:49:10.000Z</time>
      </trkpt>
      <trkpt lat="46.81293" lon="6.37245">
        <ele>1216</ele>
        <time>2023-05-15T12:49:11.000Z</time>
      </trkpt>
      <trkpt lat="46.81278" lon="6.37229">
        <ele>1215.1999511719</ele>
        <time>2023-05-15T12:49:16.000Z</time>
      </trkpt>
      <trkpt lat="46.81274" lon="6.37225">
        <ele>1215.1999511719</ele>
        <time>2023-05-15T12:49:17.000Z</time>
      </trkpt>
      <trkpt lat="46.81264" lon="6.37214">
        <ele>1214.4000244141</ele>
        <time>2023-05-15T12:49:21.000Z</time>
      </trkpt>
      <trkpt lat="46.81262" lon="6.37211">
        <ele>1214.1999511719</ele>
        <time>2023-05-15T12:49:22.000Z</time>
      </trkpt>
      <trkpt lat="46.81251" lon="6.37199">
        <ele>1213.5999755859</ele>
        <time>2023-05-15T12:49:26.000Z</time>
      </trkpt>
      <trkpt lat="46.81248" lon="6.37196">
        <ele>1213</ele>
        <time>2023-05-15T12:49:27.000Z</time>
      </trkpt>
      <trkpt lat="46.81239" lon="6.37185">
        <ele>1212</ele>
        <time>2023-05-15T12:49:30.000Z</time>
      </trkpt>
      <trkpt lat="46.81226" lon="6.3717">
        <ele>1211.4000244141</ele>
        <time>2023-05-15T12:49:35.000Z</time>
      </trkpt>
      <trkpt lat="46.81224" lon="6.37168">
        <ele>1211</ele>
        <time>2023-05-15T12:49:36.000Z</time>
      </trkpt>
      <trkpt lat="46.81212" lon="6.37156">
        <ele>1209.8000488281</ele>
        <time>2023-05-15T12:49:40.000Z</time>
      </trkpt>
      <trkpt lat="46.812" lon="6.37144">
        <ele>1209</ele>
        <time>2023-05-15T12:49:45.000Z</time>
      </trkpt>
      <trkpt lat="46.81195" lon="6.37141">
        <ele>1208.8000488281</ele>
        <time>2023-05-15T12:49:47.000Z</time>
      </trkpt>
      <trkpt lat="46.81189" lon="6.37137">
        <ele>1208.5999755859</ele>
        <time>2023-05-15T12:49:49.000Z</time>
      </trkpt>
      <trkpt lat="46.81163" lon="6.37126">
        <ele>1208.4000244141</ele>
        <time>2023-05-15T12:49:56.000Z</time>
      </trkpt>
      <trkpt lat="46.81153" lon="6.37122">
        <ele>1208</ele>
        <time>2023-05-15T12:49:59.000Z</time>
      </trkpt>
      <trkpt lat="46.81131" lon="6.37112">
        <ele>1207.1999511719</ele>
        <time>2023-05-15T12:50:05.000Z</time>
      </trkpt>
      <trkpt lat="46.81127" lon="6.37111">
        <ele>1207.1999511719</ele>
        <time>2023-05-15T12:50:06.000Z</time>
      </trkpt>
      <trkpt lat="46.81116" lon="6.37108">
        <ele>1206.8000488281</ele>
        <time>2023-05-15T12:50:09.000Z</time>
      </trkpt>
      <trkpt lat="46.81098" lon="6.37103">
        <ele>1206.4000244141</ele>
        <time>2023-05-15T12:50:13.000Z</time>
      </trkpt>
      <trkpt lat="46.81093" lon="6.37101">
        <ele>1206.4000244141</ele>
        <time>2023-05-15T12:50:14.000Z</time>
      </trkpt>
      <trkpt lat="46.81088" lon="6.371">
        <ele>1206.4000244141</ele>
        <time>2023-05-15T12:50:15.000Z</time>
      </trkpt>
      <trkpt lat="46.81069" lon="6.37095">
        <ele>1206</ele>
        <time>2023-05-15T12:50:18.000Z</time>
      </trkpt>
      <trkpt lat="46.81033" lon="6.37085">
        <ele>1205.5999755859</ele>
        <time>2023-05-15T12:50:23.000Z</time>
      </trkpt>
      <trkpt lat="46.81025" lon="6.37082">
        <ele>1205.5999755859</ele>
        <time>2023-05-15T12:50:24.000Z</time>
      </trkpt>
      <trkpt lat="46.81018" lon="6.37079">
        <ele>1205.4000244141</ele>
        <time>2023-05-15T12:50:25.000Z</time>
      </trkpt>
      <trkpt lat="46.80991" lon="6.37065">
        <ele>1205.1999511719</ele>
        <time>2023-05-15T12:50:28.000Z</time>
      </trkpt>
      <trkpt lat="46.80955" lon="6.37046">
        <ele>1204.8000488281</ele>
        <time>2023-05-15T12:50:33.000Z</time>
      </trkpt>
      <trkpt lat="46.80939" lon="6.37038">
        <ele>1205</ele>
        <time>2023-05-15T12:50:36.000Z</time>
      </trkpt>
      <trkpt lat="46.80926" lon="6.37037">
        <ele>1205.1999511719</ele>
        <time>2023-05-15T12:50:38.000Z</time>
      </trkpt>
      <trkpt lat="46.8092" lon="6.37034">
        <ele>1205.1999511719</ele>
        <time>2023-05-15T12:50:39.000Z</time>
      </trkpt>
      <trkpt lat="46.80902" lon="6.37028">
        <ele>1205.1999511719</ele>
        <time>2023-05-15T12:50:42.000Z</time>
      </trkpt>
      <trkpt lat="46.80886" lon="6.37025">
        <ele>1205.1999511719</ele>
        <time>2023-05-15T12:50:45.000Z</time>
      </trkpt>
      <trkpt lat="46.8087" lon="6.37015">
        <ele>1205.4000244141</ele>
        <time>2023-05-15T12:50:48.000Z</time>
      </trkpt>
      <trkpt lat="46.80856" lon="6.37009">
        <ele>1205.5999755859</ele>
        <time>2023-05-15T12:50:51.000Z</time>
      </trkpt>
      <trkpt lat="46.80848" lon="6.37006">
        <ele>1205.8000488281</ele>
        <time>2023-05-15T12:50:53.000Z</time>
      </trkpt>
      <trkpt lat="46.80826" lon="6.37002">
        <ele>1206</ele>
        <time>2023-05-15T12:50:59.000Z</time>
      </trkpt>
      <trkpt lat="46.80823" lon="6.37001">
        <ele>1206</ele>
        <time>2023-05-15T12:51:00.000Z</time>
      </trkpt>
      <trkpt lat="46.80802" lon="6.36991">
        <ele>1206</ele>
        <time>2023-05-15T12:51:06.000Z</time>
      </trkpt>
      <trkpt lat="46.80794" lon="6.36986">
        <ele>1206</ele>
        <time>2023-05-15T12:51:08.000Z</time>
      </trkpt>
      <trkpt lat="46.80767" lon="6.36965">
        <ele>1206.1999511719</ele>
        <time>2023-05-15T12:51:15.000Z</time>
      </trkpt>
      <trkpt lat="46.8076" lon="6.36962">
        <ele>1206.1999511719</ele>
        <time>2023-05-15T12:51:17.000Z</time>
      </trkpt>
      <trkpt lat="46.8074" lon="6.36956">
        <ele>1206</ele>
        <time>2023-05-15T12:51:22.000Z</time>
      </trkpt>
      <trkpt lat="46.8072" lon="6.36954">
        <ele>1206</ele>
        <time>2023-05-15T12:51:28.000Z</time>
      </trkpt>
      <trkpt lat="46.80699" lon="6.36957">
        <ele>1205.5999755859</ele>
        <time>2023-05-15T12:51:34.000Z</time>
      </trkpt>
      <trkpt lat="46.80685" lon="6.36961">
        <ele>1205.5999755859</ele>
        <time>2023-05-15T12:51:38.000Z</time>
      </trkpt>
      <trkpt lat="46.80679" lon="6.36962">
        <ele>1205.4000244141</ele>
        <time>2023-05-15T12:51:40.000Z</time>
      </trkpt>
      <trkpt lat="46.80677" lon="6.36964">
        <ele>1205.4000244141</ele>
        <time>2023-05-15T12:51:41.000Z</time>
      </trkpt>
      <trkpt lat="46.80658" lon="6.36966">
        <ele>1205.1999511719</ele>
        <time>2023-05-15T12:51:46.000Z</time>
      </trkpt>
      <trkpt lat="46.80636" lon="6.36965">
        <ele>1205</ele>
        <time>2023-05-15T12:51:51.000Z</time>
      </trkpt>
      <trkpt lat="46.80619" lon="6.36963">
        <ele>1204.8000488281</ele>
        <time>2023-05-15T12:51:56.000Z</time>
      </trkpt>
      <trkpt lat="46.80617" lon="6.36964">
        <ele>1204.8000488281</ele>
        <time>2023-05-15T12:51:57.000Z</time>
      </trkpt>
      <trkpt lat="46.8061" lon="6.3697">
        <ele>1204.8000488281</ele>
        <time>2023-05-15T12:51:59.000Z</time>
      </trkpt>
      <trkpt lat="46.80605" lon="6.36974">
        <ele>1204.8000488281</ele>
        <time>2023-05-15T12:52:00.000Z</time>
      </trkpt>
      <trkpt lat="46.80591" lon="6.36984">
        <ele>1204.5999755859</ele>
        <time>2023-05-15T12:52:04.000Z</time>
      </trkpt>
      <trkpt lat="46.80578" lon="6.36999">
        <ele>1204.5999755859</ele>
        <time>2023-05-15T12:52:08.000Z</time>
      </trkpt>
      <trkpt lat="46.80556" lon="6.37024">
        <ele>1204.5999755859</ele>
        <time>2023-05-15T12:52:15.000Z</time>
      </trkpt>
      <trkpt lat="46.80526" lon="6.3704">
        <ele>1204.4000244141</ele>
        <time>2023-05-15T12:52:21.000Z</time>
      </trkpt>
      <trkpt lat="46.80513" lon="6.37045">
        <ele>1204.4000244141</ele>
        <time>2023-05-15T12:52:23.000Z</time>
      </trkpt>
      <trkpt lat="46.80489" lon="6.37054">
        <ele>1204.1999511719</ele>
        <time>2023-05-15T12:52:26.000Z</time>
      </trkpt>
      <trkpt lat="46.80452" lon="6.37068">
        <ele>1204</ele>
        <time>2023-05-15T12:52:30.000Z</time>
      </trkpt>
      <trkpt lat="46.80442" lon="6.37071">
        <ele>1204</ele>
        <time>2023-05-15T12:52:31.000Z</time>
      </trkpt>
      <trkpt lat="46.80412" lon="6.37073">
        <ele>1203.8000488281</ele>
        <time>2023-05-15T12:52:34.000Z</time>
      </trkpt>
      <trkpt lat="46.8038" lon="6.37071">
        <ele>1203.4000244141</ele>
        <time>2023-05-15T12:52:37.000Z</time>
      </trkpt>
      <trkpt lat="46.80359" lon="6.37065">
        <ele>1203</ele>
        <time>2023-05-15T12:52:39.000Z</time>
      </trkpt>
      <trkpt lat="46.8034" lon="6.37053">
        <ele>1202.8000488281</ele>
        <time>2023-05-15T12:52:41.000Z</time>
      </trkpt>
      <trkpt lat="46.8033" lon="6.37045">
        <ele>1202.8000488281</ele>
        <time>2023-05-15T12:52:42.000Z</time>
      </trkpt>
      <trkpt lat="46.80312" lon="6.37031">
        <ele>1202.5999755859</ele>
        <time>2023-05-15T12:52:44.000Z</time>
      </trkpt>
      <trkpt lat="46.80302" lon="6.37027">
        <ele>1202.5999755859</ele>
        <time>2023-05-15T12:52:45.000Z</time>
      </trkpt>
      <trkpt lat="46.80291" lon="6.37025">
        <ele>1202.4000244141</ele>
        <time>2023-05-15T12:52:46.000Z</time>
      </trkpt>
      <trkpt lat="46.80271" lon="6.37026">
        <ele>1202</ele>
        <time>2023-05-15T12:52:48.000Z</time>
      </trkpt>
      <trkpt lat="46.80231" lon="6.37029">
        <ele>1201.4000244141</ele>
        <time>2023-05-15T12:52:52.000Z</time>
      </trkpt>
      <trkpt lat="46.80202" lon="6.37027">
        <ele>1201.4000244141</ele>
        <time>2023-05-15T12:52:55.000Z</time>
      </trkpt>
      <trkpt lat="46.80166" lon="6.3702">
        <ele>1200.5999755859</ele>
        <time>2023-05-15T12:52:59.000Z</time>
      </trkpt>
      <trkpt lat="46.80148" lon="6.37014">
        <ele>1200.4000244141</ele>
        <time>2023-05-15T12:53:01.000Z</time>
      </trkpt>
      <trkpt lat="46.80089" lon="6.36991">
        <ele>1199.8000488281</ele>
        <time>2023-05-15T12:53:08.000Z</time>
      </trkpt>
      <trkpt lat="46.80081" lon="6.36988">
        <ele>1199.8000488281</ele>
        <time>2023-05-15T12:53:09.000Z</time>
      </trkpt>
      <trkpt lat="46.80073" lon="6.36985">
        <ele>1199.5999755859</ele>
        <time>2023-05-15T12:53:10.000Z</time>
      </trkpt>
      <trkpt lat="46.80033" lon="6.36969">
        <ele>1199.5999755859</ele>
        <time>2023-05-15T12:53:16.000Z</time>
      </trkpt>
      <trkpt lat="46.8001" lon="6.3696">
        <ele>1199</ele>
        <time>2023-05-15T12:53:20.000Z</time>
      </trkpt>
      <trkpt lat="46.79993" lon="6.36955">
        <ele>1198.4000244141</ele>
        <time>2023-05-15T12:53:23.000Z</time>
      </trkpt>
      <trkpt lat="46.79976" lon="6.36951">
        <ele>1198.1999511719</ele>
        <time>2023-05-15T12:53:26.000Z</time>
      </trkpt>
      <trkpt lat="46.79959" lon="6.3695">
        <ele>1197.8000488281</ele>
        <time>2023-05-15T12:53:29.000Z</time>
      </trkpt>
      <trkpt lat="46.79953" lon="6.36952">
        <ele>1197.8000488281</ele>
        <time>2023-05-15T12:53:30.000Z</time>
      </trkpt>
      <trkpt lat="46.79947" lon="6.36955">
        <ele>1197.8000488281</ele>
        <time>2023-05-15T12:53:31.000Z</time>
      </trkpt>
      <trkpt lat="46.79936" lon="6.36965">
        <ele>1197.5999755859</ele>
        <time>2023-05-15T12:53:33.000Z</time>
      </trkpt>
      <trkpt lat="46.79917" lon="6.36998">
        <ele>1197.4000244141</ele>
        <time>2023-05-15T12:53:37.000Z</time>
      </trkpt>
      <trkpt lat="46.79912" lon="6.37006">
        <ele>1197</ele>
        <time>2023-05-15T12:53:38.000Z</time>
      </trkpt>
      <trkpt lat="46.7989" lon="6.37044">
        <ele>1196.1999511719</ele>
        <time>2023-05-15T12:53:43.000Z</time>
      </trkpt>
      <trkpt lat="46.79875" lon="6.37064">
        <ele>1195.5999755859</ele>
        <time>2023-05-15T12:53:46.000Z</time>
      </trkpt>
      <trkpt lat="46.7987" lon="6.37069">
        <ele>1195.4000244141</ele>
        <time>2023-05-15T12:53:47.000Z</time>
      </trkpt>
      <trkpt lat="46.79844" lon="6.37091">
        <ele>1195</ele>
        <time>2023-05-15T12:53:52.000Z</time>
      </trkpt>
      <trkpt lat="46.79825" lon="6.37106">
        <ele>1194.4000244141</ele>
        <time>2023-05-15T12:53:56.000Z</time>
      </trkpt>
      <trkpt lat="46.79809" lon="6.3712">
        <ele>1194</ele>
        <time>2023-05-15T12:54:00.000Z</time>
      </trkpt>
      <trkpt lat="46.79798" lon="6.37133">
        <ele>1194</ele>
        <time>2023-05-15T12:54:03.000Z</time>
      </trkpt>
      <trkpt lat="46.79795" lon="6.37136">
        <ele>1193.8000488281</ele>
        <time>2023-05-15T12:54:04.000Z</time>
      </trkpt>
      <trkpt lat="46.79787" lon="6.37143">
        <ele>1193.5999755859</ele>
        <time>2023-05-15T12:54:06.000Z</time>
      </trkpt>
      <trkpt lat="46.79762" lon="6.37157">
        <ele>1193.1999511719</ele>
        <time>2023-05-15T12:54:11.000Z</time>
      </trkpt>
      <trkpt lat="46.79755" lon="6.3716">
        <ele>1193</ele>
        <time>2023-05-15T12:54:12.000Z</time>
      </trkpt>
      <trkpt lat="46.79719" lon="6.37177">
        <ele>1192.4000244141</ele>
        <time>2023-05-15T12:54:19.000Z</time>
      </trkpt>
      <trkpt lat="46.79706" lon="6.37183">
        <ele>1192.1999511719</ele>
        <time>2023-05-15T12:54:22.000Z</time>
      </trkpt>
      <trkpt lat="46.79696" lon="6.37186">
        <ele>1191.8000488281</ele>
        <time>2023-05-15T12:54:25.000Z</time>
      </trkpt>
      <trkpt lat="46.7969" lon="6.37189">
        <ele>1191.1999511719</ele>
        <time>2023-05-15T12:54:28.000Z</time>
      </trkpt>
      <trkpt lat="46.79682" lon="6.37191">
        <ele>1190.8000488281</ele>
        <time>2023-05-15T12:54:32.000Z</time>
      </trkpt>
      <trkpt lat="46.79679" lon="6.37204">
        <ele>1190.5999755859</ele>
        <time>2023-05-15T12:54:36.000Z</time>
      </trkpt>
      <trkpt lat="46.79681" lon="6.37223">
        <ele>1189.4000244141</ele>
        <time>2023-05-15T12:54:40.000Z</time>
      </trkpt>
      <trkpt lat="46.79682" lon="6.37229">
        <ele>1189.1999511719</ele>
        <time>2023-05-15T12:54:41.000Z</time>
      </trkpt>
      <trkpt lat="46.79686" lon="6.37256">
        <ele>1188.5999755859</ele>
        <time>2023-05-15T12:54:46.000Z</time>
      </trkpt>
      <trkpt lat="46.79687" lon="6.37267">
        <ele>1188.1999511719</ele>
        <time>2023-05-15T12:54:48.000Z</time>
      </trkpt>
      <trkpt lat="46.79686" lon="6.37277">
        <ele>1187.8000488281</ele>
        <time>2023-05-15T12:54:50.000Z</time>
      </trkpt>
      <trkpt lat="46.79685" lon="6.37287">
        <ele>1187.5999755859</ele>
        <time>2023-05-15T12:54:52.000Z</time>
      </trkpt>
      <trkpt lat="46.79684" lon="6.37291">
        <ele>1187.4000244141</ele>
        <time>2023-05-15T12:54:53.000Z</time>
      </trkpt>
      <trkpt lat="46.79675" lon="6.37303">
        <ele>1186.8000488281</ele>
        <time>2023-05-15T12:54:57.000Z</time>
      </trkpt>
      <trkpt lat="46.7966" lon="6.37312">
        <ele>1185.8000488281</ele>
        <time>2023-05-15T12:55:02.000Z</time>
      </trkpt>
      <trkpt lat="46.79648" lon="6.37316">
        <ele>1184.8000488281</ele>
        <time>2023-05-15T12:55:06.000Z</time>
      </trkpt>
      <trkpt lat="46.79632" lon="6.37329">
        <ele>1184</ele>
        <time>2023-05-15T12:55:12.000Z</time>
      </trkpt>
      <trkpt lat="46.7963" lon="6.37331">
        <ele>1184</ele>
        <time>2023-05-15T12:55:13.000Z</time>
      </trkpt>
      <trkpt lat="46.7962" lon="6.37338">
        <ele>1183</ele>
        <time>2023-05-15T12:55:17.000Z</time>
      </trkpt>
      <trkpt lat="46.79614" lon="6.37345">
        <ele>1182.5999755859</ele>
        <time>2023-05-15T12:55:20.000Z</time>
      </trkpt>
      <trkpt lat="46.79611" lon="6.37355">
        <ele>1182</ele>
        <time>2023-05-15T12:55:23.000Z</time>
      </trkpt>
      <trkpt lat="46.79611" lon="6.37357">
        <ele>1182</ele>
        <time>2023-05-15T12:55:24.000Z</time>
      </trkpt>
      <trkpt lat="46.79611" lon="6.3736">
        <ele>1181.8000488281</ele>
        <time>2023-05-15T12:55:25.000Z</time>
      </trkpt>
      <trkpt lat="46.79616" lon="6.37376">
        <ele>1180.8000488281</ele>
        <time>2023-05-15T12:55:30.000Z</time>
      </trkpt>
      <trkpt lat="46.7962" lon="6.37381">
        <ele>1180.5999755859</ele>
        <time>2023-05-15T12:55:32.000Z</time>
      </trkpt>
      <trkpt lat="46.79625" lon="6.37386">
        <ele>1180</ele>
        <time>2023-05-15T12:55:35.000Z</time>
      </trkpt>
      <trkpt lat="46.79625" lon="6.37388">
        <ele>1179.8000488281</ele>
        <time>2023-05-15T12:55:36.000Z</time>
      </trkpt>
      <trkpt lat="46.79624" lon="6.3739">
        <ele>1179.5999755859</ele>
        <time>2023-05-15T12:55:37.000Z</time>
      </trkpt>
      <trkpt lat="46.79614" lon="6.37397">
        <ele>1178.5999755859</ele>
        <time>2023-05-15T12:55:42.000Z</time>
      </trkpt>
      <trkpt lat="46.79613" lon="6.374">
        <ele>1178.5999755859</ele>
        <time>2023-05-15T12:55:43.000Z</time>
      </trkpt>
      <trkpt lat="46.79609" lon="6.37403">
        <ele>1178.1999511719</ele>
        <time>2023-05-15T12:55:45.000Z</time>
      </trkpt>
      <trkpt lat="46.79607" lon="6.374">
        <ele>1177.8000488281</ele>
        <time>2023-05-15T12:55:47.000Z</time>
      </trkpt>
      <trkpt lat="46.79607" lon="6.37397">
        <ele>1177.5999755859</ele>
        <time>2023-05-15T12:55:48.000Z</time>
      </trkpt>
      <trkpt lat="46.79607" lon="6.37388">
        <ele>1177</ele>
        <time>2023-05-15T12:55:51.000Z</time>
      </trkpt>
      <trkpt lat="46.79607" lon="6.37385">
        <ele>1176.8000488281</ele>
        <time>2023-05-15T12:55:52.000Z</time>
      </trkpt>
      <trkpt lat="46.79607" lon="6.37382">
        <ele>1176.8000488281</ele>
        <time>2023-05-15T12:55:53.000Z</time>
      </trkpt>
      <trkpt lat="46.79603" lon="6.37371">
        <ele>1176</ele>
        <time>2023-05-15T12:55:57.000Z</time>
      </trkpt>
      <trkpt lat="46.79601" lon="6.3737">
        <ele>1175.5999755859</ele>
        <time>2023-05-15T12:55:58.000Z</time>
      </trkpt>
      <trkpt lat="46.79596" lon="6.37371">
        <ele>1175.1999511719</ele>
        <time>2023-05-15T12:56:00.000Z</time>
      </trkpt>
      <trkpt lat="46.79595" lon="6.37374">
        <ele>1175.1999511719</ele>
        <time>2023-05-15T12:56:01.000Z</time>
      </trkpt>
      <trkpt lat="46.79593" lon="6.37381">
        <ele>1174.5999755859</ele>
        <time>2023-05-15T12:56:04.000Z</time>
      </trkpt>
      <trkpt lat="46.79593" lon="6.37391">
        <ele>1174</ele>
        <time>2023-05-15T12:56:07.000Z</time>
      </trkpt>
      <trkpt lat="46.79592" lon="6.37403">
        <ele>1173.4000244141</ele>
        <time>2023-05-15T12:56:11.000Z</time>
      </trkpt>
      <trkpt lat="46.79593" lon="6.37409">
        <ele>1172.8000488281</ele>
        <time>2023-05-15T12:56:15.000Z</time>
      </trkpt>
      <trkpt lat="46.79593" lon="6.37409">
        <ele>1172.5999755859</ele>
        <time>2023-05-15T12:56:16.000Z</time>
      </trkpt>
      <trkpt lat="46.79591" lon="6.37424">
        <ele>1120.4000244141</ele>
        <time>2023-05-15T13:01:22.000Z</time>
      </trkpt>
      <trkpt lat="46.79591" lon="6.37428">
        <ele>1120.5999755859</ele>
        <time>2023-05-15T13:01:23.000Z</time>
      </trkpt>
      <trkpt lat="46.79592" lon="6.37432">
        <ele>1120.8000488281</ele>
        <time>2023-05-15T13:01:24.000Z</time>
      </trkpt>
      <trkpt lat="46.79593" lon="6.37465">
        <ele>1121.1999511719</ele>
        <time>2023-05-15T13:01:32.000Z</time>
      </trkpt>
      <trkpt lat="46.79595" lon="6.37479">
        <ele>1121.5999755859</ele>
        <time>2023-05-15T13:01:36.000Z</time>
      </trkpt>
      <trkpt lat="46.79597" lon="6.37495">
        <ele>1122.1999511719</ele>
        <time>2023-05-15T13:01:41.000Z</time>
      </trkpt>
      <trkpt lat="46.79597" lon="6.37501">
        <ele>1122.4000244141</ele>
        <time>2023-05-15T13:01:43.000Z</time>
      </trkpt>
      <trkpt lat="46.79596" lon="6.37517">
        <ele>1122.8000488281</ele>
        <time>2023-05-15T13:01:48.000Z</time>
      </trkpt>
      <trkpt lat="46.79596" lon="6.37525">
        <ele>1123</ele>
        <time>2023-05-15T13:01:51.000Z</time>
      </trkpt>
      <trkpt lat="46.79596" lon="6.37528">
        <ele>1123.4000244141</ele>
        <time>2023-05-15T13:01:52.000Z</time>
      </trkpt>
      <trkpt lat="46.79596" lon="6.37531">
        <ele>1123.4000244141</ele>
        <time>2023-05-15T13:01:53.000Z</time>
      </trkpt>
      <trkpt lat="46.79595" lon="6.37543">
        <ele>1124</ele>
        <time>2023-05-15T13:01:57.000Z</time>
      </trkpt>
      <trkpt lat="46.79595" lon="6.37547">
        <ele>1124.1999511719</ele>
        <time>2023-05-15T13:01:59.000Z</time>
      </trkpt>
      <trkpt lat="46.79594" lon="6.3755">
        <ele>1124.1999511719</ele>
        <time>2023-05-15T13:02:00.000Z</time>
      </trkpt>
      <trkpt lat="46.7959" lon="6.37561">
        <ele>1125</ele>
        <time>2023-05-15T13:02:06.000Z</time>
      </trkpt>
      <trkpt lat="46.79589" lon="6.37563">
        <ele>1124.8000488281</ele>
        <time>2023-05-15T13:02:07.000Z</time>
      </trkpt>
      <trkpt lat="46.79587" lon="6.37565">
        <ele>1125</ele>
        <time>2023-05-15T13:02:09.000Z</time>
      </trkpt>
      <trkpt lat="46.79586" lon="6.37566">
        <ele>1125.1999511719</ele>
        <time>2023-05-15T13:02:11.000Z</time>
      </trkpt>
      <trkpt lat="46.79585" lon="6.37567">
        <ele>1125.4000244141</ele>
        <time>2023-05-15T13:02:12.000Z</time>
      </trkpt>
      <trkpt lat="46.7958" lon="6.3757">
        <ele>1125.8000488281</ele>
        <time>2023-05-15T13:02:16.000Z</time>
      </trkpt>
      <trkpt lat="46.79576" lon="6.37572">
        <ele>1126.1999511719</ele>
        <time>2023-05-15T13:02:19.000Z</time>
      </trkpt>
      <trkpt lat="46.79575" lon="6.37573">
        <ele>1126.1999511719</ele>
        <time>2023-05-15T13:02:20.000Z</time>
      </trkpt>
      <trkpt lat="46.79568" lon="6.37574">
        <ele>1126.5999755859</ele>
        <time>2023-05-15T13:02:26.000Z</time>
      </trkpt>
      <trkpt lat="46.79565" lon="6.37574">
        <ele>1126.8000488281</ele>
        <time>2023-05-15T13:02:28.000Z</time>
      </trkpt>
      <trkpt lat="46.79563" lon="6.37575">
        <ele>1127.1999511719</ele>
        <time>2023-05-15T13:02:31.000Z</time>
      </trkpt>
      <trkpt lat="46.79559" lon="6.37576">
        <ele>1127.4000244141</ele>
        <time>2023-05-15T13:02:34.000Z</time>
      </trkpt>
      <trkpt lat="46.79555" lon="6.37576">
        <ele>1127.5999755859</ele>
        <time>2023-05-15T13:02:36.000Z</time>
      </trkpt>
      <trkpt lat="46.79554" lon="6.37576">
        <ele>1127.5999755859</ele>
        <time>2023-05-15T13:02:37.000Z</time>
      </trkpt>
      <trkpt lat="46.79553" lon="6.37576">
        <ele>1127.8000488281</ele>
        <time>2023-05-15T13:02:38.000Z</time>
      </trkpt>
      <trkpt lat="46.79541" lon="6.37581">
        <ele>1128.1999511719</ele>
        <time>2023-05-15T13:02:46.000Z</time>
      </trkpt>
      <trkpt lat="46.79534" lon="6.3758">
        <ele>1128.4000244141</ele>
        <time>2023-05-15T13:02:50.000Z</time>
      </trkpt>
      <trkpt lat="46.7953" lon="6.37579">
        <ele>1128.4000244141</ele>
        <time>2023-05-15T13:02:51.000Z</time>
      </trkpt>
      <trkpt lat="46.79528" lon="6.37582">
        <ele>1128.5999755859</ele>
        <time>2023-05-15T13:02:53.000Z</time>
      </trkpt>
      <trkpt lat="46.79527" lon="6.37583">
        <ele>1128.8000488281</ele>
        <time>2023-05-15T13:02:54.000Z</time>
      </trkpt>
      <trkpt lat="46.79524" lon="6.37584">
        <ele>1129.1999511719</ele>
        <time>2023-05-15T13:02:57.000Z</time>
      </trkpt>
      <trkpt lat="46.79522" lon="6.37584">
        <ele>1129.1999511719</ele>
        <time>2023-05-15T13:02:58.000Z</time>
      </trkpt>
      <trkpt lat="46.79515" lon="6.37585">
        <ele>1129.5999755859</ele>
        <time>2023-05-15T13:03:02.000Z</time>
      </trkpt>
      <trkpt lat="46.79514" lon="6.37585">
        <ele>1129.8000488281</ele>
        <time>2023-05-15T13:03:03.000Z</time>
      </trkpt>
      <trkpt lat="46.79512" lon="6.37584">
        <ele>1130</ele>
        <time>2023-05-15T13:03:05.000Z</time>
      </trkpt>
      <trkpt lat="46.79504" lon="6.37584">
        <ele>1130.5999755859</ele>
        <time>2023-05-15T13:03:10.000Z</time>
      </trkpt>
      <trkpt lat="46.79501" lon="6.37583">
        <ele>1131</ele>
        <time>2023-05-15T13:03:12.000Z</time>
      </trkpt>
      <trkpt lat="46.79496" lon="6.37583">
        <ele>1131.1999511719</ele>
        <time>2023-05-15T13:03:14.000Z</time>
      </trkpt>
      <trkpt lat="46.79494" lon="6.37583">
        <ele>1131.4000244141</ele>
        <time>2023-05-15T13:03:15.000Z</time>
      </trkpt>
      <trkpt lat="46.79482" lon="6.37579">
        <ele>1131.5999755859</ele>
        <time>2023-05-15T13:03:19.000Z</time>
      </trkpt>
      <trkpt lat="46.79469" lon="6.37575">
        <ele>1132.1999511719</ele>
        <time>2023-05-15T13:03:23.000Z</time>
      </trkpt>
      <trkpt lat="46.79448" lon="6.3757">
        <ele>1132.5999755859</ele>
        <time>2023-05-15T13:03:28.000Z</time>
      </trkpt>
      <trkpt lat="46.79442" lon="6.37569">
        <ele>1132.5999755859</ele>
        <time>2023-05-15T13:03:29.000Z</time>
      </trkpt>
      <trkpt lat="46.79425" lon="6.37564">
        <ele>1133.1999511719</ele>
        <time>2023-05-15T13:03:34.000Z</time>
      </trkpt>
      <trkpt lat="46.79422" lon="6.37563">
        <ele>1133.4000244141</ele>
        <time>2023-05-15T13:03:35.000Z</time>
      </trkpt>
      <trkpt lat="46.79413" lon="6.37561">
        <ele>1134</ele>
        <time>2023-05-15T13:03:38.000Z</time>
      </trkpt>
      <trkpt lat="46.79408" lon="6.37559">
        <ele>1134.4000244141</ele>
        <time>2023-05-15T13:03:40.000Z</time>
      </trkpt>
      <trkpt lat="46.79396" lon="6.37564">
        <ele>1135.4000244141</ele>
        <time>2023-05-15T13:03:45.000Z</time>
      </trkpt>
      <trkpt lat="46.79393" lon="6.37563">
        <ele>1135.4000244141</ele>
        <time>2023-05-15T13:03:46.000Z</time>
      </trkpt>
      <trkpt lat="46.79374" lon="6.37564">
        <ele>1136.1999511719</ele>
        <time>2023-05-15T13:03:53.000Z</time>
      </trkpt>
      <trkpt lat="46.79368" lon="6.37565">
        <ele>1136.5999755859</ele>
        <time>2023-05-15T13:03:55.000Z</time>
      </trkpt>
      <trkpt lat="46.79358" lon="6.37567">
        <ele>1137.5999755859</ele>
        <time>2023-05-15T13:04:00.000Z</time>
      </trkpt>
      <trkpt lat="46.7935" lon="6.37568">
        <ele>1138.1999511719</ele>
        <time>2023-05-15T13:04:03.000Z</time>
      </trkpt>
      <trkpt lat="46.79347" lon="6.37572">
        <ele>1138.5999755859</ele>
        <time>2023-05-15T13:04:05.000Z</time>
      </trkpt>
      <trkpt lat="46.79337" lon="6.37576">
        <ele>1139.5999755859</ele>
        <time>2023-05-15T13:04:09.000Z</time>
      </trkpt>
      <trkpt lat="46.79335" lon="6.37577">
        <ele>1139.5999755859</ele>
        <time>2023-05-15T13:04:10.000Z</time>
      </trkpt>
      <trkpt lat="46.79327" lon="6.37576">
        <ele>1140.4000244141</ele>
        <time>2023-05-15T13:04:15.000Z</time>
      </trkpt>
      <trkpt lat="46.79326" lon="6.37576">
        <ele>1140.4000244141</ele>
        <time>2023-05-15T13:04:16.000Z</time>
      </trkpt>
      <trkpt lat="46.79326" lon="6.37577">
        <ele>1140.8000488281</ele>
        <time>2023-05-15T13:04:19.000Z</time>
      </trkpt>
      <trkpt lat="46.79319" lon="6.37573">
        <ele>1142.1999511719</ele>
        <time>2023-05-15T13:08:08.000Z</time>
      </trkpt>
      <trkpt lat="46.79316" lon="6.37573">
        <ele>1142</ele>
        <time>2023-05-15T13:08:09.000Z</time>
      </trkpt>
      <trkpt lat="46.79295" lon="6.37568">
        <ele>1141.1999511719</ele>
        <time>2023-05-15T13:08:14.000Z</time>
      </trkpt>
      <trkpt lat="46.79289" lon="6.37567">
        <ele>1141.1999511719</ele>
        <time>2023-05-15T13:08:15.000Z</time>
      </trkpt>
      <trkpt lat="46.79277" lon="6.37563">
        <ele>1141</ele>
        <time>2023-05-15T13:08:17.000Z</time>
      </trkpt>
      <trkpt lat="46.79263" lon="6.37557">
        <ele>1141</ele>
        <time>2023-05-15T13:08:19.000Z</time>
      </trkpt>
      <trkpt lat="46.79249" lon="6.3755">
        <ele>1141</ele>
        <time>2023-05-15T13:08:21.000Z</time>
      </trkpt>
      <trkpt lat="46.79226" lon="6.37539">
        <ele>1140.5999755859</ele>
        <time>2023-05-15T13:08:24.000Z</time>
      </trkpt>
      <trkpt lat="46.79185" lon="6.37527">
        <ele>1140.4000244141</ele>
        <time>2023-05-15T13:08:29.000Z</time>
      </trkpt>
      <trkpt lat="46.79134" lon="6.37513">
        <ele>1140.5999755859</ele>
        <time>2023-05-15T13:08:35.000Z</time>
      </trkpt>
      <trkpt lat="46.79118" lon="6.37507">
        <ele>1140.1999511719</ele>
        <time>2023-05-15T13:08:38.000Z</time>
      </trkpt>
      <trkpt lat="46.79114" lon="6.37506">
        <ele>1140.1999511719</ele>
        <time>2023-05-15T13:08:39.000Z</time>
      </trkpt>
      <trkpt lat="46.79104" lon="6.37506">
        <ele>1140.1999511719</ele>
        <time>2023-05-15T13:08:41.000Z</time>
      </trkpt>
      <trkpt lat="46.791" lon="6.37507">
        <ele>1140.1999511719</ele>
        <time>2023-05-15T13:08:42.000Z</time>
      </trkpt>
      <trkpt lat="46.79089" lon="6.37513">
        <ele>1140.5999755859</ele>
        <time>2023-05-15T13:08:46.000Z</time>
      </trkpt>
      <trkpt lat="46.79077" lon="6.37517">
        <ele>1141</ele>
        <time>2023-05-15T13:08:51.000Z</time>
      </trkpt>
      <trkpt lat="46.79068" lon="6.37519">
        <ele>1141.1999511719</ele>
        <time>2023-05-15T13:08:55.000Z</time>
      </trkpt>
      <trkpt lat="46.79059" lon="6.37521">
        <ele>1141.5999755859</ele>
        <time>2023-05-15T13:08:59.000Z</time>
      </trkpt>
      <trkpt lat="46.79048" lon="6.37522">
        <ele>1142.1999511719</ele>
        <time>2023-05-15T13:09:04.000Z</time>
      </trkpt>
      <trkpt lat="46.79046" lon="6.37522">
        <ele>1142.4000244141</ele>
        <time>2023-05-15T13:09:05.000Z</time>
      </trkpt>
      <trkpt lat="46.7904" lon="6.37523">
        <ele>1142.5999755859</ele>
        <time>2023-05-15T13:09:08.000Z</time>
      </trkpt>
      <trkpt lat="46.79032" lon="6.37525">
        <ele>1143</ele>
        <time>2023-05-15T13:09:12.000Z</time>
      </trkpt>
      <trkpt lat="46.79025" lon="6.37525">
        <ele>1143.4000244141</ele>
        <time>2023-05-15T13:09:17.000Z</time>
      </trkpt>
      <trkpt lat="46.79023" lon="6.37525">
        <ele>1143.5999755859</ele>
        <time>2023-05-15T13:09:18.000Z</time>
      </trkpt>
      <trkpt lat="46.79007" lon="6.37527">
        <ele>1143.8000488281</ele>
        <time>2023-05-15T13:09:27.000Z</time>
      </trkpt>
      <trkpt lat="46.79003" lon="6.37528">
        <ele>1144</ele>
        <time>2023-05-15T13:09:29.000Z</time>
      </trkpt>
      <trkpt lat="46.78993" lon="6.37531">
        <ele>1144.1999511719</ele>
        <time>2023-05-15T13:09:36.000Z</time>
      </trkpt>
      <trkpt lat="46.78992" lon="6.37531">
        <ele>1144.1999511719</ele>
        <time>2023-05-15T13:09:37.000Z</time>
      </trkpt>
      <trkpt lat="46.78985" lon="6.37535">
        <ele>1144.4000244141</ele>
        <time>2023-05-15T13:09:43.000Z</time>
      </trkpt>
      <trkpt lat="46.78982" lon="6.37536">
        <ele>1144.4000244141</ele>
        <time>2023-05-15T13:09:45.000Z</time>
      </trkpt>
      <trkpt lat="46.78981" lon="6.37537">
        <ele>1144.4000244141</ele>
        <time>2023-05-15T13:09:46.000Z</time>
      </trkpt>
      <trkpt lat="46.78977" lon="6.3754">
        <ele>1144.5999755859</ele>
        <time>2023-05-15T13:09:50.000Z</time>
      </trkpt>
      <trkpt lat="46.78973" lon="6.37541">
        <ele>1144.5999755859</ele>
        <time>2023-05-15T13:09:53.000Z</time>
      </trkpt>
      <trkpt lat="46.78969" lon="6.37543">
        <ele>1144.5999755859</ele>
        <time>2023-05-15T13:09:56.000Z</time>
      </trkpt>
      <trkpt lat="46.78968" lon="6.37544">
        <ele>1144.5999755859</ele>
        <time>2023-05-15T13:09:57.000Z</time>
      </trkpt>
      <trkpt lat="46.78954" lon="6.37553">
        <ele>1144.4000244141</ele>
        <time>2023-05-15T13:10:07.000Z</time>
      </trkpt>
      <trkpt lat="46.78951" lon="6.37554">
        <ele>1144.4000244141</ele>
        <time>2023-05-15T13:10:09.000Z</time>
      </trkpt>
      <trkpt lat="46.78945" lon="6.37555">
        <ele>1144.1999511719</ele>
        <time>2023-05-15T13:10:14.000Z</time>
      </trkpt>
      <trkpt lat="46.78934" lon="6.37556">
        <ele>1143.5999755859</ele>
        <time>2023-05-15T13:10:19.000Z</time>
      </trkpt>
      <trkpt lat="46.78912" lon="6.37558">
        <ele>1143.1999511719</ele>
        <time>2023-05-15T13:10:27.000Z</time>
      </trkpt>
      <trkpt lat="46.78893" lon="6.37556">
        <ele>1143</ele>
        <time>2023-05-15T13:10:32.000Z</time>
      </trkpt>
      <trkpt lat="46.78863" lon="6.37559">
        <ele>1143</ele>
        <time>2023-05-15T13:10:38.000Z</time>
      </trkpt>
      <trkpt lat="46.78858" lon="6.3756">
        <ele>1143</ele>
        <time>2023-05-15T13:10:39.000Z</time>
      </trkpt>
      <trkpt lat="46.78845" lon="6.37564">
        <ele>1142.8000488281</ele>
        <time>2023-05-15T13:10:42.000Z</time>
      </trkpt>
      <trkpt lat="46.78841" lon="6.37566">
        <ele>1142.8000488281</ele>
        <time>2023-05-15T13:10:43.000Z</time>
      </trkpt>
      <trkpt lat="46.78831" lon="6.37569">
        <ele>1143.1999511719</ele>
        <time>2023-05-15T13:10:47.000Z</time>
      </trkpt>
      <trkpt lat="46.78817" lon="6.37575">
        <ele>1143.8000488281</ele>
        <time>2023-05-15T13:10:53.000Z</time>
      </trkpt>
      <trkpt lat="46.78799" lon="6.37575">
        <ele>1144.1999511719</ele>
        <time>2023-05-15T13:11:00.000Z</time>
      </trkpt>
      <trkpt lat="46.78788" lon="6.37567">
        <ele>1144.4000244141</ele>
        <time>2023-05-15T13:11:04.000Z</time>
      </trkpt>
      <trkpt lat="46.78781" lon="6.37563">
        <ele>1144.5999755859</ele>
        <time>2023-05-15T13:11:07.000Z</time>
      </trkpt>
      <trkpt lat="46.7876" lon="6.37559">
        <ele>1144.8000488281</ele>
        <time>2023-05-15T13:11:13.000Z</time>
      </trkpt>
      <trkpt lat="46.78743" lon="6.37568">
        <ele>1144.5999755859</ele>
        <time>2023-05-15T13:11:19.000Z</time>
      </trkpt>
      <trkpt lat="46.78718" lon="6.37578">
        <ele>1144.8000488281</ele>
        <time>2023-05-15T13:11:28.000Z</time>
      </trkpt>
      <trkpt lat="46.78702" lon="6.37582">
        <ele>1145.4000244141</ele>
        <time>2023-05-15T13:11:36.000Z</time>
      </trkpt>
      <trkpt lat="46.78698" lon="6.37583">
        <ele>1145.4000244141</ele>
        <time>2023-05-15T13:11:37.000Z</time>
      </trkpt>
      <trkpt lat="46.78687" lon="6.37588">
        <ele>1145.4000244141</ele>
        <time>2023-05-15T13:11:44.000Z</time>
      </trkpt>
      <trkpt lat="46.78677" lon="6.37594">
        <ele>1145.4000244141</ele>
        <time>2023-05-15T13:11:50.000Z</time>
      </trkpt>
      <trkpt lat="46.78673" lon="6.37599">
        <ele>1145.1999511719</ele>
        <time>2023-05-15T13:11:52.000Z</time>
      </trkpt>
      <trkpt lat="46.7867" lon="6.376">
        <ele>1145.1999511719</ele>
        <time>2023-05-15T13:11:54.000Z</time>
      </trkpt>
      <trkpt lat="46.7867" lon="6.376">
        <ele>1145.1999511719</ele>
        <time>2023-05-15T13:11:55.000Z</time>
      </trkpt>
      <trkpt lat="46.78656" lon="6.37614">
        <ele>1145.8000488281</ele>
        <time>2023-05-15T13:12:04.000Z</time>
      </trkpt>
      <trkpt lat="46.78646" lon="6.37618">
        <ele>1146</ele>
        <time>2023-05-15T13:12:08.000Z</time>
      </trkpt>
      <trkpt lat="46.7864" lon="6.37621">
        <ele>1146</ele>
        <time>2023-05-15T13:12:12.000Z</time>
      </trkpt>
      <trkpt lat="46.78634" lon="6.37623">
        <ele>1146</ele>
        <time>2023-05-15T13:12:16.000Z</time>
      </trkpt>
      <trkpt lat="46.78632" lon="6.37627">
        <ele>1146.1999511719</ele>
        <time>2023-05-15T13:12:19.000Z</time>
      </trkpt>
      <trkpt lat="46.78631" lon="6.37628">
        <ele>1146.1999511719</ele>
        <time>2023-05-15T13:12:20.000Z</time>
      </trkpt>
      <trkpt lat="46.78628" lon="6.37631">
        <ele>1146.5999755859</ele>
        <time>2023-05-15T13:12:25.000Z</time>
      </trkpt>
      <trkpt lat="46.78621" lon="6.37636">
        <ele>1146.4000244141</ele>
        <time>2023-05-15T13:12:33.000Z</time>
      </trkpt>
      <trkpt lat="46.78614" lon="6.3764">
        <ele>1146.1999511719</ele>
        <time>2023-05-15T13:12:40.000Z</time>
      </trkpt>
      <trkpt lat="46.78612" lon="6.37641">
        <ele>1146.4000244141</ele>
        <time>2023-05-15T13:12:42.000Z</time>
      </trkpt>
      <trkpt lat="46.78604" lon="6.37644">
        <ele>1146.1999511719</ele>
        <time>2023-05-15T13:12:47.000Z</time>
      </trkpt>
      <trkpt lat="46.78591" lon="6.37646">
        <ele>1145.8000488281</ele>
        <time>2023-05-15T13:12:55.000Z</time>
      </trkpt>
      <trkpt lat="46.78582" lon="6.37646">
        <ele>1146</ele>
        <time>2023-05-15T13:13:00.000Z</time>
      </trkpt>
      <trkpt lat="46.7858" lon="6.37646">
        <ele>1146</ele>
        <time>2023-05-15T13:13:02.000Z</time>
      </trkpt>
      <trkpt lat="46.78577" lon="6.37645">
        <ele>1146</ele>
        <time>2023-05-15T13:13:03.000Z</time>
      </trkpt>
      <trkpt lat="46.78575" lon="6.37645">
        <ele>1146</ele>
        <time>2023-05-15T13:13:06.000Z</time>
      </trkpt>
      <trkpt lat="46.78556" lon="6.37637">
        <ele>1145.8000488281</ele>
        <time>2023-05-15T13:13:13.000Z</time>
      </trkpt>
      <trkpt lat="46.78536" lon="6.37636">
        <ele>1146</ele>
        <time>2023-05-15T13:13:18.000Z</time>
      </trkpt>
      <trkpt lat="46.78521" lon="6.37636">
        <ele>1146.1999511719</ele>
        <time>2023-05-15T13:13:25.000Z</time>
      </trkpt>
      <trkpt lat="46.78507" lon="6.37636">
        <ele>1146.4000244141</ele>
        <time>2023-05-15T13:13:33.000Z</time>
      </trkpt>
      <trkpt lat="46.78496" lon="6.37635">
        <ele>1146.5999755859</ele>
        <time>2023-05-15T13:13:38.000Z</time>
      </trkpt>
      <trkpt lat="46.78489" lon="6.37634">
        <ele>1146.8000488281</ele>
        <time>2023-05-15T13:13:40.000Z</time>
      </trkpt>
      <trkpt lat="46.78472" lon="6.37634">
        <ele>1146.5999755859</ele>
        <time>2023-05-15T13:13:45.000Z</time>
      </trkpt>
      <trkpt lat="46.78469" lon="6.37634">
        <ele>1146.8000488281</ele>
        <time>2023-05-15T13:13:46.000Z</time>
      </trkpt>
      <trkpt lat="46.78454" lon="6.37634">
        <ele>1146.8000488281</ele>
        <time>2023-05-15T13:13:52.000Z</time>
      </trkpt>
      <trkpt lat="46.78449" lon="6.37634">
        <ele>1146.8000488281</ele>
        <time>2023-05-15T13:13:54.000Z</time>
      </trkpt>
      <trkpt lat="46.78439" lon="6.37632">
        <ele>1146.8000488281</ele>
        <time>2023-05-15T13:13:58.000Z</time>
      </trkpt>
      <trkpt lat="46.7843" lon="6.37632">
        <ele>1147</ele>
        <time>2023-05-15T13:14:01.000Z</time>
      </trkpt>
      <trkpt lat="46.78423" lon="6.37631">
        <ele>1147.4000244141</ele>
        <time>2023-05-15T13:14:03.000Z</time>
      </trkpt>
      <trkpt lat="46.78412" lon="6.37627">
        <ele>1147</ele>
        <time>2023-05-15T13:14:06.000Z</time>
      </trkpt>
      <trkpt lat="46.78409" lon="6.37627">
        <ele>1147</ele>
        <time>2023-05-15T13:14:07.000Z</time>
      </trkpt>
      <trkpt lat="46.78404" lon="6.37626">
        <ele>1147</ele>
        <time>2023-05-15T13:14:09.000Z</time>
      </trkpt>
      <trkpt lat="46.78392" lon="6.37621">
        <ele>1147</ele>
        <time>2023-05-15T13:14:14.000Z</time>
      </trkpt>
      <trkpt lat="46.78389" lon="6.37621">
        <ele>1147.1999511719</ele>
        <time>2023-05-15T13:14:15.000Z</time>
      </trkpt>
      <trkpt lat="46.78364" lon="6.37612">
        <ele>1147.5999755859</ele>
        <time>2023-05-15T13:14:22.000Z</time>
      </trkpt>
      <trkpt lat="46.78335" lon="6.37595">
        <ele>1147.8000488281</ele>
        <time>2023-05-15T13:14:29.000Z</time>
      </trkpt>
      <trkpt lat="46.78332" lon="6.37594">
        <ele>1148</ele>
        <time>2023-05-15T13:14:31.000Z</time>
      </trkpt>
      <trkpt lat="46.78316" lon="6.37594">
        <ele>1148.1999511719</ele>
        <time>2023-05-15T13:14:36.000Z</time>
      </trkpt>
      <trkpt lat="46.78303" lon="6.37596">
        <ele>1148.8000488281</ele>
        <time>2023-05-15T13:14:40.000Z</time>
      </trkpt>
      <trkpt lat="46.78296" lon="6.37596">
        <ele>1149</ele>
        <time>2023-05-15T13:14:42.000Z</time>
      </trkpt>
      <trkpt lat="46.78274" lon="6.37593">
        <ele>1149.4000244141</ele>
        <time>2023-05-15T13:14:49.000Z</time>
      </trkpt>
      <trkpt lat="46.78263" lon="6.37591">
        <ele>1149.5999755859</ele>
        <time>2023-05-15T13:14:52.000Z</time>
      </trkpt>
      <trkpt lat="46.78253" lon="6.37587">
        <ele>1150.4000244141</ele>
        <time>2023-05-15T13:14:56.000Z</time>
      </trkpt>
      <trkpt lat="46.78246" lon="6.37584">
        <ele>1150.5999755859</ele>
        <time>2023-05-15T13:14:58.000Z</time>
      </trkpt>
      <trkpt lat="46.78216" lon="6.3758">
        <ele>1151.1999511719</ele>
        <time>2023-05-15T13:15:05.000Z</time>
      </trkpt>
      <trkpt lat="46.78206" lon="6.37577">
        <ele>1151.4000244141</ele>
        <time>2023-05-15T13:15:07.000Z</time>
      </trkpt>
      <trkpt lat="46.78201" lon="6.37575">
        <ele>1151.5999755859</ele>
        <time>2023-05-15T13:15:08.000Z</time>
      </trkpt>
      <trkpt lat="46.78182" lon="6.37568">
        <ele>1151.8000488281</ele>
        <time>2023-05-15T13:15:11.000Z</time>
      </trkpt>
      <trkpt lat="46.78155" lon="6.3756">
        <ele>1152.1999511719</ele>
        <time>2023-05-15T13:15:16.000Z</time>
      </trkpt>
      <trkpt lat="46.78144" lon="6.3756">
        <ele>1152.4000244141</ele>
        <time>2023-05-15T13:15:18.000Z</time>
      </trkpt>
      <trkpt lat="46.78134" lon="6.37559">
        <ele>1152.4000244141</ele>
        <time>2023-05-15T13:15:20.000Z</time>
      </trkpt>
      <trkpt lat="46.78125" lon="6.37559">
        <ele>1152.5999755859</ele>
        <time>2023-05-15T13:15:22.000Z</time>
      </trkpt>
      <trkpt lat="46.78121" lon="6.37559">
        <ele>1152.5999755859</ele>
        <time>2023-05-15T13:15:23.000Z</time>
      </trkpt>
      <trkpt lat="46.78094" lon="6.37557">
        <ele>1153</ele>
        <time>2023-05-15T13:15:28.000Z</time>
      </trkpt>
      <trkpt lat="46.78077" lon="6.37557">
        <ele>1153</ele>
        <time>2023-05-15T13:15:31.000Z</time>
      </trkpt>
      <trkpt lat="46.78052" lon="6.37559">
        <ele>1153</ele>
        <time>2023-05-15T13:15:35.000Z</time>
      </trkpt>
      <trkpt lat="46.78033" lon="6.37561">
        <ele>1153</ele>
        <time>2023-05-15T13:15:39.000Z</time>
      </trkpt>
      <trkpt lat="46.78029" lon="6.37563">
        <ele>1153</ele>
        <time>2023-05-15T13:15:40.000Z</time>
      </trkpt>
      <trkpt lat="46.78026" lon="6.37565">
        <ele>1153</ele>
        <time>2023-05-15T13:15:41.000Z</time>
      </trkpt>
      <trkpt lat="46.7802" lon="6.37573">
        <ele>1153.1999511719</ele>
        <time>2023-05-15T13:15:43.000Z</time>
      </trkpt>
      <trkpt lat="46.7802" lon="6.37573">
        <ele>1153.4000244141</ele>
        <time>2023-05-15T13:15:44.000Z</time>
      </trkpt>
      <trkpt lat="46.78013" lon="6.37589">
        <ele>1153.8000488281</ele>
        <time>2023-05-15T13:15:47.000Z</time>
      </trkpt>
      <trkpt lat="46.78012" lon="6.37593">
        <ele>1153.8000488281</ele>
        <time>2023-05-15T13:15:48.000Z</time>
      </trkpt>
      <trkpt lat="46.78" lon="6.37603">
        <ele>1154</ele>
        <time>2023-05-15T13:15:53.000Z</time>
      </trkpt>
      <trkpt lat="46.7798" lon="6.376">
        <ele>1154</ele>
        <time>2023-05-15T13:15:57.000Z</time>
      </trkpt>
      <trkpt lat="46.77966" lon="6.37601">
        <ele>1153.8000488281</ele>
        <time>2023-05-15T13:15:59.000Z</time>
      </trkpt>
      <trkpt lat="46.77952" lon="6.37599">
        <ele>1153.5999755859</ele>
        <time>2023-05-15T13:16:01.000Z</time>
      </trkpt>
      <trkpt lat="46.77909" lon="6.37589">
        <ele>1152.8000488281</ele>
        <time>2023-05-15T13:16:08.000Z</time>
      </trkpt>
      <trkpt lat="46.77898" lon="6.37592">
        <ele>1152.8000488281</ele>
        <time>2023-05-15T13:16:10.000Z</time>
      </trkpt>
      <trkpt lat="46.77887" lon="6.37599">
        <ele>1152.5999755859</ele>
        <time>2023-05-15T13:16:12.000Z</time>
      </trkpt>
      <trkpt lat="46.77853" lon="6.37625">
        <ele>1152.4000244141</ele>
        <time>2023-05-15T13:16:17.000Z</time>
      </trkpt>
      <trkpt lat="46.77819" lon="6.37653">
        <ele>1152.1999511719</ele>
        <time>2023-05-15T13:16:22.000Z</time>
      </trkpt>
      <trkpt lat="46.77806" lon="6.37666">
        <ele>1152</ele>
        <time>2023-05-15T13:16:24.000Z</time>
      </trkpt>
      <trkpt lat="46.77783" lon="6.37688">
        <ele>1151.8000488281</ele>
        <time>2023-05-15T13:16:27.000Z</time>
      </trkpt>
      <trkpt lat="46.77745" lon="6.37709">
        <ele>1151.8000488281</ele>
        <time>2023-05-15T13:16:31.000Z</time>
      </trkpt>
      <trkpt lat="46.77692" lon="6.37743">
        <ele>1151.5999755859</ele>
        <time>2023-05-15T13:16:36.000Z</time>
      </trkpt>
      <trkpt lat="46.77654" lon="6.37764">
        <ele>1151</ele>
        <time>2023-05-15T13:16:40.000Z</time>
      </trkpt>
      <trkpt lat="46.77645" lon="6.37769">
        <ele>1151</ele>
        <time>2023-05-15T13:16:41.000Z</time>
      </trkpt>
      <trkpt lat="46.77599" lon="6.37794">
        <ele>1150</ele>
        <time>2023-05-15T13:16:47.000Z</time>
      </trkpt>
      <trkpt lat="46.7759" lon="6.37798">
        <ele>1150</ele>
        <time>2023-05-15T13:16:48.000Z</time>
      </trkpt>
      <trkpt lat="46.7757" lon="6.37806">
        <ele>1149.8000488281</ele>
        <time>2023-05-15T13:16:50.000Z</time>
      </trkpt>
      <trkpt lat="46.77532" lon="6.37818">
        <ele>1149.4000244141</ele>
        <time>2023-05-15T13:16:54.000Z</time>
      </trkpt>
      <trkpt lat="46.77524" lon="6.37822">
        <ele>1149</ele>
        <time>2023-05-15T13:16:55.000Z</time>
      </trkpt>
      <trkpt lat="46.77511" lon="6.37827">
        <ele>1148.5999755859</ele>
        <time>2023-05-15T13:16:57.000Z</time>
      </trkpt>
      <trkpt lat="46.77498" lon="6.37826">
        <ele>1148.4000244141</ele>
        <time>2023-05-15T13:16:59.000Z</time>
      </trkpt>
      <trkpt lat="46.77493" lon="6.37822">
        <ele>1148.1999511719</ele>
        <time>2023-05-15T13:17:00.000Z</time>
      </trkpt>
      <trkpt lat="46.77489" lon="6.37817">
        <ele>1148.1999511719</ele>
        <time>2023-05-15T13:17:01.000Z</time>
      </trkpt>
      <trkpt lat="46.77484" lon="6.37807">
        <ele>1148</ele>
        <time>2023-05-15T13:17:02.000Z</time>
      </trkpt>
      <trkpt lat="46.77481" lon="6.37799">
        <ele>1147.8000488281</ele>
        <time>2023-05-15T13:17:03.000Z</time>
      </trkpt>
      <trkpt lat="46.77471" lon="6.37767">
        <ele>1147.1999511719</ele>
        <time>2023-05-15T13:17:07.000Z</time>
      </trkpt>
      <trkpt lat="46.77468" lon="6.37757">
        <ele>1147.1999511719</ele>
        <time>2023-05-15T13:17:08.000Z</time>
      </trkpt>
      <trkpt lat="46.77464" lon="6.37737">
        <ele>1146.5999755859</ele>
        <time>2023-05-15T13:17:11.000Z</time>
      </trkpt>
      <trkpt lat="46.77464" lon="6.37732">
        <ele>1146.5999755859</ele>
        <time>2023-05-15T13:17:12.000Z</time>
      </trkpt>
      <trkpt lat="46.77463" lon="6.37728">
        <ele>1146.4000244141</ele>
        <time>2023-05-15T13:17:13.000Z</time>
      </trkpt>
      <trkpt lat="46.77464" lon="6.37712">
        <ele>1145.8000488281</ele>
        <time>2023-05-15T13:17:17.000Z</time>
      </trkpt>
      <trkpt lat="46.77464" lon="6.37708">
        <ele>1145.5999755859</ele>
        <time>2023-05-15T13:17:18.000Z</time>
      </trkpt>
      <trkpt lat="46.77464" lon="6.37695">
        <ele>1145.1999511719</ele>
        <time>2023-05-15T13:17:22.000Z</time>
      </trkpt>
      <trkpt lat="46.77468" lon="6.37698">
        <ele>1145.1999511719</ele>
        <time>2023-05-15T13:17:25.000Z</time>
      </trkpt>
      <trkpt lat="46.77468" lon="6.37698">
        <ele>1145</ele>
        <time>2023-05-15T13:17:27.000Z</time>
      </trkpt>
      <trkpt lat="46.77463" lon="6.37704">
        <ele>1074.4000244141</ele>
        <time>2023-05-15T13:24:20.000Z</time>
      </trkpt>
      <trkpt lat="46.77465" lon="6.37705">
        <ele>1074.1999511719</ele>
        <time>2023-05-15T13:24:21.000Z</time>
      </trkpt>
      <trkpt lat="46.77477" lon="6.37705">
        <ele>1073.8000488281</ele>
        <time>2023-05-15T13:24:26.000Z</time>
      </trkpt>
      <trkpt lat="46.77495" lon="6.37696">
        <ele>1073.4000244141</ele>
        <time>2023-05-15T13:24:31.000Z</time>
      </trkpt>
      <trkpt lat="46.77499" lon="6.37693">
        <ele>1073.4000244141</ele>
        <time>2023-05-15T13:24:32.000Z</time>
      </trkpt>
      <trkpt lat="46.77519" lon="6.3768">
        <ele>1073.1999511719</ele>
        <time>2023-05-15T13:24:37.000Z</time>
      </trkpt>
      <trkpt lat="46.77548" lon="6.37658">
        <ele>1073.4000244141</ele>
        <time>2023-05-15T13:24:44.000Z</time>
      </trkpt>
      <trkpt lat="46.77553" lon="6.37655">
        <ele>1073.4000244141</ele>
        <time>2023-05-15T13:24:45.000Z</time>
      </trkpt>
      <trkpt lat="46.7757" lon="6.37643">
        <ele>1073.5999755859</ele>
        <time>2023-05-15T13:24:49.000Z</time>
      </trkpt>
      <trkpt lat="46.77597" lon="6.37615">
        <ele>1074</ele>
        <time>2023-05-15T13:24:56.000Z</time>
      </trkpt>
      <trkpt lat="46.77618" lon="6.37587">
        <ele>1074.4000244141</ele>
        <time>2023-05-15T13:25:02.000Z</time>
      </trkpt>
      <trkpt lat="46.77627" lon="6.37574">
        <ele>1074.8000488281</ele>
        <time>2023-05-15T13:25:05.000Z</time>
      </trkpt>
      <trkpt lat="46.77643" lon="6.37549">
        <ele>1075.4000244141</ele>
        <time>2023-05-15T13:25:11.000Z</time>
      </trkpt>
      <trkpt lat="46.77653" lon="6.37533">
        <ele>1075.8000488281</ele>
        <time>2023-05-15T13:25:15.000Z</time>
      </trkpt>
      <trkpt lat="46.77657" lon="6.37525">
        <ele>1076</ele>
        <time>2023-05-15T13:25:17.000Z</time>
      </trkpt>
      <trkpt lat="46.77668" lon="6.37505">
        <ele>1077</ele>
        <time>2023-05-15T13:25:22.000Z</time>
      </trkpt>
      <trkpt lat="46.77675" lon="6.37493">
        <ele>1077</ele>
        <time>2023-05-15T13:25:25.000Z</time>
      </trkpt>
      <trkpt lat="46.77688" lon="6.3747">
        <ele>1077.5999755859</ele>
        <time>2023-05-15T13:25:31.000Z</time>
      </trkpt>
      <trkpt lat="46.7769" lon="6.37466">
        <ele>1077.8000488281</ele>
        <time>2023-05-15T13:25:32.000Z</time>
      </trkpt>
      <trkpt lat="46.77698" lon="6.37442">
        <ele>1078.1999511719</ele>
        <time>2023-05-15T13:25:38.000Z</time>
      </trkpt>
      <trkpt lat="46.77704" lon="6.37424">
        <ele>1078.5999755859</ele>
        <time>2023-05-15T13:25:43.000Z</time>
      </trkpt>
      <trkpt lat="46.77705" lon="6.3742">
        <ele>1078.8000488281</ele>
        <time>2023-05-15T13:25:44.000Z</time>
      </trkpt>
      <trkpt lat="46.7771" lon="6.37393">
        <ele>1079.1999511719</ele>
        <time>2023-05-15T13:25:50.000Z</time>
      </trkpt>
      <trkpt lat="46.77716" lon="6.37375">
        <ele>1079.5999755859</ele>
        <time>2023-05-15T13:25:55.000Z</time>
      </trkpt>
      <trkpt lat="46.77719" lon="6.37362">
        <ele>1079.8000488281</ele>
        <time>2023-05-15T13:25:58.000Z</time>
      </trkpt>
      <trkpt lat="46.77723" lon="6.37352">
        <ele>1080.1999511719</ele>
        <time>2023-05-15T13:26:02.000Z</time>
      </trkpt>
      <trkpt lat="46.77725" lon="6.37347">
        <ele>1080.1999511719</ele>
        <time>2023-05-15T13:26:04.000Z</time>
      </trkpt>
      <trkpt lat="46.77725" lon="6.37344">
        <ele>1080.4000244141</ele>
        <time>2023-05-15T13:26:06.000Z</time>
      </trkpt>
      <trkpt lat="46.77726" lon="6.37343">
        <ele>1080.4000244141</ele>
        <time>2023-05-15T13:26:10.000Z</time>
      </trkpt>
      <trkpt lat="46.77722" lon="6.37335">
        <ele>1080.8000488281</ele>
        <time>2023-05-15T13:26:32.000Z</time>
      </trkpt>
      <trkpt lat="46.77717" lon="6.37322">
        <ele>1080.4000244141</ele>
        <time>2023-05-15T13:26:40.000Z</time>
      </trkpt>
      <trkpt lat="46.77708" lon="6.37311">
        <ele>1080</ele>
        <time>2023-05-15T13:26:45.000Z</time>
      </trkpt>
      <trkpt lat="46.77702" lon="6.373">
        <ele>1079.5999755859</ele>
        <time>2023-05-15T13:26:48.000Z</time>
      </trkpt>
      <trkpt lat="46.77696" lon="6.37286">
        <ele>1079.1999511719</ele>
        <time>2023-05-15T13:26:52.000Z</time>
      </trkpt>
      <trkpt lat="46.77688" lon="6.37275">
        <ele>1078.8000488281</ele>
        <time>2023-05-15T13:26:58.000Z</time>
      </trkpt>
      <trkpt lat="46.77681" lon="6.37268">
        <ele>1078.5999755859</ele>
        <time>2023-05-15T13:27:03.000Z</time>
      </trkpt>
      <trkpt lat="46.77679" lon="6.37267">
        <ele>1078.4000244141</ele>
        <time>2023-05-15T13:27:04.000Z</time>
      </trkpt>
      <trkpt lat="46.77667" lon="6.37253">
        <ele>1078</ele>
        <time>2023-05-15T13:27:10.000Z</time>
      </trkpt>
      <trkpt lat="46.77665" lon="6.37251">
        <ele>1077.8000488281</ele>
        <time>2023-05-15T13:27:11.000Z</time>
      </trkpt>
      <trkpt lat="46.77654" lon="6.37238">
        <ele>1077.4000244141</ele>
        <time>2023-05-15T13:27:16.000Z</time>
      </trkpt>
      <trkpt lat="46.77652" lon="6.37236">
        <ele>1077.1999511719</ele>
        <time>2023-05-15T13:27:17.000Z</time>
      </trkpt>
      <trkpt lat="46.7765" lon="6.37234">
        <ele>1077.1999511719</ele>
        <time>2023-05-15T13:27:18.000Z</time>
      </trkpt>
      <trkpt lat="46.77638" lon="6.37222">
        <ele>1076.8000488281</ele>
        <time>2023-05-15T13:27:24.000Z</time>
      </trkpt>
      <trkpt lat="46.77618" lon="6.37196">
        <ele>1076.4000244141</ele>
        <time>2023-05-15T13:27:35.000Z</time>
      </trkpt>
      <trkpt lat="46.77616" lon="6.37193">
        <ele>1076.1999511719</ele>
        <time>2023-05-15T13:27:36.000Z</time>
      </trkpt>
      <trkpt lat="46.77609" lon="6.3717">
        <ele>1075.8000488281</ele>
        <time>2023-05-15T13:27:41.000Z</time>
      </trkpt>
      <trkpt lat="46.77603" lon="6.37152">
        <ele>1075.4000244141</ele>
        <time>2023-05-15T13:27:46.000Z</time>
      </trkpt>
      <trkpt lat="46.77601" lon="6.37147">
        <ele>1075.1999511719</ele>
        <time>2023-05-15T13:27:48.000Z</time>
      </trkpt>
      <trkpt lat="46.77598" lon="6.3714">
        <ele>1075</ele>
        <time>2023-05-15T13:27:51.000Z</time>
      </trkpt>
      <trkpt lat="46.77591" lon="6.3713">
        <ele>1074.5999755859</ele>
        <time>2023-05-15T13:27:57.000Z</time>
      </trkpt>
      <trkpt lat="46.7759" lon="6.37127">
        <ele>1074.4000244141</ele>
        <time>2023-05-15T13:28:01.000Z</time>
      </trkpt>
      <trkpt lat="46.77583" lon="6.37115">
        <ele>1071</ele>
        <time>2023-05-15T13:28:35.000Z</time>
      </trkpt>
      <trkpt lat="46.77571" lon="6.37091">
        <ele>1070.4000244141</ele>
        <time>2023-05-15T13:28:41.000Z</time>
      </trkpt>
      <trkpt lat="46.7757" lon="6.37087">
        <ele>1070.4000244141</ele>
        <time>2023-05-15T13:28:42.000Z</time>
      </trkpt>
      <trkpt lat="46.77567" lon="6.37077">
        <ele>1070</ele>
        <time>2023-05-15T13:28:45.000Z</time>
      </trkpt>
      <trkpt lat="46.77565" lon="6.37074">
        <ele>1069.5999755859</ele>
        <time>2023-05-15T13:28:46.000Z</time>
      </trkpt>
      <trkpt lat="46.77562" lon="6.37064">
        <ele>1069</ele>
        <time>2023-05-15T13:28:50.000Z</time>
      </trkpt>
      <trkpt lat="46.77561" lon="6.37063">
        <ele>1068.5999755859</ele>
        <time>2023-05-15T13:28:53.000Z</time>
      </trkpt>
      <trkpt lat="46.77556" lon="6.37059">
        <ele>1048.4000244141</ele>
        <time>2023-05-15T13:31:53.000Z</time>
      </trkpt>
      <trkpt lat="46.77556" lon="6.37062">
        <ele>1048.4000244141</ele>
        <time>2023-05-15T13:31:54.000Z</time>
      </trkpt>
      <trkpt lat="46.77558" lon="6.37069">
        <ele>1048.1999511719</ele>
        <time>2023-05-15T13:31:56.000Z</time>
      </trkpt>
      <trkpt lat="46.77562" lon="6.37083">
        <ele>1047.5999755859</ele>
        <time>2023-05-15T13:32:00.000Z</time>
      </trkpt>
      <trkpt lat="46.77567" lon="6.37095">
        <ele>1047.1999511719</ele>
        <time>2023-05-15T13:32:03.000Z</time>
      </trkpt>
      <trkpt lat="46.77582" lon="6.37131">
        <ele>1046.1999511719</ele>
        <time>2023-05-15T13:32:12.000Z</time>
      </trkpt>
      <trkpt lat="46.77587" lon="6.37146">
        <ele>1046.1999511719</ele>
        <time>2023-05-15T13:32:17.000Z</time>
      </trkpt>
      <trkpt lat="46.77595" lon="6.37173">
        <ele>1046.5999755859</ele>
        <time>2023-05-15T13:32:25.000Z</time>
      </trkpt>
      <trkpt lat="46.77594" lon="6.37176">
        <ele>1046.5999755859</ele>
        <time>2023-05-15T13:32:26.000Z</time>
      </trkpt>
      <trkpt lat="46.77587" lon="6.37183">
        <ele>1046.8000488281</ele>
        <time>2023-05-15T13:32:29.000Z</time>
      </trkpt>
      <trkpt lat="46.77578" lon="6.37181">
        <ele>1046.8000488281</ele>
        <time>2023-05-15T13:32:33.000Z</time>
      </trkpt>
      <trkpt lat="46.77569" lon="6.37169">
        <ele>1047</ele>
        <time>2023-05-15T13:32:38.000Z</time>
      </trkpt>
      <trkpt lat="46.77552" lon="6.37159">
        <ele>1047</ele>
        <time>2023-05-15T13:32:45.000Z</time>
      </trkpt>
      <trkpt lat="46.7754" lon="6.37161">
        <ele>1047.4000244141</ele>
        <time>2023-05-15T13:32:51.000Z</time>
      </trkpt>
      <trkpt lat="46.77536" lon="6.37163">
        <ele>1047.8000488281</ele>
        <time>2023-05-15T13:32:53.000Z</time>
      </trkpt>
      <trkpt lat="46.77522" lon="6.37179">
        <ele>1048.1999511719</ele>
        <time>2023-05-15T13:33:02.000Z</time>
      </trkpt>
      <trkpt lat="46.77511" lon="6.37199">
        <ele>1048.5999755859</ele>
        <time>2023-05-15T13:33:11.000Z</time>
      </trkpt>
      <trkpt lat="46.77506" lon="6.37214">
        <ele>1048.8000488281</ele>
        <time>2023-05-15T13:33:18.000Z</time>
      </trkpt>
      <trkpt lat="46.77506" lon="6.37214">
        <ele>1048.8000488281</ele>
        <time>2023-05-15T13:33:19.000Z</time>
      </trkpt>
      <trkpt lat="46.77505" lon="6.37218">
        <ele>1049</ele>
        <time>2023-05-15T13:33:20.000Z</time>
      </trkpt>
      <trkpt lat="46.77504" lon="6.37219">
        <ele>1049</ele>
        <time>2023-05-15T13:33:21.000Z</time>
      </trkpt>
      <trkpt lat="46.77501" lon="6.37227">
        <ele>1049.1999511719</ele>
        <time>2023-05-15T13:33:26.000Z</time>
      </trkpt>
      <trkpt lat="46.77497" lon="6.37232">
        <ele>1049</ele>
        <time>2023-05-15T13:33:29.000Z</time>
      </trkpt>
      <trkpt lat="46.77493" lon="6.37233">
        <ele>1049.1999511719</ele>
        <time>2023-05-15T13:33:32.000Z</time>
      </trkpt>
      <trkpt lat="46.77481" lon="6.37234">
        <ele>1049</ele>
        <time>2023-05-15T13:33:40.000Z</time>
      </trkpt>
      <trkpt lat="46.77466" lon="6.37236">
        <ele>1049</ele>
        <time>2023-05-15T13:33:52.000Z</time>
      </trkpt>
      <trkpt lat="46.77462" lon="6.37236">
        <ele>1049.1999511719</ele>
        <time>2023-05-15T13:33:55.000Z</time>
      </trkpt>
      <trkpt lat="46.77457" lon="6.37235">
        <ele>1049</ele>
        <time>2023-05-15T13:33:58.000Z</time>
      </trkpt>
      <trkpt lat="46.77451" lon="6.37234">
        <ele>1049.1999511719</ele>
        <time>2023-05-15T13:34:04.000Z</time>
      </trkpt>
      <trkpt lat="46.7745" lon="6.37234">
        <ele>1049</ele>
        <time>2023-05-15T13:34:05.000Z</time>
      </trkpt>
      <trkpt lat="46.77439" lon="6.37232">
        <ele>1049</ele>
        <time>2023-05-15T13:34:15.000Z</time>
      </trkpt>
      <trkpt lat="46.77431" lon="6.37228">
        <ele>1048.8000488281</ele>
        <time>2023-05-15T13:34:24.000Z</time>
      </trkpt>
      <trkpt lat="46.77429" lon="6.37225">
        <ele>1048.8000488281</ele>
        <time>2023-05-15T13:34:25.000Z</time>
      </trkpt>
      <trkpt lat="46.77421" lon="6.37219">
        <ele>1048.5999755859</ele>
        <time>2023-05-15T13:34:33.000Z</time>
      </trkpt>
      <trkpt lat="46.77412" lon="6.37211">
        <ele>1048.5999755859</ele>
        <time>2023-05-15T13:34:42.000Z</time>
      </trkpt>
      <trkpt lat="46.77402" lon="6.37206">
        <ele>1048.8000488281</ele>
        <time>2023-05-15T13:34:51.000Z</time>
      </trkpt>
      <trkpt lat="46.77398" lon="6.37205">
        <ele>1048.8000488281</ele>
        <time>2023-05-15T13:34:54.000Z</time>
      </trkpt>
      <trkpt lat="46.77391" lon="6.37203">
        <ele>1049</ele>
        <time>2023-05-15T13:35:01.000Z</time>
      </trkpt>
      <trkpt lat="46.77378" lon="6.37199">
        <ele>1048.5999755859</ele>
        <time>2023-05-15T13:35:12.000Z</time>
      </trkpt>
      <trkpt lat="46.77366" lon="6.37193">
        <ele>1048</ele>
        <time>2023-05-15T13:35:23.000Z</time>
      </trkpt>
      <trkpt lat="46.77365" lon="6.37192">
        <ele>1048</ele>
        <time>2023-05-15T13:35:24.000Z</time>
      </trkpt>
      <trkpt lat="46.77351" lon="6.37181">
        <ele>1047.5999755859</ele>
        <time>2023-05-15T13:35:38.000Z</time>
      </trkpt>
      <trkpt lat="46.77334" lon="6.37171">
        <ele>1047.1999511719</ele>
        <time>2023-05-15T13:35:50.000Z</time>
      </trkpt>
      <trkpt lat="46.77326" lon="6.37167">
        <ele>1047</ele>
        <time>2023-05-15T13:35:56.000Z</time>
      </trkpt>
      <trkpt lat="46.77323" lon="6.37166">
        <ele>1047</ele>
        <time>2023-05-15T13:35:59.000Z</time>
      </trkpt>
      <trkpt lat="46.77316" lon="6.37166">
        <ele>1046.8000488281</ele>
        <time>2023-05-15T13:36:05.000Z</time>
      </trkpt>
      <trkpt lat="46.77312" lon="6.37167">
        <ele>1046.8000488281</ele>
        <time>2023-05-15T13:36:09.000Z</time>
      </trkpt>
      <trkpt lat="46.77306" lon="6.37168">
        <ele>1046.1999511719</ele>
        <time>2023-05-15T13:36:16.000Z</time>
      </trkpt>
      <trkpt lat="46.77304" lon="6.37168">
        <ele>1046</ele>
        <time>2023-05-15T13:36:17.000Z</time>
      </trkpt>
      <trkpt lat="46.77296" lon="6.37168">
        <ele>1045.5999755859</ele>
        <time>2023-05-15T13:36:23.000Z</time>
      </trkpt>
      <trkpt lat="46.77292" lon="6.37169">
        <ele>1045.1999511719</ele>
        <time>2023-05-15T13:36:26.000Z</time>
      </trkpt>
      <trkpt lat="46.77291" lon="6.37169">
        <ele>1045.1999511719</ele>
        <time>2023-05-15T13:36:27.000Z</time>
      </trkpt>
      <trkpt lat="46.7729" lon="6.3717">
        <ele>1045.1999511719</ele>
        <time>2023-05-15T13:36:29.000Z</time>
      </trkpt>
      <trkpt lat="46.77288" lon="6.37168">
        <ele>1044.8000488281</ele>
        <time>2023-05-15T13:36:31.000Z</time>
      </trkpt>
      <trkpt lat="46.77287" lon="6.3716">
        <ele>1044</ele>
        <time>2023-05-15T13:36:37.000Z</time>
      </trkpt>
      <trkpt lat="46.77289" lon="6.37157">
        <ele>1043.8000488281</ele>
        <time>2023-05-15T13:36:39.000Z</time>
      </trkpt>
      <trkpt lat="46.77289" lon="6.37157">
        <ele>1043.8000488281</ele>
        <time>2023-05-15T13:36:40.000Z</time>
      </trkpt>
      <trkpt lat="46.7729" lon="6.37154">
        <ele>1043.5999755859</ele>
        <time>2023-05-15T13:36:41.000Z</time>
      </trkpt>
      <trkpt lat="46.77292" lon="6.37152">
        <ele>1043.1999511719</ele>
        <time>2023-05-15T13:36:44.000Z</time>
      </trkpt>
      <trkpt lat="46.77293" lon="6.37153">
        <ele>1043</ele>
        <time>2023-05-15T13:36:45.000Z</time>
      </trkpt>
      <trkpt lat="46.77304" lon="6.37162">
        <ele>1042.5999755859</ele>
        <time>2023-05-15T13:36:51.000Z</time>
      </trkpt>
      <trkpt lat="46.77312" lon="6.37164">
        <ele>1042.5999755859</ele>
        <time>2023-05-15T13:36:56.000Z</time>
      </trkpt>
      <trkpt lat="46.77313" lon="6.37164">
        <ele>1042.5999755859</ele>
        <time>2023-05-15T13:36:57.000Z</time>
      </trkpt>
      <trkpt lat="46.77317" lon="6.37161">
        <ele>1042.8000488281</ele>
        <time>2023-05-15T13:37:00.000Z</time>
      </trkpt>
      <trkpt lat="46.77318" lon="6.37157">
        <ele>1042.8000488281</ele>
        <time>2023-05-15T13:37:03.000Z</time>
      </trkpt>
      <trkpt lat="46.77317" lon="6.37151">
        <ele>1043</ele>
        <time>2023-05-15T13:37:06.000Z</time>
      </trkpt>
      <trkpt lat="46.77311" lon="6.37127">
        <ele>1043.1999511719</ele>
        <time>2023-05-15T13:37:12.000Z</time>
      </trkpt>
      <trkpt lat="46.77303" lon="6.37104">
        <ele>1043.5999755859</ele>
        <time>2023-05-15T13:37:18.000Z</time>
      </trkpt>
      <trkpt lat="46.77293" lon="6.37083">
        <ele>1043.8000488281</ele>
        <time>2023-05-15T13:37:24.000Z</time>
      </trkpt>
      <trkpt lat="46.77287" lon="6.37076">
        <ele>1044.1999511719</ele>
        <time>2023-05-15T13:37:28.000Z</time>
      </trkpt>
      <trkpt lat="46.7728" lon="6.37067">
        <ele>1044.5999755859</ele>
        <time>2023-05-15T13:37:32.000Z</time>
      </trkpt>
      <trkpt lat="46.77272" lon="6.37064">
        <ele>1045</ele>
        <time>2023-05-15T13:37:36.000Z</time>
      </trkpt>
      <trkpt lat="46.7727" lon="6.37065">
        <ele>1045</ele>
        <time>2023-05-15T13:37:37.000Z</time>
      </trkpt>
      <trkpt lat="46.77262" lon="6.37069">
        <ele>1045.4000244141</ele>
        <time>2023-05-15T13:37:43.000Z</time>
      </trkpt>
      <trkpt lat="46.77259" lon="6.3707">
        <ele>1045.5999755859</ele>
        <time>2023-05-15T13:37:44.000Z</time>
      </trkpt>
      <trkpt lat="46.77252" lon="6.37064">
        <ele>1045.8000488281</ele>
        <time>2023-05-15T13:37:46.000Z</time>
      </trkpt>
      <trkpt lat="46.7725" lon="6.37059">
        <ele>1045.8000488281</ele>
        <time>2023-05-15T13:37:48.000Z</time>
      </trkpt>
      <trkpt lat="46.7725" lon="6.37056">
        <ele>1045.8000488281</ele>
        <time>2023-05-15T13:37:49.000Z</time>
      </trkpt>
      <trkpt lat="46.77248" lon="6.37051">
        <ele>1046.1999511719</ele>
        <time>2023-05-15T13:37:51.000Z</time>
      </trkpt>
      <trkpt lat="46.77242" lon="6.37033">
        <ele>1046.1999511719</ele>
        <time>2023-05-15T13:37:58.000Z</time>
      </trkpt>
      <trkpt lat="46.77227" lon="6.37018">
        <ele>1046</ele>
        <time>2023-05-15T13:38:03.000Z</time>
      </trkpt>
      <trkpt lat="46.77199" lon="6.36985">
        <ele>1046</ele>
        <time>2023-05-15T13:38:10.000Z</time>
      </trkpt>
      <trkpt lat="46.7719" lon="6.36975">
        <ele>1046</ele>
        <time>2023-05-15T13:38:11.000Z</time>
      </trkpt>
      <trkpt lat="46.77184" lon="6.36965">
        <ele>1046.1999511719</ele>
        <time>2023-05-15T13:38:13.000Z</time>
      </trkpt>
      <trkpt lat="46.7718" lon="6.36959">
        <ele>1046.1999511719</ele>
        <time>2023-05-15T13:38:14.000Z</time>
      </trkpt>
      <trkpt lat="46.77177" lon="6.36953">
        <ele>1046.1999511719</ele>
        <time>2023-05-15T13:38:15.000Z</time>
      </trkpt>
      <trkpt lat="46.77165" lon="6.36937">
        <ele>1047</ele>
        <time>2023-05-15T13:38:19.000Z</time>
      </trkpt>
      <trkpt lat="46.77163" lon="6.36933">
        <ele>1047.1999511719</ele>
        <time>2023-05-15T13:38:20.000Z</time>
      </trkpt>
      <trkpt lat="46.77152" lon="6.3692">
        <ele>1047.5999755859</ele>
        <time>2023-05-15T13:38:24.000Z</time>
      </trkpt>
      <trkpt lat="46.77143" lon="6.36911">
        <ele>1048</ele>
        <time>2023-05-15T13:38:27.000Z</time>
      </trkpt>
      <trkpt lat="46.7714" lon="6.36908">
        <ele>1048.5999755859</ele>
        <time>2023-05-15T13:38:29.000Z</time>
      </trkpt>
      <trkpt lat="46.77131" lon="6.36895">
        <ele>1049.1999511719</ele>
        <time>2023-05-15T13:38:32.000Z</time>
      </trkpt>
      <trkpt lat="46.77126" lon="6.36887">
        <ele>1049.4000244141</ele>
        <time>2023-05-15T13:38:34.000Z</time>
      </trkpt>
      <trkpt lat="46.77116" lon="6.36875">
        <ele>1050.1999511719</ele>
        <time>2023-05-15T13:38:38.000Z</time>
      </trkpt>
      <trkpt lat="46.77112" lon="6.36873">
        <ele>1050.5999755859</ele>
        <time>2023-05-15T13:38:39.000Z</time>
      </trkpt>
      <trkpt lat="46.771" lon="6.36869">
        <ele>1050.8000488281</ele>
        <time>2023-05-15T13:38:42.000Z</time>
      </trkpt>
      <trkpt lat="46.77097" lon="6.36867">
        <ele>1051</ele>
        <time>2023-05-15T13:38:43.000Z</time>
      </trkpt>
      <trkpt lat="46.77094" lon="6.36863">
        <ele>1051</ele>
        <time>2023-05-15T13:38:44.000Z</time>
      </trkpt>
      <trkpt lat="46.77083" lon="6.36849">
        <ele>1052</ele>
        <time>2023-05-15T13:38:49.000Z</time>
      </trkpt>
      <trkpt lat="46.77071" lon="6.36831">
        <ele>1053.1999511719</ele>
        <time>2023-05-15T13:38:54.000Z</time>
      </trkpt>
      <trkpt lat="46.77061" lon="6.36816">
        <ele>1054</ele>
        <time>2023-05-15T13:38:58.000Z</time>
      </trkpt>
      <trkpt lat="46.7706" lon="6.36813">
        <ele>1054.4000244141</ele>
        <time>2023-05-15T13:38:59.000Z</time>
      </trkpt>
      <trkpt lat="46.7705" lon="6.36798">
        <ele>1055.1999511719</ele>
        <time>2023-05-15T13:39:04.000Z</time>
      </trkpt>
      <trkpt lat="46.77048" lon="6.36795">
        <ele>1055.5999755859</ele>
        <time>2023-05-15T13:39:06.000Z</time>
      </trkpt>
      <trkpt lat="46.77034" lon="6.36772">
        <ele>1056.4000244141</ele>
        <time>2023-05-15T13:39:11.000Z</time>
      </trkpt>
      <trkpt lat="46.77021" lon="6.36753">
        <ele>1057</ele>
        <time>2023-05-15T13:39:18.000Z</time>
      </trkpt>
      <trkpt lat="46.77009" lon="6.36737">
        <ele>1058</ele>
        <time>2023-05-15T13:39:23.000Z</time>
      </trkpt>
      <trkpt lat="46.77007" lon="6.36734">
        <ele>1058.5999755859</ele>
        <time>2023-05-15T13:39:24.000Z</time>
      </trkpt>
      <trkpt lat="46.77001" lon="6.36726">
        <ele>1059.1999511719</ele>
        <time>2023-05-15T13:39:27.000Z</time>
      </trkpt>
      <trkpt lat="46.76994" lon="6.36714">
        <ele>1059.5999755859</ele>
        <time>2023-05-15T13:39:31.000Z</time>
      </trkpt>
      <trkpt lat="46.76992" lon="6.36709">
        <ele>1059.8000488281</ele>
        <time>2023-05-15T13:39:33.000Z</time>
      </trkpt>
      <trkpt lat="46.76988" lon="6.36701">
        <ele>1060.5999755859</ele>
        <time>2023-05-15T13:39:36.000Z</time>
      </trkpt>
      <trkpt lat="46.76986" lon="6.36697">
        <ele>1060.8000488281</ele>
        <time>2023-05-15T13:39:38.000Z</time>
      </trkpt>
      <trkpt lat="46.76983" lon="6.36691">
        <ele>1061</ele>
        <time>2023-05-15T13:39:41.000Z</time>
      </trkpt>
      <trkpt lat="46.76977" lon="6.36689">
        <ele>1061.4000244141</ele>
        <time>2023-05-15T13:39:43.000Z</time>
      </trkpt>
      <trkpt lat="46.76971" lon="6.36689">
        <ele>1062</ele>
        <time>2023-05-15T13:39:45.000Z</time>
      </trkpt>
      <trkpt lat="46.76966" lon="6.36689">
        <ele>1062.1999511719</ele>
        <time>2023-05-15T13:39:48.000Z</time>
      </trkpt>
      <trkpt lat="46.76959" lon="6.36689">
        <ele>1062.5999755859</ele>
        <time>2023-05-15T13:39:50.000Z</time>
      </trkpt>
      <trkpt lat="46.76956" lon="6.36689">
        <ele>1062.8000488281</ele>
        <time>2023-05-15T13:39:52.000Z</time>
      </trkpt>
      <trkpt lat="46.76944" lon="6.36688">
        <ele>1063.4000244141</ele>
        <time>2023-05-15T13:39:56.000Z</time>
      </trkpt>
      <trkpt lat="46.76939" lon="6.36688">
        <ele>1064</ele>
        <time>2023-05-15T13:39:58.000Z</time>
      </trkpt>
      <trkpt lat="46.76925" lon="6.36689">
        <ele>1065</ele>
        <time>2023-05-15T13:40:03.000Z</time>
      </trkpt>
      <trkpt lat="46.76917" lon="6.36684">
        <ele>1065.4000244141</ele>
        <time>2023-05-15T13:40:06.000Z</time>
      </trkpt>
      <trkpt lat="46.76915" lon="6.36681">
        <ele>1065.5999755859</ele>
        <time>2023-05-15T13:40:08.000Z</time>
      </trkpt>
      <trkpt lat="46.76913" lon="6.36668">
        <ele>1065.8000488281</ele>
        <time>2023-05-15T13:40:10.000Z</time>
      </trkpt>
      <trkpt lat="46.76912" lon="6.36654">
        <ele>1065.8000488281</ele>
        <time>2023-05-15T13:40:14.000Z</time>
      </trkpt>
      <trkpt lat="46.76911" lon="6.36646">
        <ele>1066.1999511719</ele>
        <time>2023-05-15T13:40:15.000Z</time>
      </trkpt>
      <trkpt lat="46.7691" lon="6.36607">
        <ele>1066.8000488281</ele>
        <time>2023-05-15T13:40:23.000Z</time>
      </trkpt>
      <trkpt lat="46.76914" lon="6.36571">
        <ele>1067.4000244141</ele>
        <time>2023-05-15T13:40:31.000Z</time>
      </trkpt>
      <trkpt lat="46.76917" lon="6.36559">
        <ele>1067.4000244141</ele>
        <time>2023-05-15T13:40:34.000Z</time>
      </trkpt>
      <trkpt lat="46.76921" lon="6.3653">
        <ele>1068.1999511719</ele>
        <time>2023-05-15T13:40:41.000Z</time>
      </trkpt>
      <trkpt lat="46.76921" lon="6.3653">
        <ele>1068.1999511719</ele>
        <time>2023-05-15T13:40:42.000Z</time>
      </trkpt>
      <trkpt lat="46.76918" lon="6.3651">
        <ele>1068.4000244141</ele>
        <time>2023-05-15T13:40:46.000Z</time>
      </trkpt>
      <trkpt lat="46.76904" lon="6.36486">
        <ele>1068.4000244141</ele>
        <time>2023-05-15T13:40:54.000Z</time>
      </trkpt>
      <trkpt lat="46.76896" lon="6.36465">
        <ele>1068.8000488281</ele>
        <time>2023-05-15T13:40:59.000Z</time>
      </trkpt>
      <trkpt lat="46.76893" lon="6.36456">
        <ele>1069.4000244141</ele>
        <time>2023-05-15T13:41:02.000Z</time>
      </trkpt>
      <trkpt lat="46.76889" lon="6.36441">
        <ele>1069.5999755859</ele>
        <time>2023-05-15T13:41:08.000Z</time>
      </trkpt>
      <trkpt lat="46.76889" lon="6.36431">
        <ele>1070.1999511719</ele>
        <time>2023-05-15T13:41:11.000Z</time>
      </trkpt>
      <trkpt lat="46.76889" lon="6.36422">
        <ele>1070.5999755859</ele>
        <time>2023-05-15T13:41:14.000Z</time>
      </trkpt>
      <trkpt lat="46.76888" lon="6.3642">
        <ele>1070.8000488281</ele>
        <time>2023-05-15T13:41:15.000Z</time>
      </trkpt>
      <trkpt lat="46.76888" lon="6.36417">
        <ele>1070.8000488281</ele>
        <time>2023-05-15T13:41:17.000Z</time>
      </trkpt>
      <trkpt lat="46.76887" lon="6.36379">
        <ele>1071.1999511719</ele>
        <time>2023-05-15T13:41:25.000Z</time>
      </trkpt>
      <trkpt lat="46.76885" lon="6.36339">
        <ele>1071.4000244141</ele>
        <time>2023-05-15T13:41:31.000Z</time>
      </trkpt>
      <trkpt lat="46.76886" lon="6.36307">
        <ele>1072.1999511719</ele>
        <time>2023-05-15T13:41:36.000Z</time>
      </trkpt>
      <trkpt lat="46.76887" lon="6.36299">
        <ele>1072.4000244141</ele>
        <time>2023-05-15T13:41:37.000Z</time>
      </trkpt>
      <trkpt lat="46.76889" lon="6.36269">
        <ele>1072.8000488281</ele>
        <time>2023-05-15T13:41:43.000Z</time>
      </trkpt>
      <trkpt lat="46.7689" lon="6.36258">
        <ele>1073.4000244141</ele>
        <time>2023-05-15T13:41:45.000Z</time>
      </trkpt>
      <trkpt lat="46.76892" lon="6.36236">
        <ele>1073.8000488281</ele>
        <time>2023-05-15T13:41:49.000Z</time>
      </trkpt>
      <trkpt lat="46.76893" lon="6.3623">
        <ele>1074</ele>
        <time>2023-05-15T13:41:51.000Z</time>
      </trkpt>
      <trkpt lat="46.76893" lon="6.36219">
        <ele>1074.4000244141</ele>
        <time>2023-05-15T13:41:53.000Z</time>
      </trkpt>
      <trkpt lat="46.76892" lon="6.36181">
        <ele>1075</ele>
        <time>2023-05-15T13:41:58.000Z</time>
      </trkpt>
      <trkpt lat="46.76894" lon="6.36168">
        <ele>1075.4000244141</ele>
        <time>2023-05-15T13:42:00.000Z</time>
      </trkpt>
      <trkpt lat="46.76895" lon="6.3616">
        <ele>1075.4000244141</ele>
        <time>2023-05-15T13:42:01.000Z</time>
      </trkpt>
      <trkpt lat="46.76898" lon="6.36143">
        <ele>1075.4000244141</ele>
        <time>2023-05-15T13:42:03.000Z</time>
      </trkpt>
      <trkpt lat="46.76902" lon="6.36126">
        <ele>1075.8000488281</ele>
        <time>2023-05-15T13:42:05.000Z</time>
      </trkpt>
      <trkpt lat="46.76903" lon="6.36109">
        <ele>1076</ele>
        <time>2023-05-15T13:42:07.000Z</time>
      </trkpt>
      <trkpt lat="46.76902" lon="6.361">
        <ele>1076.1999511719</ele>
        <time>2023-05-15T13:42:08.000Z</time>
      </trkpt>
      <trkpt lat="46.769" lon="6.36092">
        <ele>1076.1999511719</ele>
        <time>2023-05-15T13:42:09.000Z</time>
      </trkpt>
      <trkpt lat="46.76897" lon="6.36076">
        <ele>1076.4000244141</ele>
        <time>2023-05-15T13:42:11.000Z</time>
      </trkpt>
      <trkpt lat="46.76896" lon="6.36066">
        <ele>1076.4000244141</ele>
        <time>2023-05-15T13:42:12.000Z</time>
      </trkpt>
      <trkpt lat="46.76896" lon="6.36057">
        <ele>1076.5999755859</ele>
        <time>2023-05-15T13:42:13.000Z</time>
      </trkpt>
      <trkpt lat="46.769" lon="6.36015">
        <ele>1077</ele>
        <time>2023-05-15T13:42:19.000Z</time>
      </trkpt>
      <trkpt lat="46.76901" lon="6.36">
        <ele>1077.4000244141</ele>
        <time>2023-05-15T13:42:20.000Z</time>
      </trkpt>
      <trkpt lat="46.76903" lon="6.35949">
        <ele>1078.1999511719</ele>
        <time>2023-05-15T13:42:26.000Z</time>
      </trkpt>
      <trkpt lat="46.76903" lon="6.35939">
        <ele>1078.4000244141</ele>
        <time>2023-05-15T13:42:27.000Z</time>
      </trkpt>
      <trkpt lat="46.76899" lon="6.35898">
        <ele>1079</ele>
        <time>2023-05-15T13:42:32.000Z</time>
      </trkpt>
      <trkpt lat="46.76893" lon="6.35857">
        <ele>1079.4000244141</ele>
        <time>2023-05-15T13:42:36.000Z</time>
      </trkpt>
      <trkpt lat="46.76891" lon="6.35834">
        <ele>1079.4000244141</ele>
        <time>2023-05-15T13:42:37.000Z</time>
      </trkpt>
      <trkpt lat="46.76891" lon="6.35824">
        <ele>1079.5999755859</ele>
        <time>2023-05-15T13:42:39.000Z</time>
      </trkpt>
      <trkpt lat="46.76886" lon="6.35784">
        <ele>1080.5999755859</ele>
        <time>2023-05-15T13:42:43.000Z</time>
      </trkpt>
      <trkpt lat="46.76885" lon="6.35767">
        <ele>1081</ele>
        <time>2023-05-15T13:42:45.000Z</time>
      </trkpt>
      <trkpt lat="46.76881" lon="6.35744">
        <ele>1081.4000244141</ele>
        <time>2023-05-15T13:42:47.000Z</time>
      </trkpt>
      <trkpt lat="46.76881" lon="6.35744">
        <ele>1081.5999755859</ele>
        <time>2023-05-15T13:42:48.000Z</time>
      </trkpt>
      <trkpt lat="46.76879" lon="6.3573">
        <ele>1082</ele>
        <time>2023-05-15T13:42:50.000Z</time>
      </trkpt>
      <trkpt lat="46.76875" lon="6.35709">
        <ele>1082.8000488281</ele>
        <time>2023-05-15T13:42:55.000Z</time>
      </trkpt>
      <trkpt lat="46.76876" lon="6.35694">
        <ele>1083.5999755859</ele>
        <time>2023-05-15T13:43:00.000Z</time>
      </trkpt>
      <trkpt lat="46.76877" lon="6.3569">
        <ele>1084</ele>
        <time>2023-05-15T13:43:01.000Z</time>
      </trkpt>
      <trkpt lat="46.76876" lon="6.35682">
        <ele>1084</ele>
        <time>2023-05-15T13:43:02.000Z</time>
      </trkpt>
      <trkpt lat="46.76875" lon="6.35674">
        <ele>1084.1999511719</ele>
        <time>2023-05-15T13:43:04.000Z</time>
      </trkpt>
      <trkpt lat="46.76878" lon="6.35663">
        <ele>1084.5999755859</ele>
        <time>2023-05-15T13:43:06.000Z</time>
      </trkpt>
      <trkpt lat="46.76884" lon="6.35653">
        <ele>1085</ele>
        <time>2023-05-15T13:43:08.000Z</time>
      </trkpt>
      <trkpt lat="46.76891" lon="6.35643">
        <ele>1085</ele>
        <time>2023-05-15T13:43:10.000Z</time>
      </trkpt>
      <trkpt lat="46.76898" lon="6.35634">
        <ele>1085.5999755859</ele>
        <time>2023-05-15T13:43:13.000Z</time>
      </trkpt>
      <trkpt lat="46.76908" lon="6.3562">
        <ele>1085.8000488281</ele>
        <time>2023-05-15T13:43:15.000Z</time>
      </trkpt>
      <trkpt lat="46.76912" lon="6.35616">
        <ele>1086</ele>
        <time>2023-05-15T13:43:16.000Z</time>
      </trkpt>
      <trkpt lat="46.76912" lon="6.35616">
        <ele>1086</ele>
        <time>2023-05-15T13:43:17.000Z</time>
      </trkpt>
      <trkpt lat="46.76927" lon="6.35597">
        <ele>1086.5999755859</ele>
        <time>2023-05-15T13:43:21.000Z</time>
      </trkpt>
      <trkpt lat="46.76933" lon="6.35587">
        <ele>1087</ele>
        <time>2023-05-15T13:43:24.000Z</time>
      </trkpt>
      <trkpt lat="46.76942" lon="6.35574">
        <ele>1087.5999755859</ele>
        <time>2023-05-15T13:43:29.000Z</time>
      </trkpt>
      <trkpt lat="46.7696" lon="6.3555">
        <ele>1088</ele>
        <time>2023-05-15T13:43:34.000Z</time>
      </trkpt>
      <trkpt lat="46.76979" lon="6.35533">
        <ele>1088.8000488281</ele>
        <time>2023-05-15T13:43:39.000Z</time>
      </trkpt>
      <trkpt lat="46.76983" lon="6.3553">
        <ele>1088.8000488281</ele>
        <time>2023-05-15T13:43:41.000Z</time>
      </trkpt>
      <trkpt lat="46.77005" lon="6.35517">
        <ele>1089</ele>
        <time>2023-05-15T13:43:45.000Z</time>
      </trkpt>
      <trkpt lat="46.77014" lon="6.35512">
        <ele>1089</ele>
        <time>2023-05-15T13:43:47.000Z</time>
      </trkpt>
      <trkpt lat="46.77014" lon="6.35512">
        <ele>1089</ele>
        <time>2023-05-15T13:43:48.000Z</time>
      </trkpt>
      <trkpt lat="46.77031" lon="6.35505">
        <ele>1089.1999511719</ele>
        <time>2023-05-15T13:43:51.000Z</time>
      </trkpt>
      <trkpt lat="46.77036" lon="6.35503">
        <ele>1089.4000244141</ele>
        <time>2023-05-15T13:43:53.000Z</time>
      </trkpt>
      <trkpt lat="46.77041" lon="6.355">
        <ele>1089.4000244141</ele>
        <time>2023-05-15T13:43:54.000Z</time>
      </trkpt>
      <trkpt lat="46.77068" lon="6.35487">
        <ele>1089.5999755859</ele>
        <time>2023-05-15T13:43:58.000Z</time>
      </trkpt>
      <trkpt lat="46.7708" lon="6.35475">
        <ele>1090</ele>
        <time>2023-05-15T13:44:01.000Z</time>
      </trkpt>
      <trkpt lat="46.77086" lon="6.35465">
        <ele>1090</ele>
        <time>2023-05-15T13:44:03.000Z</time>
      </trkpt>
      <trkpt lat="46.77092" lon="6.35437">
        <ele>1090.1999511719</ele>
        <time>2023-05-15T13:44:07.000Z</time>
      </trkpt>
      <trkpt lat="46.77092" lon="6.35429">
        <ele>1090.1999511719</ele>
        <time>2023-05-15T13:44:08.000Z</time>
      </trkpt>
      <trkpt lat="46.77092" lon="6.35414">
        <ele>1090.4000244141</ele>
        <time>2023-05-15T13:44:11.000Z</time>
      </trkpt>
      <trkpt lat="46.7709" lon="6.35387">
        <ele>1090.5999755859</ele>
        <time>2023-05-15T13:44:15.000Z</time>
      </trkpt>
      <trkpt lat="46.77087" lon="6.35375">
        <ele>1090.5999755859</ele>
        <time>2023-05-15T13:44:16.000Z</time>
      </trkpt>
      <trkpt lat="46.77085" lon="6.3537">
        <ele>1090.5999755859</ele>
        <time>2023-05-15T13:44:17.000Z</time>
      </trkpt>
      <trkpt lat="46.7708" lon="6.35361">
        <ele>1090.8000488281</ele>
        <time>2023-05-15T13:44:19.000Z</time>
      </trkpt>
      <trkpt lat="46.77074" lon="6.35355">
        <ele>1090.8000488281</ele>
        <time>2023-05-15T13:44:22.000Z</time>
      </trkpt>
      <trkpt lat="46.77066" lon="6.35348">
        <ele>1091.1999511719</ele>
        <time>2023-05-15T13:44:25.000Z</time>
      </trkpt>
      <trkpt lat="46.77055" lon="6.35336">
        <ele>1091.8000488281</ele>
        <time>2023-05-15T13:44:29.000Z</time>
      </trkpt>
      <trkpt lat="46.77055" lon="6.35336">
        <ele>1092</ele>
        <time>2023-05-15T13:44:30.000Z</time>
      </trkpt>
      <trkpt lat="46.77046" lon="6.35326">
        <ele>1092</ele>
        <time>2023-05-15T13:44:33.000Z</time>
      </trkpt>
      <trkpt lat="46.7703" lon="6.35305">
        <ele>1092.8000488281</ele>
        <time>2023-05-15T13:44:42.000Z</time>
      </trkpt>
      <trkpt lat="46.77023" lon="6.35294">
        <ele>1092.8000488281</ele>
        <time>2023-05-15T13:44:45.000Z</time>
      </trkpt>
      <trkpt lat="46.77008" lon="6.35271">
        <ele>1092.1999511719</ele>
        <time>2023-05-15T13:44:54.000Z</time>
      </trkpt>
      <trkpt lat="46.76993" lon="6.35247">
        <ele>1092.5999755859</ele>
        <time>2023-05-15T13:45:02.000Z</time>
      </trkpt>
      <trkpt lat="46.76979" lon="6.35225">
        <ele>1092.8000488281</ele>
        <time>2023-05-15T13:45:09.000Z</time>
      </trkpt>
      <trkpt lat="46.76974" lon="6.35218">
        <ele>1093</ele>
        <time>2023-05-15T13:45:12.000Z</time>
      </trkpt>
      <trkpt lat="46.76951" lon="6.3518">
        <ele>1093</ele>
        <time>2023-05-15T13:45:25.000Z</time>
      </trkpt>
      <trkpt lat="46.7693" lon="6.35162">
        <ele>1092.8000488281</ele>
        <time>2023-05-15T13:45:34.000Z</time>
      </trkpt>
      <trkpt lat="46.76911" lon="6.35151">
        <ele>1093</ele>
        <time>2023-05-15T13:45:42.000Z</time>
      </trkpt>
      <trkpt lat="46.76887" lon="6.35151">
        <ele>1092.8000488281</ele>
        <time>2023-05-15T13:45:50.000Z</time>
      </trkpt>
      <trkpt lat="46.76863" lon="6.35154">
        <ele>1092.8000488281</ele>
        <time>2023-05-15T13:45:58.000Z</time>
      </trkpt>
      <trkpt lat="46.76835" lon="6.35156">
        <ele>1093</ele>
        <time>2023-05-15T13:46:08.000Z</time>
      </trkpt>
      <trkpt lat="46.7681" lon="6.35156">
        <ele>1093</ele>
        <time>2023-05-15T13:46:17.000Z</time>
      </trkpt>
      <trkpt lat="46.7679" lon="6.35154">
        <ele>1093</ele>
        <time>2023-05-15T13:46:24.000Z</time>
      </trkpt>
      <trkpt lat="46.76766" lon="6.35141">
        <ele>1093.1999511719</ele>
        <time>2023-05-15T13:46:34.000Z</time>
      </trkpt>
      <trkpt lat="46.76735" lon="6.35118">
        <ele>1092.8000488281</ele>
        <time>2023-05-15T13:46:46.000Z</time>
      </trkpt>
      <trkpt lat="46.76716" lon="6.35099">
        <ele>1092.5999755859</ele>
        <time>2023-05-15T13:46:54.000Z</time>
      </trkpt>
      <trkpt lat="46.76701" lon="6.35078">
        <ele>1092.4000244141</ele>
        <time>2023-05-15T13:47:02.000Z</time>
      </trkpt>
      <trkpt lat="46.76688" lon="6.35053">
        <ele>1092.1999511719</ele>
        <time>2023-05-15T13:47:10.000Z</time>
      </trkpt>
      <trkpt lat="46.76687" lon="6.3505">
        <ele>1092.1999511719</ele>
        <time>2023-05-15T13:47:11.000Z</time>
      </trkpt>
      <trkpt lat="46.76667" lon="6.35007">
        <ele>1092.1999511719</ele>
        <time>2023-05-15T13:47:23.000Z</time>
      </trkpt>
      <trkpt lat="46.76649" lon="6.34966">
        <ele>1092.5999755859</ele>
        <time>2023-05-15T13:47:35.000Z</time>
      </trkpt>
      <trkpt lat="46.7663" lon="6.34925">
        <ele>1093</ele>
        <time>2023-05-15T13:47:46.000Z</time>
      </trkpt>
      <trkpt lat="46.76617" lon="6.34895">
        <ele>1093</ele>
        <time>2023-05-15T13:47:54.000Z</time>
      </trkpt>
      <trkpt lat="46.76611" lon="6.34882">
        <ele>1093.1999511719</ele>
        <time>2023-05-15T13:47:59.000Z</time>
      </trkpt>
      <trkpt lat="46.76601" lon="6.34857">
        <ele>1093.5999755859</ele>
        <time>2023-05-15T13:48:06.000Z</time>
      </trkpt>
      <trkpt lat="46.76598" lon="6.34851">
        <ele>1093.5999755859</ele>
        <time>2023-05-15T13:48:08.000Z</time>
      </trkpt>
      <trkpt lat="46.76582" lon="6.34822">
        <ele>1093.8000488281</ele>
        <time>2023-05-15T13:48:16.000Z</time>
      </trkpt>
      <trkpt lat="46.76564" lon="6.34783">
        <ele>1094.1999511719</ele>
        <time>2023-05-15T13:48:26.000Z</time>
      </trkpt>
      <trkpt lat="46.7655" lon="6.34757">
        <ele>1094.1999511719</ele>
        <time>2023-05-15T13:48:33.000Z</time>
      </trkpt>
      <trkpt lat="46.76538" lon="6.34722">
        <ele>1094.1999511719</ele>
        <time>2023-05-15T13:48:40.000Z</time>
      </trkpt>
      <trkpt lat="46.76528" lon="6.34682">
        <ele>1094.1999511719</ele>
        <time>2023-05-15T13:48:47.000Z</time>
      </trkpt>
      <trkpt lat="46.76518" lon="6.34642">
        <ele>1094</ele>
        <time>2023-05-15T13:48:55.000Z</time>
      </trkpt>
      <trkpt lat="46.76507" lon="6.34615">
        <ele>1094</ele>
        <time>2023-05-15T13:49:02.000Z</time>
      </trkpt>
      <trkpt lat="46.7649" lon="6.34577">
        <ele>1094.1999511719</ele>
        <time>2023-05-15T13:49:10.000Z</time>
      </trkpt>
      <trkpt lat="46.7648" lon="6.34531">
        <ele>1093.8000488281</ele>
        <time>2023-05-15T13:49:17.000Z</time>
      </trkpt>
      <trkpt lat="46.76477" lon="6.34499">
        <ele>1093.8000488281</ele>
        <time>2023-05-15T13:49:21.000Z</time>
      </trkpt>
      <trkpt lat="46.76477" lon="6.34482">
        <ele>1093.5999755859</ele>
        <time>2023-05-15T13:49:23.000Z</time>
      </trkpt>
      <trkpt lat="46.7648" lon="6.34424">
        <ele>1093.1999511719</ele>
        <time>2023-05-15T13:49:30.000Z</time>
      </trkpt>
      <trkpt lat="46.7648" lon="6.34416">
        <ele>1093.1999511719</ele>
        <time>2023-05-15T13:49:31.000Z</time>
      </trkpt>
      <trkpt lat="46.76475" lon="6.34382">
        <ele>1093.1999511719</ele>
        <time>2023-05-15T13:49:35.000Z</time>
      </trkpt>
      <trkpt lat="46.76467" lon="6.34343">
        <ele>1093.4000244141</ele>
        <time>2023-05-15T13:49:41.000Z</time>
      </trkpt>
      <trkpt lat="46.7646" lon="6.34301">
        <ele>1093.8000488281</ele>
        <time>2023-05-15T13:49:49.000Z</time>
      </trkpt>
      <trkpt lat="46.76453" lon="6.34248">
        <ele>1093.8000488281</ele>
        <time>2023-05-15T13:49:58.000Z</time>
      </trkpt>
      <trkpt lat="46.76446" lon="6.34199">
        <ele>1093.1999511719</ele>
        <time>2023-05-15T13:50:06.000Z</time>
      </trkpt>
      <trkpt lat="46.76439" lon="6.34165">
        <ele>1092.8000488281</ele>
        <time>2023-05-15T13:50:12.000Z</time>
      </trkpt>
      <trkpt lat="46.76438" lon="6.34161">
        <ele>1092.8000488281</ele>
        <time>2023-05-15T13:50:13.000Z</time>
      </trkpt>
      <trkpt lat="46.7642" lon="6.3411">
        <ele>1092</ele>
        <time>2023-05-15T13:50:22.000Z</time>
      </trkpt>
      <trkpt lat="46.76414" lon="6.34091">
        <ele>1092</ele>
        <time>2023-05-15T13:50:25.000Z</time>
      </trkpt>
      <trkpt lat="46.764" lon="6.3406">
        <ele>1091.1999511719</ele>
        <time>2023-05-15T13:50:30.000Z</time>
      </trkpt>
      <trkpt lat="46.7639" lon="6.34038">
        <ele>1090.8000488281</ele>
        <time>2023-05-15T13:50:34.000Z</time>
      </trkpt>
      <trkpt lat="46.76381" lon="6.34018">
        <ele>1090.4000244141</ele>
        <time>2023-05-15T13:50:38.000Z</time>
      </trkpt>
      <trkpt lat="46.76372" lon="6.33999">
        <ele>1089.8000488281</ele>
        <time>2023-05-15T13:50:43.000Z</time>
      </trkpt>
      <trkpt lat="46.7637" lon="6.33995">
        <ele>1089.8000488281</ele>
        <time>2023-05-15T13:50:44.000Z</time>
      </trkpt>
      <trkpt lat="46.76369" lon="6.33992">
        <ele>1089.5999755859</ele>
        <time>2023-05-15T13:50:45.000Z</time>
      </trkpt>
      <trkpt lat="46.7636" lon="6.33969">
        <ele>1089.4000244141</ele>
        <time>2023-05-15T13:50:50.000Z</time>
      </trkpt>
      <trkpt lat="46.76343" lon="6.33929">
        <ele>1088.8000488281</ele>
        <time>2023-05-15T13:50:56.000Z</time>
      </trkpt>
      <trkpt lat="46.76335" lon="6.3391">
        <ele>1088.5999755859</ele>
        <time>2023-05-15T13:50:58.000Z</time>
      </trkpt>
      <trkpt lat="46.76322" lon="6.33874">
        <ele>1088</ele>
        <time>2023-05-15T13:51:02.000Z</time>
      </trkpt>
      <trkpt lat="46.76311" lon="6.33835">
        <ele>1087.5999755859</ele>
        <time>2023-05-15T13:51:05.000Z</time>
      </trkpt>
      <trkpt lat="46.76303" lon="6.33809">
        <ele>1087.1999511719</ele>
        <time>2023-05-15T13:51:07.000Z</time>
      </trkpt>
      <trkpt lat="46.76292" lon="6.33772">
        <ele>1086.5999755859</ele>
        <time>2023-05-15T13:51:10.000Z</time>
      </trkpt>
      <trkpt lat="46.76269" lon="6.33697">
        <ele>1085.8000488281</ele>
        <time>2023-05-15T13:51:16.000Z</time>
      </trkpt>
      <trkpt lat="46.76264" lon="6.33683">
        <ele>1085.5999755859</ele>
        <time>2023-05-15T13:51:17.000Z</time>
      </trkpt>
      <trkpt lat="46.7625" lon="6.33629">
        <ele>1084.8000488281</ele>
        <time>2023-05-15T13:51:21.000Z</time>
      </trkpt>
      <trkpt lat="46.76245" lon="6.33608">
        <ele>1084.4000244141</ele>
        <time>2023-05-15T13:51:23.000Z</time>
      </trkpt>
      <trkpt lat="46.76243" lon="6.33599">
        <ele>1084</ele>
        <time>2023-05-15T13:51:24.000Z</time>
      </trkpt>
      <trkpt lat="46.76239" lon="6.33584">
        <ele>1083.5999755859</ele>
        <time>2023-05-15T13:51:26.000Z</time>
      </trkpt>
      <trkpt lat="46.76236" lon="6.33578">
        <ele>1083.4000244141</ele>
        <time>2023-05-15T13:51:27.000Z</time>
      </trkpt>
      <trkpt lat="46.76224" lon="6.33555">
        <ele>1082.8000488281</ele>
        <time>2023-05-15T13:51:31.000Z</time>
      </trkpt>
      <trkpt lat="46.76219" lon="6.33541">
        <ele>1082.5999755859</ele>
        <time>2023-05-15T13:51:33.000Z</time>
      </trkpt>
      <trkpt lat="46.76212" lon="6.33517">
        <ele>1082.4000244141</ele>
        <time>2023-05-15T13:51:36.000Z</time>
      </trkpt>
      <trkpt lat="46.76198" lon="6.33476">
        <ele>1082</ele>
        <time>2023-05-15T13:51:41.000Z</time>
      </trkpt>
      <trkpt lat="46.76184" lon="6.33444">
        <ele>1081.4000244141</ele>
        <time>2023-05-15T13:51:45.000Z</time>
      </trkpt>
      <trkpt lat="46.76169" lon="6.33417">
        <ele>1081.1999511719</ele>
        <time>2023-05-15T13:51:49.000Z</time>
      </trkpt>
      <trkpt lat="46.76147" lon="6.33392">
        <ele>1080.8000488281</ele>
        <time>2023-05-15T13:51:54.000Z</time>
      </trkpt>
      <trkpt lat="46.76142" lon="6.33386">
        <ele>1080.4000244141</ele>
        <time>2023-05-15T13:51:56.000Z</time>
      </trkpt>
      <trkpt lat="46.76138" lon="6.33379">
        <ele>1080.1999511719</ele>
        <time>2023-05-15T13:51:58.000Z</time>
      </trkpt>
      <trkpt lat="46.76127" lon="6.33348">
        <ele>1079.8000488281</ele>
        <time>2023-05-15T13:52:03.000Z</time>
      </trkpt>
      <trkpt lat="46.76111" lon="6.333">
        <ele>1080</ele>
        <time>2023-05-15T13:52:09.000Z</time>
      </trkpt>
      <trkpt lat="46.76103" lon="6.33278">
        <ele>1079.8000488281</ele>
        <time>2023-05-15T13:52:12.000Z</time>
      </trkpt>
      <trkpt lat="46.76099" lon="6.33274">
        <ele>1079.8000488281</ele>
        <time>2023-05-15T13:52:13.000Z</time>
      </trkpt>
      <trkpt lat="46.76095" lon="6.33271">
        <ele>1079.8000488281</ele>
        <time>2023-05-15T13:52:14.000Z</time>
      </trkpt>
      <trkpt lat="46.76092" lon="6.33269">
        <ele>1079.8000488281</ele>
        <time>2023-05-15T13:52:15.000Z</time>
      </trkpt>
      <trkpt lat="46.76084" lon="6.33267">
        <ele>1079.8000488281</ele>
        <time>2023-05-15T13:52:17.000Z</time>
      </trkpt>
      <trkpt lat="46.76069" lon="6.33261">
        <ele>1080</ele>
        <time>2023-05-15T13:52:21.000Z</time>
      </trkpt>
      <trkpt lat="46.76057" lon="6.33251">
        <ele>1079.8000488281</ele>
        <time>2023-05-15T13:52:24.000Z</time>
      </trkpt>
      <trkpt lat="46.76031" lon="6.33221">
        <ele>1079.5999755859</ele>
        <time>2023-05-15T13:52:31.000Z</time>
      </trkpt>
      <trkpt lat="46.76" lon="6.33178">
        <ele>1079.4000244141</ele>
        <time>2023-05-15T13:52:38.000Z</time>
      </trkpt>
      <trkpt lat="46.75989" lon="6.33166">
        <ele>1079.1999511719</ele>
        <time>2023-05-15T13:52:40.000Z</time>
      </trkpt>
      <trkpt lat="46.75972" lon="6.33145">
        <ele>1079</ele>
        <time>2023-05-15T13:52:44.000Z</time>
      </trkpt>
      <trkpt lat="46.75958" lon="6.33119">
        <ele>1078.4000244141</ele>
        <time>2023-05-15T13:52:49.000Z</time>
      </trkpt>
      <trkpt lat="46.75956" lon="6.33114">
        <ele>1078.1999511719</ele>
        <time>2023-05-15T13:52:50.000Z</time>
      </trkpt>
      <trkpt lat="46.75936" lon="6.33078">
        <ele>1078</ele>
        <time>2023-05-15T13:52:56.000Z</time>
      </trkpt>
      <trkpt lat="46.75909" lon="6.33025">
        <ele>1077.8000488281</ele>
        <time>2023-05-15T13:53:04.000Z</time>
      </trkpt>
      <trkpt lat="46.75906" lon="6.33018">
        <ele>1077.5999755859</ele>
        <time>2023-05-15T13:53:05.000Z</time>
      </trkpt>
      <trkpt lat="46.75878" lon="6.32962">
        <ele>1077.4000244141</ele>
        <time>2023-05-15T13:53:14.000Z</time>
      </trkpt>
      <trkpt lat="46.75869" lon="6.32947">
        <ele>1077.1999511719</ele>
        <time>2023-05-15T13:53:17.000Z</time>
      </trkpt>
      <trkpt lat="46.75862" lon="6.3293">
        <ele>1077.1999511719</ele>
        <time>2023-05-15T13:53:20.000Z</time>
      </trkpt>
      <trkpt lat="46.75856" lon="6.32918">
        <ele>1077</ele>
        <time>2023-05-15T13:53:22.000Z</time>
      </trkpt>
      <trkpt lat="46.75836" lon="6.32879">
        <ele>1076.8000488281</ele>
        <time>2023-05-15T13:53:28.000Z</time>
      </trkpt>
      <trkpt lat="46.75809" lon="6.32823">
        <ele>1076.8000488281</ele>
        <time>2023-05-15T13:53:37.000Z</time>
      </trkpt>
      <trkpt lat="46.75792" lon="6.32788">
        <ele>1076.5999755859</ele>
        <time>2023-05-15T13:53:43.000Z</time>
      </trkpt>
      <trkpt lat="46.75778" lon="6.32757">
        <ele>1076.1999511719</ele>
        <time>2023-05-15T13:53:48.000Z</time>
      </trkpt>
      <trkpt lat="46.75761" lon="6.32721">
        <ele>1076</ele>
        <time>2023-05-15T13:53:54.000Z</time>
      </trkpt>
      <trkpt lat="46.75756" lon="6.3271">
        <ele>1076</ele>
        <time>2023-05-15T13:53:56.000Z</time>
      </trkpt>
      <trkpt lat="46.75734" lon="6.32664">
        <ele>1076</ele>
        <time>2023-05-15T13:54:03.000Z</time>
      </trkpt>
      <trkpt lat="46.75731" lon="6.32657">
        <ele>1076</ele>
        <time>2023-05-15T13:54:04.000Z</time>
      </trkpt>
      <trkpt lat="46.75704" lon="6.326">
        <ele>1076.1999511719</ele>
        <time>2023-05-15T13:54:12.000Z</time>
      </trkpt>
      <trkpt lat="46.75678" lon="6.32545">
        <ele>1076</ele>
        <time>2023-05-15T13:54:21.000Z</time>
      </trkpt>
      <trkpt lat="46.75667" lon="6.3252">
        <ele>1075.8000488281</ele>
        <time>2023-05-15T13:54:25.000Z</time>
      </trkpt>
      <trkpt lat="46.75647" lon="6.32481">
        <ele>1075.8000488281</ele>
        <time>2023-05-15T13:54:32.000Z</time>
      </trkpt>
      <trkpt lat="46.75642" lon="6.3247">
        <ele>1075.8000488281</ele>
        <time>2023-05-15T13:54:34.000Z</time>
      </trkpt>
      <trkpt lat="46.75624" lon="6.32431">
        <ele>1075.5999755859</ele>
        <time>2023-05-15T13:54:41.000Z</time>
      </trkpt>
      <trkpt lat="46.75619" lon="6.32419">
        <ele>1075.4000244141</ele>
        <time>2023-05-15T13:54:43.000Z</time>
      </trkpt>
      <trkpt lat="46.75606" lon="6.32393">
        <ele>1075.1999511719</ele>
        <time>2023-05-15T13:54:48.000Z</time>
      </trkpt>
      <trkpt lat="46.75595" lon="6.3237">
        <ele>1074.8000488281</ele>
        <time>2023-05-15T13:54:52.000Z</time>
      </trkpt>
      <trkpt lat="46.7557" lon="6.32314">
        <ele>1074.4000244141</ele>
        <time>2023-05-15T13:55:01.000Z</time>
      </trkpt>
      <trkpt lat="46.75567" lon="6.32306">
        <ele>1074.4000244141</ele>
        <time>2023-05-15T13:55:02.000Z</time>
      </trkpt>
      <trkpt lat="46.75544" lon="6.32255">
        <ele>1073.5999755859</ele>
        <time>2023-05-15T13:55:09.000Z</time>
      </trkpt>
      <trkpt lat="46.75541" lon="6.32247">
        <ele>1073.5999755859</ele>
        <time>2023-05-15T13:55:10.000Z</time>
      </trkpt>
      <trkpt lat="46.7551" lon="6.32188">
        <ele>1072.8000488281</ele>
        <time>2023-05-15T13:55:18.000Z</time>
      </trkpt>
      <trkpt lat="46.75506" lon="6.32181">
        <ele>1072.5999755859</ele>
        <time>2023-05-15T13:55:19.000Z</time>
      </trkpt>
      <trkpt lat="46.7547" lon="6.32119">
        <ele>1072</ele>
        <time>2023-05-15T13:55:27.000Z</time>
      </trkpt>
      <trkpt lat="46.75462" lon="6.32101">
        <ele>1072</ele>
        <time>2023-05-15T13:55:29.000Z</time>
      </trkpt>
      <trkpt lat="46.75448" lon="6.3206">
        <ele>1071.1999511719</ele>
        <time>2023-05-15T13:55:33.000Z</time>
      </trkpt>
      <trkpt lat="46.75442" lon="6.32011">
        <ele>1071.4000244141</ele>
        <time>2023-05-15T13:55:37.000Z</time>
      </trkpt>
      <trkpt lat="46.7543" lon="6.31937">
        <ele>1071.4000244141</ele>
        <time>2023-05-15T13:55:43.000Z</time>
      </trkpt>
      <trkpt lat="46.75427" lon="6.31926">
        <ele>1071.1999511719</ele>
        <time>2023-05-15T13:55:44.000Z</time>
      </trkpt>
      <trkpt lat="46.75404" lon="6.31849">
        <ele>1070.8000488281</ele>
        <time>2023-05-15T13:55:51.000Z</time>
      </trkpt>
      <trkpt lat="46.75399" lon="6.31828">
        <ele>1070.8000488281</ele>
        <time>2023-05-15T13:55:53.000Z</time>
      </trkpt>
      <trkpt lat="46.75384" lon="6.31772">
        <ele>1070.8000488281</ele>
        <time>2023-05-15T13:55:59.000Z</time>
      </trkpt>
      <trkpt lat="46.75384" lon="6.31755">
        <ele>1070.8000488281</ele>
        <time>2023-05-15T13:56:01.000Z</time>
      </trkpt>
      <trkpt lat="46.75386" lon="6.31747">
        <ele>1070.8000488281</ele>
        <time>2023-05-15T13:56:02.000Z</time>
      </trkpt>
      <trkpt lat="46.7539" lon="6.3174">
        <ele>1070.8000488281</ele>
        <time>2023-05-15T13:56:03.000Z</time>
      </trkpt>
      <trkpt lat="46.75402" lon="6.31727">
        <ele>1071</ele>
        <time>2023-05-15T13:56:05.000Z</time>
      </trkpt>
      <trkpt lat="46.75428" lon="6.31699">
        <ele>1070.8000488281</ele>
        <time>2023-05-15T13:56:10.000Z</time>
      </trkpt>
      <trkpt lat="46.75434" lon="6.31692">
        <ele>1070.5999755859</ele>
        <time>2023-05-15T13:56:13.000Z</time>
      </trkpt>
      <trkpt lat="46.75435" lon="6.31689">
        <ele>1070.5999755859</ele>
        <time>2023-05-15T13:56:14.000Z</time>
      </trkpt>
      <trkpt lat="46.75434" lon="6.31678">
        <ele>1070.4000244141</ele>
        <time>2023-05-15T13:56:17.000Z</time>
      </trkpt>
      <trkpt lat="46.7543" lon="6.31669">
        <ele>1070.4000244141</ele>
        <time>2023-05-15T13:56:19.000Z</time>
      </trkpt>
      <trkpt lat="46.75421" lon="6.31649">
        <ele>1070.4000244141</ele>
        <time>2023-05-15T13:56:23.000Z</time>
      </trkpt>
      <trkpt lat="46.75408" lon="6.31607">
        <ele>1070.1999511719</ele>
        <time>2023-05-15T13:56:30.000Z</time>
      </trkpt>
      <trkpt lat="46.75389" lon="6.31557">
        <ele>1069.8000488281</ele>
        <time>2023-05-15T13:56:37.000Z</time>
      </trkpt>
      <trkpt lat="46.75362" lon="6.31499">
        <ele>1069.5999755859</ele>
        <time>2023-05-15T13:56:45.000Z</time>
      </trkpt>
      <trkpt lat="46.7534" lon="6.31446">
        <ele>1069.4000244141</ele>
        <time>2023-05-15T13:56:52.000Z</time>
      </trkpt>
      <trkpt lat="46.75334" lon="6.3143">
        <ele>1069.1999511719</ele>
        <time>2023-05-15T13:56:54.000Z</time>
      </trkpt>
      <trkpt lat="46.75307" lon="6.31362">
        <ele>1069</ele>
        <time>2023-05-15T13:57:02.000Z</time>
      </trkpt>
      <trkpt lat="46.75296" lon="6.31337">
        <ele>1068.8000488281</ele>
        <time>2023-05-15T13:57:05.000Z</time>
      </trkpt>
      <trkpt lat="46.75282" lon="6.31296">
        <ele>1068.5999755859</ele>
        <time>2023-05-15T13:57:10.000Z</time>
      </trkpt>
      <trkpt lat="46.75272" lon="6.31258">
        <ele>1068.4000244141</ele>
        <time>2023-05-15T13:57:15.000Z</time>
      </trkpt>
      <trkpt lat="46.75265" lon="6.31227">
        <ele>1068.4000244141</ele>
        <time>2023-05-15T13:57:20.000Z</time>
      </trkpt>
      <trkpt lat="46.75259" lon="6.31203">
        <ele>1068.1999511719</ele>
        <time>2023-05-15T13:57:23.000Z</time>
      </trkpt>
      <trkpt lat="46.75238" lon="6.31143">
        <ele>1067.8000488281</ele>
        <time>2023-05-15T13:57:31.000Z</time>
      </trkpt>
      <trkpt lat="46.75233" lon="6.31131">
        <ele>1067.5999755859</ele>
        <time>2023-05-15T13:57:33.000Z</time>
      </trkpt>
      <trkpt lat="46.75225" lon="6.31114">
        <ele>1067.8000488281</ele>
        <time>2023-05-15T13:57:36.000Z</time>
      </trkpt>
      <trkpt lat="46.75198" lon="6.31066">
        <ele>1067.8000488281</ele>
        <time>2023-05-15T13:57:45.000Z</time>
      </trkpt>
      <trkpt lat="46.75179" lon="6.31046">
        <ele>1067.8000488281</ele>
        <time>2023-05-15T13:57:51.000Z</time>
      </trkpt>
      <trkpt lat="46.7516" lon="6.31031">
        <ele>1067.8000488281</ele>
        <time>2023-05-15T13:57:57.000Z</time>
      </trkpt>
      <trkpt lat="46.75158" lon="6.3103">
        <ele>1067.8000488281</ele>
        <time>2023-05-15T13:57:58.000Z</time>
      </trkpt>
      <trkpt lat="46.75145" lon="6.31019">
        <ele>1067.4000244141</ele>
        <time>2023-05-15T13:58:03.000Z</time>
      </trkpt>
      <trkpt lat="46.75135" lon="6.31007">
        <ele>1067.4000244141</ele>
        <time>2023-05-15T13:58:09.000Z</time>
      </trkpt>
      <trkpt lat="46.75128" lon="6.31002">
        <ele>1067.1999511719</ele>
        <time>2023-05-15T13:58:14.000Z</time>
      </trkpt>
      <trkpt lat="46.75126" lon="6.30999">
        <ele>1066.8000488281</ele>
        <time>2023-05-15T13:58:19.000Z</time>
      </trkpt>
      <trkpt lat="46.75113" lon="6.30989">
        <ele>941</ele>
        <time>2023-05-15T14:09:58.000Z</time>
      </trkpt>
      <trkpt lat="46.75111" lon="6.30988">
        <ele>940.79998779297</ele>
        <time>2023-05-15T14:09:59.000Z</time>
      </trkpt>
      <trkpt lat="46.75096" lon="6.30982">
        <ele>940.20001220703</ele>
        <time>2023-05-15T14:10:07.000Z</time>
      </trkpt>
      <trkpt lat="46.75082" lon="6.30976">
        <ele>939.59997558594</ele>
        <time>2023-05-15T14:10:15.000Z</time>
      </trkpt>
      <trkpt lat="46.75068" lon="6.30967">
        <ele>939.79998779297</ele>
        <time>2023-05-15T14:10:23.000Z</time>
      </trkpt>
      <trkpt lat="46.75058" lon="6.30962">
        <ele>939.59997558594</ele>
        <time>2023-05-15T14:10:29.000Z</time>
      </trkpt>
      <trkpt lat="46.75052" lon="6.30957">
        <ele>939.79998779297</ele>
        <time>2023-05-15T14:10:33.000Z</time>
      </trkpt>
      <trkpt lat="46.75044" lon="6.30948">
        <ele>940.20001220703</ele>
        <time>2023-05-15T14:10:39.000Z</time>
      </trkpt>
      <trkpt lat="46.7503" lon="6.30936">
        <ele>940.40002441406</ele>
        <time>2023-05-15T14:10:48.000Z</time>
      </trkpt>
      <trkpt lat="46.75027" lon="6.30933">
        <ele>940.59997558594</ele>
        <time>2023-05-15T14:10:50.000Z</time>
      </trkpt>
      <trkpt lat="46.75006" lon="6.30914">
        <ele>941</ele>
        <time>2023-05-15T14:11:01.000Z</time>
      </trkpt>
      <trkpt lat="46.75004" lon="6.30912">
        <ele>940.79998779297</ele>
        <time>2023-05-15T14:11:02.000Z</time>
      </trkpt>
      <trkpt lat="46.74991" lon="6.309">
        <ele>941.79998779297</ele>
        <time>2023-05-15T14:11:09.000Z</time>
      </trkpt>
      <trkpt lat="46.74986" lon="6.30893">
        <ele>942.20001220703</ele>
        <time>2023-05-15T14:11:12.000Z</time>
      </trkpt>
      <trkpt lat="46.74975" lon="6.30876">
        <ele>942.59997558594</ele>
        <time>2023-05-15T14:11:19.000Z</time>
      </trkpt>
      <trkpt lat="46.74967" lon="6.30866">
        <ele>943</ele>
        <time>2023-05-15T14:11:23.000Z</time>
      </trkpt>
      <trkpt lat="46.74958" lon="6.30852">
        <ele>943.40002441406</ele>
        <time>2023-05-15T14:11:28.000Z</time>
      </trkpt>
      <trkpt lat="46.74952" lon="6.3084">
        <ele>943.59997558594</ele>
        <time>2023-05-15T14:11:32.000Z</time>
      </trkpt>
      <trkpt lat="46.74938" lon="6.30817">
        <ele>944.20001220703</ele>
        <time>2023-05-15T14:11:39.000Z</time>
      </trkpt>
      <trkpt lat="46.74934" lon="6.30808">
        <ele>944.20001220703</ele>
        <time>2023-05-15T14:11:41.000Z</time>
      </trkpt>
      <trkpt lat="46.74921" lon="6.30781">
        <ele>944.40002441406</ele>
        <time>2023-05-15T14:11:46.000Z</time>
      </trkpt>
      <trkpt lat="46.749" lon="6.3074">
        <ele>944.79998779297</ele>
        <time>2023-05-15T14:11:52.000Z</time>
      </trkpt>
      <trkpt lat="46.74895" lon="6.30734">
        <ele>944.79998779297</ele>
        <time>2023-05-15T14:11:53.000Z</time>
      </trkpt>
      <trkpt lat="46.74871" lon="6.30705">
        <ele>945.20001220703</ele>
        <time>2023-05-15T14:11:58.000Z</time>
      </trkpt>
      <trkpt lat="46.74866" lon="6.307">
        <ele>945.40002441406</ele>
        <time>2023-05-15T14:11:59.000Z</time>
      </trkpt>
      <trkpt lat="46.74851" lon="6.30684">
        <ele>946</ele>
        <time>2023-05-15T14:12:02.000Z</time>
      </trkpt>
      <trkpt lat="46.74838" lon="6.3067">
        <ele>946.40002441406</ele>
        <time>2023-05-15T14:12:05.000Z</time>
      </trkpt>
      <trkpt lat="46.74834" lon="6.30665">
        <ele>946.40002441406</ele>
        <time>2023-05-15T14:12:06.000Z</time>
      </trkpt>
      <trkpt lat="46.74815" lon="6.30639">
        <ele>947</ele>
        <time>2023-05-15T14:12:12.000Z</time>
      </trkpt>
      <trkpt lat="46.74812" lon="6.30635">
        <ele>947.20001220703</ele>
        <time>2023-05-15T14:12:13.000Z</time>
      </trkpt>
      <trkpt lat="46.74796" lon="6.30613">
        <ele>948.20001220703</ele>
        <time>2023-05-15T14:12:18.000Z</time>
      </trkpt>
      <trkpt lat="46.74788" lon="6.306">
        <ele>948.59997558594</ele>
        <time>2023-05-15T14:12:21.000Z</time>
      </trkpt>
      <trkpt lat="46.7478" lon="6.30586">
        <ele>949.20001220703</ele>
        <time>2023-05-15T14:12:24.000Z</time>
      </trkpt>
      <trkpt lat="46.74766" lon="6.30562">
        <ele>950</ele>
        <time>2023-05-15T14:12:29.000Z</time>
      </trkpt>
      <trkpt lat="46.74764" lon="6.30558">
        <ele>950.20001220703</ele>
        <time>2023-05-15T14:12:30.000Z</time>
      </trkpt>
      <trkpt lat="46.74748" lon="6.30524">
        <ele>951.20001220703</ele>
        <time>2023-05-15T14:12:36.000Z</time>
      </trkpt>
      <trkpt lat="46.74741" lon="6.30515">
        <ele>951.40002441406</ele>
        <time>2023-05-15T14:12:38.000Z</time>
      </trkpt>
      <trkpt lat="46.74735" lon="6.30511">
        <ele>951.59997558594</ele>
        <time>2023-05-15T14:12:40.000Z</time>
      </trkpt>
      <trkpt lat="46.74726" lon="6.3051">
        <ele>952</ele>
        <time>2023-05-15T14:12:43.000Z</time>
      </trkpt>
      <trkpt lat="46.74719" lon="6.3051">
        <ele>952.40002441406</ele>
        <time>2023-05-15T14:12:45.000Z</time>
      </trkpt>
      <trkpt lat="46.74709" lon="6.3051">
        <ele>952.79998779297</ele>
        <time>2023-05-15T14:12:48.000Z</time>
      </trkpt>
      <trkpt lat="46.74688" lon="6.30508">
        <ele>953.40002441406</ele>
        <time>2023-05-15T14:12:55.000Z</time>
      </trkpt>
      <trkpt lat="46.74679" lon="6.30506">
        <ele>953.59997558594</ele>
        <time>2023-05-15T14:12:58.000Z</time>
      </trkpt>
      <trkpt lat="46.74672" lon="6.30502">
        <ele>953.79998779297</ele>
        <time>2023-05-15T14:13:01.000Z</time>
      </trkpt>
      <trkpt lat="46.74661" lon="6.30492">
        <ele>954.20001220703</ele>
        <time>2023-05-15T14:13:05.000Z</time>
      </trkpt>
      <trkpt lat="46.74655" lon="6.30487">
        <ele>954.59997558594</ele>
        <time>2023-05-15T14:13:07.000Z</time>
      </trkpt>
      <trkpt lat="46.74644" lon="6.30477">
        <ele>955</ele>
        <time>2023-05-15T14:13:13.000Z</time>
      </trkpt>
      <trkpt lat="46.74641" lon="6.30475">
        <ele>955</ele>
        <time>2023-05-15T14:13:15.000Z</time>
      </trkpt>
      <trkpt lat="46.74635" lon="6.30467">
        <ele>955.40002441406</ele>
        <time>2023-05-15T14:13:19.000Z</time>
      </trkpt>
      <trkpt lat="46.74631" lon="6.3046">
        <ele>956</ele>
        <time>2023-05-15T14:13:22.000Z</time>
      </trkpt>
      <trkpt lat="46.74626" lon="6.30453">
        <ele>956.40002441406</ele>
        <time>2023-05-15T14:13:26.000Z</time>
      </trkpt>
      <trkpt lat="46.7462" lon="6.30441">
        <ele>956.59997558594</ele>
        <time>2023-05-15T14:13:31.000Z</time>
      </trkpt>
      <trkpt lat="46.74619" lon="6.30436">
        <ele>957</ele>
        <time>2023-05-15T14:13:33.000Z</time>
      </trkpt>
      <trkpt lat="46.74616" lon="6.30426">
        <ele>957.59997558594</ele>
        <time>2023-05-15T14:13:37.000Z</time>
      </trkpt>
      <trkpt lat="46.74611" lon="6.30418">
        <ele>957.79998779297</ele>
        <time>2023-05-15T14:13:41.000Z</time>
      </trkpt>
      <trkpt lat="46.74604" lon="6.30404">
        <ele>957.79998779297</ele>
        <time>2023-05-15T14:13:48.000Z</time>
      </trkpt>
      <trkpt lat="46.74593" lon="6.30389">
        <ele>957.20001220703</ele>
        <time>2023-05-15T14:13:56.000Z</time>
      </trkpt>
      <trkpt lat="46.74584" lon="6.30379">
        <ele>956.79998779297</ele>
        <time>2023-05-15T14:14:03.000Z</time>
      </trkpt>
      <trkpt lat="46.74574" lon="6.30367">
        <ele>955.40002441406</ele>
        <time>2023-05-15T14:14:11.000Z</time>
      </trkpt>
      <trkpt lat="46.74571" lon="6.30365">
        <ele>954.79998779297</ele>
        <time>2023-05-15T14:14:13.000Z</time>
      </trkpt>
      <trkpt lat="46.74563" lon="6.30357">
        <ele>953.79998779297</ele>
        <time>2023-05-15T14:14:19.000Z</time>
      </trkpt>
      <trkpt lat="46.74562" lon="6.30356">
        <ele>953.40002441406</ele>
        <time>2023-05-15T14:14:20.000Z</time>
      </trkpt>
      <trkpt lat="46.74558" lon="6.30351">
        <ele>953</ele>
        <time>2023-05-15T14:14:24.000Z</time>
      </trkpt>
      <trkpt lat="46.74555" lon="6.30349">
        <ele>953</ele>
        <time>2023-05-15T14:14:26.000Z</time>
      </trkpt>
      <trkpt lat="46.74552" lon="6.30347">
        <ele>952.59997558594</ele>
        <time>2023-05-15T14:14:30.000Z</time>
      </trkpt>
      <trkpt lat="46.7455" lon="6.30343">
        <ele>952.40002441406</ele>
        <time>2023-05-15T14:14:32.000Z</time>
      </trkpt>
      <trkpt lat="46.7454" lon="6.30335">
        <ele>952</ele>
        <time>2023-05-15T14:14:40.000Z</time>
      </trkpt>
      <trkpt lat="46.74538" lon="6.30334">
        <ele>952</ele>
        <time>2023-05-15T14:14:41.000Z</time>
      </trkpt>
      <trkpt lat="46.74531" lon="6.30327">
        <ele>952</ele>
        <time>2023-05-15T14:14:46.000Z</time>
      </trkpt>
      <trkpt lat="46.74518" lon="6.30322">
        <ele>952.20001220703</ele>
        <time>2023-05-15T14:14:53.000Z</time>
      </trkpt>
      <trkpt lat="46.74507" lon="6.30322">
        <ele>952.59997558594</ele>
        <time>2023-05-15T14:14:59.000Z</time>
      </trkpt>
      <trkpt lat="46.74499" lon="6.30334">
        <ele>952.59997558594</ele>
        <time>2023-05-15T14:15:05.000Z</time>
      </trkpt>
      <trkpt lat="46.74493" lon="6.30352">
        <ele>951.79998779297</ele>
        <time>2023-05-15T14:15:13.000Z</time>
      </trkpt>
      <trkpt lat="46.74494" lon="6.30355">
        <ele>951.40002441406</ele>
        <time>2023-05-15T14:15:14.000Z</time>
      </trkpt>
      <trkpt lat="46.74495" lon="6.30357">
        <ele>951.40002441406</ele>
        <time>2023-05-15T14:15:15.000Z</time>
      </trkpt>
      <trkpt lat="46.74495" lon="6.30361">
        <ele>951.20001220703</ele>
        <time>2023-05-15T14:15:17.000Z</time>
      </trkpt>
      <trkpt lat="46.74495" lon="6.30366">
        <ele>950.59997558594</ele>
        <time>2023-05-15T14:15:19.000Z</time>
      </trkpt>
      <trkpt lat="46.74496" lon="6.30376">
        <ele>950</ele>
        <time>2023-05-15T14:15:23.000Z</time>
      </trkpt>
      <trkpt lat="46.74495" lon="6.30386">
        <ele>949.79998779297</ele>
        <time>2023-05-15T14:15:27.000Z</time>
      </trkpt>
      <trkpt lat="46.74491" lon="6.30402">
        <ele>948.40002441406</ele>
        <time>2023-05-15T14:15:34.000Z</time>
      </trkpt>
      <trkpt lat="46.74485" lon="6.30413">
        <ele>947.20001220703</ele>
        <time>2023-05-15T14:15:40.000Z</time>
      </trkpt>
      <trkpt lat="46.74484" lon="6.30414">
        <ele>946.59997558594</ele>
        <time>2023-05-15T14:15:41.000Z</time>
      </trkpt>
      <trkpt lat="46.74478" lon="6.3042">
        <ele>945</ele>
        <time>2023-05-15T14:15:46.000Z</time>
      </trkpt>
      <trkpt lat="46.74476" lon="6.30423">
        <ele>944.40002441406</ele>
        <time>2023-05-15T14:15:48.000Z</time>
      </trkpt>
      <trkpt lat="46.74474" lon="6.30432">
        <ele>943.79998779297</ele>
        <time>2023-05-15T14:15:52.000Z</time>
      </trkpt>
      <trkpt lat="46.74468" lon="6.30441">
        <ele>942.59997558594</ele>
        <time>2023-05-15T14:15:57.000Z</time>
      </trkpt>
      <trkpt lat="46.74467" lon="6.30442">
        <ele>942.20001220703</ele>
        <time>2023-05-15T14:15:58.000Z</time>
      </trkpt>
      <trkpt lat="46.74466" lon="6.30451">
        <ele>941.20001220703</ele>
        <time>2023-05-15T14:16:01.000Z</time>
      </trkpt>
      <trkpt lat="46.74465" lon="6.30453">
        <ele>941</ele>
        <time>2023-05-15T14:16:02.000Z</time>
      </trkpt>
      <trkpt lat="46.74462" lon="6.30462">
        <ele>939.79998779297</ele>
        <time>2023-05-15T14:16:06.000Z</time>
      </trkpt>
      <trkpt lat="46.74457" lon="6.30469">
        <ele>939.20001220703</ele>
        <time>2023-05-15T14:16:10.000Z</time>
      </trkpt>
      <trkpt lat="46.74455" lon="6.30481">
        <ele>938.59997558594</ele>
        <time>2023-05-15T14:16:14.000Z</time>
      </trkpt>
      <trkpt lat="46.74457" lon="6.30487">
        <ele>938.40002441406</ele>
        <time>2023-05-15T14:16:16.000Z</time>
      </trkpt>
      <trkpt lat="46.74456" lon="6.3049">
        <ele>938.20001220703</ele>
        <time>2023-05-15T14:16:18.000Z</time>
      </trkpt>
      <trkpt lat="46.74452" lon="6.30499">
        <ele>937.20001220703</ele>
        <time>2023-05-15T14:16:24.000Z</time>
      </trkpt>
      <trkpt lat="46.74445" lon="6.30517">
        <ele>936.20001220703</ele>
        <time>2023-05-15T14:16:34.000Z</time>
      </trkpt>
      <trkpt lat="46.74444" lon="6.30519">
        <ele>936.20001220703</ele>
        <time>2023-05-15T14:16:35.000Z</time>
      </trkpt>
      <trkpt lat="46.74439" lon="6.30531">
        <ele>935.79998779297</ele>
        <time>2023-05-15T14:16:41.000Z</time>
      </trkpt>
      <trkpt lat="46.74434" lon="6.30546">
        <ele>935.40002441406</ele>
        <time>2023-05-15T14:16:49.000Z</time>
      </trkpt>
      <trkpt lat="46.74434" lon="6.30547">
        <ele>935.20001220703</ele>
        <time>2023-05-15T14:16:50.000Z</time>
      </trkpt>
      <trkpt lat="46.74432" lon="6.3056">
        <ele>934.79998779297</ele>
        <time>2023-05-15T14:16:56.000Z</time>
      </trkpt>
      <trkpt lat="46.7443" lon="6.30582">
        <ele>934.40002441406</ele>
        <time>2023-05-15T14:17:06.000Z</time>
      </trkpt>
      <trkpt lat="46.74428" lon="6.3059">
        <ele>934.40002441406</ele>
        <time>2023-05-15T14:17:10.000Z</time>
      </trkpt>
      <trkpt lat="46.74426" lon="6.30594">
        <ele>934.20001220703</ele>
        <time>2023-05-15T14:17:12.000Z</time>
      </trkpt>
      <trkpt lat="46.74418" lon="6.30599">
        <ele>934.59997558594</ele>
        <time>2023-05-15T14:17:18.000Z</time>
      </trkpt>
      <trkpt lat="46.74416" lon="6.30599">
        <ele>934.59997558594</ele>
        <time>2023-05-15T14:17:19.000Z</time>
      </trkpt>
      <trkpt lat="46.74409" lon="6.30601">
        <ele>935</ele>
        <time>2023-05-15T14:17:25.000Z</time>
      </trkpt>
      <trkpt lat="46.74406" lon="6.30601">
        <ele>935.20001220703</ele>
        <time>2023-05-15T14:17:27.000Z</time>
      </trkpt>
      <trkpt lat="46.74393" lon="6.306">
        <ele>936</ele>
        <time>2023-05-15T14:17:36.000Z</time>
      </trkpt>
      <trkpt lat="46.74382" lon="6.30597">
        <ele>936.40002441406</ele>
        <time>2023-05-15T14:17:43.000Z</time>
      </trkpt>
      <trkpt lat="46.7438" lon="6.30597">
        <ele>936.79998779297</ele>
        <time>2023-05-15T14:17:44.000Z</time>
      </trkpt>
      <trkpt lat="46.74372" lon="6.30596">
        <ele>937.40002441406</ele>
        <time>2023-05-15T14:17:50.000Z</time>
      </trkpt>
      <trkpt lat="46.74368" lon="6.30594">
        <ele>937.79998779297</ele>
        <time>2023-05-15T14:17:53.000Z</time>
      </trkpt>
      <trkpt lat="46.74365" lon="6.30593">
        <ele>938.20001220703</ele>
        <time>2023-05-15T14:17:55.000Z</time>
      </trkpt>
      <trkpt lat="46.74356" lon="6.3059">
        <ele>939</ele>
        <time>2023-05-15T14:18:01.000Z</time>
      </trkpt>
      <trkpt lat="46.74355" lon="6.3059">
        <ele>939</ele>
        <time>2023-05-15T14:18:02.000Z</time>
      </trkpt>
      <trkpt lat="46.74346" lon="6.30588">
        <ele>939.79998779297</ele>
        <time>2023-05-15T14:18:08.000Z</time>
      </trkpt>
      <trkpt lat="46.74345" lon="6.30588">
        <ele>940</ele>
        <time>2023-05-15T14:18:09.000Z</time>
      </trkpt>
      <trkpt lat="46.74339" lon="6.30589">
        <ele>940.59997558594</ele>
        <time>2023-05-15T14:18:13.000Z</time>
      </trkpt>
      <trkpt lat="46.74335" lon="6.30589">
        <ele>940.79998779297</ele>
        <time>2023-05-15T14:18:16.000Z</time>
      </trkpt>
      <trkpt lat="46.7433" lon="6.30591">
        <ele>941.40002441406</ele>
        <time>2023-05-15T14:18:20.000Z</time>
      </trkpt>
      <trkpt lat="46.74326" lon="6.30592">
        <ele>941.59997558594</ele>
        <time>2023-05-15T14:18:24.000Z</time>
      </trkpt>
      <trkpt lat="46.74326" lon="6.30592">
        <ele>942</ele>
        <time>2023-05-15T14:18:27.000Z</time>
      </trkpt>
      <trkpt lat="46.74281" lon="6.30582">
        <ele>943.20001220703</ele>
        <time>2023-05-15T14:19:34.000Z</time>
      </trkpt>
      <trkpt lat="46.74277" lon="6.3058">
        <ele>943.40002441406</ele>
        <time>2023-05-15T14:19:39.000Z</time>
      </trkpt>
      <trkpt lat="46.74276" lon="6.30579">
        <ele>943.79998779297</ele>
        <time>2023-05-15T14:19:44.000Z</time>
      </trkpt>
      <trkpt lat="46.74276" lon="6.30579">
        <ele>943.79998779297</ele>
        <time>2023-05-15T14:19:47.000Z</time>
      </trkpt>
      <trkpt lat="46.74274" lon="6.30552">
        <ele>944.20001220703</ele>
        <time>2023-05-15T14:20:28.000Z</time>
      </trkpt>
      <trkpt lat="46.74272" lon="6.30545">
        <ele>944.40002441406</ele>
        <time>2023-05-15T14:20:31.000Z</time>
      </trkpt>
      <trkpt lat="46.74266" lon="6.30524">
        <ele>944.79998779297</ele>
        <time>2023-05-15T14:20:40.000Z</time>
      </trkpt>
      <trkpt lat="46.74261" lon="6.30504">
        <ele>945</ele>
        <time>2023-05-15T14:20:50.000Z</time>
      </trkpt>
      <trkpt lat="46.7426" lon="6.30499">
        <ele>945.20001220703</ele>
        <time>2023-05-15T14:20:53.000Z</time>
      </trkpt>
      <trkpt lat="46.74258" lon="6.30489">
        <ele>945.40002441406</ele>
        <time>2023-05-15T14:20:58.000Z</time>
      </trkpt>
      <trkpt lat="46.74255" lon="6.30479">
        <ele>945.59997558594</ele>
        <time>2023-05-15T14:21:03.000Z</time>
      </trkpt>
      <trkpt lat="46.74253" lon="6.30467">
        <ele>946</ele>
        <time>2023-05-15T14:21:09.000Z</time>
      </trkpt>
      <trkpt lat="46.74251" lon="6.30461">
        <ele>946.20001220703</ele>
        <time>2023-05-15T14:21:12.000Z</time>
      </trkpt>
      <trkpt lat="46.74247" lon="6.30447">
        <ele>946.59997558594</ele>
        <time>2023-05-15T14:21:19.000Z</time>
      </trkpt>
      <trkpt lat="46.74244" lon="6.30441">
        <ele>946.79998779297</ele>
        <time>2023-05-15T14:21:23.000Z</time>
      </trkpt>
      <trkpt lat="46.74243" lon="6.3044">
        <ele>947</ele>
        <time>2023-05-15T14:21:24.000Z</time>
      </trkpt>
      <trkpt lat="46.7424" lon="6.3044">
        <ele>947</ele>
        <time>2023-05-15T14:21:26.000Z</time>
      </trkpt>
      <trkpt lat="46.74234" lon="6.30445">
        <ele>947.59997558594</ele>
        <time>2023-05-15T14:21:31.000Z</time>
      </trkpt>
      <trkpt lat="46.74227" lon="6.30451">
        <ele>947.79998779297</ele>
        <time>2023-05-15T14:21:36.000Z</time>
      </trkpt>
      <trkpt lat="46.74221" lon="6.30453">
        <ele>948.40002441406</ele>
        <time>2023-05-15T14:21:40.000Z</time>
      </trkpt>
      <trkpt lat="46.74211" lon="6.30454">
        <ele>948.79998779297</ele>
        <time>2023-05-15T14:21:46.000Z</time>
      </trkpt>
      <trkpt lat="46.7421" lon="6.30454">
        <ele>949</ele>
        <time>2023-05-15T14:21:47.000Z</time>
      </trkpt>
      <trkpt lat="46.742" lon="6.30446">
        <ele>949.40002441406</ele>
        <time>2023-05-15T14:21:54.000Z</time>
      </trkpt>
      <trkpt lat="46.74199" lon="6.30445">
        <ele>949.59997558594</ele>
        <time>2023-05-15T14:21:55.000Z</time>
      </trkpt>
      <trkpt lat="46.74191" lon="6.30433">
        <ele>950.59997558594</ele>
        <time>2023-05-15T14:22:01.000Z</time>
      </trkpt>
      <trkpt lat="46.74186" lon="6.30426">
        <ele>951</ele>
        <time>2023-05-15T14:22:05.000Z</time>
      </trkpt>
      <trkpt lat="46.74184" lon="6.30422">
        <ele>951.40002441406</ele>
        <time>2023-05-15T14:22:07.000Z</time>
      </trkpt>
      <trkpt lat="46.74178" lon="6.3041">
        <ele>952</ele>
        <time>2023-05-15T14:22:13.000Z</time>
      </trkpt>
      <trkpt lat="46.74177" lon="6.30406">
        <ele>952.20001220703</ele>
        <time>2023-05-15T14:22:15.000Z</time>
      </trkpt>
      <trkpt lat="46.74173" lon="6.30395">
        <ele>953</ele>
        <time>2023-05-15T14:22:20.000Z</time>
      </trkpt>
      <trkpt lat="46.74172" lon="6.30392">
        <ele>952.79998779297</ele>
        <time>2023-05-15T14:22:21.000Z</time>
      </trkpt>
      <trkpt lat="46.7417" lon="6.30385">
        <ele>953.40002441406</ele>
        <time>2023-05-15T14:22:24.000Z</time>
      </trkpt>
      <trkpt lat="46.74168" lon="6.30378">
        <ele>953.79998779297</ele>
        <time>2023-05-15T14:22:27.000Z</time>
      </trkpt>
      <trkpt lat="46.74165" lon="6.30362">
        <ele>954.79998779297</ele>
        <time>2023-05-15T14:22:33.000Z</time>
      </trkpt>
      <trkpt lat="46.74161" lon="6.30343">
        <ele>955.20001220703</ele>
        <time>2023-05-15T14:22:40.000Z</time>
      </trkpt>
      <trkpt lat="46.74161" lon="6.30341">
        <ele>955.40002441406</ele>
        <time>2023-05-15T14:22:41.000Z</time>
      </trkpt>
      <trkpt lat="46.74158" lon="6.30324">
        <ele>956.20001220703</ele>
        <time>2023-05-15T14:22:47.000Z</time>
      </trkpt>
      <trkpt lat="46.74157" lon="6.30321">
        <ele>956.20001220703</ele>
        <time>2023-05-15T14:22:48.000Z</time>
      </trkpt>
      <trkpt lat="46.74154" lon="6.30311">
        <ele>957</ele>
        <time>2023-05-15T14:22:52.000Z</time>
      </trkpt>
      <trkpt lat="46.74151" lon="6.30303">
        <ele>957.59997558594</ele>
        <time>2023-05-15T14:22:55.000Z</time>
      </trkpt>
      <trkpt lat="46.74147" lon="6.30297">
        <ele>957.79998779297</ele>
        <time>2023-05-15T14:22:58.000Z</time>
      </trkpt>
      <trkpt lat="46.74141" lon="6.30289">
        <ele>958.59997558594</ele>
        <time>2023-05-15T14:23:02.000Z</time>
      </trkpt>
      <trkpt lat="46.74137" lon="6.30283">
        <ele>959.20001220703</ele>
        <time>2023-05-15T14:23:05.000Z</time>
      </trkpt>
      <trkpt lat="46.74136" lon="6.30281">
        <ele>959.40002441406</ele>
        <time>2023-05-15T14:23:06.000Z</time>
      </trkpt>
      <trkpt lat="46.74129" lon="6.30273">
        <ele>960.40002441406</ele>
        <time>2023-05-15T14:23:11.000Z</time>
      </trkpt>
      <trkpt lat="46.74126" lon="6.30268">
        <ele>960.59997558594</ele>
        <time>2023-05-15T14:23:14.000Z</time>
      </trkpt>
      <trkpt lat="46.74123" lon="6.30265">
        <ele>961.20001220703</ele>
        <time>2023-05-15T14:23:16.000Z</time>
      </trkpt>
      <trkpt lat="46.74116" lon="6.30256">
        <ele>962.20001220703</ele>
        <time>2023-05-15T14:23:21.000Z</time>
      </trkpt>
      <trkpt lat="46.74112" lon="6.30251">
        <ele>962.59997558594</ele>
        <time>2023-05-15T14:23:24.000Z</time>
      </trkpt>
      <trkpt lat="46.7411" lon="6.30248">
        <ele>962.79998779297</ele>
        <time>2023-05-15T14:23:26.000Z</time>
      </trkpt>
      <trkpt lat="46.74105" lon="6.30242">
        <ele>963.79998779297</ele>
        <time>2023-05-15T14:23:31.000Z</time>
      </trkpt>
      <trkpt lat="46.74101" lon="6.30236">
        <ele>964.79998779297</ele>
        <time>2023-05-15T14:23:36.000Z</time>
      </trkpt>
      <trkpt lat="46.74099" lon="6.30233">
        <ele>965.20001220703</ele>
        <time>2023-05-15T14:23:38.000Z</time>
      </trkpt>
      <trkpt lat="46.74095" lon="6.30228">
        <ele>965.59997558594</ele>
        <time>2023-05-15T14:23:41.000Z</time>
      </trkpt>
      <trkpt lat="46.74088" lon="6.30221">
        <ele>966.59997558594</ele>
        <time>2023-05-15T14:23:46.000Z</time>
      </trkpt>
      <trkpt lat="46.74086" lon="6.3022">
        <ele>967</ele>
        <time>2023-05-15T14:23:47.000Z</time>
      </trkpt>
      <trkpt lat="46.74078" lon="6.30214">
        <ele>967.79998779297</ele>
        <time>2023-05-15T14:23:52.000Z</time>
      </trkpt>
      <trkpt lat="46.74074" lon="6.30212">
        <ele>968.59997558594</ele>
        <time>2023-05-15T14:23:55.000Z</time>
      </trkpt>
      <trkpt lat="46.74072" lon="6.30211">
        <ele>968.79998779297</ele>
        <time>2023-05-15T14:23:56.000Z</time>
      </trkpt>
      <trkpt lat="46.74064" lon="6.30211">
        <ele>970</ele>
        <time>2023-05-15T14:24:01.000Z</time>
      </trkpt>
      <trkpt lat="46.74055" lon="6.30215">
        <ele>971</ele>
        <time>2023-05-15T14:24:06.000Z</time>
      </trkpt>
      <trkpt lat="46.74052" lon="6.30218">
        <ele>971.20001220703</ele>
        <time>2023-05-15T14:24:08.000Z</time>
      </trkpt>
      <trkpt lat="46.7405" lon="6.30224">
        <ele>971.79998779297</ele>
        <time>2023-05-15T14:24:11.000Z</time>
      </trkpt>
      <trkpt lat="46.74046" lon="6.30235">
        <ele>972.59997558594</ele>
        <time>2023-05-15T14:24:16.000Z</time>
      </trkpt>
      <trkpt lat="46.74045" lon="6.30237">
        <ele>972.79998779297</ele>
        <time>2023-05-15T14:24:17.000Z</time>
      </trkpt>
      <trkpt lat="46.74042" lon="6.30246">
        <ele>973.40002441406</ele>
        <time>2023-05-15T14:24:21.000Z</time>
      </trkpt>
      <trkpt lat="46.74037" lon="6.30256">
        <ele>974.20001220703</ele>
        <time>2023-05-15T14:24:26.000Z</time>
      </trkpt>
      <trkpt lat="46.74037" lon="6.30258">
        <ele>974.20001220703</ele>
        <time>2023-05-15T14:24:27.000Z</time>
      </trkpt>
      <trkpt lat="46.74028" lon="6.30265">
        <ele>975</ele>
        <time>2023-05-15T14:24:33.000Z</time>
      </trkpt>
      <trkpt lat="46.74026" lon="6.30266">
        <ele>975.20001220703</ele>
        <time>2023-05-15T14:24:34.000Z</time>
      </trkpt>
      <trkpt lat="46.74015" lon="6.30265">
        <ele>976.20001220703</ele>
        <time>2023-05-15T14:24:40.000Z</time>
      </trkpt>
      <trkpt lat="46.74014" lon="6.30264">
        <ele>976.20001220703</ele>
        <time>2023-05-15T14:24:41.000Z</time>
      </trkpt>
      <trkpt lat="46.74006" lon="6.30258">
        <ele>977</ele>
        <time>2023-05-15T14:24:47.000Z</time>
      </trkpt>
      <trkpt lat="46.74001" lon="6.30252">
        <ele>977.59997558594</ele>
        <time>2023-05-15T14:24:52.000Z</time>
      </trkpt>
      <trkpt lat="46.73999" lon="6.30249">
        <ele>977.79998779297</ele>
        <time>2023-05-15T14:24:54.000Z</time>
      </trkpt>
      <trkpt lat="46.73991" lon="6.30242">
        <ele>978.40002441406</ele>
        <time>2023-05-15T14:25:00.000Z</time>
      </trkpt>
      <trkpt lat="46.7399" lon="6.30241">
        <ele>978.59997558594</ele>
        <time>2023-05-15T14:25:01.000Z</time>
      </trkpt>
      <trkpt lat="46.73978" lon="6.30234">
        <ele>979.20001220703</ele>
        <time>2023-05-15T14:25:10.000Z</time>
      </trkpt>
      <trkpt lat="46.73977" lon="6.30233">
        <ele>979.20001220703</ele>
        <time>2023-05-15T14:25:11.000Z</time>
      </trkpt>
      <trkpt lat="46.73963" lon="6.30225">
        <ele>979.79998779297</ele>
        <time>2023-05-15T14:25:20.000Z</time>
      </trkpt>
      <trkpt lat="46.7395" lon="6.30218">
        <ele>980.40002441406</ele>
        <time>2023-05-15T14:25:29.000Z</time>
      </trkpt>
      <trkpt lat="46.73944" lon="6.30215">
        <ele>980.40002441406</ele>
        <time>2023-05-15T14:25:33.000Z</time>
      </trkpt>
      <trkpt lat="46.73937" lon="6.30211">
        <ele>980.40002441406</ele>
        <time>2023-05-15T14:25:38.000Z</time>
      </trkpt>
      <trkpt lat="46.73922" lon="6.30203">
        <ele>980</ele>
        <time>2023-05-15T14:25:48.000Z</time>
      </trkpt>
      <trkpt lat="46.73908" lon="6.30193">
        <ele>979.79998779297</ele>
        <time>2023-05-15T14:25:58.000Z</time>
      </trkpt>
      <trkpt lat="46.73895" lon="6.30186">
        <ele>980</ele>
        <time>2023-05-15T14:26:07.000Z</time>
      </trkpt>
      <trkpt lat="46.73884" lon="6.30182">
        <ele>980.59997558594</ele>
        <time>2023-05-15T14:26:15.000Z</time>
      </trkpt>
      <trkpt lat="46.73883" lon="6.30181">
        <ele>980.79998779297</ele>
        <time>2023-05-15T14:26:16.000Z</time>
      </trkpt>
      <trkpt lat="46.73871" lon="6.30182">
        <ele>981.40002441406</ele>
        <time>2023-05-15T14:26:24.000Z</time>
      </trkpt>
      <trkpt lat="46.73855" lon="6.30184">
        <ele>982</ele>
        <time>2023-05-15T14:26:33.000Z</time>
      </trkpt>
      <trkpt lat="46.73853" lon="6.30185">
        <ele>982</ele>
        <time>2023-05-15T14:26:34.000Z</time>
      </trkpt>
      <trkpt lat="46.73838" lon="6.30188">
        <ele>982.40002441406</ele>
        <time>2023-05-15T14:26:43.000Z</time>
      </trkpt>
      <trkpt lat="46.73831" lon="6.30189">
        <ele>982.79998779297</ele>
        <time>2023-05-15T14:26:47.000Z</time>
      </trkpt>
      <trkpt lat="46.73822" lon="6.30195">
        <ele>982.59997558594</ele>
        <time>2023-05-15T14:26:53.000Z</time>
      </trkpt>
      <trkpt lat="46.73813" lon="6.30202">
        <ele>982.79998779297</ele>
        <time>2023-05-15T14:27:00.000Z</time>
      </trkpt>
      <trkpt lat="46.73806" lon="6.30206">
        <ele>982.79998779297</ele>
        <time>2023-05-15T14:27:05.000Z</time>
      </trkpt>
      <trkpt lat="46.73799" lon="6.30207">
        <ele>982.79998779297</ele>
        <time>2023-05-15T14:27:09.000Z</time>
      </trkpt>
      <trkpt lat="46.73789" lon="6.302">
        <ele>983</ele>
        <time>2023-05-15T14:27:16.000Z</time>
      </trkpt>
      <trkpt lat="46.73786" lon="6.30196">
        <ele>983.20001220703</ele>
        <time>2023-05-15T14:27:19.000Z</time>
      </trkpt>
      <trkpt lat="46.73782" lon="6.30194">
        <ele>983.40002441406</ele>
        <time>2023-05-15T14:27:23.000Z</time>
      </trkpt>
      <trkpt lat="46.7378" lon="6.30193">
        <ele>983.40002441406</ele>
        <time>2023-05-15T14:27:25.000Z</time>
      </trkpt>
      <trkpt lat="46.73779" lon="6.30192">
        <ele>983.79998779297</ele>
        <time>2023-05-15T14:27:29.000Z</time>
      </trkpt>
      <trkpt lat="46.73773" lon="6.30181">
        <ele>984.59997558594</ele>
        <time>2023-05-15T14:27:35.000Z</time>
      </trkpt>
      <trkpt lat="46.7377" lon="6.30176">
        <ele>984.79998779297</ele>
        <time>2023-05-15T14:27:37.000Z</time>
      </trkpt>
      <trkpt lat="46.73764" lon="6.3017">
        <ele>985.20001220703</ele>
        <time>2023-05-15T14:27:42.000Z</time>
      </trkpt>
      <trkpt lat="46.73763" lon="6.30166">
        <ele>985.79998779297</ele>
        <time>2023-05-15T14:27:44.000Z</time>
      </trkpt>
      <trkpt lat="46.73761" lon="6.30164">
        <ele>986</ele>
        <time>2023-05-15T14:27:45.000Z</time>
      </trkpt>
      <trkpt lat="46.7376" lon="6.30162">
        <ele>986.20001220703</ele>
        <time>2023-05-15T14:27:46.000Z</time>
      </trkpt>
      <trkpt lat="46.73759" lon="6.30159">
        <ele>986.40002441406</ele>
        <time>2023-05-15T14:27:47.000Z</time>
      </trkpt>
      <trkpt lat="46.73755" lon="6.30152">
        <ele>987.20001220703</ele>
        <time>2023-05-15T14:27:49.000Z</time>
      </trkpt>
      <trkpt lat="46.73753" lon="6.30148">
        <ele>987.79998779297</ele>
        <time>2023-05-15T14:27:51.000Z</time>
      </trkpt>
      <trkpt lat="46.73751" lon="6.30146">
        <ele>988</ele>
        <time>2023-05-15T14:27:52.000Z</time>
      </trkpt>
      <trkpt lat="46.7375" lon="6.30144">
        <ele>988.20001220703</ele>
        <time>2023-05-15T14:27:53.000Z</time>
      </trkpt>
      <trkpt lat="46.73748" lon="6.30139">
        <ele>988.79998779297</ele>
        <time>2023-05-15T14:27:55.000Z</time>
      </trkpt>
      <trkpt lat="46.73745" lon="6.30136">
        <ele>989</ele>
        <time>2023-05-15T14:27:56.000Z</time>
      </trkpt>
      <trkpt lat="46.73744" lon="6.30135">
        <ele>989.40002441406</ele>
        <time>2023-05-15T14:27:57.000Z</time>
      </trkpt>
      <trkpt lat="46.73743" lon="6.30132">
        <ele>990</ele>
        <time>2023-05-15T14:27:59.000Z</time>
      </trkpt>
      <trkpt lat="46.73743" lon="6.30128">
        <ele>990.20001220703</ele>
        <time>2023-05-15T14:28:00.000Z</time>
      </trkpt>
      <trkpt lat="46.73743" lon="6.30125">
        <ele>990.40002441406</ele>
        <time>2023-05-15T14:28:01.000Z</time>
      </trkpt>
      <trkpt lat="46.73741" lon="6.30122">
        <ele>991.40002441406</ele>
        <time>2023-05-15T14:28:03.000Z</time>
      </trkpt>
      <trkpt lat="46.73737" lon="6.30113">
        <ele>992.59997558594</ele>
        <time>2023-05-15T14:28:06.000Z</time>
      </trkpt>
      <trkpt lat="46.73733" lon="6.30106">
        <ele>993</ele>
        <time>2023-05-15T14:28:09.000Z</time>
      </trkpt>
      <trkpt lat="46.73732" lon="6.30105">
        <ele>993.40002441406</ele>
        <time>2023-05-15T14:28:10.000Z</time>
      </trkpt>
      <trkpt lat="46.73726" lon="6.30096">
        <ele>994.59997558594</ele>
        <time>2023-05-15T14:28:14.000Z</time>
      </trkpt>
      <trkpt lat="46.73722" lon="6.3009">
        <ele>995.79998779297</ele>
        <time>2023-05-15T14:28:17.000Z</time>
      </trkpt>
      <trkpt lat="46.7372" lon="6.30085">
        <ele>996.59997558594</ele>
        <time>2023-05-15T14:28:19.000Z</time>
      </trkpt>
      <trkpt lat="46.73719" lon="6.30082">
        <ele>996.59997558594</ele>
        <time>2023-05-15T14:28:20.000Z</time>
      </trkpt>
      <trkpt lat="46.73715" lon="6.30079">
        <ele>997.79998779297</ele>
        <time>2023-05-15T14:28:23.000Z</time>
      </trkpt>
      <trkpt lat="46.73708" lon="6.30073">
        <ele>998.79998779297</ele>
        <time>2023-05-15T14:28:26.000Z</time>
      </trkpt>
      <trkpt lat="46.73708" lon="6.30071">
        <ele>999.20001220703</ele>
        <time>2023-05-15T14:28:27.000Z</time>
      </trkpt>
      <trkpt lat="46.73707" lon="6.30068">
        <ele>999.79998779297</ele>
        <time>2023-05-15T14:28:29.000Z</time>
      </trkpt>
      <trkpt lat="46.73704" lon="6.30065">
        <ele>1000.799987793</ele>
        <time>2023-05-15T14:28:32.000Z</time>
      </trkpt>
      <trkpt lat="46.73704" lon="6.30061">
        <ele>1001.799987793</ele>
        <time>2023-05-15T14:28:35.000Z</time>
      </trkpt>
      <trkpt lat="46.73702" lon="6.30054">
        <ele>1003</ele>
        <time>2023-05-15T14:28:38.000Z</time>
      </trkpt>
      <trkpt lat="46.73701" lon="6.30051">
        <ele>1003.4000244141</ele>
        <time>2023-05-15T14:28:40.000Z</time>
      </trkpt>
      <trkpt lat="46.73699" lon="6.30042">
        <ele>1004</ele>
        <time>2023-05-15T14:28:42.000Z</time>
      </trkpt>
      <trkpt lat="46.73697" lon="6.30035">
        <ele>1004.799987793</ele>
        <time>2023-05-15T14:28:44.000Z</time>
      </trkpt>
      <trkpt lat="46.73695" lon="6.30032">
        <ele>1005.200012207</ele>
        <time>2023-05-15T14:28:45.000Z</time>
      </trkpt>
      <trkpt lat="46.73695" lon="6.30027">
        <ele>1005.200012207</ele>
        <time>2023-05-15T14:28:46.000Z</time>
      </trkpt>
      <trkpt lat="46.73695" lon="6.30022">
        <ele>1006.5999755859</ele>
        <time>2023-05-15T14:28:49.000Z</time>
      </trkpt>
      <trkpt lat="46.73691" lon="6.30017">
        <ele>1007.4000244141</ele>
        <time>2023-05-15T14:28:52.000Z</time>
      </trkpt>
      <trkpt lat="46.73686" lon="6.3001">
        <ele>1008.5999755859</ele>
        <time>2023-05-15T14:28:56.000Z</time>
      </trkpt>
      <trkpt lat="46.73683" lon="6.30002">
        <ele>1009.5999755859</ele>
        <time>2023-05-15T14:29:00.000Z</time>
      </trkpt>
      <trkpt lat="46.7368" lon="6.29995">
        <ele>1010.5999755859</ele>
        <time>2023-05-15T14:29:03.000Z</time>
      </trkpt>
      <trkpt lat="46.73676" lon="6.29987">
        <ele>1011.4000244141</ele>
        <time>2023-05-15T14:29:05.000Z</time>
      </trkpt>
      <trkpt lat="46.73676" lon="6.29985">
        <ele>1011.5999755859</ele>
        <time>2023-05-15T14:29:06.000Z</time>
      </trkpt>
      <trkpt lat="46.73677" lon="6.29972">
        <ele>1012.5999755859</ele>
        <time>2023-05-15T14:29:10.000Z</time>
      </trkpt>
      <trkpt lat="46.73676" lon="6.29964">
        <ele>1013.200012207</ele>
        <time>2023-05-15T14:29:13.000Z</time>
      </trkpt>
      <trkpt lat="46.73676" lon="6.29963">
        <ele>1013.5999755859</ele>
        <time>2023-05-15T14:29:14.000Z</time>
      </trkpt>
      <trkpt lat="46.73674" lon="6.29956">
        <ele>1014.799987793</ele>
        <time>2023-05-15T14:29:17.000Z</time>
      </trkpt>
      <trkpt lat="46.73673" lon="6.29954">
        <ele>1015</ele>
        <time>2023-05-15T14:29:18.000Z</time>
      </trkpt>
      <trkpt lat="46.73672" lon="6.29953">
        <ele>1015.4000244141</ele>
        <time>2023-05-15T14:29:19.000Z</time>
      </trkpt>
      <trkpt lat="46.7367" lon="6.29949">
        <ele>1015.799987793</ele>
        <time>2023-05-15T14:29:21.000Z</time>
      </trkpt>
      <trkpt lat="46.73669" lon="6.29946">
        <ele>1016.4000244141</ele>
        <time>2023-05-15T14:29:22.000Z</time>
      </trkpt>
      <trkpt lat="46.73667" lon="6.29939">
        <ele>1017</ele>
        <time>2023-05-15T14:29:24.000Z</time>
      </trkpt>
      <trkpt lat="46.73667" lon="6.29938">
        <ele>1017.200012207</ele>
        <time>2023-05-15T14:29:26.000Z</time>
      </trkpt>
      <trkpt lat="46.73666" lon="6.29936">
        <ele>1017.799987793</ele>
        <time>2023-05-15T14:29:28.000Z</time>
      </trkpt>
      <trkpt lat="46.73665" lon="6.29926">
        <ele>1019</ele>
        <time>2023-05-15T14:29:31.000Z</time>
      </trkpt>
      <trkpt lat="46.73664" lon="6.29924">
        <ele>1019.200012207</ele>
        <time>2023-05-15T14:29:32.000Z</time>
      </trkpt>
      <trkpt lat="46.73662" lon="6.29917">
        <ele>1019.799987793</ele>
        <time>2023-05-15T14:29:34.000Z</time>
      </trkpt>
      <trkpt lat="46.73657" lon="6.29904">
        <ele>1021.200012207</ele>
        <time>2023-05-15T14:29:38.000Z</time>
      </trkpt>
      <trkpt lat="46.73656" lon="6.2989">
        <ele>1023</ele>
        <time>2023-05-15T14:29:42.000Z</time>
      </trkpt>
      <trkpt lat="46.73655" lon="6.29881">
        <ele>1023.5999755859</ele>
        <time>2023-05-15T14:29:45.000Z</time>
      </trkpt>
      <trkpt lat="46.7365" lon="6.29868">
        <ele>1024.1999511719</ele>
        <time>2023-05-15T14:29:47.000Z</time>
      </trkpt>
      <trkpt lat="46.73647" lon="6.29855">
        <ele>1024.8000488281</ele>
        <time>2023-05-15T14:29:50.000Z</time>
      </trkpt>
      <trkpt lat="46.73645" lon="6.2985">
        <ele>1025.1999511719</ele>
        <time>2023-05-15T14:29:51.000Z</time>
      </trkpt>
      <trkpt lat="46.73643" lon="6.2984">
        <ele>1026.1999511719</ele>
        <time>2023-05-15T14:29:54.000Z</time>
      </trkpt>
      <trkpt lat="46.73641" lon="6.29835">
        <ele>1026.4000244141</ele>
        <time>2023-05-15T14:29:55.000Z</time>
      </trkpt>
      <trkpt lat="46.73638" lon="6.2983">
        <ele>1026.5999755859</ele>
        <time>2023-05-15T14:29:56.000Z</time>
      </trkpt>
      <trkpt lat="46.73635" lon="6.2982">
        <ele>1027.4000244141</ele>
        <time>2023-05-15T14:29:58.000Z</time>
      </trkpt>
      <trkpt lat="46.73635" lon="6.29814">
        <ele>1027.8000488281</ele>
        <time>2023-05-15T14:30:00.000Z</time>
      </trkpt>
      <trkpt lat="46.73629" lon="6.29803">
        <ele>1028.4000244141</ele>
        <time>2023-05-15T14:30:03.000Z</time>
      </trkpt>
      <trkpt lat="46.73629" lon="6.29801">
        <ele>1028.5999755859</ele>
        <time>2023-05-15T14:30:04.000Z</time>
      </trkpt>
      <trkpt lat="46.73629" lon="6.29793">
        <ele>1029</ele>
        <time>2023-05-15T14:30:06.000Z</time>
      </trkpt>
      <trkpt lat="46.73629" lon="6.29787">
        <ele>1029.1999511719</ele>
        <time>2023-05-15T14:30:07.000Z</time>
      </trkpt>
      <trkpt lat="46.73627" lon="6.2978">
        <ele>1029.4000244141</ele>
        <time>2023-05-15T14:30:09.000Z</time>
      </trkpt>
      <trkpt lat="46.73622" lon="6.29765">
        <ele>1030</ele>
        <time>2023-05-15T14:30:14.000Z</time>
      </trkpt>
      <trkpt lat="46.73622" lon="6.29758">
        <ele>1030.5999755859</ele>
        <time>2023-05-15T14:30:16.000Z</time>
      </trkpt>
      <trkpt lat="46.73619" lon="6.29742">
        <ele>1031.5999755859</ele>
        <time>2023-05-15T14:30:19.000Z</time>
      </trkpt>
      <trkpt lat="46.73614" lon="6.29733">
        <ele>1032</ele>
        <time>2023-05-15T14:30:21.000Z</time>
      </trkpt>
      <trkpt lat="46.73608" lon="6.29718">
        <ele>1033.1999511719</ele>
        <time>2023-05-15T14:30:24.000Z</time>
      </trkpt>
      <trkpt lat="46.73606" lon="6.29714">
        <ele>1033.5999755859</ele>
        <time>2023-05-15T14:30:25.000Z</time>
      </trkpt>
      <trkpt lat="46.73603" lon="6.29702">
        <ele>1034.4000244141</ele>
        <time>2023-05-15T14:30:27.000Z</time>
      </trkpt>
      <trkpt lat="46.73594" lon="6.29672">
        <ele>1035.1999511719</ele>
        <time>2023-05-15T14:30:33.000Z</time>
      </trkpt>
      <trkpt lat="46.7359" lon="6.2966">
        <ele>1036.4000244141</ele>
        <time>2023-05-15T14:30:37.000Z</time>
      </trkpt>
      <trkpt lat="46.73587" lon="6.29652">
        <ele>1037.4000244141</ele>
        <time>2023-05-15T14:30:39.000Z</time>
      </trkpt>
      <trkpt lat="46.73586" lon="6.29646">
        <ele>1037.5999755859</ele>
        <time>2023-05-15T14:30:40.000Z</time>
      </trkpt>
      <trkpt lat="46.73582" lon="6.29636">
        <ele>1038.5999755859</ele>
        <time>2023-05-15T14:30:44.000Z</time>
      </trkpt>
      <trkpt lat="46.73582" lon="6.29634">
        <ele>1038.8000488281</ele>
        <time>2023-05-15T14:30:45.000Z</time>
      </trkpt>
      <trkpt lat="46.73581" lon="6.29632">
        <ele>1039.4000244141</ele>
        <time>2023-05-15T14:30:46.000Z</time>
      </trkpt>
      <trkpt lat="46.7358" lon="6.29629">
        <ele>1039.8000488281</ele>
        <time>2023-05-15T14:30:47.000Z</time>
      </trkpt>
      <trkpt lat="46.73577" lon="6.29624">
        <ele>1040.4000244141</ele>
        <time>2023-05-15T14:30:49.000Z</time>
      </trkpt>
      <trkpt lat="46.73576" lon="6.29623">
        <ele>1040.5999755859</ele>
        <time>2023-05-15T14:30:50.000Z</time>
      </trkpt>
      <trkpt lat="46.73575" lon="6.29622">
        <ele>1041.1999511719</ele>
        <time>2023-05-15T14:30:51.000Z</time>
      </trkpt>
      <trkpt lat="46.73566" lon="6.29613">
        <ele>1042.1999511719</ele>
        <time>2023-05-15T14:30:55.000Z</time>
      </trkpt>
      <trkpt lat="46.73563" lon="6.29611">
        <ele>1042.5999755859</ele>
        <time>2023-05-15T14:30:56.000Z</time>
      </trkpt>
      <trkpt lat="46.73557" lon="6.296">
        <ele>1043.4000244141</ele>
        <time>2023-05-15T14:31:00.000Z</time>
      </trkpt>
      <trkpt lat="46.73553" lon="6.2959">
        <ele>1043.8000488281</ele>
        <time>2023-05-15T14:31:02.000Z</time>
      </trkpt>
      <trkpt lat="46.73549" lon="6.29575">
        <ele>1044.5999755859</ele>
        <time>2023-05-15T14:31:05.000Z</time>
      </trkpt>
      <trkpt lat="46.73548" lon="6.29571">
        <ele>1044.4000244141</ele>
        <time>2023-05-15T14:31:06.000Z</time>
      </trkpt>
      <trkpt lat="46.73541" lon="6.2955">
        <ele>1045.5999755859</ele>
        <time>2023-05-15T14:31:12.000Z</time>
      </trkpt>
      <trkpt lat="46.7354" lon="6.29546">
        <ele>1045.8000488281</ele>
        <time>2023-05-15T14:31:13.000Z</time>
      </trkpt>
      <trkpt lat="46.73532" lon="6.29528">
        <ele>1046.5999755859</ele>
        <time>2023-05-15T14:31:20.000Z</time>
      </trkpt>
      <trkpt lat="46.73531" lon="6.29524">
        <ele>1046.8000488281</ele>
        <time>2023-05-15T14:31:21.000Z</time>
      </trkpt>
      <trkpt lat="46.73527" lon="6.29499">
        <ele>1047.4000244141</ele>
        <time>2023-05-15T14:31:27.000Z</time>
      </trkpt>
      <trkpt lat="46.73526" lon="6.29469">
        <ele>1047.8000488281</ele>
        <time>2023-05-15T14:31:32.000Z</time>
      </trkpt>
      <trkpt lat="46.73527" lon="6.29462">
        <ele>1048</ele>
        <time>2023-05-15T14:31:33.000Z</time>
      </trkpt>
      <trkpt lat="46.73534" lon="6.29413">
        <ele>1049</ele>
        <time>2023-05-15T14:31:40.000Z</time>
      </trkpt>
      <trkpt lat="46.73535" lon="6.29401">
        <ele>1049</ele>
        <time>2023-05-15T14:31:43.000Z</time>
      </trkpt>
      <trkpt lat="46.73534" lon="6.29398">
        <ele>1049</ele>
        <time>2023-05-15T14:31:44.000Z</time>
      </trkpt>
      <trkpt lat="46.73533" lon="6.29396">
        <ele>1049</ele>
        <time>2023-05-15T14:31:45.000Z</time>
      </trkpt>
      <trkpt lat="46.73529" lon="6.29398">
        <ele>1049.1999511719</ele>
        <time>2023-05-15T14:31:48.000Z</time>
      </trkpt>
      <trkpt lat="46.73519" lon="6.29408">
        <ele>1049</ele>
        <time>2023-05-15T14:31:55.000Z</time>
      </trkpt>
      <trkpt lat="46.73517" lon="6.29409">
        <ele>1049</ele>
        <time>2023-05-15T14:31:56.000Z</time>
      </trkpt>
      <trkpt lat="46.73501" lon="6.29417">
        <ele>1048.1999511719</ele>
        <time>2023-05-15T14:32:05.000Z</time>
      </trkpt>
      <trkpt lat="46.73492" lon="6.29416">
        <ele>1048.1999511719</ele>
        <time>2023-05-15T14:32:11.000Z</time>
      </trkpt>
      <trkpt lat="46.7349" lon="6.29416">
        <ele>1048</ele>
        <time>2023-05-15T14:32:12.000Z</time>
      </trkpt>
      <trkpt lat="46.73478" lon="6.29409">
        <ele>1048</ele>
        <time>2023-05-15T14:32:19.000Z</time>
      </trkpt>
      <trkpt lat="46.73469" lon="6.29396">
        <ele>1047.8000488281</ele>
        <time>2023-05-15T14:32:27.000Z</time>
      </trkpt>
      <trkpt lat="46.73467" lon="6.29392">
        <ele>1047.8000488281</ele>
        <time>2023-05-15T14:32:29.000Z</time>
      </trkpt>
      <trkpt lat="46.73458" lon="6.29373">
        <ele>1047.8000488281</ele>
        <time>2023-05-15T14:32:39.000Z</time>
      </trkpt>
      <trkpt lat="46.7345" lon="6.29357">
        <ele>1048</ele>
        <time>2023-05-15T14:32:48.000Z</time>
      </trkpt>
      <trkpt lat="46.73443" lon="6.29334">
        <ele>1049</ele>
        <time>2023-05-15T14:32:58.000Z</time>
      </trkpt>
      <trkpt lat="46.73441" lon="6.29331">
        <ele>1049.4000244141</ele>
        <time>2023-05-15T14:33:00.000Z</time>
      </trkpt>
      <trkpt lat="46.73438" lon="6.29324">
        <ele>1049.8000488281</ele>
        <time>2023-05-15T14:33:04.000Z</time>
      </trkpt>
      <trkpt lat="46.73429" lon="6.29305">
        <ele>1050</ele>
        <time>2023-05-15T14:33:14.000Z</time>
      </trkpt>
      <trkpt lat="46.73427" lon="6.29301">
        <ele>1050</ele>
        <time>2023-05-15T14:33:16.000Z</time>
      </trkpt>
      <trkpt lat="46.73424" lon="6.29295">
        <ele>1050</ele>
        <time>2023-05-15T14:33:19.000Z</time>
      </trkpt>
      <trkpt lat="46.73422" lon="6.29292">
        <ele>1050</ele>
        <time>2023-05-15T14:33:21.000Z</time>
      </trkpt>
      <trkpt lat="46.73417" lon="6.29277">
        <ele>1051.1999511719</ele>
        <time>2023-05-15T14:33:27.000Z</time>
      </trkpt>
      <trkpt lat="46.73416" lon="6.29273">
        <ele>1051.4000244141</ele>
        <time>2023-05-15T14:33:29.000Z</time>
      </trkpt>
      <trkpt lat="46.73413" lon="6.29266">
        <ele>1052.1999511719</ele>
        <time>2023-05-15T14:33:32.000Z</time>
      </trkpt>
      <trkpt lat="46.73412" lon="6.29264">
        <ele>1052.4000244141</ele>
        <time>2023-05-15T14:33:33.000Z</time>
      </trkpt>
      <trkpt lat="46.73409" lon="6.29258">
        <ele>1052.5999755859</ele>
        <time>2023-05-15T14:33:36.000Z</time>
      </trkpt>
      <trkpt lat="46.73408" lon="6.29254">
        <ele>1053</ele>
        <time>2023-05-15T14:33:38.000Z</time>
      </trkpt>
      <trkpt lat="46.73405" lon="6.29247">
        <ele>1053.8000488281</ele>
        <time>2023-05-15T14:33:42.000Z</time>
      </trkpt>
      <trkpt lat="46.73404" lon="6.29245">
        <ele>1054</ele>
        <time>2023-05-15T14:33:43.000Z</time>
      </trkpt>
      <trkpt lat="46.73404" lon="6.29243">
        <ele>1053.8000488281</ele>
        <time>2023-05-15T14:33:44.000Z</time>
      </trkpt>
      <trkpt lat="46.73399" lon="6.29231">
        <ele>1055.1999511719</ele>
        <time>2023-05-15T14:33:50.000Z</time>
      </trkpt>
      <trkpt lat="46.73399" lon="6.29229">
        <ele>1055.4000244141</ele>
        <time>2023-05-15T14:33:51.000Z</time>
      </trkpt>
      <trkpt lat="46.73394" lon="6.2922">
        <ele>1056.1999511719</ele>
        <time>2023-05-15T14:33:56.000Z</time>
      </trkpt>
      <trkpt lat="46.73392" lon="6.29212">
        <ele>1056.5999755859</ele>
        <time>2023-05-15T14:33:59.000Z</time>
      </trkpt>
      <trkpt lat="46.73389" lon="6.29201">
        <ele>1057.1999511719</ele>
        <time>2023-05-15T14:34:03.000Z</time>
      </trkpt>
      <trkpt lat="46.73383" lon="6.29191">
        <ele>1057.4000244141</ele>
        <time>2023-05-15T14:34:08.000Z</time>
      </trkpt>
      <trkpt lat="46.73374" lon="6.29169">
        <ele>1057.8000488281</ele>
        <time>2023-05-15T14:34:17.000Z</time>
      </trkpt>
      <trkpt lat="46.73372" lon="6.29164">
        <ele>1058</ele>
        <time>2023-05-15T14:34:19.000Z</time>
      </trkpt>
      <trkpt lat="46.73368" lon="6.29153">
        <ele>1059</ele>
        <time>2023-05-15T14:34:24.000Z</time>
      </trkpt>
      <trkpt lat="46.73367" lon="6.29151">
        <ele>1059</ele>
        <time>2023-05-15T14:34:25.000Z</time>
      </trkpt>
      <trkpt lat="46.73362" lon="6.29141">
        <ele>1060</ele>
        <time>2023-05-15T14:34:30.000Z</time>
      </trkpt>
      <trkpt lat="46.7336" lon="6.29135">
        <ele>1060.5999755859</ele>
        <time>2023-05-15T14:34:33.000Z</time>
      </trkpt>
      <trkpt lat="46.73358" lon="6.29131">
        <ele>1060.8000488281</ele>
        <time>2023-05-15T14:34:35.000Z</time>
      </trkpt>
      <trkpt lat="46.73356" lon="6.2913">
        <ele>1060.8000488281</ele>
        <time>2023-05-15T14:34:36.000Z</time>
      </trkpt>
      <trkpt lat="46.73347" lon="6.29122">
        <ele>1061.8000488281</ele>
        <time>2023-05-15T14:34:42.000Z</time>
      </trkpt>
      <trkpt lat="46.73347" lon="6.29121">
        <ele>1062.1999511719</ele>
        <time>2023-05-15T14:34:43.000Z</time>
      </trkpt>
      <trkpt lat="46.73342" lon="6.29112">
        <ele>1062.8000488281</ele>
        <time>2023-05-15T14:34:48.000Z</time>
      </trkpt>
      <trkpt lat="46.73339" lon="6.29106">
        <ele>1063.5999755859</ele>
        <time>2023-05-15T14:34:52.000Z</time>
      </trkpt>
      <trkpt lat="46.73338" lon="6.29105">
        <ele>1063.8000488281</ele>
        <time>2023-05-15T14:34:53.000Z</time>
      </trkpt>
      <trkpt lat="46.7333" lon="6.29094">
        <ele>1064.8000488281</ele>
        <time>2023-05-15T14:35:00.000Z</time>
      </trkpt>
      <trkpt lat="46.73328" lon="6.29092">
        <ele>1065.1999511719</ele>
        <time>2023-05-15T14:35:02.000Z</time>
      </trkpt>
      <trkpt lat="46.73323" lon="6.29088">
        <ele>1065.8000488281</ele>
        <time>2023-05-15T14:35:06.000Z</time>
      </trkpt>
      <trkpt lat="46.73315" lon="6.29079">
        <ele>1066.8000488281</ele>
        <time>2023-05-15T14:35:13.000Z</time>
      </trkpt>
      <trkpt lat="46.73313" lon="6.29074">
        <ele>1067.1999511719</ele>
        <time>2023-05-15T14:35:16.000Z</time>
      </trkpt>
      <trkpt lat="46.73308" lon="6.29069">
        <ele>1067.4000244141</ele>
        <time>2023-05-15T14:35:20.000Z</time>
      </trkpt>
      <trkpt lat="46.73306" lon="6.29068">
        <ele>1067.8000488281</ele>
        <time>2023-05-15T14:35:22.000Z</time>
      </trkpt>
      <trkpt lat="46.73303" lon="6.29065">
        <ele>1068</ele>
        <time>2023-05-15T14:35:25.000Z</time>
      </trkpt>
      <trkpt lat="46.73298" lon="6.29059">
        <ele>1068.8000488281</ele>
        <time>2023-05-15T14:35:29.000Z</time>
      </trkpt>
      <trkpt lat="46.73291" lon="6.2905">
        <ele>1069.4000244141</ele>
        <time>2023-05-15T14:35:34.000Z</time>
      </trkpt>
      <trkpt lat="46.73289" lon="6.29047">
        <ele>1069.5999755859</ele>
        <time>2023-05-15T14:35:36.000Z</time>
      </trkpt>
      <trkpt lat="46.73284" lon="6.2904">
        <ele>1070</ele>
        <time>2023-05-15T14:35:40.000Z</time>
      </trkpt>
      <trkpt lat="46.73279" lon="6.29035">
        <ele>1070.4000244141</ele>
        <time>2023-05-15T14:35:44.000Z</time>
      </trkpt>
      <trkpt lat="46.73273" lon="6.29029">
        <ele>1071</ele>
        <time>2023-05-15T14:35:48.000Z</time>
      </trkpt>
      <trkpt lat="46.73269" lon="6.29025">
        <ele>1071.1999511719</ele>
        <time>2023-05-15T14:35:51.000Z</time>
      </trkpt>
      <trkpt lat="46.73262" lon="6.29016">
        <ele>1072</ele>
        <time>2023-05-15T14:35:56.000Z</time>
      </trkpt>
      <trkpt lat="46.73259" lon="6.29011">
        <ele>1072.1999511719</ele>
        <time>2023-05-15T14:35:58.000Z</time>
      </trkpt>
      <trkpt lat="46.73247" lon="6.29">
        <ele>1073</ele>
        <time>2023-05-15T14:36:06.000Z</time>
      </trkpt>
      <trkpt lat="46.73246" lon="6.28998">
        <ele>1073.1999511719</ele>
        <time>2023-05-15T14:36:07.000Z</time>
      </trkpt>
      <trkpt lat="46.73235" lon="6.28988">
        <ele>1073.8000488281</ele>
        <time>2023-05-15T14:36:15.000Z</time>
      </trkpt>
      <trkpt lat="46.73233" lon="6.28987">
        <ele>1074</ele>
        <time>2023-05-15T14:36:16.000Z</time>
      </trkpt>
      <trkpt lat="46.73225" lon="6.28978">
        <ele>1074.4000244141</ele>
        <time>2023-05-15T14:36:23.000Z</time>
      </trkpt>
      <trkpt lat="46.73211" lon="6.28966">
        <ele>1074.1999511719</ele>
        <time>2023-05-15T14:36:34.000Z</time>
      </trkpt>
      <trkpt lat="46.732" lon="6.28962">
        <ele>1074.4000244141</ele>
        <time>2023-05-15T14:36:42.000Z</time>
      </trkpt>
      <trkpt lat="46.73195" lon="6.28961">
        <ele>1074.4000244141</ele>
        <time>2023-05-15T14:36:45.000Z</time>
      </trkpt>
      <trkpt lat="46.73187" lon="6.28961">
        <ele>1075.1999511719</ele>
        <time>2023-05-15T14:36:50.000Z</time>
      </trkpt>
      <trkpt lat="46.73179" lon="6.28965">
        <ele>1075.5999755859</ele>
        <time>2023-05-15T14:36:55.000Z</time>
      </trkpt>
      <trkpt lat="46.73172" lon="6.28968">
        <ele>1075.8000488281</ele>
        <time>2023-05-15T14:36:59.000Z</time>
      </trkpt>
      <trkpt lat="46.73166" lon="6.28973">
        <ele>1075.5999755859</ele>
        <time>2023-05-15T14:37:03.000Z</time>
      </trkpt>
      <trkpt lat="46.73154" lon="6.28987">
        <ele>1075.1999511719</ele>
        <time>2023-05-15T14:37:11.000Z</time>
      </trkpt>
      <trkpt lat="46.73151" lon="6.28998">
        <ele>1075.1999511719</ele>
        <time>2023-05-15T14:37:18.000Z</time>
      </trkpt>
      <trkpt lat="46.73142" lon="6.29013">
        <ele>1075.4000244141</ele>
        <time>2023-05-15T14:37:27.000Z</time>
      </trkpt>
      <trkpt lat="46.7314" lon="6.29015">
        <ele>1075.4000244141</ele>
        <time>2023-05-15T14:37:29.000Z</time>
      </trkpt>
      <trkpt lat="46.73137" lon="6.29018">
        <ele>1075.5999755859</ele>
        <time>2023-05-15T14:37:32.000Z</time>
      </trkpt>
      <trkpt lat="46.73135" lon="6.29023">
        <ele>1076</ele>
        <time>2023-05-15T14:37:35.000Z</time>
      </trkpt>
      <trkpt lat="46.73135" lon="6.29026">
        <ele>1076.1999511719</ele>
        <time>2023-05-15T14:37:37.000Z</time>
      </trkpt>
      <trkpt lat="46.73125" lon="6.29038">
        <ele>1076.8000488281</ele>
        <time>2023-05-15T14:37:44.000Z</time>
      </trkpt>
      <trkpt lat="46.73122" lon="6.29041">
        <ele>1077.1999511719</ele>
        <time>2023-05-15T14:37:46.000Z</time>
      </trkpt>
      <trkpt lat="46.73115" lon="6.29053">
        <ele>1077.5999755859</ele>
        <time>2023-05-15T14:37:53.000Z</time>
      </trkpt>
      <trkpt lat="46.73113" lon="6.29054">
        <ele>1077.8000488281</ele>
        <time>2023-05-15T14:37:54.000Z</time>
      </trkpt>
      <trkpt lat="46.73106" lon="6.29066">
        <ele>1078.8000488281</ele>
        <time>2023-05-15T14:38:01.000Z</time>
      </trkpt>
      <trkpt lat="46.73096" lon="6.29074">
        <ele>1079.4000244141</ele>
        <time>2023-05-15T14:38:08.000Z</time>
      </trkpt>
      <trkpt lat="46.73094" lon="6.2908">
        <ele>1079.5999755859</ele>
        <time>2023-05-15T14:38:11.000Z</time>
      </trkpt>
      <trkpt lat="46.73085" lon="6.29086">
        <ele>1080.4000244141</ele>
        <time>2023-05-15T14:38:17.000Z</time>
      </trkpt>
      <trkpt lat="46.73084" lon="6.29087">
        <ele>1080.4000244141</ele>
        <time>2023-05-15T14:38:18.000Z</time>
      </trkpt>
      <trkpt lat="46.73077" lon="6.29093">
        <ele>1081</ele>
        <time>2023-05-15T14:38:24.000Z</time>
      </trkpt>
      <trkpt lat="46.73075" lon="6.29094">
        <ele>1081.4000244141</ele>
        <time>2023-05-15T14:38:26.000Z</time>
      </trkpt>
      <trkpt lat="46.73068" lon="6.29096">
        <ele>1082</ele>
        <time>2023-05-15T14:38:31.000Z</time>
      </trkpt>
      <trkpt lat="46.73062" lon="6.29098">
        <ele>1082.1999511719</ele>
        <time>2023-05-15T14:38:37.000Z</time>
      </trkpt>
      <trkpt lat="46.7306" lon="6.29098">
        <ele>1082.4000244141</ele>
        <time>2023-05-15T14:38:38.000Z</time>
      </trkpt>
      <trkpt lat="46.73049" lon="6.29098">
        <ele>1083</ele>
        <time>2023-05-15T14:38:45.000Z</time>
      </trkpt>
      <trkpt lat="46.73038" lon="6.29098">
        <ele>1083.5999755859</ele>
        <time>2023-05-15T14:38:51.000Z</time>
      </trkpt>
      <trkpt lat="46.73033" lon="6.29098">
        <ele>1084</ele>
        <time>2023-05-15T14:38:55.000Z</time>
      </trkpt>
      <trkpt lat="46.73026" lon="6.29098">
        <ele>1084.1999511719</ele>
        <time>2023-05-15T14:39:00.000Z</time>
      </trkpt>
      <trkpt lat="46.73012" lon="6.29097">
        <ele>1084.5999755859</ele>
        <time>2023-05-15T14:39:08.000Z</time>
      </trkpt>
      <trkpt lat="46.73011" lon="6.29096">
        <ele>1084.5999755859</ele>
        <time>2023-05-15T14:39:09.000Z</time>
      </trkpt>
      <trkpt lat="46.73001" lon="6.29092">
        <ele>1085</ele>
        <time>2023-05-15T14:39:15.000Z</time>
      </trkpt>
      <trkpt lat="46.72986" lon="6.29089">
        <ele>1085.1999511719</ele>
        <time>2023-05-15T14:39:24.000Z</time>
      </trkpt>
      <trkpt lat="46.72978" lon="6.29086">
        <ele>1085.4000244141</ele>
        <time>2023-05-15T14:39:29.000Z</time>
      </trkpt>
      <trkpt lat="46.72971" lon="6.29085">
        <ele>1086</ele>
        <time>2023-05-15T14:39:34.000Z</time>
      </trkpt>
      <trkpt lat="46.72965" lon="6.29086">
        <ele>1086.4000244141</ele>
        <time>2023-05-15T14:39:38.000Z</time>
      </trkpt>
      <trkpt lat="46.7296" lon="6.29085">
        <ele>1086.5999755859</ele>
        <time>2023-05-15T14:39:41.000Z</time>
      </trkpt>
      <trkpt lat="46.72948" lon="6.29085">
        <ele>1086.8000488281</ele>
        <time>2023-05-15T14:39:48.000Z</time>
      </trkpt>
      <trkpt lat="46.72939" lon="6.29085">
        <ele>1086.8000488281</ele>
        <time>2023-05-15T14:39:53.000Z</time>
      </trkpt>
      <trkpt lat="46.72935" lon="6.29086">
        <ele>1086.8000488281</ele>
        <time>2023-05-15T14:39:55.000Z</time>
      </trkpt>
      <trkpt lat="46.72932" lon="6.29086">
        <ele>1087</ele>
        <time>2023-05-15T14:39:57.000Z</time>
      </trkpt>
      <trkpt lat="46.72924" lon="6.29087">
        <ele>1087.4000244141</ele>
        <time>2023-05-15T14:40:01.000Z</time>
      </trkpt>
      <trkpt lat="46.72914" lon="6.29089">
        <ele>1088</ele>
        <time>2023-05-15T14:40:08.000Z</time>
      </trkpt>
      <trkpt lat="46.72899" lon="6.29088">
        <ele>1088.5999755859</ele>
        <time>2023-05-15T14:40:16.000Z</time>
      </trkpt>
      <trkpt lat="46.72897" lon="6.29088">
        <ele>1088.8000488281</ele>
        <time>2023-05-15T14:40:17.000Z</time>
      </trkpt>
      <trkpt lat="46.72884" lon="6.29088">
        <ele>1090</ele>
        <time>2023-05-15T14:40:24.000Z</time>
      </trkpt>
      <trkpt lat="46.7288" lon="6.29089">
        <ele>1090.1999511719</ele>
        <time>2023-05-15T14:40:26.000Z</time>
      </trkpt>
      <trkpt lat="46.7287" lon="6.29089">
        <ele>1090.8000488281</ele>
        <time>2023-05-15T14:40:31.000Z</time>
      </trkpt>
      <trkpt lat="46.72865" lon="6.29088">
        <ele>1090.8000488281</ele>
        <time>2023-05-15T14:40:33.000Z</time>
      </trkpt>
      <trkpt lat="46.7285" lon="6.29089">
        <ele>1091.5999755859</ele>
        <time>2023-05-15T14:40:41.000Z</time>
      </trkpt>
      <trkpt lat="46.72837" lon="6.29091">
        <ele>1091.8000488281</ele>
        <time>2023-05-15T14:40:48.000Z</time>
      </trkpt>
      <trkpt lat="46.72825" lon="6.29094">
        <ele>1092.1999511719</ele>
        <time>2023-05-15T14:40:54.000Z</time>
      </trkpt>
      <trkpt lat="46.72817" lon="6.29097">
        <ele>1092.4000244141</ele>
        <time>2023-05-15T14:40:58.000Z</time>
      </trkpt>
      <trkpt lat="46.72811" lon="6.29095">
        <ele>1092.5999755859</ele>
        <time>2023-05-15T14:41:01.000Z</time>
      </trkpt>
      <trkpt lat="46.72798" lon="6.29092">
        <ele>1092.8000488281</ele>
        <time>2023-05-15T14:41:07.000Z</time>
      </trkpt>
      <trkpt lat="46.72793" lon="6.29093">
        <ele>1093</ele>
        <time>2023-05-15T14:41:10.000Z</time>
      </trkpt>
      <trkpt lat="46.72791" lon="6.29093">
        <ele>1093</ele>
        <time>2023-05-15T14:41:11.000Z</time>
      </trkpt>
      <trkpt lat="46.72784" lon="6.29095">
        <ele>1093.1999511719</ele>
        <time>2023-05-15T14:41:17.000Z</time>
      </trkpt>
      <trkpt lat="46.72779" lon="6.291">
        <ele>1093.4000244141</ele>
        <time>2023-05-15T14:41:23.000Z</time>
      </trkpt>
      <trkpt lat="46.72779" lon="6.291">
        <ele>1093.5999755859</ele>
        <time>2023-05-15T14:41:25.000Z</time>
      </trkpt>
      <trkpt lat="46.72773" lon="6.29101">
        <ele>1093.4000244141</ele>
        <time>2023-05-15T14:48:17.000Z</time>
      </trkpt>
      <trkpt lat="46.7277" lon="6.29102">
        <ele>1093.4000244141</ele>
        <time>2023-05-15T14:48:18.000Z</time>
      </trkpt>
      <trkpt lat="46.72769" lon="6.29103">
        <ele>1093.4000244141</ele>
        <time>2023-05-15T14:48:19.000Z</time>
      </trkpt>
      <trkpt lat="46.72758" lon="6.29108">
        <ele>1093.1999511719</ele>
        <time>2023-05-15T14:48:25.000Z</time>
      </trkpt>
      <trkpt lat="46.72742" lon="6.29115">
        <ele>1092.5999755859</ele>
        <time>2023-05-15T14:48:33.000Z</time>
      </trkpt>
      <trkpt lat="46.72727" lon="6.29123">
        <ele>1092.5999755859</ele>
        <time>2023-05-15T14:48:40.000Z</time>
      </trkpt>
      <trkpt lat="46.72713" lon="6.29122">
        <ele>1092.8000488281</ele>
        <time>2023-05-15T14:48:46.000Z</time>
      </trkpt>
      <trkpt lat="46.7269" lon="6.29108">
        <ele>1093.4000244141</ele>
        <time>2023-05-15T14:48:55.000Z</time>
      </trkpt>
      <trkpt lat="46.72686" lon="6.29101">
        <ele>1093.5999755859</ele>
        <time>2023-05-15T14:48:58.000Z</time>
      </trkpt>
      <trkpt lat="46.72684" lon="6.29093">
        <ele>1094</ele>
        <time>2023-05-15T14:49:01.000Z</time>
      </trkpt>
      <trkpt lat="46.72682" lon="6.29075">
        <ele>1094.4000244141</ele>
        <time>2023-05-15T14:49:07.000Z</time>
      </trkpt>
      <trkpt lat="46.72684" lon="6.29058">
        <ele>1094.5999755859</ele>
        <time>2023-05-15T14:49:10.000Z</time>
      </trkpt>
      <trkpt lat="46.72685" lon="6.29053">
        <ele>1094.5999755859</ele>
        <time>2023-05-15T14:49:11.000Z</time>
      </trkpt>
      <trkpt lat="46.72696" lon="6.29021">
        <ele>1095.1999511719</ele>
        <time>2023-05-15T14:49:17.000Z</time>
      </trkpt>
      <trkpt lat="46.72706" lon="6.29007">
        <ele>1095.4000244141</ele>
        <time>2023-05-15T14:49:20.000Z</time>
      </trkpt>
      <trkpt lat="46.72717" lon="6.28992">
        <ele>1095.8000488281</ele>
        <time>2023-05-15T14:49:23.000Z</time>
      </trkpt>
      <trkpt lat="46.72735" lon="6.28967">
        <ele>1096.4000244141</ele>
        <time>2023-05-15T14:49:28.000Z</time>
      </trkpt>
      <trkpt lat="46.72747" lon="6.28952">
        <ele>1096.8000488281</ele>
        <time>2023-05-15T14:49:32.000Z</time>
      </trkpt>
      <trkpt lat="46.72762" lon="6.28948">
        <ele>1096.5999755859</ele>
        <time>2023-05-15T14:49:37.000Z</time>
      </trkpt>
      <trkpt lat="46.7277" lon="6.2895">
        <ele>1097.1999511719</ele>
        <time>2023-05-15T14:49:42.000Z</time>
      </trkpt>
      <trkpt lat="46.72776" lon="6.28954">
        <ele>1097.4000244141</ele>
        <time>2023-05-15T14:49:45.000Z</time>
      </trkpt>
      <trkpt lat="46.72786" lon="6.28957">
        <ele>1098</ele>
        <time>2023-05-15T14:49:51.000Z</time>
      </trkpt>
      <trkpt lat="46.72788" lon="6.28957">
        <ele>1098.1999511719</ele>
        <time>2023-05-15T14:49:52.000Z</time>
      </trkpt>
      <trkpt lat="46.72801" lon="6.28952">
        <ele>1099</ele>
        <time>2023-05-15T14:49:57.000Z</time>
      </trkpt>
      <trkpt lat="46.72803" lon="6.2895">
        <ele>1099</ele>
        <time>2023-05-15T14:49:58.000Z</time>
      </trkpt>
      <trkpt lat="46.72806" lon="6.28948">
        <ele>1099.1999511719</ele>
        <time>2023-05-15T14:49:59.000Z</time>
      </trkpt>
      <trkpt lat="46.72819" lon="6.28933">
        <ele>1100</ele>
        <time>2023-05-15T14:50:04.000Z</time>
      </trkpt>
      <trkpt lat="46.72821" lon="6.28928">
        <ele>1100.1999511719</ele>
        <time>2023-05-15T14:50:05.000Z</time>
      </trkpt>
      <trkpt lat="46.72834" lon="6.28899">
        <ele>1100.8000488281</ele>
        <time>2023-05-15T14:50:11.000Z</time>
      </trkpt>
      <trkpt lat="46.72836" lon="6.28893">
        <ele>1101</ele>
        <time>2023-05-15T14:50:12.000Z</time>
      </trkpt>
      <trkpt lat="46.72846" lon="6.28867">
        <ele>1101.1999511719</ele>
        <time>2023-05-15T14:50:17.000Z</time>
      </trkpt>
      <trkpt lat="46.72851" lon="6.28841">
        <ele>1101.8000488281</ele>
        <time>2023-05-15T14:50:22.000Z</time>
      </trkpt>
      <trkpt lat="46.72853" lon="6.28833">
        <ele>1101.8000488281</ele>
        <time>2023-05-15T14:50:24.000Z</time>
      </trkpt>
      <trkpt lat="46.72855" lon="6.28816">
        <ele>1102</ele>
        <time>2023-05-15T14:50:27.000Z</time>
      </trkpt>
      <trkpt lat="46.72859" lon="6.2879">
        <ele>1102.5999755859</ele>
        <time>2023-05-15T14:50:32.000Z</time>
      </trkpt>
      <trkpt lat="46.72859" lon="6.28785">
        <ele>1102.5999755859</ele>
        <time>2023-05-15T14:50:33.000Z</time>
      </trkpt>
      <trkpt lat="46.7286" lon="6.28774">
        <ele>1102.8000488281</ele>
        <time>2023-05-15T14:50:35.000Z</time>
      </trkpt>
      <trkpt lat="46.72866" lon="6.28744">
        <ele>1103.1999511719</ele>
        <time>2023-05-15T14:50:40.000Z</time>
      </trkpt>
      <trkpt lat="46.72875" lon="6.28711">
        <ele>1103.5999755859</ele>
        <time>2023-05-15T14:50:46.000Z</time>
      </trkpt>
      <trkpt lat="46.72878" lon="6.287">
        <ele>1103.8000488281</ele>
        <time>2023-05-15T14:50:48.000Z</time>
      </trkpt>
      <trkpt lat="46.72888" lon="6.28663">
        <ele>1104.5999755859</ele>
        <time>2023-05-15T14:50:55.000Z</time>
      </trkpt>
      <trkpt lat="46.7289" lon="6.28653">
        <ele>1104.8000488281</ele>
        <time>2023-05-15T14:50:57.000Z</time>
      </trkpt>
      <trkpt lat="46.72895" lon="6.28632">
        <ele>1105.1999511719</ele>
        <time>2023-05-15T14:51:01.000Z</time>
      </trkpt>
      <trkpt lat="46.72897" lon="6.28621">
        <ele>1105.5999755859</ele>
        <time>2023-05-15T14:51:03.000Z</time>
      </trkpt>
      <trkpt lat="46.72897" lon="6.28615">
        <ele>1105.8000488281</ele>
        <time>2023-05-15T14:51:04.000Z</time>
      </trkpt>
      <trkpt lat="46.72899" lon="6.28585">
        <ele>1106.5999755859</ele>
        <time>2023-05-15T14:51:10.000Z</time>
      </trkpt>
      <trkpt lat="46.729" lon="6.2857">
        <ele>1107.1999511719</ele>
        <time>2023-05-15T14:51:13.000Z</time>
      </trkpt>
      <trkpt lat="46.72901" lon="6.28545">
        <ele>1107.5999755859</ele>
        <time>2023-05-15T14:51:18.000Z</time>
      </trkpt>
      <trkpt lat="46.72901" lon="6.28536">
        <ele>1107.8000488281</ele>
        <time>2023-05-15T14:51:20.000Z</time>
      </trkpt>
      <trkpt lat="46.72899" lon="6.28512">
        <ele>1108</ele>
        <time>2023-05-15T14:51:25.000Z</time>
      </trkpt>
      <trkpt lat="46.72897" lon="6.28492">
        <ele>1108.4000244141</ele>
        <time>2023-05-15T14:51:30.000Z</time>
      </trkpt>
      <trkpt lat="46.72896" lon="6.28487">
        <ele>1108.4000244141</ele>
        <time>2023-05-15T14:51:31.000Z</time>
      </trkpt>
      <trkpt lat="46.72895" lon="6.28477">
        <ele>1108.5999755859</ele>
        <time>2023-05-15T14:51:33.000Z</time>
      </trkpt>
      <trkpt lat="46.72893" lon="6.28462">
        <ele>1109.4000244141</ele>
        <time>2023-05-15T14:51:37.000Z</time>
      </trkpt>
      <trkpt lat="46.7289" lon="6.28455">
        <ele>1109.8000488281</ele>
        <time>2023-05-15T14:51:39.000Z</time>
      </trkpt>
      <trkpt lat="46.72886" lon="6.28434">
        <ele>1110.4000244141</ele>
        <time>2023-05-15T14:51:43.000Z</time>
      </trkpt>
      <trkpt lat="46.72878" lon="6.28415">
        <ele>1110.8000488281</ele>
        <time>2023-05-15T14:51:48.000Z</time>
      </trkpt>
      <trkpt lat="46.72877" lon="6.28411">
        <ele>1110.8000488281</ele>
        <time>2023-05-15T14:51:49.000Z</time>
      </trkpt>
      <trkpt lat="46.72877" lon="6.28384">
        <ele>1111.1999511719</ele>
        <time>2023-05-15T14:51:55.000Z</time>
      </trkpt>
      <trkpt lat="46.72875" lon="6.28365">
        <ele>1111.8000488281</ele>
        <time>2023-05-15T14:51:59.000Z</time>
      </trkpt>
      <trkpt lat="46.72876" lon="6.28361">
        <ele>1111.8000488281</ele>
        <time>2023-05-15T14:52:00.000Z</time>
      </trkpt>
      <trkpt lat="46.7288" lon="6.28341">
        <ele>1112.8000488281</ele>
        <time>2023-05-15T14:52:05.000Z</time>
      </trkpt>
      <trkpt lat="46.72881" lon="6.28337">
        <ele>1112.8000488281</ele>
        <time>2023-05-15T14:52:06.000Z</time>
      </trkpt>
      <trkpt lat="46.72881" lon="6.28334">
        <ele>1113</ele>
        <time>2023-05-15T14:52:07.000Z</time>
      </trkpt>
      <trkpt lat="46.72883" lon="6.28315">
        <ele>1114</ele>
        <time>2023-05-15T14:52:12.000Z</time>
      </trkpt>
      <trkpt lat="46.72884" lon="6.28307">
        <ele>1114.1999511719</ele>
        <time>2023-05-15T14:52:14.000Z</time>
      </trkpt>
      <trkpt lat="46.72885" lon="6.28288">
        <ele>1115</ele>
        <time>2023-05-15T14:52:19.000Z</time>
      </trkpt>
      <trkpt lat="46.72885" lon="6.28286">
        <ele>1115.1999511719</ele>
        <time>2023-05-15T14:52:20.000Z</time>
      </trkpt>
      <trkpt lat="46.72883" lon="6.28265">
        <ele>1116.1999511719</ele>
        <time>2023-05-15T14:52:25.000Z</time>
      </trkpt>
      <trkpt lat="46.72883" lon="6.28248">
        <ele>1116.8000488281</ele>
        <time>2023-05-15T14:52:29.000Z</time>
      </trkpt>
      <trkpt lat="46.72882" lon="6.28238">
        <ele>1117.1999511719</ele>
        <time>2023-05-15T14:52:31.000Z</time>
      </trkpt>
      <trkpt lat="46.72885" lon="6.28203">
        <ele>1117.8000488281</ele>
        <time>2023-05-15T14:52:37.000Z</time>
      </trkpt>
      <trkpt lat="46.72886" lon="6.28195">
        <ele>1118</ele>
        <time>2023-05-15T14:52:38.000Z</time>
      </trkpt>
      <trkpt lat="46.72894" lon="6.28173">
        <ele>1118.4000244141</ele>
        <time>2023-05-15T14:52:42.000Z</time>
      </trkpt>
      <trkpt lat="46.72908" lon="6.28144">
        <ele>1119</ele>
        <time>2023-05-15T14:52:47.000Z</time>
      </trkpt>
      <trkpt lat="46.72909" lon="6.28138">
        <ele>1119</ele>
        <time>2023-05-15T14:52:48.000Z</time>
      </trkpt>
      <trkpt lat="46.72911" lon="6.28131">
        <ele>1119.1999511719</ele>
        <time>2023-05-15T14:52:49.000Z</time>
      </trkpt>
      <trkpt lat="46.72915" lon="6.28109">
        <ele>1119.5999755859</ele>
        <time>2023-05-15T14:52:52.000Z</time>
      </trkpt>
      <trkpt lat="46.7292" lon="6.28082">
        <ele>1120</ele>
        <time>2023-05-15T14:52:56.000Z</time>
      </trkpt>
      <trkpt lat="46.72921" lon="6.28067">
        <ele>1120.1999511719</ele>
        <time>2023-05-15T14:52:58.000Z</time>
      </trkpt>
      <trkpt lat="46.72923" lon="6.28053">
        <ele>1120.4000244141</ele>
        <time>2023-05-15T14:53:00.000Z</time>
      </trkpt>
      <trkpt lat="46.72934" lon="6.28019">
        <ele>1121.1999511719</ele>
        <time>2023-05-15T14:53:05.000Z</time>
      </trkpt>
      <trkpt lat="46.72938" lon="6.28005">
        <ele>1121.4000244141</ele>
        <time>2023-05-15T14:53:07.000Z</time>
      </trkpt>
      <trkpt lat="46.72947" lon="6.27984">
        <ele>1122</ele>
        <time>2023-05-15T14:53:12.000Z</time>
      </trkpt>
      <trkpt lat="46.7295" lon="6.27976">
        <ele>1122.1999511719</ele>
        <time>2023-05-15T14:53:16.000Z</time>
      </trkpt>
      <trkpt lat="46.7295" lon="6.27974">
        <ele>1122.4000244141</ele>
        <time>2023-05-15T14:53:17.000Z</time>
      </trkpt>
      <trkpt lat="46.72947" lon="6.27955">
        <ele>1122.5999755859</ele>
        <time>2023-05-15T14:53:22.000Z</time>
      </trkpt>
      <trkpt lat="46.72945" lon="6.2794">
        <ele>1123</ele>
        <time>2023-05-15T14:53:26.000Z</time>
      </trkpt>
      <trkpt lat="46.72944" lon="6.27933">
        <ele>1123.4000244141</ele>
        <time>2023-05-15T14:53:28.000Z</time>
      </trkpt>
      <trkpt lat="46.72944" lon="6.27923">
        <ele>1124.1999511719</ele>
        <time>2023-05-15T14:53:32.000Z</time>
      </trkpt>
      <trkpt lat="46.72945" lon="6.2792">
        <ele>1124.1999511719</ele>
        <time>2023-05-15T14:53:33.000Z</time>
      </trkpt>
      <trkpt lat="46.72944" lon="6.27909">
        <ele>1124.4000244141</ele>
        <time>2023-05-15T14:53:35.000Z</time>
      </trkpt>
      <trkpt lat="46.72939" lon="6.27886">
        <ele>1124.8000488281</ele>
        <time>2023-05-15T14:53:39.000Z</time>
      </trkpt>
      <trkpt lat="46.7293" lon="6.27854">
        <ele>1125.8000488281</ele>
        <time>2023-05-15T14:53:44.000Z</time>
      </trkpt>
      <trkpt lat="46.72927" lon="6.27847">
        <ele>1126</ele>
        <time>2023-05-15T14:53:46.000Z</time>
      </trkpt>
      <trkpt lat="46.7292" lon="6.27822">
        <ele>1126.8000488281</ele>
        <time>2023-05-15T14:53:51.000Z</time>
      </trkpt>
      <trkpt lat="46.72913" lon="6.27811">
        <ele>1127</ele>
        <time>2023-05-15T14:53:54.000Z</time>
      </trkpt>
      <trkpt lat="46.72911" lon="6.27806">
        <ele>1127.4000244141</ele>
        <time>2023-05-15T14:53:55.000Z</time>
      </trkpt>
      <trkpt lat="46.72906" lon="6.2779">
        <ele>1128</ele>
        <time>2023-05-15T14:54:00.000Z</time>
      </trkpt>
      <trkpt lat="46.72902" lon="6.27779">
        <ele>1128</ele>
        <time>2023-05-15T14:54:03.000Z</time>
      </trkpt>
      <trkpt lat="46.72889" lon="6.27753">
        <ele>1128.5999755859</ele>
        <time>2023-05-15T14:54:11.000Z</time>
      </trkpt>
      <trkpt lat="46.72884" lon="6.27743">
        <ele>1129.1999511719</ele>
        <time>2023-05-15T14:54:14.000Z</time>
      </trkpt>
      <trkpt lat="46.72868" lon="6.27714">
        <ele>1129.5999755859</ele>
        <time>2023-05-15T14:54:23.000Z</time>
      </trkpt>
      <trkpt lat="46.72851" lon="6.27687">
        <ele>1130.4000244141</ele>
        <time>2023-05-15T14:54:32.000Z</time>
      </trkpt>
      <trkpt lat="46.72849" lon="6.27684">
        <ele>1130.5999755859</ele>
        <time>2023-05-15T14:54:33.000Z</time>
      </trkpt>
      <trkpt lat="46.72831" lon="6.27658">
        <ele>1131.1999511719</ele>
        <time>2023-05-15T14:54:42.000Z</time>
      </trkpt>
      <trkpt lat="46.72814" lon="6.27631">
        <ele>1131.8000488281</ele>
        <time>2023-05-15T14:54:52.000Z</time>
      </trkpt>
      <trkpt lat="46.72812" lon="6.27629">
        <ele>1131.8000488281</ele>
        <time>2023-05-15T14:54:53.000Z</time>
      </trkpt>
      <trkpt lat="46.72789" lon="6.27598">
        <ele>1132</ele>
        <time>2023-05-15T14:55:04.000Z</time>
      </trkpt>
      <trkpt lat="46.72773" lon="6.2758">
        <ele>1131.8000488281</ele>
        <time>2023-05-15T14:55:10.000Z</time>
      </trkpt>
      <trkpt lat="46.72769" lon="6.27576">
        <ele>1131.5999755859</ele>
        <time>2023-05-15T14:55:11.000Z</time>
      </trkpt>
      <trkpt lat="46.72754" lon="6.27564">
        <ele>1131.1999511719</ele>
        <time>2023-05-15T14:55:16.000Z</time>
      </trkpt>
      <trkpt lat="46.7274" lon="6.2755">
        <ele>1131</ele>
        <time>2023-05-15T14:55:21.000Z</time>
      </trkpt>
      <trkpt lat="46.72722" lon="6.27538">
        <ele>1131.4000244141</ele>
        <time>2023-05-15T14:55:28.000Z</time>
      </trkpt>
      <trkpt lat="46.72699" lon="6.27525">
        <ele>1131.5999755859</ele>
        <time>2023-05-15T14:55:36.000Z</time>
      </trkpt>
      <trkpt lat="46.72671" lon="6.27509">
        <ele>1132.1999511719</ele>
        <time>2023-05-15T14:55:46.000Z</time>
      </trkpt>
      <trkpt lat="46.72659" lon="6.27497">
        <ele>1132.1999511719</ele>
        <time>2023-05-15T14:55:52.000Z</time>
      </trkpt>
      <trkpt lat="46.72646" lon="6.27475">
        <ele>1132.4000244141</ele>
        <time>2023-05-15T14:56:00.000Z</time>
      </trkpt>
      <trkpt lat="46.72633" lon="6.27451">
        <ele>1132.4000244141</ele>
        <time>2023-05-15T14:56:08.000Z</time>
      </trkpt>
      <trkpt lat="46.72627" lon="6.2742">
        <ele>1132.8000488281</ele>
        <time>2023-05-15T14:56:16.000Z</time>
      </trkpt>
      <trkpt lat="46.72619" lon="6.2739">
        <ele>1133.1999511719</ele>
        <time>2023-05-15T14:56:24.000Z</time>
      </trkpt>
      <trkpt lat="46.72621" lon="6.27368">
        <ele>1133.4000244141</ele>
        <time>2023-05-15T14:56:29.000Z</time>
      </trkpt>
      <trkpt lat="46.72626" lon="6.27342">
        <ele>1133.4000244141</ele>
        <time>2023-05-15T14:56:34.000Z</time>
      </trkpt>
      <trkpt lat="46.72629" lon="6.27329">
        <ele>1133.5999755859</ele>
        <time>2023-05-15T14:56:38.000Z</time>
      </trkpt>
      <trkpt lat="46.7263" lon="6.27327">
        <ele>1133.5999755859</ele>
        <time>2023-05-15T14:56:39.000Z</time>
      </trkpt>
      <trkpt lat="46.7263" lon="6.27326">
        <ele>1133.5999755859</ele>
        <time>2023-05-15T14:56:42.000Z</time>
      </trkpt>
      <trkpt lat="46.72625" lon="6.27291">
        <ele>1132.4000244141</ele>
        <time>2023-05-15T14:58:12.000Z</time>
      </trkpt>
      <trkpt lat="46.72625" lon="6.27289">
        <ele>1132.4000244141</ele>
        <time>2023-05-15T14:58:13.000Z</time>
      </trkpt>
      <trkpt lat="46.72623" lon="6.27284">
        <ele>1132.4000244141</ele>
        <time>2023-05-15T14:58:15.000Z</time>
      </trkpt>
      <trkpt lat="46.72623" lon="6.27276">
        <ele>1132.1999511719</ele>
        <time>2023-05-15T14:58:19.000Z</time>
      </trkpt>
      <trkpt lat="46.72623" lon="6.27274">
        <ele>1132.1999511719</ele>
        <time>2023-05-15T14:58:20.000Z</time>
      </trkpt>
      <trkpt lat="46.72622" lon="6.27272">
        <ele>1132.1999511719</ele>
        <time>2023-05-15T14:58:21.000Z</time>
      </trkpt>
      <trkpt lat="46.7262" lon="6.27253">
        <ele>1132</ele>
        <time>2023-05-15T14:58:27.000Z</time>
      </trkpt>
      <trkpt lat="46.72618" lon="6.27243">
        <ele>1131.4000244141</ele>
        <time>2023-05-15T14:58:29.000Z</time>
      </trkpt>
      <trkpt lat="46.72617" lon="6.27224">
        <ele>1131</ele>
        <time>2023-05-15T14:58:32.000Z</time>
      </trkpt>
      <trkpt lat="46.72617" lon="6.27175">
        <ele>1130.4000244141</ele>
        <time>2023-05-15T14:58:38.000Z</time>
      </trkpt>
      <trkpt lat="46.72618" lon="6.27156">
        <ele>1130</ele>
        <time>2023-05-15T14:58:40.000Z</time>
      </trkpt>
      <trkpt lat="46.72621" lon="6.27142">
        <ele>1130</ele>
        <time>2023-05-15T14:58:42.000Z</time>
      </trkpt>
      <trkpt lat="46.72625" lon="6.27137">
        <ele>1129.8000488281</ele>
        <time>2023-05-15T14:58:43.000Z</time>
      </trkpt>
      <trkpt lat="46.72628" lon="6.2713">
        <ele>1129.8000488281</ele>
        <time>2023-05-15T14:58:44.000Z</time>
      </trkpt>
      <trkpt lat="46.72638" lon="6.27115">
        <ele>1129.8000488281</ele>
        <time>2023-05-15T14:58:46.000Z</time>
      </trkpt>
      <trkpt lat="46.72641" lon="6.27101">
        <ele>1129.8000488281</ele>
        <time>2023-05-15T14:58:48.000Z</time>
      </trkpt>
      <trkpt lat="46.72643" lon="6.27089">
        <ele>1129.5999755859</ele>
        <time>2023-05-15T14:58:50.000Z</time>
      </trkpt>
      <trkpt lat="46.72644" lon="6.27068">
        <ele>1129.5999755859</ele>
        <time>2023-05-15T14:58:54.000Z</time>
      </trkpt>
      <trkpt lat="46.72651" lon="6.27051">
        <ele>1129.5999755859</ele>
        <time>2023-05-15T14:58:58.000Z</time>
      </trkpt>
      <trkpt lat="46.72658" lon="6.27023">
        <ele>1130.4000244141</ele>
        <time>2023-05-15T14:59:03.000Z</time>
      </trkpt>
      <trkpt lat="46.72662" lon="6.27001">
        <ele>1130.8000488281</ele>
        <time>2023-05-15T14:59:08.000Z</time>
      </trkpt>
      <trkpt lat="46.72662" lon="6.2698">
        <ele>1131.4000244141</ele>
        <time>2023-05-15T14:59:12.000Z</time>
      </trkpt>
      <trkpt lat="46.72661" lon="6.26967">
        <ele>1131.8000488281</ele>
        <time>2023-05-15T14:59:14.000Z</time>
      </trkpt>
      <trkpt lat="46.72661" lon="6.26956">
        <ele>1132.5999755859</ele>
        <time>2023-05-15T14:59:16.000Z</time>
      </trkpt>
      <trkpt lat="46.72665" lon="6.26946">
        <ele>1133.1999511719</ele>
        <time>2023-05-15T14:59:19.000Z</time>
      </trkpt>
      <trkpt lat="46.72668" lon="6.2693">
        <ele>1133.4000244141</ele>
        <time>2023-05-15T14:59:22.000Z</time>
      </trkpt>
      <trkpt lat="46.72668" lon="6.26922">
        <ele>1133.5999755859</ele>
        <time>2023-05-15T14:59:23.000Z</time>
      </trkpt>
      <trkpt lat="46.72665" lon="6.26916">
        <ele>1133.5999755859</ele>
        <time>2023-05-15T14:59:24.000Z</time>
      </trkpt>
      <trkpt lat="46.72657" lon="6.26892">
        <ele>1134.1999511719</ele>
        <time>2023-05-15T14:59:28.000Z</time>
      </trkpt>
      <trkpt lat="46.72656" lon="6.26889">
        <ele>1134.1999511719</ele>
        <time>2023-05-15T14:59:29.000Z</time>
      </trkpt>
      <trkpt lat="46.72651" lon="6.26875">
        <ele>1135</ele>
        <time>2023-05-15T14:59:32.000Z</time>
      </trkpt>
      <trkpt lat="46.72642" lon="6.2686">
        <ele>1135.8000488281</ele>
        <time>2023-05-15T14:59:35.000Z</time>
      </trkpt>
      <trkpt lat="46.72632" lon="6.2684">
        <ele>1136.4000244141</ele>
        <time>2023-05-15T14:59:40.000Z</time>
      </trkpt>
      <trkpt lat="46.72626" lon="6.26832">
        <ele>1136.8000488281</ele>
        <time>2023-05-15T14:59:42.000Z</time>
      </trkpt>
      <trkpt lat="46.7262" lon="6.26813">
        <ele>1137.1999511719</ele>
        <time>2023-05-15T14:59:45.000Z</time>
      </trkpt>
      <trkpt lat="46.72617" lon="6.26806">
        <ele>1137.4000244141</ele>
        <time>2023-05-15T14:59:46.000Z</time>
      </trkpt>
      <trkpt lat="46.72609" lon="6.26792">
        <ele>1138.4000244141</ele>
        <time>2023-05-15T14:59:50.000Z</time>
      </trkpt>
      <trkpt lat="46.72605" lon="6.26779">
        <ele>1138.8000488281</ele>
        <time>2023-05-15T14:59:52.000Z</time>
      </trkpt>
      <trkpt lat="46.726" lon="6.2677">
        <ele>1139</ele>
        <time>2023-05-15T14:59:54.000Z</time>
      </trkpt>
      <trkpt lat="46.72598" lon="6.26767">
        <ele>1139.1999511719</ele>
        <time>2023-05-15T14:59:55.000Z</time>
      </trkpt>
      <trkpt lat="46.72592" lon="6.26754">
        <ele>1139.8000488281</ele>
        <time>2023-05-15T14:59:58.000Z</time>
      </trkpt>
      <trkpt lat="46.72582" lon="6.26734">
        <ele>1141.1999511719</ele>
        <time>2023-05-15T15:00:02.000Z</time>
      </trkpt>
      <trkpt lat="46.72574" lon="6.2672">
        <ele>1141.5999755859</ele>
        <time>2023-05-15T15:00:06.000Z</time>
      </trkpt>
      <trkpt lat="46.7257" lon="6.26709">
        <ele>1142.1999511719</ele>
        <time>2023-05-15T15:00:10.000Z</time>
      </trkpt>
      <trkpt lat="46.72565" lon="6.26703">
        <ele>1142.4000244141</ele>
        <time>2023-05-15T15:00:13.000Z</time>
      </trkpt>
      <trkpt lat="46.72563" lon="6.26697">
        <ele>1142.5999755859</ele>
        <time>2023-05-15T15:00:15.000Z</time>
      </trkpt>
      <trkpt lat="46.72554" lon="6.26672">
        <ele>1142.5999755859</ele>
        <time>2023-05-15T15:00:21.000Z</time>
      </trkpt>
      <trkpt lat="46.72554" lon="6.26671">
        <ele>1142.8000488281</ele>
        <time>2023-05-15T15:00:22.000Z</time>
      </trkpt>
      <trkpt lat="46.72546" lon="6.2665">
        <ele>1143.1999511719</ele>
        <time>2023-05-15T15:00:28.000Z</time>
      </trkpt>
      <trkpt lat="46.7255" lon="6.26633">
        <ele>1143.8000488281</ele>
        <time>2023-05-15T15:00:32.000Z</time>
      </trkpt>
      <trkpt lat="46.72552" lon="6.26629">
        <ele>1144</ele>
        <time>2023-05-15T15:00:33.000Z</time>
      </trkpt>
      <trkpt lat="46.72559" lon="6.26615">
        <ele>1144.8000488281</ele>
        <time>2023-05-15T15:00:37.000Z</time>
      </trkpt>
      <trkpt lat="46.72559" lon="6.26613">
        <ele>1145</ele>
        <time>2023-05-15T15:00:38.000Z</time>
      </trkpt>
      <trkpt lat="46.72563" lon="6.26602">
        <ele>1145.1999511719</ele>
        <time>2023-05-15T15:00:40.000Z</time>
      </trkpt>
      <trkpt lat="46.72568" lon="6.26583">
        <ele>1146.1999511719</ele>
        <time>2023-05-15T15:00:46.000Z</time>
      </trkpt>
      <trkpt lat="46.7257" lon="6.26568">
        <ele>1146.4000244141</ele>
        <time>2023-05-15T15:00:49.000Z</time>
      </trkpt>
      <trkpt lat="46.7257" lon="6.2656">
        <ele>1146.5999755859</ele>
        <time>2023-05-15T15:00:51.000Z</time>
      </trkpt>
      <trkpt lat="46.7257" lon="6.26541">
        <ele>1146.8000488281</ele>
        <time>2023-05-15T15:00:56.000Z</time>
      </trkpt>
      <trkpt lat="46.72568" lon="6.2651">
        <ele>1147.1999511719</ele>
        <time>2023-05-15T15:01:01.000Z</time>
      </trkpt>
      <trkpt lat="46.7257" lon="6.26488">
        <ele>1147.4000244141</ele>
        <time>2023-05-15T15:01:05.000Z</time>
      </trkpt>
      <trkpt lat="46.72574" lon="6.26463">
        <ele>1147.5999755859</ele>
        <time>2023-05-15T15:01:07.000Z</time>
      </trkpt>
      <trkpt lat="46.72581" lon="6.26437">
        <ele>1148</ele>
        <time>2023-05-15T15:01:10.000Z</time>
      </trkpt>
      <trkpt lat="46.72584" lon="6.26424">
        <ele>1148.5999755859</ele>
        <time>2023-05-15T15:01:12.000Z</time>
      </trkpt>
      <trkpt lat="46.72578" lon="6.26399">
        <ele>1148.8000488281</ele>
        <time>2023-05-15T15:01:16.000Z</time>
      </trkpt>
      <trkpt lat="46.72576" lon="6.26392">
        <ele>1149.1999511719</ele>
        <time>2023-05-15T15:01:17.000Z</time>
      </trkpt>
      <trkpt lat="46.72573" lon="6.26386">
        <ele>1149.1999511719</ele>
        <time>2023-05-15T15:01:18.000Z</time>
      </trkpt>
      <trkpt lat="46.72564" lon="6.26377">
        <ele>1149.8000488281</ele>
        <time>2023-05-15T15:01:22.000Z</time>
      </trkpt>
      <trkpt lat="46.72552" lon="6.26363">
        <ele>1150.5999755859</ele>
        <time>2023-05-15T15:01:26.000Z</time>
      </trkpt>
      <trkpt lat="46.72552" lon="6.26363">
        <ele>1150.8000488281</ele>
        <time>2023-05-15T15:01:27.000Z</time>
      </trkpt>
      <trkpt lat="46.72541" lon="6.26345">
        <ele>1151.5999755859</ele>
        <time>2023-05-15T15:01:31.000Z</time>
      </trkpt>
      <trkpt lat="46.72536" lon="6.26338">
        <ele>1152</ele>
        <time>2023-05-15T15:01:33.000Z</time>
      </trkpt>
      <trkpt lat="46.72523" lon="6.26318">
        <ele>1153.4000244141</ele>
        <time>2023-05-15T15:01:40.000Z</time>
      </trkpt>
      <trkpt lat="46.72513" lon="6.26303">
        <ele>1154.4000244141</ele>
        <time>2023-05-15T15:01:45.000Z</time>
      </trkpt>
      <trkpt lat="46.72509" lon="6.26298">
        <ele>1154.5999755859</ele>
        <time>2023-05-15T15:01:47.000Z</time>
      </trkpt>
      <trkpt lat="46.72503" lon="6.26286">
        <ele>1155.1999511719</ele>
        <time>2023-05-15T15:01:51.000Z</time>
      </trkpt>
      <trkpt lat="46.72495" lon="6.26269">
        <ele>1155.8000488281</ele>
        <time>2023-05-15T15:01:57.000Z</time>
      </trkpt>
      <trkpt lat="46.7249" lon="6.26258">
        <ele>1155.8000488281</ele>
        <time>2023-05-15T15:01:59.000Z</time>
      </trkpt>
      <trkpt lat="46.72478" lon="6.26236">
        <ele>1156.1999511719</ele>
        <time>2023-05-15T15:02:06.000Z</time>
      </trkpt>
      <trkpt lat="46.72471" lon="6.26219">
        <ele>1156.1999511719</ele>
        <time>2023-05-15T15:02:09.000Z</time>
      </trkpt>
      <trkpt lat="46.72466" lon="6.2621">
        <ele>1156.8000488281</ele>
        <time>2023-05-15T15:02:12.000Z</time>
      </trkpt>
      <trkpt lat="46.72463" lon="6.26201">
        <ele>1157.5999755859</ele>
        <time>2023-05-15T15:02:16.000Z</time>
      </trkpt>
      <trkpt lat="46.72454" lon="6.26186">
        <ele>1158</ele>
        <time>2023-05-15T15:02:20.000Z</time>
      </trkpt>
      <trkpt lat="46.72447" lon="6.26173">
        <ele>1159</ele>
        <time>2023-05-15T15:02:25.000Z</time>
      </trkpt>
      <trkpt lat="46.72445" lon="6.2617">
        <ele>1159.1999511719</ele>
        <time>2023-05-15T15:02:27.000Z</time>
      </trkpt>
      <trkpt lat="46.72434" lon="6.2616">
        <ele>1159.8000488281</ele>
        <time>2023-05-15T15:02:31.000Z</time>
      </trkpt>
      <trkpt lat="46.7243" lon="6.26155">
        <ele>1160</ele>
        <time>2023-05-15T15:02:33.000Z</time>
      </trkpt>
      <trkpt lat="46.72413" lon="6.2614">
        <ele>1160.5999755859</ele>
        <time>2023-05-15T15:02:40.000Z</time>
      </trkpt>
      <trkpt lat="46.72396" lon="6.26125">
        <ele>1160.4000244141</ele>
        <time>2023-05-15T15:02:47.000Z</time>
      </trkpt>
      <trkpt lat="46.72375" lon="6.26106">
        <ele>1161.1999511719</ele>
        <time>2023-05-15T15:02:54.000Z</time>
      </trkpt>
      <trkpt lat="46.72353" lon="6.26096">
        <ele>1161.8000488281</ele>
        <time>2023-05-15T15:03:01.000Z</time>
      </trkpt>
      <trkpt lat="46.7235" lon="6.26095">
        <ele>1162.1999511719</ele>
        <time>2023-05-15T15:03:02.000Z</time>
      </trkpt>
      <trkpt lat="46.7233" lon="6.2609">
        <ele>1163</ele>
        <time>2023-05-15T15:03:09.000Z</time>
      </trkpt>
      <trkpt lat="46.72316" lon="6.26084">
        <ele>1163.4000244141</ele>
        <time>2023-05-15T15:03:14.000Z</time>
      </trkpt>
      <trkpt lat="46.72311" lon="6.2608">
        <ele>1163.8000488281</ele>
        <time>2023-05-15T15:03:16.000Z</time>
      </trkpt>
      <trkpt lat="46.72304" lon="6.26076">
        <ele>1164.5999755859</ele>
        <time>2023-05-15T15:03:20.000Z</time>
      </trkpt>
      <trkpt lat="46.72292" lon="6.26068">
        <ele>1165.5999755859</ele>
        <time>2023-05-15T15:03:24.000Z</time>
      </trkpt>
      <trkpt lat="46.72283" lon="6.26062">
        <ele>1165.8000488281</ele>
        <time>2023-05-15T15:03:28.000Z</time>
      </trkpt>
      <trkpt lat="46.72271" lon="6.26052">
        <ele>1166.5999755859</ele>
        <time>2023-05-15T15:03:33.000Z</time>
      </trkpt>
      <trkpt lat="46.72262" lon="6.26047">
        <ele>1167.1999511719</ele>
        <time>2023-05-15T15:03:37.000Z</time>
      </trkpt>
      <trkpt lat="46.72253" lon="6.26041">
        <ele>1168</ele>
        <time>2023-05-15T15:03:41.000Z</time>
      </trkpt>
      <trkpt lat="46.72239" lon="6.26032">
        <ele>1168.5999755859</ele>
        <time>2023-05-15T15:03:46.000Z</time>
      </trkpt>
      <trkpt lat="46.72234" lon="6.26029">
        <ele>1168.5999755859</ele>
        <time>2023-05-15T15:03:48.000Z</time>
      </trkpt>
      <trkpt lat="46.72215" lon="6.26021">
        <ele>1169.8000488281</ele>
        <time>2023-05-15T15:03:56.000Z</time>
      </trkpt>
      <trkpt lat="46.72213" lon="6.2602">
        <ele>1169.8000488281</ele>
        <time>2023-05-15T15:03:57.000Z</time>
      </trkpt>
      <trkpt lat="46.72198" lon="6.26011">
        <ele>1170.8000488281</ele>
        <time>2023-05-15T15:04:04.000Z</time>
      </trkpt>
      <trkpt lat="46.72194" lon="6.26007">
        <ele>1171</ele>
        <time>2023-05-15T15:04:06.000Z</time>
      </trkpt>
      <trkpt lat="46.72186" lon="6.25998">
        <ele>1172</ele>
        <time>2023-05-15T15:04:11.000Z</time>
      </trkpt>
      <trkpt lat="46.7218" lon="6.25988">
        <ele>1172.5999755859</ele>
        <time>2023-05-15T15:04:14.000Z</time>
      </trkpt>
      <trkpt lat="46.72174" lon="6.2598">
        <ele>1173</ele>
        <time>2023-05-15T15:04:19.000Z</time>
      </trkpt>
      <trkpt lat="46.7216" lon="6.25956">
        <ele>1173.8000488281</ele>
        <time>2023-05-15T15:04:25.000Z</time>
      </trkpt>
      <trkpt lat="46.72156" lon="6.25951">
        <ele>1174</ele>
        <time>2023-05-15T15:04:27.000Z</time>
      </trkpt>
      <trkpt lat="46.7215" lon="6.25942">
        <ele>1175</ele>
        <time>2023-05-15T15:04:32.000Z</time>
      </trkpt>
      <trkpt lat="46.72141" lon="6.25927">
        <ele>1175.5999755859</ele>
        <time>2023-05-15T15:04:37.000Z</time>
      </trkpt>
      <trkpt lat="46.72134" lon="6.25908">
        <ele>1176</ele>
        <time>2023-05-15T15:04:45.000Z</time>
      </trkpt>
      <trkpt lat="46.72129" lon="6.25884">
        <ele>1176</ele>
        <time>2023-05-15T15:04:52.000Z</time>
      </trkpt>
      <trkpt lat="46.72122" lon="6.25855">
        <ele>1176.1999511719</ele>
        <time>2023-05-15T15:04:59.000Z</time>
      </trkpt>
      <trkpt lat="46.72104" lon="6.25833">
        <ele>1176.4000244141</ele>
        <time>2023-05-15T15:05:04.000Z</time>
      </trkpt>
      <trkpt lat="46.72088" lon="6.25814">
        <ele>1176.5999755859</ele>
        <time>2023-05-15T15:05:08.000Z</time>
      </trkpt>
      <trkpt lat="46.72075" lon="6.25795">
        <ele>1177.4000244141</ele>
        <time>2023-05-15T15:05:11.000Z</time>
      </trkpt>
      <trkpt lat="46.72056" lon="6.25759">
        <ele>1177.8000488281</ele>
        <time>2023-05-15T15:05:15.000Z</time>
      </trkpt>
      <trkpt lat="46.72052" lon="6.2575">
        <ele>1177.8000488281</ele>
        <time>2023-05-15T15:05:16.000Z</time>
      </trkpt>
      <trkpt lat="46.72039" lon="6.25724">
        <ele>1177.8000488281</ele>
        <time>2023-05-15T15:05:19.000Z</time>
      </trkpt>
      <trkpt lat="46.72036" lon="6.25716">
        <ele>1177.8000488281</ele>
        <time>2023-05-15T15:05:20.000Z</time>
      </trkpt>
      <trkpt lat="46.72028" lon="6.25697">
        <ele>1178.1999511719</ele>
        <time>2023-05-15T15:05:23.000Z</time>
      </trkpt>
      <trkpt lat="46.72025" lon="6.25692">
        <ele>1178.4000244141</ele>
        <time>2023-05-15T15:05:24.000Z</time>
      </trkpt>
      <trkpt lat="46.72016" lon="6.2567">
        <ele>1178.5999755859</ele>
        <time>2023-05-15T15:05:28.000Z</time>
      </trkpt>
      <trkpt lat="46.72013" lon="6.25661">
        <ele>1178.8000488281</ele>
        <time>2023-05-15T15:05:30.000Z</time>
      </trkpt>
      <trkpt lat="46.72012" lon="6.25657">
        <ele>1179</ele>
        <time>2023-05-15T15:05:31.000Z</time>
      </trkpt>
      <trkpt lat="46.72007" lon="6.25619">
        <ele>1179.4000244141</ele>
        <time>2023-05-15T15:05:37.000Z</time>
      </trkpt>
      <trkpt lat="46.72009" lon="6.25594">
        <ele>1179.8000488281</ele>
        <time>2023-05-15T15:05:41.000Z</time>
      </trkpt>
      <trkpt lat="46.72011" lon="6.25581">
        <ele>1180</ele>
        <time>2023-05-15T15:05:44.000Z</time>
      </trkpt>
      <trkpt lat="46.72013" lon="6.25576">
        <ele>1180.1999511719</ele>
        <time>2023-05-15T15:05:46.000Z</time>
      </trkpt>
      <trkpt lat="46.72014" lon="6.25572">
        <ele>1180.5999755859</ele>
        <time>2023-05-15T15:05:48.000Z</time>
      </trkpt>
      <trkpt lat="46.72015" lon="6.25571">
        <ele>1181</ele>
        <time>2023-05-15T15:05:49.000Z</time>
      </trkpt>
      <trkpt lat="46.72015" lon="6.2557">
        <ele>1181.5999755859</ele>
        <time>2023-05-15T15:05:52.000Z</time>
      </trkpt>
      <trkpt lat="46.7201" lon="6.25562">
        <ele>1192</ele>
        <time>2023-05-15T15:08:16.000Z</time>
      </trkpt>
      <trkpt lat="46.7201" lon="6.25557">
        <ele>1192.1999511719</ele>
        <time>2023-05-15T15:08:18.000Z</time>
      </trkpt>
      <trkpt lat="46.72003" lon="6.25534">
        <ele>1192.8000488281</ele>
        <time>2023-05-15T15:08:23.000Z</time>
      </trkpt>
      <trkpt lat="46.71996" lon="6.25504">
        <ele>1193</ele>
        <time>2023-05-15T15:08:27.000Z</time>
      </trkpt>
      <trkpt lat="46.71995" lon="6.25494">
        <ele>1193</ele>
        <time>2023-05-15T15:08:28.000Z</time>
      </trkpt>
      <trkpt lat="46.71994" lon="6.25486">
        <ele>1193</ele>
        <time>2023-05-15T15:08:29.000Z</time>
      </trkpt>
      <trkpt lat="46.71991" lon="6.25461">
        <ele>1193</ele>
        <time>2023-05-15T15:08:32.000Z</time>
      </trkpt>
      <trkpt lat="46.71988" lon="6.25449">
        <ele>1192.8000488281</ele>
        <time>2023-05-15T15:08:33.000Z</time>
      </trkpt>
      <trkpt lat="46.71979" lon="6.25416">
        <ele>1192.5999755859</ele>
        <time>2023-05-15T15:08:36.000Z</time>
      </trkpt>
      <trkpt lat="46.71967" lon="6.25384">
        <ele>1192.5999755859</ele>
        <time>2023-05-15T15:08:40.000Z</time>
      </trkpt>
      <trkpt lat="46.71962" lon="6.25363">
        <ele>1192.4000244141</ele>
        <time>2023-05-15T15:08:42.000Z</time>
      </trkpt>
      <trkpt lat="46.71947" lon="6.25325">
        <ele>1192.8000488281</ele>
        <time>2023-05-15T15:08:46.000Z</time>
      </trkpt>
      <trkpt lat="46.7193" lon="6.25281">
        <ele>1194</ele>
        <time>2023-05-15T15:08:52.000Z</time>
      </trkpt>
      <trkpt lat="46.71927" lon="6.2527">
        <ele>1194.1999511719</ele>
        <time>2023-05-15T15:08:53.000Z</time>
      </trkpt>
      <trkpt lat="46.71914" lon="6.25245">
        <ele>1194.8000488281</ele>
        <time>2023-05-15T15:08:57.000Z</time>
      </trkpt>
      <trkpt lat="46.71911" lon="6.25239">
        <ele>1195</ele>
        <time>2023-05-15T15:08:58.000Z</time>
      </trkpt>
      <trkpt lat="46.71907" lon="6.25234">
        <ele>1195.4000244141</ele>
        <time>2023-05-15T15:08:59.000Z</time>
      </trkpt>
      <trkpt lat="46.71898" lon="6.25215">
        <ele>1196</ele>
        <time>2023-05-15T15:09:02.000Z</time>
      </trkpt>
      <trkpt lat="46.71882" lon="6.2517">
        <ele>1196.5999755859</ele>
        <time>2023-05-15T15:09:08.000Z</time>
      </trkpt>
      <trkpt lat="46.71876" lon="6.25155">
        <ele>1196.8000488281</ele>
        <time>2023-05-15T15:09:11.000Z</time>
      </trkpt>
      <trkpt lat="46.71872" lon="6.25149">
        <ele>1197</ele>
        <time>2023-05-15T15:09:13.000Z</time>
      </trkpt>
      <trkpt lat="46.71859" lon="6.25125">
        <ele>1198.1999511719</ele>
        <time>2023-05-15T15:09:21.000Z</time>
      </trkpt>
      <trkpt lat="46.71857" lon="6.25122">
        <ele>1198.4000244141</ele>
        <time>2023-05-15T15:09:22.000Z</time>
      </trkpt>
      <trkpt lat="46.71851" lon="6.25116">
        <ele>1199</ele>
        <time>2023-05-15T15:09:26.000Z</time>
      </trkpt>
      <trkpt lat="46.71843" lon="6.25105">
        <ele>1199.8000488281</ele>
        <time>2023-05-15T15:09:30.000Z</time>
      </trkpt>
      <trkpt lat="46.71841" lon="6.25104">
        <ele>1200</ele>
        <time>2023-05-15T15:09:32.000Z</time>
      </trkpt>
      <trkpt lat="46.71828" lon="6.25089">
        <ele>1201.1999511719</ele>
        <time>2023-05-15T15:09:38.000Z</time>
      </trkpt>
      <trkpt lat="46.71825" lon="6.25085">
        <ele>1201.5999755859</ele>
        <time>2023-05-15T15:09:40.000Z</time>
      </trkpt>
      <trkpt lat="46.71814" lon="6.25071">
        <ele>1202.4000244141</ele>
        <time>2023-05-15T15:09:46.000Z</time>
      </trkpt>
      <trkpt lat="46.71805" lon="6.25062">
        <ele>1203.1999511719</ele>
        <time>2023-05-15T15:09:52.000Z</time>
      </trkpt>
      <trkpt lat="46.71802" lon="6.25057">
        <ele>1203</ele>
        <time>2023-05-15T15:09:53.000Z</time>
      </trkpt>
      <trkpt lat="46.71785" lon="6.25027">
        <ele>1203</ele>
        <time>2023-05-15T15:10:00.000Z</time>
      </trkpt>
      <trkpt lat="46.71768" lon="6.25011">
        <ele>1203.1999511719</ele>
        <time>2023-05-15T15:10:07.000Z</time>
      </trkpt>
      <trkpt lat="46.71764" lon="6.25006">
        <ele>1203.4000244141</ele>
        <time>2023-05-15T15:10:09.000Z</time>
      </trkpt>
      <trkpt lat="46.71752" lon="6.24995">
        <ele>1204.5999755859</ele>
        <time>2023-05-15T15:10:17.000Z</time>
      </trkpt>
      <trkpt lat="46.71742" lon="6.24989">
        <ele>1205.8000488281</ele>
        <time>2023-05-15T15:10:23.000Z</time>
      </trkpt>
      <trkpt lat="46.7174" lon="6.24988">
        <ele>1205.8000488281</ele>
        <time>2023-05-15T15:10:24.000Z</time>
      </trkpt>
      <trkpt lat="46.71732" lon="6.24981">
        <ele>1207</ele>
        <time>2023-05-15T15:10:31.000Z</time>
      </trkpt>
      <trkpt lat="46.71732" lon="6.24981">
        <ele>1207.4000244141</ele>
        <time>2023-05-15T15:10:32.000Z</time>
      </trkpt>
      <trkpt lat="46.71721" lon="6.24975">
        <ele>1208.5999755859</ele>
        <time>2023-05-15T15:10:39.000Z</time>
      </trkpt>
      <trkpt lat="46.71719" lon="6.24974">
        <ele>1208.8000488281</ele>
        <time>2023-05-15T15:10:40.000Z</time>
      </trkpt>
      <trkpt lat="46.71712" lon="6.24966">
        <ele>1209.5999755859</ele>
        <time>2023-05-15T15:10:46.000Z</time>
      </trkpt>
      <trkpt lat="46.71707" lon="6.24961">
        <ele>1210.4000244141</ele>
        <time>2023-05-15T15:10:51.000Z</time>
      </trkpt>
      <trkpt lat="46.71704" lon="6.24958">
        <ele>1210.5999755859</ele>
        <time>2023-05-15T15:10:53.000Z</time>
      </trkpt>
      <trkpt lat="46.71698" lon="6.24953">
        <ele>1211.5999755859</ele>
        <time>2023-05-15T15:10:57.000Z</time>
      </trkpt>
      <trkpt lat="46.71695" lon="6.2495">
        <ele>1211.8000488281</ele>
        <time>2023-05-15T15:10:59.000Z</time>
      </trkpt>
      <trkpt lat="46.71693" lon="6.24948">
        <ele>1212</ele>
        <time>2023-05-15T15:11:01.000Z</time>
      </trkpt>
      <trkpt lat="46.71691" lon="6.24945">
        <ele>1212.4000244141</ele>
        <time>2023-05-15T15:11:03.000Z</time>
      </trkpt>
      <trkpt lat="46.71686" lon="6.24937">
        <ele>1213</ele>
        <time>2023-05-15T15:11:07.000Z</time>
      </trkpt>
      <trkpt lat="46.71683" lon="6.24934">
        <ele>1213.4000244141</ele>
        <time>2023-05-15T15:11:09.000Z</time>
      </trkpt>
      <trkpt lat="46.71673" lon="6.24924">
        <ele>1214.4000244141</ele>
        <time>2023-05-15T15:11:15.000Z</time>
      </trkpt>
      <trkpt lat="46.71671" lon="6.24923">
        <ele>1214.4000244141</ele>
        <time>2023-05-15T15:11:16.000Z</time>
      </trkpt>
      <trkpt lat="46.71668" lon="6.24921">
        <ele>1215</ele>
        <time>2023-05-15T15:11:18.000Z</time>
      </trkpt>
      <trkpt lat="46.71661" lon="6.24914">
        <ele>1215.1999511719</ele>
        <time>2023-05-15T15:11:21.000Z</time>
      </trkpt>
      <trkpt lat="46.71651" lon="6.24904">
        <ele>1215.8000488281</ele>
        <time>2023-05-15T15:11:26.000Z</time>
      </trkpt>
      <trkpt lat="46.7165" lon="6.24903">
        <ele>1216</ele>
        <time>2023-05-15T15:11:27.000Z</time>
      </trkpt>
      <trkpt lat="46.71646" lon="6.24898">
        <ele>1216.1999511719</ele>
        <time>2023-05-15T15:11:30.000Z</time>
      </trkpt>
      <trkpt lat="46.71645" lon="6.24892">
        <ele>1216.4000244141</ele>
        <time>2023-05-15T15:11:32.000Z</time>
      </trkpt>
      <trkpt lat="46.71632" lon="6.24877">
        <ele>1217.8000488281</ele>
        <time>2023-05-15T15:11:40.000Z</time>
      </trkpt>
      <trkpt lat="46.71627" lon="6.24873">
        <ele>1218</ele>
        <time>2023-05-15T15:11:44.000Z</time>
      </trkpt>
      <trkpt lat="46.71615" lon="6.24862">
        <ele>1219.1999511719</ele>
        <time>2023-05-15T15:11:49.000Z</time>
      </trkpt>
      <trkpt lat="46.71602" lon="6.24848">
        <ele>1219.8000488281</ele>
        <time>2023-05-15T15:11:54.000Z</time>
      </trkpt>
      <trkpt lat="46.71599" lon="6.24843">
        <ele>1220</ele>
        <time>2023-05-15T15:11:56.000Z</time>
      </trkpt>
      <trkpt lat="46.71598" lon="6.24842">
        <ele>1220</ele>
        <time>2023-05-15T15:11:57.000Z</time>
      </trkpt>
      <trkpt lat="46.71588" lon="6.24835">
        <ele>1220.8000488281</ele>
        <time>2023-05-15T15:12:02.000Z</time>
      </trkpt>
      <trkpt lat="46.71576" lon="6.2482">
        <ele>1221</ele>
        <time>2023-05-15T15:12:09.000Z</time>
      </trkpt>
      <trkpt lat="46.71563" lon="6.24801">
        <ele>1221.1999511719</ele>
        <time>2023-05-15T15:12:16.000Z</time>
      </trkpt>
      <trkpt lat="46.71545" lon="6.24773">
        <ele>1222</ele>
        <time>2023-05-15T15:12:23.000Z</time>
      </trkpt>
      <trkpt lat="46.7154" lon="6.2476">
        <ele>1222.4000244141</ele>
        <time>2023-05-15T15:12:26.000Z</time>
      </trkpt>
      <trkpt lat="46.7154" lon="6.2476">
        <ele>1222.5999755859</ele>
        <time>2023-05-15T15:12:27.000Z</time>
      </trkpt>
      <trkpt lat="46.71537" lon="6.24751">
        <ele>1222.5999755859</ele>
        <time>2023-05-15T15:12:28.000Z</time>
      </trkpt>
      <trkpt lat="46.71536" lon="6.24746">
        <ele>1223</ele>
        <time>2023-05-15T15:12:30.000Z</time>
      </trkpt>
      <trkpt lat="46.71533" lon="6.24739">
        <ele>1223.4000244141</ele>
        <time>2023-05-15T15:12:32.000Z</time>
      </trkpt>
      <trkpt lat="46.71529" lon="6.24733">
        <ele>1224</ele>
        <time>2023-05-15T15:12:34.000Z</time>
      </trkpt>
      <trkpt lat="46.7152" lon="6.24719">
        <ele>1224.5999755859</ele>
        <time>2023-05-15T15:12:38.000Z</time>
      </trkpt>
      <trkpt lat="46.71503" lon="6.24688">
        <ele>1225.4000244141</ele>
        <time>2023-05-15T15:12:44.000Z</time>
      </trkpt>
      <trkpt lat="46.71488" lon="6.24662">
        <ele>1226</ele>
        <time>2023-05-15T15:12:49.000Z</time>
      </trkpt>
      <trkpt lat="46.71487" lon="6.24638">
        <ele>1226.8000488281</ele>
        <time>2023-05-15T15:12:53.000Z</time>
      </trkpt>
      <trkpt lat="46.71484" lon="6.24633">
        <ele>1227</ele>
        <time>2023-05-15T15:12:54.000Z</time>
      </trkpt>
      <trkpt lat="46.71475" lon="6.24602">
        <ele>1228.4000244141</ele>
        <time>2023-05-15T15:13:01.000Z</time>
      </trkpt>
      <trkpt lat="46.71474" lon="6.24599">
        <ele>1228.4000244141</ele>
        <time>2023-05-15T15:13:02.000Z</time>
      </trkpt>
      <trkpt lat="46.71466" lon="6.24582">
        <ele>1229</ele>
        <time>2023-05-15T15:13:07.000Z</time>
      </trkpt>
      <trkpt lat="46.71465" lon="6.24577">
        <ele>1229.4000244141</ele>
        <time>2023-05-15T15:13:09.000Z</time>
      </trkpt>
      <trkpt lat="46.71464" lon="6.24569">
        <ele>1230</ele>
        <time>2023-05-15T15:13:13.000Z</time>
      </trkpt>
      <trkpt lat="46.71462" lon="6.24565">
        <ele>1230.4000244141</ele>
        <time>2023-05-15T15:13:15.000Z</time>
      </trkpt>
      <trkpt lat="46.71462" lon="6.24562">
        <ele>1230.4000244141</ele>
        <time>2023-05-15T15:13:16.000Z</time>
      </trkpt>
      <trkpt lat="46.71459" lon="6.24553">
        <ele>1230.8000488281</ele>
        <time>2023-05-15T15:13:19.000Z</time>
      </trkpt>
      <trkpt lat="46.71448" lon="6.24534">
        <ele>1231.5999755859</ele>
        <time>2023-05-15T15:13:26.000Z</time>
      </trkpt>
      <trkpt lat="46.71443" lon="6.24528">
        <ele>1231.8000488281</ele>
        <time>2023-05-15T15:13:29.000Z</time>
      </trkpt>
      <trkpt lat="46.71435" lon="6.24521">
        <ele>1232.4000244141</ele>
        <time>2023-05-15T15:13:32.000Z</time>
      </trkpt>
      <trkpt lat="46.71422" lon="6.24511">
        <ele>1233</ele>
        <time>2023-05-15T15:13:37.000Z</time>
      </trkpt>
      <trkpt lat="46.71409" lon="6.24494">
        <ele>1233.5999755859</ele>
        <time>2023-05-15T15:13:42.000Z</time>
      </trkpt>
      <trkpt lat="46.71407" lon="6.24492">
        <ele>1233.8000488281</ele>
        <time>2023-05-15T15:13:43.000Z</time>
      </trkpt>
      <trkpt lat="46.71403" lon="6.24487">
        <ele>1234</ele>
        <time>2023-05-15T15:13:45.000Z</time>
      </trkpt>
      <trkpt lat="46.71395" lon="6.24479">
        <ele>1234.4000244141</ele>
        <time>2023-05-15T15:13:47.000Z</time>
      </trkpt>
      <trkpt lat="46.71384" lon="6.24467">
        <ele>1235.1999511719</ele>
        <time>2023-05-15T15:13:51.000Z</time>
      </trkpt>
      <trkpt lat="46.71375" lon="6.24461">
        <ele>1235.5999755859</ele>
        <time>2023-05-15T15:13:54.000Z</time>
      </trkpt>
      <trkpt lat="46.71354" lon="6.24451">
        <ele>1236.4000244141</ele>
        <time>2023-05-15T15:14:01.000Z</time>
      </trkpt>
      <trkpt lat="46.7133" lon="6.24448">
        <ele>1236.5999755859</ele>
        <time>2023-05-15T15:14:08.000Z</time>
      </trkpt>
      <trkpt lat="46.71315" lon="6.2445">
        <ele>1237.1999511719</ele>
        <time>2023-05-15T15:14:12.000Z</time>
      </trkpt>
      <trkpt lat="46.71307" lon="6.24451">
        <ele>1237.5999755859</ele>
        <time>2023-05-15T15:14:14.000Z</time>
      </trkpt>
      <trkpt lat="46.71288" lon="6.24452">
        <ele>1238</ele>
        <time>2023-05-15T15:14:17.000Z</time>
      </trkpt>
      <trkpt lat="46.71278" lon="6.2445">
        <ele>1238.1999511719</ele>
        <time>2023-05-15T15:14:19.000Z</time>
      </trkpt>
      <trkpt lat="46.71267" lon="6.24444">
        <ele>1238.8000488281</ele>
        <time>2023-05-15T15:14:23.000Z</time>
      </trkpt>
      <trkpt lat="46.71264" lon="6.24438">
        <ele>1239</ele>
        <time>2023-05-15T15:14:25.000Z</time>
      </trkpt>
      <trkpt lat="46.71263" lon="6.24428">
        <ele>1239.4000244141</ele>
        <time>2023-05-15T15:14:28.000Z</time>
      </trkpt>
      <trkpt lat="46.71264" lon="6.24425">
        <ele>1239.5999755859</ele>
        <time>2023-05-15T15:14:29.000Z</time>
      </trkpt>
      <trkpt lat="46.71264" lon="6.24419">
        <ele>1240</ele>
        <time>2023-05-15T15:14:31.000Z</time>
      </trkpt>
      <trkpt lat="46.71266" lon="6.24417">
        <ele>1240.1999511719</ele>
        <time>2023-05-15T15:14:32.000Z</time>
      </trkpt>
      <trkpt lat="46.71268" lon="6.24415">
        <ele>1240.4000244141</ele>
        <time>2023-05-15T15:14:34.000Z</time>
      </trkpt>
      <trkpt lat="46.71273" lon="6.24405">
        <ele>1240.8000488281</ele>
        <time>2023-05-15T15:14:36.000Z</time>
      </trkpt>
      <trkpt lat="46.71275" lon="6.24396">
        <ele>1241.1999511719</ele>
        <time>2023-05-15T15:14:38.000Z</time>
      </trkpt>
      <trkpt lat="46.71276" lon="6.24383">
        <ele>1241.5999755859</ele>
        <time>2023-05-15T15:14:41.000Z</time>
      </trkpt>
      <trkpt lat="46.71274" lon="6.2438">
        <ele>1241.5999755859</ele>
        <time>2023-05-15T15:14:42.000Z</time>
      </trkpt>
      <trkpt lat="46.7127" lon="6.24376">
        <ele>1242</ele>
        <time>2023-05-15T15:14:45.000Z</time>
      </trkpt>
      <trkpt lat="46.71262" lon="6.24371">
        <ele>1242.5999755859</ele>
        <time>2023-05-15T15:14:48.000Z</time>
      </trkpt>
      <trkpt lat="46.71259" lon="6.24369">
        <ele>1242.8000488281</ele>
        <time>2023-05-15T15:14:49.000Z</time>
      </trkpt>
      <trkpt lat="46.7125" lon="6.24359">
        <ele>1243.4000244141</ele>
        <time>2023-05-15T15:14:53.000Z</time>
      </trkpt>
      <trkpt lat="46.71249" lon="6.24354">
        <ele>1243.5999755859</ele>
        <time>2023-05-15T15:14:54.000Z</time>
      </trkpt>
      <trkpt lat="46.71245" lon="6.24343">
        <ele>1243.8000488281</ele>
        <time>2023-05-15T15:14:57.000Z</time>
      </trkpt>
      <trkpt lat="46.71243" lon="6.24332">
        <ele>1244</ele>
        <time>2023-05-15T15:14:59.000Z</time>
      </trkpt>
      <trkpt lat="46.71244" lon="6.24325">
        <ele>1244.4000244141</ele>
        <time>2023-05-15T15:15:01.000Z</time>
      </trkpt>
      <trkpt lat="46.71242" lon="6.2432">
        <ele>1244.4000244141</ele>
        <time>2023-05-15T15:15:03.000Z</time>
      </trkpt>
      <trkpt lat="46.71242" lon="6.24316">
        <ele>1244.4000244141</ele>
        <time>2023-05-15T15:15:04.000Z</time>
      </trkpt>
      <trkpt lat="46.71243" lon="6.24313">
        <ele>1244.4000244141</ele>
        <time>2023-05-15T15:15:05.000Z</time>
      </trkpt>
      <trkpt lat="46.71243" lon="6.24308">
        <ele>1244.5999755859</ele>
        <time>2023-05-15T15:15:07.000Z</time>
      </trkpt>
      <trkpt lat="46.71236" lon="6.24288">
        <ele>1244.8000488281</ele>
        <time>2023-05-15T15:15:12.000Z</time>
      </trkpt>
      <trkpt lat="46.71236" lon="6.24278">
        <ele>1245.1999511719</ele>
        <time>2023-05-15T15:15:15.000Z</time>
      </trkpt>
      <trkpt lat="46.71233" lon="6.24268">
        <ele>1245.4000244141</ele>
        <time>2023-05-15T15:15:18.000Z</time>
      </trkpt>
      <trkpt lat="46.71232" lon="6.24249">
        <ele>1246.1999511719</ele>
        <time>2023-05-15T15:15:25.000Z</time>
      </trkpt>
      <trkpt lat="46.71232" lon="6.24236">
        <ele>1246.4000244141</ele>
        <time>2023-05-15T15:15:31.000Z</time>
      </trkpt>
      <trkpt lat="46.71231" lon="6.24234">
        <ele>1246.1999511719</ele>
        <time>2023-05-15T15:15:32.000Z</time>
      </trkpt>
      <trkpt lat="46.71226" lon="6.24222">
        <ele>1246.4000244141</ele>
        <time>2023-05-15T15:15:36.000Z</time>
      </trkpt>
      <trkpt lat="46.71225" lon="6.2421">
        <ele>1246.4000244141</ele>
        <time>2023-05-15T15:15:40.000Z</time>
      </trkpt>
      <trkpt lat="46.71223" lon="6.24205">
        <ele>1246.1999511719</ele>
        <time>2023-05-15T15:15:42.000Z</time>
      </trkpt>
      <trkpt lat="46.7122" lon="6.24197">
        <ele>1246.1999511719</ele>
        <time>2023-05-15T15:15:44.000Z</time>
      </trkpt>
      <trkpt lat="46.71219" lon="6.24192">
        <ele>1246.4000244141</ele>
        <time>2023-05-15T15:15:46.000Z</time>
      </trkpt>
      <trkpt lat="46.71218" lon="6.24183">
        <ele>1246.4000244141</ele>
        <time>2023-05-15T15:15:49.000Z</time>
      </trkpt>
      <trkpt lat="46.71214" lon="6.24171">
        <ele>1246.5999755859</ele>
        <time>2023-05-15T15:15:53.000Z</time>
      </trkpt>
      <trkpt lat="46.71209" lon="6.24162">
        <ele>1246.5999755859</ele>
        <time>2023-05-15T15:15:57.000Z</time>
      </trkpt>
      <trkpt lat="46.71206" lon="6.24156">
        <ele>1246.5999755859</ele>
        <time>2023-05-15T15:15:59.000Z</time>
      </trkpt>
      <trkpt lat="46.71203" lon="6.24147">
        <ele>1246</ele>
        <time>2023-05-15T15:16:02.000Z</time>
      </trkpt>
      <trkpt lat="46.71201" lon="6.24142">
        <ele>1245.8000488281</ele>
        <time>2023-05-15T15:16:03.000Z</time>
      </trkpt>
      <trkpt lat="46.71199" lon="6.24135">
        <ele>1245.8000488281</ele>
        <time>2023-05-15T15:16:04.000Z</time>
      </trkpt>
      <trkpt lat="46.71195" lon="6.24117">
        <ele>1245.4000244141</ele>
        <time>2023-05-15T15:16:09.000Z</time>
      </trkpt>
      <trkpt lat="46.71196" lon="6.24116">
        <ele>1245.4000244141</ele>
        <time>2023-05-15T15:16:10.000Z</time>
      </trkpt>
      <trkpt lat="46.71182" lon="6.24096">
        <ele>1245</ele>
        <time>2023-05-15T15:16:17.000Z</time>
      </trkpt>
      <trkpt lat="46.71174" lon="6.2408">
        <ele>1245</ele>
        <time>2023-05-15T15:16:21.000Z</time>
      </trkpt>
      <trkpt lat="46.71173" lon="6.24076">
        <ele>1244.8000488281</ele>
        <time>2023-05-15T15:16:22.000Z</time>
      </trkpt>
      <trkpt lat="46.71161" lon="6.24048">
        <ele>1245.1999511719</ele>
        <time>2023-05-15T15:16:29.000Z</time>
      </trkpt>
      <trkpt lat="46.71153" lon="6.24019">
        <ele>1245.8000488281</ele>
        <time>2023-05-15T15:16:35.000Z</time>
      </trkpt>
      <trkpt lat="46.7114" lon="6.23993">
        <ele>1246</ele>
        <time>2023-05-15T15:16:40.000Z</time>
      </trkpt>
      <trkpt lat="46.71135" lon="6.23988">
        <ele>1246</ele>
        <time>2023-05-15T15:16:42.000Z</time>
      </trkpt>
      <trkpt lat="46.71129" lon="6.23982">
        <ele>1246</ele>
        <time>2023-05-15T15:16:44.000Z</time>
      </trkpt>
      <trkpt lat="46.71117" lon="6.23964">
        <ele>1245.8000488281</ele>
        <time>2023-05-15T15:16:50.000Z</time>
      </trkpt>
      <trkpt lat="46.71118" lon="6.23945">
        <ele>1245.4000244141</ele>
        <time>2023-05-15T15:16:53.000Z</time>
      </trkpt>
      <trkpt lat="46.71119" lon="6.23939">
        <ele>1245.1999511719</ele>
        <time>2023-05-15T15:16:54.000Z</time>
      </trkpt>
      <trkpt lat="46.71127" lon="6.23903">
        <ele>1244.8000488281</ele>
        <time>2023-05-15T15:16:58.000Z</time>
      </trkpt>
      <trkpt lat="46.7113" lon="6.23895">
        <ele>1244.8000488281</ele>
        <time>2023-05-15T15:16:59.000Z</time>
      </trkpt>
      <trkpt lat="46.71132" lon="6.23886">
        <ele>1244.8000488281</ele>
        <time>2023-05-15T15:17:00.000Z</time>
      </trkpt>
      <trkpt lat="46.71137" lon="6.23868">
        <ele>1244.5999755859</ele>
        <time>2023-05-15T15:17:02.000Z</time>
      </trkpt>
      <trkpt lat="46.71139" lon="6.23859">
        <ele>1244.5999755859</ele>
        <time>2023-05-15T15:17:03.000Z</time>
      </trkpt>
      <trkpt lat="46.7114" lon="6.23849">
        <ele>1244.5999755859</ele>
        <time>2023-05-15T15:17:04.000Z</time>
      </trkpt>
      <trkpt lat="46.7114" lon="6.23828">
        <ele>1244.5999755859</ele>
        <time>2023-05-15T15:17:06.000Z</time>
      </trkpt>
      <trkpt lat="46.71142" lon="6.23819">
        <ele>1244.8000488281</ele>
        <time>2023-05-15T15:17:07.000Z</time>
      </trkpt>
      <trkpt lat="46.7114" lon="6.2377">
        <ele>1244.8000488281</ele>
        <time>2023-05-15T15:17:11.000Z</time>
      </trkpt>
      <trkpt lat="46.71144" lon="6.23745">
        <ele>1245</ele>
        <time>2023-05-15T15:17:13.000Z</time>
      </trkpt>
      <trkpt lat="46.71153" lon="6.23723">
        <ele>1245</ele>
        <time>2023-05-15T15:17:15.000Z</time>
      </trkpt>
      <trkpt lat="46.71164" lon="6.23682">
        <ele>1245</ele>
        <time>2023-05-15T15:17:19.000Z</time>
      </trkpt>
      <trkpt lat="46.71165" lon="6.23642">
        <ele>1245</ele>
        <time>2023-05-15T15:17:23.000Z</time>
      </trkpt>
      <trkpt lat="46.71164" lon="6.23631">
        <ele>1245</ele>
        <time>2023-05-15T15:17:24.000Z</time>
      </trkpt>
      <trkpt lat="46.71159" lon="6.23593">
        <ele>1245</ele>
        <time>2023-05-15T15:17:27.000Z</time>
      </trkpt>
      <trkpt lat="46.71157" lon="6.23584">
        <ele>1245</ele>
        <time>2023-05-15T15:17:28.000Z</time>
      </trkpt>
      <trkpt lat="46.71148" lon="6.23553">
        <ele>1244.8000488281</ele>
        <time>2023-05-15T15:17:31.000Z</time>
      </trkpt>
      <trkpt lat="46.71134" lon="6.23495">
        <ele>1244.5999755859</ele>
        <time>2023-05-15T15:17:37.000Z</time>
      </trkpt>
      <trkpt lat="46.7113" lon="6.23469">
        <ele>1244.1999511719</ele>
        <time>2023-05-15T15:17:40.000Z</time>
      </trkpt>
      <trkpt lat="46.71127" lon="6.23461">
        <ele>1244</ele>
        <time>2023-05-15T15:17:41.000Z</time>
      </trkpt>
      <trkpt lat="46.71122" lon="6.23445">
        <ele>1243.8000488281</ele>
        <time>2023-05-15T15:17:43.000Z</time>
      </trkpt>
      <trkpt lat="46.71111" lon="6.23422">
        <ele>1243.5999755859</ele>
        <time>2023-05-15T15:17:46.000Z</time>
      </trkpt>
      <trkpt lat="46.71098" lon="6.23401">
        <ele>1243.5999755859</ele>
        <time>2023-05-15T15:17:49.000Z</time>
      </trkpt>
      <trkpt lat="46.71091" lon="6.23379">
        <ele>1243.5999755859</ele>
        <time>2023-05-15T15:17:51.000Z</time>
      </trkpt>
      <trkpt lat="46.71087" lon="6.23354">
        <ele>1243.5999755859</ele>
        <time>2023-05-15T15:17:53.000Z</time>
      </trkpt>
      <trkpt lat="46.71088" lon="6.2334">
        <ele>1243.1999511719</ele>
        <time>2023-05-15T15:17:54.000Z</time>
      </trkpt>
      <trkpt lat="46.71089" lon="6.23326">
        <ele>1242.8000488281</ele>
        <time>2023-05-15T15:17:55.000Z</time>
      </trkpt>
      <trkpt lat="46.71094" lon="6.23275">
        <ele>1242.4000244141</ele>
        <time>2023-05-15T15:17:59.000Z</time>
      </trkpt>
      <trkpt lat="46.71095" lon="6.23253">
        <ele>1242</ele>
        <time>2023-05-15T15:18:01.000Z</time>
      </trkpt>
      <trkpt lat="46.71092" lon="6.23228">
        <ele>1241.8000488281</ele>
        <time>2023-05-15T15:18:03.000Z</time>
      </trkpt>
      <trkpt lat="46.71091" lon="6.23215">
        <ele>1241.4000244141</ele>
        <time>2023-05-15T15:18:04.000Z</time>
      </trkpt>
      <trkpt lat="46.71091" lon="6.23204">
        <ele>1241.4000244141</ele>
        <time>2023-05-15T15:18:05.000Z</time>
      </trkpt>
      <trkpt lat="46.71094" lon="6.23183">
        <ele>1240.5999755859</ele>
        <time>2023-05-15T15:18:07.000Z</time>
      </trkpt>
      <trkpt lat="46.71095" lon="6.23173">
        <ele>1240.4000244141</ele>
        <time>2023-05-15T15:18:08.000Z</time>
      </trkpt>
      <trkpt lat="46.71096" lon="6.23164">
        <ele>1240.4000244141</ele>
        <time>2023-05-15T15:18:09.000Z</time>
      </trkpt>
      <trkpt lat="46.71097" lon="6.23146">
        <ele>1240</ele>
        <time>2023-05-15T15:18:11.000Z</time>
      </trkpt>
      <trkpt lat="46.71097" lon="6.23133">
        <ele>1239.5999755859</ele>
        <time>2023-05-15T15:18:12.000Z</time>
      </trkpt>
      <trkpt lat="46.71097" lon="6.23098">
        <ele>1238.8000488281</ele>
        <time>2023-05-15T15:18:15.000Z</time>
      </trkpt>
      <trkpt lat="46.71094" lon="6.2307">
        <ele>1238.5999755859</ele>
        <time>2023-05-15T15:18:17.000Z</time>
      </trkpt>
      <trkpt lat="46.71092" lon="6.23053">
        <ele>1238.4000244141</ele>
        <time>2023-05-15T15:18:18.000Z</time>
      </trkpt>
      <trkpt lat="46.7109" lon="6.23036">
        <ele>1238</ele>
        <time>2023-05-15T15:18:19.000Z</time>
      </trkpt>
      <trkpt lat="46.71087" lon="6.2302">
        <ele>1237.8000488281</ele>
        <time>2023-05-15T15:18:20.000Z</time>
      </trkpt>
      <trkpt lat="46.71086" lon="6.22994">
        <ele>1237.1999511719</ele>
        <time>2023-05-15T15:18:22.000Z</time>
      </trkpt>
      <trkpt lat="46.71083" lon="6.2297">
        <ele>1236.8000488281</ele>
        <time>2023-05-15T15:18:24.000Z</time>
      </trkpt>
      <trkpt lat="46.71079" lon="6.22946">
        <ele>1236.5999755859</ele>
        <time>2023-05-15T15:18:26.000Z</time>
      </trkpt>
      <trkpt lat="46.71072" lon="6.22927">
        <ele>1236.4000244141</ele>
        <time>2023-05-15T15:18:28.000Z</time>
      </trkpt>
      <trkpt lat="46.71069" lon="6.22919">
        <ele>1236.1999511719</ele>
        <time>2023-05-15T15:18:29.000Z</time>
      </trkpt>
      <trkpt lat="46.71064" lon="6.22905">
        <ele>1236</ele>
        <time>2023-05-15T15:18:31.000Z</time>
      </trkpt>
      <trkpt lat="46.71062" lon="6.22893">
        <ele>1235.8000488281</ele>
        <time>2023-05-15T15:18:33.000Z</time>
      </trkpt>
      <trkpt lat="46.71062" lon="6.22887">
        <ele>1235.5999755859</ele>
        <time>2023-05-15T15:18:34.000Z</time>
      </trkpt>
      <trkpt lat="46.71063" lon="6.22882">
        <ele>1235.5999755859</ele>
        <time>2023-05-15T15:18:35.000Z</time>
      </trkpt>
      <trkpt lat="46.71064" lon="6.22872">
        <ele>1235</ele>
        <time>2023-05-15T15:18:38.000Z</time>
      </trkpt>
      <trkpt lat="46.71065" lon="6.22869">
        <ele>1234.5999755859</ele>
        <time>2023-05-15T15:18:39.000Z</time>
      </trkpt>
      <trkpt lat="46.71065" lon="6.22861">
        <ele>1234</ele>
        <time>2023-05-15T15:18:41.000Z</time>
      </trkpt>
      <trkpt lat="46.71065" lon="6.22852">
        <ele>1233.8000488281</ele>
        <time>2023-05-15T15:18:43.000Z</time>
      </trkpt>
      <trkpt lat="46.7106" lon="6.22826">
        <ele>1233.5999755859</ele>
        <time>2023-05-15T15:18:47.000Z</time>
      </trkpt>
      <trkpt lat="46.71056" lon="6.22813">
        <ele>1233.1999511719</ele>
        <time>2023-05-15T15:18:49.000Z</time>
      </trkpt>
      <trkpt lat="46.71049" lon="6.22785">
        <ele>1232.4000244141</ele>
        <time>2023-05-15T15:18:53.000Z</time>
      </trkpt>
      <trkpt lat="46.71047" lon="6.22778">
        <ele>1232.1999511719</ele>
        <time>2023-05-15T15:18:54.000Z</time>
      </trkpt>
      <trkpt lat="46.71044" lon="6.22763">
        <ele>1231.4000244141</ele>
        <time>2023-05-15T15:18:56.000Z</time>
      </trkpt>
      <trkpt lat="46.71041" lon="6.22741">
        <ele>1230.8000488281</ele>
        <time>2023-05-15T15:18:59.000Z</time>
      </trkpt>
      <trkpt lat="46.71041" lon="6.22735">
        <ele>1230.5999755859</ele>
        <time>2023-05-15T15:19:00.000Z</time>
      </trkpt>
      <trkpt lat="46.7104" lon="6.22729">
        <ele>1230.5999755859</ele>
        <time>2023-05-15T15:19:01.000Z</time>
      </trkpt>
      <trkpt lat="46.71038" lon="6.22722">
        <ele>1230.4000244141</ele>
        <time>2023-05-15T15:19:02.000Z</time>
      </trkpt>
      <trkpt lat="46.71033" lon="6.22709">
        <ele>1230.4000244141</ele>
        <time>2023-05-15T15:19:04.000Z</time>
      </trkpt>
      <trkpt lat="46.71031" lon="6.22703">
        <ele>1230</ele>
        <time>2023-05-15T15:19:05.000Z</time>
      </trkpt>
      <trkpt lat="46.71029" lon="6.22696">
        <ele>1230</ele>
        <time>2023-05-15T15:19:06.000Z</time>
      </trkpt>
      <trkpt lat="46.71014" lon="6.22667">
        <ele>1229.4000244141</ele>
        <time>2023-05-15T15:19:11.000Z</time>
      </trkpt>
      <trkpt lat="46.71006" lon="6.22646">
        <ele>1229</ele>
        <time>2023-05-15T15:19:14.000Z</time>
      </trkpt>
      <trkpt lat="46.71004" lon="6.22641">
        <ele>1229</ele>
        <time>2023-05-15T15:19:15.000Z</time>
      </trkpt>
      <trkpt lat="46.71" lon="6.22629">
        <ele>1228.8000488281</ele>
        <time>2023-05-15T15:19:16.000Z</time>
      </trkpt>
      <trkpt lat="46.70995" lon="6.22616">
        <ele>1228</ele>
        <time>2023-05-15T15:19:18.000Z</time>
      </trkpt>
      <trkpt lat="46.70993" lon="6.22611">
        <ele>1227.8000488281</ele>
        <time>2023-05-15T15:19:19.000Z</time>
      </trkpt>
      <trkpt lat="46.7099" lon="6.22607">
        <ele>1227.5999755859</ele>
        <time>2023-05-15T15:19:20.000Z</time>
      </trkpt>
      <trkpt lat="46.70988" lon="6.22604">
        <ele>1227.8000488281</ele>
        <time>2023-05-15T15:19:21.000Z</time>
      </trkpt>
      <trkpt lat="46.7098" lon="6.22596">
        <ele>1227.4000244141</ele>
        <time>2023-05-15T15:19:24.000Z</time>
      </trkpt>
      <trkpt lat="46.70973" lon="6.2259">
        <ele>1227.1999511719</ele>
        <time>2023-05-15T15:19:27.000Z</time>
      </trkpt>
      <trkpt lat="46.70968" lon="6.22584">
        <ele>1227</ele>
        <time>2023-05-15T15:19:29.000Z</time>
      </trkpt>
      <trkpt lat="46.70962" lon="6.22556">
        <ele>1226.8000488281</ele>
        <time>2023-05-15T15:19:35.000Z</time>
      </trkpt>
      <trkpt lat="46.70959" lon="6.2253">
        <ele>1225.5999755859</ele>
        <time>2023-05-15T15:19:40.000Z</time>
      </trkpt>
      <trkpt lat="46.70958" lon="6.22521">
        <ele>1225.5999755859</ele>
        <time>2023-05-15T15:19:42.000Z</time>
      </trkpt>
      <trkpt lat="46.70954" lon="6.22495">
        <ele>1225.1999511719</ele>
        <time>2023-05-15T15:19:47.000Z</time>
      </trkpt>
      <trkpt lat="46.70952" lon="6.22485">
        <ele>1225</ele>
        <time>2023-05-15T15:19:49.000Z</time>
      </trkpt>
      <trkpt lat="46.70941" lon="6.22461">
        <ele>1224.8000488281</ele>
        <time>2023-05-15T15:19:55.000Z</time>
      </trkpt>
      <trkpt lat="46.7094" lon="6.22457">
        <ele>1225</ele>
        <time>2023-05-15T15:19:57.000Z</time>
      </trkpt>
      <trkpt lat="46.70936" lon="6.2244">
        <ele>1224.4000244141</ele>
        <time>2023-05-15T15:20:01.000Z</time>
      </trkpt>
      <trkpt lat="46.70933" lon="6.22433">
        <ele>1224</ele>
        <time>2023-05-15T15:20:03.000Z</time>
      </trkpt>
      <trkpt lat="46.70933" lon="6.2243">
        <ele>1223.8000488281</ele>
        <time>2023-05-15T15:20:04.000Z</time>
      </trkpt>
      <trkpt lat="46.70928" lon="6.22416">
        <ele>1223.4000244141</ele>
        <time>2023-05-15T15:20:06.000Z</time>
      </trkpt>
      <trkpt lat="46.70927" lon="6.22413">
        <ele>1223.5999755859</ele>
        <time>2023-05-15T15:20:07.000Z</time>
      </trkpt>
      <trkpt lat="46.70919" lon="6.22393">
        <ele>1223.1999511719</ele>
        <time>2023-05-15T15:20:12.000Z</time>
      </trkpt>
      <trkpt lat="46.70919" lon="6.2239">
        <ele>1223</ele>
        <time>2023-05-15T15:20:13.000Z</time>
      </trkpt>
      <trkpt lat="46.70921" lon="6.22386">
        <ele>1223</ele>
        <time>2023-05-15T15:20:15.000Z</time>
      </trkpt>
      <trkpt lat="46.70921" lon="6.22382">
        <ele>1223</ele>
        <time>2023-05-15T15:20:16.000Z</time>
      </trkpt>
      <trkpt lat="46.70921" lon="6.22376">
        <ele>1222.8000488281</ele>
        <time>2023-05-15T15:20:17.000Z</time>
      </trkpt>
      <trkpt lat="46.70924" lon="6.22352">
        <ele>1222.4000244141</ele>
        <time>2023-05-15T15:20:21.000Z</time>
      </trkpt>
      <trkpt lat="46.70925" lon="6.22335">
        <ele>1222.4000244141</ele>
        <time>2023-05-15T15:20:23.000Z</time>
      </trkpt>
      <trkpt lat="46.70924" lon="6.22327">
        <ele>1222.1999511719</ele>
        <time>2023-05-15T15:20:24.000Z</time>
      </trkpt>
      <trkpt lat="46.70923" lon="6.22317">
        <ele>1222</ele>
        <time>2023-05-15T15:20:26.000Z</time>
      </trkpt>
      <trkpt lat="46.70921" lon="6.22299">
        <ele>1221.8000488281</ele>
        <time>2023-05-15T15:20:28.000Z</time>
      </trkpt>
      <trkpt lat="46.70918" lon="6.22278">
        <ele>1221.5999755859</ele>
        <time>2023-05-15T15:20:30.000Z</time>
      </trkpt>
      <trkpt lat="46.70917" lon="6.22268">
        <ele>1221.4000244141</ele>
        <time>2023-05-15T15:20:31.000Z</time>
      </trkpt>
      <trkpt lat="46.70917" lon="6.22256">
        <ele>1221</ele>
        <time>2023-05-15T15:20:33.000Z</time>
      </trkpt>
      <trkpt lat="46.70917" lon="6.22238">
        <ele>1220.5999755859</ele>
        <time>2023-05-15T15:20:35.000Z</time>
      </trkpt>
      <trkpt lat="46.70915" lon="6.22227">
        <ele>1220.4000244141</ele>
        <time>2023-05-15T15:20:36.000Z</time>
      </trkpt>
      <trkpt lat="46.70913" lon="6.22198">
        <ele>1219.8000488281</ele>
        <time>2023-05-15T15:20:39.000Z</time>
      </trkpt>
      <trkpt lat="46.70912" lon="6.2219">
        <ele>1219.8000488281</ele>
        <time>2023-05-15T15:20:40.000Z</time>
      </trkpt>
      <trkpt lat="46.7091" lon="6.22153">
        <ele>1219.1999511719</ele>
        <time>2023-05-15T15:20:44.000Z</time>
      </trkpt>
      <trkpt lat="46.70908" lon="6.22147">
        <ele>1219.1999511719</ele>
        <time>2023-05-15T15:20:45.000Z</time>
      </trkpt>
      <trkpt lat="46.70904" lon="6.22141">
        <ele>1219</ele>
        <time>2023-05-15T15:20:46.000Z</time>
      </trkpt>
      <trkpt lat="46.709" lon="6.22135">
        <ele>1219</ele>
        <time>2023-05-15T15:20:47.000Z</time>
      </trkpt>
      <trkpt lat="46.70895" lon="6.22129">
        <ele>1218.5999755859</ele>
        <time>2023-05-15T15:20:48.000Z</time>
      </trkpt>
      <trkpt lat="46.70893" lon="6.22124">
        <ele>1218.4000244141</ele>
        <time>2023-05-15T15:20:49.000Z</time>
      </trkpt>
      <trkpt lat="46.70889" lon="6.22107">
        <ele>1217.5999755859</ele>
        <time>2023-05-15T15:20:51.000Z</time>
      </trkpt>
      <trkpt lat="46.70884" lon="6.22085">
        <ele>1217.5999755859</ele>
        <time>2023-05-15T15:20:53.000Z</time>
      </trkpt>
      <trkpt lat="46.70881" lon="6.22075">
        <ele>1217.4000244141</ele>
        <time>2023-05-15T15:20:54.000Z</time>
      </trkpt>
      <trkpt lat="46.70873" lon="6.22059">
        <ele>1216.8000488281</ele>
        <time>2023-05-15T15:20:57.000Z</time>
      </trkpt>
      <trkpt lat="46.7087" lon="6.2204">
        <ele>1216.8000488281</ele>
        <time>2023-05-15T15:21:00.000Z</time>
      </trkpt>
      <trkpt lat="46.70869" lon="6.22037">
        <ele>1216.5999755859</ele>
        <time>2023-05-15T15:21:01.000Z</time>
      </trkpt>
      <trkpt lat="46.70864" lon="6.22021">
        <ele>1216.1999511719</ele>
        <time>2023-05-15T15:21:04.000Z</time>
      </trkpt>
      <trkpt lat="46.70861" lon="6.22011">
        <ele>1216.1999511719</ele>
        <time>2023-05-15T15:21:06.000Z</time>
      </trkpt>
      <trkpt lat="46.70859" lon="6.22007">
        <ele>1216</ele>
        <time>2023-05-15T15:21:07.000Z</time>
      </trkpt>
      <trkpt lat="46.70854" lon="6.21999">
        <ele>1216</ele>
        <time>2023-05-15T15:21:09.000Z</time>
      </trkpt>
      <trkpt lat="46.70847" lon="6.21982">
        <ele>1215.5999755859</ele>
        <time>2023-05-15T15:21:13.000Z</time>
      </trkpt>
      <trkpt lat="46.70844" lon="6.21975">
        <ele>1215.4000244141</ele>
        <time>2023-05-15T15:21:14.000Z</time>
      </trkpt>
      <trkpt lat="46.70836" lon="6.2195">
        <ele>1214.8000488281</ele>
        <time>2023-05-15T15:21:19.000Z</time>
      </trkpt>
      <trkpt lat="46.70835" lon="6.21947">
        <ele>1214.5999755859</ele>
        <time>2023-05-15T15:21:20.000Z</time>
      </trkpt>
      <trkpt lat="46.70831" lon="6.21934">
        <ele>1214.4000244141</ele>
        <time>2023-05-15T15:21:22.000Z</time>
      </trkpt>
      <trkpt lat="46.70829" lon="6.21927">
        <ele>1214.1999511719</ele>
        <time>2023-05-15T15:21:24.000Z</time>
      </trkpt>
      <trkpt lat="46.70827" lon="6.21922">
        <ele>1213.8000488281</ele>
        <time>2023-05-15T15:21:25.000Z</time>
      </trkpt>
      <trkpt lat="46.70823" lon="6.21912">
        <ele>1213.4000244141</ele>
        <time>2023-05-15T15:21:27.000Z</time>
      </trkpt>
      <trkpt lat="46.70821" lon="6.21905">
        <ele>1213</ele>
        <time>2023-05-15T15:21:29.000Z</time>
      </trkpt>
      <trkpt lat="46.7082" lon="6.21898">
        <ele>1212.4000244141</ele>
        <time>2023-05-15T15:21:31.000Z</time>
      </trkpt>
      <trkpt lat="46.70819" lon="6.21892">
        <ele>1211.8000488281</ele>
        <time>2023-05-15T15:21:33.000Z</time>
      </trkpt>
      <trkpt lat="46.70817" lon="6.21885">
        <ele>1211</ele>
        <time>2023-05-15T15:21:35.000Z</time>
      </trkpt>
      <trkpt lat="46.70814" lon="6.21874">
        <ele>1210</ele>
        <time>2023-05-15T15:21:38.000Z</time>
      </trkpt>
      <trkpt lat="46.70811" lon="6.21865">
        <ele>1209.5999755859</ele>
        <time>2023-05-15T15:21:41.000Z</time>
      </trkpt>
      <trkpt lat="46.70809" lon="6.21854">
        <ele>1209</ele>
        <time>2023-05-15T15:21:43.000Z</time>
      </trkpt>
      <trkpt lat="46.70801" lon="6.2183">
        <ele>1208.1999511719</ele>
        <time>2023-05-15T15:21:47.000Z</time>
      </trkpt>
      <trkpt lat="46.7079" lon="6.21805">
        <ele>1207.1999511719</ele>
        <time>2023-05-15T15:21:52.000Z</time>
      </trkpt>
      <trkpt lat="46.70791" lon="6.21794">
        <ele>1207</ele>
        <time>2023-05-15T15:21:54.000Z</time>
      </trkpt>
      <trkpt lat="46.70793" lon="6.21784">
        <ele>1207</ele>
        <time>2023-05-15T15:21:56.000Z</time>
      </trkpt>
      <trkpt lat="46.70795" lon="6.21772">
        <ele>1206.8000488281</ele>
        <time>2023-05-15T15:21:59.000Z</time>
      </trkpt>
      <trkpt lat="46.70797" lon="6.21771">
        <ele>1206.5999755859</ele>
        <time>2023-05-15T15:22:00.000Z</time>
      </trkpt>
      <trkpt lat="46.70799" lon="6.21769">
        <ele>1206.1999511719</ele>
        <time>2023-05-15T15:22:01.000Z</time>
      </trkpt>
      <trkpt lat="46.70799" lon="6.21758">
        <ele>1205.8000488281</ele>
        <time>2023-05-15T15:22:03.000Z</time>
      </trkpt>
      <trkpt lat="46.70798" lon="6.21747">
        <ele>1205</ele>
        <time>2023-05-15T15:22:06.000Z</time>
      </trkpt>
      <trkpt lat="46.70798" lon="6.21744">
        <ele>1204.5999755859</ele>
        <time>2023-05-15T15:22:07.000Z</time>
      </trkpt>
      <trkpt lat="46.70787" lon="6.21718">
        <ele>1204</ele>
        <time>2023-05-15T15:22:11.000Z</time>
      </trkpt>
      <trkpt lat="46.70784" lon="6.2171">
        <ele>1203.8000488281</ele>
        <time>2023-05-15T15:22:12.000Z</time>
      </trkpt>
      <trkpt lat="46.70779" lon="6.21686">
        <ele>1203.4000244141</ele>
        <time>2023-05-15T15:22:15.000Z</time>
      </trkpt>
      <trkpt lat="46.70776" lon="6.21671">
        <ele>1202.8000488281</ele>
        <time>2023-05-15T15:22:17.000Z</time>
      </trkpt>
      <trkpt lat="46.70766" lon="6.21632">
        <ele>1201.8000488281</ele>
        <time>2023-05-15T15:22:21.000Z</time>
      </trkpt>
      <trkpt lat="46.7076" lon="6.21606">
        <ele>1201.5999755859</ele>
        <time>2023-05-15T15:22:24.000Z</time>
      </trkpt>
      <trkpt lat="46.70758" lon="6.21593">
        <ele>1201.4000244141</ele>
        <time>2023-05-15T15:22:25.000Z</time>
      </trkpt>
      <trkpt lat="46.70755" lon="6.21582">
        <ele>1201.1999511719</ele>
        <time>2023-05-15T15:22:26.000Z</time>
      </trkpt>
      <trkpt lat="46.7075" lon="6.21555">
        <ele>1200.5999755859</ele>
        <time>2023-05-15T15:22:28.000Z</time>
      </trkpt>
      <trkpt lat="46.7075" lon="6.21527">
        <ele>1200.4000244141</ele>
        <time>2023-05-15T15:22:30.000Z</time>
      </trkpt>
      <trkpt lat="46.70747" lon="6.21487">
        <ele>1200.1999511719</ele>
        <time>2023-05-15T15:22:33.000Z</time>
      </trkpt>
      <trkpt lat="46.70745" lon="6.21458">
        <ele>1199.1999511719</ele>
        <time>2023-05-15T15:22:35.000Z</time>
      </trkpt>
      <trkpt lat="46.70737" lon="6.21413">
        <ele>1198.8000488281</ele>
        <time>2023-05-15T15:22:38.000Z</time>
      </trkpt>
      <trkpt lat="46.70735" lon="6.21402">
        <ele>1198.5999755859</ele>
        <time>2023-05-15T15:22:39.000Z</time>
      </trkpt>
      <trkpt lat="46.70735" lon="6.21387">
        <ele>1198.5999755859</ele>
        <time>2023-05-15T15:22:40.000Z</time>
      </trkpt>
      <trkpt lat="46.70733" lon="6.21364">
        <ele>1198.1999511719</ele>
        <time>2023-05-15T15:22:42.000Z</time>
      </trkpt>
      <trkpt lat="46.70729" lon="6.2134">
        <ele>1197.8000488281</ele>
        <time>2023-05-15T15:22:44.000Z</time>
      </trkpt>
      <trkpt lat="46.70721" lon="6.21295">
        <ele>1197.5999755859</ele>
        <time>2023-05-15T15:22:47.000Z</time>
      </trkpt>
      <trkpt lat="46.70718" lon="6.21271">
        <ele>1197</ele>
        <time>2023-05-15T15:22:49.000Z</time>
      </trkpt>
      <trkpt lat="46.70716" lon="6.2126">
        <ele>1196.5999755859</ele>
        <time>2023-05-15T15:22:50.000Z</time>
      </trkpt>
      <trkpt lat="46.70714" lon="6.21248">
        <ele>1196.4000244141</ele>
        <time>2023-05-15T15:22:51.000Z</time>
      </trkpt>
      <trkpt lat="46.70713" lon="6.21239">
        <ele>1196.4000244141</ele>
        <time>2023-05-15T15:22:52.000Z</time>
      </trkpt>
      <trkpt lat="46.70707" lon="6.21221">
        <ele>1195.8000488281</ele>
        <time>2023-05-15T15:22:54.000Z</time>
      </trkpt>
      <trkpt lat="46.70702" lon="6.21207">
        <ele>1195.5999755859</ele>
        <time>2023-05-15T15:22:56.000Z</time>
      </trkpt>
      <trkpt lat="46.707" lon="6.21195">
        <ele>1195.4000244141</ele>
        <time>2023-05-15T15:22:58.000Z</time>
      </trkpt>
      <trkpt lat="46.70698" lon="6.21188">
        <ele>1195</ele>
        <time>2023-05-15T15:23:00.000Z</time>
      </trkpt>
      <trkpt lat="46.70696" lon="6.21179">
        <ele>1194.8000488281</ele>
        <time>2023-05-15T15:23:02.000Z</time>
      </trkpt>
      <trkpt lat="46.70697" lon="6.21171">
        <ele>1194.5999755859</ele>
        <time>2023-05-15T15:23:04.000Z</time>
      </trkpt>
      <trkpt lat="46.70698" lon="6.21169">
        <ele>1194.1999511719</ele>
        <time>2023-05-15T15:23:05.000Z</time>
      </trkpt>
      <trkpt lat="46.70704" lon="6.21161">
        <ele>1193.8000488281</ele>
        <time>2023-05-15T15:23:08.000Z</time>
      </trkpt>
      <trkpt lat="46.70709" lon="6.21157">
        <ele>1193.4000244141</ele>
        <time>2023-05-15T15:23:10.000Z</time>
      </trkpt>
      <trkpt lat="46.70712" lon="6.21156">
        <ele>1193.1999511719</ele>
        <time>2023-05-15T15:23:11.000Z</time>
      </trkpt>
      <trkpt lat="46.70722" lon="6.21153">
        <ele>1192</ele>
        <time>2023-05-15T15:23:15.000Z</time>
      </trkpt>
      <trkpt lat="46.70725" lon="6.21152">
        <ele>1191.5999755859</ele>
        <time>2023-05-15T15:23:16.000Z</time>
      </trkpt>
      <trkpt lat="46.70733" lon="6.2115">
        <ele>1191</ele>
        <time>2023-05-15T15:23:18.000Z</time>
      </trkpt>
      <trkpt lat="46.70744" lon="6.21147">
        <ele>1190.8000488281</ele>
        <time>2023-05-15T15:23:20.000Z</time>
      </trkpt>
      <trkpt lat="46.70753" lon="6.21143">
        <ele>1190.4000244141</ele>
        <time>2023-05-15T15:23:22.000Z</time>
      </trkpt>
      <trkpt lat="46.70776" lon="6.21134">
        <ele>1189.5999755859</ele>
        <time>2023-05-15T15:23:26.000Z</time>
      </trkpt>
      <trkpt lat="46.70798" lon="6.21115">
        <ele>1188.8000488281</ele>
        <time>2023-05-15T15:23:31.000Z</time>
      </trkpt>
      <trkpt lat="46.708" lon="6.21112">
        <ele>1188.5999755859</ele>
        <time>2023-05-15T15:23:32.000Z</time>
      </trkpt>
      <trkpt lat="46.7081" lon="6.21102">
        <ele>1187.8000488281</ele>
        <time>2023-05-15T15:23:35.000Z</time>
      </trkpt>
      <trkpt lat="46.70815" lon="6.21097">
        <ele>1186.8000488281</ele>
        <time>2023-05-15T15:23:37.000Z</time>
      </trkpt>
      <trkpt lat="46.70817" lon="6.21095">
        <ele>1186.5999755859</ele>
        <time>2023-05-15T15:23:38.000Z</time>
      </trkpt>
      <trkpt lat="46.70821" lon="6.21091">
        <ele>1186</ele>
        <time>2023-05-15T15:23:40.000Z</time>
      </trkpt>
      <trkpt lat="46.70826" lon="6.21088">
        <ele>1185</ele>
        <time>2023-05-15T15:23:43.000Z</time>
      </trkpt>
      <trkpt lat="46.70827" lon="6.21087">
        <ele>1185</ele>
        <time>2023-05-15T15:23:44.000Z</time>
      </trkpt>
      <trkpt lat="46.70829" lon="6.21083">
        <ele>1184.5999755859</ele>
        <time>2023-05-15T15:23:47.000Z</time>
      </trkpt>
      <trkpt lat="46.70829" lon="6.21081">
        <ele>1184.1999511719</ele>
        <time>2023-05-15T15:23:48.000Z</time>
      </trkpt>
      <trkpt lat="46.7083" lon="6.21077">
        <ele>1184</ele>
        <time>2023-05-15T15:23:49.000Z</time>
      </trkpt>
      <trkpt lat="46.70824" lon="6.21066">
        <ele>1183.5999755859</ele>
        <time>2023-05-15T15:23:52.000Z</time>
      </trkpt>
      <trkpt lat="46.70805" lon="6.21055">
        <ele>1182.8000488281</ele>
        <time>2023-05-15T15:23:57.000Z</time>
      </trkpt>
      <trkpt lat="46.7079" lon="6.21043">
        <ele>1182</ele>
        <time>2023-05-15T15:24:01.000Z</time>
      </trkpt>
      <trkpt lat="46.70779" lon="6.21032">
        <ele>1181.5999755859</ele>
        <time>2023-05-15T15:24:04.000Z</time>
      </trkpt>
      <trkpt lat="46.7077" lon="6.2102">
        <ele>1181.1999511719</ele>
        <time>2023-05-15T15:24:07.000Z</time>
      </trkpt>
      <trkpt lat="46.70762" lon="6.21009">
        <ele>1180.4000244141</ele>
        <time>2023-05-15T15:24:10.000Z</time>
      </trkpt>
      <trkpt lat="46.70758" lon="6.21004">
        <ele>1180</ele>
        <time>2023-05-15T15:24:12.000Z</time>
      </trkpt>
      <trkpt lat="46.70745" lon="6.20987">
        <ele>1179.5999755859</ele>
        <time>2023-05-15T15:24:17.000Z</time>
      </trkpt>
      <trkpt lat="46.70742" lon="6.20983">
        <ele>1179.4000244141</ele>
        <time>2023-05-15T15:24:18.000Z</time>
      </trkpt>
      <trkpt lat="46.70729" lon="6.20968">
        <ele>1179</ele>
        <time>2023-05-15T15:24:22.000Z</time>
      </trkpt>
      <trkpt lat="46.70719" lon="6.20956">
        <ele>1178.4000244141</ele>
        <time>2023-05-15T15:24:25.000Z</time>
      </trkpt>
      <trkpt lat="46.70717" lon="6.20952">
        <ele>1178</ele>
        <time>2023-05-15T15:24:26.000Z</time>
      </trkpt>
      <trkpt lat="46.70707" lon="6.20939">
        <ele>1177.5999755859</ele>
        <time>2023-05-15T15:24:29.000Z</time>
      </trkpt>
      <trkpt lat="46.707" lon="6.20932">
        <ele>1177.4000244141</ele>
        <time>2023-05-15T15:24:31.000Z</time>
      </trkpt>
      <trkpt lat="46.70697" lon="6.20928">
        <ele>1177.1999511719</ele>
        <time>2023-05-15T15:24:32.000Z</time>
      </trkpt>
      <trkpt lat="46.70695" lon="6.20925">
        <ele>1177.1999511719</ele>
        <time>2023-05-15T15:24:33.000Z</time>
      </trkpt>
      <trkpt lat="46.70685" lon="6.20916">
        <ele>1176.4000244141</ele>
        <time>2023-05-15T15:24:37.000Z</time>
      </trkpt>
      <trkpt lat="46.70682" lon="6.20912">
        <ele>1175.8000488281</ele>
        <time>2023-05-15T15:24:42.000Z</time>
      </trkpt>
      <trkpt lat="46.70682" lon="6.20912">
        <ele>1175.1999511719</ele>
        <time>2023-05-15T15:24:44.000Z</time>
      </trkpt>
    </trkseg>
  </trk>
</gpx>